Date time  Uvelocity_cm/s Vvelocity_cm/s W_velocity_cm/s horizontalSpeedCareful_cm/s TotalSpeedCareful_cm/s HorizontalWindDirection_deg WindElevation_deg SpeedOfSound_cm/sec Temperature_Kelvin pressure_mb2009/04/23 14:59:59.9    -346   -119   -126    367    389 251.0 -18.9  34200  290.25 0854.62
2009/04/23 15:00:00.0    -290   -144   -110    324    343 243.6 -18.8  34202  290.28 0854.63
2009/04/23 15:00:00.1    -231   -100   -139    252    287 246.5 -35.8  34216  290.53 0854.63
2009/04/23 15:00:00.2    -169    -35     11    173    174 258.1   3.8  34226  290.69 0854.63
2009/04/23 15:00:00.3    -189    -57     70    198    210 253.2  20.0  34218  290.55 0854.63
2009/04/23 15:00:00.4    -289      0    102    290    308 270.0  19.4  34288  291.73 0854.63
2009/04/23 15:00:00.5    -199   -116     59    231    239 239.6  14.3  34270  291.44 0854.63
2009/04/23 15:00:00.6    -211    -73     55    224    231 250.9  13.9  34286  291.72 0854.63
2009/04/23 15:00:00.7    -212    -76    -67    226    236 250.1 -16.6  34250  291.09 0854.63
2009/04/23 15:00:00.8    -203    -31     42    206    211 261.2  11.6  34304  292.01 0854.63
2009/04/23 15:00:00.9    -284    -30    -64    286    294 263.8 -12.6  34310  292.13 0854.63
2009/04/23 15:00:01.0    -310     18      6    311    312 273.4   1.2  34316  292.21 0854.63
2009/04/23 15:00:01.1    -318     61   -111    324    343 280.9 -19.0  34278  291.56 0854.63
2009/04/23 15:00:01.2    -226     68     -6    237    238 286.9  -1.6  34292  291.82 0854.63
2009/04/23 15:00:01.3    -178     36     17    182    183 281.7   5.4  34292  291.81 0854.63
2009/04/23 15:00:01.4    -195    107     99    223    243 298.8  25.7  34288  291.73 0854.63
2009/04/23 15:00:01.5    -172    157    101    234    254 312.4  24.9  34308  292.07 0854.63
2009/04/23 15:00:01.6    -230    146     53    273    279 302.4  11.1  34346  292.72 0854.63
2009/04/23 15:00:01.7    -271     55   -100    277    294 281.5 -25.3  34266  291.36 0854.63
2009/04/23 15:00:01.8    -250     73    -52    261    267 286.4 -11.3  34244  291.00 0854.63
2009/04/23 15:00:01.9    -156     52    -53    165    174 288.4 -18.1  34220  290.60 0854.63
2009/04/23 15:00:02.0    -102     34     -7    108    109 288.6  -4.1  34214  290.50 0854.62
2009/04/23 15:00:02.1     -92     61     39    111    118 303.7  19.4  34230  290.77 0854.62
2009/04/23 15:00:02.2    -126      3     43    127    135 271.7  18.9  34288  291.76 0854.62
2009/04/23 15:00:02.3    -153    -21     52    155    164 262.1  18.6  34332  292.49 0854.62
2009/04/23 15:00:02.4    -121    -40    -41    128    135 251.4 -18.1  34326  292.39 0854.62
2009/04/23 15:00:02.5    -131      1    -19    132    134 270.8  -8.2  34328  292.42 0854.62
2009/04/23 15:00:02.6    -176     16    -68    177    189 275.5 -26.4  34284  291.69 0854.62
2009/04/23 15:00:02.7    -130    -24    -59    133    145 259.4 -29.6  34258  291.23 0854.62
2009/04/23 15:00:02.8      11    -80    -53     81     96 172.0 -40.0  34284  291.69 0854.62
2009/04/23 15:00:02.9     -53   -178    -59    186    196 196.7 -17.6  34236  290.87 0854.62
2009/04/23 15:00:03.0     -79    -96    -42    125    133 219.6 -18.7  34230  290.75 0854.62
2009/04/23 15:00:03.1    -192   -130     32    233    236 235.8   8.0  34232  290.78 0854.62
2009/04/23 15:00:03.2    -207    -97     11    229    230 244.8   2.8  34238  290.91 0854.62
2009/04/23 15:00:03.3    -346      7    -74    347    356 271.3 -12.2  34258  291.22 0854.62
2009/04/23 15:00:03.4    -373     26    -67    374    381 274.1 -10.3  34204  290.33 0854.62
2009/04/23 15:00:03.5    -458     93    -48    468    471 281.6  -5.9  34212  290.47 0854.62
2009/04/23 15:00:03.6    -390    -29   -129    392    413 265.6 -18.3  34220  290.60 0854.62
2009/04/23 15:00:03.7    -447     -6    -86    448    457 269.1 -10.9  34222  290.61 0854.62
2009/04/23 15:00:03.8    -416     50   -107    420    434 276.9 -14.4  34220  290.60 0854.62
2009/04/23 15:00:03.9    -383    -21    -18    384    385 266.8  -2.7  34234  290.83 0854.62
2009/04/23 15:00:04.0    -316      2    -29    317    319 270.4  -5.4  34200  290.26 0854.62
2009/04/23 15:00:04.1    -409    105    -76    423    430 284.4 -10.2  34240  290.94 0854.62
2009/04/23 15:00:04.2    -375    -41   -113    378    395 263.7 -16.7  34270  291.44 0854.62
2009/04/23 15:00:04.4    -313    -63     45    320    324 258.6   8.0  34276  291.53 0854.62
2009/04/23 15:00:04.4    -112   -128    -29    171    174 221.2  -9.8  34274  291.50 0854.62
2009/04/23 15:00:04.5     -45    -88     49    100    111 207.2  27.3  34264  291.35 0854.62
2009/04/23 15:00:04.6    -149    -96     93    178    200 237.1  29.5  34256  291.20 0854.62
2009/04/23 15:00:04.7    -209     51     -8    216    217 283.9  -2.2  34262  291.30 0854.62
2009/04/23 15:00:04.9    -141    -45      8    149    150 252.3   3.3  34256  291.21 0854.62
2009/04/23 15:00:05.0     -70   -157    150    173    228 204.1  45.4  34262  291.30 0854.62
2009/04/23 15:00:05.0    -116   -159     93    197    217 216.1  27.2  34276  291.54 0854.61
2009/04/23 15:00:05.1    -172    -93     37    196    200 241.6  10.8  34280  291.62 0854.61
2009/04/23 15:00:05.3    -111   -104     47    153    161 226.9  17.1  34260  291.28 0854.61
2009/04/23 15:00:05.4     -88   -156     -7    180    181 209.6  -2.2  34260  291.26 0854.61
2009/04/23 15:00:05.5     -49   -242     16    247    248 191.5   3.9  34268  291.39 0854.61
2009/04/23 15:00:05.6     -45   -224    -45    229    234 191.5 -11.1  34264  291.33 0854.61
2009/04/23 15:00:05.7     -97   -232     51    252    258 202.7  11.6  34260  291.27 0854.61
2009/04/23 15:00:05.8     -42   -204     36    209    213 191.8   9.9  34260  291.26 0854.61
2009/04/23 15:00:05.9     -28   -214     -4    216    217 187.6  -1.1  34252  291.13 0854.61
2009/04/23 15:00:06.0     -34   -209     34    212    215 189.3   9.3  34250  291.09 0854.61
2009/04/23 15:00:06.1     -14   -178     21    179    181 184.7   6.9  34246  291.04 0854.61
2009/04/23 15:00:06.2     -23   -216     11    218    219 186.2   2.9  34240  290.94 0854.61
2009/04/23 15:00:06.3      -4   -195     23    196    198 181.4   6.9  34248  291.08 0854.61
2009/04/23 15:00:06.4     -26   -237      0    239    240 186.5   0.0  34246  291.02 0854.61
2009/04/23 15:00:06.5     -19   -223     41    224    228 185.1  10.6  34244  290.99 0854.61
2009/04/23 15:00:06.6     -19   -191     51    192    199 185.8  15.0  34244  290.99 0854.61
2009/04/23 15:00:06.7      72   -208     60    221    230 160.8  15.2  34234  290.82 0854.61
2009/04/23 15:00:06.8      36   -195     24    199    201 169.3   6.9  34230  290.77 0854.61
2009/04/23 15:00:06.9     -23   -147    116    149    188 188.9  42.0  34236  290.86 0854.61
2009/04/23 15:00:07.0     -41   -154    101    160    189 195.2  35.5  34240  290.92 0854.61
2009/04/23 15:00:07.1     -38   -114    121    121    171 198.7  50.1  34242  290.96 0854.59
2009/04/23 15:00:07.2     -32    -96     77    102    127 198.3  41.6  34240  290.92 0854.59
2009/04/23 15:00:07.3       3    -50     94     51    106 175.5  68.9  34246  291.03 0854.59
2009/04/23 15:00:07.4      31    -19     77     37     85 122.4  72.4  34252  291.13 0854.59
2009/04/23 15:00:07.5      58     -7     64     59     87  97.0  52.2  34246  291.04 0854.59
2009/04/23 15:00:07.6      45      0     71     46     84  90.0  64.6  34248  291.06 0854.59
2009/04/23 15:00:07.7      44     -7     44     45     62  99.7  50.0  34244  291.01 0854.59
2009/04/23 15:00:07.8      29     -2     56     30     63  94.4  68.9  34260  291.26 0854.59
2009/04/23 15:00:07.9      17      0     49     18     52  90.8  80.2  34274  291.52 0854.59
2009/04/23 15:00:08.0     -13      8     48     16     50 302.4  81.0  34278  291.59 0854.59
2009/04/23 15:00:08.1      -7     26     63     27     68 344.9  76.1  34280  291.60 0854.59
2009/04/23 15:00:08.2      13     24     54     28     60  29.0  69.8  34264  291.35 0854.59
2009/04/23 15:00:08.3       0      0     60      1     60 315.0  90.0  34268  291.42 0854.59
2009/04/23 15:00:08.4       6      0     48      7     48  94.4  90.0  34270  291.45 0854.59
2009/04/23 15:00:08.5      14      1     35     15     38  85.6  77.1  34280  291.60 0854.59
2009/04/23 15:00:08.6      -9     14     38     17     41 327.5  75.0  34276  291.54 0854.59
2009/04/23 15:00:08.7     -10     -3     36     11     37 251.6  80.7  34270  291.45 0854.59
2009/04/23 15:00:08.8       5    -13     30     15     33 158.2  72.9  34268  291.40 0854.59
2009/04/23 15:00:08.9      17    -26     34     32     46 147.5  50.1  34276  291.55 0854.59
2009/04/23 15:00:09.0      32    -15     24     36     43 115.3  37.6  34264  291.33 0854.59
2009/04/23 15:00:09.1      21    -13     15     26     30 122.4  33.5  34260  291.26 0854.58
2009/04/23 15:00:09.2      15      8     43     18     46  61.1  77.1  34278  291.59 0854.58
2009/04/23 15:00:09.3      63     19     59     66     88  73.2  46.9  34264  291.33 0854.58
2009/04/23 15:00:09.4     102     27     48    106    116  75.0  26.6  34236  290.86 0854.58
2009/04/23 15:00:09.5      98     26     57    102    116  74.9  31.4  34236  290.87 0854.58
2009/04/23 15:00:09.6      79     35     58     87    104  66.0  36.5  34248  291.06 0854.58
2009/04/23 15:00:09.7      48     64     50     81     95  37.0  35.5  34254  291.16 0854.58
2009/04/23 15:00:09.8      20     80     37     83     90  14.3  26.2  34252  291.15 0854.58
2009/04/23 15:00:09.9       9     78     46     79     91   7.1  32.9  34248  291.06 0854.58
2009/04/23 15:00:10.0      -9     92     45     93    103 354.2  27.3  34248  291.08 0854.58
2009/04/23 15:00:10.1     -13     97     41     98    106 352.0  23.6  34250  291.09 0854.58
2009/04/23 15:00:10.2      -8    106     47    107    116 355.6  25.1  34250  291.09 0854.58
2009/04/23 15:00:10.3     -41    152     62    158    169 344.8  22.3  34244  290.99 0854.58
2009/04/23 15:00:10.4    -105    186     22    214    216 330.6   5.9  34220  290.58 0854.58
2009/04/23 15:00:10.5    -175    144    -58    227    235 309.5 -14.3  34206  290.35 0854.58
2009/04/23 15:00:10.6    -206    130    -90    244    260 302.4 -25.4  34232  290.80 0854.58
2009/04/23 15:00:10.7    -209    112    -75    238    249 298.2 -22.8  34246  291.02 0854.58
2009/04/23 15:00:10.8    -179    182   -124    256    284 315.5 -31.8  34200  290.24 0854.58
2009/04/23 15:00:10.9    -172    210   -130    272    301 320.6 -31.7  34206  290.34 0854.58
2009/04/23 15:00:11.0    -141    201   -157    246    291 324.8 -40.0  34198  290.20 0854.58
2009/04/23 15:00:11.1    -234     94   -181    253    311 292.0 -43.7  34244  291.00 0854.58
2009/04/23 15:00:11.2    -309     82   -140    320    349 285.0 -29.6  34278  291.59 0854.58
2009/04/23 15:00:11.3    -402    129   -157    423    451 287.8 -25.7  34204  290.31 0854.58
2009/04/23 15:00:11.4    -347    115   -172    366    404 288.4 -31.5  34202  290.28 0854.58
2009/04/23 15:00:11.5    -425     31   -184    427    464 274.3 -29.3  34196  290.17 0854.58
2009/04/23 15:00:11.6    -397     19   -218    398    453 272.8 -35.7  34194  290.16 0854.58
2009/04/23 15:00:11.7    -316     -4   -230    317    391 269.2 -44.1  34212  290.47 0854.58
2009/04/23 15:00:11.8    -345    -70   -102    352    367 258.5 -16.2  34224  290.67 0854.58
2009/04/23 15:00:11.9    -276   -134    112    308    327 244.0  20.8  34238  290.88 0854.58
2009/04/23 15:00:12.0    -216    212     80    303    314 314.4  14.9  34238  290.88 0854.58
2009/04/23 15:00:12.1    -153    185     81    241    255 320.3  18.6  34236  290.87 0854.58
2009/04/23 15:00:12.2    -128    221     89    256    272 329.9  19.2  34238  290.90 0854.58
2009/04/23 15:00:12.3    -114    243     95    269    286 334.8  19.4  34242  290.97 0854.58
2009/04/23 15:00:12.4     -84    176     71    196    208 334.5  20.7  34250  291.09 0854.58
2009/04/23 15:00:12.5    -211    -43    -46    216    221 258.5 -12.2  34230  290.75 0854.58
2009/04/23 15:00:12.6    -283     41    -44    287    291 278.4  -8.8  34224  290.66 0854.58
2009/04/23 15:00:12.7    -278     67    -67    287    295 283.7 -13.3  34196  290.17 0854.58
2009/04/23 15:00:12.8    -226     61    -72    235    245 285.3 -22.1  34192  290.12 0854.58
2009/04/23 15:00:12.9    -182     34    -78    186    201 280.8 -28.5  34190  290.08 0854.58
2009/04/23 15:00:13.0    -132     30   -103    136    170 282.8 -45.6  34188  290.04 0854.59
2009/04/23 15:00:13.1    -128     29   -132    132    186 282.8 -54.5  34202  290.30 0854.59
2009/04/23 15:00:13.2     -29    -25   -106     39    112 228.7 -84.1  34212  290.45 0854.59
2009/04/23 15:00:13.3     -93    -42   -128    103    164 245.6 -61.5  34200  290.25 0854.59
2009/04/23 15:00:13.4     -86    -28    -89     91    127 251.4 -54.3  34202  290.30 0854.59
2009/04/23 15:00:13.5     -39     18    -97     44    106 295.3 -78.4  34212  290.45 0854.59
2009/04/23 15:00:13.6     -16     13    -78     22     81 309.5 -88.3  34218  290.55 0854.59
2009/04/23 15:00:13.7     -30      6    -71     31     77 281.5 -79.4  34208  290.40 0854.59
2009/04/23 15:00:13.8     -26     41    -73     49     87 327.5 -67.6  34204  290.31 0854.59
2009/04/23 15:00:13.9     -38    -14    -56     41     69 250.0 -64.9  34206  290.35 0854.59
2009/04/23 15:00:14.0     -30    -48    -44     57     72 212.6 -47.1  34206  290.36 0854.59
2009/04/23 15:00:14.1     -30    -91    -65     96    115 198.3 -40.9  34196  290.19 0854.59
2009/04/23 15:00:14.2      -2   -133    -54    134    144 180.9 -27.4  34200  290.25 0854.59
2009/04/23 15:00:14.3      -3   -166    -42    167    173 181.1 -14.3  34214  290.48 0854.59
2009/04/23 15:00:14.4       7   -199    -64    200    209 178.0 -23.3  34224  290.65 0854.59
2009/04/23 15:00:14.5      16   -188    -60    189    198 174.9 -22.5  34230  290.75 0854.59
2009/04/23 15:00:14.6      37   -183    -66    187    199 168.5 -19.4  34230  290.77 0854.59
2009/04/23 15:00:14.7      32   -137     -2    141    142 166.6  -1.2  34228  290.72 0854.59
2009/04/23 15:00:14.8      23   -107    -37    110    116 167.5 -23.6  34236  290.87 0854.59
2009/04/23 15:00:14.9       6   -113    -80    114    139 176.9 -43.5  34238  290.89 0854.59
2009/04/23 15:00:15.0      13   -196   -110    197    225 176.2 -35.8  34218  290.57 0854.61
2009/04/23 15:00:15.1      81   -206    -95    222    241 158.4 -28.7  34208  290.39 0854.61
2009/04/23 15:00:15.2     115   -185    -74    218    231 148.1 -18.7  34210  290.43 0854.61
2009/04/23 15:00:15.3     115   -189    -67    222    231 148.6 -21.7  34208  290.38 0854.61
2009/04/23 15:00:15.4     110   -214    -92    241    257 152.8 -26.4  34202  290.27 0854.61
2009/04/23 15:00:15.5     145   -155    -58    213    221 136.8 -15.4  34198  290.23 0854.61
2009/04/23 15:00:15.6     136   -155    -53    207    214 138.6 -14.5  34210  290.41 0854.61
2009/04/23 15:00:15.7     109   -180    -27    211    213 148.6  -7.3  34226  290.70 0854.61
2009/04/23 15:00:15.8      94   -197    -12    219    220 154.4  -3.1  34244  290.99 0854.61
2009/04/23 15:00:15.9     101   -213      0    236    237 154.5   0.2  34248  291.05 0854.61
2009/04/23 15:00:16.0     117   -228     27    257    259 152.8   6.1  34216  290.53 0854.61
2009/04/23 15:00:16.1     131   -167    113    213    241 141.7  30.2  34208  290.38 0854.61
2009/04/23 15:00:16.2      28    -31    117     43    124 137.7  79.2  34226  290.70 0854.61
2009/04/23 15:00:16.3      49   -189    128    196    234 165.5  35.7  34226  290.70 0854.61
2009/04/23 15:00:16.4     -55   -233    107    240    262 193.3  25.3  34246  291.02 0854.61
2009/04/23 15:00:16.5     -47   -236     86    241    255 191.5  20.2  34244  290.99 0854.61
2009/04/23 15:00:16.6    -118   -197     81    230    244 211.0  19.4  34256  291.19 0854.61
2009/04/23 15:00:16.7    -127   -170     63    213    223 216.7  16.6  34246  291.03 0854.61
2009/04/23 15:00:16.8     -60   -108     25    124    127 209.4  11.6  34240  290.94 0854.61
2009/04/23 15:00:16.9    -160   -116    -79    198    213 234.1 -27.2  34226  290.69 0854.61
2009/04/23 15:00:17.0    -203    -88    -77    222    234 246.4 -24.3  34230  290.75 0854.61
2009/04/23 15:00:17.1     -81    -76   -158    112    193 226.9 -65.7  34228  290.74 0854.61
2009/04/23 15:00:17.2       2   -103   -150    104    182 178.6 -66.5  34240  290.92 0854.61
2009/04/23 15:00:17.3      56    -82      4    100    101 145.7   2.3  34228  290.74 0854.61
2009/04/23 15:00:17.4     -35    -32     68     48     83 226.9  61.1  34232  290.79 0854.61
2009/04/23 15:00:17.5     -74    -82    -24    111    114 222.3 -12.4  34228  290.74 0854.61
2009/04/23 15:00:17.6     -27   -129    -59    132    144 192.0 -30.1  34230  290.75 0854.61
2009/04/23 15:00:17.7       0   -178    -58    179    189 180.0 -17.9  34236  290.87 0854.61
2009/04/23 15:00:17.8      -7   -195    -31    196    199 182.2  -9.0  34234  290.82 0854.61
2009/04/23 15:00:17.9     -27   -254      7    256    257 186.3   1.7  34232  290.80 0854.61
2009/04/23 15:00:18.0       6   -262     -3    263    264 178.6  -0.7  34236  290.87 0854.61
2009/04/23 15:00:18.1     102   -293     54    311    316 160.8   9.9  34230  290.75 0854.61
2009/04/23 15:00:18.2     183   -247     80    308    319 143.5  14.7  34228  290.71 0854.61
2009/04/23 15:00:18.3     124   -268     92    296    311 155.1  17.3  34230  290.76 0854.61
2009/04/23 15:00:18.4      81   -264     43    277    281 163.0   9.0  34230  290.75 0854.61
2009/04/23 15:00:18.5       0   -265    -14    266    267 180.1  -3.2  34234  290.82 0854.61
2009/04/23 15:00:18.6     -68   -309    -34    317    319 192.5  -6.2  34232  290.78 0854.61
2009/04/23 15:00:18.7     -69   -269     87    278    292 194.5  17.4  34226  290.70 0854.61
2009/04/23 15:00:18.8     -59   -164     48    175    182 199.8  15.3  34232  290.81 0854.61
2009/04/23 15:00:18.9     -83   -274    137    287    318 196.9  27.4  34234  290.83 0854.61
2009/04/23 15:00:19.0    -106   -266    114    287    308 201.8  23.0  34238  290.88 0854.58
2009/04/23 15:00:19.1       0   -273    136    274    305 180.0  28.2  34236  290.85 0854.58
2009/04/23 15:00:19.2      17   -269    115    270    293 176.4  24.3  34230  290.76 0854.58
2009/04/23 15:00:19.3      55   -242     94    249    266 167.1  21.7  34232  290.80 0854.58
2009/04/23 15:00:19.4      34   -208    115    211    240 170.7  31.0  34230  290.77 0854.58
2009/04/23 15:00:19.5       0   -249     73    250    261 180.0  16.3  34232  290.80 0854.58
2009/04/23 15:00:19.6      -6   -239     47    240    245 181.6  11.1  34236  290.87 0854.58
2009/04/23 15:00:19.7      20   -271     65    272    280 175.6  13.5  34236  290.85 0854.58
2009/04/23 15:00:19.8       7   -282     55    283    289 178.4  11.1  34238  290.90 0854.58
2009/04/23 15:00:19.9     -36   -323     54    326    331 186.5   9.5  34238  290.89 0854.58
2009/04/23 15:00:20.0     -61   -250     56    258    265 193.8  12.4  34240  290.93 0854.58
2009/04/23 15:00:20.1     -38   -248     86    252    267 188.9  18.9  34246  291.02 0854.58
2009/04/23 15:00:20.2     -58   -202     73    211    224 196.0  19.2  34244  290.99 0854.58
2009/04/23 15:00:20.3     -97   -225     72    246    257 203.4  16.3  34242  290.95 0854.58
2009/04/23 15:00:20.4     -84   -254     23    268    270 198.5   5.0  34244  291.00 0854.58
2009/04/23 15:00:20.5     -30   -234     87    236    251 187.3  21.0  34244  291.00 0854.58
2009/04/23 15:00:20.6     -54   -315     60    320    326 189.8  10.7  34240  290.93 0854.58
2009/04/23 15:00:20.7     -43   -321    108    324    342 187.8  18.5  34238  290.91 0854.58
2009/04/23 15:00:20.8     -62   -306    118    313    334 191.5  21.6  34238  290.88 0854.58
2009/04/23 15:00:20.9      -2   -290    140    291    322 180.5  27.4  34238  290.90 0854.58
2009/04/23 15:00:21.0       0   -297    112    298    318 180.0  21.6  34230  290.76 0854.56
2009/04/23 15:00:21.1      -7   -261    144    262    298 181.6  31.3  34236  290.87 0854.56
2009/04/23 15:00:21.2       0   -294    102    295    313 180.0  19.1  34232  290.78 0854.56
2009/04/23 15:00:21.3      13   -329     89    330    342 177.7  15.2  34234  290.84 0854.56
2009/04/23 15:00:21.4      43   -357     14    360    361 173.0   2.2  34238  290.88 0854.56
2009/04/23 15:00:21.5      71   -305     56    314    320 166.9  10.2  34234  290.83 0854.56
2009/04/23 15:00:21.6      42   -330     16    333    334 172.7   2.8  34236  290.86 0854.56
2009/04/23 15:00:21.7      13   -280      4    281    282 177.3   0.8  34240  290.93 0854.56
2009/04/23 15:00:21.8     -56   -287     35    293    296 191.1   6.9  34240  290.92 0854.56
2009/04/23 15:00:21.9       2   -273      3    274    275 179.5   0.7  34236  290.85 0854.56
2009/04/23 15:00:22.0     -51   -259     48    265    270 191.1  10.3  34232  290.78 0854.56
2009/04/23 15:00:22.1      14   -348     19    349    350 177.7   3.2  34238  290.89 0854.56
2009/04/23 15:00:22.2      10   -336     42    337    340 178.3   7.1  34236  290.86 0854.56
2009/04/23 15:00:22.3     -48   -282    -14    287    288 189.8  -2.8  34230  290.75 0854.56
2009/04/23 15:00:22.4     -39   -260    -10    264    265 188.7  -2.2  34232  290.80 0854.56
2009/04/23 15:00:22.5    -130   -259     -9    291    292 206.7  -1.8  34232  290.78 0854.56
2009/04/23 15:00:22.6     -88   -193    -26    213    215 204.5  -7.2  34228  290.74 0854.56
2009/04/23 15:00:22.7     -79   -199    -34    215    218 201.6  -9.0  34228  290.74 0854.56
2009/04/23 15:00:22.8    -158   -248     -2    295    296 212.5  -0.5  34230  290.76 0854.56
2009/04/23 15:00:22.9     -50   -250     22    256    258 191.5   5.0  34232  290.78 0854.56
2009/04/23 15:00:23.0     -39   -194     80    198    213 191.5  23.0  34234  290.82 0854.55
2009/04/23 15:00:23.1    -160   -259     54    305    310 211.6  10.1  34234  290.82 0854.55
2009/04/23 15:00:23.2     -56   -221    116    229    256 194.3  28.7  34236  290.85 0854.55
2009/04/23 15:00:23.3     -66   -240    170    249    301 195.4  37.6  34242  290.95 0854.55
2009/04/23 15:00:23.4     -70   -260    158    270    312 195.1  33.0  34242  290.97 0854.55
2009/04/23 15:00:23.5     -68   -269    154    278    317 194.2  31.5  34234  290.83 0854.55
2009/04/23 15:00:23.6     -81   -302    121    313    335 195.1  22.4  34234  290.83 0854.55
2009/04/23 15:00:23.7     -57   -257    175    264    316 192.7  36.7  34256  291.19 0854.55
2009/04/23 15:00:23.8     -31   -194    184    197    269 189.3  48.0  34276  291.53 0854.55
2009/04/23 15:00:23.9     -96   -171    161    197    254 209.2  43.7  34292  291.82 0854.55
2009/04/23 15:00:24.0    -194   -150     96    246    264 232.2  22.5  34262  291.31 0854.56
2009/04/23 15:00:24.1    -230   -169     56    286    292 233.6  11.1  34268  291.39 0854.56
2009/04/23 15:00:24.2    -236   -207     51    315    320 228.7   9.3  34266  291.38 0854.56
2009/04/23 15:00:24.3    -143   -203     74    249    260 215.1  16.6  34250  291.10 0854.56
2009/04/23 15:00:24.4    -211   -129    -31    248    250 238.5  -7.2  34256  291.21 0854.56
2009/04/23 15:00:24.5    -301   -214     74    370    378 234.6  11.4  34270  291.44 0854.56
2009/04/23 15:00:24.6    -334   -213    -96    397    409 237.5 -13.7  34272  291.48 0854.56
2009/04/23 15:00:24.7    -206   -174      3    270    271 229.8   0.8  34272  291.46 0854.56
2009/04/23 15:00:24.8    -132   -140     60    193    203 223.2  17.3  34262  291.32 0854.56
2009/04/23 15:00:24.9    -128   -108     54    168    177 229.8  17.9  34276  291.54 0854.56
2009/04/23 15:00:25.0    -143   -240    112    280    301 210.8  23.0  34240  290.93 0854.56
2009/04/23 15:00:25.1    -176   -235    145    294    327 216.9  28.1  34242  290.97 0854.56
2009/04/23 15:00:25.2    -123   -179    166    218    274 214.5  41.4  34258  291.24 0854.56
2009/04/23 15:00:25.3    -103   -161    136    192    235 212.5  38.8  34250  291.09 0854.56
2009/04/23 15:00:25.4     -76   -204    110    218    244 200.5  28.7  34234  290.82 0854.56
2009/04/23 15:00:25.5     -52   -189    122    197    231 195.6  35.2  34240  290.94 0854.56
2009/04/23 15:00:25.6     -50   -241    146    247    286 191.8  33.5  34242  290.95 0854.56
2009/04/23 15:00:25.7     -33   -242    190    245    310 187.8  41.7  34244  291.00 0854.56
2009/04/23 15:00:25.8     -48   -236    179    242    301 191.6  39.7  34244  290.99 0854.56
2009/04/23 15:00:25.9     -94   -280    190    296    351 198.7  35.7  34240  290.93 0854.56
2009/04/23 15:00:26.0     -76   -155    206    173    269 206.3  56.1  34242  290.95 0854.56
2009/04/23 15:00:26.1     -14   -245    187    246    309 183.4  41.2  34244  290.99 0854.56
2009/04/23 15:00:26.2     -78   -236     90    249    264 198.5  20.4  34228  290.73 0854.56
2009/04/23 15:00:26.3     -88   -232     83    249    263 200.9  18.6  34244  291.00 0854.56
2009/04/23 15:00:26.4     -44   -184     80    190    206 193.6  24.3  34262  291.30 0854.56
2009/04/23 15:00:26.5     -65   -207    135    218    256 197.6  34.8  34244  290.99 0854.56
2009/04/23 15:00:26.6     -51   -191    165    198    257 195.2  43.8  34244  291.00 0854.56
2009/04/23 15:00:26.7     -22   -183    139    185    231 187.1  40.7  34238  290.91 0854.56
2009/04/23 15:00:26.8     -50   -245    177    251    307 191.6  38.6  34248  291.05 0854.56
2009/04/23 15:00:26.9     -33   -214    166    217    273 188.9  41.2  34246  291.04 0854.56
2009/04/23 15:00:27.0      34   -156    135    160    209 167.5  44.3  34252  291.13 0854.56
2009/04/23 15:00:27.1      58   -119    126    133    183 153.7  48.5  34258  291.23 0854.56
2009/04/23 15:00:27.2      12   -107    105    108    150 173.3  49.9  34264  291.33 0854.56
2009/04/23 15:00:27.3       8    -95    119     96    152 174.7  56.4  34260  291.28 0854.56
2009/04/23 15:00:27.4      71   -195    157    208    260 160.0  40.7  34266  291.36 0854.56
2009/04/23 15:00:27.5      28   -241    156    243    288 173.3  35.6  34298  291.90 0854.56
2009/04/23 15:00:27.6     -16   -228    102    229    250 184.0  25.7  34240  290.92 0854.56
2009/04/23 15:00:27.7      16   -120    161    122    202 172.0  59.0  34290  291.79 0854.56
2009/04/23 15:00:27.8     -23   -137    162    140    214 189.8  54.8  34286  291.72 0854.56
2009/04/23 15:00:27.9      32   -234    189    237    303 172.0  42.8  34242  290.97 0854.56
2009/04/23 15:00:28.0      21   -276    194    277    338 175.5  38.5  34238  290.88 0854.58
2009/04/23 15:00:28.1       5   -239    213    240    320 178.6  46.3  34254  291.16 0854.58
2009/04/23 15:00:28.2      24    -51    211     57    218 154.7  84.8  34262  291.30 0854.58
2009/04/23 15:00:28.3     176   -208    195    273    335 139.7  39.2  34264  291.33 0854.58
2009/04/23 15:00:28.4     194   -321    132    376    398 148.8  20.1  34244  291.00 0854.58
2009/04/23 15:00:28.5     233   -267    141    355    381 138.8  23.0  34244  291.01 0854.58
2009/04/23 15:00:28.6     358   -339    100    494    504 133.5  11.5  34248  291.08 0854.58
2009/04/23 15:00:28.7     299   -402    107    502    514 143.4  12.1  34222  290.64 0854.58
2009/04/23 15:00:28.8     327   -317    142    456    478 134.1  17.3  34232  290.78 0854.58
2009/04/23 15:00:28.9     109   -322     49    341    345 161.3   8.2  34220  290.60 0854.58
2009/04/23 15:00:29.0     166   -243    -28    295    297 145.7  -5.6  34224  290.65 0854.58
2009/04/23 15:00:29.1     138   -161    -72    213    224 139.5 -23.3  34232  290.79 0854.58
2009/04/23 15:00:29.2     267   -239     73    359    367 131.8  11.6  34214  290.49 0854.58
2009/04/23 15:00:29.3     246   -190    -70    312    320 127.7 -12.7  34228  290.71 0854.58
2009/04/23 15:00:29.4     173   -163    -83    239    253 133.3 -24.0  34232  290.80 0854.58
2009/04/23 15:00:29.5     103   -156    -88    188    207 146.6 -31.5  34224  290.65 0854.58
2009/04/23 15:00:29.6      81   -113     46    140    148 144.4  18.4  34230  290.75 0854.58
2009/04/23 15:00:29.7      74   -125    -18    146    148 149.3  -7.3  34228  290.72 0854.58
2009/04/23 15:00:29.8      62   -203    -44    213    218 162.8 -11.9  34226  290.69 0854.58
2009/04/23 15:00:29.9    -116   -136     21    179    181 220.5   6.7  34228  290.74 0854.58
2009/04/23 15:00:30.0     -76   -108     67    133    148 215.2  28.7  34232  290.81 0854.59
2009/04/23 15:00:30.1     -65   -157     90    170    192 202.5  30.3  34230  290.77 0854.59
2009/04/23 15:00:30.2    -119   -144     58    187    196 219.6  17.4  34240  290.92 0854.59
2009/04/23 15:00:30.3     -81   -128    117    152    191 212.5  41.7  34224  290.65 0854.59
2009/04/23 15:00:30.4      33   -161    121    165    204 168.2  39.7  34222  290.64 0854.59
2009/04/23 15:00:30.5      89   -182    137    203    244 153.7  37.4  34226  290.70 0854.59
2009/04/23 15:00:30.6     157   -199    122    254    281 141.7  27.4  34228  290.71 0854.59
2009/04/23 15:00:30.7     106   -241    126    264    292 156.2  27.3  34220  290.58 0854.59
2009/04/23 15:00:30.8     107   -220     96    245    263 153.9  22.5  34218  290.56 0854.59
2009/04/23 15:00:30.9     107   -243    102    266    284 156.2  22.0  34210  290.42 0854.59
2009/04/23 15:00:31.0     103   -256     89    277    292 158.1  17.9  34212  290.44 0854.59
2009/04/23 15:00:31.2     128   -304     32    331    333 157.1   5.7  34212  290.45 0854.59
2009/04/23 15:00:31.3     136   -312     52    341    345 156.4   8.7  34198  290.23 0854.59
2009/04/23 15:00:31.4      72   -284     69    294    302 165.7  13.2  34204  290.31 0854.59
2009/04/23 15:00:31.5      15   -319     68    320    328 177.3  12.0  34200  290.26 0854.59
2009/04/23 15:00:31.6     116   -277     -1    301    302 157.2  -0.3  34202  290.29 0854.59
2009/04/23 15:00:31.7     105   -232    -32    255    258 155.5  -7.2  34208  290.37 0854.59
2009/04/23 15:00:31.8     116   -265     26    290    292 156.3   5.2  34202  290.27 0854.59
2009/04/23 15:00:31.9      39   -278     44    281    285 172.0   8.9  34200  290.26 0854.59
2009/04/23 15:00:32.0      45   -237     75    242    254 169.1  17.3  34208  290.37 0854.59
2009/04/23 15:00:32.1       9   -211     72    212    225 177.5  18.9  34204  290.33 0854.58
2009/04/23 15:00:32.2      43   -189     76    194    208 167.1  22.5  34204  290.33 0854.58
2009/04/23 15:00:32.3      21   -198     77    200    214 173.8  21.7  34200  290.26 0854.58
2009/04/23 15:00:32.4      17   -229     88    230    246 175.6  22.0  34198  290.22 0854.58
2009/04/23 15:00:32.5      11   -252    109    253    275 177.4  25.1  34198  290.22 0854.58
2009/04/23 15:00:32.6      24   -215    116    217    246 173.5  30.3  34198  290.20 0854.58
2009/04/23 15:00:32.7     172   -141     69    223    234 129.5  17.3  34198  290.21 0854.58
2009/04/23 15:00:32.8     164   -164     28    233    235 135.0   6.9  34214  290.48 0854.58
2009/04/23 15:00:32.9     202   -177     68    269    278 131.3  14.2  34216  290.51 0854.58
2009/04/23 15:00:33.0     184    -83    -58    203    212 114.4 -16.0  34216  290.52 0854.58
2009/04/23 15:00:33.1      78    -78    -87    111    141 135.3 -46.6  34208  290.40 0854.58
2009/04/23 15:00:33.2     156    -16    -56    157    167  96.1 -19.7  34208  290.38 0854.58
2009/04/23 15:00:33.3     243   -129     98    276    294 118.0  19.6  34210  290.42 0854.58
2009/04/23 15:00:33.4     222    -42     75    227    240 100.8  18.4  34208  290.39 0854.58
2009/04/23 15:00:33.5     119    -33    -52    124    134 105.5 -28.5  34210  290.43 0854.58
2009/04/23 15:00:33.6     125     -2    -45    126    133  91.3 -24.4  34214  290.48 0854.58
2009/04/23 15:00:33.7     182     25     22    184    186  82.1   7.1  34208  290.40 0854.58
2009/04/23 15:00:33.8     168     30      9    171    172  79.9   3.1  34216  290.52 0854.58
2009/04/23 15:00:33.9      79     42     31     90     96  62.0  18.9  34212  290.47 0854.58
2009/04/23 15:00:34.0      32     29     73     44     85  47.8  65.7  34218  290.55 0854.58
2009/04/23 15:00:34.1     -17     16     67     24     71 313.3  81.2  34230  290.75 0854.58
2009/04/23 15:00:34.2     -19    -40    122     45    130 206.3  79.2  34238  290.89 0854.58
2009/04/23 15:00:34.3     -28    -10    115     30    118 250.0  85.4  34236  290.87 0854.58
2009/04/23 15:00:34.4      27      9    101     29    105  70.0  83.3  34236  290.87 0854.58
2009/04/23 15:00:34.5      27     22    116     35    121  50.5  82.8  34236  290.86 0854.58
2009/04/23 15:00:34.6      18     -5    111     19    112 108.2  90.0  34254  291.18 0854.58
2009/04/23 15:00:34.7     -91     31     82     97    127 289.1  44.8  34238  290.91 0854.58
2009/04/23 15:00:34.8       2     77     78     78    110   1.8  50.1  34234  290.82 0854.58
2009/04/23 15:00:34.9      -9    110     69    111    130 355.1  35.5  34230  290.77 0854.58
2009/04/23 15:00:35.0     -13     50     72     52     88 344.9  60.5  34238  290.89 0854.58
2009/04/23 15:00:35.1     -38     38     54     54     76 315.0  50.1  34234  290.82 0854.58
2009/04/23 15:00:35.2    -145    116      9    186    187 308.6   2.8  34230  290.75 0854.58
2009/04/23 15:00:35.3     -95    185      2    209    210 332.8   0.8  34226  290.69 0854.58
2009/04/23 15:00:35.4     -32    157     23    161    163 348.4   8.2  34230  290.75 0854.58
2009/04/23 15:00:35.5      -8    115     27    116    120 356.0  13.1  34232  290.81 0854.58
2009/04/23 15:00:35.6      39    116     65    123    139  18.7  30.3  34240  290.92 0854.58
2009/04/23 15:00:35.7     -17     91     57     93    109 349.3  35.0  34238  290.91 0854.58
2009/04/23 15:00:35.8      12     55     87     57    104  12.5  64.1  34236  290.86 0854.58
2009/04/23 15:00:35.9     -43    -35     91     56    106 230.4  65.1  34234  290.82 0854.58
2009/04/23 15:00:36.0     -29    -92    159     97    186 197.8  65.4  34210  290.43 0854.58
2009/04/23 15:00:36.1       0     17     96     18     97 357.3  89.6  34244  290.99 0854.58
2009/04/23 15:00:36.2      19     19     91     27     94  45.1  82.3  34236  290.86 0854.58
2009/04/23 15:00:36.3      77    -77    114    109    157 135.0  51.4  34222  290.62 0854.58
2009/04/23 15:00:36.4     111   -119    107    164    195 137.0  36.3  34220  290.58 0854.58
2009/04/23 15:00:36.5      81    -97     74    127    146 140.4  33.4  34218  290.55 0854.58
2009/04/23 15:00:36.6      62   -112     64    129    144 151.1  28.2  34214  290.50 0854.58
2009/04/23 15:00:36.7      33   -162    118    166    203 168.2  38.8  34208  290.40 0854.58
2009/04/23 15:00:36.8      54   -174     90    183    203 162.6  28.2  34208  290.38 0854.58
2009/04/23 15:00:36.9       4   -172    113    173    206 178.6  36.0  34206  290.35 0854.58
2009/04/23 15:00:37.0      -5   -190    138    191    235 181.6  39.7  34218  290.55 0854.58
2009/04/23 15:00:37.1      16   -150    121    151    193 173.8  43.3  34218  290.55 0854.58
2009/04/23 15:00:37.2     -24   -118     98    121    155 191.6  43.7  34212  290.45 0854.58
2009/04/23 15:00:37.3      28    -85     96     90    131 161.7  52.1  34220  290.60 0854.58
2009/04/23 15:00:37.4     -46   -147     49    155    163 197.4  17.7  34210  290.41 0854.58
2009/04/23 15:00:37.5     -58   -165     47    176    183 199.6  15.2  34206  290.36 0854.58
2009/04/23 15:00:37.6     -60   -153    150    165    222 201.4  47.5  34216  290.53 0854.58
2009/04/23 15:00:37.7     -81   -195    125    212    246 202.5  33.4  34220  290.59 0854.58
2009/04/23 15:00:37.8     -73   -202    136    215    254 200.0  35.5  34218  290.54 0854.58
2009/04/23 15:00:37.9     -59   -201     72    210    223 196.5  18.9  34216  290.52 0854.58
2009/04/23 15:00:38.0     -79   -201     65    217    227 201.6  16.8  34212  290.45 0854.58
2009/04/23 15:00:38.1     -81   -170     85    189    207 205.5  25.9  34222  290.64 0854.58
2009/04/23 15:00:38.2     -80   -156     23    176    178 207.2   7.5  34222  290.62 0854.58
2009/04/23 15:00:38.3     -89   -131    -42    159    165 214.3 -15.0  34246  291.03 0854.58
2009/04/23 15:00:38.4     -64    -77     -2    101    102 219.6  -1.3  34262  291.32 0854.58
2009/04/23 15:00:38.5     -77    -55     44     95    104 234.5  26.6  34264  291.33 0854.58
2009/04/23 15:00:38.6    -117   -128    -32    174    177 222.5 -10.5  34260  291.26 0854.58
2009/04/23 15:00:38.7     -89     16     36     91     97 280.6  22.0  34260  291.26 0854.58
2009/04/23 15:00:38.8    -148      2     88    149    173 270.8  33.7  34286  291.71 0854.58
2009/04/23 15:00:38.9     -65     -8     66     66     93 263.0  50.1  34278  291.57 0854.58
2009/04/23 15:00:39.0    -140    -54     62    151    163 248.7  23.4  34268  291.40 0854.58
2009/04/23 15:00:39.1    -187   -129     76    228    241 235.4  18.5  34272  291.48 0854.58
2009/04/23 15:00:39.2    -160    -37    -11    165    166 256.7  -4.1  34296  291.88 0854.58
2009/04/23 15:00:39.3    -106    -69     -7    127    128 236.7  -3.2  34318  292.25 0854.58
2009/04/23 15:00:39.4     -34    -67     28     76     81 207.2  21.0  34290  291.77 0854.58
2009/04/23 15:00:39.5     -27    -78     99     83    129 199.2  56.3  34272  291.47 0854.58
2009/04/23 15:00:39.6     -97    -67     98    119    154 235.4  43.7  34284  291.67 0854.58
2009/04/23 15:00:39.7     -58    -51     86     78    116 228.7  52.7  34296  291.89 0854.58
2009/04/23 15:00:39.8     -62    -87     98    107    145 215.6  47.9  34288  291.76 0854.58
2009/04/23 15:00:39.9     -94    -83     93    126    156 228.7  40.4  34294  291.86 0854.58
2009/04/23 15:00:40.0    -103    -81     74    132    151 231.8  31.4  34312  292.17 0854.59
2009/04/23 15:00:40.1    -108    -51     65    120    136 244.6  30.8  34326  292.39 0854.59
2009/04/23 15:00:40.2    -203    -22     25    205    207 263.6   7.2  34314  292.20 0854.59
2009/04/23 15:00:40.3    -131    -46    -39    140    146 250.5 -15.5  34310  292.13 0854.59
2009/04/23 15:00:40.4    -130    -45    -38    138    144 250.9 -15.5  34300  291.95 0854.59
2009/04/23 15:00:40.5    -184     27     -4    186    187 278.4  -1.3  34370  293.15 0854.59
2009/04/23 15:00:40.6    -197     82     25    214    216 292.6   6.9  34386  293.43 0854.59
2009/04/23 15:00:40.7    -185     72    -14    199    200 291.3  -4.1  34358  292.95 0854.59
2009/04/23 15:00:40.8    -153     68     26    168    171 294.2   9.0  34342  292.68 0854.59
2009/04/23 15:00:40.9     -95    125     28    158    161 322.6  10.1  34340  292.64 0854.59
2009/04/23 15:00:41.0     -45    113     78    122    144 338.1  35.6  34350  292.81 0854.59
2009/04/23 15:00:41.1    -169     99    127    197    234 300.4  36.0  34328  292.42 0854.59
2009/04/23 15:00:41.2    -143    118    114    186    218 309.5  34.4  34336  292.56 0854.59
2009/04/23 15:00:41.3    -128    114    110    172    204 311.8  35.6  34390  293.50 0854.59
2009/04/23 15:00:41.4    -130    108    107    170    200 309.8  35.2  34414  293.89 0854.59
2009/04/23 15:00:41.5    -107     74    123    131    179 304.6  48.2  34402  293.68 0854.59
2009/04/23 15:00:41.6     -86     68    100    110    148 308.2  47.9  34422  294.04 0854.59
2009/04/23 15:00:41.7    -103     34    100    109    147 288.2  47.9  34398  293.63 0854.59
2009/04/23 15:00:41.8    -104     34     68    110    129 288.2  35.5  34380  293.31 0854.59
2009/04/23 15:00:41.9     -93     34     48    100    110 290.4  27.3  34392  293.51 0854.59
2009/04/23 15:00:42.0     -94      0     34     95    100 270.0  20.0  34422  294.03 0854.59
2009/04/23 15:00:42.1     -84      0     50     85     98 270.0  32.9  34416  293.92 0854.59
2009/04/23 15:00:42.2     -63     13     64     65     91 282.4  50.0  34416  293.92 0854.59
2009/04/23 15:00:42.3     -70     -5     50     71     86 265.7  38.6  34418  293.97 0854.59
2009/04/23 15:00:42.4     -57     -3     69     58     90 266.5  56.3  34412  293.85 0854.59
2009/04/23 15:00:42.5     -47     -8     78     48     91 259.4  65.1  34422  294.03 0854.59
2009/04/23 15:00:42.6     -26     -2     57     27     63 265.6  72.9  34424  294.06 0854.59
2009/04/23 15:00:42.7    -113    -17     77    115    138 261.2  37.4  34424  294.06 0854.59
2009/04/23 15:00:42.8    -146     17     43    148    155 277.0  16.3  34424  294.08 0854.59
2009/04/23 15:00:42.9    -119     -1     52    120    130 269.2  25.1  34416  293.94 0854.59
2009/04/23 15:00:43.0    -154    -21     12    156    157 262.1   4.6  34398  293.62 0854.59
2009/04/23 15:00:43.1    -137    -45      9    145    146 251.6   3.8  34398  293.62 0854.59
2009/04/23 15:00:43.2     -72    -87      8    114    115 219.6   4.4  34402  293.70 0854.59
2009/04/23 15:00:43.3      13    -23     65     27     70 149.3  76.1  34404  293.74 0854.59
2009/04/23 15:00:43.4      19    -26     84     33     90 143.9  78.2  34376  293.24 0854.59
2009/04/23 15:00:43.5     -36     31     31     48     57 311.3  35.6  34370  293.15 0854.59
2009/04/23 15:00:43.6    -112     11     13    113    114 275.7   6.9  34392  293.53 0854.59
2009/04/23 15:00:43.7    -102     21      5    105    106 281.9   2.8  34416  293.92 0854.59
2009/04/23 15:00:43.8     -71     35      2     80     81 296.2   1.8  34390  293.48 0854.59
2009/04/23 15:00:43.9     -91     18      4     93     94 281.5   2.8  34378  293.29 0854.59
2009/04/23 15:00:44.0     -81     38     -4     90     91 295.2  -3.1  34388  293.44 0854.58
2009/04/23 15:00:44.1     -74     52    -28     91     96 305.5 -17.0  34366  293.09 0854.58
2009/04/23 15:00:44.2     -59     58    -30     83     88 314.4 -24.4  34370  293.14 0854.58
2009/04/23 15:00:44.3     -57     18    -20     60     64 288.2 -18.7  34368  293.10 0854.58
2009/04/23 15:00:44.4     -61      0    -31     62     69 270.0 -31.7  34380  293.33 0854.58
2009/04/23 15:00:44.5     -51     16    -15     54     57 288.2 -15.5  34380  293.33 0854.58
2009/04/23 15:00:44.6     -37     12      1     39     40 288.2   1.8  34390  293.48 0854.58
2009/04/23 15:00:44.7     -54     11      1     56     57 281.4   1.8  34398  293.62 0854.58
2009/04/23 15:00:44.8     -76     32     20     83     86 293.1  13.7  34412  293.87 0854.58
2009/04/23 15:00:44.9     -87      2     32     88     93 271.7  20.0  34438  294.32 0854.58
2009/04/23 15:00:45.0    -174    -45     40    180    185 255.2  12.6  34434  294.25 0854.57
2009/04/23 15:00:45.1     -94     34     38    100    106 290.0  21.5  34448  294.47 0854.57
2009/04/23 15:00:45.2     -53   -154    134    164    211 199.2  43.7  34368  293.12 0854.57
2009/04/23 15:00:45.3    -111    -82     73    139    157 233.6  29.8  34386  293.41 0854.57
2009/04/23 15:00:45.4     -46   -138    114    146    185 198.7  42.0  34370  293.14 0854.57
2009/04/23 15:00:45.5     145     -2    123    146    190  90.8  44.1  34384  293.38 0854.57
2009/04/23 15:00:45.6     -23    -96    140     99    171 193.8  61.3  34386  293.41 0854.57
2009/04/23 15:00:45.7     -12    -73    166     75    182 189.8  74.2  34342  292.66 0854.57
2009/04/23 15:00:45.8       0   -115    172    116    207 179.5  62.8  34322  292.32 0854.57
2009/04/23 15:00:45.9     -66   -223     84    233    248 196.7  19.9  34360  292.96 0854.57
2009/04/23 15:00:46.0     -43   -217    102    222    244 191.3  26.4  34338  292.60 0854.57
2009/04/23 15:00:46.1      -9   -224     93    225    243 182.5  23.6  34332  292.48 0854.57
2009/04/23 15:00:46.2     -51   -154    100    163    191 198.3  34.8  34358  292.93 0854.57
2009/04/23 15:00:46.3     -71   -145     91    162    185 206.3  31.6  34356  292.90 0854.57
2009/04/23 15:00:46.4     -73   -134     79    153    172 208.5  29.3  34374  293.21 0854.57
2009/04/23 15:00:46.5     -44   -135    104    143    176 198.3  39.7  34342  292.68 0854.57
2009/04/23 15:00:46.6     -88   -144    109    169    201 211.4  35.7  34356  292.92 0854.57
2009/04/23 15:00:46.7     -77   -160    112    178    210 205.9  35.5  34358  292.95 0854.57
2009/04/23 15:00:46.8    -108   -107    128    153    199 225.2  44.1  34354  292.88 0854.57
2009/04/23 15:00:46.9    -121   -100    107    158    190 230.4  37.3  34388  293.46 0854.57
2009/04/23 15:00:47.0    -115    -45    104    124    161 248.3  44.5  34386  293.43 0854.56
2009/04/23 15:00:47.1    -105    -34     84    111    139 251.8  40.7  34346  292.75 0854.56
2009/04/23 15:00:47.2    -108    -64     60    126    139 239.3  27.3  34342  292.66 0854.56
2009/04/23 15:00:47.3    -113    -15     41    115    122 262.1  20.4  34342  292.68 0854.56
2009/04/23 15:00:47.4     -70    -10     61     71     93 261.2  45.4  34336  292.56 0854.56
2009/04/23 15:00:47.5     -90    -18    106     92    140 258.5  54.3  34356  292.90 0854.56
2009/04/23 15:00:47.6     -56    -73    125     93    155 217.4  60.0  34372  293.19 0854.56
2009/04/23 15:00:47.7     -48    -86    123     99    157 209.0  56.9  34378  293.27 0854.56
2009/04/23 15:00:47.8     -21     21    102     31    106 315.0  82.3  34384  293.39 0854.56
2009/04/23 15:00:47.9     -34      3     95     35    101 276.1  79.2  34364  293.05 0854.56
2009/04/23 15:00:48.0     -36     -6    101     37    107 260.3  79.7  34366  293.09 0854.56
2009/04/23 15:00:48.1     -89      6    116     90    146 274.3  57.9  34330  292.47 0854.56
2009/04/23 15:00:48.2     -55    -45     65     72     97 230.4  46.9  34338  292.59 0854.56
2009/04/23 15:00:48.3     -63   -100     86    119    146 212.5  39.5  34338  292.59 0854.56
2009/04/23 15:00:48.4    -106   -182    113    211    239 210.3  30.3  34352  292.83 0854.56
2009/04/23 15:00:48.5     -25    -90    150     94    177 196.0  64.9  34334  292.54 0854.56
2009/04/23 15:00:48.6      30     13    121     33    125  66.5  84.8  34348  292.76 0854.56
2009/04/23 15:00:48.7      -1      8    148      9    148 348.4  90.0  34338  292.59 0854.56
2009/04/23 15:00:48.8      77     20    162     80    180  74.9  71.9  34326  292.40 0854.56
2009/04/23 15:00:48.9      54     -3    108     55    121  93.5  71.0  34332  292.49 0854.56
2009/04/23 15:00:49.0     -16    -50     66     53     84 198.7  57.5  34332  292.49 0854.55
2009/04/23 15:00:49.1     -70    -77    123    105    161 222.3  55.0  34302  292.00 0854.55
2009/04/23 15:00:49.2     -30     15     97     34    102 297.1  80.7  34316  292.22 0854.55
2009/04/23 15:00:49.3      27     -9     92     29     96 108.2  81.2  34330  292.47 0854.55
2009/04/23 15:00:49.4       8    -23     84     25     87 161.3  82.8  34356  292.90 0854.55
2009/04/23 15:00:49.5      74     15    106     76    130  78.6  60.6  34340  292.64 0854.55
2009/04/23 15:00:49.6     126     40     44    133    141  72.3  18.4  34330  292.47 0854.55
2009/04/23 15:00:49.7     180     74     -8    195    196  67.4  -2.6  34330  292.47 0854.55
2009/04/23 15:00:49.8     200     -3    -72    201    213  91.0 -24.6  34326  292.39 0854.55
2009/04/23 15:00:49.9     189     76    -47    204    210  68.0 -13.2  34324  292.37 0854.55
2009/04/23 15:00:50.0     167     59     20    178    180  70.3   6.7  34322  292.32 0854.55
2009/04/23 15:00:50.1     241     61    136    249    283  75.6  31.3  34328  292.43 0854.55
2009/04/23 15:00:50.2     209    124    163    244    293  59.3  37.0  34342  292.65 0854.55
2009/04/23 15:00:50.3     153    102    111    184    214  56.3  34.0  34344  292.71 0854.55
2009/04/23 15:00:50.4     128    143     47    193    199  41.9  13.7  34350  292.81 0854.55
2009/04/23 15:00:50.5     260     99    -49    279    284  69.2 -10.1  34288  291.73 0854.55
2009/04/23 15:00:50.6     251    162   -101    300    317  57.1 -18.7  34276  291.53 0854.55
2009/04/23 15:00:50.7     288    194    -89    348    360  56.0 -14.4  34276  291.54 0854.55
2009/04/23 15:00:50.8     288    146    -56    323    328  63.1  -9.9  34306  292.04 0854.55
2009/04/23 15:00:50.9     355    170    -28    394    395  64.3  -4.1  34322  292.34 0854.55
2009/04/23 15:00:51.0     323    152     40    358    361  64.8   6.5  34338  292.61 0854.53
2009/04/23 15:00:51.1     285     95      6    301    302  71.6   1.2  34336  292.55 0854.53
2009/04/23 15:00:51.2     246    190    119    311    332  52.3  22.2  34394  293.54 0854.53
2009/04/23 15:00:51.3     235    120    123    265    292  62.9  27.1  34384  293.39 0854.53
2009/04/23 15:00:51.4     201    214    143    295    327  43.2  27.8  34422  294.04 0854.53
2009/04/23 15:00:51.5     331    248     99    414    426  53.1  13.5  34406  293.75 0854.53
2009/04/23 15:00:51.6     247    179     91    306    320  54.1  16.7  34370  293.13 0854.53
2009/04/23 15:00:51.7     126    233     98    266    283  28.5  21.0  34376  293.25 0854.53
2009/04/23 15:00:51.8     236    200     95    310    325  49.8  17.1  34372  293.16 0854.53
2009/04/23 15:00:51.9     179    145     49    231    237  50.9  12.1  34378  293.27 0854.53
2009/04/23 15:00:52.0     205    113     89    235    251  61.1  21.7  34416  293.93 0854.53
2009/04/23 15:00:52.1     202     84    185    219    286  67.4  44.5  34426  294.10 0854.53
2009/04/23 15:00:52.2     210    110    157    238    285  62.2  36.5  34408  293.78 0854.53
2009/04/23 15:00:52.3     148    116     83    189    206  51.8  25.2  34390  293.50 0854.53
2009/04/23 15:00:52.4      30    201    106    204    229   8.5  29.5  34382  293.34 0854.53
2009/04/23 15:00:52.5     -80    167    129    186    226 334.5  38.0  34392  293.51 0854.53
2009/04/23 15:00:52.6    -179    179     87    254    269 315.1  18.9  34392  293.52 0854.53
2009/04/23 15:00:52.7    -220    219    151    311    345 314.9  27.7  34416  293.93 0854.53
2009/04/23 15:00:52.8    -260    276     81    380    389 316.8  12.2  34388  293.45 0854.53
2009/04/23 15:00:52.9    -293    335     76    446    453 318.9   9.7  34328  292.43 0854.53
2009/04/23 15:00:53.0    -339    308     23    459    460 312.3   2.9  34358  292.95 0854.51
2009/04/23 15:00:53.1    -299    230     26    378    379 307.6   4.0  34380  293.33 0854.51
2009/04/23 15:00:53.2    -184    183     78    260    272 314.9  16.8  34396  293.57 0854.51
2009/04/23 15:00:53.3    -207    172    199    270    335 309.8  39.9  34414  293.88 0854.51
2009/04/23 15:00:53.4    -157    147    155    216    265 313.1  39.3  34406  293.76 0854.51
2009/04/23 15:00:53.5     -17    293    103    294    312 356.6  19.4  34386  293.40 0854.51
2009/04/23 15:00:53.6     -91    320     65    333    340 344.1  11.1  34352  292.82 0854.51
2009/04/23 15:00:53.7     -91    282    132    297    325 342.0  25.7  34396  293.59 0854.51
2009/04/23 15:00:53.8    -101    259    133    279    309 338.6  27.3  34416  293.93 0854.51
2009/04/23 15:00:53.9     -61    244    106    252    273 345.8  24.2  34434  294.22 0854.51
2009/04/23 15:00:54.0     -85    302    121    314    336 344.2  22.3  34400  293.67 0854.51
2009/04/23 15:00:54.1     -40    247    154    251    294 350.7  34.4  34434  294.22 0854.51
2009/04/23 15:00:54.2       0    124    162    125    204   0.0  58.5  34444  294.42 0854.51
2009/04/23 15:00:54.3     -64    106    145    125    191 328.8  55.0  34360  292.98 0854.51
2009/04/23 15:00:54.4     -56     94     62    110    126 328.8  31.9  34370  293.15 0854.51
2009/04/23 15:00:54.5     -14     46    -17     49     53 342.2 -19.7  34386  293.41 0854.51
2009/04/23 15:00:54.6       0      8     13      9     15 355.5  64.6  34416  293.94 0854.51
2009/04/23 15:00:54.7      45     45     24     65     69  45.0  20.0  34410  293.84 0854.51
2009/04/23 15:00:54.8     291    105    165    310    351  70.1  30.5  34436  294.27 0854.51
2009/04/23 15:00:54.9     253    110     91    276    291  66.5  18.4  34384  293.39 0854.51
2009/04/23 15:00:55.0     333    208    148    393    419  58.0  21.6  34398  293.61 0854.50
2009/04/23 15:00:55.1     270    260    102    376    390  46.1  15.2  34418  293.96 0854.50
2009/04/23 15:00:55.2     244    223     75    331    340  47.6  12.8  34402  293.69 0854.50
2009/04/23 15:00:55.3     332    241    106    411    425  54.1  14.5  34392  293.51 0854.50
2009/04/23 15:00:55.4     331    286     64    438    443  49.2   8.3  34368  293.12 0854.50
2009/04/23 15:00:55.5     315    232     95    392    404  53.6  13.7  34364  293.04 0854.50
2009/04/23 15:00:55.6     305    278   -100    413    426  47.7 -13.7  34360  292.96 0854.50
2009/04/23 15:00:55.7     252    232   -158    343    377  47.3 -30.9  34362  293.02 0854.50
2009/04/23 15:00:55.8     194    250   -166    317    357  37.8 -34.2  34372  293.19 0854.50
2009/04/23 15:00:55.9     156    215   -145    266    302  36.0 -35.7  34370  293.15 0854.50
2009/04/23 15:00:56.0     279    140   -162    313    352  63.4 -33.8  34308  292.08 0854.50
2009/04/23 15:00:56.1     268    153   -233    309    387  60.2 -45.2  34298  291.91 0854.50
2009/04/23 15:00:56.2     167    284   -302    330    447  30.4 -51.7  34188  290.04 0854.50
2009/04/23 15:00:56.3     376    255   -243    455    515  55.8 -34.7  34232  290.81 0854.50
2009/04/23 15:00:56.4     246    219   -280    330    432  48.2 -49.2  34172  289.76 0854.50
2009/04/23 15:00:56.5     388    301   -145    492    512  52.2 -21.2  34256  291.19 0854.50
2009/04/23 15:00:56.6     292    212   -127    361    383  54.0 -19.4  34298  291.93 0854.50
2009/04/23 15:00:56.7     435     79      7    443    444  79.7   1.0  34346  292.72 0854.50
2009/04/23 15:00:56.8     381     54    -56    385    390  81.9  -8.4  34386  293.40 0854.50
2009/04/23 15:00:56.9     323     53      4    328    329  80.6   0.7  34380  293.32 0854.50
2009/04/23 15:00:57.0     353     59     18    359    360  80.4   3.0  34396  293.58 0854.48
2009/04/23 15:00:57.1     330     93     10    343    344  74.2   1.8  34404  293.74 0854.48
2009/04/23 15:00:57.2     387    133    -42    410    413  71.0  -6.0  34408  293.78 0854.48
2009/04/23 15:00:57.4     444     63     -7    449    450  81.9  -0.9  34380  293.30 0854.48
2009/04/23 15:00:57.5     525    225   -104    572    582  66.8 -10.4  34320  292.28 0854.48
2009/04/23 15:00:57.6     401      8     48    402    405  88.7   6.9  34388  293.44 0854.48
2009/04/23 15:00:57.7     568    112    170    580    605  78.8  16.4  34304  292.01 0854.48
2009/04/23 15:00:57.8     550    202     96    587    595  69.8   9.3  34262  291.32 0854.48
2009/04/23 15:00:57.9     547     76    105    553    563  82.1  10.8  34268  291.42 0854.48
2009/04/23 15:00:58.0     510    -85     92    518    527  99.5  10.1  34264  291.35 0854.48
2009/04/23 15:00:58.1     446    -69    189    452    489  98.9  24.1  34192  290.12 0854.48
2009/04/23 15:00:58.2     387     64    265    393    473  80.6  37.3  34216  290.51 0854.48
2009/04/23 15:00:58.3     326     59    127    332    355  79.6  21.8  34228  290.71 0854.48
2009/04/23 15:00:58.4     304    133    100    333    348  66.3  16.8  34232  290.81 0854.48
2009/04/23 15:00:58.5     241   -127      3    273    274 117.8   0.8  34226  290.68 0854.48
2009/04/23 15:00:58.6     150   -102    -66    182    193 124.2 -24.8  34226  290.69 0854.48
2009/04/23 15:00:58.7      68    -25    -78     73    106 110.8 -56.5  34222  290.62 0854.48
2009/04/23 15:00:58.8       4    -97   -152     98    180 177.3 -68.8  34236  290.87 0854.48
2009/04/23 15:00:58.9      20   -176   -176    178    250 173.3 -54.4  34222  290.64 0854.48
2009/04/23 15:00:59.0     -16   -214    -65    215    224 184.5 -21.8  34220  290.60 0854.48
2009/04/23 15:00:59.1     -22   -220    -26    222    224 185.8  -6.7  34228  290.72 0854.47
2009/04/23 15:00:59.2     242   -222      5    329    330 132.6   1.0  34248  291.06 0854.47
2009/04/23 15:00:59.3     214   -176     60    278    285 129.5  12.2  34250  291.09 0854.47
2009/04/23 15:00:59.4     233     25    -27    235    237  83.8  -6.7  34234  290.83 0854.47
2009/04/23 15:00:59.5     256     85   -100    270    287  71.6 -25.4  34238  290.88 0854.47
2009/04/23 15:00:59.6     126    -34    -49    131    139 105.1 -25.4  34248  291.08 0854.47
2009/04/23 15:00:59.7     309    -28    -88    311    324  95.2 -15.8  34250  291.10 0854.47
2009/04/23 15:00:59.8     271    -30     67    273    282  96.4  13.9  34250  291.10 0854.47
2009/04/23 15:00:59.9     225     60    115    233    259  75.0  28.2  34234  290.83 0854.47
2009/04/23 15:01:00.0     -13    178    131    179    221 355.6  39.7  34212  290.45 0854.47
2009/04/23 15:01:00.1     -36    206    128    210    245 350.0  34.4  34224  290.66 0854.47
2009/04/23 15:01:00.2     -65    138    126    153    198 334.5  43.7  34236  290.87 0854.47
2009/04/23 15:01:00.3    -179    173    138    249    284 314.0  31.4  34222  290.61 0854.47
2009/04/23 15:01:00.4    -237    -71    115    248    273 253.2  26.6  34216  290.51 0854.47
2009/04/23 15:01:00.5    -296    -60    126    302    327 258.5  23.9  34228  290.71 0854.47
2009/04/23 15:01:00.6    -233    -32    117    236    263 262.0  28.2  34240  290.93 0854.47
2009/04/23 15:01:00.7    -265    -36     -2    268    269 262.1  -0.5  34238  290.90 0854.47
2009/04/23 15:01:00.8    -416   -102    -61    429    434 256.2  -8.1  34238  290.90 0854.47
2009/04/23 15:01:00.9    -277   -205    -44    345    348 233.5  -7.4  34240  290.94 0854.47
2009/04/23 15:01:01.0     -88   -187   -130    207    244 205.2 -39.9  34222  290.63 0854.47
2009/04/23 15:01:01.1     -29   -271    -86    273    287 186.2 -17.6  34216  290.51 0854.48
2009/04/23 15:01:01.2     -94   -283    -70    299    308 198.5 -13.3  34236  290.87 0854.48
2009/04/23 15:01:01.3      67   -141    -46    157    163 154.7 -21.2  34228  290.72 0854.48
2009/04/23 15:01:01.4     268    -92    173    284    332 109.1  34.2  34232  290.80 0854.48
2009/04/23 15:01:01.5     162    -39    292    167    336 103.5  67.9  34240  290.92 0854.48
2009/04/23 15:01:01.6     152    -98    191    181    263 122.9  51.6  34238  290.88 0854.48
2009/04/23 15:01:01.7      27    -17    148     32    151 122.4  89.0  34242  290.98 0854.48
2009/04/23 15:01:01.8      78     19    117     81    142  75.8  62.1  34240  290.92 0854.48
2009/04/23 15:01:01.9     102     45    103    112    152  66.0  47.9  34224  290.65 0854.48
2009/04/23 15:01:02.0      76    132     66    153    166  29.9  24.9  34206  290.35 0854.48
2009/04/23 15:01:02.1     142     86     11    167    168  58.7   3.8  34218  290.57 0854.48
2009/04/23 15:01:02.2      78     21    -32     81     87  74.5 -26.4  34220  290.58 0854.48
2009/04/23 15:01:02.3     -15      0    103     16    104 270.0  90.0  34230  290.75 0854.48
2009/04/23 15:01:02.4      49     26     93     56    108  62.0  65.7  34228  290.72 0854.48
2009/04/23 15:01:02.5     105    153      9    186    187  34.5   2.8  34212  290.45 0854.48
2009/04/23 15:01:02.6     142     86    147    167    222  58.7  45.9  34204  290.33 0854.48
2009/04/23 15:01:02.7      97    117    172    153    230  39.7  54.0  34228  290.72 0854.48
2009/04/23 15:01:02.8     121     53    194    133    235  66.5  62.6  34228  290.74 0854.48
2009/04/23 15:01:02.9     174    164    151    240    283  46.8  35.5  34212  290.46 0854.48
2009/04/23 15:01:03.0     150    105    155    184    240  54.9  44.5  34226  290.69 0854.48
2009/04/23 15:01:03.1     179     36    136    183    228  78.6  40.1  34232  290.79 0854.49
2009/04/23 15:01:03.2     199    131    175    239    296  56.5  39.7  34218  290.56 0854.49
2009/04/23 15:01:03.3     190     97    198    214    291  63.0  47.9  34218  290.54 0854.49
2009/04/23 15:01:03.4     153     91    201    179    269  59.1  53.7  34222  290.61 0854.49
2009/04/23 15:01:03.5      75    116    134    139    193  33.0  49.2  34228  290.72 0854.49
2009/04/23 15:01:03.6      10     11    125     16    126  43.4  90.0  34240  290.94 0854.49
2009/04/23 15:01:03.7      96     35    118    103    156  70.0  54.3  34234  290.84 0854.49
2009/04/23 15:01:03.8      77    116    113    140    179  33.4  43.3  34252  291.15 0854.49
2009/04/23 15:01:03.9     -59   -125     65    139    153 205.3  27.1  34264  291.33 0854.49
2009/04/23 15:01:04.0     -55   -185     64    194    205 196.5  18.4  34262  291.32 0854.49
2009/04/23 15:01:04.1    -147   -152     26    212    214 224.1   7.1  34254  291.16 0854.49
2009/04/23 15:01:04.2     -96   -225    147    245    285 203.2  33.7  34268  291.41 0854.49
2009/04/23 15:01:04.3     -50   -192    107    199    225 194.7  30.6  34270  291.43 0854.49
2009/04/23 15:01:04.4     -95   -216    157    237    284 203.8  36.7  34268  291.41 0854.49
2009/04/23 15:01:04.5     -70   -160    158    175    235 203.8  46.9  34276  291.54 0854.49
2009/04/23 15:01:04.6     -21   -145    194    147    243 188.5  59.4  34286  291.72 0854.49
2009/04/23 15:01:04.7      -5   -109    159    110    193 182.7  62.4  34290  291.77 0854.49
2009/04/23 15:01:04.8      16   -178    168    179    245 174.7  47.9  34266  291.38 0854.49
2009/04/23 15:01:04.9     -11   -173    138    174    222 183.8  42.4  34252  291.13 0854.49
2009/04/23 15:01:05.0     -15    -76    126     78    148 191.6  64.7  34266  291.37 0854.49
2009/04/23 15:01:05.1     128    -80    130    152    200 122.0  45.1  34264  291.33 0854.49
2009/04/23 15:01:05.2      66    -75    102    101    143 138.6  50.1  34258  291.23 0854.49
2009/04/23 15:01:05.3     -11   -178     77    179    194 183.8  24.9  34254  291.18 0854.49
2009/04/23 15:01:05.4     -59   -147    162    159    226 201.8  50.4  34250  291.11 0854.49
2009/04/23 15:01:05.5    -111   -246    135    270    301 204.3  28.5  34248  291.07 0854.49
2009/04/23 15:01:05.6    -132   -278     65    308    315 205.5  12.0  34262  291.31 0854.49
2009/04/23 15:01:05.7    -124   -252     80    282    294 206.3  15.8  34274  291.51 0854.49
2009/04/23 15:01:05.8    -192   -260    139    324    352 216.5  24.8  34268  291.39 0854.49
2009/04/23 15:01:05.9    -197   -230    148    304    338 220.6  27.9  34260  291.26 0854.49
2009/04/23 15:01:06.0    -134   -222    199    260    327 211.0  41.3  34218  290.56 0854.49
2009/04/23 15:01:06.1    -346   -279    190    445    483 231.1  24.6  34266  291.37 0854.49
2009/04/23 15:01:06.2    -345   -263    153    434    461 232.7  19.5  34290  291.79 0854.49
2009/04/23 15:01:06.3    -395   -267     14    477    478 235.9   1.7  34302  292.00 0854.49
2009/04/23 15:01:06.4    -403   -272     84    487    495 236.0   9.9  34298  291.90 0854.49
2009/04/23 15:01:06.5    -338   -370    111    502    515 222.4  12.5  34312  292.16 0854.49
2009/04/23 15:01:06.6    -297   -376    121    480    495 218.3  14.2  34302  292.00 0854.49
2009/04/23 15:01:06.7    -167   -294    188    339    387 209.6  31.4  34274  291.52 0854.49
2009/04/23 15:01:06.8    -308   -255    164    401    433 230.4  23.5  34252  291.14 0854.49
2009/04/23 15:01:06.9    -316   -175    229    362    428 241.0  35.5  34280  291.62 0854.49
2009/04/23 15:01:07.0    -254   -209    250    330    414 230.5  40.8  34244  291.01 0854.49
2009/04/23 15:01:07.1    -314   -117    146    336    366 249.6  25.1  34298  291.90 0854.49
2009/04/23 15:01:07.2    -387   -177     99    426    438 245.4  13.1  34318  292.26 0854.49
2009/04/23 15:01:07.3    -511   -242    -22    566    567 244.7  -2.2  34308  292.08 0854.49
2009/04/23 15:01:07.4    -461   -241   -165    521    546 242.4 -22.8  34292  291.82 0854.49
2009/04/23 15:01:07.5    -227   -309    139    384    409 216.3  19.9  34238  290.91 0854.49
2009/04/23 15:01:07.6    -150   -162    191    221    292 222.8  45.6  34230  290.75 0854.49
2009/04/23 15:01:07.7    -170     -2    189    171    254 269.0  53.3  34248  291.06 0854.49
2009/04/23 15:01:07.8    -142    -51    202    152    252 250.1  59.4  34278  291.57 0854.49
2009/04/23 15:01:07.9    -167   -188    224    252    337 221.7  46.4  34272  291.48 0854.49
2009/04/23 15:01:08.0     -19    -57    157     61    168 198.5  77.8  34278  291.59 0854.51
2009/04/23 15:01:08.1     -36    -36    129     51    138 225.0  77.1  34284  291.69 0854.51
2009/04/23 15:01:08.2    -134   -122    192    182    264 227.6  51.6  34258  291.22 0854.51
2009/04/23 15:01:08.3    -215   -140    120    257    283 236.9  27.1  34254  291.16 0854.51
2009/04/23 15:01:08.4    -113    -52    148    125    193 245.2  56.1  34252  291.15 0854.51
2009/04/23 15:01:08.5     -13    -71    105     73    127 190.7  62.1  34248  291.08 0854.51
2009/04/23 15:01:08.6     -33   -101    111    107    154 198.3  50.7  34244  290.99 0854.51
2009/04/23 15:01:08.7     -51    -42     35     67     75 230.5  30.3  34276  291.55 0854.51
2009/04/23 15:01:08.8     -71      5     16     72     74 274.3  13.2  34268  291.40 0854.51
2009/04/23 15:01:08.9     -66     22    -32     70     76 289.1 -31.5  34262  291.32 0854.51
2009/04/23 15:01:09.0     -83    207    -74    224    235 338.2 -23.6  34262  291.32 0854.51
2009/04/23 15:01:09.1    -127    224    -61    258    266 330.4 -13.4  34260  291.27 0854.51
2009/04/23 15:01:09.2    -180    223    140    287    319 321.0  27.9  34268  291.39 0854.51
2009/04/23 15:01:09.3    -148    308     91    342    355 334.3  15.0  34260  291.28 0854.51
2009/04/23 15:01:09.4     203    377    260    429    501  28.3  34.1  34276  291.54 0854.51
2009/04/23 15:01:09.5     179    338    213    383    438  27.9  31.5  34292  291.82 0854.51
2009/04/23 15:01:09.6     331    274    134    430    451  50.4  17.3  34276  291.53 0854.51
2009/04/23 15:01:09.7     361    167     -7    398    399  65.2  -1.1  34260  291.27 0854.51
2009/04/23 15:01:09.8     331     60    -11    337    338  79.7  -1.9  34228  290.74 0854.51
2009/04/23 15:01:09.9      -6    124    161    125    203 356.9  58.5  34256  291.21 0854.51
2009/04/23 15:01:10.0     -12    118     81    119    143 353.8  37.6  34264  291.33 0854.52
2009/04/23 15:01:10.1      81     36     21     89     92  66.0  13.7  34248  291.06 0854.52
2009/04/23 15:01:10.2     287    122   -104    313    329  66.9 -23.7  34256  291.21 0854.52
2009/04/23 15:01:10.3     545    184   -126    576    590  71.3 -12.4  34216  290.53 0854.52
2009/04/23 15:01:10.4     858    146   -111    871    879  80.3  -7.3  34218  290.55 0854.52
2009/04/23 15:01:10.5     534     78   -228    540    586  81.7 -28.6  34200  290.24 0854.52
2009/04/23 15:01:10.6     602      3   -162    603    625  89.7 -15.1  34218  290.54 0854.52
2009/04/23 15:01:10.7     428   -178   -137    464    485 112.6 -16.5  34238  290.91 0854.52
2009/04/23 15:01:10.8     375      5   -104    376    390  89.2 -20.2  34258  291.25 0854.52
2009/04/23 15:01:10.9     314    -44    -83    318    329  98.1 -14.6  34266  291.38 0854.52
2009/04/23 15:01:11.0     285    -76    -65    296    304 105.1 -12.4  34258  291.24 0854.52
2009/04/23 15:01:11.1     286   -181    -45    339    342 122.4  -7.6  34248  291.05 0854.52
2009/04/23 15:01:11.2     279   -142      9    314    315 117.0   1.8  34224  290.65 0854.52
2009/04/23 15:01:11.3     120    -32    -21    125    127 105.1  -9.8  34232  290.79 0854.52
2009/04/23 15:01:11.4     235   -125    -56    267    273 118.0 -11.9  34254  291.16 0854.52
2009/04/23 15:01:11.5     240     33    -15    243    244  82.1  -3.7  34248  291.05 0854.52
2009/04/23 15:01:11.6     202   -146   -117    250    276 126.0 -31.4  34234  290.82 0854.52
2009/04/23 15:01:11.7      40   -177    -23    182    184 167.1  -7.3  34232  290.81 0854.52
2009/04/23 15:01:11.8     -48   -174    -67    181    193 195.6 -25.4  34236  290.86 0854.52
2009/04/23 15:01:11.9    -156     11     18    157    159 274.4   6.7  34244  291.01 0854.52
2009/04/23 15:01:12.0    -216    -15     74    217    230 265.9  18.9  34242  290.98 0854.53
2009/04/23 15:01:12.1    -219     36    -87    223    239 279.5 -26.7  34248  291.05 0854.53
2009/04/23 15:01:12.2      12    166   -104    167    196   4.4 -39.4  34256  291.20 0854.53
2009/04/23 15:01:12.3     176    243    -36    301    304  36.0  -6.9  34248  291.07 0854.53
2009/04/23 15:01:12.4     228    188     63    296    303  50.5  12.2  34234  290.83 0854.53
2009/04/23 15:01:12.5     208    133    133    248    281  57.4  30.6  34256  291.21 0854.53
2009/04/23 15:01:12.6     271    234     83    359    369  49.2  13.1  34288  291.73 0854.53
2009/04/23 15:01:12.7     252    289     90    384    395  41.2  13.2  34192  290.11 0854.53
2009/04/23 15:01:12.8     252    402     89    475    484  32.1  10.7  34212  290.45 0854.53
2009/04/23 15:01:12.9     386    333    132    510    527  49.2  14.6  34304  292.01 0854.53
2009/04/23 15:01:13.0     318    316    205    449    493  45.1  26.2  34208  290.40 0854.53
2009/04/23 15:01:13.1     317    382    140    497    517  39.6  15.8  34192  290.12 0854.53
2009/04/23 15:01:13.2     241    426    124    490    506  29.5  14.3  34164  289.64 0854.53
2009/04/23 15:01:13.3     385    436    159    582    604  41.4  15.3  34230  290.76 0854.53
2009/04/23 15:01:13.4     395    462     79    609    615  40.5   7.4  34178  289.88 0854.53
2009/04/23 15:01:13.5     230    431     49    489    492  28.1   5.8  34160  289.57 0854.53
2009/04/23 15:01:13.6     293    375     80    476    483  38.0   9.6  34156  289.52 0854.53
2009/04/23 15:01:13.7     257    324     99    414    426  38.4  13.6  34144  289.29 0854.53
2009/04/23 15:01:13.8     187    122    -29    224    226  56.7  -7.5  34182  289.96 0854.53
2009/04/23 15:01:13.9      11    159    -13    160    161   4.0  -4.9  34196  290.19 0854.53
2009/04/23 15:01:14.0      94    241     10    259    260  21.4   2.3  34180  289.90 0854.54
2009/04/23 15:01:14.1     168    351    -15    390    391  25.6  -2.2  34164  289.64 0854.54
2009/04/23 15:01:14.2     170    302    -29    347    349  29.4  -4.9  34166  289.67 0854.54
2009/04/23 15:01:14.3     206    284     14    352    353  36.0   2.3  34198  290.21 0854.54
2009/04/23 15:01:14.4     133    260     79    293    304  27.2  15.2  34200  290.26 0854.54
2009/04/23 15:01:14.5     226    160    134    277    307  54.7  27.3  34264  291.33 0854.54
2009/04/23 15:01:14.6     177    277    112    329    348  32.6  18.9  34238  290.89 0854.54
2009/04/23 15:01:14.7     113    169     91    204    223  33.8  25.3  34224  290.67 0854.54
2009/04/23 15:01:14.8     106    137     82    174    192  37.8  27.1  34248  291.06 0854.54
2009/04/23 15:01:14.9     122    134    -64    182    193  42.3 -19.4  34266  291.38 0854.54
2009/04/23 15:01:15.0     119    119    -75    169    184  45.1 -30.1  34230  290.77 0854.54
2009/04/23 15:01:15.1     229     21    -29    231    233  84.5  -7.3  34272  291.49 0854.54
2009/04/23 15:01:15.2     343    156   -116    377    394  65.5 -21.9  34232  290.79 0854.54
2009/04/23 15:01:15.3     314    -38     50    317    321  97.0   9.0  34266  291.38 0854.54
2009/04/23 15:01:15.4     395    102    144    409    433  75.5  20.1  34224  290.65 0854.54
2009/04/23 15:01:15.5     364    111     45    381    384  72.9   6.8  34222  290.64 0854.54
2009/04/23 15:01:15.6     177    170     88    246    261  46.2  20.2  34228  290.73 0854.54
2009/04/23 15:01:15.7     188    194     79    271    283  44.1  16.4  34216  290.51 0854.54
2009/04/23 15:01:15.8     161    194     63    253    261  39.6  14.2  34204  290.32 0854.54
2009/04/23 15:01:15.9     205    232     -6    310    311  41.4  -1.1  34230  290.75 0854.54
2009/04/23 15:01:16.0     137    166    -14    216    217  39.6  -3.7  34210  290.43 0854.54
2009/04/23 15:01:16.1      77     98     15    125    126  38.3   7.1  34206  290.35 0854.54
2009/04/23 15:01:16.2      30     42    -20     52     55  36.1 -25.4  34230  290.75 0854.54
2009/04/23 15:01:16.3       6     87      3     88     89   4.0   2.3  34222  290.64 0854.54
2009/04/23 15:01:16.4      16     99     50    101    112   9.3  27.3  34224  290.67 0854.54
2009/04/23 15:01:16.5      59    106    -38    122    129  29.4 -17.6  34216  290.52 0854.54
2009/04/23 15:01:16.6      86     87    -41    123    130  44.5 -18.7  34256  291.20 0854.54
2009/04/23 15:01:16.7      75    118     28    141    144  32.6  11.6  34270  291.45 0854.54
2009/04/23 15:01:16.8     142    140     90    200    219  45.3  25.9  34288  291.76 0854.54
2009/04/23 15:01:16.9      82    129     30    154    157  32.6  11.1  34280  291.60 0854.54
2009/04/23 15:01:17.0     -24    253    112    255    278 354.4  25.2  34228  290.73 0854.54
2009/04/23 15:01:17.1      80    309     99    320    336  14.5  17.3  34250  291.10 0854.54
2009/04/23 15:01:17.2     143    226    145    268    304  32.3  30.8  34270  291.43 0854.54
2009/04/23 15:01:17.3      41    204     93    209    228  11.6  25.7  34246  291.03 0854.54
2009/04/23 15:01:17.4      99    220     87    242    258  24.3  19.9  34258  291.22 0854.54
2009/04/23 15:01:17.5     153    153     69    217    228  45.1  17.7  34258  291.25 0854.54
2009/04/23 15:01:17.6      67    171     27    184    187  21.4   8.5  34244  291.01 0854.54
2009/04/23 15:01:17.7      38     85     32     94    100  24.1  19.2  34258  291.23 0854.54
2009/04/23 15:01:17.8      20     77     93     80    122  15.2  54.3  34270  291.45 0854.54
2009/04/23 15:01:17.9     -16     29     70     34     77 331.0  72.8  34284  291.67 0854.54
2009/04/23 15:01:18.0       9     24     82     26     86  21.8  81.2  34306  292.06 0854.54
2009/04/23 15:01:18.1      -7     23    105     25    107 341.5  86.9  34300  291.95 0854.54
2009/04/23 15:01:18.2     -19     80    107     83    135 346.6  58.4  34294  291.84 0854.54
2009/04/23 15:01:18.3     -23     96     65     99    118 346.2  36.5  34298  291.91 0854.54
2009/04/23 15:01:18.4     -16     81     34     83     89 348.4  23.0  34298  291.93 0854.54
2009/04/23 15:01:18.5     -24    104      5    107    108 346.6   2.9  34282  291.66 0854.54
2009/04/23 15:01:18.6       0     92     -3     93     94   0.0  -2.2  34290  291.79 0854.54
2009/04/23 15:01:18.7     -56     35     39     67     77 302.4  33.5  34292  291.81 0854.54
2009/04/23 15:01:18.8     -42    -14     75     45     87 250.9  65.7  34302  291.98 0854.54
2009/04/23 15:01:18.9     -71    -45     85     85    120 237.5  50.1  34330  292.46 0854.54
2009/04/23 15:01:19.0     -26    -35     77     44     88 217.0  67.7  34344  292.69 0854.54
2009/04/23 15:01:19.1     -42    -68     92     81    122 211.6  54.2  34352  292.83 0854.54
2009/04/23 15:01:19.2     -31   -101     79    106    132 197.4  40.7  34322  292.32 0854.54
2009/04/23 15:01:19.3       2    -90     97     91    133 178.2  51.6  34304  292.03 0854.54
2009/04/23 15:01:19.4     -15    -76    105     78    130 191.5  60.0  34312  292.17 0854.54
2009/04/23 15:01:19.5     -18   -125    149    127    195 188.5  55.0  34278  291.59 0854.54
2009/04/23 15:01:19.6      14   -192    129    193    232 175.8  36.7  34270  291.43 0854.54
2009/04/23 15:01:19.7      -1   -177    179    178    252 180.5  50.1  34300  291.96 0854.54
2009/04/23 15:01:19.8      26   -157    159    160    225 170.3  50.2  34288  291.74 0854.54
2009/04/23 15:01:19.9      31   -134    130    138    189 166.7  48.2  34284  291.67 0854.54
2009/04/23 15:01:20.0       2    -79    105     80    132 178.2  58.5  34264  291.35 0854.54
2009/04/23 15:01:20.1      -1    -79    137     80    158 181.0  67.2  34276  291.54 0854.54
2009/04/23 15:01:20.2     -49   -100     73    112    133 206.3  35.6  34256  291.20 0854.54
2009/04/23 15:01:20.3     -38    -96     51    104    115 201.8  27.3  34242  290.98 0854.54
2009/04/23 15:01:20.4     -57   -121    115    135    177 205.4  44.8  34254  291.16 0854.54
2009/04/23 15:01:20.5    -165   -228    182    282    335 216.0  35.9  34230  290.75 0854.54
2009/04/23 15:01:20.6    -139   -167    194    218    291 219.7  46.2  34240  290.93 0854.54
2009/04/23 15:01:20.7     -48   -175    185    182    259 195.6  50.4  34258  291.24 0854.54
2009/04/23 15:01:20.8     -30   -116    177    120    213 194.7  62.8  34264  291.35 0854.54
2009/04/23 15:01:20.9     -76   -112    144    136    198 214.2  52.0  34250  291.11 0854.54
2009/04/23 15:01:21.0     -67     -5    146     68    161 265.6  73.5  34288  291.76 0854.54
2009/04/23 15:01:21.1      40     54     97     68    118  36.1  61.5  34304  292.03 0854.54
2009/04/23 15:01:21.2     -27   -178    239    181    299 188.9  59.2  34268  291.41 0854.54
2009/04/23 15:01:21.3     -23   -185    252    187    313 187.3  59.8  34310  292.11 0854.54
2009/04/23 15:01:21.4     -41   -176    212    181    278 193.4  55.4  34312  292.16 0854.54
2009/04/23 15:01:21.5     -70   -157    131    173    217 204.1  40.9  34300  291.95 0854.54
2009/04/23 15:01:21.6    -130    -83    100    155    184 237.6  35.6  34294  291.86 0854.54
2009/04/23 15:01:21.7     -21    -15     37     27     45 234.0  60.5  34300  291.96 0854.54
2009/04/23 15:01:21.8      23    -67     59     72     93 160.8  43.7  34286  291.72 0854.54
2009/04/23 15:01:21.9      13    -65     94     67    115 168.5  61.1  34286  291.72 0854.54
2009/04/23 15:01:22.0      10    -77     89     78    118 171.9  54.3  34278  291.57 0854.54
2009/04/23 15:01:22.1      15     -5     77     16     78 108.6  89.0  34292  291.83 0854.54
2009/04/23 15:01:22.2     -52    -91     59    106    121 209.9  31.4  34270  291.43 0854.54
2009/04/23 15:01:22.3    -133   -132    -45    188    194 225.1 -13.7  34258  291.23 0854.54
2009/04/23 15:01:22.4    -111   -203    -64    232    240 208.7 -20.2  34254  291.17 0854.54
2009/04/23 15:01:22.5     -64   -151    -19    165    167 202.9  -6.7  34252  291.15 0854.54
2009/04/23 15:01:22.6    -226   -267     19    351    352 220.3   3.2  34234  290.84 0854.54
2009/04/23 15:01:22.7    -231   -210     60    313    319 227.7  11.0  34296  291.89 0854.54
2009/04/23 15:01:22.8    -217    -44     48    222    228 258.3  12.2  34312  292.17 0854.54
2009/04/23 15:01:22.9    -369   -164     26    404    405 246.0   3.8  34276  291.55 0854.54
2009/04/23 15:01:23.0    -269     54    123    275    301 281.5  25.7  34294  291.85 0854.54
2009/04/23 15:01:23.1    -251    125     13    281    282 296.6   2.8  34284  291.67 0854.54
2009/04/23 15:01:23.2    -190    -10    146    191    240 267.0  41.4  34304  292.03 0854.54
2009/04/23 15:01:23.3    -286     28    177    288    338 275.7  34.4  34304  292.02 0854.54
2009/04/23 15:01:23.4    -214     59    192    223    294 285.5  45.1  34316  292.21 0854.54
2009/04/23 15:01:23.5    -176    129    179    219    282 306.4  43.7  34308  292.07 0854.54
2009/04/23 15:01:23.6    -366     71    119    373    392 281.0  17.8  34304  292.02 0854.54
2009/04/23 15:01:23.7    -319     43    -27    322    324 277.8  -4.9  34284  291.67 0854.54
2009/04/23 15:01:23.8    -183    -49    178    190    260 254.9  48.0  34322  292.33 0854.54
2009/04/23 15:01:23.9    -172   -230    227    288    366 216.7  42.2  34350  292.80 0854.54
2009/04/23 15:01:24.1    -137   -185    146    231    273 216.5  35.5  34360  292.96 0854.54
2009/04/23 15:01:24.2    -144   -310    164    342    379 205.0  27.3  34286  291.71 0854.54
2009/04/23 15:01:24.3     -60   -170    209    181    276 199.6  54.6  34290  291.77 0854.54
2009/04/23 15:01:24.4    -116   -174    136    210    250 213.6  36.0  34282  291.63 0854.54
2009/04/23 15:01:24.5     -82   -132    149    156    215 212.1  48.2  34320  292.29 0854.54
2009/04/23 15:01:24.6     -81   -123     91    148    173 213.4  35.0  34310  292.12 0854.54
2009/04/23 15:01:24.7     -93   -155     98    181    205 211.0  30.6  34342  292.66 0854.54
2009/04/23 15:01:24.8    -161    -88    129    184    224 241.4  38.4  34310  292.12 0854.54
2009/04/23 15:01:24.9    -108   -116     88    159    181 222.8  31.4  34334  292.54 0854.54
2009/04/23 15:01:25.0    -140   -115     79    182    198 230.5  24.9  34318  292.25 0854.54
2009/04/23 15:01:25.1    -193   -174     74    260    271 228.0  16.0  34318  292.24 0854.54
2009/04/23 15:01:25.2    -386   -101   -102    399    412 255.3 -14.4  34134  289.14 0854.54
2009/04/23 15:01:25.3    -399   -158    -74    430    437 248.3  -9.8  34146  289.33 0854.54
2009/04/23 15:01:25.4    -306   -272    -34    410    412 228.4  -4.8  34160  289.56 0854.54
2009/04/23 15:01:25.5    -348   -327    -79    478    485 226.8  -9.5  34176  289.83 0854.54
2009/04/23 15:01:25.6    -304   -419     98    518    528 216.0  10.7  34228  290.74 0854.54
2009/04/23 15:01:25.7    -319   -446     66    549    553 215.6   6.9  34128  289.04 0854.54
2009/04/23 15:01:25.8    -281   -494    225    569    611 209.6  23.0  34138  289.20 0854.54
2009/04/23 15:01:25.9    -342   -428    111    548    560 218.6  11.4  34122  288.92 0854.54
2009/04/23 15:01:26.0    -390   -345    -62    521    525 228.5  -6.8  34124  288.96 0854.54
2009/04/23 15:01:26.1    -358   -332    -84    489    497 227.1  -9.8  34142  289.28 0854.55
2009/04/23 15:01:26.2    -320   -365    -65    486    491 221.3  -7.7  34140  289.23 0854.55
2009/04/23 15:01:26.3    -341   -340    -49    482    485 225.1  -5.9  34142  289.28 0854.55
2009/04/23 15:01:26.4    -285   -334    -67    440    446 220.5  -8.7  34146  289.34 0854.55
2009/04/23 15:01:26.5    -392   -311    -95    501    511 231.5 -10.8  34138  289.20 0854.55
2009/04/23 15:01:26.6    -331   -332    -44    469    472 224.9  -5.5  34142  289.27 0854.55
2009/04/23 15:01:26.7    -322   -444     -5    549    550 216.0  -0.6  34176  289.84 0854.55
2009/04/23 15:01:26.8    -125   -354    139    376    400 199.5  21.0  34240  290.94 0854.55
2009/04/23 15:01:26.9    -231   -321     -4    396    397 215.8  -0.6  34214  290.49 0854.55
2009/04/23 15:01:27.0    -114   -398     68    415    421 196.0   9.3  34200  290.24 0854.55
2009/04/23 15:01:27.1    -185   -313    111    364    381 210.6  17.0  34192  290.10 0854.55
2009/04/23 15:01:27.2    -182   -182    -27    258    260 225.0  -6.0  34138  289.20 0854.55
2009/04/23 15:01:27.3    -175   -111    -76    208    221 237.5 -25.4  34146  289.33 0854.55
2009/04/23 15:01:27.4    -290    -36   -216    293    364 262.9 -44.5  34156  289.52 0854.55
2009/04/23 15:01:27.5    -285   -169   -199    332    387 239.3 -38.1  34174  289.82 0854.55
2009/04/23 15:01:27.6    -334    -45   -131    338    362 262.2 -26.7  34204  290.33 0854.55
2009/04/23 15:01:27.7    -286   -119   -219    310    379 247.4 -43.1  34152  289.42 0854.55
2009/04/23 15:01:27.8    -250   -143   -252    289    383 240.2 -50.0  34156  289.52 0854.55
2009/04/23 15:01:27.9    -217   -243   -202    327    384 221.8 -39.3  34172  289.79 0854.55
2009/04/23 15:01:28.0    -133   -142   -142    195    241 223.2 -44.1  34184  289.97 0854.55
2009/04/23 15:01:28.1    -120   -108    -83    162    182 227.8 -33.5  34174  289.82 0854.55
2009/04/23 15:01:28.2    -106    -83    -65    135    149 231.8 -31.7  34174  289.82 0854.55
2009/04/23 15:01:28.3     -53    -56    -28     78     82 223.3 -24.8  34184  289.97 0854.55
2009/04/23 15:01:28.4    -111    -92     13    145    146 230.5   5.4  34186  290.01 0854.55
2009/04/23 15:01:28.5    -112   -123    -57    167    177 222.3 -19.1  34188  290.04 0854.55
2009/04/23 15:01:28.6     -73   -133    -42    152    158 208.9 -15.5  34178  289.89 0854.55
2009/04/23 15:01:28.7    -197    -30    -73    200    212 261.2 -25.1  34198  290.23 0854.55
2009/04/23 15:01:28.8    -168    -68    -63    182    192 247.8 -23.6  34196  290.18 0854.55
2009/04/23 15:01:28.9    -197    -49    -98    204    226 255.8 -31.7  34196  290.19 0854.55
2009/04/23 15:01:29.0    -308    -62   -123    315    338 258.5 -26.9  34188  290.04 0854.55
2009/04/23 15:01:29.1    -276     90    -81    291    303 288.2 -15.5  34180  289.92 0854.56
2009/04/23 15:01:29.2    -162     75    -94    179    202 294.8 -34.2  34198  290.23 0854.56
2009/04/23 15:01:29.3    -173    -22   -160    175    237 262.5 -51.5  34198  290.21 0854.56
2009/04/23 15:01:29.4    -179     65   -124    191    227 290.0 -40.0  34222  290.62 0854.56
2009/04/23 15:01:29.5    -243     -5    -90    244    260 268.7 -25.4  34236  290.87 0854.56
2009/04/23 15:01:29.6    -258    -19     12    259    260 265.6   2.8  34246  291.04 0854.56
2009/04/23 15:01:29.7    -194    -60    -73    204    216 252.7 -24.8  34242  290.98 0854.56
2009/04/23 15:01:29.8    -143    -22   -125    145    191 261.2 -49.5  34194  290.16 0854.56
2009/04/23 15:01:29.9    -128    -50    -76    138    157 248.7 -35.8  34200  290.25 0854.56
2009/04/23 15:01:30.0    -162   -162    -29    230    232 225.0  -7.3  34236  290.86 0854.56
2009/04/23 15:01:30.1    -125   -197    -60    234    242 212.5 -14.4  34228  290.71 0854.56
2009/04/23 15:01:30.2    -120   -244    -62    273    281 206.3 -12.9  34220  290.59 0854.56
2009/04/23 15:01:30.3     -23   -243    -69    245    255 185.6 -15.8  34220  290.59 0854.56
2009/04/23 15:01:30.4     101   -213     -2    236    237 154.5  -0.7  34212  290.44 0854.56
2009/04/23 15:01:30.5      55   -126     48    138    147 156.4  19.2  34216  290.52 0854.56
2009/04/23 15:01:30.6      45    -87    126     99    160 152.4  57.9  34238  290.89 0854.56
2009/04/23 15:01:30.7      45    -55    112     72    133 140.4  64.6  34244  291.01 0854.56
2009/04/23 15:01:30.8     -95   -143     91    172    194 213.6  30.3  34204  290.33 0854.56
2009/04/23 15:01:30.9    -109    -53     57    122    134 243.8  27.1  34210  290.43 0854.56
2009/04/23 15:01:31.0     -80   -125     79    149    168 212.6  30.3  34216  290.52 0854.56
2009/04/23 15:01:31.1       7    -85     64     86    107 175.1  40.1  34222  290.64 0854.56
2009/04/23 15:01:31.2      20     32    108     38    114  32.5  81.2  34242  290.98 0854.56
2009/04/23 15:01:31.3     -45     54     94     71    117 320.4  59.4  34232  290.79 0854.56
2009/04/23 15:01:31.4     -49     35    119     61    133 306.0  70.8  34222  290.64 0854.56
2009/04/23 15:01:31.5     -62    -39    117     74    138 237.5  64.7  34238  290.91 0854.56
2009/04/23 15:01:31.6      21      1     38     22     43  85.6  67.7  34230  290.75 0854.56
2009/04/23 15:01:31.7      68     13     83     70    108  78.6  55.8  34214  290.48 0854.56
2009/04/23 15:01:31.8      82     19    118     85    145  76.7  60.6  34234  290.82 0854.56
2009/04/23 15:01:31.9     -18      9     76     21     78 297.1  84.4  34252  291.13 0854.56
2009/04/23 15:01:32.0      32    -25     51     41     65 127.8  56.4  34218  290.57 0854.56
2009/04/23 15:01:32.1      -1     11     38     12     39 352.0  81.8  34230  290.75 0854.56
2009/04/23 15:01:32.2     -20      0     58     21     61 270.0  80.2  34234  290.82 0854.56
2009/04/23 15:01:32.3     -25    -40     65     48     80 211.6  60.0  34226  290.70 0854.56
2009/04/23 15:01:32.4      25    -69     66     74     99 160.0  46.9  34216  290.53 0854.56
2009/04/23 15:01:32.5     101    -32    -82    106    134 107.7 -46.1  34226  290.70 0854.56
2009/04/23 15:01:32.6     126    -66    -51    143    152 117.5 -19.7  34218  290.57 0854.56
2009/04/23 15:01:32.7      81    -76    -14    112    113 133.1  -7.3  34212  290.45 0854.56
2009/04/23 15:01:32.8      66    -74    -68    100    120 138.1 -42.0  34206  290.35 0854.56
2009/04/23 15:01:32.9     149     83    -38    171    176  60.7 -12.6  34204  290.33 0854.56
2009/04/23 15:01:33.0     191     82    -17    209    210  66.7  -4.9  34190  290.09 0854.57
2009/04/23 15:01:33.1     139     89    -43    166    172  57.4 -14.7  34172  289.77 0854.57
2009/04/23 15:01:33.2     181    165    -76    246    257  47.7 -22.1  34164  289.63 0854.57
2009/04/23 15:01:33.3     158    167    -97    231    250  43.4 -28.6  34160  289.58 0854.57
2009/04/23 15:01:33.4     172    195   -113    261    284  41.4 -29.5  34166  289.66 0854.57
2009/04/23 15:01:33.5     164    224   -177    278    329  36.3 -39.9  34176  289.85 0854.57
2009/04/23 15:01:33.6     167    283    -69    329    337  30.5 -11.9  34174  289.82 0854.57
2009/04/23 15:01:33.7     218    354    -22    416    417  31.7  -3.1  34170  289.75 0854.57
2009/04/23 15:01:33.8     224    315   -106    387    402  35.5 -15.4  34168  289.71 0854.57
2009/04/23 15:01:33.9     253    384    -92    460    470  33.4 -11.3  34172  289.79 0854.57
2009/04/23 15:01:34.0     222    222   -181    314    362  45.0 -37.0  34182  289.96 0854.57
2009/04/23 15:01:34.1     188    148   -132    240    273  51.8 -35.7  34180  289.92 0854.57
2009/04/23 15:01:34.2      81    242    -56    256    263  18.5 -12.4  34178  289.86 0854.57
2009/04/23 15:01:34.3      17    195    -81    196    212   5.1 -28.0  34182  289.94 0854.57
2009/04/23 15:01:34.4     -61    174    -81    185    201 340.6 -29.5  34170  289.75 0854.57
2009/04/23 15:01:34.5     -17    230    -73    231    243 355.6 -17.6  34174  289.81 0854.57
2009/04/23 15:01:34.6     -47    231    -64    236    245 348.4 -15.2  34194  290.15 0854.57
2009/04/23 15:01:34.7     -16    214     41    215    220 355.5  11.0  34182  289.94 0854.57
2009/04/23 15:01:34.8      64    194      0    205    206  18.3   0.2  34184  289.99 0854.57
2009/04/23 15:01:34.9      81    149     -5    170    171  28.5  -1.8  34180  289.92 0854.57
2009/04/23 15:01:35.0      -2    156     19    157    159 359.1   7.2  34214  290.48 0854.56
2009/04/23 15:01:35.1     -13    178      7    179    180 355.5   2.5  34208  290.38 0854.56
2009/04/23 15:01:35.2     -14    189     -2    190    191 355.5  -0.7  34210  290.41 0854.56
2009/04/23 15:01:35.3      14    180    -21    181    183   4.5  -6.7  34212  290.45 0854.56
2009/04/23 15:01:35.4      58    174     55    184    193  18.5  16.8  34190  290.09 0854.56
2009/04/23 15:01:35.5      46    193    100    199    222  13.6  28.7  34190  290.08 0854.56
2009/04/23 15:01:35.6      18    211     97    212    233   5.1  26.4  34272  291.49 0854.56
2009/04/23 15:01:35.7     151    196    106    248    269  37.6  24.6  34252  291.14 0854.56
2009/04/23 15:01:35.8     231    230     51    327    332  45.1   8.9  34202  290.30 0854.56
2009/04/23 15:01:35.9     195    209    -57    286    292  43.0 -11.3  34230  290.75 0854.56
2009/04/23 15:01:36.0     141    265     -1    301    302  28.0  -0.3  34238  290.88 0854.56
2009/04/23 15:01:36.1     158    257    -66    302    310  31.6 -12.4  34228  290.71 0854.56
2009/04/23 15:01:36.2     222    272    -31    352    354  39.2  -5.1  34244  291.01 0854.56
2009/04/23 15:01:36.3     250    239     18    346    347  46.3   3.1  34254  291.17 0854.56
2009/04/23 15:01:36.4     139    281     96    314    329  26.3  17.0  34294  291.85 0854.56
2009/04/23 15:01:36.5      54    394     -1    398    399   7.8  -0.3  34268  291.42 0854.56
2009/04/23 15:01:36.6      10    351   -124    352    373   1.7 -24.7  34288  291.73 0854.56
2009/04/23 15:01:36.7      21    229    -71    231    241   5.3 -22.1  34268  291.41 0854.56
2009/04/23 15:01:36.8     123    131     60    181    191  43.2  18.4  34286  291.72 0854.56
2009/04/23 15:01:36.9      55     56     92     79    121  44.2  54.8  34290  291.77 0854.56
2009/04/23 15:01:37.0      10    136     40    137    143   4.5  16.3  34288  291.76 0854.55
2009/04/23 15:01:37.1     -42    116      6    124    125 340.0   2.9  34298  291.93 0854.55
2009/04/23 15:01:37.2     -49    156    -53    164    173 342.6 -18.1  34290  291.77 0854.55
2009/04/23 15:01:37.3     -33    221    -35    224    227 351.5  -9.0  34296  291.89 0854.55
2009/04/23 15:01:37.4     -34    191     -7    195    196 349.8  -2.2  34300  291.95 0854.55
2009/04/23 15:01:37.5     -44    176      9    182    183 345.7   2.9  34294  291.86 0854.55
2009/04/23 15:01:37.6      -3    139      6    140    141 358.6   2.8  34292  291.83 0854.55
2009/04/23 15:01:37.7      38     98    -78    106    131  21.4 -44.5  34278  291.59 0854.55
2009/04/23 15:01:37.8      30     97    -74    102    126  17.4 -44.1  34292  291.81 0854.55
2009/04/23 15:01:37.9     117     52    -14    129    130  66.0  -6.2  34262  291.30 0854.55
2009/04/23 15:01:38.0     141     41     19    147    149  73.6   7.5  34240  290.92 0854.55
2009/04/23 15:01:38.1      21      9     55     23     59  66.5  77.0  34270  291.43 0854.55
2009/04/23 15:01:38.2     -42     43     84     61    103 315.9  60.6  34282  291.64 0854.55
2009/04/23 15:01:38.3      37   -161    128    166    209 167.1  41.7  34278  291.57 0854.55
2009/04/23 15:01:38.4     122   -102    144    160    215 130.0  46.6  34236  290.86 0854.55
2009/04/23 15:01:38.5     102   -140    137    174    221 143.7  42.2  34242  290.98 0854.55
2009/04/23 15:01:38.6     180   -181     -5    256    257 135.2  -1.2  34238  290.90 0854.55
2009/04/23 15:01:38.7     206   -194     37    284    287 133.2   7.5  34246  291.02 0854.55
2009/04/23 15:01:38.8      59   -218     11    226    227 164.9   2.9  34240  290.92 0854.55
2009/04/23 15:01:38.9      92   -241    -28    259    261 159.1  -6.2  34240  290.92 0854.55
2009/04/23 15:01:39.0       3   -230    -12    231    232 179.1  -3.1  34244  290.99 0854.56
2009/04/23 15:01:39.1       9   -303     24    304    306 178.2   4.6  34234  290.83 0854.56
2009/04/23 15:01:39.2      29   -303     59    305    311 174.4  11.1  34226  290.70 0854.56
2009/04/23 15:01:39.3      69   -310     94    318    332 167.3  16.5  34240  290.93 0854.56
2009/04/23 15:01:39.4      73   -305    116    314    334 166.4  21.3  34264  291.34 0854.56
2009/04/23 15:01:39.5      70   -234    134    245    279 163.3  31.3  34280  291.61 0854.56
2009/04/23 15:01:39.6      85   -250    157    265    308 161.1  33.5  34260  291.26 0854.56
2009/04/23 15:01:39.7      24   -247    141    249    286 174.4  32.1  34250  291.09 0854.56
2009/04/23 15:01:39.8     -18   -239    140    240    277 184.5  33.1  34270  291.43 0854.56
2009/04/23 15:01:39.9     -36   -225    120    228    257 189.1  30.2  34262  291.29 0854.56
2009/04/23 15:01:40.0      26   -224    108    226    250 173.3  27.3  34242  290.97 0854.56
2009/04/23 15:01:40.1      61   -180    111    191    220 161.3  32.9  34240  290.94 0854.56
2009/04/23 15:01:40.2      93   -167     68    192    203 151.0  20.2  34242  290.96 0854.56
2009/04/23 15:01:40.3      94   -180     63    204    214 152.4  17.3  34240  290.94 0854.56
2009/04/23 15:01:40.4      74   -157     82    174    192 154.7  27.1  34240  290.94 0854.56
2009/04/23 15:01:40.5      43   -162    126    168    210 165.1  40.9  34238  290.91 0854.56
2009/04/23 15:01:40.6       5   -198     97    199    221 178.4  27.8  34250  291.09 0854.56
2009/04/23 15:01:40.7       0   -195     19    196    197 180.2   5.7  34242  290.98 0854.56
2009/04/23 15:01:40.8     -58   -287    -11    294    295 191.6  -2.2  34232  290.78 0854.56
2009/04/23 15:01:40.9     -72   -257     13    268    269 195.8   2.8  34238  290.90 0854.56
2009/04/23 15:01:41.0     -53   -177     34    185    189 196.7  10.6  34242  290.96 0854.57
2009/04/23 15:01:41.1     -55   -199    -13    207    208 195.6  -3.7  34248  291.06 0854.57
2009/04/23 15:01:41.2     -41   -196    -31    201    204 192.0  -9.0  34252  291.13 0854.57
2009/04/23 15:01:41.3     -13   -176     36    177    181 184.2  11.6  34252  291.15 0854.57
2009/04/23 15:01:41.4      10   -230    -20    231    232 177.4  -5.2  34230  290.75 0854.57
2009/04/23 15:01:41.5      16   -225    -45    226    231 175.8 -11.3  34228  290.72 0854.57
2009/04/23 15:01:41.6      11   -211    -63    212    222 176.9 -16.6  34232  290.79 0854.57
2009/04/23 15:01:41.7      71   -201    -73    214    226 160.6 -23.3  34228  290.74 0854.57
2009/04/23 15:01:41.8      35   -175   -102    179    206 168.4 -36.5  34248  291.06 0854.57
2009/04/23 15:01:41.9      45   -134    -84    142    164 161.3 -38.1  34246  291.04 0854.57
2009/04/23 15:01:42.0      16   -159    -48    160    168 174.2 -16.8  34246  291.04 0854.57
2009/04/23 15:01:42.1      73   -221     12    233    234 161.7   3.1  34216  290.53 0854.57
2009/04/23 15:01:42.2      67   -280    102    289    307 166.4  19.6  34190  290.09 0854.57
2009/04/23 15:01:42.3     103   -193    232    219    319 151.9  51.9  34196  290.17 0854.57
2009/04/23 15:01:42.4      -8    -83    166     84    186 185.8  71.4  34212  290.47 0854.57
2009/04/23 15:01:42.5      68    -52    173     86    193 127.3  71.9  34208  290.38 0854.57
2009/04/23 15:01:42.6      68   -108    113    128    170 147.9  45.8  34210  290.43 0854.57
2009/04/23 15:01:42.7      24    -96    109    100    147 165.7  52.2  34208  290.40 0854.57
2009/04/23 15:01:42.8      51    -64     83     83    117 141.3  50.1  34218  290.57 0854.57
2009/04/23 15:01:42.9      31    -12     75     34     82 111.7  74.5  34242  290.96 0854.57
2009/04/23 15:01:43.0     -15     15     65     22     68 315.0  81.0  34256  291.20 0854.58
2009/04/23 15:01:43.1     -30    -12     59     33     67 248.3  68.8  34252  291.15 0854.58
2009/04/23 15:01:43.2     -74    -42     40     86     94 240.2  27.1  34228  290.72 0854.58
2009/04/23 15:01:43.3     -57     20      0     61     62 290.0  -0.3  34214  290.50 0854.58
2009/04/23 15:01:43.4     -58    136      7    149    150 336.8   2.8  34214  290.50 0854.58
2009/04/23 15:01:43.5      37     19    112     42    119  62.9  79.1  34234  290.84 0854.58
2009/04/23 15:01:43.6      38     16    127     42    133  66.5  80.7  34250  291.09 0854.58
2009/04/23 15:01:43.7       0    -52    110     53    122 180.9  72.8  34258  291.25 0854.58
2009/04/23 15:01:43.8      50   -100    144    113    183 153.3  58.2  34266  291.38 0854.58
2009/04/23 15:01:43.9      48   -145    119    153    193 161.7  42.0  34244  290.99 0854.58
2009/04/23 15:01:44.0     -18   -196    175    197    263 185.3  46.2  34230  290.76 0854.58
2009/04/23 15:01:44.1      31     59    153     67    167  28.1  74.8  34254  291.18 0854.58
2009/04/23 15:01:44.2      11     29    204     32    206  21.8  90.0  34234  290.84 0854.58
2009/04/23 15:01:44.3     257    -49    206    262    333 101.0  42.2  34230  290.75 0854.58
2009/04/23 15:01:44.4     271      0    133    272    302  90.0  28.0  34234  290.82 0854.58
2009/04/23 15:01:44.5     227      7    103    228    250  88.1  26.2  34234  290.83 0854.58
2009/04/23 15:01:44.6     198   -174    -35    264    267 131.3  -7.7  34232  290.80 0854.58
2009/04/23 15:01:44.7     188   -227    -69    295    303 140.3 -13.2  34228  290.71 0854.58
2009/04/23 15:01:44.8     230   -243    -98    335    350 136.6 -16.4  34234  290.83 0854.58
2009/04/23 15:01:44.9     248   -207    -37    324    327 129.8  -6.6  34228  290.73 0854.58
2009/04/23 15:01:45.0     205   -192    -52    282    287 133.1 -10.5  34226  290.68 0854.60
2009/04/23 15:01:45.1     225   -199    -38    301    304 131.6  -7.2  34222  290.63 0854.60
2009/04/23 15:01:45.2     234   -123    -10    265    266 117.8  -2.2  34230  290.75 0854.60
2009/04/23 15:01:45.3     228    -77    -26    241    243 108.8  -6.2  34234  290.82 0854.60
2009/04/23 15:01:45.4     223    -52    -63    229    238 103.2 -15.4  34234  290.82 0854.60
2009/04/23 15:01:45.5     219    -26    -47    221    227  97.0 -12.2  34234  290.82 0854.60
2009/04/23 15:01:45.6     213    -29    -34    215    218  97.9  -9.0  34224  290.67 0854.60
2009/04/23 15:01:45.7     181    -68     12    194    195 110.8   3.6  34222  290.62 0854.60
2009/04/23 15:01:45.8     145    -58    -18    157    159 111.8  -6.7  34224  290.67 0854.60
2009/04/23 15:01:45.9     139    -64     49    154    162 114.8  17.9  34216  290.52 0854.60
2009/04/23 15:01:46.0      71    -48     45     86     97 124.2  29.8  34228  290.72 0854.60
2009/04/23 15:01:46.1      63    -45     -3     78     79 126.0  -2.2  34220  290.58 0854.60
2009/04/23 15:01:46.2     101   -143      8    176    177 144.8   2.9  34216  290.53 0854.60
2009/04/23 15:01:46.3     143   -165     62    219    228 139.0  16.0  34214  290.50 0854.60
2009/04/23 15:01:46.4     138   -159     61    211    220 139.0  16.3  34216  290.53 0854.60
2009/04/23 15:01:46.5     138   -203     91    246    262 145.7  21.0  34222  290.61 0854.60
2009/04/23 15:01:46.6     158   -249    151    296    332 147.5  29.2  34190  290.07 0854.60
2009/04/23 15:01:46.7     285   -224    182    363    406 128.2  28.6  34208  290.38 0854.60
2009/04/23 15:01:46.8     294   -150     73    331    340 117.1  12.5  34208  290.37 0854.60
2009/04/23 15:01:46.9     267   -291     51    396    400 137.5   7.4  34196  290.18 0854.60
2009/04/23 15:01:47.0      81   -372     74    381    389 167.6  11.1  34200  290.25 0854.59
2009/04/23 15:01:47.1      30   -283    -31    285    287 173.8  -6.2  34202  290.29 0854.59
2009/04/23 15:01:47.2      78   -272    -16    284    285 163.9  -3.3  34194  290.15 0854.59
2009/04/23 15:01:47.3       4   -267     32    268    270 179.1   6.9  34188  290.05 0854.59
2009/04/23 15:01:47.4      75   -238     32    250    253 162.4   7.5  34200  290.24 0854.59
2009/04/23 15:01:47.5       8   -203    131    204    242 177.5  35.6  34206  290.36 0854.59
2009/04/23 15:01:47.6      62   -231    155    240    285 164.9  35.6  34216  290.53 0854.59
2009/04/23 15:01:47.7     -23   -208    132    210    248 186.5  35.5  34198  290.20 0854.59
2009/04/23 15:01:47.8      14   -192     74    193    206 175.6  22.0  34190  290.08 0854.59
2009/04/23 15:01:47.9      24   -107     17    110    112 167.1   9.0  34194  290.16 0854.59
2009/04/23 15:01:48.0     142    -56    -45    153    160 111.7 -16.6  34212  290.45 0854.59
2009/04/23 15:01:48.1     174    -86    -67    195    206 116.2 -23.6  34208  290.38 0854.59
2009/04/23 15:01:48.2     237    -56    -31    244    246 103.3  -7.3  34222  290.61 0854.59
2009/04/23 15:01:48.3     291    -65    -51    299    304 102.6  -9.8  34208  290.37 0854.59
2009/04/23 15:01:48.4     381   -225     22    443    444 120.7   2.9  34204  290.31 0854.59
2009/04/23 15:01:48.5     460   -271     -6    534    535 120.5  -0.7  34192  290.11 0854.59
2009/04/23 15:01:48.6     466   -301    150    555    576 122.9  15.2  34184  289.97 0854.59
2009/04/23 15:01:48.7     498   -297     55    580    583 120.8   5.4  34180  289.91 0854.59
2009/04/23 15:01:48.8     414   -137    124    437    455 108.3  15.9  34174  289.80 0854.59
2009/04/23 15:01:48.9     380   -266    -18    465    466 125.0  -2.2  34188  290.03 0854.59
2009/04/23 15:01:49.0     290   -332    -17    442    443 138.9  -2.2  34186  290.00 0854.59
2009/04/23 15:01:49.1     251   -271     34    370    372 137.2   5.3  34186  290.01 0854.59
2009/04/23 15:01:49.2      95   -503    296    512    591 169.3  32.7  34188  290.04 0854.59
2009/04/23 15:01:49.3     393   -330    379    514    638 130.0  40.1  34194  290.14 0854.59
2009/04/23 15:01:49.4     333   -507      7    607    608 146.7   0.7  34190  290.07 0854.59
2009/04/23 15:01:49.5     247   -453    256    516    576 151.4  28.2  34184  289.99 0854.59
2009/04/23 15:01:49.6     408   -428    272    592    651 136.4  26.4  34170  289.74 0854.59
2009/04/23 15:01:49.7     239   -389    248    457    519 148.4  30.8  34188  290.06 0854.59
2009/04/23 15:01:49.8     143   -356    164    384    417 158.1  24.5  34196  290.17 0854.59
2009/04/23 15:01:49.9      35   -420     83    422    431 175.1  11.1  34200  290.26 0854.59
2009/04/23 15:01:50.0     -18   -293    -23    294    295 183.6  -4.6  34186  290.02 0854.58
2009/04/23 15:01:50.1      -4   -273    -82    274    286 180.9 -21.7  34192  290.12 0854.58
2009/04/23 15:01:50.2     110   -312      7    331    332 160.5   1.2  34202  290.30 0854.58
2009/04/23 15:01:50.3     137   -422   -114    444    459 162.0 -14.5  34196  290.19 0854.58
2009/04/23 15:01:50.4     248   -465   -135    528    546 151.9 -14.4  34188  290.04 0854.58
2009/04/23 15:01:50.5     -73   -466    -17    472    473 189.0  -2.1  34188  290.03 0854.58
2009/04/23 15:01:50.6      30   -446      0    447    448 176.1   0.1  34204  290.31 0854.58
2009/04/23 15:01:50.7     145   -513    -55    534    537 164.2  -6.0  34190  290.09 0854.58
2009/04/23 15:01:50.8     103   -577     45    587    589 169.9   4.5  34196  290.17 0854.58
2009/04/23 15:01:50.9      42   -617   -131    619    633 176.1 -12.0  34198  290.20 0854.58
2009/04/23 15:01:51.0      36   -463   -108    465    478 175.5 -13.2  34196  290.17 0854.58
2009/04/23 15:01:51.1      33   -519     15    521    522 176.3   1.7  34186  290.02 0854.58
2009/04/23 15:01:51.2      33   -433     54    435    439 175.5   7.1  34178  289.87 0854.58
2009/04/23 15:01:51.4     197   -390     58    438    442 153.2   7.6  34172  289.78 0854.58
2009/04/23 15:01:51.4     181   -451     68    487    492 158.1   8.0  34166  289.66 0854.58
2009/04/23 15:01:51.5     184   -477     21    512    513 158.8   2.4  34170  289.73 0854.58
2009/04/23 15:01:51.6     183   -395     61    436    441 155.1   8.0  34172  289.77 0854.58
2009/04/23 15:01:51.7     169   -365    117    403    420 155.1  16.3  34178  289.88 0854.58
2009/04/23 15:01:51.9     203   -367     31    420    422 151.0   4.2  34168  289.72 0854.58
2009/04/23 15:01:52.0     166   -337    128    376    398 153.8  18.9  34170  289.74 0854.58
2009/04/23 15:01:52.1     113   -477    154    491    515 166.6  17.4  34178  289.86 0854.55
2009/04/23 15:01:52.2     130   -480    165    498    525 164.9  18.4  34178  289.86 0854.55
2009/04/23 15:01:52.3     186   -485    162    520    545 159.0  17.3  34170  289.74 0854.55
2009/04/23 15:01:52.4     242   -562    216    612    648 156.7  20.2  34196  290.18 0854.55
2009/04/23 15:01:52.5     255   -507    200    568    603 153.3  19.4  34194  290.15 0854.55
2009/04/23 15:01:52.6     234   -406    167    469    497 150.0  20.4  34208  290.37 0854.55
2009/04/23 15:01:52.7     163   -463    193    491    527 160.6  22.8  34178  289.86 0854.55
2009/04/23 15:01:52.8     167   -458    115    488    502 160.0  13.3  34202  290.29 0854.55
2009/04/23 15:01:52.9      16   -272    133    273    303 176.6  27.4  34194  290.14 0854.55
2009/04/23 15:01:53.0     130   -455     -1    474    475 164.0  -0.2  34186  290.00 0854.55
2009/04/23 15:01:53.1     -64   -213    134    223    260 196.7  33.7  34192  290.10 0854.55
2009/04/23 15:01:53.2      51    -73    158     90    181 145.3  67.7  34212  290.45 0854.55
2009/04/23 15:01:53.3     174   -365    230    405    465 154.5  32.1  34174  289.80 0854.55
2009/04/23 15:01:53.4     373   -385     77    537    543 135.9   8.2  34172  289.79 0854.55
2009/04/23 15:01:53.5     208   -260     96    334    348 141.3  16.0  34178  289.86 0854.55
2009/04/23 15:01:53.6    -196   -203     50    283    288 224.1  10.1  34178  289.88 0854.55
2009/04/23 15:01:53.7    -194     37    107    198    225 280.8  30.8  34190  290.09 0854.55
2009/04/23 15:01:53.8    -171     22     74    173    188 277.5  24.3  34198  290.21 0854.55
2009/04/23 15:01:53.9     -78     83     38    114    121 316.8  18.4  34186  290.01 0854.55
2009/04/23 15:01:54.0     -54    -78     22     96     99 214.7  13.2  34190  290.08 0854.55
2009/04/23 15:01:54.1     210   -278    -23    349    350 142.9  -3.8  34202  290.27 0854.55
2009/04/23 15:01:54.2     240   -467     -8    526    527 152.8  -0.9  34192  290.11 0854.55
2009/04/23 15:01:54.3     349   -495     18    606    607 144.8   1.8  34178  289.88 0854.55
2009/04/23 15:01:54.4     319   -417    122    526    541 142.6  13.1  34176  289.85 0854.55
2009/04/23 15:01:54.5     209   -360    147    417    443 149.8  19.4  34166  289.66 0854.55
2009/04/23 15:01:54.6     214   -284    180    356    398 143.0  28.9  34168  289.71 0854.55
2009/04/23 15:01:54.7     131   -282     73    312    321 155.1  13.3  34174  289.80 0854.55
2009/04/23 15:01:54.8      35   -251    156    254    298 171.9  34.5  34182  289.95 0854.55
2009/04/23 15:01:54.9     139   -230    184    270    326 148.8  37.6  34188  290.05 0854.55
2009/04/23 15:01:55.0     -19   -118    158    120    198 189.3  59.0  34192  290.13 0854.55
2009/04/23 15:01:55.1      16   -114    124    116    169 172.0  52.2  34202  290.28 0854.55
2009/04/23 15:01:55.2      85    -88    147    123    191 135.9  56.1  34198  290.21 0854.55
2009/04/23 15:01:55.3      71    -33     54     79     95 115.3  37.0  34202  290.30 0854.55
2009/04/23 15:01:55.4     117   -106    -27    159    162 132.2  -9.8  34200  290.26 0854.55
2009/04/23 15:01:55.5     160     12     98    161    188  85.6  34.4  34202  290.30 0854.55
2009/04/23 15:01:55.6     166    171     89    239    255  44.1  21.5  34196  290.17 0854.55
2009/04/23 15:01:55.7     214    222    101    309    326  43.9  18.1  34240  290.93 0854.55
2009/04/23 15:01:55.8     316    292     66    431    436  47.2   8.7  34228  290.72 0854.55
2009/04/23 15:01:55.9     286    174    189    335    384  58.7  31.9  34218  290.57 0854.55
2009/04/23 15:01:56.0     177    306     28    354    356  30.0   4.6  34228  290.74 0854.55
2009/04/23 15:01:56.1     164    300     73    343    351  28.7  12.1  34238  290.88 0854.56
2009/04/23 15:01:56.2     188    247     17    311    312  37.4   3.1  34238  290.88 0854.56
2009/04/23 15:01:56.3     314    314     -9    445    446  45.0  -1.2  34258  291.23 0854.56
2009/04/23 15:01:56.4     279    376   -139    469    490  36.5 -16.5  34340  292.63 0854.56
2009/04/23 15:01:56.5     231    297    -57    377    382  37.9  -8.7  34258  291.23 0854.56
2009/04/23 15:01:56.6     297    244   -122    385    404  50.5 -17.6  34208  290.40 0854.56
2009/04/23 15:01:56.7     339    196   -138    392    415  59.9 -24.5  34218  290.55 0854.56
2009/04/23 15:01:56.8     321    242    162    403    434  53.0  23.0  34214  290.48 0854.56
2009/04/23 15:01:56.9     208    210    213    296    364  44.8  39.3  34212  290.45 0854.56
2009/04/23 15:01:57.0     161     36    222    165    276  77.4  59.8  34208  290.39 0854.56
2009/04/23 15:01:57.1     210    107    189    236    302  62.9  42.7  34206  290.34 0854.56
2009/04/23 15:01:57.2     256    -24    317    258    408  95.5  56.8  34210  290.43 0854.56
2009/04/23 15:01:57.3     149    -11    233    150    277  94.4  64.6  34220  290.59 0854.56
2009/04/23 15:01:57.4     115    -26    228    118    256 102.8  70.6  34250  291.09 0854.56
2009/04/23 15:01:57.5     207     98    235    230    328  64.6  50.6  34224  290.66 0854.56
2009/04/23 15:01:57.6     367     47    184    371    414  82.6  28.2  34200  290.25 0854.56
2009/04/23 15:01:57.7     344    -39    290    347    452  96.5  44.0  34200  290.26 0854.56
2009/04/23 15:01:57.8     270      1    242    271    363  89.6  46.4  34218  290.55 0854.56
2009/04/23 15:01:57.9     279     35    181    282    335  82.8  35.6  34302  291.97 0854.56
2009/04/23 15:01:58.0     183      4    210    184    279  88.7  54.3  34260  291.26 0854.56
2009/04/23 15:01:58.1     211     60    210    220    304  74.1  48.7  34294  291.85 0854.56
2009/04/23 15:01:58.2     113     18    180    115    213  80.8  64.6  34290  291.79 0854.56
2009/04/23 15:01:58.3      33     40    171     53    179  39.6  82.3  34254  291.18 0854.56
2009/04/23 15:01:58.4      37     32    167     50    174  48.7  82.8  34300  291.96 0854.56
2009/04/23 15:01:58.5     243     63    143    252    289  75.4  32.1  34380  293.32 0854.56
2009/04/23 15:01:58.6     307    144    151    340    372  64.9  25.3  34368  293.11 0854.56
2009/04/23 15:01:58.7     216     -3    239    217    322  90.8  53.2  34326  292.38 0854.56
2009/04/23 15:01:58.8     211     20    247    213    326  84.5  54.9  34348  292.76 0854.56
2009/04/23 15:01:58.9     302    109    280    322    426  70.1  45.6  34334  292.54 0854.56
2009/04/23 15:01:59.0     324     55    257    329    417  80.2  42.0  34298  291.93 0854.56
2009/04/23 15:01:59.1     298     97    225    314    386  71.8  39.3  34256  291.20 0854.56
2009/04/23 15:01:59.2     374    242     29    446    447  57.1   3.8  34282  291.65 0854.56
2009/04/23 15:01:59.3     399    214     97    453    464  61.8  12.1  34260  291.26 0854.56
2009/04/23 15:01:59.4      57    243    301    250    391  13.4  56.3  34278  291.57 0854.56
2009/04/23 15:01:59.5     -52    236    259    242    354 347.5  52.2  34280  291.60 0854.56
2009/04/23 15:01:59.6    -162    102    182    192    264 302.2  48.5  34280  291.60 0854.56
2009/04/23 15:01:59.7    -158     36    171    163    236 282.8  51.4  34284  291.69 0854.56
2009/04/23 15:01:59.8    -185     -1    117    186    219 269.6  35.5  34268  291.42 0854.56
2009/04/23 15:01:59.9    -207    -47     59    213    222 257.0  15.6  34296  291.88 0854.56
2009/04/23 15:02:00.0    -178    -27    160    181    241 261.2  46.2  34288  291.76 0854.55
2009/04/23 15:02:00.1    -263     11    102    264    283 272.6  22.1  34334  292.53 0854.55
2009/04/23 15:02:00.2    -342     35     35    344    346 276.0   6.0  34342  292.68 0854.55
2009/04/23 15:02:00.3    -295    -32    116    297    318 263.8  22.4  34328  292.43 0854.55
2009/04/23 15:02:00.4    -294    -89     36    308    311 253.1   6.7  34312  292.16 0854.55
2009/04/23 15:02:00.5    -100   -203    156    227    275 206.3  37.6  34236  290.87 0854.55
2009/04/23 15:02:00.6      -5   -200     75    201    214 181.6  21.3  34252  291.13 0854.55
2009/04/23 15:02:00.7       7   -129    113    130    172 176.9  45.6  34254  291.18 0854.55
2009/04/23 15:02:00.8      21   -170     16    172    173 172.9   5.4  34230  290.77 0854.55
2009/04/23 15:02:00.9       6   -182     75    183    197 178.0  23.4  34224  290.67 0854.55
2009/04/23 15:02:01.0     -58   -289     90    295    309 191.5  17.1  34222  290.61 0854.55
2009/04/23 15:02:01.1     -32   -295     81    297    308 186.3  15.3  34224  290.66 0854.55
2009/04/23 15:02:01.2     -81   -273     78    285    296 196.7  15.3  34228  290.73 0854.55
2009/04/23 15:02:01.3     -58   -216     67    224    234 195.2  16.8  34232  290.79 0854.55
2009/04/23 15:02:01.4    -152   -139    -39    207    211 227.6 -10.9  34226  290.70 0854.55
2009/04/23 15:02:01.5     -90   -166     44    190    196 208.5  13.2  34230  290.77 0854.55
2009/04/23 15:02:01.6    -112   -135     43    176    182 219.6  13.7  34234  290.82 0854.55
2009/04/23 15:02:01.7    -137   -202     25    245    247 214.2   5.9  34272  291.46 0854.55
2009/04/23 15:02:01.8    -119   -155    -64    196    207 217.4 -18.1  34256  291.21 0854.55
2009/04/23 15:02:01.9    -111    -66    -46    130    139 239.3 -19.6  34252  291.13 0854.55
2009/04/23 15:02:02.0    -137    -10    -28    138    141 265.6 -11.5  34296  291.89 0854.56
2009/04/23 15:02:02.1     -88     43    -36     99    105 296.2 -24.4  34306  292.05 0854.56
2009/04/23 15:02:02.2     -56     35    -13     67     69 302.4 -11.3  34304  292.01 0854.56
2009/04/23 15:02:02.3     -40     42     19     59     63 316.8  18.4  34304  292.03 0854.56
2009/04/23 15:02:02.4     -36     75     46     84     95 334.1  31.4  34304  292.03 0854.56
2009/04/23 15:02:02.5     -45     60     20     76     79 323.0  15.3  34300  291.95 0854.56
2009/04/23 15:02:02.6      -1     20     58     21     61 355.6  80.2  34304  292.01 0854.56
2009/04/23 15:02:02.7     -30     30     28     43     51 315.0  35.6  34304  292.01 0854.56
2009/04/23 15:02:02.8     -19     73      3     76     77 344.9   2.9  34306  292.06 0854.56
2009/04/23 15:02:02.9       1     58    -17     59     62   1.8 -16.6  34304  292.03 0854.56
2009/04/23 15:02:03.0     -35    -22    -28     42     50 237.5 -40.9  34308  292.10 0854.56
2009/04/23 15:02:03.1     -33    -10    -19     35     39 251.8 -35.8  34316  292.23 0854.56
2009/04/23 15:02:03.2     -23    -58     -8     63     64 201.9  -7.2  34316  292.23 0854.56
2009/04/23 15:02:03.3     -60    -58     -9     84     85 226.0  -6.2  34316  292.22 0854.56
2009/04/23 15:02:03.4    -113     -8    -31    114    119 265.7 -15.4  34282  291.66 0854.56
2009/04/23 15:02:03.5     -93    -35     27    100    104 249.2  15.2  34294  291.86 0854.56
2009/04/23 15:02:03.6      23    -45    105     51    116 152.8  72.8  34310  292.12 0854.56
2009/04/23 15:02:03.7     -98    -85     62    130    144 229.1  27.3  34308  292.08 0854.56
2009/04/23 15:02:03.8    -134    -28     26    137    140 258.1  11.0  34314  292.18 0854.56
2009/04/23 15:02:03.9     -76      6     49     77     91 275.2  35.5  34310  292.13 0854.56
2009/04/23 15:02:04.0      36     36     18     52     56  45.1  19.4  34318  292.25 0854.58
2009/04/23 15:02:04.1     -29     39     47     49     67 323.0  50.0  34330  292.46 0854.58
2009/04/23 15:02:04.2     -47     79     69     92    115 329.3  40.1  34330  292.46 0854.58
2009/04/23 15:02:04.3     -38    124    103    130    165 343.0  42.4  34330  292.46 0854.58
2009/04/23 15:02:04.4     -86    131    136    157    207 326.6  45.6  34360  292.97 0854.58
2009/04/23 15:02:04.5    -192     89     61    212    221 295.1  16.0  34360  292.97 0854.58
2009/04/23 15:02:04.6    -338     90     17    350    351 285.1   2.8  34344  292.70 0854.58
2009/04/23 15:02:04.7    -334    132     69    360    367 291.6  11.0  34314  292.20 0854.58
2009/04/23 15:02:04.8    -172   -189    195    256    321 222.4  41.1  34314  292.18 0854.58
2009/04/23 15:02:04.9    -195    -96    124    218    250 243.6  32.4  34326  292.40 0854.58
2009/04/23 15:02:05.0    -135   -111     -6    175    176 230.5  -2.2  34322  292.34 0854.58
2009/04/23 15:02:05.1     -71    -97    -38    121    127 216.5 -17.6  34322  292.34 0854.58
2009/04/23 15:02:05.2     -66    -93     -6    115    116 215.6  -3.2  34326  292.39 0854.58
2009/04/23 15:02:05.3    -111    -12     -5    112    113 263.4  -2.6  34316  292.22 0854.58
2009/04/23 15:02:05.4    -205      6    -10    206    207 271.7  -2.8  34316  292.22 0854.58
2009/04/23 15:02:05.5    -380     16   -124    381    400 272.5 -23.2  34264  291.34 0854.58
2009/04/23 15:02:05.6    -282     97   -139    299    329 289.0 -31.3  34266  291.38 0854.58
2009/04/23 15:02:05.7    -457    -77   -172    464    494 260.4 -25.8  34218  290.56 0854.58
2009/04/23 15:02:05.8    -400     33   -222    402    459 274.8 -35.8  34218  290.56 0854.58
2009/04/23 15:02:05.9    -272    202   -248    340    420 306.6 -44.1  34250  291.11 0854.58
2009/04/23 15:02:06.0    -192    180    -73    264    273 313.1 -20.2  34248  291.05 0854.59
2009/04/23 15:02:06.1    -308     32     26    310    312 276.1   4.9  34270  291.44 0854.59
2009/04/23 15:02:06.2    -316    -31     13    318    319 264.3   2.4  34290  291.77 0854.59
2009/04/23 15:02:06.3    -100   -220    -23    242    244 204.5  -5.6  34288  291.73 0854.59
2009/04/23 15:02:06.4     -72   -251     50    262    267 196.0  11.0  34280  291.61 0854.59
2009/04/23 15:02:06.5    -104   -280     25    300    302 200.5   4.9  34290  291.78 0854.59
2009/04/23 15:02:06.6    -330    -18   -114    331    350 266.8 -23.8  34238  290.88 0854.59
2009/04/23 15:02:06.7    -307   -278    -32    415    417 227.8  -4.5  34290  291.79 0854.59
2009/04/23 15:02:06.8    -247   -373     14    448    449 213.6   1.8  34292  291.80 0854.59
2009/04/23 15:02:06.9    -474   -275   -115    548    561 239.9 -11.9  34264  291.33 0854.59
2009/04/23 15:02:07.0    -540   -210   -136    580    596 248.7 -13.3  34230  290.75 0854.59
2009/04/23 15:02:07.1    -772   -396   -187    868    889 242.8 -12.2  34208  290.39 0854.59
2009/04/23 15:02:07.2    -787   -185   -275    809    855 256.8 -18.8  34196  290.19 0854.59
2009/04/23 15:02:07.3    -695   -119   -171    706    727 260.2 -13.7  34222  290.61 0854.59
2009/04/23 15:02:07.4    -606    -42   -185    608    636 266.0 -16.9  34240  290.93 0854.59
2009/04/23 15:02:07.5    -560     70   -170    565    591 277.2 -16.8  34216  290.53 0854.59
2009/04/23 15:02:07.6    -381    -52   -104    385    399 262.1 -15.2  34260  291.28 0854.59
2009/04/23 15:02:07.7    -470   -130   -154    488    512 254.5 -17.6  34260  291.27 0854.59
2009/04/23 15:02:07.8    -388   -242   -131    458    477 238.1 -16.0  34246  291.02 0854.59
2009/04/23 15:02:07.9    -523     14    -89    524    532 271.6  -9.7  34230  290.75 0854.59
2009/04/23 15:02:08.0    -584     43   -243    586    634 274.3 -28.2  34210  290.42 0854.60
2009/04/23 15:02:08.1    -459     -5   -249    460    523 269.3 -35.2  34236  290.86 0854.60
2009/04/23 15:02:08.2    -344    -75    -73    353    361 257.7 -11.8  34244  291.00 0854.60
2009/04/23 15:02:08.3    -240   -197      4    311    312 230.5   0.8  34256  291.21 0854.60
2009/04/23 15:02:08.4    -199   -205     24    286    288 224.1   4.9  34270  291.44 0854.60
2009/04/23 15:02:08.5    -179   -113    -25    212    214 237.6  -6.9  34258  291.25 0854.60
2009/04/23 15:02:08.6     -45   -137    -79    145    165 198.3 -35.4  34250  291.11 0854.60
2009/04/23 15:02:08.7     -40    -67    -48     79     92 210.7 -38.8  34254  291.18 0854.60
2009/04/23 15:02:08.8     -58   -214      3    222    223 195.4   1.0  34250  291.11 0854.60
2009/04/23 15:02:08.9     -77   -157    -35    175    179 206.1 -11.3  34252  291.13 0854.60
2009/04/23 15:02:09.0     -70    -56    -25     90     93 231.4 -20.2  34252  291.13 0854.61
2009/04/23 15:02:09.1      44     -6     29     45     53  97.9  35.6  34252  291.13 0854.61
2009/04/23 15:02:09.2      60   -128     50    142    151 154.7  19.4  34242  290.98 0854.61
2009/04/23 15:02:09.3     108    -83    149    137    202 127.8  52.5  34240  290.92 0854.61
2009/04/23 15:02:09.4      54     49    128     73    147  47.8  68.8  34238  290.91 0854.61
2009/04/23 15:02:09.5    -125     21    -57    127    139 279.7 -30.6  34248  291.06 0854.61
2009/04/23 15:02:09.6      52   -175   -153    183    238 163.3 -48.7  34244  290.99 0854.61
2009/04/23 15:02:09.7     111   -292   -132    313    339 159.1 -28.6  34240  290.94 0854.61
2009/04/23 15:02:09.8      33   -185   -262    189    323 169.8 -65.1  34238  290.88 0854.61
2009/04/23 15:02:09.9      69    -32   -206     77    219 115.2 -83.3  34242  290.96 0854.61
2009/04/23 15:02:10.0       7    -45   -186     46    191 170.2 -90.0  34244  290.99 0854.61
2009/04/23 15:02:10.1      85   -176   -231    196    302 154.1 -60.2  34238  290.90 0854.61
2009/04/23 15:02:10.2     152   -101   -191    183    264 123.7 -55.6  34240  290.92 0854.61
2009/04/23 15:02:10.3     262    -65   -193    271    332 104.1 -43.6  34228  290.73 0854.61
2009/04/23 15:02:10.4     276    -95   -187    293    347 109.1 -40.0  34234  290.84 0854.61
2009/04/23 15:02:10.5     360   -230    -94    428    439 122.6 -12.5  34232  290.80 0854.61
2009/04/23 15:02:10.6     329   -137    -33    357    359 112.6  -5.4  34234  290.83 0854.61
2009/04/23 15:02:10.7     264   -318    -60    414    419 140.2  -8.3  34234  290.82 0854.61
2009/04/23 15:02:10.8     214   -227    105    313    331 136.7  18.6  34232  290.78 0854.61
2009/04/23 15:02:10.9     257   -331    135    420    442 142.2  17.8  34230  290.75 0854.61
2009/04/23 15:02:11.0     227   -347    188    415    455 146.8  26.0  34230  290.77 0854.62
2009/04/23 15:02:11.1     204   -367    266    421    497 150.9  35.5  34228  290.74 0854.62
2009/04/23 15:02:11.2     268   -345    281    437    519 142.2  35.6  34222  290.64 0854.62
2009/04/23 15:02:11.3     251   -319    141    407    432 141.8  19.2  34232  290.80 0854.62
2009/04/23 15:02:11.4     270   -261    131    376    399 134.0  19.2  34228  290.74 0854.62
2009/04/23 15:02:11.5     341   -357     90    494    503 136.3  10.4  34218  290.54 0854.62
2009/04/23 15:02:11.6     409   -322    116    521    534 128.2  12.6  34210  290.43 0854.62
2009/04/23 15:02:11.7     389   -281    203    480    521 125.9  24.3  34206  290.34 0854.62
2009/04/23 15:02:11.8     372   -413     22    557    558 138.0   2.3  34234  290.82 0854.62
2009/04/23 15:02:11.9     390   -377    113    543    555 134.0  11.8  34216  290.52 0854.62
2009/04/23 15:02:12.0     275   -367     22    459    460 143.1   2.8  34230  290.75 0854.62
2009/04/23 15:02:12.1     243   -420     42    486    488 149.9   5.0  34232  290.78 0854.62
2009/04/23 15:02:12.2     211   -362    -16    420    421 149.8  -2.2  34228  290.72 0854.62
2009/04/23 15:02:12.3     146   -267     19    305    306 151.3   3.6  34230  290.75 0854.62
2009/04/23 15:02:12.4     170   -159     47    234    239 133.1  11.6  34232  290.78 0854.62
2009/04/23 15:02:12.5     147   -160    112    218    245 137.5  29.3  34230  290.76 0854.62
2009/04/23 15:02:12.6      97   -127    140    160    212 142.6  45.8  34230  290.75 0854.62
2009/04/23 15:02:12.7     193    -77     39    208    212 111.8  10.8  34230  290.77 0854.62
2009/04/23 15:02:12.8     212   -265     93    340    353 141.3  15.3  34228  290.74 0854.62
2009/04/23 15:02:12.9     268   -268     80    380    389 135.0  12.0  34198  290.21 0854.62
2009/04/23 15:02:13.0     203   -286     81    351    361 144.6  13.1  34212  290.45 0854.62
2009/04/23 15:02:13.1     235   -332     31    407    409 144.7   4.5  34208  290.38 0854.62
2009/04/23 15:02:13.2     294   -344     73    453    459 139.5   9.2  34148  289.36 0854.62
2009/04/23 15:02:13.3     255   -255    159    362    395 135.0  25.2  34158  289.54 0854.62
2009/04/23 15:02:13.4     276   -257    156    378    408 132.9  23.7  34152  289.45 0854.62
2009/04/23 15:02:13.5     299   -295    138    421    444 134.6  18.2  34184  289.97 0854.62
2009/04/23 15:02:13.6     198   -411    179    457    490 154.3  22.7  34192  290.13 0854.62
2009/04/23 15:02:13.7     222   -362     88    425    435 148.5  11.8  34182  289.94 0854.62
2009/04/23 15:02:13.8     221   -347     64    412    418 147.5   8.9  34192  290.12 0854.62
2009/04/23 15:02:13.9     222   -332    131    400    421 146.2  18.2  34198  290.22 0854.62
2009/04/23 15:02:14.0     182   -413    122    452    469 156.2  15.2  34196  290.19 0854.62
2009/04/23 15:02:14.1     164   -401    154    434    461 157.7  19.6  34184  289.97 0854.62
2009/04/23 15:02:14.2     137   -416    163    439    468 161.7  21.4  34140  289.24 0854.62
2009/04/23 15:02:14.3     155   -351    202    384    433 156.1  30.1  34128  289.02 0854.62
2009/04/23 15:02:14.4     206   -293    169    359    396 144.9  27.1  34140  289.23 0854.62
2009/04/23 15:02:14.5     202   -389     46    439    442 152.5   6.1  34152  289.43 0854.62
2009/04/23 15:02:14.6     166   -294     10    338    339 150.6   1.7  34152  289.42 0854.62
2009/04/23 15:02:14.7     163   -277    -17    322    323 149.5  -3.2  34168  289.71 0854.62
2009/04/23 15:02:14.8     110   -246     14    270    271 155.9   3.1  34180  289.90 0854.62
2009/04/23 15:02:14.9      69   -228     66    239    249 163.1  15.6  34164  289.64 0854.62
2009/04/23 15:02:15.0      53   -172     59    181    191 162.8  18.1  34174  289.80 0854.63
2009/04/23 15:02:15.1      17   -210     55    211    219 175.3  14.7  34176  289.84 0854.63
2009/04/23 15:02:15.2     -14   -184     54    185    193 184.5  16.3  34148  289.36 0854.63
2009/04/23 15:02:15.3       8   -127    117    128    173 176.0  47.5  34172  289.79 0854.63
2009/04/23 15:02:15.4      24   -142    109    145    181 170.2  40.7  34174  289.80 0854.63
2009/04/23 15:02:15.5      38   -157     90    162    185 166.2  31.4  34126  288.99 0854.63
2009/04/23 15:02:15.6      53   -168    115    177    211 162.4  35.7  34148  289.36 0854.63
2009/04/23 15:02:15.7      29   -147    123    150    193 168.5  43.7  34158  289.53 0854.63
2009/04/23 15:02:15.8      17   -139    134    141    194 172.9  48.7  34160  289.57 0854.63
2009/04/23 15:02:15.9      20   -138    108    140    176 171.5  41.7  34154  289.46 0854.63
2009/04/23 15:02:16.0      17   -119    113    121    165 171.5  48.2  34158  289.53 0854.63
2009/04/23 15:02:16.1      -8    -91     91     92    129 185.3  50.0  34162  289.60 0854.63
2009/04/23 15:02:16.2      12    -45     82     47     94 164.0  67.2  34176  289.84 0854.63
2009/04/23 15:02:16.3      12    -35     45     38     58 161.3  55.4  34172  289.77 0854.63
2009/04/23 15:02:16.4      -8    -63     65     64     91 188.0  50.1  34160  289.58 0854.63
2009/04/23 15:02:16.5     -17    -58     83     61    103 196.9  60.0  34162  289.62 0854.63
2009/04/23 15:02:16.6     -25    -56     90     62    109 204.5  62.1  34182  289.94 0854.63
2009/04/23 15:02:16.7     -48    -51     71     71    100 223.2  50.1  34174  289.82 0854.63
2009/04/23 15:02:16.8     -85      5     59     86    104 273.9  37.6  34182  289.94 0854.63
2009/04/23 15:02:16.9     -68     23     58     73     93 289.1  43.3  34194  290.14 0854.63
2009/04/23 15:02:17.0     -62     11     47     64     79 280.6  40.1  34196  290.18 0854.65
2009/04/23 15:02:17.1    -100    -13     59    101    116 262.1  33.5  34182  289.94 0854.65
2009/04/23 15:02:17.2    -126     17     66    128    144 277.9  29.3  34178  289.87 0854.65
2009/04/23 15:02:17.3     -91     61     67    110    128 303.7  34.4  34230  290.77 0854.65
2009/04/23 15:02:17.4     -95     60     13    113    114 302.5   6.9  34234  290.82 0854.65
2009/04/23 15:02:17.5    -112     30     -6    116    117 285.1  -3.1  34232  290.81 0854.65
2009/04/23 15:02:17.6    -134     56    -48    146    153 292.6 -23.8  34180  289.91 0854.65
2009/04/23 15:02:17.7     -87    149    -63    173    184 329.5 -25.1  34180  289.92 0854.65
2009/04/23 15:02:17.8    -238     88   -132    255    287 290.4 -33.7  34150  289.39 0854.65
2009/04/23 15:02:17.9    -287    154   -101    326    342 298.2 -17.2  34148  289.37 0854.65
2009/04/23 15:02:18.0    -292    142   -115    325    344 296.0 -24.6  34134  289.13 0854.65
2009/04/23 15:02:18.1    -233    158   -162    282    325 304.2 -37.0  34134  289.12 0854.65
2009/04/23 15:02:18.2    -223    120   -199    254    322 298.2 -46.5  34132  289.10 0854.65
2009/04/23 15:02:18.3    -246    106   -177    268    321 293.3 -40.9  34138  289.19 0854.65
2009/04/23 15:02:18.4    -228    121   -176    259    313 298.0 -41.8  34136  289.15 0854.65
2009/04/23 15:02:18.5    -174    164   -188    240    304 313.3 -46.6  34132  289.10 0854.65
2009/04/23 15:02:18.6    -105    139   -214    175    276 322.8 -60.8  34130  289.05 0854.65
2009/04/23 15:02:18.7    -160     97   -226    188    293 301.1 -60.7  34134  289.12 0854.65
2009/04/23 15:02:18.8    -148     98   -219    178    282 303.5 -61.3  34154  289.46 0854.65
2009/04/23 15:02:18.9    -121     62   -208    137    249 297.1 -68.0  34136  289.16 0854.65
2009/04/23 15:02:19.0     -58     65   -244     88    259 318.1 -83.9  34152  289.43 0854.65
2009/04/23 15:02:19.1    -255     83   -355    269    445 288.2 -63.5  34160  289.57 0854.65
2009/04/23 15:02:19.2    -208    132   -306    247    393 302.5 -61.5  34182  289.96 0854.65
2009/04/23 15:02:19.3    -275     74   -318    285    427 285.1 -57.9  34146  289.35 0854.65
2009/04/23 15:02:19.4    -239     41   -273    243    365 279.9 -58.3  34154  289.47 0854.65
2009/04/23 15:02:19.5    -118     40   -223    125    255 289.1 -72.9  34184  289.99 0854.65
2009/04/23 15:02:19.7     -19    -31   -138     37    142 212.5 -89.3  34234  290.82 0854.65
2009/04/23 15:02:19.8    -100    -41   -213    109    239 247.4 -75.2  34228  290.74 0854.65
2009/04/23 15:02:19.9    -225    -51   -233    231    328 257.2 -54.5  34192  290.12 0854.65
2009/04/23 15:02:20.0    -183      1   -171    184    251 270.6 -52.3  34204  290.33 0854.65
2009/04/23 15:02:20.1    -140    -22   -197    142    242 260.8 -65.2  34184  289.97 0854.65
2009/04/23 15:02:20.2    -128    -42   -197    135    238 251.6 -66.8  34180  289.92 0854.65
2009/04/23 15:02:20.3    -155    -89   -168    179    245 240.0 -52.3  34230  290.77 0854.65
2009/04/23 15:02:20.4    -152      2   -146    153    211 270.9 -53.1  34198  290.23 0854.65
2009/04/23 15:02:20.5    -204    -72   -179    217    281 250.5 -48.2  34162  289.61 0854.65
2009/04/23 15:02:20.6    -203    -80   -178    219    282 248.5 -47.7  34190  290.07 0854.65
2009/04/23 15:02:20.7    -229    -39   -152    233    278 260.3 -40.7  34222  290.61 0854.65
2009/04/23 15:02:20.8    -221    -32   -133    224    260 261.6 -37.9  34200  290.26 0854.65
2009/04/23 15:02:20.9    -180    -72   -139    195    239 248.0 -43.5  34188  290.04 0854.65
2009/04/23 15:02:21.0    -155    -43   -145    161    216 254.5 -51.3  34184  289.99 0854.65
2009/04/23 15:02:21.1    -136    -38   -144    142    202 254.1 -54.5  34196  290.18 0854.65
2009/04/23 15:02:21.2     -80    -11   -109     81    135 261.6 -64.4  34212  290.45 0854.65
2009/04/23 15:02:21.3     -67     -4   -115     68    133 266.5 -71.1  34188  290.04 0854.65
2009/04/23 15:02:21.4      47    -26    -92     54    106 118.9 -71.2  34192  290.11 0854.65
2009/04/23 15:02:21.5      29     -3   -110     30    114  96.1 -88.8  34204  290.31 0854.65
2009/04/23 15:02:21.6      79   -116   -136    141    195 145.7 -53.4  34180  289.91 0854.65
2009/04/23 15:02:21.7      57    -97   -193    113    223 149.7 -71.2  34190  290.08 0854.65
2009/04/23 15:02:21.8      55   -131   -150    143    207 157.3 -56.0  34186  290.01 0854.65
2009/04/23 15:02:21.9     -52   -205   -157    212    263 194.3 -44.3  34190  290.09 0854.65
2009/04/23 15:02:22.0      32   -163   -169    167    237 168.9 -54.6  34182  289.96 0854.65
2009/04/23 15:02:22.1      56   -101   -157    116    195 151.0 -64.7  34198  290.21 0854.65
2009/04/23 15:02:22.2      25    -20   -107     33    111 129.5 -86.2  34190  290.09 0854.65
2009/04/23 15:02:22.3     -91    -86   -219    126    252 226.8 -71.9  34202  290.30 0854.65
2009/04/23 15:02:22.4     -51    -71   -200     88    218 215.6 -79.3  34198  290.21 0854.65
2009/04/23 15:02:22.5     -56    -89   -197    106    223 212.1 -73.7  34192  290.11 0854.65
2009/04/23 15:02:22.6       0    -98   -184     99    208 180.4 -74.0  34202  290.30 0854.65
2009/04/23 15:02:22.7      15   -133   -193    134    234 173.3 -66.5  34196  290.19 0854.65
2009/04/23 15:02:22.8      73   -140   -167    159    230 152.4 -56.0  34214  290.48 0854.65
2009/04/23 15:02:22.9     -63    -92   -141    112    180 214.7 -61.9  34246  291.04 0854.65
2009/04/23 15:02:23.0      32   -150   -133    154    203 168.0 -50.0  34242  290.98 0854.65
2009/04/23 15:02:23.1       7    -88   -108     89    139 175.1 -60.8  34248  291.06 0854.65
2009/04/23 15:02:23.2      40    -64   -110     76    133 147.5 -67.0  34242  290.96 0854.65
2009/04/23 15:02:23.3     108    -45    -34    118    122 112.6 -21.2  34226  290.70 0854.65
2009/04/23 15:02:23.4     114    -80    -57    140    151 125.1 -27.5  34228  290.72 0854.65
2009/04/23 15:02:23.5      71    -90   -109    115    158 141.7 -53.1  34242  290.96 0854.65
2009/04/23 15:02:23.6     125     25    -45    128    135  78.5 -23.3  34232  290.79 0854.65
2009/04/23 15:02:23.7     186     16      2    187    188  85.0   0.8  34224  290.67 0854.65
2009/04/23 15:02:23.8     149    -11     50    150    159  94.4  18.6  34232  290.79 0854.65
2009/04/23 15:02:23.9     135     18     69    137    153  82.1  28.7  34232  290.81 0854.65
2009/04/23 15:02:24.0     197     37     93    201    221  79.2  26.6  34238  290.89 0854.65
2009/04/23 15:02:24.1     213    135     88    253    268  57.5  19.2  34188  290.05 0854.65
2009/04/23 15:02:24.2     218    111    103    245    265  62.9  24.2  34178  289.88 0854.65
2009/04/23 15:02:24.3     234     78    -54    247    253  71.4 -12.4  34184  289.98 0854.65
2009/04/23 15:02:24.4     184    198    -96    271    288  42.8 -19.7  34184  289.97 0854.65
2009/04/23 15:02:24.5     251    224     92    337    350  48.2  15.4  34184  289.98 0854.65
2009/04/23 15:02:24.6     311    246     62    397    402  51.6   9.0  34172  289.76 0854.65
2009/04/23 15:02:24.7     340    228    104    410    424  56.1  14.3  34176  289.85 0854.65
2009/04/23 15:02:24.8     268    346     64    438    443  37.8   8.3  34186  290.02 0854.65
2009/04/23 15:02:24.9     315    315     46    446    449  45.0   6.0  34180  289.90 0854.65
2009/04/23 15:02:25.0     336    127    243    360    434  69.3  37.4  34194  290.16 0854.65
2009/04/23 15:02:25.1     355    198    243    407    474  60.9  33.6  34182  289.94 0854.65
2009/04/23 15:02:25.2     229    374     50    439    442  31.5   6.6  34194  290.16 0854.65
2009/04/23 15:02:25.3     163    233    114    285    306  35.0  23.0  34190  290.09 0854.65
2009/04/23 15:02:25.4     142    363     -1    390    391  21.4  -0.3  34186  290.01 0854.65
2009/04/23 15:02:25.5     -25    370    -74    371    379 356.1 -11.3  34188  290.03 0854.65
2009/04/23 15:02:25.6     104    409     50    423    426  14.3   6.8  34190  290.09 0854.65
2009/04/23 15:02:25.7     105    359    132    375    398  16.3  19.5  34206  290.35 0854.65
2009/04/23 15:02:25.8     251    316    148    404    430  38.5  21.0  34192  290.11 0854.65
2009/04/23 15:02:25.9     404    254    147    478    501  57.9  17.1  34178  289.89 0854.65
2009/04/23 15:02:26.0     345    313    143    466    488  47.8  17.1  34178  289.89 0854.65
2009/04/23 15:02:26.1     389    329     33    510    512  49.8   3.8  34150  289.40 0854.65
2009/04/23 15:02:26.2     423    313     83    527    534  53.5   9.0  34196  290.18 0854.65
2009/04/23 15:02:26.3     302    342    -32    457    459  41.4  -4.1  34200  290.26 0854.65
2009/04/23 15:02:26.4     286    297     -8    413    414  43.9  -1.2  34200  290.24 0854.65
2009/04/23 15:02:26.5     135    373    -45    397    400  19.9  -6.6  34204  290.33 0854.65
2009/04/23 15:02:26.6      96    373    -92    386    397  14.5 -13.4  34210  290.43 0854.65
2009/04/23 15:02:26.7       6    411    -91    412    423   0.9 -12.5  34236  290.87 0854.65
2009/04/23 15:02:26.8     -77    339   -105    348    364 347.1 -16.9  34246  291.03 0854.65
2009/04/23 15:02:26.9       5    307   -119    308    330   1.0 -26.4  34214  290.48 0854.65
2009/04/23 15:02:27.0      72    299   -126    308    332  13.6 -27.9  34182  289.95 0854.66
2009/04/23 15:02:27.1      84    284   -157    297    335  16.5 -34.6  34162  289.61 0854.66
2009/04/23 15:02:27.2      71    306   -151    315    349  13.1 -31.7  34162  289.62 0854.66
2009/04/23 15:02:27.3      48    292   -170    296    341   9.3 -37.0  34174  289.80 0854.66
2009/04/23 15:02:27.4      56    240   -144    247    285  13.1 -37.5  34172  289.76 0854.66
2009/04/23 15:02:27.5      93    207   -162    228    279  24.3 -43.5  34166  289.66 0854.66
2009/04/23 15:02:27.6      70    159   -151    174    230  23.8 -49.8  34170  289.75 0854.66
2009/04/23 15:02:27.7      88     84   -146    122    190  46.4 -60.7  34166  289.69 0854.66
2009/04/23 15:02:27.8      69    152    -75    168    183  24.5 -30.1  34170  289.75 0854.66
2009/04/23 15:02:27.9      83    196      4    213    214  22.9   1.2  34184  289.99 0854.66
2009/04/23 15:02:28.0      75    173     20    189    191  23.6   6.1  34186  290.02 0854.66
2009/04/23 15:02:28.1      62    158     56    170    180  21.6  18.4  34180  289.91 0854.66
2009/04/23 15:02:28.2      80    185     38    202    206  23.4  10.8  34174  289.80 0854.66
2009/04/23 15:02:28.3      81    197    107    214    239  22.3  28.5  34184  289.99 0854.66
2009/04/23 15:02:28.4      52    205     76    212    225  14.3  20.4  34192  290.11 0854.66
2009/04/23 15:02:28.5      27    181     70    184    196   8.7  22.0  34206  290.35 0854.66
2009/04/23 15:02:28.6     -13    181     62    182    193 355.8  18.9  34206  290.35 0854.66
2009/04/23 15:02:28.7     -42    210     -8    215    216 348.5  -2.2  34226  290.70 0854.66
2009/04/23 15:02:28.8     -45    183     24    189    191 346.2   7.5  34198  290.21 0854.66
2009/04/23 15:02:28.9     -64    193     18    204    205 341.5   5.2  34200  290.25 0854.66
2009/04/23 15:02:29.0     -58    195     -7    204    205 343.3  -2.2  34200  290.26 0854.67
2009/04/23 15:02:29.1     -63    197     -8    207    208 342.2  -2.2  34208  290.38 0854.67
2009/04/23 15:02:29.2     -67    243    -32    253    256 344.6  -7.3  34236  290.85 0854.67
2009/04/23 15:02:29.3    -121    197    -38    232    236 328.4  -9.3  34278  291.56 0854.67
2009/04/23 15:02:29.4    -147    152     -4    212    213 315.9  -1.3  34320  292.30 0854.67
2009/04/23 15:02:29.5    -104    156    -34    188    192 326.2 -10.5  34282  291.66 0854.67
2009/04/23 15:02:29.6     -82     63     -4    104    105 307.3  -2.2  34304  292.01 0854.67
2009/04/23 15:02:29.7     -41     82      6     92     93 333.3   3.8  34288  291.74 0854.67
2009/04/23 15:02:29.8     -31     94     20     99    102 341.7  11.6  34268  291.40 0854.67
2009/04/23 15:02:29.9     -45    101     31    111    116 335.9  15.8  34264  291.33 0854.67
2009/04/23 15:02:30.0       3    104    -23    105    108   1.8 -12.4  34248  291.06 0854.67
2009/04/23 15:02:30.1      40    148     -8    154    155  15.2  -3.2  34256  291.20 0854.67
2009/04/23 15:02:30.2      39    156     20    161    163  14.3   7.2  34196  290.18 0854.67
2009/04/23 15:02:30.3     -38    174     61    179    190 347.5  18.9  34190  290.08 0854.67
2009/04/23 15:02:30.4     -20    212     51    214    221 354.4  13.5  34198  290.21 0854.67
2009/04/23 15:02:30.5     -40    232     23    236    238 350.2   5.7  34252  291.12 0854.67
2009/04/23 15:02:30.6     -95    191     28    214    216 333.5   7.5  34282  291.64 0854.67
2009/04/23 15:02:30.7     -82    244     13    258    259 341.3   2.9  34282  291.65 0854.67
2009/04/23 15:02:30.8       7    165    -36    166    171   2.6 -12.4  34246  291.03 0854.67
2009/04/23 15:02:30.9     -17    174     32    175    178 354.2  10.6  34276  291.54 0854.67
2009/04/23 15:02:31.0      16    174    -32    175    178   5.3 -10.5  34296  291.88 0854.68
2009/04/23 15:02:31.1     170    239    -71    294    303  35.4 -13.7  34246  291.02 0854.68
2009/04/23 15:02:31.2     -92     52    -91    106    139 299.8 -49.2  34246  291.04 0854.68
2009/04/23 15:02:31.3    -124     41   -153    131    201 288.6 -59.2  34250  291.09 0854.68
2009/04/23 15:02:31.4     -47    165    -55    172    180 344.0 -23.0  34252  291.15 0854.68
2009/04/23 15:02:31.5    -185    147    118    237    264 308.4  28.2  34258  291.24 0854.68
2009/04/23 15:02:31.6    -244    -10     86    245    260 267.6  19.4  34266  291.38 0854.68
2009/04/23 15:02:31.7    -259    -59     78    266    278 257.0  16.4  34266  291.36 0854.68
2009/04/23 15:02:31.8    -265      5     51    266    271 271.3  11.0  34242  290.97 0854.68
2009/04/23 15:02:31.9    -236    107    118    260    285 294.4  26.2  34240  290.92 0854.68
2009/04/23 15:02:32.0    -171    -14    122    172    210 265.2  39.1  34240  290.94 0854.66
2009/04/23 15:02:32.1    -231    -42    143    235    275 259.6  34.2  34256  291.21 0854.66
2009/04/23 15:02:32.2    -190    -69     43    203    208 250.0  12.2  34238  290.89 0854.66
2009/04/23 15:02:32.3    -227     41     97    231    250 280.4  24.2  34234  290.82 0854.66
2009/04/23 15:02:32.4    -122     70    -33    141    145 299.8 -13.4  34252  291.15 0854.66
2009/04/23 15:02:32.5    -129     39    -41    135    141 286.8 -21.7  34268  291.40 0854.66
2009/04/23 15:02:32.6      34     31    -61     47     77  47.8 -61.9  34272  291.47 0854.66
2009/04/23 15:02:32.7      56     88    -57    105    119  32.5 -35.7  34262  291.32 0854.66
2009/04/23 15:02:32.8     108     12     -2    109    110  83.4  -1.3  34252  291.13 0854.66
2009/04/23 15:02:32.9     154    -11    -25    155    158  94.4  -9.4  34244  291.01 0854.66
2009/04/23 15:02:33.0     207    -50     25    214    216 103.7   6.9  34242  290.96 0854.66
2009/04/23 15:02:33.1     213    124    -37    247    250  59.8  -8.6  34224  290.65 0854.66
2009/04/23 15:02:33.2     219    156    -19    269    270  54.5  -4.1  34180  289.92 0854.66
2009/04/23 15:02:33.3     308    200    -74    368    376  56.9 -11.5  34158  289.55 0854.66
2009/04/23 15:02:33.4     296    222    -74    371    379  53.2 -11.3  34168  289.72 0854.66
2009/04/23 15:02:33.5     372    163      3    407    408  66.3   0.5  34142  289.27 0854.66
2009/04/23 15:02:33.6     411    182     64    450    455  66.0   8.1  34166  289.68 0854.66
2009/04/23 15:02:33.7     380    292    123    480    496  52.4  14.4  34222  290.62 0854.66
2009/04/23 15:02:33.8     466    266    101    537    547  60.2  10.7  34172  289.79 0854.66
2009/04/23 15:02:33.9     497    165    143    524    544  71.6  15.3  34182  289.94 0854.66
2009/04/23 15:02:34.0     588    163     24    611    612  74.5   2.3  34220  290.58 0854.64
2009/04/23 15:02:34.1     515    186     14    548    549  70.1   1.5  34264  291.33 0854.64
2009/04/23 15:02:34.2     479    104   -156    491    516  77.7 -17.7  34232  290.78 0854.64
2009/04/23 15:02:34.3     419    -38   -194    421    463  95.3 -30.9  34248  291.07 0854.64
2009/04/23 15:02:34.4     320   -158   -297    357    464 116.3 -48.2  34220  290.58 0854.64
2009/04/23 15:02:34.5     353   -284   -262    454    524 128.9 -37.1  34192  290.10 0854.64
2009/04/23 15:02:34.6     348   -130   -364    372    520 110.5 -53.8  34208  290.37 0854.64
2009/04/23 15:02:34.7     583   -141   -276    600    660 103.7 -30.9  34220  290.60 0854.64
2009/04/23 15:02:34.8     682     83   -243    688    730  83.0 -19.5  34190  290.08 0854.64
2009/04/23 15:02:34.9     847      0   -194    848    870  90.0 -12.9  34202  290.29 0854.64
2009/04/23 15:02:35.0     732     -7    -30    733    734  90.6  -2.4  34196  290.18 0854.64
2009/04/23 15:02:35.1     772    -61     63    775    778  94.6   4.7  34224  290.66 0854.64
2009/04/23 15:02:35.2     609   -204    -38    643    645 108.6  -3.4  34234  290.82 0854.64
2009/04/23 15:02:35.3     594      5   -193    595    625  89.5 -23.1  34212  290.47 0854.64
2009/04/23 15:02:35.4     557    185   -173    587    611  71.6 -21.2  34204  290.32 0854.64
2009/04/23 15:02:35.5     619   -114    -24    630    631 100.5  -2.2  34222  290.62 0854.64
2009/04/23 15:02:35.6     484    -75     45    490    493  98.8   5.3  34208  290.37 0854.64
2009/04/23 15:02:35.7     503   -129    -17    520    521 104.4  -1.9  34196  290.19 0854.64
2009/04/23 15:02:35.8     351   -105     69    367    374 106.6  10.7  34202  290.28 0854.64
2009/04/23 15:02:35.9     387    -46    -20    390    391  96.9  -3.0  34204  290.33 0854.64
2009/04/23 15:02:36.0     442    -88     90    451    460 101.4  11.3  34210  290.41 0854.62
2009/04/23 15:02:36.1     298    -90    220    312    381 106.8  38.8  34210  290.43 0854.62
2009/04/23 15:02:36.2     269    -97    188    287    343 109.9  36.2  34204  290.32 0854.62
2009/04/23 15:02:36.3     313   -106    169    331    371 108.8  29.2  34200  290.25 0854.62
2009/04/23 15:02:36.4     259   -104     96    280    297 111.8  18.9  34198  290.20 0854.62
2009/04/23 15:02:36.5     368   -190     28    415    416 117.3   3.9  34198  290.22 0854.62
2009/04/23 15:02:36.6     271   -178     18    325    326 123.3   3.2  34194  290.15 0854.62
2009/04/23 15:02:36.7     138   -121    158    184    242 131.3  45.4  34204  290.33 0854.62
2009/04/23 15:02:36.8     215   -148    174    262    314 124.6  36.7  34202  290.27 0854.62
2009/04/23 15:02:36.9     183   -121    214    220    306 123.5  49.2  34202  290.29 0854.62
2009/04/23 15:02:37.0     132   -194    203    235    310 145.8  45.4  34202  290.29 0854.62
2009/04/23 15:02:37.1     110   -272    233    294    375 157.9  42.4  34214  290.49 0854.62
2009/04/23 15:02:37.2     202   -213    145    294    327 136.6  28.1  34200  290.24 0854.62
2009/04/23 15:02:37.3     129   -203    170    241    294 147.5  38.8  34204  290.31 0854.62
2009/04/23 15:02:37.4     107   -334    218    351    413 162.2  34.9  34218  290.54 0854.62
2009/04/23 15:02:37.5     107   -402    191    417    458 165.0  26.4  34234  290.82 0854.62
2009/04/23 15:02:37.6     130   -377    232    399    461 161.0  32.8  34238  290.90 0854.62
2009/04/23 15:02:37.7     146   -319    246    351    428 155.4  38.5  34242  290.95 0854.62
2009/04/23 15:02:37.8      77   -374    228    383    445 168.3  33.5  34242  290.97 0854.62
2009/04/23 15:02:37.9     125   -339    267    362    449 159.7  39.9  34248  291.07 0854.62
2009/04/23 15:02:38.0      90   -353    243    365    438 165.6  36.7  34250  291.09 0854.65
2009/04/23 15:02:38.1      73   -427    236    434    494 170.2  30.9  34266  291.36 0854.65
2009/04/23 15:02:38.2     126   -430    233    449    505 163.6  29.6  34242  290.98 0854.65
2009/04/23 15:02:38.3      -6   -391     52    392    396 180.9   7.6  34234  290.84 0854.65
2009/04/23 15:02:38.4     -15   -388    145    389    415 182.2  21.4  34248  291.07 0854.65
2009/04/23 15:02:38.5      10   -416    230    417    476 178.6  31.3  34296  291.87 0854.65
2009/04/23 15:02:38.6      15   -268    228    269    352 176.6  44.5  34298  291.92 0854.65
2009/04/23 15:02:38.7     -96   -344    233    358    427 195.6  36.0  34302  291.99 0854.65
2009/04/23 15:02:38.8    -177   -356    203    398    446 206.5  29.2  34272  291.48 0854.65
2009/04/23 15:02:38.9     -27   -388    252    389    463 184.0  35.7  34288  291.75 0854.65
2009/04/23 15:02:39.0      36   -350    214    352    411 174.1  34.2  34252  291.15 0854.65
2009/04/23 15:02:39.1     -34   -289    267    292    395 186.9  47.1  34270  291.45 0854.65
2009/04/23 15:02:39.2     -13   -330    267    331    425 182.3  43.1  34260  291.27 0854.65
2009/04/23 15:02:39.3      13   -301    357    302    467 177.5  55.7  34278  291.58 0854.65
2009/04/23 15:02:39.4     -17   -256    238    257    350 183.8  47.7  34290  291.78 0854.65
2009/04/23 15:02:39.5      20   -157    223    159    273 172.4  60.8  34298  291.92 0854.65
2009/04/23 15:02:39.6     155   -106    146    189    238 124.4  41.6  34266  291.37 0854.65
2009/04/23 15:02:39.7      90    -75    156    118    195 130.0  59.0  34256  291.21 0854.65
2009/04/23 15:02:39.8     -56   -204    177    212    276 195.6  44.1  34252  291.12 0854.65
2009/04/23 15:02:39.9     -99   -331    136    346    371 196.6  22.9  34238  290.88 0854.65
2009/04/23 15:02:40.0     -35   -443    116    445    460 184.6  14.6  34242  290.97 0854.61
2009/04/23 15:02:40.1    -161   -454    166    482    510 199.6  19.1  34234  290.83 0854.61
2009/04/23 15:02:40.2      -4   -336    210    337    397 180.7  34.9  34242  290.96 0854.61
2009/04/23 15:02:40.3      63   -313    163    320    359 168.5  29.2  34250  291.11 0854.61
2009/04/23 15:02:40.4      93   -145    182    173    251 147.4  51.4  34256  291.20 0854.61
2009/04/23 15:02:40.5      55   -194    101    202    225 164.0  28.2  34252  291.15 0854.61
2009/04/23 15:02:40.6      -8   -141     90    142    168 183.6  35.5  34250  291.09 0854.61
2009/04/23 15:02:40.7      72   -168     65    183    194 156.8  20.0  34250  291.11 0854.61
2009/04/23 15:02:40.8     123     32    136    128    186  75.4  52.1  34262  291.30 0854.61
2009/04/23 15:02:40.9     196     28     90    199    218  81.9  25.9  34276  291.54 0854.61
2009/04/23 15:02:41.0      67    -67    116     95    149 135.0  56.4  34270  291.43 0854.61
2009/04/23 15:02:41.1      11    -25    100     28    103 156.4  83.9  34290  291.79 0854.61
2009/04/23 15:02:41.2     -37      5     65     38     75 277.9  66.8  34282  291.64 0854.61
2009/04/23 15:02:41.3      20     17     75     27     79  48.7  79.7  34270  291.45 0854.61
2009/04/23 15:02:41.4     154   -105    121    187    222 124.4  35.6  34256  291.21 0854.61
2009/04/23 15:02:41.5     196   -101     81    221    235 117.3  21.0  34244  290.99 0854.61
2009/04/23 15:02:41.6     135   -112    150    176    231 129.8  44.8  34278  291.59 0854.61
2009/04/23 15:02:41.7     -23   -329    114    330    350 184.0  19.1  34260  291.28 0854.61
2009/04/23 15:02:41.8     103   -456     66    468    473 167.2   8.1  34256  291.20 0854.61
2009/04/23 15:02:41.9     168   -554     80    580    586 163.1   7.9  34250  291.10 0854.61
2009/04/23 15:02:42.0     194   -369    148    417    442 152.3  20.3  34268  291.40 0854.56
2009/04/23 15:02:42.1     253   -284      6    381    382 138.3   1.0  34248  291.05 0854.56
2009/04/23 15:02:42.2     356   -244     18    432    433 124.5   2.4  34254  291.18 0854.56
2009/04/23 15:02:42.3     158   -314    -97    352    365 153.3 -20.1  34244  291.00 0854.56
2009/04/23 15:02:42.4     142   -244   -109    283    303 149.7 -26.7  34250  291.09 0854.56
2009/04/23 15:02:42.5     182   -229    149    293    328 141.5  29.1  34260  291.26 0854.56
2009/04/23 15:02:42.6     156   -204     67    257    266 142.6  14.7  34256  291.19 0854.56
2009/04/23 15:02:42.7     -34   -335     60    337    343 185.8  10.2  34248  291.08 0854.56
2009/04/23 15:02:42.8     116   -342     36    362    364 161.2   5.7  34250  291.11 0854.56
2009/04/23 15:02:42.9     -26   -438     35    439    441 183.5   4.6  34256  291.19 0854.56
2009/04/23 15:02:43.0     -65   -415     82    421    430 188.9  11.1  34250  291.11 0854.56
2009/04/23 15:02:43.1     -66   -454    153    459    485 188.3  18.5  34242  290.96 0854.56
2009/04/23 15:02:43.2    -139   -328    164    357    392 202.9  26.3  34220  290.59 0854.56
2009/04/23 15:02:43.3      64   -375     20    381    382 170.2   3.1  34230  290.76 0854.56
2009/04/23 15:02:43.4      42   -385    -63    388    394 173.7  -9.3  34234  290.84 0854.56
2009/04/23 15:02:43.5      64   -202     24    212    214 162.4   6.7  34236  290.87 0854.56
2009/04/23 15:02:43.6    -118   -218    -87    249    264 208.5 -19.4  34254  291.16 0854.56
2009/04/23 15:02:43.7    -156   -304   -100    342    356 207.2 -21.1  34234  290.84 0854.56
2009/04/23 15:02:43.8    -121   -307   -109    331    349 201.5 -18.3  34250  291.11 0854.56
2009/04/23 15:02:43.9     -13   -343      9    344    345 182.2   1.6  34248  291.08 0854.56
2009/04/23 15:02:44.0      35   -412   -114    414    430 175.0 -15.4  34258  291.24 0854.59
2009/04/23 15:02:44.1      14   -377   -120    378    397 177.8 -17.7  34214  290.49 0854.59
2009/04/23 15:02:44.2      33   -313   -112    315    335 173.9 -19.7  34206  290.34 0854.59
2009/04/23 15:02:44.3      90   -322    -67    335    342 164.3 -11.3  34208  290.38 0854.59
2009/04/23 15:02:44.4      89   -350    -79    362    371 165.7 -12.4  34186  290.01 0854.59
2009/04/23 15:02:44.5     139   -414    -87    437    446 161.4 -11.3  34172  289.77 0854.59
2009/04/23 15:02:44.6     191   -377    -13    423    424 153.0  -1.8  34152  289.43 0854.59
2009/04/23 15:02:44.7     169   -275     -2    324    325 148.4  -0.4  34196  290.19 0854.59
2009/04/23 15:02:44.8     101   -253    -10    273    274 158.2  -2.2  34228  290.73 0854.59
2009/04/23 15:02:44.9    -127   -366     75    388    396 199.2  11.0  34242  290.96 0854.59
2009/04/23 15:02:45.0    -157   -330    -58    366    371 205.5  -9.1  34248  291.06 0854.59
2009/04/23 15:02:45.1    -152   -354    -62    386    392 203.3  -9.1  34234  290.84 0854.59
2009/04/23 15:02:45.2    -177   -359   -131    401    421 206.2 -23.3  34194  290.14 0854.59
2009/04/23 15:02:45.3    -190   -355   -195    403    447 208.2 -32.1  34184  289.99 0854.59
2009/04/23 15:02:45.4    -190   -354   -147    402    428 208.3 -25.3  34254  291.16 0854.59
2009/04/23 15:02:45.5     -18   -310   -160    311    349 183.4 -33.7  34184  289.98 0854.59
2009/04/23 15:02:45.6     -60   -261    -86    268    281 193.1 -23.0  34244  290.99 0854.59
2009/04/23 15:02:45.7     -97   -265   -133    283    312 200.1 -31.5  34184  289.98 0854.59
2009/04/23 15:02:45.8     -19   -248    -87    249    263 184.5 -24.3  34174  289.81 0854.59
2009/04/23 15:02:45.9     -15   -235    -56    236    243 183.8 -13.4  34172  289.76 0854.59
2009/04/23 15:02:46.0      79   -264    -38    276    279 163.3  -8.0  34188  290.03 0854.58
2009/04/23 15:02:46.1      33   -262     26    265    267 172.8   5.7  34180  289.92 0854.58
2009/04/23 15:02:46.2      51   -214     47    221    227 166.6  12.2  34186  290.01 0854.58
2009/04/23 15:02:46.3      68   -203     33    215    218 161.5   8.8  34184  289.97 0854.58
2009/04/23 15:02:46.4      54   -136     86    147    170 158.2  33.1  34186  290.01 0854.58
2009/04/23 15:02:46.5      59   -113     57    128    140 152.4  25.2  34172  289.77 0854.58
2009/04/23 15:02:46.6      22   -128     69    130    147 170.2  29.8  34174  289.80 0854.58
2009/04/23 15:02:46.7     -21   -168     39    170    175 187.3  12.9  34198  290.21 0854.58
2009/04/23 15:02:46.8       0   -150     18    151    153 180.0   6.9  34196  290.18 0854.58
2009/04/23 15:02:46.9     -20   -107     -4    109    110 190.7  -2.2  34198  290.21 0854.58
2009/04/23 15:02:47.0       4   -107     -2    108    109 177.8  -1.3  34178  289.89 0854.58
2009/04/23 15:02:47.1      14   -152     44    153    160 174.7  16.0  34174  289.82 0854.58
2009/04/23 15:02:47.2      19   -201     73    202    214 174.4  20.7  34192  290.13 0854.58
2009/04/23 15:02:47.4     110   -223    105    249    270 153.7  24.2  34204  290.31 0854.58
2009/04/23 15:02:47.5     164   -233     95    286    302 144.8  18.5  34210  290.41 0854.58
2009/04/23 15:02:47.6     105   -225    -42    249    253 155.1  -9.6  34214  290.48 0854.58
2009/04/23 15:02:47.7      49   -246    -54    251    257 168.5 -12.2  34224  290.66 0854.58
2009/04/23 15:02:47.8      55   -293    -60    299    306 169.3 -11.5  34222  290.61 0854.58
2009/04/23 15:02:47.9     120   -308    -72    331    339 158.6 -12.4  34208  290.38 0854.58
2009/04/23 15:02:48.0      88   -313    -79    326    336 164.3 -13.7  34202  290.30 0854.58
2009/04/23 15:02:48.1     114   -304    -53    325    330 159.4  -9.3  34190  290.09 0854.60
2009/04/23 15:02:48.2      88   -200    -71    219    231 156.2 -17.9  34186  290.01 0854.60
2009/04/23 15:02:48.3      97   -186    -43    211    216 152.4 -11.5  34194  290.14 0854.60
2009/04/23 15:02:48.4     125   -211    -45    246    251 149.3 -10.5  34184  289.98 0854.60
2009/04/23 15:02:48.5     165   -278    -12    324    325 149.2  -2.2  34154  289.47 0854.60
2009/04/23 15:02:48.6      81   -252     21    265    266 162.1   4.6  34158  289.53 0854.60
2009/04/23 15:02:48.7      38   -215     10    219    220 170.0   2.8  34166  289.69 0854.60
2009/04/23 15:02:48.8      28   -203     -7    206    207 172.0  -2.1  34164  289.65 0854.60
2009/04/23 15:02:48.9      35   -207     -8    210    211 170.3  -2.2  34158  289.55 0854.60
2009/04/23 15:02:49.0     109   -170      7    203    204 147.4   2.1  34166  289.69 0854.60
2009/04/23 15:02:49.1      63   -191     28    202    205 161.5   8.0  34166  289.67 0854.60
2009/04/23 15:02:49.2      32   -238     38    241    245 172.2   9.0  34180  289.92 0854.60
2009/04/23 15:02:49.3      36   -328     57    331    337 173.7   9.9  34184  289.98 0854.60
2009/04/23 15:02:49.4     -15   -330     25    331    332 182.6   4.3  34188  290.03 0854.60
2009/04/23 15:02:49.5      13   -293    106    294    312 177.3  20.7  34170  289.73 0854.60
2009/04/23 15:02:49.6      43   -198    122    203    236 167.7  33.7  34174  289.80 0854.60
2009/04/23 15:02:49.7      60   -173    113    184    215 160.8  34.4  34170  289.74 0854.60
2009/04/23 15:02:49.8      46   -227    155    232    279 168.4  37.0  34174  289.81 0854.60
2009/04/23 15:02:49.9      88   -228    139    245    281 158.8  32.3  34178  289.88 0854.60
2009/04/23 15:02:50.0      78   -232    145    246    285 161.3  33.4  34180  289.92 0854.60
2009/04/23 15:02:50.1      37   -212     77    216    229 170.0  20.2  34180  289.91 0854.59
2009/04/23 15:02:50.2     -36   -226     86    229    244 189.1  21.3  34192  290.10 0854.59
2009/04/23 15:02:50.3     -18   -141    159    143    213 187.6  53.3  34202  290.30 0854.59
2009/04/23 15:02:50.4       1   -128    128    129    181 179.5  50.0  34202  290.28 0854.59
2009/04/23 15:02:50.5     -10    -73     77     74    106 188.1  51.2  34200  290.26 0854.59
2009/04/23 15:02:50.6     -30      9     51     32     60 288.2  64.7  34222  290.62 0854.59
2009/04/23 15:02:50.7     -47    -15      2     50     51 251.8   2.8  34202  290.30 0854.59
2009/04/23 15:02:50.8      -7    -38    -29     39     48 191.6 -45.1  34190  290.08 0854.59
2009/04/23 15:02:50.9      -1    -12    -33     13     35 186.2 -83.6  34192  290.11 0854.59
2009/04/23 15:02:51.0      -8      8    -22     12     25 313.1 -71.2  34200  290.26 0854.59
2009/04/23 15:02:51.1       2     30    -23     31     38   4.5 -46.1  34204  290.33 0854.59
2009/04/23 15:02:51.2      38     12    -17     40     43  71.8 -27.4  34204  290.31 0854.59
2009/04/23 15:02:51.3      80    -45    -16     92     94 119.3 -10.3  34194  290.16 0854.59
2009/04/23 15:02:51.4      93    -48    -21    105    108 117.5 -11.5  34192  290.13 0854.59
2009/04/23 15:02:51.5      90    -63    -72    111    132 125.1 -40.0  34192  290.11 0854.59
2009/04/23 15:02:51.6     107    -35    -82    113    139 108.6 -44.1  34196  290.19 0854.59
2009/04/23 15:02:51.7      61    -60    -67     86    109 134.4 -46.6  34202  290.28 0854.59
2009/04/23 15:02:51.8     -80     62    -79    102    129 307.8 -46.1  34204  290.31 0854.59
2009/04/23 15:02:51.9    -252     15   -152    253    295 273.5 -38.1  34212  290.44 0854.59
2009/04/23 15:02:52.0    -282   -103   -161    301    341 250.0 -35.0  34212  290.46 0854.58
2009/04/23 15:02:52.1    -268    -89   -177    283    333 251.6 -39.5  34210  290.42 0854.58
2009/04/23 15:02:52.2    -204    -74   -170    218    276 250.1 -46.1  34186  290.02 0854.58
2009/04/23 15:02:52.3    -178    -70   -165    192    253 248.5 -49.5  34204  290.31 0854.58
2009/04/23 15:02:52.4    -194    -16    -46    195    201 265.2 -13.4  34234  290.82 0854.58
2009/04/23 15:02:52.5    -198   -108    -12    226    227 241.2  -3.2  34246  291.04 0854.58
2009/04/23 15:02:52.6     -54   -255     13    261    262 192.0   2.9  34220  290.59 0854.58
2009/04/23 15:02:52.7    -189   -218     33    289    291 221.0   6.7  34224  290.66 0854.58
2009/04/23 15:02:52.8    -140   -194    -31    240    243 216.0  -7.5  34224  290.65 0854.58
2009/04/23 15:02:52.9     -91   -187    -42    209    214 206.1 -11.3  34216  290.52 0854.58
2009/04/23 15:02:53.0     -91   -188    -70    209    220 205.9 -23.6  34216  290.53 0854.59
2009/04/23 15:02:53.1    -161   -134    -64    210    220 230.2 -17.0  34198  290.21 0854.59
2009/04/23 15:02:53.2    -197   -105    -44    224    229 241.8 -11.3  34192  290.11 0854.59
2009/04/23 15:02:53.3    -204    -97    -45    227    232 244.5 -11.3  34196  290.18 0854.59
2009/04/23 15:02:53.4    -154   -110     -8    190    191 234.5  -2.6  34200  290.26 0854.59
2009/04/23 15:02:53.5    -182    -61      9    193    194 251.4   2.8  34196  290.18 0854.59
2009/04/23 15:02:53.6    -177    -79    -43    195    200 245.8 -12.6  34184  289.99 0854.59
2009/04/23 15:02:53.7    -168    -50    -58    176    185 253.4 -23.8  34178  289.87 0854.59
2009/04/23 15:02:53.8    -128    -93    -55    159    168 234.0 -24.0  34190  290.08 0854.59
2009/04/23 15:02:53.9     -96    -96    -59    137    149 225.0 -29.5  34186  290.01 0854.59
2009/04/23 15:02:54.0     -81    -88    -75    120    141 222.8 -39.9  34188  290.04 0854.59
2009/04/23 15:02:54.1     -65    -78    -91    102    136 219.7 -50.8  34180  289.92 0854.59
2009/04/23 15:02:54.2     -35    -64    -83     74    111 209.0 -58.1  34186  290.01 0854.59
2009/04/23 15:02:54.3     -24    -74    -80     78    111 198.3 -54.5  34184  289.99 0854.59
2009/04/23 15:02:54.4     -21    -95    -69     98    119 192.9 -43.0  34176  289.85 0854.59
2009/04/23 15:02:54.5     -16   -113    -37    115    120 188.1 -23.3  34176  289.85 0854.59
2009/04/23 15:02:54.6      23   -119     16    122    124 168.9   7.5  34194  290.16 0854.59
2009/04/23 15:02:54.7      80   -126      0    150    151 147.4   0.2  34196  290.19 0854.59
2009/04/23 15:02:54.8      77   -121    -18    144    146 147.5  -7.3  34198  290.21 0854.59
2009/04/23 15:02:54.9      50   -151    -10    160    161 161.5  -3.9  34192  290.11 0854.59
2009/04/23 15:02:55.0      77   -154    -22    173    175 153.5  -7.5  34190  290.09 0854.59
2009/04/23 15:02:55.1     123   -134    -20    183    185 137.5  -6.5  34204  290.33 0854.59
2009/04/23 15:02:55.2     138   -121      9    184    185 131.3   2.8  34218  290.55 0854.59
2009/04/23 15:02:55.3     138    -87     32    164    168 122.4  11.1  34226  290.69 0854.59
2009/04/23 15:02:55.4     133    -88     43    160    166 123.7  15.3  34222  290.62 0854.59
2009/04/23 15:02:55.5      84   -133     72    158    173 147.9  26.4  34216  290.53 0854.59
2009/04/23 15:02:55.6      68   -150     85    165    185 155.5  29.3  34198  290.21 0854.59
2009/04/23 15:02:55.7      88   -151     71    176    189 149.7  23.0  34192  290.11 0854.59
2009/04/23 15:02:55.8      83   -137     67    161    174 148.8  24.1  34188  290.04 0854.59
2009/04/23 15:02:55.9      45   -137     45    145    152 161.5  17.3  34190  290.08 0854.59
2009/04/23 15:02:56.0      40   -150     30    156    160 164.9  11.1  34188  290.06 0854.59
2009/04/23 15:02:56.1      34   -171     22    175    177 168.5   7.2  34188  290.04 0854.59
2009/04/23 15:02:56.2      44   -160    -19    167    169 164.4  -6.5  34192  290.13 0854.59
2009/04/23 15:02:56.3      38   -169     -3    174    175 167.3  -1.1  34188  290.06 0854.59
2009/04/23 15:02:56.4      66   -177    -24    190    192 159.5  -7.2  34190  290.08 0854.59
2009/04/23 15:02:56.5      48   -173    -26    180    182 164.2  -8.2  34188  290.04 0854.59
2009/04/23 15:02:56.6      20   -163    -13    165    166 172.9  -4.6  34190  290.08 0854.59
2009/04/23 15:02:56.7      12   -156    -30    157    160 175.5 -10.9  34190  290.09 0854.59
2009/04/23 15:02:56.8      35   -130    -38    135    141 164.8 -16.0  34192  290.11 0854.59
2009/04/23 15:02:56.9      37   -112    -28    119    123 161.5 -13.3  34190  290.08 0854.59
2009/04/23 15:02:57.0      52   -115    -21    127    129 155.5  -9.4  34188  290.06 0854.59
2009/04/23 15:02:57.1      33   -165    -18    169    171 168.7  -6.2  34188  290.06 0854.59
2009/04/23 15:02:57.2      12   -158     -6    159    160 175.5  -2.2  34186  290.01 0854.59
2009/04/23 15:02:57.3       1   -200     -7    201    202 179.5  -2.1  34174  289.80 0854.59
2009/04/23 15:02:57.4      21   -185    -15    187    188 173.5  -4.9  34174  289.82 0854.59
2009/04/23 15:02:57.5      29   -157    -57    160    170 169.5 -19.7  34184  289.99 0854.59
2009/04/23 15:02:57.6     -11   -165    -38    166    171 184.0 -13.2  34176  289.85 0854.59
2009/04/23 15:02:57.7     -11   -138    -66    139    153 184.9 -31.6  34178  289.89 0854.59
2009/04/23 15:02:57.8      12   -159    -61    160    171 175.5 -26.1  34186  290.01 0854.59
2009/04/23 15:02:57.9      22   -109    -94    112    146 168.4 -48.2  34188  290.04 0854.59
2009/04/23 15:02:58.0      36   -122    -68    128    144 163.5 -35.2  34184  289.99 0854.59
2009/04/23 15:02:58.1      23   -156    -46    158    164 171.5 -21.5  34172  289.79 0854.59
2009/04/23 15:02:58.2     -52   -208    -14    215    216 194.0  -3.7  34178  289.89 0854.59
2009/04/23 15:02:58.3     -52   -203    -28    210    212 194.5  -7.7  34178  289.89 0854.59
2009/04/23 15:02:58.4    -118   -188   -122    223    254 212.1 -35.7  34174  289.81 0854.59
2009/04/23 15:02:58.5     -52   -237    -95    243    260 192.5 -26.9  34174  289.80 0854.59
2009/04/23 15:02:58.6    -121   -208    -98    241    260 210.3 -27.5  34176  289.83 0854.59
2009/04/23 15:02:58.7     -97   -168    -90    195    214 210.1 -31.0  34176  289.84 0854.59
2009/04/23 15:02:58.8    -106   -167   -130    199    237 212.5 -40.9  34170  289.74 0854.59
2009/04/23 15:02:58.9     -62   -142    -95    156    182 203.6 -38.8  34174  289.82 0854.59
2009/04/23 15:02:59.0    -113   -105    -79    155    173 226.9 -33.5  34180  289.92 0854.61
2009/04/23 15:02:59.1    -107   -112    -49    155    162 223.7 -22.8  34180  289.92 0854.61
2009/04/23 15:02:59.2     -94   -113    -48    148    155 219.6 -23.8  34178  289.87 0854.61
2009/04/23 15:02:59.3    -117    -69    -46    137    144 239.4 -23.6  34184  289.97 0854.61
2009/04/23 15:02:59.4    -121    -85    -58    149    159 234.9 -26.4  34182  289.94 0854.61
2009/04/23 15:02:59.5    -100    -97    -40    140    145 225.6 -20.7  34182  289.94 0854.61
2009/04/23 15:02:59.6     -81    -98    -16    128    130 219.7  -7.3  34180  289.91 0854.61
2009/04/23 15:02:59.7    -156    -61    -65    168    180 248.7 -26.4  34186  290.02 0854.61
2009/04/23 15:02:59.8    -129    -65    -63    145    158 243.0 -29.3  34188  290.04 0854.61
2009/04/23 15:02:59.9     -88    -74    -59    116    130 230.0 -33.6  34186  290.02 0854.61
2009/04/23 15:03:00.0     -63    -76    -53     99    112 219.6 -35.2  34184  289.99 0854.61
2009/04/23 15:03:00.1     -52   -117    -40    129    136 204.1 -17.5  34182  289.94 0854.61
2009/04/23 15:03:00.2     -64   -117     -6    134    135 208.9  -2.6  34182  289.94 0854.61
2009/04/23 15:03:00.3     -61   -113    -40    129    136 208.5 -17.5  34182  289.94 0854.61
2009/04/23 15:03:00.4     -38   -132    -43    138    145 196.0 -17.5  34180  289.92 0854.61
2009/04/23 15:03:00.5     -36   -110    -50    116    126 198.3 -29.5  34180  289.91 0854.61
2009/04/23 15:03:00.6     -17   -103    -65    105    123 189.3 -39.9  34178  289.89 0854.61
2009/04/23 15:03:00.7     -25    -74    -85     79    116 198.7 -56.5  34186  290.01 0854.61
2009/04/23 15:03:00.8     -40    -70   -107     81    134 209.9 -63.4  34202  290.28 0854.61
2009/04/23 15:03:00.9     -59    -56    -92     82    123 226.4 -57.7  34200  290.25 0854.61
2009/04/23 15:03:01.0     -34    -30    -61     46     76 228.7 -63.8  34196  290.18 0854.60
2009/04/23 15:03:01.1     -16    -21    -64     27     69 217.8 -81.4  34206  290.36 0854.60
2009/04/23 15:03:01.2     -23    -18    -50     30     58 232.2 -69.1  34204  290.31 0854.60
2009/04/23 15:03:01.3     -36    -32    -49     49     69 228.7 -54.5  34198  290.21 0854.60
2009/04/23 15:03:01.4     -37    -17    -54     41     67 244.6 -63.8  34196  290.19 0854.60
2009/04/23 15:03:01.5     -46     -7    -65     47     80 261.2 -64.9  34202  290.30 0854.60
2009/04/23 15:03:01.6     -58     -7    -61     59     84 263.0 -54.5  34192  290.13 0854.60
2009/04/23 15:03:01.7      -3    -58    -41     59     71 183.6 -43.0  34188  290.06 0854.60
2009/04/23 15:03:01.8      -1    -78    -27     79     83 180.9 -23.3  34188  290.04 0854.60
2009/04/23 15:03:01.9     -14    -68    -21     70     73 191.6 -21.7  34184  289.99 0854.60
2009/04/23 15:03:02.0      -7    -55    -20     56     60 188.0 -19.6  34186  290.02 0854.60
2009/04/23 15:03:02.1     -45    -44    -23     64     69 225.9 -19.6  34184  289.99 0854.60
2009/04/23 15:03:02.2     -32    -46   -104     57    118 215.2 -73.3  34188  290.06 0854.60
2009/04/23 15:03:02.3     -92    -31   -110     98    147 251.4 -58.1  34190  290.08 0854.60
2009/04/23 15:03:02.4     -80    -43   -144     92    170 241.6 -69.0  34190  290.09 0854.60
2009/04/23 15:03:02.5     -39    -87   -154     96    181 204.5 -69.3  34188  290.04 0854.60
2009/04/23 15:03:02.6     -53    -56   -123     78    145 223.2 -69.1  34204  290.33 0854.60
2009/04/23 15:03:02.7     -18    -34   -121     39    127 209.0 -85.1  34216  290.52 0854.60
2009/04/23 15:03:02.8      20   -103   -158    106    190 168.9 -67.6  34194  290.16 0854.60
2009/04/23 15:03:02.9      39   -106   -134    114    175 159.5 -59.8  34192  290.11 0854.60
2009/04/23 15:03:03.0     -44    -30   -136     54    146 235.8 -81.5  34202  290.30 0854.57
2009/04/23 15:03:03.1     -98    -33   -159    104    189 251.4 -68.5  34216  290.52 0854.57
2009/04/23 15:03:03.2    -106    -50   -149    118    190 244.8 -61.9  34224  290.67 0854.57
2009/04/23 15:03:03.3     -99    -39   -155    107    188 248.3 -66.5  34222  290.62 0854.57
2009/04/23 15:03:03.4     -43     -1   -146     44    152 267.4 -87.1  34242  290.98 0854.57
2009/04/23 15:03:03.5     -59    -35   -160     69    174 239.3 -79.9  34230  290.75 0854.57
2009/04/23 15:03:03.6     -16    -29   -124     34    128 209.0 -89.2  34230  290.75 0854.57
2009/04/23 15:03:03.7     -55    -39   -104     68    124 234.0 -68.5  34230  290.77 0854.57
2009/04/23 15:03:03.8     -54    -34   -111     64    128 237.6 -71.6  34234  290.82 0854.57
2009/04/23 15:03:03.9     -52    -16   -126     55    137 252.3 -79.4  34230  290.77 0854.57
2009/04/23 15:03:04.0      25    -30    -66     40     77 140.4 -69.1  34258  291.25 0854.57
2009/04/23 15:03:04.1      45     -3    -66     46     80  94.4 -65.9  34248  291.08 0854.57
2009/04/23 15:03:04.2     -25     22    -74     34     81 311.3 -78.4  34230  290.75 0854.57
2009/04/23 15:03:04.3       4     12    -66     13     67  18.3 -90.0  34232  290.81 0854.57
2009/04/23 15:03:04.4      27      0    -47     28     54  90.0 -70.1  34230  290.77 0854.57
2009/04/23 15:03:04.5      15     26    -31     31     43  30.7 -54.5  34226  290.70 0854.57
2009/04/23 15:03:04.6      12    -45    -28     47     54 164.0 -38.8  34212  290.47 0854.57
2009/04/23 15:03:04.7      18    -61    -57     64     85 163.1 -50.8  34210  290.41 0854.57
2009/04/23 15:03:04.8      11    -91    -74     92    118 172.9 -48.1  34198  290.21 0854.57
2009/04/23 15:03:04.9      18   -141    -58    143    154 172.4 -27.4  34196  290.19 0854.57
2009/04/23 15:03:05.0     -11   -142    -50    143    152 184.5 -19.6  34196  290.18 0854.58
2009/04/23 15:03:05.1     -44   -132    -42    140    146 198.7 -21.7  34190  290.08 0854.58
2009/04/23 15:03:05.2     100   -193    -63    218    226 152.6 -20.7  34190  290.09 0854.58
2009/04/23 15:03:05.3     120   -229    -66    259    268 152.4 -14.3  34194  290.15 0854.58
2009/04/23 15:03:05.4     128   -242    -31    274    276 152.1  -6.5  34192  290.10 0854.58
2009/04/23 15:03:05.5     102   -256    -18    276    277 158.2  -3.7  34196  290.19 0854.58
2009/04/23 15:03:05.6     102   -270    -25    289    291 159.3  -5.1  34192  290.10 0854.58
2009/04/23 15:03:05.7     108   -326    -44    344    347 161.5  -7.4  34198  290.20 0854.58
2009/04/23 15:03:05.8      72   -298    -28    307    309 166.4  -5.4  34196  290.19 0854.58
2009/04/23 15:03:05.9      89   -249     67    265    274 160.2  14.3  34192  290.12 0854.58
2009/04/23 15:03:06.0      40   -234     77    238    251 170.2  17.9  34196  290.19 0854.58
2009/04/23 15:03:06.1      72   -294     25    303    305 166.2   4.9  34194  290.14 0854.58
2009/04/23 15:03:06.2     125   -284     93    311    325 156.3  16.8  34188  290.03 0854.58
2009/04/23 15:03:06.3     118   -322    119    344    365 159.8  19.2  34198  290.23 0854.58
2009/04/23 15:03:06.4     112   -366    134    383    405 163.0  20.0  34194  290.15 0854.58
2009/04/23 15:03:06.5     136   -341    144    368    395 158.2  22.5  34190  290.08 0854.58
2009/04/23 15:03:06.6     170   -318    162    361    395 151.8  25.8  34198  290.23 0854.58
2009/04/23 15:03:06.7     145   -362    159    391    422 158.2  23.4  34198  290.21 0854.58
2009/04/23 15:03:06.8     164   -317    195    357    406 152.6  31.0  34196  290.18 0854.58
2009/04/23 15:03:06.9     191   -328    144    380    406 149.8  21.8  34210  290.42 0854.58
2009/04/23 15:03:07.0     216   -319    105    386    401 145.8  15.3  34190  290.08 0854.57
2009/04/23 15:03:07.1     137   -224    187    263    322 148.6  39.0  34188  290.05 0854.57
2009/04/23 15:03:07.2     136   -289    221    320    388 154.7  37.8  34204  290.33 0854.57
2009/04/23 15:03:07.3     113   -311    136    332    358 160.0  23.5  34202  290.27 0854.57
2009/04/23 15:03:07.4     -37   -403    210    405    456 185.3  29.4  34200  290.24 0854.57
2009/04/23 15:03:07.5     -83   -408    160    417    446 191.6  22.0  34198  290.22 0854.57
2009/04/23 15:03:07.6     -43   -461    137    464    484 185.4  16.5  34206  290.34 0854.57
2009/04/23 15:03:07.7       0   -474     36    475    477 179.9   4.4  34206  290.35 0854.57
2009/04/23 15:03:07.8      10   -471    -44    472    475 178.8  -5.4  34206  290.34 0854.57
2009/04/23 15:03:07.9     200   -581    -79    615    621 160.9  -7.4  34188  290.06 0854.57
2009/04/23 15:03:08.0      94   -485    -27    495    496 169.0  -3.1  34192  290.10 0854.57
2009/04/23 15:03:08.1      12   -220    128    221    255 176.9  32.4  34200  290.24 0854.57
2009/04/23 15:03:08.2     -79   -161      3    180    181 206.3   1.0  34198  290.21 0854.57
2009/04/23 15:03:08.3    -264   -125    -45    293    297 244.6  -8.8  34198  290.22 0854.57
2009/04/23 15:03:08.4    -225   -163   -120    279    303 234.0 -29.5  34186  290.00 0854.57
2009/04/23 15:03:08.5    -110   -114   -143    159    213 224.1 -51.3  34182  289.96 0854.57
2009/04/23 15:03:08.6      37     33    -27     50     56  47.8 -34.7  34198  290.21 0854.57
2009/04/23 15:03:08.7     -13   -173    189    174    256 184.5  52.5  34186  290.02 0854.57
2009/04/23 15:03:08.8     -18   -303    197    304    362 183.4  35.9  34188  290.03 0854.57
2009/04/23 15:03:08.9    -103   -413    214    426    476 194.1  28.7  34180  289.90 0854.57
2009/04/23 15:03:09.0      13   -296    144    297    330 177.3  27.7  34186  290.02 0854.57
2009/04/23 15:03:09.1    -104   -411    213    425    475 194.3  28.7  34182  289.94 0854.57
2009/04/23 15:03:09.2     -48   -181    289    188    344 195.1  64.1  34188  290.05 0854.57
2009/04/23 15:03:09.3      19   -108    203    110    230 169.8  69.1  34204  290.33 0854.57
2009/04/23 15:03:09.4     501   -109    403    513    652 102.3  42.1  34226  290.70 0854.57
2009/04/23 15:03:09.5      90   -222    237    240    337 157.9  49.8  34234  290.82 0854.57
2009/04/23 15:03:09.6     418     27    157    419    447  86.2  21.5  34206  290.34 0854.57
2009/04/23 15:03:09.7     391   -152     -1    420    421 111.3  -0.2  34196  290.19 0854.57
2009/04/23 15:03:09.8     263   -235    158    354    387 131.8  25.8  34198  290.23 0854.57
2009/04/23 15:03:09.9     217   -209    188    302    355 134.0  35.0  34202  290.28 0854.57
2009/04/23 15:03:10.0     123   -603     74    616    621 168.4   6.9  34172  289.79 0854.57
2009/04/23 15:03:10.1     -12   -535    147    536    557 181.4  15.4  34182  289.94 0854.57
2009/04/23 15:03:10.2     -52   -558     53    561    564 185.4   5.5  34182  289.94 0854.57
2009/04/23 15:03:10.3       8   -477     40    478    480 179.0   4.9  34172  289.78 0854.57
2009/04/23 15:03:10.4     -35   -315   -104    318    334 186.5 -23.3  34180  289.91 0854.57
2009/04/23 15:03:10.5    -112   -357   -250    375    450 197.5 -41.3  34174  289.80 0854.57
2009/04/23 15:03:10.6     288   -210   -150    357    387 126.1 -28.5  34184  289.99 0854.57
2009/04/23 15:03:10.7     310     53    -56    315    321  80.3 -10.1  34178  289.86 0854.57
2009/04/23 15:03:10.8     213    -16     10    214    215  94.4   2.8  34162  289.60 0854.57
2009/04/23 15:03:10.9     303   -248     44    392    395 129.4   6.5  34174  289.82 0854.57
2009/04/23 15:03:11.0      39   -290    202    293    355 172.2  37.8  34182  289.96 0854.59
2009/04/23 15:03:11.1     129   -212    189    249    312 148.6  41.1  34186  290.00 0854.59
2009/04/23 15:03:11.2      79   -269    284    281    399 163.5  50.2  34178  289.87 0854.59
2009/04/23 15:03:11.3      80   -220    346    235    418 160.0  62.7  34182  289.96 0854.59
2009/04/23 15:03:11.4     426   -349    285    551    620 129.3  29.3  34178  289.86 0854.59
2009/04/23 15:03:11.5     489   -343    233    598    641 125.0  22.4  34156  289.52 0854.59
2009/04/23 15:03:11.6     472   -389     20    612    613 129.5   1.9  34164  289.64 0854.59
2009/04/23 15:03:11.7     554   -323     52    642    645 120.2   4.7  34160  289.57 0854.59
2009/04/23 15:03:11.8     412   -226    202    470    511 118.8  24.8  34142  289.27 0854.59
2009/04/23 15:03:11.9     104   -104    -10    148    149 135.0  -4.1  34158  289.53 0854.59
2009/04/23 15:03:12.0     -66    -68     76     95    121 224.1  42.7  34162  289.62 0854.59
2009/04/23 15:03:12.1     103   -135    -68    170    183 142.6 -27.4  34168  289.72 0854.59
2009/04/23 15:03:12.2      -8    109   -134    110    173 355.5 -60.8  34170  289.75 0854.59
2009/04/23 15:03:12.3     221    -23    -74    223    234  96.1 -23.6  34182  289.94 0854.59
2009/04/23 15:03:12.4     247    -54   -136    253    287 102.4 -35.0  34168  289.71 0854.59
2009/04/23 15:03:12.5     196    -10    -65    197    207  93.0 -23.8  34168  289.70 0854.59
2009/04/23 15:03:12.6     211     18    -42    212    217  85.0 -11.3  34168  289.70 0854.59
2009/04/23 15:03:12.7     228    -53     -9    235    236 103.3  -2.2  34172  289.78 0854.59
2009/04/23 15:03:12.8     342      7    146    343    372  88.7  24.5  34162  289.60 0854.59
2009/04/23 15:03:12.9     192     59    238    201    311  72.9  55.8  34180  289.90 0854.59
2009/04/23 15:03:13.0     197     77    174    212    274  68.5  43.7  34174  289.81 0854.57
2009/04/23 15:03:13.1     206     -3    160    207    261  90.9  41.6  34176  289.85 0854.57
2009/04/23 15:03:13.2      68   -150     77    165    182 155.5  27.0  34150  289.40 0854.57
2009/04/23 15:03:13.3     163   -215     28    271    273 142.8   6.1  34164  289.64 0854.57
2009/04/23 15:03:13.4     172   -151    -79    229    242 131.3 -24.3  34170  289.75 0854.57
2009/04/23 15:03:13.5     166    -55   -130    175    218 108.4 -44.5  34172  289.79 0854.57
2009/04/23 15:03:13.7     252   -229   -207    341    398 132.2 -38.7  34172  289.76 0854.57
2009/04/23 15:03:13.8     -17   -126   -227    128    260 188.0 -72.9  34172  289.77 0854.57
2009/04/23 15:03:13.9     -88   -399   -156    409    437 192.5 -26.4  34162  289.60 0854.57
2009/04/23 15:03:14.0     -99   -504   -223    514    560 191.1 -29.5  34168  289.72 0854.57
2009/04/23 15:03:14.1     -29   -523   -141    524    543 183.2 -15.1  34156  289.50 0854.57
2009/04/23 15:03:14.2     271   -307    166    410    442 138.6  23.2  34158  289.53 0854.57
2009/04/23 15:03:14.3     139   -320     22    349    350 156.5   3.7  34166  289.67 0854.57
2009/04/23 15:03:14.4    -115   -378   -133    396    417 196.9 -23.3  34166  289.68 0854.57
2009/04/23 15:03:14.5     -23   -323    207    324    384 184.1  35.6  34170  289.74 0854.57
2009/04/23 15:03:14.6     363   -263    293    449    536 125.9  36.0  34174  289.81 0854.57
2009/04/23 15:03:14.7     495   -427     75    654    659 130.8   6.6  34180  289.92 0854.57
2009/04/23 15:03:14.8     356   -156     11    389    390 113.7   1.7  34178  289.87 0854.57
2009/04/23 15:03:14.9     195   -157     94    251    268 128.9  21.5  34170  289.75 0854.57
2009/04/23 15:03:15.0    -106   -332     74    349    357 197.7  12.1  34178  289.86 0854.57
2009/04/23 15:03:15.1      40   -430    134    433    454 174.6  17.2  34180  289.90 0854.57
2009/04/23 15:03:15.2     328   -379    436    502    664 139.1  45.5  34158  289.55 0854.57
2009/04/23 15:03:15.3     332   -621    549    705    893 151.9  41.7  34178  289.87 0854.57
2009/04/23 15:03:15.4     317   -482    166    578    602 146.6  16.0  34178  289.88 0854.57
2009/04/23 15:03:15.5     447   -250     93    513    522 119.2  10.3  34166  289.69 0854.57
2009/04/23 15:03:15.6     486   -197    109    525    537 112.1  11.8  34158  289.53 0854.57
2009/04/23 15:03:15.7     418   -212    301    469    557 117.0  35.6  34168  289.70 0854.57
2009/04/23 15:03:15.8      59   -503    -45    507    510 173.3  -5.1  34166  289.66 0854.57
2009/04/23 15:03:15.9      87   -382    -88    392    402 167.1 -12.7  34172  289.79 0854.57
2009/04/23 15:03:16.0     132   -507    -34    524    526 165.4  -3.7  34176  289.84 0854.57
2009/04/23 15:03:16.1     217   -306    136    376    399 144.7  20.7  34174  289.82 0854.58
2009/04/23 15:03:16.2     111   -334     76    352    361 161.6  12.2  34182  289.93 0854.58
2009/04/23 15:03:16.3       8   -466    294    467    551 179.0  35.2  34184  289.97 0854.58
2009/04/23 15:03:16.4     401   -425    322    585    667 136.7  31.3  34172  289.76 0854.58
2009/04/23 15:03:16.5     233   -392    192    457    495 149.3  24.1  34178  289.88 0854.58
2009/04/23 15:03:16.6     238   -622    214    667    701 159.1  17.8  34184  289.99 0854.58
2009/04/23 15:03:16.7     118   -524    -19    538    539 167.3  -2.1  34172  289.77 0854.58
2009/04/23 15:03:16.8     -46   -717   -180    719    742 183.7 -14.1  34184  289.97 0854.58
2009/04/23 15:03:16.9     -24   -613     74    614    619 182.3   6.9  34184  289.98 0854.58
2009/04/23 15:03:17.0      66   -713     45    717    719 174.7   3.6  34182  289.94 0854.58
2009/04/23 15:03:17.1     114   -719     -2    729    730 171.0  -0.2  34178  289.88 0854.58
2009/04/23 15:03:17.2     110   -673    -64    683    687 170.7  -5.4  34174  289.80 0854.58
2009/04/23 15:03:17.3     185   -521   -183    554    583 160.4 -23.6  34178  289.86 0854.58
2009/04/23 15:03:17.4      78   -409   -206    417    465 169.2 -32.6  34184  289.97 0854.58
2009/04/23 15:03:17.5     180   -339   -220    384    442 152.0 -36.8  34186  290.02 0854.58
2009/04/23 15:03:17.6     182   -378   -122    420    437 154.3 -21.0  34186  290.00 0854.58
2009/04/23 15:03:17.7     102   -222   -144    245    284 155.3 -37.8  34180  289.92 0854.58
2009/04/23 15:03:17.8     -14   -386     78    387    395 182.1  11.5  34182  289.93 0854.58
2009/04/23 15:03:17.9      37   -337    -50    340    344 173.7  -8.4  34184  289.99 0854.58
2009/04/23 15:03:18.0      12   -268     13    269    270 177.3   2.8  34182  289.95 0854.58
2009/04/23 15:03:18.1      66   -227     69    237    247 163.7  16.3  34186  290.00 0854.56
2009/04/23 15:03:18.2     147   -259    -54    299    304 150.4 -10.3  34182  289.95 0854.56
2009/04/23 15:03:18.3     212   -333   -120    395    414 147.5 -16.9  34184  289.99 0854.56
2009/04/23 15:03:18.4     220   -406   -130    463    480 151.5 -20.2  34190  290.08 0854.56
2009/04/23 15:03:18.5     332   -415   -125    532    547 141.3 -13.3  34190  290.07 0854.56
2009/04/23 15:03:18.6     443   -351     -4    566    567 128.4  -0.5  34166  289.68 0854.56
2009/04/23 15:03:18.7     413   -308    220    516    560 126.8  24.5  34158  289.55 0854.56
2009/04/23 15:03:18.8     459   -176    258    492    555 111.1  30.0  34164  289.63 0854.56
2009/04/23 15:03:18.9     494   -148     44    516    519 106.7   5.0  34156  289.49 0854.56
2009/04/23 15:03:19.0     355   -225    -70    421    427 122.4  -9.5  34172  289.78 0854.56
2009/04/23 15:03:19.1     331   -251    -83    416    425 127.2 -11.3  34174  289.82 0854.56
2009/04/23 15:03:19.2     386   -253    -31    462    464 123.3  -3.9  34178  289.87 0854.56
2009/04/23 15:03:19.3     496   -166     -5    524    525 108.6  -0.6  34172  289.77 0854.56
2009/04/23 15:03:19.4     339   -118     45    360    363 109.2   7.2  34160  289.57 0854.56
2009/04/23 15:03:19.5      94   -172    161    197    254 151.3  43.7  34176  289.85 0854.56
2009/04/23 15:03:19.6     183   -104     33    211    214 119.8   8.9  34168  289.70 0854.56
2009/04/23 15:03:19.7     353   -170     -9    392    393 115.8  -1.4  34178  289.87 0854.56
2009/04/23 15:03:19.8     315   -220    -12    385    386 124.9  -1.8  34174  289.82 0854.56
2009/04/23 15:03:19.9     230   -332     20    405    406 145.3   2.9  34176  289.83 0854.56
2009/04/23 15:03:20.0      84   -386    102    396    410 167.6  14.5  34178  289.88 0854.55
2009/04/23 15:03:20.1     -75   -406    111    413    428 190.5  15.1  34190  290.09 0854.55
2009/04/23 15:03:20.2     -90   -298     40    312    315 196.9   7.5  34198  290.22 0854.55
2009/04/23 15:03:20.3      -8   -474    -90    475    484 181.0 -10.8  34198  290.22 0854.55
2009/04/23 15:03:20.4     265   -404    181    484    516 146.7  21.4  34162  289.59 0854.55
2009/04/23 15:03:20.5      78   -387    417    395    574 168.6  51.8  34184  289.97 0854.55
2009/04/23 15:03:20.6      65   -128    213    144    257 152.8  62.7  34184  289.99 0854.55
2009/04/23 15:03:20.7      -8     -3    182      9    182 244.7  90.0  34198  290.23 0854.55
2009/04/23 15:03:20.8    -307   -378    214    488    532 219.1  25.2  34180  289.91 0854.55
2009/04/23 15:03:20.9    -189   -452    154    491    515 202.7  17.4  34186  290.01 0854.55
2009/04/23 15:03:21.0     134   -357    293    382    481 159.3  41.4  34188  290.04 0854.55
2009/04/23 15:03:21.1     113   -299    173    320    363 159.3  30.7  34186  290.01 0854.55
2009/04/23 15:03:21.2     166   -261     55    310    315 147.5  10.1  34188  290.03 0854.55
2009/04/23 15:03:21.3      38   -259    129    262    292 171.5  28.2  34194  290.14 0854.55
2009/04/23 15:03:21.4      51   -183    181    191    263 164.4  48.5  34194  290.15 0854.55
2009/04/23 15:03:21.5     189    -15    176    190    258  94.8  47.9  34196  290.19 0854.55
2009/04/23 15:03:21.6     490    -73    193    496    532  98.5  22.4  34188  290.06 0854.55
2009/04/23 15:03:21.7     220    -32    315    223    385  98.4  61.3  34180  289.91 0854.55
2009/04/23 15:03:21.8     195   -400    346    446    564 154.0  41.7  34194  290.16 0854.55
2009/04/23 15:03:21.9    -128   -222    361    257    443 210.1  61.2  34194  290.16 0854.55
2009/04/23 15:03:22.0     262    -86    205    276    343 108.2  40.2  34202  290.27 0854.55
2009/04/23 15:03:22.1      14   -239    150    240    283 176.6  35.5  34196  290.17 0854.55
2009/04/23 15:03:22.2      33   -339     69    341    348 174.3  11.5  34182  289.93 0854.55
2009/04/23 15:03:22.3     212   -505    177    548    576 157.2  17.9  34174  289.82 0854.55
2009/04/23 15:03:22.4      95   -214     10    235    236 155.9   2.5  34194  290.15 0854.55
2009/04/23 15:03:22.5    -316   -637    -27    712    713 206.4  -2.2  34196  290.17 0854.55
2009/04/23 15:03:22.6     -95   -538    -72    547    552 190.0  -7.6  34188  290.04 0854.55
2009/04/23 15:03:22.7    -113   -573   -222    585    625 191.2 -26.1  34186  290.00 0854.55
2009/04/23 15:03:22.8    -123   -577    -64    591    595 192.1  -6.2  34168  289.71 0854.55
2009/04/23 15:03:22.9       0   -386    151    387    415 180.0  22.5  34190  290.07 0854.55
2009/04/23 15:03:23.0     128   -236    204    269    337 151.5  40.9  34198  290.22 0854.55
2009/04/23 15:03:23.1      -3   -186    245    187    308 181.1  58.7  34208  290.37 0854.55
2009/04/23 15:03:23.2     122   -238    189    268    327 152.8  38.6  34188  290.05 0854.55
2009/04/23 15:03:23.3      68   -144    243    160    290 154.7  63.9  34200  290.26 0854.55
2009/04/23 15:03:23.4     -48   -250    367    255    446 190.9  62.0  34200  290.25 0854.55
2009/04/23 15:03:23.5     133    -93    310    163    350 125.1  70.0  34210  290.41 0854.55
2009/04/23 15:03:23.6     433   -124    223    451    503 106.0  28.2  34198  290.22 0854.55
2009/04/23 15:03:23.7     352    -93    235    365    434 104.9  35.7  34190  290.09 0854.55
2009/04/23 15:03:23.8      95   -156    254    183    313 148.6  61.0  34198  290.20 0854.55
2009/04/23 15:03:23.9      27   -213    218    215    306 172.7  50.2  34196  290.19 0854.55
2009/04/23 15:03:24.0     100   -200    188    224    292 153.3  44.1  34198  290.22 0854.54
2009/04/23 15:03:24.1     179   -130    132    222    258 125.9  33.5  34198  290.20 0854.54
2009/04/23 15:03:24.2     112   -213    107    241    263 152.1  25.9  34198  290.20 0854.54
2009/04/23 15:03:24.3      89   -363    202    374    425 166.1  30.8  34204  290.31 0854.54
2009/04/23 15:03:24.4     159   -343    316    379    493 155.1  44.1  34210  290.41 0854.54
2009/04/23 15:03:24.5     110   -131    262    172    313 140.1  63.6  34216  290.51 0854.54
2009/04/23 15:03:24.6     -37    -58    305     69    312 212.5  87.6  34202  290.29 0854.54
2009/04/23 15:03:24.7       2    -29    253     30    254 175.6  90.0  34224  290.65 0854.54
2009/04/23 15:03:24.8     -37   -219    249    223    334 189.8  53.6  34212  290.44 0854.54
2009/04/23 15:03:24.9      73    -52    129     90    157 125.5  61.5  34224  290.67 0854.54
2009/04/23 15:03:25.0     -94   -155    228    182    291 211.4  57.5  34206  290.34 0854.54
2009/04/23 15:03:25.1    -162   -255    149    303    337 212.5  28.1  34204  290.32 0854.54
2009/04/23 15:03:25.2     -54   -166    108    175    205 198.3  34.8  34196  290.18 0854.54
2009/04/23 15:03:25.3      15    -77    157     79    175 168.4  71.4  34222  290.64 0854.54
2009/04/23 15:03:25.4     -22    -26     74     35     81 219.6  73.5  34218  290.57 0854.54
2009/04/23 15:03:25.5    -186     61     58    196    205 288.2  16.6  34214  290.48 0854.54
2009/04/23 15:03:25.6     -12   -170    122    171    210 184.2  39.1  34212  290.45 0854.54
2009/04/23 15:03:25.7     -45    -71    123     85    149 212.5  62.1  34206  290.36 0854.54
2009/04/23 15:03:25.8    -192     25      9    194    195 277.7   2.9  34212  290.47 0854.54
2009/04/23 15:03:25.9    -419    104    -80    432    440 284.1 -10.5  34190  290.09 0854.54
2009/04/23 15:03:26.0    -729   -158   -212    747    777 257.7 -15.9  34198  290.23 0854.54
2009/04/23 15:03:26.1    -704   -220   -262    738    783 252.6 -24.8  34184  289.97 0854.54
2009/04/23 15:03:26.2    -781   -387   -303    872    923 243.6 -24.4  34186  290.00 0854.54
2009/04/23 15:03:26.3    -541   -526   -178    755    776 225.8 -13.3  34200  290.24 0854.54
2009/04/23 15:03:26.4    -562   -230    149    608    627 247.7  13.8  34242  290.96 0854.54
2009/04/23 15:03:26.5    -530    -98    136    539    556 259.5  14.2  34230  290.77 0854.54
2009/04/23 15:03:26.6    -592   -352     56    689    692 239.3   4.7  34238  290.89 0854.54
2009/04/23 15:03:26.7    -542    -84     91    549    557 261.2   9.5  34236  290.87 0854.54
2009/04/23 15:03:26.8    -547    -58    -50    551    554 263.9  -5.2  34272  291.48 0854.54
2009/04/23 15:03:26.9    -608    -55    -33    611    612 264.8  -3.1  34262  291.31 0854.54
2009/04/23 15:03:27.0    -590     -8    207    591    626 269.2  20.1  34230  290.76 0854.54
2009/04/23 15:03:27.1    -662    108     20    672    673 279.3   1.7  34208  290.39 0854.54
2009/04/23 15:03:27.2    -571    -25    -43    572    574 267.4  -4.4  34188  290.03 0854.54
2009/04/23 15:03:27.3    -561     54    -22    564    565 275.6  -2.2  34176  289.84 0854.54
2009/04/23 15:03:27.4    -415    -34    -32    417    419 265.2  -4.5  34182  289.95 0854.54
2009/04/23 15:03:27.5    -297    -44    -87    301    313 261.4 -20.9  34190  290.09 0854.54
2009/04/23 15:03:27.6    -355    -34   -112    357    374 264.4 -22.3  34152  289.43 0854.54
2009/04/23 15:03:27.7    -448    -99    -92    459    469 257.5 -11.3  34202  290.30 0854.54
2009/04/23 15:03:27.8    -350    -31   -195    352    402 264.9 -35.8  34158  289.54 0854.54
2009/04/23 15:03:27.9    -223     44   -162    228    279 281.4 -43.5  34166  289.66 0854.54
2009/04/23 15:03:28.0    -178    -36    -47    182    189 258.5 -14.5  34194  290.16 0854.51
2009/04/23 15:03:28.1    -227    -50     59    233    241 257.4  14.3  34180  289.90 0854.51
2009/04/23 15:03:28.2    -299   -174     32    347    349 239.8   5.4  34188  290.06 0854.51
2009/04/23 15:03:28.3    -168   -247   -163    299    340 214.3 -35.7  34194  290.15 0854.51
2009/04/23 15:03:28.4    -232    -64   -168    241    293 254.5 -42.8  34180  289.92 0854.51
2009/04/23 15:03:28.5    -207    -56   -189    215    286 254.7 -50.2  34146  289.34 0854.51
2009/04/23 15:03:28.6    -217    -31   -228    220    316 261.9 -55.6  34154  289.46 0854.51
2009/04/23 15:03:28.7    -249    -11   -220    250    333 267.4 -50.2  34136  289.15 0854.51
2009/04/23 15:03:28.8    -226      3   -196    227    299 270.9 -49.8  34150  289.41 0854.51
2009/04/23 15:03:28.9    -145    131   -175    196    262 312.2 -51.0  34152  289.42 0854.51
2009/04/23 15:03:29.0    -114     94   -199    149    248 309.5 -63.8  34154  289.46 0854.51
2009/04/23 15:03:29.1    -125     59   -198    139    241 295.2 -66.1  34152  289.45 0854.51
2009/04/23 15:03:29.2     -79    165   -152    184    238 334.4 -48.1  34160  289.57 0854.51
2009/04/23 15:03:29.3      13    171    -56    172    180   4.4 -23.6  34154  289.48 0854.51
2009/04/23 15:03:29.4      70    222    -69    233    243  17.6 -21.7  34152  289.42 0854.51
2009/04/23 15:03:29.5      54    283    -41    289    293  10.9  -8.2  34150  289.39 0854.51
2009/04/23 15:03:29.6       8    330    -12    331    332   1.4  -2.2  34166  289.69 0854.51
2009/04/23 15:03:29.7      17    310    -57    311    317   3.1 -10.5  34164  289.64 0854.51
2009/04/23 15:03:29.8    -140    213    -21    256    258 326.6  -4.9  34186  290.02 0854.51
2009/04/23 15:03:29.9    -168    286     12    332    333 329.6   2.2  34172  289.76 0854.51
2009/04/23 15:03:30.0    -139    345    -66    373    379 338.1 -10.1  34166  289.67 0854.51
2009/04/23 15:03:30.1     -68    341     -7    348    349 348.7  -1.3  34168  289.71 0854.51
2009/04/23 15:03:30.2    -124    296    -22    322    323 337.3  -4.0  34176  289.85 0854.51
2009/04/23 15:03:30.3    -161    181     -9    243    244 318.3  -2.2  34178  289.88 0854.51
2009/04/23 15:03:30.4    -145    228    -69    271    280 327.4 -14.3  34188  290.03 0854.51
2009/04/23 15:03:30.5    -240    149   -148    283    319 301.8 -34.2  34192  290.10 0854.51
2009/04/23 15:03:30.6    -195    157   -192    251    316 308.9 -45.6  34194  290.14 0854.51
2009/04/23 15:03:30.7    -162    204   -147    261    299 321.5 -36.0  34194  290.15 0854.51
2009/04/23 15:03:30.8    -252    140   -168    289    334 299.1 -37.1  34188  290.05 0854.51
2009/04/23 15:03:30.9    -332    104   -123    348    369 287.4 -24.6  34182  289.96 0854.51
2009/04/23 15:03:31.0    -267     30   -124    269    296 276.6 -30.8  34178  289.86 0854.51
2009/04/23 15:03:31.1    -274     29   -146    276    312 276.1 -34.6  34180  289.92 0854.51
2009/04/23 15:03:31.2    -252    -74   -185    263    321 253.6 -43.0  34188  290.05 0854.51
2009/04/23 15:03:31.3    -247    -17   -169    248    300 265.9 -41.8  34186  290.02 0854.51
2009/04/23 15:03:31.4    -302     13   -151    303    338 272.6 -32.9  34194  290.15 0854.51
2009/04/23 15:03:31.5    -305    -62   -162    312    351 258.5 -33.9  34188  290.04 0854.51
2009/04/23 15:03:31.6    -281   -101   -136    299    328 250.1 -30.6  34200  290.24 0854.51
2009/04/23 15:03:31.7    -242    -11   -230    243    334 267.4 -52.8  34198  290.20 0854.51
2009/04/23 15:03:31.8    -141    -19   -208    143    252 262.1 -67.0  34192  290.11 0854.51
2009/04/23 15:03:31.9    -163     31   -190    166    252 280.8 -58.7  34194  290.14 0854.51
2009/04/23 15:03:32.0    -103     41   -214    111    241 291.7 -75.2  34204  290.33 0854.55
2009/04/23 15:03:32.1      26     12   -170     29    172  64.6 -90.0  34202  290.28 0854.55
2009/04/23 15:03:32.2    -191      7   -241    192    308 272.1 -61.9  34222  290.61 0854.55
2009/04/23 15:03:32.3     -66   -257   -262    266    373 194.5 -54.2  34222  290.62 0854.55
2009/04/23 15:03:32.4      47   -235   -191    240    306 168.5 -47.1  34222  290.63 0854.55
2009/04/23 15:03:32.5       9   -208   -156    209    260 177.3 -45.0  34216  290.53 0854.55
2009/04/23 15:03:32.6     -33   -275   -144    277    312 186.9 -34.2  34220  290.58 0854.55
2009/04/23 15:03:32.7     -16   -150   -262    151    302 186.2 -72.1  34216  290.53 0854.55
2009/04/23 15:03:32.8    -148   -228   -126    273    300 213.0 -30.8  34214  290.49 0854.55
2009/04/23 15:03:32.9     -12   -268     42    269    273 182.6   9.0  34214  290.49 0854.55
2009/04/23 15:03:33.0      -1   -431    -34    432    434 180.2  -4.6  34208  290.39 0854.55
2009/04/23 15:03:33.1     338   -264     36    430    432 128.0   4.9  34194  290.16 0854.55
2009/04/23 15:03:33.2     200   -258     54    327    332 142.2   9.5  34186  290.01 0854.55
2009/04/23 15:03:33.3      52   -306    -29    311    313 170.3  -5.5  34206  290.36 0854.55
2009/04/23 15:03:33.4     117   -165      3    203    204 144.8   1.0  34198  290.23 0854.55
2009/04/23 15:03:33.5     362    -43    150    365    394  96.8  23.7  34186  290.01 0854.55
2009/04/23 15:03:33.6     350   -175    361    392    532 116.6  47.5  34228  290.73 0854.55
2009/04/23 15:03:33.7     262   -285    318    388    501 137.5  43.7  34232  290.78 0854.55
2009/04/23 15:03:33.8     227   -324    288    396    489 144.9  39.7  34238  290.89 0854.55
2009/04/23 15:03:33.9     139   -316    238    346    419 156.2  37.8  34218  290.55 0854.55
2009/04/23 15:03:34.0     -44   -367     98    370    383 187.0  14.9  34196  290.18 0854.58
2009/04/23 15:03:34.1     -51   -315    109    320    339 189.2  18.9  34188  290.06 0854.58
2009/04/23 15:03:34.2      68   -405    230    411    470 170.4  31.7  34194  290.16 0854.58
2009/04/23 15:03:34.3     -64   -332    135    339    364 191.0  23.0  34202  290.27 0854.58
2009/04/23 15:03:34.4    -140   -293     71    325    333 205.6  12.4  34198  290.20 0854.58
2009/04/23 15:03:34.5     -95   -404    200    416    461 193.3  27.3  34200  290.24 0854.58
2009/04/23 15:03:34.6     -94   -464    181    474    507 191.6  22.0  34208  290.37 0854.58
2009/04/23 15:03:34.7     -62   -312    149    319    352 191.3  27.0  34200  290.25 0854.58
2009/04/23 15:03:34.8    -218   -481    212    529    569 204.4  23.1  34210  290.43 0854.58
2009/04/23 15:03:34.9    -331   -482    -22    586    587 214.5  -2.2  34220  290.58 0854.58
2009/04/23 15:03:35.0    -101   -362   -190    376    421 195.7 -33.3  34214  290.48 0854.58
2009/04/23 15:03:35.1    -240   -255    -91    351    363 223.3 -14.6  34218  290.55 0854.58
2009/04/23 15:03:35.2    -107   -352    -29    369    371 196.9  -4.6  34212  290.47 0854.58
2009/04/23 15:03:35.3    -109   -312    -91    331    344 199.4 -15.4  34210  290.42 0854.58
2009/04/23 15:03:35.4    -199   -450     12    493    494 203.9   1.5  34204  290.32 0854.58
2009/04/23 15:03:35.5    -148   -391    -24    419    420 200.7  -3.3  34214  290.50 0854.58
2009/04/23 15:03:35.6    -132   -417    -25    438    439 197.6  -3.3  34214  290.50 0854.58
2009/04/23 15:03:35.7     -73   -373    -83    381    391 191.1 -12.4  34208  290.38 0854.58
2009/04/23 15:03:35.8      22   -434   -101    435    447 177.0 -13.2  34200  290.24 0854.58
2009/04/23 15:03:35.9     -49   -453    -41    456    458 186.3  -5.2  34200  290.24 0854.58
2009/04/23 15:03:36.0      -8   -416    -52    417    421 181.1  -7.2  34206  290.36 0854.62
2009/04/23 15:03:36.1     -27   -493      4    494    495 183.1   0.5  34202  290.30 0854.62
2009/04/23 15:03:36.2    -119   -526     61    540    544 192.8   6.5  34202  290.30 0854.62
2009/04/23 15:03:36.3    -164   -516     92    542    550 197.7   9.7  34190  290.07 0854.62
2009/04/23 15:03:36.4    -267   -565     51    626    629 205.3   4.7  34200  290.26 0854.62
2009/04/23 15:03:36.5    -269   -565    -15    626    627 205.5  -1.4  34208  290.38 0854.62
2009/04/23 15:03:36.6    -123   -608     56    621    624 191.5   5.2  34210  290.43 0854.62
2009/04/23 15:03:36.7    -231   -566    106    612    622 202.2   9.9  34194  290.15 0854.62
2009/04/23 15:03:36.8    -209   -729     33    759    760 196.0   2.5  34196  290.18 0854.62
2009/04/23 15:03:36.9     -46   -762    148    764    779 183.5  11.0  34190  290.08 0854.62
2009/04/23 15:03:37.0     -61   -805    132    808    819 184.4   9.3  34182  289.96 0854.63
2009/04/23 15:03:37.1    -203   -827     41    852    854 193.8   2.8  34196  290.17 0854.63
2009/04/23 15:03:37.2    -384   -767    -65    858    861 206.6  -4.4  34184  289.97 0854.63
2009/04/23 15:03:37.3    -298   -758     19    815    816 201.5   1.4  34186  290.01 0854.63
2009/04/23 15:03:37.4    -496   -707   -292    864    912 215.1 -23.8  34146  289.35 0854.63
2009/04/23 15:03:37.5    -445   -870    -87    977    982 207.1  -5.1  34178  289.87 0854.63
2009/04/23 15:03:37.6    -398   -727     55    830    832 208.7   3.8  34182  289.96 0854.63
2009/04/23 15:03:37.7    -264   -771     53    816    818 198.9   3.7  34174  289.82 0854.63
2009/04/23 15:03:37.8    -204   -618    100    651    659 198.3   8.8  34184  289.99 0854.63
2009/04/23 15:03:37.9    -425   -431     45    606    608 224.6   4.3  34170  289.73 0854.63
2009/04/23 15:03:38.0    -438   -353     89    563    571 231.1   9.0  34172  289.79 0854.63
2009/04/23 15:03:38.1    -351   -260    233    438    496 233.5  30.3  34180  289.91 0854.63
2009/04/23 15:03:38.2    -279   -101    213    297    365 250.1  39.2  34182  289.93 0854.63
2009/04/23 15:03:38.3     -76   -181     10    197    198 202.9   3.1  34194  290.16 0854.63
2009/04/23 15:03:38.4     -48   -283    160    288    329 189.8  31.6  34178  289.86 0854.63
2009/04/23 15:03:38.5     -48   -347    210    351    409 188.0  33.8  34188  290.04 0854.63
2009/04/23 15:03:38.6     -52   -183     66    191    203 196.0  19.2  34184  289.97 0854.63
2009/04/23 15:03:38.7     -65    -98    109    118    160 213.8  47.7  34198  290.21 0854.63
2009/04/23 15:03:38.8      45    -12     66     47     81 105.1  61.1  34230  290.77 0854.63
2009/04/23 15:03:38.9     -65     78     -6    102    103 319.9  -3.7  34220  290.58 0854.63
2009/04/23 15:03:39.0    -249   -163    -77    298    308 236.7 -14.5  34214  290.48 0854.63
2009/04/23 15:03:39.1    -165   -202    -88    261    276 219.2 -18.7  34214  290.48 0854.63
2009/04/23 15:03:39.2    -256   -438   -155    508    531 210.3 -21.8  34188  290.04 0854.63
2009/04/23 15:03:39.3    -369   -144   -204    397    446 248.6 -33.7  34180  289.92 0854.63
2009/04/23 15:03:39.4    -391   -326   -180    510    540 230.2 -24.7  34176  289.84 0854.63
2009/04/23 15:03:39.5    -755    104   -371    763    848 277.9 -32.2  34148  289.38 0854.63
2009/04/23 15:03:39.6    -543    -90   -370    551    663 260.5 -41.6  34162  289.59 0854.63
2009/04/23 15:03:39.7    -577   -248    -30    629    630 246.7  -2.8  34166  289.67 0854.63
2009/04/23 15:03:39.9    -590   -195   -164    622    644 251.7 -14.8  34184  289.99 0854.63
2009/04/23 15:03:40.0    -574      0   -229    575    618 270.0 -27.4  34156  289.49 0854.63
2009/04/23 15:03:40.0    -642    -26   -238    643    685 267.6 -25.7  34140  289.22 0854.63
2009/04/23 15:03:40.2    -563     31   -247    564    615 273.2 -29.6  34146  289.34 0854.63
2009/04/23 15:03:40.3    -614     72   -170    619    641 276.7 -20.0  34144  289.30 0854.63
2009/04/23 15:03:40.4    -587    -91   -170    594    617 261.2 -20.7  34138  289.19 0854.63
2009/04/23 15:03:40.5    -455    -92   -214    465    511 258.5 -30.8  34146  289.35 0854.63
2009/04/23 15:03:40.6    -486   -159   -215    512    555 251.8 -28.6  34138  289.19 0854.63
2009/04/23 15:03:40.7    -499   -158   -318    524    612 252.4 -38.5  34144  289.30 0854.63
2009/04/23 15:03:40.8    -388   -121   -329    407    523 252.6 -47.7  34146  289.35 0854.63
2009/04/23 15:03:40.9    -366   -129   -133    389    412 250.5 -18.9  34148  289.36 0854.63
2009/04/23 15:03:41.0    -444    -13   -257    445    513 268.3 -37.1  34146  289.35 0854.63
2009/04/23 15:03:41.1    -264    -20   -346    265    435 265.7 -63.1  34160  289.57 0854.61
2009/04/23 15:03:41.2    -237    -78   -170    250    302 251.6 -41.8  34156  289.49 0854.61
2009/04/23 15:03:41.3    -612     55   -239    615    659 275.2 -26.8  34138  289.21 0854.61
2009/04/23 15:03:41.4    -477      7   -349    478    591 270.9 -44.1  34156  289.51 0854.61
2009/04/23 15:03:41.5    -381     96   -242    393    461 284.2 -38.9  34166  289.66 0854.61
2009/04/23 15:03:41.6    -445   -111   -178    459    492 255.9 -26.8  34164  289.64 0854.61
2009/04/23 15:03:41.7    -549    -20   -184    550    579 267.9 -23.3  34166  289.68 0854.61
2009/04/23 15:03:41.8    -424    -74   -136    431    453 260.0 -17.6  34164  289.63 0854.61
2009/04/23 15:03:41.9    -344   -118   -226    364    428 250.9 -39.4  34174  289.82 0854.61
2009/04/23 15:03:42.0    -172    -46   -118    179    214 254.9 -40.7  34180  289.92 0854.61
2009/04/23 15:03:42.1    -237    117   -115    265    288 296.2 -29.5  34184  289.97 0854.61
2009/04/23 15:03:42.2     -93    167   -120    192    226 331.0 -39.9  34180  289.91 0854.61
2009/04/23 15:03:42.3     -71     98     10    122    123 324.0   5.0  34174  289.82 0854.61
2009/04/23 15:03:42.4      43     42     67     61     90  45.9  52.7  34184  289.97 0854.61
2009/04/23 15:03:42.5      71     31    -41     78     88  66.5 -34.2  34182  289.96 0854.61
2009/04/23 15:03:42.6      -9    -52   -103     53    115 190.7 -75.2  34184  289.99 0854.61
2009/04/23 15:03:42.7    -137    -59   -176    150    231 246.5 -59.8  34184  289.97 0854.61
2009/04/23 15:03:42.8    -138    -37   -140    143    200 254.9 -54.2  34182  289.96 0854.61
2009/04/23 15:03:42.9    -127    -56    -71    140    156 246.0 -33.1  34186  290.02 0854.61
2009/04/23 15:03:43.0      17     67    -65     70     95  14.3 -52.3  34186  290.01 0854.61
2009/04/23 15:03:43.1      68     78    -48    104    114  41.0 -31.5  34184  289.97 0854.59
2009/04/23 15:03:43.2     268     -3    -36    269    272  90.8  -7.7  34176  289.85 0854.59
2009/04/23 15:03:43.3     246    -97     47    265    270 111.5  10.1  34176  289.83 0854.59
2009/04/23 15:03:43.4     345   -112    -58    363    368 108.1  -9.1  34168  289.71 0854.59
2009/04/23 15:03:43.5     444    -61    -56    449    453  97.9  -7.2  34166  289.66 0854.59
2009/04/23 15:03:43.6     688   -210    -59    720    723 107.0  -4.7  34162  289.59 0854.59
2009/04/23 15:03:43.7     573   -110   -100    584    593 100.9  -9.8  34152  289.42 0854.59
2009/04/23 15:03:43.8     407   -148   -274    434    513 110.0 -39.7  34164  289.64 0854.59
2009/04/23 15:03:43.9     286    -93   -420    301    516 108.2 -65.5  34172  289.78 0854.59
2009/04/23 15:03:44.0     401   -174   -343    438    556 113.5 -46.5  34180  289.90 0854.59
2009/04/23 15:03:44.1     149   -280   -161    318    356 151.9 -33.5  34178  289.86 0854.59
2009/04/23 15:03:44.2     272   -223     37    352    355 129.3   6.1  34182  289.93 0854.59
2009/04/23 15:03:44.3     -27   -252     90    254    269 186.2  20.0  34174  289.80 0854.59
2009/04/23 15:03:44.4     154   -571    308    592    667 164.9  29.6  34188  290.04 0854.59
2009/04/23 15:03:44.5     165   -688    191    708    734 166.5  15.1  34184  289.98 0854.59
2009/04/23 15:03:44.6     288   -604    244    670    713 154.5  20.9  34192  290.10 0854.59
2009/04/23 15:03:44.7     493   -489    261    695    742 134.8  21.6  34200  290.25 0854.59
2009/04/23 15:03:44.8     272   -302    390    407    563 137.9  48.8  34190  290.08 0854.59
2009/04/23 15:03:44.9       0   -774    370    775    858 180.0  27.3  34194  290.14 0854.59
2009/04/23 15:03:45.0     165   -535    328    561    649 162.8  33.0  34184  289.99 0854.59
2009/04/23 15:03:45.1      81   -575    197    581    614 171.9  18.8  34200  290.25 0854.58
2009/04/23 15:03:45.2    -234   -585    -53    631    634 201.8  -4.8  34202  290.28 0854.58
2009/04/23 15:03:45.3    -233   -605     49    649    651 201.1   4.3  34212  290.45 0854.58
2009/04/23 15:03:45.4     -83   -823     47    828    830 185.8   3.3  34206  290.35 0854.58
2009/04/23 15:03:45.5    -205   -673   -106    704    712 197.0  -8.6  34208  290.39 0854.58
2009/04/23 15:03:45.6    -242   -523    -12    577    578 204.8  -1.3  34218  290.56 0854.58
2009/04/23 15:03:45.7    -231   -567   -210    613    649 202.2 -19.0  34200  290.25 0854.58
2009/04/23 15:03:45.8    -169   -523    -94    550    559 197.9  -9.8  34196  290.18 0854.58
2009/04/23 15:03:45.9     -68   -712    -48    716    718 185.5  -3.9  34176  289.84 0854.58
2009/04/23 15:03:46.0     118   -851     18    859    860 172.1   1.2  34184  289.98 0854.58
2009/04/23 15:03:46.1     175   -925     72    942    945 169.3   4.4  34164  289.64 0854.58
2009/04/23 15:03:46.2     113   -752    -46    761    763 171.4  -3.5  34164  289.63 0854.58
2009/04/23 15:03:46.3      66   -811   -124    814    824 175.3  -8.7  34154  289.48 0854.58
2009/04/23 15:03:46.4     198   -679   -119    708    719 163.7  -9.6  34164  289.64 0854.58
2009/04/23 15:03:46.5     148   -539    -61    560    564 164.6  -6.2  34162  289.62 0854.58
2009/04/23 15:03:46.6     271   -550   -175    614    639 153.7 -15.9  34160  289.57 0854.58
2009/04/23 15:03:46.7     296   -474   -168    559    583 148.0 -21.7  34164  289.64 0854.58
2009/04/23 15:03:46.8     225   -617   -134    658    672 159.9 -11.6  34152  289.43 0854.58
2009/04/23 15:03:46.9     186   -575    -81    605    611 162.1  -7.7  34152  289.44 0854.58
2009/04/23 15:03:47.0     197   -502    -68    540    545 158.6  -7.2  34154  289.46 0854.60
2009/04/23 15:03:47.1     163   -573    -40    596    598 164.1  -3.9  34172  289.78 0854.60
2009/04/23 15:03:47.2      78   -544   -128    550    565 171.8 -13.1  34172  289.77 0854.60
2009/04/23 15:03:47.3     194   -426     23    469    470 155.5   2.9  34146  289.34 0854.60
2009/04/23 15:03:47.4     232   -381     19    447    448 148.7   2.5  34148  289.38 0854.60
2009/04/23 15:03:47.5     243   -342     98    420    432 144.5  13.1  34154  289.46 0854.60
2009/04/23 15:03:47.6     296   -337    170    449    480 138.7  21.7  34154  289.47 0854.60
2009/04/23 15:03:47.7     355   -428    152    557    578 140.4  15.3  34164  289.64 0854.60
2009/04/23 15:03:47.8     165   -390    250    424    492 157.0  33.3  34162  289.62 0854.60
2009/04/23 15:03:47.9     126   -382    276    403    488 161.7  37.7  34176  289.83 0854.60
2009/04/23 15:03:48.0     157   -354    178    388    426 156.1  26.5  34174  289.80 0854.60
2009/04/23 15:03:48.1     438   -176    133    473    492 112.0  15.8  34172  289.76 0854.60
2009/04/23 15:03:48.2     333   -354     27    487    488 136.8   3.3  34172  289.76 0854.60
2009/04/23 15:03:48.3     292   -340     21    449    450 139.4   2.8  34174  289.82 0854.60
2009/04/23 15:03:48.4     243   -402    187    471    506 148.8  22.9  34168  289.71 0854.60
2009/04/23 15:03:48.5     277   -360    -13    455    456 142.4  -1.7  34166  289.68 0854.60
2009/04/23 15:03:48.6     167   -368    -17    405    406 155.5  -2.5  34174  289.82 0854.60
2009/04/23 15:03:48.7     234   -233     63    331    337 134.8  10.8  34178  289.86 0854.60
2009/04/23 15:03:48.8     276   -226    144    357    384 129.3  23.1  34178  289.89 0854.60
2009/04/23 15:03:48.9     258   -258    151    366    395 135.0  23.7  34188  290.06 0854.60
2009/04/23 15:03:49.0     339   -246     65    420    425 126.0   8.8  34184  289.99 0854.60
2009/04/23 15:03:49.1     298   -360     39    468    470 140.3   4.9  34172  289.78 0854.60
2009/04/23 15:03:49.2     130   -459      3    478    479 164.2   0.4  34172  289.76 0854.60
2009/04/23 15:03:49.3     144   -473     42    495    497 163.1   4.9  34174  289.81 0854.60
2009/04/23 15:03:49.4      96   -518    -17    527    528 169.4  -1.9  34174  289.82 0854.60
2009/04/23 15:03:49.5     186   -451     50    489    492 157.5   5.9  34172  289.79 0854.60
2009/04/23 15:03:49.6     199   -358    122    410    428 150.9  16.6  34170  289.73 0854.60
2009/04/23 15:03:49.7     180   -382    199    423    467 154.7  27.1  34174  289.80 0854.60
2009/04/23 15:03:49.8      89   -475    110    484    497 169.3  12.9  34198  290.22 0854.60
2009/04/23 15:03:49.9     143   -510    -55    530    533 164.3  -6.0  34194  290.16 0854.60
2009/04/23 15:03:50.0     166   -408     33    441    443 157.8   4.4  34194  290.16 0854.60
2009/04/23 15:03:50.1     116   -412    207    429    476 164.2  27.8  34184  289.97 0854.60
2009/04/23 15:03:50.2      62   -337    295    343    452 169.5  45.1  34190  290.09 0854.60
2009/04/23 15:03:50.3       7   -281    257    282    381 178.4  47.1  34196  290.18 0854.60
2009/04/23 15:03:50.4     -39   -281    338    284    441 188.0  56.0  34192  290.13 0854.60
2009/04/23 15:03:50.5     -41   -326    375    329    498 187.2  54.3  34188  290.05 0854.60
2009/04/23 15:03:50.6     -66   -423    445    429    618 188.9  51.2  34198  290.21 0854.60
2009/04/23 15:03:50.7     -31   -369    385    371    534 184.9  51.2  34200  290.25 0854.60
2009/04/23 15:03:50.8     -69   -391    410    398    571 190.1  51.2  34198  290.23 0854.60
2009/04/23 15:03:50.9     167   -312    302    355    466 151.8  44.8  34192  290.12 0854.60
2009/04/23 15:03:51.0     310   -395    295    503    583 141.9  33.1  34190  290.09 0854.63
2009/04/23 15:03:51.1      80   -238    146    252    291 161.3  33.1  34182  289.93 0854.63
2009/04/23 15:03:51.2      46   -181    223    187    291 165.5  56.1  34198  290.22 0854.63
2009/04/23 15:03:51.3      61   -301    146    308    340 168.5  27.2  34200  290.25 0854.63
2009/04/23 15:03:51.4     -83   -503    177    510    541 189.4  19.2  34194  290.16 0854.63
2009/04/23 15:03:51.5     -67   -478    223    483    531 188.0  26.6  34202  290.30 0854.63
2009/04/23 15:03:51.6      33   -408    208    410    459 175.3  29.2  34194  290.16 0854.63
2009/04/23 15:03:51.7     155   -387    275    418    500 158.2  36.4  34190  290.08 0854.63
2009/04/23 15:03:51.8     228   -425    170    483    513 151.8  19.4  34186  290.01 0854.63
2009/04/23 15:03:51.9      39   -338    175    341    383 173.3  29.3  34194  290.15 0854.63
2009/04/23 15:03:52.0     125   -214    157    248    293 149.7  35.5  34198  290.22 0854.63
2009/04/23 15:03:52.1     150   -302    222    338    404 153.6  36.5  34200  290.25 0854.63
2009/04/23 15:03:52.2     102   -431    132    444    464 166.6  16.6  34202  290.28 0854.63
2009/04/23 15:03:52.3     -30   -359    238    361    432 184.9  36.5  34206  290.36 0854.63
2009/04/23 15:03:52.4      -3   -139    212    140    254 181.4  63.6  34216  290.53 0854.63
2009/04/23 15:03:52.5     -10    -92    147     93    173 186.2  64.7  34218  290.55 0854.63
2009/04/23 15:03:52.6      20    -79    125     82    149 165.7  64.6  34224  290.67 0854.63
2009/04/23 15:03:52.7     -10   -100    146    101    177 185.8  62.1  34232  290.81 0854.63
2009/04/23 15:03:52.8     -94   -160      6    186    187 210.5   2.1  34212  290.45 0854.63
2009/04/23 15:03:52.9    -127   -261     35    291    294 205.9   6.9  34216  290.53 0854.63
2009/04/23 15:03:53.0    -204   -318     30    379    381 212.7   4.6  34212  290.45 0854.64
2009/04/23 15:03:53.1    -153   -279     62    319    326 208.8  11.1  34214  290.49 0854.64
2009/04/23 15:03:53.2    -149   -390    106    418    432 201.0  14.3  34216  290.53 0854.64
2009/04/23 15:03:53.3    -203   -203     73    288    298 225.1  14.3  34210  290.41 0854.64
2009/04/23 15:03:53.4    -148   -240     77    283    294 211.6  15.3  34212  290.44 0854.64
2009/04/23 15:03:53.5    -131   -171    -77    216    229 217.4 -24.6  34212  290.45 0854.64
2009/04/23 15:03:53.6    -136   -127    -90    187    207 226.9 -31.7  34228  290.74 0854.64
2009/04/23 15:03:53.7    -168    114   -100    204    227 304.1 -32.2  34222  290.64 0854.64
2009/04/23 15:03:53.8     -47    143    -58    151    161 341.7 -26.4  34232  290.79 0854.64
2009/04/23 15:03:53.9     -11    -94    -33     95    101 186.7 -19.6  34220  290.60 0854.64
2009/04/23 15:03:54.0     -10   -146    -63    147    159 184.0 -29.0  34216  290.53 0854.64
2009/04/23 15:03:54.1      77   -121    -10    144    145 147.5  -4.1  34218  290.55 0854.64
2009/04/23 15:03:54.2     163    -31     17    167    168 101.0   6.1  34220  290.60 0854.64
2009/04/23 15:03:54.3      41    -87     40     97    104 154.7  23.0  34224  290.65 0854.64
2009/04/23 15:03:54.4     115   -166      1    202    203 145.3   0.5  34216  290.53 0854.64
2009/04/23 15:03:54.5     167    -95     73    193    206 119.5  21.7  34220  290.60 0854.64
2009/04/23 15:03:54.6     196      0     96    197    219  89.9  27.8  34206  290.35 0854.64
2009/04/23 15:03:54.7     145     39    154    151    215  74.9  50.4  34214  290.50 0854.64
2009/04/23 15:03:54.8      85    145    204    169    264  30.5  56.3  34222  290.61 0854.64
2009/04/23 15:03:54.9     207     75    187    221    289  70.0  44.5  34196  290.17 0854.64
2009/04/23 15:03:55.0     239     69    199    249    318  73.8  42.7  34198  290.22 0854.61
2009/04/23 15:03:55.1     145    120    222    189    291  50.5  55.4  34224  290.66 0854.61
2009/04/23 15:03:55.2     117     38    163    124    204  71.8  59.0  34218  290.57 0854.61
2009/04/23 15:03:55.3      72     45    151     86    173  58.0  67.7  34214  290.48 0854.61
2009/04/23 15:03:55.4      82    170    110    190    219  25.9  32.7  34220  290.60 0854.61
2009/04/23 15:03:55.5     139    155    162    209    264  41.9  41.7  34208  290.39 0854.61
2009/04/23 15:03:55.6     179     84    113    198    227  64.7  32.1  34202  290.30 0854.61
2009/04/23 15:03:55.7     150    126      4    196    197  50.0   1.2  34218  290.57 0854.61
2009/04/23 15:03:55.8      72    132     65    151    164  28.9  24.9  34218  290.55 0854.61
2009/04/23 15:03:55.9       9    106    121    107    161   4.9  53.7  34230  290.75 0854.61
2009/04/23 15:03:56.0      13     42    105     45    114  17.8  76.1  34232  290.79 0854.61
2009/04/23 15:03:56.1      31     55     92     64    112  29.0  61.5  34244  290.99 0854.61
2009/04/23 15:03:56.2       0     62     96     63    114 359.1  64.6  34246  291.04 0854.61
2009/04/23 15:03:56.3      78     87    150    117    190  41.9  57.9  34266  291.37 0854.61
2009/04/23 15:03:56.4     -44    155     87    162    183 344.2  30.8  34258  291.23 0854.61
2009/04/23 15:03:56.5     -33    163     20    167    169 348.4   6.9  34250  291.09 0854.61
2009/04/23 15:03:56.6     -67    189     18    201    202 340.4   5.2  34266  291.37 0854.61
2009/04/23 15:03:56.7    -127    196    -30    234    236 327.0  -7.3  34260  291.27 0854.61
2009/04/23 15:03:56.8    -178    148    131    232    266 309.6  31.9  34238  290.88 0854.61
2009/04/23 15:03:56.9     -47    305    100    309    325 351.1  18.0  34228  290.71 0854.61
2009/04/23 15:03:57.0     -67    334    197    341    393 348.6  32.7  34308  292.10 0854.61
2009/04/23 15:03:57.1      70    365    271    372    460  10.9  39.7  34296  291.89 0854.61
2009/04/23 15:03:57.2      16    411    209    412    461   2.2  29.1  34296  291.89 0854.61
2009/04/23 15:03:57.3     -33    441    204    443    487 355.6  26.5  34332  292.48 0854.61
2009/04/23 15:03:57.4      38    537    189    539    571   4.1  20.1  34348  292.78 0854.61
2009/04/23 15:03:57.5      59    416    236    421    482   8.1  31.9  34350  292.79 0854.61
2009/04/23 15:03:57.6     149    447    229    472    524  18.4  27.8  34388  293.45 0854.61
2009/04/23 15:03:57.7     149    517    222    539    582  16.1  23.6  34422  294.04 0854.61
2009/04/23 15:03:57.8     233    336    280    410    496  34.7  37.6  34356  292.89 0854.61
2009/04/23 15:03:57.9     173    461    270    493    562  20.6  31.3  34336  292.57 0854.61
2009/04/23 15:03:58.0     134    439    225    460    512  17.0  28.0  34404  293.71 0854.61
2009/04/23 15:03:58.1     268    418    223    497    544  32.7  25.8  34372  293.17 0854.61
2009/04/23 15:03:58.2      93    349     68    362    369  15.0  10.7  34352  292.82 0854.61
2009/04/23 15:03:58.3       5    377     -4    378    379   0.9  -0.7  34298  291.91 0854.61
2009/04/23 15:03:58.4     204    457    179    501    532  24.1  20.4  34308  292.10 0854.61
2009/04/23 15:03:58.5     234    324    137    400    423  35.9  18.9  34314  292.18 0854.61
2009/04/23 15:03:58.6     311    205    198    373    422  56.6  30.2  34296  291.87 0854.61
2009/04/23 15:03:58.7     549    260    234    608    651  64.6  22.2  34322  292.34 0854.61
2009/04/23 15:03:58.8     476    309    257    568    623  57.0  25.9  34322  292.31 0854.61
2009/04/23 15:03:58.9     455    393    -12    602    603  49.2  -1.2  34312  292.14 0854.61
2009/04/23 15:03:59.0     444    366    208    576    613  50.5  19.9  34282  291.63 0854.61
2009/04/23 15:03:59.1     539    496    259    733    777  47.4  20.2  34248  291.06 0854.61
2009/04/23 15:03:59.2     367    579     31    686    687  32.4   2.6  34222  290.63 0854.61
2009/04/23 15:03:59.3     337    685    179    764    785  26.2  13.2  34218  290.56 0854.61
2009/04/23 15:03:59.4     286    598    208    664    696  25.6  17.4  34218  290.55 0854.61
2009/04/23 15:03:59.5     145    414      7    439    440  19.4   1.0  34230  290.77 0854.61
2009/04/23 15:03:59.6      40    376   -138    379    403   6.1 -25.3  34242  290.96 0854.61
2009/04/23 15:03:59.7     -84    191    -26    209    211 336.2  -7.3  34224  290.65 0854.61
2009/04/23 15:03:59.8     449    184    -27    486    487  67.7  -3.2  34222  290.61 0854.61
2009/04/23 15:03:59.9     657     93      2    664    665  81.9   0.2  34218  290.55 0854.61
2009/04/23 15:04:00.0     723    146     -9    738    739  78.6  -0.7  34194  290.14 0854.60
2009/04/23 15:04:00.1     684    150    120    701    712  77.6   9.7  34184  289.98 0854.60
2009/04/23 15:04:00.2     550    270    177    613    639  63.8  16.1  34194  290.15 0854.60
2009/04/23 15:04:00.3     522    402     96    660    668  52.4   8.3  34200  290.26 0854.60
2009/04/23 15:04:00.4     534    350    217    639    676  56.7  18.8  34192  290.12 0854.60
2009/04/23 15:04:00.5     331    477    354    581    680  34.8  34.2  34224  290.65 0854.60
2009/04/23 15:04:00.6     507    274    214    577    615  61.6  21.1  34242  290.97 0854.60
2009/04/23 15:04:00.7     602    315    246    680    724  62.4  19.9  34256  291.20 0854.60
2009/04/23 15:04:00.8     499    496    321    704    773  45.2  26.3  34286  291.72 0854.60
2009/04/23 15:04:00.9     425    539    244    687    729  38.3  20.3  34288  291.75 0854.60
2009/04/23 15:04:01.0     336    490    151    595    615  34.5  14.3  34296  291.89 0854.60
2009/04/23 15:04:01.1     583    550     25    802    803  46.7   1.8  34202  290.30 0854.60
2009/04/23 15:04:01.2     638    580     25    863    864  47.7   1.7  34232  290.80 0854.60
2009/04/23 15:04:01.3     288    759    -44    812    814  20.8  -3.1  34170  289.75 0854.60
2009/04/23 15:04:01.4     272    660    -76    714    719  22.4  -6.1  34178  289.86 0854.60
2009/04/23 15:04:01.5     286    508    -78    584    590  29.4  -7.7  34170  289.75 0854.60
2009/04/23 15:04:01.6     246    390     -8    462    463  32.2  -1.1  34166  289.68 0854.60
2009/04/23 15:04:01.7     215    336    -15    400    401  32.6  -2.2  34174  289.82 0854.60
2009/04/23 15:04:01.8     334    345     93    481    490  44.0  11.0  34170  289.74 0854.60
2009/04/23 15:04:01.9     326    315     39    454    456  45.9   5.0  34162  289.61 0854.60
2009/04/23 15:04:02.0     360    448     52    575    578  38.8   5.2  34168  289.71 0854.57
2009/04/23 15:04:02.1     388    454    230    598    640  40.5  22.1  34228  290.72 0854.57
2009/04/23 15:04:02.2     465    506     69    688    692  42.5   5.8  34220  290.60 0854.57
2009/04/23 15:04:02.3     303    500    206    585    621  31.2  19.4  34198  290.20 0854.57
2009/04/23 15:04:02.4     172    430    144    464    486  21.8  17.3  34208  290.39 0854.57
2009/04/23 15:04:02.5     341    316     30    466    467  47.2   3.7  34250  291.10 0854.57
2009/04/23 15:04:02.6     211    330    110    392    408  32.6  15.7  34278  291.57 0854.57
2009/04/23 15:04:02.7     207    279    191    348    396  36.5  31.3  34292  291.83 0854.57
2009/04/23 15:04:02.8     359    511    160    625    646  35.1  14.4  34258  291.23 0854.57
2009/04/23 15:04:02.9     436    533    113    689    699  39.3   9.3  34168  289.70 0854.57
2009/04/23 15:04:03.0     359    545    109    653    663  33.4   9.5  34142  289.26 0854.57
2009/04/23 15:04:03.1     342    502     96    608    616  34.3   9.0  34224  290.66 0854.57
2009/04/23 15:04:03.2     417    508    207    658    690  39.4  17.5  34156  289.51 0854.57
2009/04/23 15:04:03.3     197    543    147    578    597  20.0  14.3  34154  289.46 0854.57
2009/04/23 15:04:03.4     165    545     23    570    571  16.9   2.4  34162  289.59 0854.57
2009/04/23 15:04:03.5     122    444     67    461    466  15.4   8.3  34174  289.81 0854.57
2009/04/23 15:04:03.6     214    242     59    324    330  41.4  10.4  34222  290.63 0854.57
2009/04/23 15:04:03.7     255    226    109    342    359  48.4  17.7  34252  291.13 0854.57
2009/04/23 15:04:03.8     442    237    108    502    514  61.8  12.2  34258  291.24 0854.57
2009/04/23 15:04:03.9     521    215    206    564    600  67.6  21.0  34294  291.85 0854.57
2009/04/23 15:04:04.0     500    204    152    540    562  67.8  15.8  34310  292.11 0854.58
2009/04/23 15:04:04.1     334    194    115    387    404  59.8  16.6  34314  292.19 0854.58
2009/04/23 15:04:04.2     241    264    167    358    395  42.4  26.6  34278  291.59 0854.58
2009/04/23 15:04:04.3     579    497     81    764    769  49.4   6.1  34226  290.70 0854.58
2009/04/23 15:04:04.4     364    521     32    636    637  35.0   2.9  34168  289.72 0854.58
2009/04/23 15:04:04.5     413    533    123    675    687  37.8  10.3  34232  290.80 0854.58
2009/04/23 15:04:04.6     574    473    320    745    810  50.5  24.6  34286  291.71 0854.58
2009/04/23 15:04:04.7     528    502     47    729    731  46.4   3.7  34252  291.13 0854.58
2009/04/23 15:04:04.8     300    525     95    605    613  29.8   9.0  34308  292.09 0854.58
2009/04/23 15:04:04.9     415    436     94    603    611  43.6   8.9  34266  291.38 0854.58
2009/04/23 15:04:05.1     444    228     85    500    508  62.8   9.7  34304  292.02 0854.58
2009/04/23 15:04:05.1     550    303    138    629    645  61.1  12.4  34268  291.40 0854.58
2009/04/23 15:04:05.2     390    456    156    601    622  40.6  14.6  34188  290.06 0854.58
2009/04/23 15:04:05.3     295    389    171    489    518  37.2  20.0  34166  289.66 0854.58
2009/04/23 15:04:05.4     214    521     85    564    571  22.3   8.6  34156  289.50 0854.58
2009/04/23 15:04:05.5     198    458    107    500    512  23.4  12.1  34156  289.50 0854.58
2009/04/23 15:04:05.7     289    470     92    552    560  31.6   9.5  34192  290.13 0854.58
2009/04/23 15:04:05.7     257    614    130    666    679  22.7  11.1  34170  289.73 0854.58
2009/04/23 15:04:05.8     353    620     64    714    717  29.6   5.2  34260  291.27 0854.58
2009/04/23 15:04:06.0     351    329    -18    482    483  46.8  -2.2  34288  291.75 0854.58
2009/04/23 15:04:06.0     370    362    -37    518    520  45.6  -4.1  34276  291.55 0854.58
2009/04/23 15:04:06.2     307    414    -89    516    524  36.6  -9.8  34250  291.11 0854.58
2009/04/23 15:04:06.3     207    330    -36    390    392  32.1  -5.4  34248  291.06 0854.58
2009/04/23 15:04:06.4     232    276    -99    361    375  40.1 -15.4  34234  290.84 0854.58
2009/04/23 15:04:06.5     284    207      6    352    353  53.9   1.1  34290  291.79 0854.58
2009/04/23 15:04:06.6     370    289    161    470    497  52.0  18.9  34320  292.29 0854.58
2009/04/23 15:04:06.7     298    246    158    387    418  50.5  23.4  34270  291.43 0854.58
2009/04/23 15:04:06.8     255    295    136    391    415  40.9  19.2  34304  292.03 0854.58
2009/04/23 15:04:06.9     207    301    132    366    389  34.5  20.7  34230  290.77 0854.58
2009/04/23 15:04:07.0     332    359    134    490    509  42.8  15.3  34228  290.71 0854.58
2009/04/23 15:04:07.1     311    303    145    435    459  45.7  18.5  34248  291.06 0854.58
2009/04/23 15:04:07.2     242    274     12    366    367  41.5   1.9  34250  291.10 0854.58
2009/04/23 15:04:07.3     248    193     13    315    316  52.0   2.4  34298  291.90 0854.58
2009/04/23 15:04:07.4     242     88    204    258    328  70.0  42.4  34338  292.60 0854.58
2009/04/23 15:04:07.5      41     36    187     55    194  48.7  82.8  34332  292.49 0854.58
2009/04/23 15:04:07.6     304    165    285    347    449  61.5  43.7  34314  292.18 0854.58
2009/04/23 15:04:07.7     380    223    138    441    463  59.6  17.4  34348  292.76 0854.58
2009/04/23 15:04:07.8     391    207     -8    443    444  62.0  -1.2  34318  292.25 0854.58
2009/04/23 15:04:07.9     290    307    -46    423    426  43.3  -6.2  34320  292.28 0854.58
2009/04/23 15:04:08.0     319    170    -32    362    364  61.9  -5.1  34302  291.98 0854.58
2009/04/23 15:04:08.1     485    297     46    569    571  58.5   4.7  34316  292.21 0854.54
2009/04/23 15:04:08.2     480    267     95    550    559  60.9   9.9  34344  292.69 0854.54
2009/04/23 15:04:08.3     575    183     30    604    605  72.3   2.9  34358  292.94 0854.54
2009/04/23 15:04:08.4     404    293   -177    500    531  54.1 -19.6  34264  291.35 0854.54
2009/04/23 15:04:08.5     262    385     87    466    474  34.3  10.6  34268  291.41 0854.54
2009/04/23 15:04:08.6     358    142     12    386    387  68.3   1.8  34300  291.95 0854.54
2009/04/23 15:04:08.7     278    176    -56    330    335  57.6  -9.8  34322  292.34 0854.54
2009/04/23 15:04:08.8     335    350     24    485    486  43.8   2.9  34288  291.76 0854.54
2009/04/23 15:04:08.9     190    309    146    363    391  31.6  23.1  34164  289.65 0854.54
2009/04/23 15:04:09.0     173    254   -134    308    335  34.2 -29.4  34176  289.83 0854.54
2009/04/23 15:04:09.1      25    222    -81    224    238   6.5 -25.1  34186  290.02 0854.54
2009/04/23 15:04:09.2     113    243     -8    268    269  24.9  -1.8  34168  289.71 0854.54
2009/04/23 15:04:09.3      44    175    -16    181    182  14.3  -5.4  34182  289.94 0854.54
2009/04/23 15:04:09.4      12     86     87     87    123   8.5  50.1  34198  290.23 0854.54
2009/04/23 15:04:09.5     166    135    122    215    247  50.9  32.3  34254  291.17 0854.54
2009/04/23 15:04:09.6     288      8    186    289    343  88.3  35.6  34286  291.70 0854.54
2009/04/23 15:04:09.7     287      0    176    288    337  89.9  34.3  34314  292.18 0854.54
2009/04/23 15:04:09.8     192     76    198    207    286  68.3  48.7  34316  292.21 0854.54
2009/04/23 15:04:09.9     191     67    188    203    276  70.7  47.9  34312  292.14 0854.54
2009/04/23 15:04:10.0     318     50    164    322    361  81.0  29.2  34334  292.53 0854.54
2009/04/23 15:04:10.1     294     93    261    309    404  72.3  44.5  34350  292.80 0854.50
2009/04/23 15:04:10.2     166     82    167    186    249  63.6  46.6  34328  292.44 0854.50
2009/04/23 15:04:10.3     175     94    181    199    269  61.6  47.0  34338  292.60 0854.50
2009/04/23 15:04:10.4     136    -24    272    139    305 100.1  71.0  34312  292.16 0854.50
2009/04/23 15:04:10.5     196    -91    167    217    273 114.8  41.6  34288  291.75 0854.50
2009/04/23 15:04:10.6     211    -82    -22    227    229 111.3  -5.6  34294  291.84 0854.50
2009/04/23 15:04:10.7     127   -107     21    167    169 130.2   7.5  34276  291.55 0854.50
2009/04/23 15:04:10.8      66    -88     60    111    126 143.0  30.8  34264  291.35 0854.50
2009/04/23 15:04:10.9      -7    -96     55     97    111 184.4  31.9  34258  291.25 0854.50
2009/04/23 15:04:11.0      -7    -90     74     91    117 184.5  43.7  34260  291.28 0854.50
2009/04/23 15:04:11.1      10   -136     55    137    147 175.6  23.0  34286  291.71 0854.50
2009/04/23 15:04:11.2      65     41    -20     77     80  57.6 -14.5  34294  291.84 0854.50
2009/04/23 15:04:11.3     189     89     71    209    222  64.8  18.9  34290  291.79 0854.50
2009/04/23 15:04:11.4     152     51    120    161    200  71.4  40.4  34292  291.81 0854.50
2009/04/23 15:04:11.5     210     99     82    233    247  64.6  20.0  34294  291.85 0854.50
2009/04/23 15:04:11.6     228    117     88    257    272  62.7  18.9  34314  292.19 0854.50
2009/04/23 15:04:11.7     153     60    134    165    212  68.3  43.7  34320  292.29 0854.50
2009/04/23 15:04:11.8      13     88    104     89    136   8.5  55.4  34318  292.27 0854.50
2009/04/23 15:04:11.9      68     75     87    102    134  42.3  44.8  34318  292.27 0854.50
2009/04/23 15:04:12.0      69    114    150    134    201  31.2  53.7  34324  292.37 0854.50
2009/04/23 15:04:12.1     159    129    156    205    257  50.9  40.9  34338  292.60 0854.47
2009/04/23 15:04:12.2      21    141    175    143    225   8.5  56.4  34334  292.54 0854.47
2009/04/23 15:04:12.3     -12    190    195    191    272 356.4  50.4  34330  292.47 0854.47
2009/04/23 15:04:12.4     -96    197    115    220    248 333.9  29.8  34294  291.84 0854.47
2009/04/23 15:04:12.5     -59     92    113    110    157 327.4  50.9  34306  292.06 0854.47
2009/04/23 15:04:12.6     -27    123     96    127    159 347.5  40.9  34324  292.35 0854.47
2009/04/23 15:04:12.7     -53    180    119    188    222 343.3  35.5  34310  292.13 0854.47
2009/04/23 15:04:12.8       9    236     55    237    244   2.2  13.1  34294  291.85 0854.47
2009/04/23 15:04:12.9     -40    178     41    183    188 347.3  12.6  34264  291.35 0854.47
2009/04/23 15:04:13.0     -55    152     85    162    182 339.9  30.1  34292  291.83 0854.47
2009/04/23 15:04:13.1     -66    206    106    217    241 342.2  28.0  34274  291.50 0854.47
2009/04/23 15:04:13.2     -61    159    117    171    207 338.8  37.6  34288  291.76 0854.47
2009/04/23 15:04:13.3     -65    110    130    128    182 329.3  50.1  34304  292.03 0854.47
2009/04/23 15:04:13.4      68     82     58    107    121  39.7  30.8  34302  292.00 0854.47
2009/04/23 15:04:13.5      75     57     45     95    105  52.7  27.2  34290  291.79 0854.47
2009/04/23 15:04:13.6      87     32     92     93    130  69.6  50.0  34316  292.23 0854.47
2009/04/23 15:04:13.7     139     34     73    144    161  76.3  28.7  34326  292.40 0854.47
2009/04/23 15:04:13.8     170     55     89    179    199  71.8  28.5  34344  292.69 0854.47
2009/04/23 15:04:13.9     164     72    158    180    239  66.3  45.8  34362  293.02 0854.47
2009/04/23 15:04:14.0     150     11    162    151    221  85.7  52.2  34376  293.24 0854.48
2009/04/23 15:04:14.1     158    -42    165    164    232 105.1  50.1  34318  292.25 0854.48
2009/04/23 15:04:14.2     171    -44    190    177    259 104.6  52.2  34292  291.82 0854.48
2009/04/23 15:04:14.3      25     11    101     28    104  66.5  84.4  34310  292.13 0854.48
2009/04/23 15:04:14.4     115   -114    137    163    212 134.8  44.1  34292  291.83 0854.48
2009/04/23 15:04:14.5     111    -86    104    141    175 127.8  40.1  34284  291.69 0854.48
2009/04/23 15:04:14.6     152    -43    105    159    190 105.9  36.5  34280  291.60 0854.48
2009/04/23 15:04:14.7     128     -4     55    129    140  92.1  24.6  34324  292.37 0854.48
2009/04/23 15:04:14.8     115      1    118    116    165  89.2  49.9  34314  292.18 0854.48
2009/04/23 15:04:14.9     134    -16    154    136    205  97.0  54.2  34300  291.95 0854.48
2009/04/23 15:04:15.0     151     11    162    152    222  85.6  52.1  34278  291.59 0854.48
2009/04/23 15:04:15.1      90    -30    134     95    164 108.6  61.5  34288  291.76 0854.48
2009/04/23 15:04:15.2     125     75    131    147    196  58.9  46.4  34326  292.39 0854.48
2009/04/23 15:04:15.3     204    152    156    255    298  53.4  34.4  34352  292.82 0854.48
2009/04/23 15:04:15.4     170    194    141    259    294  41.2  31.3  34362  292.99 0854.48
2009/04/23 15:04:15.5     146    146    153    207    257  44.9  40.1  34372  293.18 0854.48
2009/04/23 15:04:15.6     166     12    148    167    223  85.6  46.2  34364  293.05 0854.48
2009/04/23 15:04:15.7     202    -42    181    207    274 101.9  45.8  34336  292.55 0854.48
2009/04/23 15:04:15.8     271    -16    124    272    298  93.4  26.2  34302  291.99 0854.48
2009/04/23 15:04:15.9     239    -15     84    240    254  93.7  20.0  34296  291.89 0854.48
2009/04/23 15:04:16.0     154     26     83    157    177  80.3  30.3  34300  291.96 0854.50
2009/04/23 15:04:16.1     195    -27     82    197    213  97.9  23.6  34296  291.88 0854.50
2009/04/23 15:04:16.2     180    -44     78    186    201 103.9  24.1  34276  291.54 0854.50
2009/04/23 15:04:16.3     166    -22    146    168    222  97.7  45.8  34286  291.72 0854.50
2009/04/23 15:04:16.4     199    -43    110    204    231 102.4  31.0  34292  291.83 0854.50
2009/04/23 15:04:16.5     175    -11     26    176    178  93.7   8.5  34292  291.83 0854.50
2009/04/23 15:04:16.6     162     19     81    164    182  83.2  28.0  34290  291.79 0854.50
2009/04/23 15:04:16.7     159      2    139    160    211  89.2  45.6  34290  291.79 0854.50
2009/04/23 15:04:16.8     127     12    123    128    177  84.3  48.7  34286  291.71 0854.50
2009/04/23 15:04:16.9      90     37    109     98    146  67.4  53.3  34288  291.76 0854.50
2009/04/23 15:04:17.0      94     44     78    104    130  64.8  41.2  34282  291.64 0854.50
2009/04/23 15:04:17.1      95      8     40     96    104  85.2  23.1  34278  291.57 0854.50
2009/04/23 15:04:17.2     143    -11     83    144    166  94.4  32.7  34268  291.40 0854.50
2009/04/23 15:04:17.3     138     -4     58    139    150  91.7  23.6  34270  291.45 0854.50
2009/04/23 15:04:17.4     120     21     61    122    136  79.9  28.2  34266  291.37 0854.50
2009/04/23 15:04:17.5     139     34     86    144    167  76.3  34.0  34270  291.45 0854.50
2009/04/23 15:04:17.6     161      2    140    162    214  89.2  45.4  34286  291.71 0854.50
2009/04/23 15:04:17.7      -7    -10    115     13    115 216.1  90.0  34306  292.05 0854.50
2009/04/23 15:04:17.8     104    -41    140    112    179 111.7  57.1  34296  291.89 0854.50
2009/04/23 15:04:17.9      33     26     91     43    100  51.4  72.9  34300  291.96 0854.50
2009/04/23 15:04:18.0     108    -20    147    110    183 100.6  59.8  34286  291.72 0854.53
2009/04/23 15:04:18.1     148    -49     99    157    185 108.4  35.5  34284  291.67 0854.53
2009/04/23 15:04:18.2     125    -37    114    131    173 106.8  45.6  34302  292.00 0854.53
2009/04/23 15:04:18.3      77   -100    135    127    185 142.6  52.0  34340  292.64 0854.53
2009/04/23 15:04:18.4      10   -129    141    130    191 175.5  52.5  34340  292.63 0854.53
2009/04/23 15:04:18.5      14   -131    201    132    240 173.7  63.6  34340  292.64 0854.53
2009/04/23 15:04:18.6      11   -101    181    102    207 173.3  68.3  34338  292.59 0854.53
2009/04/23 15:04:18.7      14   -114    154    115    192 172.9  59.8  34340  292.63 0854.53
2009/04/23 15:04:18.8     -24   -233    181    235    296 186.0  41.6  34372  293.18 0854.53
2009/04/23 15:04:18.9     -95   -242     60    261    268 201.6  13.1  34354  292.87 0854.53
2009/04/23 15:04:19.0     -39   -171     56    176    185 193.1  17.9  34368  293.12 0854.53
2009/04/23 15:04:19.1     147    -64     41    161    167 113.6  14.3  34360  292.98 0854.53
2009/04/23 15:04:19.2     -35   -147    152    152    214 193.4  50.1  34362  293.02 0854.53
2009/04/23 15:04:19.3     -42   -224    205    229    307 190.7  46.6  34346  292.74 0854.53
2009/04/23 15:04:19.4     -86   -243    266    258    370 199.6  50.9  34322  292.34 0854.53
2009/04/23 15:04:19.5     -42   -287    228    291    369 188.5  42.1  34322  292.31 0854.53
2009/04/23 15:04:19.6     -64   -238    187    247    309 195.1  40.9  34326  292.40 0854.53
2009/04/23 15:04:19.7       3   -256    137    257    291 179.3  30.3  34332  292.48 0854.53
2009/04/23 15:04:19.8     133   -108    217    172    276 129.3  57.7  34318  292.26 0854.53
2009/04/23 15:04:19.9     253   -110    205    276    343 113.5  40.2  34306  292.04 0854.53
2009/04/23 15:04:20.0     214   -141    212    257    333 123.5  43.7  34284  291.68 0854.53
2009/04/23 15:04:20.1     176   -184    212    255    331 136.3  44.0  34282  291.63 0854.53
2009/04/23 15:04:20.2      83   -174    164    193    253 154.4  44.8  34278  291.56 0854.53
2009/04/23 15:04:20.3     -20    -57    133     61    146 199.2  73.1  34294  291.86 0854.53
2009/04/23 15:04:20.4     -14   -135    110    136    174 186.3  43.5  34272  291.49 0854.53
2009/04/23 15:04:20.5      -6    -31    108     32    112 191.5  82.8  34300  291.95 0854.53
2009/04/23 15:04:20.6     -37   -155    230    160    280 193.4  62.1  34332  292.48 0854.53
2009/04/23 15:04:20.7    -125    -92    224    156    272 233.6  61.8  34318  292.24 0854.53
2009/04/23 15:04:20.8    -282   -216    154    356    387 232.5  25.1  34312  292.17 0854.53
2009/04/23 15:04:20.9    -330   -201     93    387    398 238.7  13.5  34308  292.10 0854.53
2009/04/23 15:04:21.0    -287   -213     46    358    362 233.4   7.4  34308  292.07 0854.53
2009/04/23 15:04:21.1    -310   -272    221    413    468 228.7  30.5  34252  291.12 0854.53
2009/04/23 15:04:21.2    -190   -331    282    382    474 209.9  40.1  34264  291.35 0854.53
2009/04/23 15:04:21.3     -33   -331    226    333    402 185.8  37.4  34242  290.98 0854.53
2009/04/23 15:04:21.4    -137   -410    252    433    500 198.6  32.9  34228  290.71 0854.53
2009/04/23 15:04:21.5     -22   -292    195    293    351 184.4  36.9  34234  290.84 0854.53
2009/04/23 15:04:21.6    -134   -242    146    277    313 209.0  30.0  34232  290.80 0854.53
2009/04/23 15:04:21.7     -84   -206    147    223    267 202.3  36.5  34232  290.78 0854.53
2009/04/23 15:04:21.8    -239   -168    141    293    325 234.9  27.4  34284  291.68 0854.53
2009/04/23 15:04:21.9    -275   -168     88    323    335 238.5  15.3  34294  291.86 0854.53
2009/04/23 15:04:22.0    -324    -31    -12    326    327 264.5  -2.2  34308  292.07 0854.54
2009/04/23 15:04:22.1    -310      0     -1    311    312 270.0  -0.4  34312  292.16 0854.54
2009/04/23 15:04:22.2    -315    -64     32    322    324 258.5   5.7  34324  292.36 0854.54
2009/04/23 15:04:22.3    -313      0     12    314    315 270.1   2.3  34308  292.09 0854.54
2009/04/23 15:04:22.4    -276    -10    -65    277    285 267.9 -13.3  34298  291.90 0854.54
2009/04/23 15:04:22.5    -338     60     22    344    345 280.1   3.8  34298  291.91 0854.54
2009/04/23 15:04:22.6    -351     92     31    363    365 284.8   5.0  34288  291.74 0854.54
2009/04/23 15:04:22.7    -296     41      0    299    300 277.9   0.0  34278  291.58 0854.54
2009/04/23 15:04:22.8    -254    107    -11    276    277 292.8  -2.3  34282  291.65 0854.54
2009/04/23 15:04:22.9    -234    164      2    286    287 305.1   0.5  34292  291.80 0854.54
2009/04/23 15:04:23.0    -183    187    -72    262    272 315.7 -15.5  34298  291.92 0854.55
2009/04/23 15:04:23.1    -257    195    -53    323    328 307.2  -9.3  34286  291.70 0854.55
2009/04/23 15:04:23.2    -130    219     89    255    271 329.2  19.2  34292  291.80 0854.55
2009/04/23 15:04:23.3    -138    242     44    279    283 330.2   9.0  34274  291.51 0854.55
2009/04/23 15:04:23.4    -116    235    -47    263    268 333.7 -10.3  34258  291.22 0854.55
2009/04/23 15:04:23.5    -117    305   -108    327    345 339.0 -18.3  34254  291.17 0854.55
2009/04/23 15:04:23.6     -87    292   -109    305    324 343.3 -19.7  34258  291.24 0854.55
2009/04/23 15:04:23.7     -22    324    -58    325    331 356.0 -10.2  34288  291.73 0854.55
2009/04/23 15:04:23.8      12    270     -1    271    272   2.7  -0.3  34282  291.65 0854.55
2009/04/23 15:04:23.9     -23    263    -82    265    277 354.9 -21.8  34260  291.26 0854.55
2009/04/23 15:04:24.0      48    167    -93    174    197  16.3 -35.0  34260  291.26 0854.55
2009/04/23 15:04:24.1    -156     87     21    179    181 299.1   6.7  34240  290.92 0854.55
2009/04/23 15:04:24.2    -256   -141    -16    293    294 241.2  -3.2  34220  290.59 0854.55
2009/04/23 15:04:24.3    -168    161    124    233    263 313.8  30.3  34238  290.88 0854.55
2009/04/23 15:04:24.4    -277    152     84    316    327 298.8  14.9  34246  291.04 0854.55
2009/04/23 15:04:24.5     -63    123    191    139    236 332.8  60.5  34250  291.11 0854.55
2009/04/23 15:04:24.6    -114    322    164    342    379 340.5  27.3  34268  291.40 0854.55
2009/04/23 15:04:24.7     -82    187    155    205    257 336.2  40.7  34284  291.67 0854.55
2009/04/23 15:04:24.8     -15    207     71    208    220 355.6  18.9  34294  291.84 0854.55
2009/04/23 15:04:24.9      82    205     43    221    226  21.8  11.0  34284  291.67 0854.55
2009/04/23 15:04:25.0      53     31     67     62     91  59.3  52.2  34300  291.95 0854.56
2009/04/23 15:04:25.1      51    -47    142     70    158 133.1  71.9  34278  291.57 0854.56
2009/04/23 15:04:25.2     -16     47     78     50     92 340.8  64.6  34276  291.55 0854.56
2009/04/23 15:04:25.3     -44    100     98    110    147 335.9  46.4  34272  291.47 0854.56
2009/04/23 15:04:25.4    -118    152     95    193    215 322.2  28.0  34274  291.50 0854.56
2009/04/23 15:04:25.5      83    231    121    246    274  20.0  28.2  34232  290.80 0854.56
2009/04/23 15:04:25.6     295     50    245    300    387  80.3  43.6  34230  290.76 0854.56
2009/04/23 15:04:25.7     223     57     93    231    249  75.6  23.0  34244  291.00 0854.56
2009/04/23 15:04:25.8     271     35   -152    274    313  82.5 -35.9  34244  290.99 0854.56
2009/04/23 15:04:25.9     464     32     61    466    470  86.0   7.5  34182  289.95 0854.56
2009/04/23 15:04:26.0     342    108    230    359    426  72.5  35.6  34214  290.50 0854.56
2009/04/23 15:04:26.1     -53     64    163     84    183 320.4  70.6  34238  290.89 0854.56
2009/04/23 15:04:26.2     122    -30      6    126    127 104.2   2.9  34230  290.77 0854.56
2009/04/23 15:04:26.3     276    200   -208    341    399  54.0 -38.8  34248  291.08 0854.56
2009/04/23 15:04:26.4     236    194   -183    306    356  50.5 -38.0  34232  290.81 0854.56
2009/04/23 15:04:26.5     469    226    -95    521    530  64.2 -10.4  34218  290.55 0854.56
2009/04/23 15:04:26.6     450    182    -29    486    487  67.9  -3.5  34202  290.29 0854.56
2009/04/23 15:04:26.7     428    310    -32    529    530  54.0  -3.5  34194  290.14 0854.56
2009/04/23 15:04:26.8     409    449     24    608    609  42.3   2.3  34230  290.75 0854.56
2009/04/23 15:04:26.9     526    385    102    652    661  53.8   8.9  34336  292.57 0854.56
2009/04/23 15:04:27.0     439    361     42    569    571  50.5   4.2  34336  292.57 0854.56
2009/04/23 15:04:27.1     450    180    171    485    515  68.2  19.4  34342  292.65 0854.56
2009/04/23 15:04:27.2     415    245    222    483    531  59.4  26.5  34356  292.90 0854.56
2009/04/23 15:04:27.3     227    304    239    380    448  36.7  35.3  34334  292.54 0854.56
2009/04/23 15:04:27.4     544    206    208    582    618  69.2  20.4  34326  292.40 0854.56
2009/04/23 15:04:27.5     660    364    151    754    769  61.1  11.3  34270  291.43 0854.56
2009/04/23 15:04:27.6     509    206    155    550    572  67.9  15.8  34266  291.38 0854.56
2009/04/23 15:04:27.7     655    402    204    769    796  58.5  14.9  34284  291.68 0854.56
2009/04/23 15:04:27.8     679    468    213    825    853  55.4  14.5  34284  291.67 0854.56
2009/04/23 15:04:27.9     708    370    162    800    817  62.4  11.5  34316  292.22 0854.56
2009/04/23 15:04:28.0     877    254    154    914    927  73.8   9.6  34302  291.98 0854.56
2009/04/23 15:04:28.1     782    293    153    836    850  69.4  10.4  34314  292.19 0854.56
2009/04/23 15:04:28.2     943    178     71    960    963  79.3   4.2  34290  291.79 0854.56
2009/04/23 15:04:28.3     768     66    100    772    779  85.0   7.4  34292  291.83 0854.56
2009/04/23 15:04:28.4     799    218     42    829    831  74.7   2.9  34244  291.01 0854.56
2009/04/23 15:04:28.5     676    348    264    761    806  62.7  19.2  34268  291.41 0854.56
2009/04/23 15:04:28.6     550    456    302    715    776  50.4  24.3  34230  290.77 0854.56
2009/04/23 15:04:28.7     635    379    123    740    751  59.2   9.5  34216  290.53 0854.56
2009/04/23 15:04:28.8     609    247    -23    658    659  67.9  -2.0  34220  290.58 0854.56
2009/04/23 15:04:28.9     397    227    181    458    492  60.2  22.8  34218  290.54 0854.56
2009/04/23 15:04:29.0     218     83    140    234    272  69.2  34.0  34216  290.53 0854.56
2009/04/23 15:04:29.1     146    202    -87    250    264  36.0 -24.0  34226  290.70 0854.56
2009/04/23 15:04:29.2     218    232      8    319    320  43.3   1.6  34222  290.61 0854.56
2009/04/23 15:04:29.3     253     89     62    269    277  70.5  13.1  34230  290.75 0854.56
2009/04/23 15:04:29.4     299     60    -33    306    308  78.6  -6.2  34224  290.65 0854.56
2009/04/23 15:04:29.5     231     -3      0    232    233  90.8   0.0  34222  290.62 0854.56
2009/04/23 15:04:29.6     475    -21    -31    476    477  92.6  -3.7  34226  290.69 0854.56
2009/04/23 15:04:29.7     425     79    130    433    453  79.4  16.7  34236  290.87 0854.56
2009/04/23 15:04:29.8     432    107    139    446    468  76.1  17.3  34242  290.95 0854.56
2009/04/23 15:04:29.9     365     52    235    369    437  81.9  35.6  34304  292.03 0854.56
2009/04/23 15:04:30.0     311    -73    340    320    466 103.3  52.1  34304  292.01 0854.56
2009/04/23 15:04:30.1     389    -81    271    398    481 101.9  37.6  34322  292.32 0854.56
2009/04/23 15:04:30.2     215   -167    204    273    340 127.8  40.4  34256  291.21 0854.56
2009/04/23 15:04:30.3     165   -206    123    265    292 141.3  27.1  34236  290.85 0854.56
2009/04/23 15:04:30.4     129   -141    178    192    261 137.5  47.9  34260  291.26 0854.56
2009/04/23 15:04:30.5     289   -147    241    325    404 117.0  40.2  34280  291.61 0854.56
2009/04/23 15:04:30.6     200    -15    243    201    315  94.4  56.2  34260  291.27 0854.56
2009/04/23 15:04:30.7     134   -152    222    203    300 138.6  52.7  34272  291.48 0854.56
2009/04/23 15:04:30.8     194   -135    170    237    291 124.9  39.1  34260  291.26 0854.56
2009/04/23 15:04:30.9     155   -166    154    228    275 137.0  37.4  34226  290.68 0854.56
2009/04/23 15:04:31.0     217   -119    184    248    308 118.8  40.1  34272  291.46 0854.57
2009/04/23 15:04:31.1     310    -91    273    324    423 106.4  44.3  34282  291.66 0854.57
2009/04/23 15:04:31.2     485    117    192    499    534  76.4  22.1  34220  290.60 0854.57
2009/04/23 15:04:31.3     402     99    142    415    439  76.1  18.9  34206  290.34 0854.57
2009/04/23 15:04:31.4     404    172    121    440    457  67.0  15.4  34204  290.31 0854.57
2009/04/23 15:04:31.5     379    164    112    413    428  66.6  15.2  34208  290.39 0854.57
2009/04/23 15:04:31.6     245    135     67    280    288  61.2  13.5  34264  291.34 0854.57
2009/04/23 15:04:31.7     265    -24    287    267    391  95.3  52.3  34310  292.12 0854.57
2009/04/23 15:04:31.8     292     68    207    300    364  76.8  37.8  34324  292.36 0854.57
2009/04/23 15:04:31.9     260    -20    144    261    298  94.6  31.4  34262  291.31 0854.57
2009/04/23 15:04:32.1     280   -133     78    311    321 115.5  14.2  34236  290.87 0854.57
2009/04/23 15:04:32.2     245    -97     51    264    269 111.7  11.0  34284  291.67 0854.57
2009/04/23 15:04:32.3     284     43    -36    288    291  81.4  -7.2  34234  290.83 0854.57
2009/04/23 15:04:32.3     315    209    187    379    422  56.4  28.2  34234  290.84 0854.57
2009/04/23 15:04:32.4     447    112    120    461    477  75.9  14.6  34234  290.83 0854.57
2009/04/23 15:04:32.6     421     -2    -47    422    425  90.4  -6.5  34254  291.18 0854.57
2009/04/23 15:04:32.7     264     73    -45    275    279  74.5  -9.3  34250  291.09 0854.57
2009/04/23 15:04:32.8     282     21   -100    283    301  85.7 -19.6  34254  291.16 0854.57
2009/04/23 15:04:32.9     364     44   -102    367    380  83.0 -20.1  34264  291.34 0854.57
2009/04/23 15:04:33.0     407    183    -74    447    454  65.8  -9.4  34260  291.28 0854.57
2009/04/23 15:04:33.1     331     34    -16    333    334  84.0  -2.8  34258  291.23 0854.56
2009/04/23 15:04:33.2     397    -47     69    400    407  96.8   9.9  34294  291.86 0854.56
2009/04/23 15:04:33.3     398     42    175    401    437  83.9  25.1  34304  292.03 0854.56
2009/04/23 15:04:33.4     393    118    180    411    448  73.3  25.2  34300  291.96 0854.56
2009/04/23 15:04:33.5     279   -131    244    309    393 115.1  42.3  34300  291.95 0854.56
2009/04/23 15:04:33.6     348   -144    193    377    423 112.6  29.2  34262  291.29 0854.56
2009/04/23 15:04:33.7     243    -35    174    246    301  98.4  38.6  34268  291.39 0854.56
2009/04/23 15:04:33.8     175     45    231    181    293  75.4  58.2  34260  291.27 0854.56
2009/04/23 15:04:33.9     259    204    107    330    348  51.7  18.0  34258  291.23 0854.56
2009/04/23 15:04:34.0     186    176    -33    257    260  46.7  -7.5  34250  291.09 0854.56
2009/04/23 15:04:34.1      90    147     35    173    177  31.4  11.4  34250  291.09 0854.56
2009/04/23 15:04:34.2      78    107    115    133    175  36.1  45.4  34272  291.47 0854.56
2009/04/23 15:04:34.3      94     60    173    112    206  57.1  64.4  34300  291.96 0854.56
2009/04/23 15:04:34.4      86     72    127    113    169  50.0  53.7  34310  292.12 0854.56
2009/04/23 15:04:34.5     188     82     80    206    220  66.3  22.5  34284  291.69 0854.56
2009/04/23 15:04:34.6     123     16     58    125    137  82.5  26.6  34290  291.77 0854.56
2009/04/23 15:04:34.7     118     98     90    154    178  50.4  32.9  34300  291.96 0854.56
2009/04/23 15:04:34.8     189    151    163    242    291  51.4  37.0  34326  292.40 0854.56
2009/04/23 15:04:34.9     195    194    121    276    301  45.1  25.1  34328  292.41 0854.56
2009/04/23 15:04:35.0     216      0     63    217    227  90.0  16.3  34292  291.83 0854.56
2009/04/23 15:04:35.1     461     35     90    463    472  85.6  11.1  34262  291.29 0854.57
2009/04/23 15:04:35.2     293    -45    134    297    325  98.8  25.9  34296  291.87 0854.57
2009/04/23 15:04:35.3     232    -77     44    245    250 108.4  10.3  34276  291.55 0854.57
2009/04/23 15:04:35.4     299     28    -38    301    304  84.5  -7.2  34268  291.39 0854.57
2009/04/23 15:04:35.5     360    157    138    393    417  66.4  19.4  34272  291.48 0854.57
2009/04/23 15:04:35.6     333    213    132    396    418  57.4  18.5  34292  291.82 0854.57
2009/04/23 15:04:35.7     519    210    171    561    587  67.9  17.0  34328  292.43 0854.57
2009/04/23 15:04:35.8     207    274    162    344    380  37.0  27.1  34348  292.78 0854.57
2009/04/23 15:04:35.9     284    107     88    304    317  69.2  16.3  34286  291.72 0854.57
2009/04/23 15:04:36.0     217    173     78    278    289  51.4  15.8  34288  291.73 0854.57
2009/04/23 15:04:36.1     325    191    -12    378    379  59.5  -1.9  34238  290.89 0854.57
2009/04/23 15:04:36.2     244    248    117    348    368  44.5  18.6  34242  290.96 0854.57
2009/04/23 15:04:36.3     172    361     94    401    412  25.5  13.2  34256  291.21 0854.57
2009/04/23 15:04:36.4     164    354    107    391    406  24.8  15.3  34252  291.15 0854.57
2009/04/23 15:04:36.5      65    339     70    346    354  10.9  11.6  34268  291.39 0854.57
2009/04/23 15:04:36.6     -14    360     88    361    372 357.8  13.8  34278  291.56 0854.57
2009/04/23 15:04:36.7      31    223    171    226    283   8.0  40.7  34264  291.34 0854.57
2009/04/23 15:04:36.8      44    220    110    225    250  11.3  27.8  34266  291.38 0854.57
2009/04/23 15:04:36.9     147    209     98    256    274  35.2  22.0  34270  291.43 0854.57
2009/04/23 15:04:37.0      23    305     95    307    322   4.5  17.2  34280  291.61 0854.57
2009/04/23 15:04:37.1      11    287     78    288    299   2.2  15.3  34276  291.55 0854.56
2009/04/23 15:04:37.2      61    241      7    249    250  14.3   1.7  34278  291.58 0854.56
2009/04/23 15:04:37.3      67    148     71    163    177  24.5  24.9  34296  291.89 0854.56
2009/04/23 15:04:37.4     122    126     -6    176    177  43.9  -2.2  34272  291.49 0854.56
2009/04/23 15:04:37.5      35     -2     35     36     50  94.4  51.1  34272  291.49 0854.56
2009/04/23 15:04:37.6      48    -48     46     69     82 135.0  37.0  34282  291.64 0854.56
2009/04/23 15:04:37.7     -78     12    126     79    148 278.8  64.7  34308  292.08 0854.56
2009/04/23 15:04:37.8    -128    202    225    240    328 327.7  48.0  34320  292.28 0854.56
2009/04/23 15:04:37.9    -131    124    209    181    276 313.6  54.6  34320  292.28 0854.56
2009/04/23 15:04:38.0    -121     14    173    122    211 277.0  61.8  34308  292.10 0854.56
2009/04/23 15:04:38.1     -77    128    214    150    261 328.8  61.7  34304  292.03 0854.56
2009/04/23 15:04:38.2     -66    183    154    195    248 340.0  42.4  34286  291.72 0854.56
2009/04/23 15:04:38.3    -260     61    -32    268    270 283.3  -6.9  34244  290.99 0854.56
2009/04/23 15:04:38.4    -167    -21    106    169    199 262.8  35.2  34270  291.43 0854.56
2009/04/23 15:04:38.5    -370     -9     83    371    381 268.5  12.6  34256  291.20 0854.56
2009/04/23 15:04:38.6    -279    101    105    297    315 290.0  20.3  34250  291.10 0854.56
2009/04/23 15:04:38.7    -215     65    143    225    266 286.9  35.5  34250  291.09 0854.56
2009/04/23 15:04:38.8    -190   -169    173    255    308 228.4  37.4  34268  291.41 0854.56
2009/04/23 15:04:38.9    -244   -114    103    270    288 244.9  21.7  34266  291.36 0854.56
2009/04/23 15:04:39.0    -266   -169     24    316    317 237.6   4.4  34264  291.34 0854.56
2009/04/23 15:04:39.1    -164   -188    -71    250    259 221.0 -20.7  34272  291.48 0854.55
2009/04/23 15:04:39.2     -25   -175    -74    177    191 188.2 -28.2  34266  291.37 0854.55
2009/04/23 15:04:39.3     -59   -190     71    200    213 197.4  19.6  34268  291.40 0854.55
2009/04/23 15:04:39.4    -162   -259    -28    306    308 212.1  -5.4  34268  291.41 0854.55
2009/04/23 15:04:39.5    -106   -423    111    437    452 194.2  14.3  34270  291.43 0854.55
2009/04/23 15:04:39.6      -7   -501    226    502    550 180.9  26.0  34284  291.69 0854.55
2009/04/23 15:04:39.7      -6   -438    221    439    491 180.8  28.7  34286  291.71 0854.55
2009/04/23 15:04:39.8     -17   -351    278    352    448 182.9  42.4  34288  291.75 0854.55
2009/04/23 15:04:39.9     -36   -377    273    379    467 185.6  39.2  34288  291.74 0854.55
2009/04/23 15:04:40.0     -24   -328    289    329    437 184.3  45.8  34286  291.72 0854.55
2009/04/23 15:04:40.1     -68   -394    292    400    495 189.9  39.7  34282  291.63 0854.55
2009/04/23 15:04:40.2     -10   -399    311    400    506 181.5  41.9  34280  291.61 0854.55
2009/04/23 15:04:40.3       0   -214    269    215    344 180.2  57.1  34284  291.67 0854.55
2009/04/23 15:04:40.4      -2   -173    286    174    334 180.7  66.0  34286  291.70 0854.55
2009/04/23 15:04:40.5     -31   -220    255    223    338 188.0  54.4  34280  291.60 0854.55
2009/04/23 15:04:40.6     -65   -213    222    223    314 197.2  50.0  34276  291.55 0854.55
2009/04/23 15:04:40.7     -36   -177    244    181    303 191.6  60.0  34278  291.58 0854.55
2009/04/23 15:04:40.8     -16   -185    252    186    313 185.1  59.9  34274  291.50 0854.55
2009/04/23 15:04:40.9    -100   -233    296    254    390 203.2  55.0  34278  291.57 0854.55
2009/04/23 15:04:41.0    -117   -239    233    267    354 206.1  45.7  34270  291.43 0854.55
2009/04/23 15:04:41.1     -67   -180    251    193    316 200.5  58.7  34270  291.43 0854.55
2009/04/23 15:04:41.2    -111   -206    185    235    299 208.3  42.2  34274  291.50 0854.55
2009/04/23 15:04:41.3    -175   -162    167    239    291 227.1  38.4  34292  291.80 0854.55
2009/04/23 15:04:41.4    -185   -137    175    231    289 233.4  41.2  34262  291.31 0854.55
2009/04/23 15:04:41.5    -362   -114     -4    380    381 252.4  -0.7  34278  291.57 0854.55
2009/04/23 15:04:41.6    -337   -139     -7    365    366 247.6  -1.2  34288  291.73 0854.55
2009/04/23 15:04:41.7    -390   -128    -98    411    423 251.8 -13.4  34206  290.34 0854.55
2009/04/23 15:04:41.8    -359   -119   -190    379    423 251.6 -32.9  34212  290.46 0854.55
2009/04/23 15:04:41.9    -407    -87   -207    417    465 257.8 -32.6  34216  290.51 0854.55
2009/04/23 15:04:42.0    -524   -398   -206    659    691 232.8 -17.4  34232  290.80 0854.54
2009/04/23 15:04:42.1    -529   -315     54    616    619 239.3   5.1  34244  290.99 0854.54
2009/04/23 15:04:42.2    -339   -372    -60    504    508 222.4  -6.9  34248  291.08 0854.54
2009/04/23 15:04:42.3    -412   -329   -124    528    543 231.4 -13.3  34284  291.69 0854.54
2009/04/23 15:04:42.4    -425   -359   -177    557    585 229.8 -17.7  34256  291.21 0854.54
2009/04/23 15:04:42.5    -240   -262   -120    356    375 222.6 -23.6  34230  290.76 0854.54
2009/04/23 15:04:42.6    -378   -305   -109    486    499 231.1 -12.7  34206  290.34 0854.54
2009/04/23 15:04:42.7    -406   -349    -97    536    545 229.4 -10.3  34254  291.16 0854.54
2009/04/23 15:04:42.8    -438   -187   -132    477    494 246.9 -20.2  34204  290.32 0854.54
2009/04/23 15:04:42.9    -444   -168   -165    475    502 249.2 -24.3  34212  290.45 0854.54
2009/04/23 15:04:43.0    -441   -142   -224    464    515 252.1 -32.1  34244  291.00 0854.54
2009/04/23 15:04:43.1    -465   -483   -186    671    697 223.9 -15.5  34250  291.09 0854.54
2009/04/23 15:04:43.2    -505   -320   -185    598    627 237.6 -17.2  34222  290.62 0854.54
2009/04/23 15:04:43.3    -527   -307   -110    610    620 239.8 -10.2  34252  291.15 0854.54
2009/04/23 15:04:43.4    -581   -295   -153    652    670 243.0 -13.3  34230  290.77 0854.54
2009/04/23 15:04:43.5    -617   -249   -207    666    698 248.0 -17.3  34168  289.70 0854.54
2009/04/23 15:04:43.6    -620   -130   -208    634    667 258.1 -23.2  34158  289.54 0854.54
2009/04/23 15:04:43.7    -614   -137   -292    630    694 257.4 -31.3  34142  289.27 0854.54
2009/04/23 15:04:43.8    -608   -102   -302    617    686 260.4 -32.4  34138  289.21 0854.54
2009/04/23 15:04:43.9    -496    -84   -349    504    613 260.4 -42.4  34140  289.24 0854.54
2009/04/23 15:04:44.0    -507    -38   -253    509    568 265.7 -32.8  34150  289.41 0854.53
2009/04/23 15:04:44.1    -461     23   -217    462    510 272.9 -31.5  34166  289.66 0854.53
2009/04/23 15:04:44.2    -506    138   -186    525    556 285.3 -24.6  34188  290.04 0854.53
2009/04/23 15:04:44.3    -539    126   -160    554    577 283.2 -16.2  34176  289.85 0854.53
2009/04/23 15:04:44.4    -494    100   -181    504    535 281.5 -25.0  34144  289.29 0854.53
2009/04/23 15:04:44.5    -464    140   -198    485    523 286.8 -27.9  34138  289.20 0854.53
2009/04/23 15:04:44.6    -526    112   -248    538    592 282.1 -30.9  34142  289.27 0854.53
2009/04/23 15:04:44.7    -402     87   -213    412    463 282.3 -33.7  34138  289.19 0854.53
2009/04/23 15:04:44.8    -346     69   -194    353    402 281.4 -35.7  34142  289.25 0854.53
2009/04/23 15:04:44.9    -328     53   -201    333    388 279.2 -38.5  34140  289.23 0854.53
2009/04/23 15:04:45.0    -301      4   -164    302    343 270.8 -35.3  34142  289.25 0854.53
2009/04/23 15:04:45.1    -341     47   -112    345    362 277.9 -23.3  34140  289.23 0854.53
2009/04/23 15:04:45.2    -407    166   -154    440    466 292.2 -24.4  34148  289.36 0854.53
2009/04/23 15:04:45.3    -365    172   -153    404    432 295.2 -26.2  34138  289.21 0854.53
2009/04/23 15:04:45.4    -339    238   -109    415    430 305.1 -14.8  34148  289.38 0854.53
2009/04/23 15:04:45.5    -371    259    -90    453    463 305.0 -11.3  34154  289.48 0854.53
2009/04/23 15:04:45.6    -386    183   -192    428    469 295.3 -30.2  34160  289.58 0854.53
2009/04/23 15:04:45.7    -427    128   -243    446    507 286.7 -35.3  34158  289.54 0854.53
2009/04/23 15:04:45.8    -341    187   -206    389    440 298.8 -34.6  34162  289.60 0854.53
2009/04/23 15:04:45.9    -289    190   -178    347    389 303.3 -33.7  34160  289.57 0854.53
2009/04/23 15:04:46.0    -368    283    -39    465    467 307.5  -4.8  34166  289.67 0854.51
2009/04/23 15:04:46.1    -296    333   -124    446    462 318.3 -20.1  34156  289.51 0854.51
2009/04/23 15:04:46.2    -467    288   -107    549    560 301.6 -11.1  34160  289.57 0854.51
2009/04/23 15:04:46.3    -579    264   -170    637    660 294.5 -15.0  34156  289.50 0854.51
2009/04/23 15:04:46.4    -590    153   -224    610    649 284.6 -25.5  34158  289.53 0854.51
2009/04/23 15:04:46.5    -380    105   -192    395    439 285.5 -32.1  34170  289.73 0854.51
2009/04/23 15:04:46.6    -140    504   -186    524    556 344.4 -24.8  34186  290.01 0854.51
2009/04/23 15:04:46.7    -197    414   -332    459    566 334.5 -43.9  34174  289.80 0854.51
2009/04/23 15:04:46.8      72    411   -368    418    556  10.0 -50.2  34160  289.56 0854.51
2009/04/23 15:04:46.9     396    421   -181    579    606  43.2 -22.3  34162  289.61 0854.51
2009/04/23 15:04:47.0     277    282    -18    396    397  44.4  -2.7  34168  289.71 0854.51
2009/04/23 15:04:47.1     175    275    -63    327    334  32.5 -11.0  34162  289.62 0854.51
2009/04/23 15:04:47.2     -20    308   -104    309    327 356.2 -18.7  34156  289.51 0854.51
2009/04/23 15:04:47.3    -262    273    -66    379    385 316.2  -9.9  34162  289.60 0854.51
2009/04/23 15:04:47.4    -320    290   -222    433    486 312.2 -33.6  34156  289.52 0854.51
2009/04/23 15:04:47.5    -546    248   -235    600    644 294.5 -26.9  34174  289.81 0854.51
2009/04/23 15:04:47.6    -456    241   -302    517    598 297.9 -37.3  34160  289.58 0854.51
2009/04/23 15:04:47.7    -301    213   -256    370    449 305.3 -42.4  34172  289.77 0854.51
2009/04/23 15:04:47.8    -381    324   -152    501    524 310.4 -17.0  34166  289.67 0854.51
2009/04/23 15:04:47.9    -161    678    -16    697    698 346.6  -1.4  34176  289.84 0854.51
2009/04/23 15:04:48.0    -331    600    225    686    723 331.1  18.2  34174  289.81 0854.49
2009/04/23 15:04:48.1    -464    457    193    652    681 314.5  16.5  34176  289.83 0854.49
2009/04/23 15:04:48.2    -556    473     22    731    732 310.4   1.8  34172  289.79 0854.49
2009/04/23 15:04:48.3    -574    468    -76    741    745 309.2  -5.9  34160  289.56 0854.49
2009/04/23 15:04:48.4    -324    424    -21    534    535 322.6  -2.3  34164  289.65 0854.49
2009/04/23 15:04:48.5    -792    111   -160    801    817 278.0 -11.3  34158  289.53 0854.49
2009/04/23 15:04:48.6    -723      3   -179    724    746 270.3 -13.9  34170  289.73 0854.49
2009/04/23 15:04:48.7    -966    -35   -281    967   1007 267.9 -21.0  34132  289.09 0854.49
2009/04/23 15:04:48.8    -946    -51   -302    948    995 266.9 -17.7  34182  289.96 0854.49
2009/04/23 15:04:48.9    -987     64   -247    989   1020 273.7 -14.1  34214  290.48 0854.49
2009/04/23 15:04:49.0    -818      0   -275    819    865 270.0 -18.6  34214  290.49 0854.49
2009/04/23 15:04:49.1    -593    -86   -102    600    609 261.7  -9.7  34182  289.95 0854.49
2009/04/23 15:04:49.2    -748     63   -257    751    795 274.9 -18.9  34198  290.20 0854.49
2009/04/23 15:04:49.3    -599     92   -152    607    626 278.8 -14.1  34188  290.03 0854.49
2009/04/23 15:04:49.4    -612     52   -208    615    650 274.9 -18.7  34200  290.25 0854.49
2009/04/23 15:04:49.5    -380   -284   -199    475    515 233.2 -28.5  34198  290.22 0854.49
2009/04/23 15:04:49.6    -457   -225   -366    510    627 243.8 -43.6  34190  290.07 0854.49
2009/04/23 15:04:49.7    -395      1   -315    396    506 270.3 -47.1  34212  290.45 0854.49
2009/04/23 15:04:49.8    -342   -116   -379    362    524 251.2 -55.9  34192  290.13 0854.49
2009/04/23 15:04:49.9    -510    -95   -454    519    689 259.4 -50.1  34194  290.15 0854.49
2009/04/23 15:04:50.0    -210     79   -410    225    467 290.8 -73.3  34216  290.51 0854.48
2009/04/23 15:04:50.1    -641    -89   -590    648    876 262.1 -51.4  34186  290.01 0854.48
2009/04/23 15:04:50.2    -761   -199   -375    787    871 255.3 -31.7  34188  290.05 0854.48
2009/04/23 15:04:50.3    -873    -13   -419    874    969 269.1 -31.8  34176  289.85 0854.48
2009/04/23 15:04:50.4    -767    205   -294    794    846 285.0 -25.7  34178  289.86 0854.48
2009/04/23 15:04:50.5    -802    -32   -423    803    907 267.7 -34.4  34168  289.72 0854.48
2009/04/23 15:04:50.6    -853     22   -298    854    904 271.5 -24.4  34166  289.67 0854.48
2009/04/23 15:04:50.7    -879    144   -341    891    954 279.3 -26.5  34176  289.85 0854.48
2009/04/23 15:04:50.8    -851    161   -273    867    908 280.7 -22.5  34146  289.33 0854.48
2009/04/23 15:04:50.9    -741    231   -445    777    895 287.3 -36.8  34152  289.44 0854.48
2009/04/23 15:04:51.0    -727    129   -413    739    846 280.1 -36.1  34152  289.42 0854.48
2009/04/23 15:04:51.1    -589    195   -435    621    758 288.3 -42.9  34162  289.61 0854.48
2009/04/23 15:04:51.2    -597    262   -365    653    748 293.7 -36.1  34152  289.42 0854.48
2009/04/23 15:04:51.3    -648    255   -362    697    785 291.5 -34.0  34144  289.31 0854.48
2009/04/23 15:04:51.4    -663    231   -339    703    780 289.2 -32.1  34150  289.40 0854.48
2009/04/23 15:04:51.5    -903    255   -420    939   1028 285.8 -30.2  34152  289.42 0854.48
2009/04/23 15:04:51.6    -932    286   -393    976   1052 287.1 -27.5  34156  289.49 0854.48
2009/04/23 15:04:51.7    -755    246   -284    795    845 288.1 -19.7  34168  289.70 0854.48
2009/04/23 15:04:51.8    -719    268   -222    768    799 290.5 -20.9  34172  289.78 0854.48
2009/04/23 15:04:51.9    -719    124   -251    730    771 279.8 -24.0  34154  289.48 0854.48
2009/04/23 15:04:52.0    -742     92   -261    748    792 277.1 -24.4  34154  289.47 0854.45
2009/04/23 15:04:52.1    -649    117   -216    660    694 280.3 -23.3  34148  289.36 0854.45
2009/04/23 15:04:52.2    -612    100   -266    621    675 279.3 -29.0  34162  289.61 0854.45
2009/04/23 15:04:52.3    -478    233   -221    532    576 296.0 -28.3  34154  289.48 0854.45
2009/04/23 15:04:52.4    -165    254     16    304    305 327.0   3.1  34174  289.80 0854.45
2009/04/23 15:04:52.5    -291    141    -93    324    338 295.9 -16.0  34188  290.03 0854.45
2009/04/23 15:04:52.6    -334    170   -197    375    423 297.0 -34.5  34176  289.83 0854.45
2009/04/23 15:04:52.7    -403     41   -190    406    448 275.9 -31.5  34206  290.34 0854.45
2009/04/23 15:04:52.8    -606     72   -256    611    662 276.8 -28.5  34192  290.13 0854.45
2009/04/23 15:04:52.9    -387     -5   -163    388    420 269.2 -28.6  34182  289.94 0854.45
2009/04/23 15:04:53.0     -86    -18     62     88    107 258.1  39.5  34186  290.02 0854.45
2009/04/23 15:04:53.1    -280    211     55    351    356 307.0   8.9  34194  290.15 0854.45
2009/04/23 15:04:53.2    -483     85    -99    491    501 280.0 -11.5  34194  290.15 0854.45
2009/04/23 15:04:53.3    -366    245     27    441    442 303.9   3.5  34194  290.16 0854.45
2009/04/23 15:04:53.4    -302    334     33    451    453 317.9   4.2  34180  289.92 0854.45
2009/04/23 15:04:53.5    -105    277    -16    297    298 339.1  -3.1  34188  290.03 0854.45
2009/04/23 15:04:53.6      53    212    106    219    243  14.0  27.8  34194  290.15 0854.45
2009/04/23 15:04:53.7      24     71    100     76    125  18.7  59.0  34212  290.45 0854.45
2009/04/23 15:04:53.8     -63     70    -59     95    111 317.7 -39.9  34208  290.40 0854.45
2009/04/23 15:04:53.9      17     17    -44     25     50  45.0 -72.1  34200  290.26 0854.45
2009/04/23 15:04:54.0     188     75    -69    203    215  68.0 -18.9  34202  290.30 0854.42
2009/04/23 15:04:54.1     161    131    -59    208    216  50.9 -20.2  34200  290.25 0854.42
2009/04/23 15:04:54.2     -16    104   -141    106    176 351.1 -63.8  34192  290.11 0854.42
2009/04/23 15:04:54.3      43    252    -10    256    257   9.7  -2.2  34204  290.32 0854.42
2009/04/23 15:04:54.4     100    140      8    173    174  35.6   2.9  34202  290.30 0854.42
2009/04/23 15:04:54.5     123     95    -22    156    158  52.2  -8.2  34198  290.23 0854.42
2009/04/23 15:04:54.6     153    147     87    213    230  46.2  23.4  34190  290.09 0854.42
2009/04/23 15:04:54.7      14    116    -39    117    124   7.1 -18.7  34196  290.18 0854.42
2009/04/23 15:04:54.8     137    -75     92    157    181 118.9  32.9  34200  290.26 0854.42
2009/04/23 15:04:54.9     100   -298    237    315    394 161.3  40.7  34200  290.25 0854.42
2009/04/23 15:04:55.0      94   -340    217    353    414 164.5  34.5  34198  290.20 0854.42
2009/04/23 15:04:55.1     210   -133    133    249    282 122.4  30.3  34182  289.95 0854.42
2009/04/23 15:04:55.2     351   -108    272    368    457 107.1  39.9  34190  290.07 0854.42
2009/04/23 15:04:55.3     311   -117    112    333    352 110.7  18.6  34190  290.08 0854.42
2009/04/23 15:04:55.4     356    -86    207    367    421 103.6  31.9  34188  290.05 0854.42
2009/04/23 15:04:55.5     305   -170    180    350    393 119.1  29.3  34198  290.23 0854.42
2009/04/23 15:04:55.6     244   -348    233    426    485 144.9  31.0  34204  290.32 0854.42
2009/04/23 15:04:55.7      56   -393    267    398    479 171.8  37.0  34212  290.44 0854.42
2009/04/23 15:04:55.8      19   -417    238    418    481 177.3  32.3  34210  290.43 0854.42
2009/04/23 15:04:55.9     -75   -439    113    446    461 189.7  14.3  34194  290.16 0854.42
2009/04/23 15:04:56.0     -80   -397    114    405    421 191.5  15.8  34202  290.29 0854.41
2009/04/23 15:04:56.1      -9   -318    -21    319    320 181.8  -3.9  34196  290.17 0854.41
2009/04/23 15:04:56.2     -91    -65    -47    112    121 234.5 -28.5  34206  290.35 0854.41
2009/04/23 15:04:56.3     -78    -32    124     85    150 247.4  62.6  34220  290.60 0854.41
2009/04/23 15:04:56.4    -194   -190     99    272    289 225.6  20.9  34210  290.42 0854.41
2009/04/23 15:04:56.5    -192   -363    208    411    460 207.9  28.9  34188  290.04 0854.41
2009/04/23 15:04:56.6    -115   -363    374    381    533 197.6  49.5  34228  290.74 0854.41
2009/04/23 15:04:56.7    -156   -530    425    553    697 196.4  41.5  34278  291.57 0854.41
2009/04/23 15:04:56.8    -294   -642    480    707    854 204.6  37.4  34244  291.01 0854.41
2009/04/23 15:04:56.9    -228   -756    273    790    836 196.8  19.1  34200  290.25 0854.41
2009/04/23 15:04:57.0    -143   -672    329    688    762 192.1  27.3  34196  290.19 0854.41
2009/04/23 15:04:57.1     -64   -899    223    902    930 184.1  13.9  34168  289.70 0854.41
2009/04/23 15:04:57.2      16   -646    275    647    703 178.5  24.5  34170  289.75 0854.41
2009/04/23 15:04:57.3     187   -616    274    645    700 163.1  24.3  34176  289.83 0854.41
2009/04/23 15:04:57.4      76   -659     94    664    671 173.4   8.1  34176  289.83 0854.41
2009/04/23 15:04:57.5     450   -890    557    998   1142 153.2  31.6  34156  289.52 0854.41
2009/04/23 15:04:57.6    -188  -1143    616   1159   1312 189.4  30.2  34176  289.84 0854.41
2009/04/23 15:04:57.7    -430  -1126    360   1206   1259 200.9  16.6  34186  290.00 0854.41
2009/04/23 15:04:57.8       1   -811    661    812   1047 179.9  43.3  34164  289.63 0854.41
2009/04/23 15:04:57.9     144   -582    523    600    795 166.1  45.5  34180  289.92 0854.41
2009/04/23 15:04:58.0     -68   -704    288    708    764 185.6  23.4  34182  289.94 0854.42
2009/04/23 15:04:58.1     164   -358    264    394    474 155.4  37.1  34186  290.00 0854.42
2009/04/23 15:04:58.2      45   -261    303    265    402 170.2  54.4  34192  290.11 0854.42
2009/04/23 15:04:58.3    -119   -112    192    164    252 226.7  55.3  34198  290.23 0854.42
2009/04/23 15:04:58.4      86     86    180    123    218  45.0  62.6  34200  290.25 0854.42
2009/04/23 15:04:58.5      83    150    321    172    364  29.2  69.7  34190  290.09 0854.42
2009/04/23 15:04:58.6      -5    341    172    342    382 359.1  28.7  34202  290.28 0854.42
2009/04/23 15:04:58.7     -72    110     99    132    165 326.6  40.7  34202  290.30 0854.42
2009/04/23 15:04:58.8      -9    216     -1    217    218 357.5  -0.5  34182  289.96 0854.42
2009/04/23 15:04:58.9      33    452    -36    454    456   4.2  -4.6  34192  290.12 0854.42
2009/04/23 15:04:59.0     163    195    114    255    279  39.9  25.7  34176  289.83 0854.48
2009/04/23 15:04:59.1      55    295    100    301    318  10.6  18.4  34162  289.61 0854.48
2009/04/23 15:04:59.2     -53    268     11    274    275 348.7   2.5  34190  290.07 0854.48
2009/04/23 15:04:59.3    -121    267    156    294    332 335.5  30.3  34174  289.80 0854.48
2009/04/23 15:04:59.4    -210    210     55    298    304 315.0  10.6  34176  289.83 0854.48
2009/04/23 15:04:59.5     -39    -54   -128     67    144 216.1 -74.8  34178  289.87 0854.48
2009/04/23 15:04:59.7     144   -243    -56    283    289 149.3 -11.3  34162  289.61 0854.48
2009/04/23 15:04:59.8     103   -218    307    242    390 154.7  57.9  34170  289.74 0854.48
2009/04/23 15:04:59.9     -41   -263    267    267    377 188.9  50.1  34168  289.71 0854.48
2009/04/23 15:05:00.0     -90   -180     70    202    214 206.5  19.2  34164  289.63 0854.48
2009/04/23 15:05:00.1     169     35    177    173    247  78.1  50.7  34184  289.97 0854.48
2009/04/23 15:05:00.2     -15     23    240     28    241 327.4  90.0  34194  290.16 0854.48
2009/04/23 15:05:00.3     135    -86    329    161    366 122.4  72.1  34192  290.10 0854.48
2009/04/23 15:05:00.4      31   -193    307    196    364 170.7  64.6  34180  289.90 0854.48
2009/04/23 15:05:00.5     159   -205    308    260    403 142.2  55.7  34182  289.96 0854.48
2009/04/23 15:05:00.6     258   -447    393    517    649 150.0  41.1  34162  289.59 0854.48
2009/04/23 15:05:00.7     385   -754    341    847    913 152.9  23.1  34126  289.01 0854.48
2009/04/23 15:05:00.8      44   -872    167    874    890 177.1  10.8  34110  288.72 0854.48
2009/04/23 15:05:00.9     192   -877    275    899    941 167.6  17.0  34128  289.02 0854.48
2009/04/23 15:05:01.0      86   -674    258    680    727 172.7  22.0  34116  288.84 0854.48
2009/04/23 15:05:01.1     162   -800    420    817    918 168.5  29.3  34120  288.91 0854.55
2009/04/23 15:05:01.2      15   -808    200    809    834 178.9  13.9  34126  288.98 0854.55
2009/04/23 15:05:01.3    -256   -661     81    709    714 201.2   6.6  34132  289.11 0854.55
2009/04/23 15:05:01.4    -390   -774    121    867    876 206.8   8.0  34140  289.22 0854.55
2009/04/23 15:05:01.5    -195   -635    105    665    674 197.1   9.0  34134  289.12 0854.55
2009/04/23 15:05:01.6      49   -407    115    411    427 173.0  15.7  34152  289.43 0854.55
2009/04/23 15:05:01.7     117   -461    164    476    504 165.7  19.1  34152  289.44 0854.55
2009/04/23 15:05:01.8     -15   -454    117    455    470 181.9  14.5  34152  289.44 0854.55
2009/04/23 15:05:01.9     192   -373    189    420    460 152.7  25.9  34146  289.33 0854.55
2009/04/23 15:05:02.0     395   -505    380    642    746 142.0  33.4  34150  289.39 0854.55
2009/04/23 15:05:02.1     128   -702    475    714    857 169.7  36.9  34152  289.42 0854.55
2009/04/23 15:05:02.2    -130   -618    387    632    741 191.9  34.3  34148  289.37 0854.55
2009/04/23 15:05:02.3      73   -361    299    369    474 168.6  43.1  34156  289.49 0854.55
2009/04/23 15:05:02.4     -94   -310    176    325    369 196.9  30.9  34152  289.45 0854.55
2009/04/23 15:05:02.5      -4   -232     70    233    244 181.0  16.8  34158  289.53 0854.55
2009/04/23 15:05:02.6      -8   -305    136    306    334 181.6  25.7  34158  289.54 0854.55
2009/04/23 15:05:02.7      69   -241     48    251    256 164.0  11.0  34158  289.53 0854.55
2009/04/23 15:05:02.8      44   -306    218    310    378 171.8  38.6  34160  289.57 0854.55
2009/04/23 15:05:02.9      -5   -381    271    382    468 180.8  38.7  34160  289.56 0854.55
2009/04/23 15:05:03.0     -30   -278    104    280    298 186.3  21.0  34166  289.68 0854.55
2009/04/23 15:05:03.1      37   -138     82    143    164 164.9  32.7  34170  289.75 0854.61
2009/04/23 15:05:03.2      71   -185    165    199    258 158.8  43.8  34174  289.81 0854.61
2009/04/23 15:05:03.3     -59   -352    362    357    508 189.6  50.4  34172  289.78 0854.61
2009/04/23 15:05:03.4     220    -95    238    240    338 113.5  50.0  34172  289.78 0854.61
2009/04/23 15:05:03.5     110   -155    173    191    257 144.6  47.0  34166  289.66 0854.61
2009/04/23 15:05:03.6      28     -9    272     30    273 108.2  90.0  34170  289.75 0854.61
2009/04/23 15:05:03.7       4    -22    199     23    200 168.4  90.0  34188  290.04 0854.61
2009/04/23 15:05:03.8     -15   -132    154    133    203 186.7  54.6  34170  289.75 0854.61
2009/04/23 15:05:03.9    -137   -331    352    359    502 202.5  49.4  34168  289.72 0854.61
2009/04/23 15:05:04.0    -217   -282    221    356    419 217.6  34.9  34166  289.67 0854.61
2009/04/23 15:05:04.1    -138    -73     19    157    159 242.0   6.9  34150  289.41 0854.61
2009/04/23 15:05:04.2       6   -106    193    107    220 176.4  68.8  34164  289.65 0854.61
2009/04/23 15:05:04.3     -62   -122    233    138    270 207.1  66.7  34184  289.97 0854.61
2009/04/23 15:05:04.4    -296   -100     44    313    317 251.2   8.1  34166  289.66 0854.61
2009/04/23 15:05:04.5    -145    -59      0    157    158 247.8   0.2  34174  289.80 0854.61
2009/04/23 15:05:04.6     167      9     65    168    180  86.7  22.0  34174  289.80 0854.61
2009/04/23 15:05:04.7       4    -55     51     56     75 175.6  47.9  34182  289.96 0854.61
2009/04/23 15:05:04.8    -118   -186    411    221    466 212.5  69.5  34172  289.76 0854.61
2009/04/23 15:05:04.9    -164    -78    283    182    336 244.5  64.4  34174  289.81 0854.61
2009/04/23 15:05:05.0    -263    -96    263    281    384 249.8  47.9  34152  289.43 0854.61
2009/04/23 15:05:05.1      50   -112    179    123    217 155.9  62.4  34176  289.84 0854.62
2009/04/23 15:05:05.2      84   -318    230    330    402 165.1  38.5  34164  289.64 0854.62
2009/04/23 15:05:05.3     -10   -324    238    325    402 181.8  39.9  34164  289.64 0854.62
2009/04/23 15:05:05.4     -40   -390    283    393    484 186.0  39.3  34164  289.63 0854.62
2009/04/23 15:05:05.5     -93   -466    339    476    584 191.3  39.1  34158  289.55 0854.62
2009/04/23 15:05:05.6    -227   -498    300    548    624 204.5  31.0  34146  289.34 0854.62
2009/04/23 15:05:05.7    -189   -458    353    496    608 202.5  39.1  34152  289.42 0854.62
2009/04/23 15:05:05.8    -292   -482    210    564    601 211.2  21.4  34164  289.63 0854.62
2009/04/23 15:05:05.9    -115   -405    186    422    461 195.9  25.2  34170  289.73 0854.62
2009/04/23 15:05:06.0    -266   -452    290    525    599 210.5  31.3  34124  288.95 0854.62
2009/04/23 15:05:06.1    -269   -520    -61    586    590 207.4  -6.0  34126  289.00 0854.62
2009/04/23 15:05:06.2    -459   -560     75    725    730 219.3   6.0  34116  288.84 0854.62
2009/04/23 15:05:06.3    -266   -618    216    673    707 203.3  17.8  34110  288.74 0854.62
2009/04/23 15:05:06.4    -225   -524    403    571    698 203.3  38.7  34100  288.55 0854.62
2009/04/23 15:05:06.5    -363   -668     53    761    763 208.5   4.0  34110  288.74 0854.62
2009/04/23 15:05:06.6    -211   -680    183    713    737 197.3  14.4  34120  288.89 0854.62
2009/04/23 15:05:06.7    -266   -480    173    550    577 209.0  17.5  34200  290.26 0854.62
2009/04/23 15:05:06.8    -263   -411    119    489    504 212.6  13.7  34180  289.91 0854.62
2009/04/23 15:05:06.9    -225   -405    -77    464    471 209.0  -9.5  34140  289.23 0854.62
2009/04/23 15:05:07.0     -77   -173    -52    190    198 204.1 -15.5  34128  289.04 0854.62
2009/04/23 15:05:07.1     -99   -149     45    179    185 213.6  14.3  34160  289.57 0854.57
2009/04/23 15:05:07.2    -203   -108    109    231    255 242.0  27.1  34188  290.03 0854.57
2009/04/23 15:05:07.3    -329    -85   -209    340    399 255.5 -38.9  34194  290.15 0854.57
2009/04/23 15:05:07.4    -204     63     42    214    219 287.3  11.1  34172  289.77 0854.57
2009/04/23 15:05:07.5      27   -230    122    232    262 173.1  30.2  34204  290.32 0854.57
2009/04/23 15:05:07.6     -31   -142     84    146    168 192.5  32.7  34198  290.23 0854.57
2009/04/23 15:05:07.7      16    -47    -51     50     71 161.3 -54.5  34188  290.06 0854.57
2009/04/23 15:05:07.8     -75   -154    -59    172    182 205.9 -19.1  34188  290.06 0854.57
2009/04/23 15:05:07.9     -93   -167    -92    192    212 209.0 -31.7  34184  289.99 0854.57
2009/04/23 15:05:08.0    -317   -262   -197    412    456 230.4 -31.7  34168  289.72 0854.57
2009/04/23 15:05:08.1    -378   -267   -124    463    480 234.8 -15.1  34160  289.57 0854.57
2009/04/23 15:05:08.2    -288   -104    -95    307    322 250.1 -17.2  34164  289.64 0854.57
2009/04/23 15:05:08.3     -56   -365   -117    370    389 188.7 -17.6  34158  289.54 0854.57
2009/04/23 15:05:08.4    -128   -519     -4    535    536 193.9  -0.5  34162  289.62 0854.57
2009/04/23 15:05:08.5    -115   -581     30    593    594 191.2   2.9  34142  289.27 0854.57
2009/04/23 15:05:08.6      64   -414   -254    420    490 171.1 -38.4  34166  289.66 0854.57
2009/04/23 15:05:08.7     -94   -276   -115    292    313 198.9 -27.1  34152  289.44 0854.57
2009/04/23 15:05:08.8    -105   -389   -125    404    422 195.2 -22.3  34148  289.36 0854.57
2009/04/23 15:05:08.9     -30   -453    198    455    496 183.8  25.0  34156  289.52 0854.57
2009/04/23 15:05:09.0     -75   -556    105    562    572 187.7  10.6  34158  289.53 0854.61
2009/04/23 15:05:09.1    -245   -778    185    816    837 197.5  12.8  34152  289.42 0854.61
2009/04/23 15:05:09.2    -177   -751    158    772    789 193.3  11.6  34160  289.57 0854.61
2009/04/23 15:05:09.3      53   -702    307    704    768 175.6  25.1  34158  289.53 0854.61
2009/04/23 15:05:09.4     172   -629    280    653    710 164.7  24.6  34122  288.92 0854.61
2009/04/23 15:05:09.5      32   -626    166    627    649 177.0  14.9  34146  289.33 0854.61
2009/04/23 15:05:09.6      50   -854    301    856    908 176.6  19.4  34148  289.37 0854.61
2009/04/23 15:05:09.7     100   -845    -89    851    856 173.2  -6.0  34150  289.41 0854.61
2009/04/23 15:05:09.8     303   -629    116    699    709 154.3   9.4  34142  289.27 0854.61
2009/04/23 15:05:09.9     272   -494     29    564    565 151.1   3.0  34160  289.57 0854.61
2009/04/23 15:05:10.0     196   -308    266    366    452 147.5  39.7  34160  289.56 0854.61
2009/04/23 15:05:10.1    -265   -395    265    476    544 213.9  31.4  34154  289.48 0854.61
2009/04/23 15:05:10.2    -108   -696    264    705    752 188.8  21.4  34162  289.60 0854.61
2009/04/23 15:05:10.3     -19   -496    306    497    583 182.3  34.5  34150  289.41 0854.61
2009/04/23 15:05:10.4    -428   -660    360    787    865 213.0  26.2  34166  289.66 0854.61
2009/04/23 15:05:10.5    -624   -514    148    809    823 230.5  10.4  34178  289.86 0854.61
2009/04/23 15:05:10.6    -353   -489    322    604    684 215.8  30.5  34154  289.48 0854.61
2009/04/23 15:05:10.7    -163   -606    544    628    830 195.1  45.4  34144  289.29 0854.61
2009/04/23 15:05:10.8    -302   -403    322    504    598 216.9  35.6  34156  289.49 0854.61
2009/04/23 15:05:10.9    -458   -457    370    648    746 225.1  32.3  34142  289.28 0854.61
2009/04/23 15:05:11.0    -101   -720    298    728    786 188.0  23.6  34138  289.19 0854.62
2009/04/23 15:05:11.1    -117   -575    129    588    603 191.6  12.4  34138  289.20 0854.62
2009/04/23 15:05:11.2     -74   -388     31    396    398 190.9   4.6  34132  289.11 0854.62
2009/04/23 15:05:11.3     133   -435   -155    455    480 163.0 -23.9  34130  289.05 0854.62
2009/04/23 15:05:11.4     372   -201    -75    423    430 118.4 -10.1  34120  288.90 0854.62
2009/04/23 15:05:11.5     243    -60     -7    251    252 103.9  -1.6  34122  288.92 0854.62
2009/04/23 15:05:11.6     564   -256    -24    620    621 114.4  -2.2  34128  289.03 0854.62
2009/04/23 15:05:11.7     555   -407    135    689    703 126.2  11.1  34132  289.11 0854.62
2009/04/23 15:05:11.8     366   -362    165    516    542 134.7  17.8  34132  289.09 0854.62
2009/04/23 15:05:11.9     200   -428    176    473    504 155.0  21.4  34130  289.05 0854.62
2009/04/23 15:05:12.0     149   -333    141    365    391 155.9  22.3  34132  289.10 0854.62
2009/04/23 15:05:12.1     179    -54    125    187    224 106.8  37.0  34136  289.16 0854.62
2009/04/23 15:05:12.2     112   -119     85    164    184 136.8  29.5  34138  289.19 0854.62
2009/04/23 15:05:12.3     157    -82     -6    178    179 117.5  -2.2  34134  289.13 0854.62
2009/04/23 15:05:12.4      83    -69     37    109    116 129.6  18.9  34138  289.21 0854.62
2009/04/23 15:05:12.5     -20   -100     70    103    124 191.6  37.4  34142  289.28 0854.62
2009/04/23 15:05:12.6     104    -27     57    108    122 105.0  29.8  34146  289.33 0854.62
2009/04/23 15:05:12.7      67   -156    167    170    238 156.6  49.8  34134  289.13 0854.62
2009/04/23 15:05:12.8     116   -443    345    458    573 165.3  40.7  34144  289.31 0854.62
2009/04/23 15:05:12.9      26   -240    416    242    481 173.7  67.2  34146  289.34 0854.62
2009/04/23 15:05:13.0     346    -77    487    355    602 102.6  60.5  34174  289.80 0854.50
2009/04/23 15:05:13.1     397     51    332    401    520  82.6  43.8  34160  289.57 0854.50
2009/04/23 15:05:13.2     308   -118    171    331    372 111.1  29.4  34144  289.30 0854.50
2009/04/23 15:05:13.3     257   -242    276    354    448 133.2  41.7  34150  289.41 0854.50
2009/04/23 15:05:13.4     413   -184    225    453    505 114.0  28.2  34156  289.50 0854.50
2009/04/23 15:05:13.5     437   -205    192    483    519 115.2  22.9  34142  289.28 0854.50
2009/04/23 15:05:13.6     303   -295    362    423    556 134.2  44.9  34148  289.37 0854.50
2009/04/23 15:05:13.7     245   -260    248    358    435 136.7  38.0  34156  289.49 0854.50
2009/04/23 15:05:13.8     442   -280     36    524    526 122.4   4.0  34148  289.36 0854.50
2009/04/23 15:05:13.9     269   -381    165    467    496 144.8  19.5  34140  289.23 0854.50
2009/04/23 15:05:14.0     365   -212     43    423    426 120.2   5.8  34162  289.60 0854.50
2009/04/23 15:05:14.1     381   -135    -94    405    416 109.5 -13.2  34174  289.82 0854.50
2009/04/23 15:05:14.2     189   -177    148    260    299 133.1  32.1  34148  289.36 0854.50
2009/04/23 15:05:14.3     144   -118    185    187    263 129.3  50.0  34148  289.37 0854.50
2009/04/23 15:05:14.4     330   -284    299    436    528 130.8  37.7  34150  289.40 0854.50
2009/04/23 15:05:14.5      24   -225    302    227    377 173.8  59.4  34146  289.33 0854.50
2009/04/23 15:05:14.6    -287   -452    358    536    644 212.5  37.0  34156  289.52 0854.50
2009/04/23 15:05:14.7    -143   -332    -22    362    363 203.3  -3.5  34152  289.45 0854.50
2009/04/23 15:05:14.8    -256   -309     12    402    403 219.6   1.7  34152  289.42 0854.50
2009/04/23 15:05:14.9    -333   -241   -216    412    465 234.1 -34.4  34160  289.58 0854.50
2009/04/23 15:05:15.0    -420    -71   -185    427    465 260.3 -29.5  34152  289.44 0854.48
2009/04/23 15:05:15.1    -481   -452     45    661    663 226.8   3.9  34152  289.44 0854.48
2009/04/23 15:05:15.2    -385   -325    138    505    524 229.8  15.3  34138  289.20 0854.48
2009/04/23 15:05:15.3    -154   -100    290    184    343 236.9  64.7  34174  289.80 0854.48
2009/04/23 15:05:15.4    -171   -151     90    229    246 228.4  22.5  34162  289.61 0854.48
2009/04/23 15:05:15.5     296    124    137    322    349  67.3  24.5  34156  289.52 0854.48
2009/04/23 15:05:15.6     185      0   -295    186    348  90.0 -69.1  34156  289.49 0854.48
2009/04/23 15:05:15.7      29    -92   -145     97    174 162.2 -67.8  34160  289.58 0854.48
2009/04/23 15:05:15.8    -190   -269    175    330    373 215.2  30.2  34152  289.45 0854.48
2009/04/23 15:05:15.9      24   -366    322    367    488 176.2  45.8  34148  289.38 0854.48
2009/04/23 15:05:16.0     112   -399    291    415    506 164.3  38.5  34146  289.35 0854.48
2009/04/23 15:05:16.1      10     -9    290     14    290 133.3  90.0  34176  289.83 0854.48
2009/04/23 15:05:16.2    -149   -300    226    336    404 206.5  37.2  34138  289.20 0854.48
2009/04/23 15:05:16.3    -238   -309    162    391    423 217.6  23.8  34140  289.22 0854.48
2009/04/23 15:05:16.4    -395   -294     68    493    498 233.4   7.9  34144  289.30 0854.48
2009/04/23 15:05:16.5    -336   -197     25    390    391 239.6   3.8  34148  289.37 0854.48
2009/04/23 15:05:16.6    -434    -79   -116    442    458 259.6 -14.8  34148  289.36 0854.48
2009/04/23 15:05:16.7    -314     -4   -103    315    332 269.2 -18.2  34150  289.41 0854.48
2009/04/23 15:05:16.8    -449   -179   -189    484    519 248.2 -26.8  34146  289.35 0854.48
2009/04/23 15:05:16.9    -554   -428   -354    701    785 232.3 -33.2  34138  289.19 0854.48
2009/04/23 15:05:17.0    -490   -296   -345    573    668 238.8 -38.2  34156  289.52 0854.48
2009/04/23 15:05:17.1    -442   -430   -238    617    661 225.8 -26.6  34158  289.53 0854.48
2009/04/23 15:05:17.2    -237   -158   -140    286    318 236.3 -32.5  34162  289.61 0854.48
2009/04/23 15:05:17.3    -237   -250   -110    345    363 223.5 -17.7  34162  289.60 0854.48
2009/04/23 15:05:17.4    -319   -539    -19    627    628 210.7  -1.8  34178  289.86 0854.48
2009/04/23 15:05:17.5    -259   -250     25    361    362 226.0   4.0  34178  289.89 0854.48
2009/04/23 15:05:17.6     -67   -381     -1    387    388 190.0  -0.2  34168  289.72 0854.48
2009/04/23 15:05:17.7    -102   -428     30    440    442 193.4   4.0  34198  290.21 0854.48
2009/04/23 15:05:17.8      -7   -372   -133    373    397 181.2 -19.7  34184  289.98 0854.48
2009/04/23 15:05:17.9     -72   -354    -73    362    370 191.5 -11.5  34182  289.96 0854.48
2009/04/23 15:05:18.0    -138   -338   -123    366    387 202.2 -18.6  34188  290.03 0854.46
2009/04/23 15:05:18.1     -71   -398   -104    405    419 190.2 -14.5  34180  289.90 0854.46
2009/04/23 15:05:18.2    -134   -638   -107    653    662 191.9  -9.3  34190  290.09 0854.46
2009/04/23 15:05:18.3     -98   -438   -142    449    472 192.7 -17.6  34196  290.17 0854.46
2009/04/23 15:05:18.4       4   -450   -141    451    472 179.4 -22.3  34164  289.64 0854.46
2009/04/23 15:05:18.5     -62   -400    -63    405    411 188.9  -8.9  34176  289.85 0854.46
2009/04/23 15:05:18.6    -151   -516    -38    538    540 196.4  -4.1  34188  290.06 0854.46
2009/04/23 15:05:18.7      25   -358     43    359    362 175.9   6.9  34184  289.99 0854.46
2009/04/23 15:05:18.8      33   -392     49    394    398 175.1   7.1  34166  289.67 0854.46
2009/04/23 15:05:18.9     158    -95     26    185    187 121.1   8.2  34168  289.72 0854.46
2009/04/23 15:05:19.0     339   -127    126    363    385 110.6  19.2  34152  289.43 0854.46
2009/04/23 15:05:19.1     380     52    105    384    399  82.2  15.3  34148  289.37 0854.46
2009/04/23 15:05:19.2     189     23    127    191    229  83.0  36.7  34156  289.52 0854.46
2009/04/23 15:05:19.3      50   -105     -2    117    118 154.6  -1.3  34156  289.52 0854.46
2009/04/23 15:05:19.4     -33   -141     41    145    151 193.4  15.8  34170  289.74 0854.46
2009/04/23 15:05:19.5     -62   -307    -73    314    323 191.5 -13.2  34166  289.66 0854.46
2009/04/23 15:05:19.6     -56   -375    -69    380    387 188.6 -10.3  34166  289.69 0854.46
2009/04/23 15:05:19.7       8   -339    -47    340    344 178.5  -7.9  34170  289.74 0854.46
2009/04/23 15:05:19.8    -192   -348    -56    398    403 208.9  -8.1  34166  289.67 0854.46
2009/04/23 15:05:19.9    -136   -400   -126    423    442 198.8 -16.6  34166  289.66 0854.46
2009/04/23 15:05:20.0    -156   -357   -116    390    407 203.7 -16.6  34156  289.52 0854.47
2009/04/23 15:05:20.1    -318    -13    -49    319    323 267.7  -8.8  34198  290.20 0854.47
2009/04/23 15:05:20.2    -183   -208     44    278    282 221.4   9.0  34200  290.26 0854.47
2009/04/23 15:05:20.3     -55   -147    -57    158    167 200.5 -24.8  34192  290.11 0854.47
2009/04/23 15:05:20.4    -230   -138   -132    269    299 239.1 -32.4  34188  290.03 0854.47
2009/04/23 15:05:20.5    -114   -344    -65    363    369 198.3 -10.3  34188  290.04 0854.47
2009/04/23 15:05:20.6     -17   -229    -52    230    236 184.5 -12.9  34192  290.10 0854.47
2009/04/23 15:05:20.7     -79   -503   -182    510    542 189.0 -19.7  34176  289.85 0854.47
2009/04/23 15:05:20.8    -297   -536   -246    614    661 209.0 -27.4  34152  289.43 0854.47
2009/04/23 15:05:20.9    -244   -558   -127    610    624 203.6 -11.8  34170  289.74 0854.47
2009/04/23 15:05:21.0    -535   -407   -274    673    726 232.8 -27.8  34136  289.17 0854.47
2009/04/23 15:05:21.1    -348   -159     32    383    385 245.4   4.9  34182  289.94 0854.47
2009/04/23 15:05:21.2    -288   -351    -92    455    465 219.4 -11.5  34168  289.72 0854.47
2009/04/23 15:05:21.3     -55   -594     84    597    604 185.4   8.0  34164  289.64 0854.47
2009/04/23 15:05:21.4     -19   -713    -13    714    715 181.6  -1.1  34162  289.59 0854.47
2009/04/23 15:05:21.5    -207   -720   -161    750    768 196.1 -12.2  34152  289.45 0854.47
2009/04/23 15:05:21.6    -298   -457     16    546    547 213.1   1.7  34160  289.57 0854.47
2009/04/23 15:05:21.7    -339   -461   -180    573    601 216.4 -17.5  34162  289.59 0854.47
2009/04/23 15:05:21.8    -399   -666    -88    777    783 210.9  -6.5  34144  289.29 0854.47
2009/04/23 15:05:21.9    -569   -690   -194    895    917 219.5 -12.3  34152  289.45 0854.47
2009/04/23 15:05:22.0    -709   -595    -76    926    930 230.0  -4.7  34138  289.20 0854.48
2009/04/23 15:05:22.1    -575   -322   -344    660    744 240.7 -34.2  34152  289.44 0854.48
2009/04/23 15:05:22.2    -418   -488   -300    643    709 220.6 -31.3  34152  289.43 0854.48
2009/04/23 15:05:22.3    -120   -514    -57    528    532 193.2  -6.2  34140  289.23 0854.48
2009/04/23 15:05:22.4    -252   -471   -152    535    556 208.1 -20.7  34146  289.33 0854.48
2009/04/23 15:05:22.5    -375   -511   -263    634    686 216.3 -28.2  34150  289.41 0854.48
2009/04/23 15:05:22.6    -357   -290   -139    461    481 230.9 -21.7  34150  289.40 0854.48
2009/04/23 15:05:22.7    -421   -400    -41    582    584 226.5  -4.1  34150  289.41 0854.48
2009/04/23 15:05:22.8    -315   -418     19    524    525 217.0   2.1  34150  289.40 0854.48
2009/04/23 15:05:22.9    -276      0   -122    277    302 270.0 -29.6  34160  289.58 0854.48
2009/04/23 15:05:23.0    -255   -105   -116    276    299 247.6 -28.5  34166  289.66 0854.48
2009/04/23 15:05:23.1    -324    113   -207    344    401 289.2 -38.4  34164  289.65 0854.48
2009/04/23 15:05:23.2    -226    -13    -63    227    235 266.5 -20.2  34168  289.71 0854.48
2009/04/23 15:05:23.3    -107   -222   -124    247    276 205.9 -32.9  34160  289.58 0854.48
2009/04/23 15:05:23.4      26   -274   -109    276    296 174.4 -27.4  34156  289.51 0854.48
2009/04/23 15:05:23.5      -4   -190    -68    191    203 181.4 -19.7  34152  289.43 0854.48
2009/04/23 15:05:23.6      17   -233    -49    234    240 175.8 -11.9  34158  289.53 0854.48
2009/04/23 15:05:23.7      57   -263    -54    270    276 167.7 -11.3  34158  289.54 0854.48
2009/04/23 15:05:23.8    -152   -499     40    522    524 197.0   4.5  34146  289.35 0854.48
2009/04/23 15:05:23.9    -167   -437     66    468    473 201.0   8.1  34156  289.49 0854.48
2009/04/23 15:05:24.0    -188   -469     26    506    507 201.8   3.0  34166  289.66 0854.52
2009/04/23 15:05:24.1     -98   -475    117    486    500 191.7  13.6  34158  289.54 0854.52
2009/04/23 15:05:24.2     -58   -290      1    296    297 191.5   0.2  34148  289.37 0854.52
2009/04/23 15:05:24.3     -22   -109    188    112    218 191.6  66.7  34170  289.75 0854.52
2009/04/23 15:05:24.4     -27   -365    126    366    388 184.2  19.1  34148  289.38 0854.52
2009/04/23 15:05:24.5    -138   -561    109    578    589 193.9  10.7  34160  289.58 0854.52
2009/04/23 15:05:24.6    -157   -546    155    569    590 196.1  15.3  34160  289.58 0854.52
2009/04/23 15:05:24.7    -112   -487     97    500    510 193.0  11.0  34162  289.61 0854.52
2009/04/23 15:05:24.8      38   -624      5    626    627 176.5   0.5  34164  289.64 0854.52
2009/04/23 15:05:24.9     -75   -665     47    670    672 186.5   4.0  34158  289.54 0854.52
2009/04/23 15:05:25.0    -181   -641     56    667    670 195.8   4.9  34168  289.71 0854.52
2009/04/23 15:05:25.1    -156   -700   -154    718    735 192.6 -12.2  34168  289.72 0854.52
2009/04/23 15:05:25.2     -23   -601   -168    602    625 182.3 -20.3  34174  289.82 0854.52
2009/04/23 15:05:25.3      53   -711   -246    713    754 175.7 -24.1  34180  289.92 0854.52
2009/04/23 15:05:25.4     199   -681   -250    710    752 163.7 -24.6  34162  289.62 0854.52
2009/04/23 15:05:25.5     285   -564   -221    633    670 153.2 -24.4  34164  289.65 0854.52
2009/04/23 15:05:25.6     324   -536   -263    627    679 148.8 -28.6  34176  289.83 0854.52
2009/04/23 15:05:25.7     227   -479    -23    531    532 154.6  -2.5  34148  289.38 0854.52
2009/04/23 15:05:25.8     163   -388     82    421    430 157.2  11.1  34154  289.46 0854.52
2009/04/23 15:05:25.9     139   -489   -225    509    556 164.1 -30.0  34152  289.45 0854.52
2009/04/23 15:05:26.0     303   -377    -26    484    485 141.2  -3.2  34142  289.28 0854.55
2009/04/23 15:05:26.1     390   -315    -19    502    503 128.9  -2.2  34158  289.54 0854.55
2009/04/23 15:05:26.2     392   -346   -104    523    534 131.4 -11.3  34154  289.48 0854.55
2009/04/23 15:05:26.3     235   -346    -37    419    421 145.7  -5.1  34158  289.53 0854.55
2009/04/23 15:05:26.4     283   -450     27    532    533 147.9   2.9  34158  289.53 0854.55
2009/04/23 15:05:26.5     194   -379     82    426    434 152.9  11.0  34152  289.44 0854.55
2009/04/23 15:05:26.6     223   -395     42    454    457 150.5   5.3  34154  289.48 0854.55
2009/04/23 15:05:26.7     226   -328    -15    399    400 145.4  -2.2  34162  289.59 0854.55
2009/04/23 15:05:26.8      -7   -428     11    429    430 181.0   1.5  34162  289.60 0854.55
2009/04/23 15:05:26.9      98   -480    -26    491    492 168.4  -3.1  34166  289.69 0854.55
2009/04/23 15:05:27.0     146   -401   -100    427    439 160.0 -13.3  34166  289.68 0854.55
2009/04/23 15:05:27.1     190   -297   -121    353    374 147.4 -19.0  34152  289.45 0854.55
2009/04/23 15:05:27.2     157   -224     -1    274    275 145.0  -0.3  34160  289.56 0854.55
2009/04/23 15:05:27.3      16   -351     20    352    353 177.3   3.3  34162  289.59 0854.55
2009/04/23 15:05:27.5       0   -333    -73    334    343 179.9 -12.4  34160  289.57 0854.55
2009/04/23 15:05:27.6       6   -309   -108    310    329 178.9 -19.3  34170  289.75 0854.55
2009/04/23 15:05:27.7      -7   -375      2    376    377 181.1   0.4  34166  289.69 0854.55
2009/04/23 15:05:27.8     -39   -481    -18    483    484 184.7  -2.2  34170  289.73 0854.55
2009/04/23 15:05:27.9     125   -693    -66    705    709 169.8  -5.4  34176  289.84 0854.55
2009/04/23 15:05:28.0      20   -526   -177    527    557 177.8 -18.6  34170  289.74 0854.55
2009/04/23 15:05:28.1      51   -510   -117    513    527 174.2 -12.9  34176  289.85 0854.60
2009/04/23 15:05:28.2     -13   -468   -127    469    487 181.6 -15.2  34174  289.81 0854.60
2009/04/23 15:05:28.3     -14   -351    -36    352    354 182.3  -6.0  34178  289.86 0854.60
2009/04/23 15:05:28.4     115   -325     43    346    349 160.4   7.1  34180  289.91 0854.60
2009/04/23 15:05:28.5      -6   -395     70    396    403 181.0  10.1  34182  289.93 0854.60
2009/04/23 15:05:28.6      13   -350      0    351    352 177.8   0.0  34172  289.79 0854.60
2009/04/23 15:05:28.7     107   -267   -123    288    313 158.2 -28.9  34178  289.86 0854.60
2009/04/23 15:05:28.8      20   -384     12    385    386 177.0   1.9  34164  289.64 0854.60
2009/04/23 15:05:28.9     251   -471    -37    534    536 151.9  -4.0  34166  289.67 0854.60
2009/04/23 15:05:29.0     336   -494     47    598    600 145.7   4.6  34188  290.05 0854.60
2009/04/23 15:05:29.1     161   -530     72    555    560 163.1   7.5  34176  289.85 0854.60
2009/04/23 15:05:29.2     153   -432    239    459    517 160.5  29.6  34188  290.06 0854.60
2009/04/23 15:05:29.3     287   -592    175    658    681 154.1  14.9  34160  289.56 0854.60
2009/04/23 15:05:29.4     112   -690    190    700    726 170.8  15.2  34172  289.76 0854.60
2009/04/23 15:05:29.5      74   -522    276    528    595 171.9  29.8  34182  289.95 0854.60
2009/04/23 15:05:29.6     326   -536    361    628    724 148.7  32.4  34186  290.02 0854.60
2009/04/23 15:05:29.7     255   -614    264    666    716 157.4  22.9  34174  289.81 0854.60
2009/04/23 15:05:29.8     228   -594    129    637    650 159.0  11.5  34188  290.03 0854.60
2009/04/23 15:05:29.9     -50   -568    140    571    588 185.1  13.8  34170  289.73 0854.60
2009/04/23 15:05:30.0     -37   -457      6    459    460 184.7   0.8  34178  289.87 0854.60
2009/04/23 15:05:30.1      -5   -478     27    479    480 180.7   3.3  34178  289.86 0854.60
2009/04/23 15:05:30.2     -93   -326   -119    340    361 196.0 -19.4  34182  289.94 0854.60
2009/04/23 15:05:30.3     -86   -314     97    326    341 195.4  16.7  34178  289.86 0854.60
2009/04/23 15:05:30.4    -140   -345    158    373    405 202.2  24.3  34178  289.86 0854.60
2009/04/23 15:05:30.5    -246   -348    116    427    443 215.2  15.2  34188  290.04 0854.60
2009/04/23 15:05:30.6    -183   -330    158    378    409 209.1  24.1  34188  290.04 0854.60
2009/04/23 15:05:30.7    -141   -238     94    277    293 210.7  18.9  34192  290.12 0854.60
2009/04/23 15:05:30.8     -60   -248    116    256    281 193.6  26.2  34188  290.05 0854.60
2009/04/23 15:05:30.9       4   -267     89    268    283 179.1  18.5  34188  290.03 0854.60
2009/04/23 15:05:31.0     -28   -288     62    290    297 185.6  12.2  34184  289.97 0854.60
2009/04/23 15:05:31.1    -134   -365     27    389    390 200.2   4.0  34182  289.93 0854.60
2009/04/23 15:05:31.2    -102   -379    108    393    408 195.1  15.4  34180  289.92 0854.60
2009/04/23 15:05:31.3      -4   -470     85    471    479 180.5  10.2  34178  289.86 0854.60
2009/04/23 15:05:31.4       5   -514      1    515    516 179.4   0.2  34172  289.79 0854.60
2009/04/23 15:05:31.5      97   -562     90    571    579 170.2   9.0  34174  289.80 0854.60
2009/04/23 15:05:31.6     141   -494    186    514    547 164.0  19.9  34182  289.94 0854.60
2009/04/23 15:05:31.7     156   -514     11    538    539 163.1   1.2  34172  289.79 0854.60
2009/04/23 15:05:31.8     235   -476     35    531    533 153.7   3.8  34168  289.70 0854.60
2009/04/23 15:05:31.9     269   -369    118    458    474 143.9  14.5  34172  289.78 0854.60
2009/04/23 15:05:32.0     -15   -267     83    268    281 183.4  17.3  34168  289.70 0854.60
2009/04/23 15:05:32.1     -31   -391     77    393    401 184.6  11.1  34176  289.84 0854.62
2009/04/23 15:05:32.2     -59   -294     94    300    315 191.5  17.5  34174  289.80 0854.62
2009/04/23 15:05:32.3    -178   -625    108    650    659 195.9   9.4  34182  289.93 0854.62
2009/04/23 15:05:32.4     165   -479    -11    507    508 160.9  -1.3  34170  289.73 0854.62
2009/04/23 15:05:32.5     -14   -322     29    323    325 182.6   5.2  34168  289.70 0854.62
2009/04/23 15:05:32.6    -156   -222    -19    272    273 215.0  -4.1  34174  289.81 0854.62
2009/04/23 15:05:32.7    -163   -256    -16    304    305 212.6  -3.1  34178  289.86 0854.62
2009/04/23 15:05:32.8    -122   -325    -25    348    349 200.7  -4.1  34178  289.86 0854.62
2009/04/23 15:05:32.9    -207   -325    -93    386    398 212.6 -13.6  34188  290.04 0854.62
2009/04/23 15:05:33.0    -240   -218     47    325    329 227.8   8.2  34180  289.90 0854.62
2009/04/23 15:05:33.1    -231   -424    106    483    495 208.6  12.4  34182  289.96 0854.61
2009/04/23 15:05:33.2    -261   -466     -4    535    536 209.3  -0.5  34184  289.99 0854.61
2009/04/23 15:05:33.3    -231   -305   -105    383    398 217.2 -15.4  34182  289.94 0854.61
2009/04/23 15:05:33.4    -336   -438   -138    553    570 217.5 -14.1  34184  289.99 0854.61
2009/04/23 15:05:33.5    -351   -392   -187    527    560 221.8 -19.6  34160  289.57 0854.61
2009/04/23 15:05:33.6    -155   -337   -103    372    387 204.7 -15.5  34142  289.25 0854.61
2009/04/23 15:05:33.7    -154   -469     -2    494    495 198.2  -0.3  34168  289.71 0854.61
2009/04/23 15:05:33.8    -127   -376    164    398    430 198.7  23.8  34166  289.66 0854.61
2009/04/23 15:05:33.9    -261   -424    289    499    576 211.6  32.8  34182  289.94 0854.61
2009/04/23 15:05:34.0    -169   -266    248    316    401 212.5  42.2  34182  289.93 0854.61
2009/04/23 15:05:34.1     -98   -291    179    308    356 198.7  32.9  34188  290.06 0854.61
2009/04/23 15:05:34.2    -146   -444    100    468    479 198.3  12.1  34182  289.93 0854.61
2009/04/23 15:05:34.3    -359   -500      2    616    617 215.7   0.2  34178  289.87 0854.61
2009/04/23 15:05:34.4    -153   -503     55    527    530 197.0   6.0  34174  289.82 0854.61
2009/04/23 15:05:34.5     -35   -344    175    346    387 186.0  28.9  34186  290.01 0854.61
2009/04/23 15:05:34.6    -239   -212     39    320    323 228.4   7.1  34174  289.80 0854.61
2009/04/23 15:05:34.7    -345   -285    -89    448    457 230.4 -11.3  34184  289.97 0854.61
2009/04/23 15:05:34.8    -430   -178    -33    466    468 247.5  -4.1  34184  289.98 0854.61
2009/04/23 15:05:34.9    -284   -135    -19    315    316 244.6  -3.5  34194  290.15 0854.61
2009/04/23 15:05:35.0    -323   -229    -13    397    398 234.7  -1.9  34192  290.13 0854.60
2009/04/23 15:05:35.1    -298   -248   -168    389    423 230.2 -29.4  34226  290.70 0854.60
2009/04/23 15:05:35.2    -396   -437   -146    590    608 222.2 -13.9  34202  290.29 0854.60
2009/04/23 15:05:35.3    -316   -351     66    473    478 222.0   8.0  34208  290.39 0854.60
2009/04/23 15:05:35.4    -164   -679   -240    699    740 193.6 -19.0  34198  290.23 0854.60
2009/04/23 15:05:35.5    -320   -603   -211    683    716 208.0 -17.2  34178  289.89 0854.60
2009/04/23 15:05:35.6    -486   -625   -196    792    816 217.9 -13.9  34192  290.13 0854.60
2009/04/23 15:05:35.7    -260   -448    -61    519    523 210.1  -6.8  34218  290.57 0854.60
2009/04/23 15:05:35.8    -374   -310   -123    486    502 230.4 -14.3  34208  290.40 0854.60
2009/04/23 15:05:35.9    -282   -310   -459    420    622 222.3 -57.3  34210  290.43 0854.60
2009/04/23 15:05:36.0     -71   -311   -299    320    437 192.9 -52.3  34228  290.73 0854.60
2009/04/23 15:05:36.1    -352   -952    -46   1016   1017 200.3  -2.6  34202  290.27 0854.60
2009/04/23 15:05:36.2    -203   -852    -57    876    878 193.4  -3.7  34172  289.77 0854.60
2009/04/23 15:05:36.3    -185   -722   -123    746    757 194.4  -9.4  34186  290.01 0854.60
2009/04/23 15:05:36.4     -56   -570     90    573    581 185.7   9.0  34190  290.08 0854.60
2009/04/23 15:05:36.5    -125   -653     50    666    668 190.9   4.3  34172  289.77 0854.60
2009/04/23 15:05:36.6    -193   -635     95    664    671 196.9   8.2  34172  289.77 0854.60
2009/04/23 15:05:36.7     150   -474    156    498    523 162.4  17.4  34174  289.81 0854.60
2009/04/23 15:05:36.8     304   -445    226    540    585 145.6  24.2  34146  289.32 0854.60
2009/04/23 15:05:36.9    -188   -831     20    853    854 192.8   1.4  34168  289.70 0854.60
2009/04/23 15:05:37.0     -65   -720     86    723    729 185.2   6.8  34158  289.54 0854.61
2009/04/23 15:05:37.1      24   -619     63    620    624 177.8   5.8  34184  289.98 0854.61
2009/04/23 15:05:37.2      79   -647    116    652    663 173.0  10.1  34182  289.93 0854.61
2009/04/23 15:05:37.3     -27   -587     47    588    590 182.7   4.6  34182  289.95 0854.61
2009/04/23 15:05:37.4      30   -473    244    474    533 176.3  29.3  34176  289.84 0854.61
2009/04/23 15:05:37.5     257   -374    200    455    497 145.5  25.2  34192  290.10 0854.61
2009/04/23 15:05:37.6     314   -451    173    550    577 145.2  17.5  34204  290.31 0854.61
2009/04/23 15:05:37.7     232   -338    166    411    443 145.5  23.1  34190  290.09 0854.61
2009/04/23 15:05:37.8     -54   -495    170    498    527 186.3  18.9  34184  289.98 0854.61
2009/04/23 15:05:37.9     -78   -461    129    468    486 189.7  15.4  34200  290.25 0854.61
2009/04/23 15:05:38.0      12   -260    199    261    328 177.3  41.3  34208  290.39 0854.61
2009/04/23 15:05:38.1     -92   -359    164    371    405 194.5  25.3  34206  290.35 0854.61
2009/04/23 15:05:38.2    -161   -364    162    399    430 203.9  23.4  34196  290.17 0854.61
2009/04/23 15:05:38.3     -96   -476    210    486    529 191.5  25.0  34188  290.06 0854.61
2009/04/23 15:05:38.4     -59   -410     75    415    422 188.3  10.3  34192  290.11 0854.61
2009/04/23 15:05:38.5    -468   -105   -154    480    504 257.3 -23.0  34218  290.56 0854.61
2009/04/23 15:05:38.6    -276   -344     47    442    445 218.7   6.1  34202  290.28 0854.61
2009/04/23 15:05:38.7    -133   -409    112    431    446 198.1  14.6  34182  289.94 0854.61
2009/04/23 15:05:38.8    -273   -295    215    403    456 222.8  30.3  34188  290.04 0854.61
2009/04/23 15:05:38.9    -238   -338    384    414    564 215.2  47.8  34186  290.02 0854.61
2009/04/23 15:05:39.0    -557   -555    152    787    802 225.1  11.0  34172  289.78 0854.60
2009/04/23 15:05:39.1    -773   -615     23    988    989 231.5   1.4  34178  289.88 0854.60
2009/04/23 15:05:39.2    -818   -431    222    925    952 242.2  13.5  34202  290.30 0854.60
2009/04/23 15:05:39.3    -923   -159   -143    937    948 260.2  -8.7  34188  290.05 0854.60
2009/04/23 15:05:39.4   -1149   -191   -327   1165   1211 260.5 -15.7  34140  289.22 0854.60
2009/04/23 15:05:39.5   -1003   -224    -70   1028   1031 257.4  -3.9  34136  289.18 0854.60
2009/04/23 15:05:39.6    -803    -89   -283    809    858 263.6 -19.3  34160  289.56 0854.60
2009/04/23 15:05:39.7    -389   -230     56    453    457 239.4   7.1  34166  289.68 0854.60
2009/04/23 15:05:39.8    -426   -400    220    585    625 226.8  21.6  34182  289.95 0854.60
2009/04/23 15:05:39.9    -307   -195   -105    364    379 237.6 -16.2  34216  290.52 0854.60
2009/04/23 15:05:40.0    -161   -249     15    297    298 213.0   2.9  34198  290.20 0854.60
2009/04/23 15:05:40.1    -244   -351    226    428    484 214.8  30.2  34198  290.23 0854.60
2009/04/23 15:05:40.2     -90   -278      9    293    294 198.0   1.8  34194  290.14 0854.60
2009/04/23 15:05:40.3     -33   -139    -13    143    144 193.4  -5.6  34174  289.82 0854.60
2009/04/23 15:05:40.4     -52   -181     69    189    201 196.0  21.0  34184  289.99 0854.60
2009/04/23 15:05:40.5    -158   -327     29    364    366 205.9   4.6  34186  290.01 0854.60
2009/04/23 15:05:40.6    -235   -498    107    551    562 205.3  11.0  34178  289.89 0854.60
2009/04/23 15:05:40.7    -390   -433    156    584    605 222.0  15.0  34170  289.73 0854.60
2009/04/23 15:05:40.8    -346   -781    -17    855    856 203.9  -1.2  34168  289.70 0854.60
2009/04/23 15:05:40.9    -297   -119    189    321    372 248.2  33.1  34172  289.79 0854.60
2009/04/23 15:05:41.0    -542   -146     32    562    563 254.9   3.3  34186  290.02 0854.59
2009/04/23 15:05:41.1    -578     47   -214    581    619 274.7 -25.4  34200  290.25 0854.59
2009/04/23 15:05:41.2    -485     44   -139    488    507 275.2 -20.7  34188  290.05 0854.59
2009/04/23 15:05:41.3    -302   -226     42    378    381 233.1   6.5  34188  290.04 0854.59
2009/04/23 15:05:41.4    -247   -186    -33    310    312 232.9  -6.1  34190  290.07 0854.59
2009/04/23 15:05:41.5    -243   -224    -69    331    339 227.3 -11.8  34188  290.04 0854.59
2009/04/23 15:05:41.6    -257   -258   -146    365    393 224.9 -27.4  34184  289.98 0854.59
2009/04/23 15:05:41.7    -348   -289    -29    453    454 230.4  -3.7  34194  290.14 0854.59
2009/04/23 15:05:41.8    -118   -209     47    241    246 209.4  11.1  34196  290.17 0854.59
2009/04/23 15:05:41.9     -87   -204     62    222    231 203.2  15.6  34194  290.14 0854.59
2009/04/23 15:05:42.0    -171   -256     63    309    316 213.8  11.6  34200  290.24 0854.59
2009/04/23 15:05:42.1     -70   -333     46    341    345 192.0   7.8  34188  290.06 0854.59
2009/04/23 15:05:42.2      39   -420    157    422    450 174.7  21.4  34200  290.24 0854.59
2009/04/23 15:05:42.3      54   -191    213    199    291 164.0  52.1  34206  290.34 0854.59
2009/04/23 15:05:42.4     249   -320    241    406    472 142.2  33.5  34212  290.44 0854.59
2009/04/23 15:05:42.5     124   -447    261    464    532 164.5  31.9  34204  290.32 0854.59
2009/04/23 15:05:42.6     181   -395    228    435    491 155.4  29.9  34202  290.27 0854.59
2009/04/23 15:05:42.7     182   -223     45    288    292 140.8   9.0  34186  290.02 0854.59
2009/04/23 15:05:42.8     160      0     -1    161    162  90.0  -0.5  34188  290.04 0854.59
2009/04/23 15:05:42.9     252    242    312    350    468  46.1  46.3  34176  289.83 0854.59
2009/04/23 15:05:43.0     480     53    249    484    544  83.6  29.3  34186  290.01 0854.58
2009/04/23 15:05:43.1     403    213    112    456    470  62.1  13.8  34170  289.74 0854.58
2009/04/23 15:05:43.2     453    454     57    642    645  44.9   5.1  34178  289.89 0854.58
2009/04/23 15:05:43.3     447    338     39    561    563  52.9   4.0  34196  290.18 0854.58
2009/04/23 15:05:43.4     474    183    216    509    552  68.8  24.5  34190  290.09 0854.58
2009/04/23 15:05:43.5     265     62    -97    273    289  76.8 -24.6  34190  290.07 0854.58
2009/04/23 15:05:43.6     400    -39    -42    402    405  95.7  -6.0  34198  290.21 0854.58
2009/04/23 15:05:43.7     187    -26     53    189    197  97.9  15.8  34190  290.09 0854.58
2009/04/23 15:05:43.8     209    -15    119    210    241  94.3  32.3  34192  290.13 0854.58
2009/04/23 15:05:43.9     157     43    149    163    220  74.5  47.7  34202  290.28 0854.58
2009/04/23 15:05:44.0     -36     20    -12     42     43 298.9 -21.7  34206  290.36 0854.58
2009/04/23 15:05:44.1       0     11   -105     12    105 357.3 -90.0  34208  290.38 0854.58
2009/04/23 15:05:44.2      17   -159   -132    160    207 173.8 -48.2  34206  290.36 0854.58
2009/04/23 15:05:44.3    -111   -266    -99    289    305 202.7 -23.8  34206  290.36 0854.58
2009/04/23 15:05:44.4    -196   -446    219    488    534 203.7  25.7  34220  290.60 0854.58
2009/04/23 15:05:44.5    -116   -394    285    411    500 196.4  38.3  34226  290.68 0854.58
2009/04/23 15:05:44.6       0   -548    232    549    596 179.9  24.3  34228  290.73 0854.58
2009/04/23 15:05:44.7      55   -508    313    512    600 173.8  34.4  34244  291.00 0854.58
2009/04/23 15:05:44.8     -46   -237    311    242    394 191.1  58.3  34254  291.18 0854.58
2009/04/23 15:05:44.9     -18   -229    208    230    310 184.7  46.9  34222  290.63 0854.58
2009/04/23 15:05:45.0    -105   -324    367    341    500 198.0  52.3  34212  290.44 0854.60
2009/04/23 15:05:45.1    -284   -283    366    402    543 225.1  47.0  34214  290.49 0854.60
2009/04/23 15:05:45.2    -124   -279    443    306    538 204.1  62.1  34252  291.12 0854.60
2009/04/23 15:05:45.3    -272   -328    360    427    558 219.6  44.3  34234  290.83 0854.60
2009/04/23 15:05:45.4    -263   -531    406    593    718 206.4  37.7  34226  290.70 0854.60
2009/04/23 15:05:45.5    -166   -364    334    401    521 204.6  43.8  34198  290.20 0854.60
2009/04/23 15:05:45.6    -273   -340    251    437    503 218.7  32.4  34212  290.47 0854.60
2009/04/23 15:05:45.7    -153   -142     34    209    212 227.1   9.3  34216  290.52 0854.60
2009/04/23 15:05:45.8     -77   -383    107    391    406 191.5  15.3  34222  290.64 0854.60
2009/04/23 15:05:45.9     -52   -303    198    308    366 189.8  35.6  34226  290.69 0854.60
2009/04/23 15:05:46.0      48   -168    227    175    286 164.0  58.5  34232  290.78 0854.60
2009/04/23 15:05:46.1      62   -367    160    373    405 170.4  24.8  34248  291.05 0854.60
2009/04/23 15:05:46.2      75   -224    173    237    293 161.3  39.7  34258  291.22 0854.60
2009/04/23 15:05:46.3      61   -137    118    151    191 155.9  42.2  34254  291.18 0854.60
2009/04/23 15:05:46.4     242    -69    192    252    316 106.0  41.2  34208  290.39 0854.60
2009/04/23 15:05:46.5      85     65    148    108    183  52.7  60.5  34208  290.38 0854.60
2009/04/23 15:05:46.6     169     -9    173    170    242  93.3  50.4  34216  290.52 0854.60
2009/04/23 15:05:46.7     218     76    218    231    317  70.7  48.4  34226  290.68 0854.60
2009/04/23 15:05:46.8     116    340    245    360    435  18.9  37.6  34284  291.69 0854.60
2009/04/23 15:05:46.9     167    416    366    449    579  21.9  43.4  34292  291.81 0854.60
2009/04/23 15:05:47.0      34    419    247    421    488   4.7  33.1  34290  291.78 0854.60
2009/04/23 15:05:47.1     -53    315    128    320    344 350.3  23.0  34268  291.40 0854.60
2009/04/23 15:05:47.2     -16    200    182    201    271 355.3  46.9  34254  291.16 0854.60
2009/04/23 15:05:47.3    -106    338     78    355    364 342.6  12.5  34260  291.27 0854.60
2009/04/23 15:05:47.4     192    375    113    422    437  27.2  15.0  34250  291.09 0854.60
2009/04/23 15:05:47.5     227    156    175    276    326  55.4  35.5  34260  291.26 0854.60
2009/04/23 15:05:47.6     138   -109    114    177    210 128.4  35.6  34252  291.15 0854.60
2009/04/23 15:05:47.7     156    172    127    233    265  42.1  31.0  34292  291.82 0854.60
2009/04/23 15:05:47.8     312     65    205    319    379  78.1  35.6  34318  292.27 0854.60
2009/04/23 15:05:47.9     148     21     48    150    158  81.6  17.9  34308  292.08 0854.60
2009/04/23 15:05:48.0      62     51    100     81    128  50.5  56.4  34286  291.72 0854.60
2009/04/23 15:05:48.1     122    108    173    164    238  48.4  51.6  34320  292.30 0854.60
2009/04/23 15:05:48.2     666    231     67    706    710  70.8   5.5  34236  290.86 0854.60
2009/04/23 15:05:48.3     554    298    202    630    662  61.7  17.8  34238  290.91 0854.60
2009/04/23 15:05:48.4     598    423    329    733    803  54.7  25.8  34288  291.75 0854.60
2009/04/23 15:05:48.5     758    282    281    809    857  69.6  19.2  34224  290.65 0854.60
2009/04/23 15:05:48.6     762    297    208    818    845  68.7  14.3  34228  290.74 0854.60
2009/04/23 15:05:48.7     876    444    152    983    995  63.1   8.8  34172  289.76 0854.60
2009/04/23 15:05:48.8     792    448    185    911    930  60.5  11.5  34182  289.95 0854.60
2009/04/23 15:05:48.9     553    223   -152    597    617  68.0 -14.3  34264  291.34 0854.60
2009/04/23 15:05:49.0     734    324    -64    803    806  66.2  -4.6  34172  289.79 0854.61
2009/04/23 15:05:49.1     651    475     91    807    813  53.9   6.5  34192  290.11 0854.61
2009/04/23 15:05:49.2     460    302    216    551    591  56.7  22.5  34254  291.17 0854.61
2009/04/23 15:05:49.3     729    371    181    818    838  63.0  12.5  34226  290.70 0854.61
2009/04/23 15:05:49.4     579    323     57    664    667  60.8   5.0  34218  290.56 0854.61
2009/04/23 15:05:49.5     412    449    166    610    633  42.6  15.3  34194  290.16 0854.61
2009/04/23 15:05:49.6     318    523    148    613    631  31.3  13.6  34234  290.82 0854.61
2009/04/23 15:05:49.7     611    443     42    755    757  54.0   3.2  34244  291.01 0854.61
2009/04/23 15:05:49.8     660    457    -25    804    805  55.3  -1.8  34216  290.52 0854.61
2009/04/23 15:05:49.9     556    253   -198    611    642  65.5 -23.0  34196  290.18 0854.61
2009/04/23 15:05:50.0     471    296   -153    557    577  57.9 -20.0  34218  290.56 0854.61
2009/04/23 15:05:50.1     509    268   -207    576    612  62.3 -25.1  34190  290.08 0854.61
2009/04/23 15:05:50.2     515    287   -226    590    631  60.8 -26.5  34184  289.98 0854.61
2009/04/23 15:05:50.3     898    413    334    989   1045  65.3  18.7  34204  290.33 0854.61
2009/04/23 15:05:50.4    1043    -21    429   1044   1128  91.2  23.6  34230  290.77 0854.61
2009/04/23 15:05:50.5     654   -260     43    704    706 111.7   3.5  34214  290.49 0854.61
2009/04/23 15:05:50.6     695      0   -141    696    711  90.0 -11.5  34198  290.20 0854.61
2009/04/23 15:05:50.7     664   -194    -79    692    697 106.3  -6.6  34188  290.04 0854.61
2009/04/23 15:05:50.8     879     15    211    880    905  89.0  13.5  34148  289.38 0854.61
2009/04/23 15:05:50.9     257   -307    192    401    444 140.1  27.3  34150  289.41 0854.61
2009/04/23 15:05:51.0     551   -255    320    608    687 114.8  30.0  34172  289.78 0854.63
2009/04/23 15:05:51.1     433   -354     86    560    567 129.2   8.8  34166  289.67 0854.63
2009/04/23 15:05:51.2    -116     -4   -187    117    220 267.9 -69.1  34160  289.58 0854.63
2009/04/23 15:05:51.3     318    215    -28    384    386  55.9  -4.2  34174  289.81 0854.63
2009/04/23 15:05:51.4     294    182    -10    347    348  58.2  -1.8  34178  289.87 0854.63
2009/04/23 15:05:51.5     224    -87    -54    241    248 111.3 -12.6  34172  289.78 0854.63
2009/04/23 15:05:51.6     242   -475   -195    534    568 153.0 -25.4  34166  289.68 0854.63
2009/04/23 15:05:51.7     280   -627     48    687    689 155.9   4.0  34160  289.56 0854.63
2009/04/23 15:05:51.8     182  -1061   -252   1077   1107 170.2 -13.2  34180  289.91 0854.63
2009/04/23 15:05:51.9     427  -1033   -183   1118   1134 157.5  -9.3  34172  289.76 0854.63
2009/04/23 15:05:52.0     633   -897    292   1099   1138 144.8  14.9  34158  289.54 0854.63
2009/04/23 15:05:52.1      22   -375    389    376    541 176.6  51.2  34160  289.56 0854.63
2009/04/23 15:05:52.2    -329   -455    120    562    575 215.9  12.1  34170  289.73 0854.63
2009/04/23 15:05:52.3    -285   -218   -219    359    420 232.6 -38.8  34156  289.52 0854.63
2009/04/23 15:05:52.4     -97   -203   -290    226    367 205.6 -62.7  34136  289.15 0854.63
2009/04/23 15:05:52.5    -100   -444   -420    456    619 192.8 -51.9  34160  289.58 0854.63
2009/04/23 15:05:52.6     376   -549   -199    666    696 145.6 -16.6  34168  289.70 0854.63
2009/04/23 15:05:52.7     -71   -174     38    189    193 202.3  11.6  34154  289.46 0854.63
2009/04/23 15:05:52.8     103    225   -112    248    272  24.7 -30.6  34164  289.63 0854.63
2009/04/23 15:05:52.9     140   -192     89    238    254 143.9  21.3  34166  289.66 0854.63
2009/04/23 15:05:53.0     143    185    167    234    287  37.8  39.1  34154  289.46 0854.66
2009/04/23 15:05:53.1    -103     91   -162    138    212 311.3 -59.8  34172  289.79 0854.66
2009/04/23 15:05:53.2     141    159   -213    213    301  41.7 -54.5  34174  289.81 0854.66
2009/04/23 15:05:53.3     375    116   -305    393    497  72.8 -46.3  34172  289.79 0854.66
2009/04/23 15:05:53.4     272    287   -272    396    480  43.5 -42.3  34168  289.70 0854.66
2009/04/23 15:05:53.5     504    182   -192    537    570  70.1 -24.8  34158  289.55 0854.66
2009/04/23 15:05:53.6     256     73   -218    267    344  74.1 -48.0  34168  289.70 0854.66
2009/04/23 15:05:53.7     246    108   -123    269    295  66.3 -30.6  34160  289.56 0854.66
2009/04/23 15:05:53.8     375     99   -219    388    445  75.2 -36.4  34162  289.61 0854.66
2009/04/23 15:05:53.9     466     -7   -166    467    495  90.9 -24.8  34160  289.56 0854.66
2009/04/23 15:05:54.0     410     -8   -193    411    454  91.2 -31.5  34156  289.49 0854.67
2009/04/23 15:05:54.1     242   -105   -188    264    324 113.5 -43.5  34166  289.68 0854.67
2009/04/23 15:05:54.2     259     53     63    265    273  78.3  13.5  34152  289.42 0854.67
2009/04/23 15:05:54.3     447    204    -19    492    493  65.5  -2.3  34166  289.69 0854.67
2009/04/23 15:05:54.4     349    114    -13    368    369  71.8  -2.1  34158  289.54 0854.67
2009/04/23 15:05:54.5     429    -18    268    430    506  92.5  35.0  34156  289.49 0854.67
2009/04/23 15:05:54.6     575     -8    202    576    610  90.9  20.1  34160  289.58 0854.67
2009/04/23 15:05:54.7     370    -75     40    378    381 101.6   6.1  34158  289.54 0854.67
2009/04/23 15:05:54.8     256    -86    -96    271    288 108.6 -19.7  34160  289.56 0854.67
2009/04/23 15:05:54.9     285   -156   -127    326    349 118.8 -26.7  34158  289.55 0854.67
2009/04/23 15:05:55.0     304   -115   -114    326    346 110.8 -19.3  34170  289.74 0854.67
2009/04/23 15:05:55.1     296     91   -177    310    356  72.9 -36.7  34166  289.69 0854.67
2009/04/23 15:05:55.3     278    202   -206    344    400  54.0 -38.2  34160  289.57 0854.67
2009/04/23 15:05:55.4     118    214   -237    245    340  29.0 -53.5  34166  289.68 0854.67
2009/04/23 15:05:55.5     135    320      4    348    349  22.9   0.8  34168  289.71 0854.67
2009/04/23 15:05:55.6      44    287    -98    291    308   8.7 -18.6  34168  289.70 0854.67
2009/04/23 15:05:55.7     -21    245   -137    247    282 354.9 -35.8  34170  289.75 0854.67
2009/04/23 15:05:55.8     -10    269    -96    270    287 357.8 -19.6  34166  289.68 0854.67
2009/04/23 15:05:55.9       0    360   -169    361    398   0.0 -31.4  34172  289.77 0854.67
2009/04/23 15:05:56.0     145    424   -185    449    485  18.9 -28.1  34178  289.89 0854.67
2009/04/23 15:05:56.1     245    430    -97    495    505  29.7 -11.1  34178  289.88 0854.66
2009/04/23 15:05:56.2      35    281     44    284    288   7.1   8.9  34178  289.88 0854.66
2009/04/23 15:05:56.3     -67    373    146    380    407 349.8  22.1  34190  290.08 0854.66
2009/04/23 15:05:56.4    -143    328     69    359    366 336.4  11.0  34208  290.40 0854.66
2009/04/23 15:05:56.5    -232    451     64    508    513 332.8   7.2  34244  291.00 0854.66
2009/04/23 15:05:56.6    -257    540    130    599    614 334.5  12.3  34286  291.72 0854.66
2009/04/23 15:05:56.7     -82    585    150    591    610 352.0  14.3  34272  291.46 0854.66
2009/04/23 15:05:56.8    -136    614     97    629    637 347.5   8.8  34302  291.98 0854.66
2009/04/23 15:05:56.9    -187    647     61    674    677 343.9   5.2  34296  291.87 0854.66
2009/04/23 15:05:57.0    -206    641     76    674    679 342.2   6.5  34282  291.65 0854.66
2009/04/23 15:05:57.1    -199    502      7    541    542 338.3   0.8  34284  291.67 0854.66
2009/04/23 15:05:57.2      73    753    125    757    768   5.6   9.4  34290  291.77 0854.66
2009/04/23 15:05:57.3      67    526    245    531    584   7.3  26.6  34286  291.71 0854.66
2009/04/23 15:05:57.4      90    441    189    451    489  11.6  24.2  34272  291.49 0854.66
2009/04/23 15:05:57.5    -132    506     92    524    533 345.3  10.0  34208  290.38 0854.66
2009/04/23 15:05:57.6     -69    466     40    472    474 351.5   4.9  34194  290.15 0854.66
2009/04/23 15:05:57.7     -41    419     17    422    423 354.4   2.4  34180  289.90 0854.66
2009/04/23 15:05:57.8    -209    394    122    447    464 332.0  15.3  34230  290.75 0854.66
2009/04/23 15:05:57.9    -304    368     92    478    487 320.4  11.0  34226  290.68 0854.66
2009/04/23 15:05:58.0    -252    301    222    393    451 320.1  31.7  34266  291.38 0854.66
2009/04/23 15:05:58.1    -159    258    266    304    403 328.4  45.7  34254  291.18 0854.68
2009/04/23 15:05:58.2    -130    199    202    239    312 326.8  44.5  34308  292.07 0854.68
2009/04/23 15:05:58.3    -157    230     81    279    291 325.7  16.3  34260  291.26 0854.68
2009/04/23 15:05:58.4     -19     69    123     72    142 344.0  67.2  34240  290.94 0854.68
2009/04/23 15:05:58.5     -15    -57    -20     60     64 195.2 -18.7  34256  291.21 0854.68
2009/04/23 15:05:58.6     -75   -199    -87    213    230 200.7 -27.8  34190  290.08 0854.68
2009/04/23 15:05:58.7    -114   -284    -20    307    308 201.9  -3.7  34188  290.03 0854.68
2009/04/23 15:05:58.8      -2   -185    223    186    290 180.7  56.3  34234  290.83 0854.68
2009/04/23 15:05:58.9     161   -137    218    212    304 130.4  50.9  34244  291.00 0854.68
2009/04/23 15:05:59.0     141    -96    214    171    273 124.4  57.5  34244  290.99 0854.68
2009/04/23 15:05:59.1     142   -109    220    180    284 127.5  56.4  34234  290.83 0854.68
2009/04/23 15:05:59.2      46    -45    230     65    239 134.0  83.9  34260  291.28 0854.68
2009/04/23 15:05:59.3      62     24    272     67    280  68.3  86.4  34262  291.31 0854.68
2009/04/23 15:05:59.4      52     -3    204     53    210  93.5  85.4  34248  291.08 0854.68
2009/04/23 15:05:59.5     -29      5    209     30    211 279.7  90.0  34250  291.11 0854.68
2009/04/23 15:05:59.6     -50      0    175     51    182 270.0  83.3  34252  291.15 0854.68
2009/04/23 15:05:59.7      61     53    224     82    238  49.1  79.2  34250  291.11 0854.68
2009/04/23 15:05:59.8       7      0    183      8    183  94.4  90.0  34248  291.08 0854.68
2009/04/23 15:05:59.9      23    -68    161     72    176 161.3  74.5  34256  291.21 0854.68
2009/04/23 15:06:00.0       3   -161    239    162    288 178.9  62.7  34250  291.10 0854.68
2009/04/23 15:06:00.1      54    -46    150     72    166 130.4  72.8  34254  291.16 0854.67
2009/04/23 15:06:00.2     -27    -62    180     68    192 203.6  78.6  34248  291.08 0854.67
2009/04/23 15:06:00.3    -117   -233    251    261    362 206.7  48.8  34242  290.96 0854.67
2009/04/23 15:06:00.4    -169   -281    192    329    380 211.0  33.0  34254  291.18 0854.67
2009/04/23 15:06:00.5    -166   -281    201    327    383 210.7  34.8  34240  290.93 0854.67
2009/04/23 15:06:00.6    -165   -269    211    316    379 211.6  36.9  34260  291.28 0854.67
2009/04/23 15:06:00.7    -152   -227    249    274    370 213.8  47.0  34248  291.06 0854.67
2009/04/23 15:06:00.8    -218   -199    231    296    375 227.6  41.9  34248  291.06 0854.67
2009/04/23 15:06:00.9    -166   -234    176    288    337 215.4  34.3  34270  291.43 0854.67
2009/04/23 15:06:01.0    -263   -150    -86    303    314 240.2 -20.5  34262  291.31 0854.67
2009/04/23 15:06:01.1    -341   -206    -37    399    401 238.8  -5.3  34288  291.76 0854.67
2009/04/23 15:06:01.2    -405   -261    -19    482    483 237.2  -2.3  34260  291.27 0854.67
2009/04/23 15:06:01.3    -361   -218    -71    422    429 238.8  -9.6  34246  291.04 0854.67
2009/04/23 15:06:01.4    -352   -347    -19    495    496 225.4  -2.2  34266  291.37 0854.67
2009/04/23 15:06:01.5    -384   -271     19    470    471 234.8   2.3  34262  291.32 0854.67
2009/04/23 15:06:01.6    -264   -281      5    386    387 223.2   0.8  34238  290.89 0854.67
2009/04/23 15:06:01.7    -273   -239     34    363    365 228.8   5.4  34242  290.98 0854.67
2009/04/23 15:06:01.8    -208   -112    -25    237    239 241.8  -6.2  34266  291.36 0854.67
2009/04/23 15:06:01.9    -257    -88    -94    272    288 251.0 -19.1  34260  291.26 0854.67
2009/04/23 15:06:02.0    -322   -107     -5    340    341 251.6  -0.9  34260  291.28 0854.65
2009/04/23 15:06:02.1    -273     -8    -86    274    288 268.3 -17.5  34248  291.07 0854.65
2009/04/23 15:06:02.2    -271     14    -69    272    281 273.0 -14.4  34256  291.21 0854.65
2009/04/23 15:06:02.3    -334    -10     56    335    340 268.2   9.5  34262  291.30 0854.65
2009/04/23 15:06:02.4    -315    -60     -6    321    322 259.2  -1.1  34274  291.50 0854.65
2009/04/23 15:06:02.5    -292    121    -12    317    318 292.6  -2.2  34272  291.48 0854.65
2009/04/23 15:06:02.6    -191     86    -59    210    219 294.2 -15.8  34262  291.30 0854.65
2009/04/23 15:06:02.7    -165    -45     -9    172    173 254.5  -3.3  34252  291.13 0854.65
2009/04/23 15:06:02.8    -184    -86    -24    204    206 244.8  -6.9  34248  291.08 0854.65
2009/04/23 15:06:02.9    -120   -136    -17    182    183 221.4  -5.4  34228  290.74 0854.65
2009/04/23 15:06:03.0     -76   -130     95    151    178 210.3  35.5  34234  290.82 0854.65
2009/04/23 15:06:03.1     -52   -122    127    133    183 203.2  49.0  34238  290.91 0854.65
2009/04/23 15:06:03.2     -45   -134    107    142    177 198.7  40.7  34238  290.91 0854.65
2009/04/23 15:06:03.3     -17    -44     70     48     84 201.8  62.6  34244  291.01 0854.65
2009/04/23 15:06:03.4     -26     56     55     62     82 334.6  46.4  34270  291.45 0854.65
2009/04/23 15:06:03.5     -84     84     58    119    132 315.0  27.3  34264  291.33 0854.65
2009/04/23 15:06:03.6     -80     74     34    110    116 312.7  17.3  34254  291.16 0854.65
2009/04/23 15:06:03.7     -72    153     59    170    181 334.7  19.2  34228  290.72 0854.65
2009/04/23 15:06:03.8    -135    174     30    221    224 322.2   7.8  34218  290.55 0854.65
2009/04/23 15:06:03.9     -59    177    -18    187    188 341.5  -5.6  34220  290.58 0854.65
2009/04/23 15:06:04.0     154     -3    140    155    208  91.3  46.9  34234  290.82 0854.65
2009/04/23 15:06:04.1     -13    -49    154     51    162 195.1  81.0  34256  291.21 0854.65
2009/04/23 15:06:04.2      -4     50    128     51    137 354.7  77.1  34264  291.35 0854.65
2009/04/23 15:06:04.3      -5    126    172    127    213 357.3  60.3  34240  290.92 0854.65
2009/04/23 15:06:04.4     -70      5     98     71    121 274.3  60.5  34234  290.82 0854.65
2009/04/23 15:06:04.5      62      8    150     63    162  82.0  76.3  34222  290.64 0854.65
2009/04/23 15:06:04.6      51    -51    132     73    150 135.0  68.8  34218  290.57 0854.65
2009/04/23 15:06:04.7      13      0    129     14    129  90.0  90.0  34226  290.69 0854.65
2009/04/23 15:06:04.8     111   -150    124    187    224 143.5  36.5  34222  290.64 0854.65
2009/04/23 15:06:04.9       6   -193     82    194    210 178.0  24.3  34224  290.67 0854.65
2009/04/23 15:06:05.0     -48   -183     -3    190    191 194.9  -1.2  34242  290.98 0854.65
2009/04/23 15:06:05.1      69    -68    -41     98    106 134.6 -28.0  34258  291.23 0854.65
2009/04/23 15:06:05.2      25     48    -70     55     89  28.1 -61.9  34258  291.23 0854.65
2009/04/23 15:06:05.3      65     41     24     77     81  57.6  17.9  34260  291.28 0854.65
2009/04/23 15:06:05.4      11      0     82     12     82  90.0  90.0  34258  291.25 0854.65
2009/04/23 15:06:05.5     -80    -11    -17     81     83 262.1 -11.9  34244  290.99 0854.65
2009/04/23 15:06:05.6    -135   -156    -78    207    221 221.0 -25.9  34214  290.50 0854.65
2009/04/23 15:06:05.7    -168     -2    151    169    226 269.2  46.4  34242  290.96 0854.65
2009/04/23 15:06:05.8    -210    -76     52    224    230 250.1  13.1  34244  291.01 0854.65
2009/04/23 15:06:05.9    -162     42     75    168    183 284.6  25.7  34254  291.16 0854.65
2009/04/23 15:06:06.0    -266     -7     57    267    274 268.3  12.2  34252  291.14 0854.64
2009/04/23 15:06:06.1    -215     35    -55    218    226 279.5 -14.3  34244  291.01 0854.64
2009/04/23 15:06:06.2    -353    -35      4    355    356 264.3   0.7  34208  290.40 0854.64
2009/04/23 15:06:06.3    -274     -8    -95    275    291 268.3 -19.1  34184  289.97 0854.64
2009/04/23 15:06:06.4    -223     67    -33    233    236 286.8  -8.2  34196  290.19 0854.64
2009/04/23 15:06:06.5    -205    -68     68    217    228 251.6  17.4  34216  290.52 0854.64
2009/04/23 15:06:06.6    -220   -102     16    243    244 245.2   3.8  34248  291.05 0854.64
2009/04/23 15:06:06.7    -208   -171     33    270    273 230.5   7.1  34268  291.39 0854.64
2009/04/23 15:06:06.8    -287   -182     65    341    348 237.6  10.8  34268  291.39 0854.64
2009/04/23 15:06:06.9    -129   -300     61    327    333 203.3  10.6  34230  290.76 0854.64
2009/04/23 15:06:07.0    -152   -252     72    295    304 211.2  13.8  34238  290.90 0854.64
2009/04/23 15:06:07.1     -75   -153     46    171    178 206.1  15.3  34234  290.84 0854.64
2009/04/23 15:06:07.2     -90   -244     27    261    263 200.3   5.9  34230  290.75 0854.64
2009/04/23 15:06:07.3     -66   -314     49    321    325 191.9   8.8  34232  290.78 0854.64
2009/04/23 15:06:07.4     -27   -359     32    360    362 184.4   5.1  34222  290.64 0854.64
2009/04/23 15:06:07.5     -98   -351    104    365    380 195.6  16.0  34224  290.67 0854.64
2009/04/23 15:06:07.6    -138   -303    131    334    358 204.5  22.5  34220  290.60 0854.64
2009/04/23 15:06:07.7    -132   -238    142    273    307 209.0  29.3  34234  290.82 0854.64
2009/04/23 15:06:07.8    -123   -261    173    289    336 205.3  33.7  34240  290.93 0854.64
2009/04/23 15:06:07.9     -81   -143    170    165    236 209.6  51.2  34246  291.04 0854.64
2009/04/23 15:06:08.0     -91   -234    130    252    283 201.2  29.3  34242  290.97 0854.62
2009/04/23 15:06:08.1     -90   -227     97    245    263 201.6  22.8  34234  290.83 0854.62
2009/04/23 15:06:08.2    -123   -222    122    255    282 209.0  27.3  34228  290.73 0854.62
2009/04/23 15:06:08.3    -135   -212     99    252    270 212.6  22.8  34240  290.92 0854.62
2009/04/23 15:06:08.4     -85   -139    120    164    203 211.4  39.7  34246  291.04 0854.62
2009/04/23 15:06:08.5     -89    -90    153    127    198 224.5  56.3  34256  291.20 0854.62
2009/04/23 15:06:08.6    -135    -75    156    155    219 240.7  50.1  34262  291.32 0854.62
2009/04/23 15:06:08.7    -165    -66    193    178    262 248.0  52.2  34280  291.61 0854.62
2009/04/23 15:06:08.8    -195     59    159    204    258 287.1  41.7  34298  291.90 0854.62
2009/04/23 15:06:08.9    -199    157    107    254    275 308.4  24.2  34278  291.56 0854.62
2009/04/23 15:06:09.0    -126    109    140    168    218 310.9  43.8  34276  291.55 0854.62
2009/04/23 15:06:09.1     -83     63    115    105    155 307.3  52.2  34266  291.38 0854.62
2009/04/23 15:06:09.2     -66     -5     89     67    111 265.7  59.0  34266  291.37 0854.62
2009/04/23 15:06:09.3    -155    -82     38    176    181 242.2  12.4  34266  291.37 0854.62
2009/04/23 15:06:09.4     -96   -150     38    179    184 212.5  12.0  34258  291.23 0854.62
2009/04/23 15:06:09.5    -156    -73     47    173    180 244.9  15.2  34268  291.40 0854.62
2009/04/23 15:06:09.6    -162   -131     33    209    212 230.9   9.0  34274  291.52 0854.62
2009/04/23 15:06:09.7    -152   -123    114    196    226 231.1  33.1  34276  291.55 0854.62
2009/04/23 15:06:09.8     -95    -95    183    135    227 225.1  60.3  34250  291.11 0854.62
2009/04/23 15:06:09.9    -125     30    139    129    189 283.7  52.2  34248  291.06 0854.62
2009/04/23 15:06:10.0    -123     89    156    153    218 306.0  50.4  34244  291.01 0854.62
2009/04/23 15:06:10.1    -101     41    161    110    194 292.2  62.8  34248  291.08 0854.62
2009/04/23 15:06:10.2    -223    135    161    261    306 301.3  34.8  34238  290.90 0854.62
2009/04/23 15:06:10.3    -114    450    188    465    501 345.7  23.2  34316  292.22 0854.62
2009/04/23 15:06:10.4     -71    416    181    423    460 350.3  24.8  34326  292.40 0854.62
2009/04/23 15:06:10.5      55    325    175    330    373   9.6  30.2  34356  292.90 0854.62
2009/04/23 15:06:10.6      20    213    132    215    252   5.6  34.5  34342  292.65 0854.62
2009/04/23 15:06:10.7     116    134     77    178    193  41.0  24.6  34340  292.63 0854.62
2009/04/23 15:06:10.8      48     79     80     93    122  31.6  45.8  34350  292.80 0854.62
2009/04/23 15:06:10.9      48     50    115     70    134  43.3  65.1  34314  292.20 0854.62
2009/04/23 15:06:11.0     -16    268    136    269    301 356.5  29.2  34300  291.94 0854.62
2009/04/23 15:06:11.1      48    341    123    345    366   8.1  20.4  34212  290.47 0854.62
2009/04/23 15:06:11.2     129    252    137    284    315  27.2  27.7  34272  291.46 0854.62
2009/04/23 15:06:11.3     343    134    202    369    420  68.6  31.3  34352  292.84 0854.62
2009/04/23 15:06:11.4     427     86    251    436    503  78.5  32.6  34356  292.90 0854.62
2009/04/23 15:06:11.5     504    279    272    577    637  61.0  27.1  34298  291.90 0854.62
2009/04/23 15:06:11.6     598    327    249    682    726  61.3  21.0  34292  291.81 0854.62
2009/04/23 15:06:11.7     579    340    251    672    717  59.6  21.4  34306  292.04 0854.62
2009/04/23 15:06:11.8     807    316    135    867    878  68.6   8.9  34234  290.83 0854.62
2009/04/23 15:06:11.9     637    327    194    717    743  62.8  15.1  34212  290.45 0854.62
2009/04/23 15:06:12.0     653    365     71    749    753  60.8   5.4  34188  290.04 0854.63
2009/04/23 15:06:12.1     709    313    137    776    789  66.2  10.0  34216  290.51 0854.63
2009/04/23 15:06:12.2     676    356    144    764    778  62.2  10.7  34252  291.15 0854.63
2009/04/23 15:06:12.3     661    242    174    705    727  69.9  13.9  34254  291.17 0854.63
2009/04/23 15:06:12.4     530    251    109    587    598  64.6  10.6  34280  291.60 0854.63
2009/04/23 15:06:12.5     289    378    105    476    488  37.4  12.5  34276  291.54 0854.63
2009/04/23 15:06:12.6     454    348     61    573    577  52.5   6.1  34252  291.15 0854.63
2009/04/23 15:06:12.7     570    341     -8    665    666  59.1  -0.7  34250  291.09 0854.63
2009/04/23 15:06:12.8     464    379     34    600    601  50.8   3.3  34228  290.71 0854.63
2009/04/23 15:06:12.9     512    271     -2    580    581  62.1  -0.2  34262  291.29 0854.63
2009/04/23 15:06:13.0     540    371    -61    656    660  55.5  -5.4  34224  290.66 0854.63
2009/04/23 15:06:13.1     673    371    185    769    792  61.1  13.6  34254  291.17 0854.63
2009/04/23 15:06:13.2     841     67    456    844    959  85.4  30.8  34230  290.77 0854.63
2009/04/23 15:06:13.3     604   -173    341    629    715 106.0  30.8  34228  290.72 0854.63
2009/04/23 15:06:13.4     432   -130    423    452    619 106.8  47.9  34280  291.61 0854.63
2009/04/23 15:06:13.5     617   -183    345    644    730 106.5  30.5  34264  291.35 0854.63
2009/04/23 15:06:13.6     627   -132    369    641    739 101.9  32.6  34312  292.17 0854.63
2009/04/23 15:06:13.7     746   -106    393    754    850  98.1  29.8  34260  291.27 0854.63
2009/04/23 15:06:13.8     537   -184    274    568    630 109.0  27.7  34278  291.58 0854.63
2009/04/23 15:06:13.9     239    108    249    263    362  65.6  48.4  34256  291.20 0854.63
2009/04/23 15:06:14.0     269    240    263    361    446  48.3  39.7  34256  291.19 0854.66
2009/04/23 15:06:14.1     329     86    255    341    425  75.3  40.6  34252  291.15 0854.66
2009/04/23 15:06:14.2     321    212    304    386    491  56.5  42.2  34264  291.35 0854.66
2009/04/23 15:06:14.3     118     59    148    132    198  63.4  53.7  34284  291.67 0854.66
2009/04/23 15:06:14.4     206     53    170    213    272  75.4  42.7  34280  291.60 0854.66
2009/04/23 15:06:14.5     221    156    186    271    328  54.7  37.8  34254  291.16 0854.66
2009/04/23 15:06:14.6      78    141    164    162    230  29.0  50.1  34268  291.40 0854.66
2009/04/23 15:06:14.7     158    161    266    226    349  44.5  55.6  34276  291.53 0854.66
2009/04/23 15:06:14.8     181    233    171    296    341  37.9  32.7  34278  291.58 0854.66
2009/04/23 15:06:14.9     282     39    120    285    309  82.1  24.2  34274  291.51 0854.66
2009/04/23 15:06:15.0     137    158    219    210    303  41.0  51.4  34286  291.70 0854.66
2009/04/23 15:06:15.1      47    163    137    170    218  16.3  43.3  34274  291.50 0854.66
2009/04/23 15:06:15.2     -31    170    131    173    217 349.5  40.9  34262  291.32 0854.66
2009/04/23 15:06:15.3       6     85    131     86    156   4.5  64.6  34280  291.60 0854.66
2009/04/23 15:06:15.4       6     -2     75      7     75 108.2  90.0  34284  291.69 0854.66
2009/04/23 15:06:15.5      48     19     61     52     80  67.4  55.4  34272  291.47 0854.66
2009/04/23 15:06:15.6     106      0    103    107    148  90.0  49.0  34278  291.59 0854.66
2009/04/23 15:06:15.7     113    -12    168    114    203  96.1  62.7  34302  291.98 0854.66
2009/04/23 15:06:15.8     185    -30    167    188    251  99.5  46.2  34300  291.95 0854.66
2009/04/23 15:06:15.9     133     27    149    136    201  78.5  52.7  34306  292.05 0854.66
2009/04/23 15:06:16.0      27     87     86     92    125  17.4  48.0  34312  292.17 0854.67
2009/04/23 15:06:16.1      -2    156     63    157    169 359.0  23.0  34282  291.66 0854.67
2009/04/23 15:06:16.2     -30    -55    163     63    174 209.0  78.4  34266  291.38 0854.67
2009/04/23 15:06:16.3    -229   -156    196    278    340 235.8  38.7  34266  291.36 0854.67
2009/04/23 15:06:16.4    -223   -387     90    447    456 210.0  11.4  34256  291.21 0854.67
2009/04/23 15:06:16.5    -159   -449     54    477    481 199.5   6.5  34222  290.61 0854.67
2009/04/23 15:06:16.6      12   -554     96    555    564 178.7   9.9  34222  290.62 0854.67
2009/04/23 15:06:16.7      82   -756    188    761    784 173.8  13.9  34212  290.47 0854.67
2009/04/23 15:06:16.8     158   -776    163    793    810 168.4  11.7  34218  290.57 0854.67
2009/04/23 15:06:16.9    -141   -692    137    707    721 191.6  11.0  34238  290.91 0854.67
2009/04/23 15:06:17.0    -222   -744     98    777    784 196.6   7.2  34244  291.00 0854.69
2009/04/23 15:06:17.1    -106   -798     96    806    812 187.6   6.8  34224  290.67 0854.69
2009/04/23 15:06:17.2     -12   -773    207    774    802 180.9  15.0  34202  290.29 0854.69
2009/04/23 15:06:17.3      24   -588    126    589    603 177.7  12.2  34218  290.54 0854.69
2009/04/23 15:06:17.4      92   -668    236    675    716 172.1  19.3  34216  290.52 0854.69
2009/04/23 15:06:17.5     258   -332    297    421    515 142.2  38.6  34222  290.62 0854.69
2009/04/23 15:06:17.6     145   -550    295    569    640 165.2  29.6  34222  290.62 0854.69
2009/04/23 15:06:17.7     262   -596    290    652    713 156.3  25.7  34220  290.60 0854.69
2009/04/23 15:06:17.8     190   -702     12    728    729 164.9   1.0  34196  290.18 0854.69
2009/04/23 15:06:17.9     215   -661   -121    696    707 162.0  -9.9  34202  290.28 0854.69
2009/04/23 15:06:18.0     220   -574   -145    615    632 159.0 -13.3  34208  290.37 0854.69
2009/04/23 15:06:18.1     281   -383    -61    476    480 143.7  -7.3  34212  290.44 0854.69
2009/04/23 15:06:18.2     314    -65     36    321    324 101.8   6.5  34230  290.76 0854.69
2009/04/23 15:06:18.3       8   -297    178    298    347 178.4  33.7  34218  290.57 0854.69
2009/04/23 15:06:18.4    -177   -514    493    544    734 199.1  46.9  34194  290.14 0854.69
2009/04/23 15:06:18.5    -355   -354     46    502    505 225.1   5.3  34192  290.13 0854.69
2009/04/23 15:06:18.6    -184   -361     40    406    408 207.1   5.7  34184  289.99 0854.69
2009/04/23 15:06:18.8    -111   -333    220    352    415 198.5  35.1  34186  290.01 0854.69
2009/04/23 15:06:18.8      12   -199    182    200    270 176.4  47.1  34196  290.19 0854.69
2009/04/23 15:06:18.9     115    -98    202    152    252 130.4  59.4  34170  289.74 0854.69
2009/04/23 15:06:19.0     -62   -304    186    311    362 191.6  33.7  34168  289.72 0854.72
2009/04/23 15:06:19.1       5   -258    -23    259    261 178.9  -5.2  34182  289.95 0854.72
2009/04/23 15:06:19.2      25   -324    -59    326    332 175.5 -10.4  34172  289.77 0854.72
2009/04/23 15:06:19.3      87   -283   -114    297    318 162.8 -26.4  34170  289.73 0854.72
2009/04/23 15:06:19.4     -69   -257      8    267    268 195.2   1.8  34178  289.86 0854.72
2009/04/23 15:06:19.5      43    -76    114     88    144 150.6  58.5  34182  289.94 0854.72
2009/04/23 15:06:19.6     171     99    138    198    241  60.0  38.4  34182  289.94 0854.72
2009/04/23 15:06:19.7      90    116    117    147    187  37.8  43.0  34194  290.14 0854.72
2009/04/23 15:06:19.8       2    128    115    129    172   0.9  46.6  34200  290.26 0854.72
2009/04/23 15:06:20.0      75    200    121    214    245  20.7  31.9  34196  290.19 0854.72
2009/04/23 15:06:20.0      88    242     55    258    264  20.0  12.2  34196  290.17 0854.72
2009/04/23 15:06:20.1    -254    -87     94    269    284 250.9  20.0  34196  290.19 0854.72
2009/04/23 15:06:20.2    -115   -308     66    329    336 200.5  11.3  34184  289.98 0854.72
2009/04/23 15:06:20.3    -224   -108    109    249    271 244.2  25.1  34182  289.95 0854.72
2009/04/23 15:06:20.4    -414    -55   -120    418    434 262.3 -20.8  34162  289.61 0854.72
2009/04/23 15:06:20.5    -375   -325   -118    497    511 229.1 -13.4  34176  289.84 0854.72
2009/04/23 15:06:20.6    -327   -160     73    365    373 243.9  11.4  34162  289.62 0854.72
2009/04/23 15:06:20.7    -176    143    224    227    318 309.1  49.8  34188  290.03 0854.72
2009/04/23 15:06:20.8    -208    158    181    262    318 307.3  38.0  34202  290.27 0854.72
2009/04/23 15:06:20.9    -164    175    176    241    298 316.8  39.7  34206  290.34 0854.72
2009/04/23 15:06:21.0    -111      1    160    112    195 270.8  61.8  34198  290.21 0854.72
2009/04/23 15:06:21.2     -28     42    111     51    122 325.7  74.0  34186  290.01 0854.72
2009/04/23 15:06:21.2       8     51      6     52     53   8.9   6.9  34194  290.14 0854.72
2009/04/23 15:06:21.3      31      9      4     33     34  73.2   6.9  34192  290.11 0854.72
2009/04/23 15:06:21.4      76    -51    128     92    157 124.2  60.8  34188  290.04 0854.72
2009/04/23 15:06:21.5      -8    -93    137     94    166 185.3  62.6  34218  290.57 0854.72
2009/04/23 15:06:21.6       1    -82    156     83    176 179.1  69.8  34206  290.35 0854.72
2009/04/23 15:06:21.7       1   -121    175    122    213 179.5  62.1  34204  290.31 0854.72
2009/04/23 15:06:21.8     182    -81    187    200    273 114.0  47.9  34194  290.15 0854.72
2009/04/23 15:06:21.9     139    -50    157    148    215 109.9  52.1  34198  290.21 0854.72
2009/04/23 15:06:22.0     171    -56    262    180    317 108.2  62.2  34188  290.03 0854.72
2009/04/23 15:06:22.1    -126   -222    393    256    469 209.6  64.0  34164  289.63 0854.72
2009/04/23 15:06:22.2    -118   -257    300    283    412 204.7  52.1  34154  289.48 0854.72
2009/04/23 15:06:22.4    -301   -264    168    401    434 228.7  24.1  34174  289.80 0854.72
2009/04/23 15:06:22.4    -103   -258     92    279    294 201.9  18.4  34174  289.80 0854.72
2009/04/23 15:06:22.6     -28   -240    104    242    263 186.7  24.6  34166  289.66 0854.72
2009/04/23 15:06:22.7     -84   -171     51    191    198 206.1  15.2  34162  289.62 0854.72
2009/04/23 15:06:22.8    -136   -123     73    184    197 227.8  22.8  34166  289.67 0854.72
2009/04/23 15:06:22.9    -228   -107    109    252    274 244.8  25.1  34180  289.90 0854.72
2009/04/23 15:06:23.0    -233    -85    107    249    271 250.0  24.9  34190  290.09 0854.72
2009/04/23 15:06:23.1    -247     -3     53    248    254 269.1  12.1  34188  290.05 0854.66
2009/04/23 15:06:23.2    -232   -109     94    257    273 244.7  20.9  34158  289.53 0854.66
2009/04/23 15:06:23.3    -169   -219     25    277    279 217.8   5.2  34146  289.34 0854.66
2009/04/23 15:06:23.4    -315   -125    -82    340    350 248.3 -13.6  34148  289.38 0854.66
2009/04/23 15:06:23.5    -237     11    -61    238    246 272.8 -14.5  34196  290.19 0854.66
2009/04/23 15:06:23.6    -197     57   -108    206    232 286.2 -34.5  34174  289.82 0854.66
2009/04/23 15:06:23.7    -145    -37    -98    150    179 255.4 -40.7  34154  289.46 0854.66
2009/04/23 15:06:23.8    -174     19     31    176    179 276.4  10.1  34156  289.52 0854.66
2009/04/23 15:06:23.9    -246    -53    -19    252    253 257.7  -4.4  34174  289.80 0854.66
2009/04/23 15:06:24.0    -188    116    -28    222    224 301.8  -7.2  34184  289.99 0854.66
2009/04/23 15:06:24.1    -267    126     17    296    297 295.4   3.3  34192  290.10 0854.66
2009/04/23 15:06:24.2    -198     -3     69    199    211 269.0  19.2  34226  290.69 0854.66
2009/04/23 15:06:24.3      54     17    128     57    140  72.3  74.9  34216  290.52 0854.66
2009/04/23 15:06:24.4      37    189    158    193    249  11.3  43.7  34218  290.55 0854.66
2009/04/23 15:06:24.5      33    118    230    123    260  15.6  69.8  34242  290.96 0854.66
2009/04/23 15:06:24.6     131    237    212    272    344  29.0  42.1  34228  290.73 0854.66
2009/04/23 15:06:24.7     -21    278    101    279    296 355.5  20.9  34242  290.95 0854.66
2009/04/23 15:06:24.8     -42    239     95    243    260 350.0  22.5  34244  290.99 0854.66
2009/04/23 15:06:24.9      -3    129     62    130    144 358.6  27.3  34252  291.13 0854.66
2009/04/23 15:06:25.0      24    140     56    143    153   9.7  22.5  34268  291.42 0854.66
2009/04/23 15:06:25.1     -72    187    150    201    250 338.8  40.6  34340  292.64 0854.52
2009/04/23 15:06:25.2     -30     63    169     70    182 334.6  76.8  34324  292.35 0854.52
2009/04/23 15:06:25.3     -29    -49    149     58    159 210.7  78.2  34220  290.58 0854.52
2009/04/23 15:06:25.4    -211   -199     73    291    301 226.7  14.2  34164  289.63 0854.52
2009/04/23 15:06:25.5    -149   -233     64    277    285 212.7  13.1  34122  288.92 0854.52
2009/04/23 15:06:25.6    -215   -177    -16    279    280 230.5  -3.3  34124  288.97 0854.52
2009/04/23 15:06:25.7    -130   -310    -18    337    338 202.8  -3.2  34126  288.98 0854.52
2009/04/23 15:06:25.8    -139   -299    -45    330    334 205.0  -7.9  34132  289.11 0854.52
2009/04/23 15:06:25.9    -109   -232    -26    257    259 205.3  -6.0  34144  289.31 0854.52
2009/04/23 15:06:26.0      -8   -174    125    175    215 182.9  39.5  34134  289.13 0854.52
2009/04/23 15:06:26.1     -70   -322     85    330    341 192.4  14.5  34142  289.26 0854.52
2009/04/23 15:06:26.2     -31   -334     51    336    340 185.4   8.7  34138  289.20 0854.52
2009/04/23 15:06:26.3     -75   -203      8    217    218 200.5   2.3  34140  289.23 0854.52
2009/04/23 15:06:26.4      -2   -138      4    139    140 180.9   1.8  34138  289.21 0854.52
2009/04/23 15:06:26.5      71    -86    -42    112    119 140.4 -25.4  34136  289.16 0854.52
2009/04/23 15:06:26.6     126     -7    -45    127    135  93.5 -19.7  34142  289.26 0854.52
2009/04/23 15:06:26.7      -1     40     58     41     71 357.4  60.6  34170  289.74 0854.52
2009/04/23 15:06:26.8     -17     67     79     70    105 345.7  53.7  34180  289.92 0854.52
2009/04/23 15:06:26.9     -51     15     92     54    106 286.8  66.8  34176  289.85 0854.52
2009/04/23 15:06:27.0     -35     20     90     41     98 299.8  74.0  34200  290.25 0854.52
2009/04/23 15:06:27.1       9    -38     98     40    105 166.6  77.0  34212  290.47 0854.52
2009/04/23 15:06:27.2     -12     64    159     66    172 349.3  76.3  34252  291.13 0854.52
2009/04/23 15:06:27.3      -7     56    156     57    166 352.0  79.7  34250  291.09 0854.52
2009/04/23 15:06:27.4     -24     17    135     30    138 306.0  88.0  34262  291.30 0854.52
2009/04/23 15:06:27.5     -33    -12    156     36    160 250.0  87.3  34274  291.50 0854.52
2009/04/23 15:06:27.6     -13     40    140     43    146 342.2  82.7  34260  291.28 0854.52
2009/04/23 15:06:27.7     -54    -10    117     55    129 259.4  72.9  34254  291.18 0854.52
2009/04/23 15:06:27.8     -59   -180    159    190    247 198.3  44.1  34236  290.87 0854.52
2009/04/23 15:06:27.9     -51   -144    321    153    355 199.6  72.8  34176  289.83 0854.52
2009/04/23 15:06:28.0       6   -222    338    223    404 178.2  63.6  34150  289.40 0854.52
2009/04/23 15:06:28.1      73    -12    180     75    195  99.7  76.3  34154  289.46 0854.52
2009/04/23 15:06:28.2     289      0    226    290    367  90.1  41.9  34166  289.69 0854.52
2009/04/23 15:06:28.3     355    -30    217    357    417  94.9  34.3  34132  289.10 0854.52
2009/04/23 15:06:28.4     239    -12    225    240    328  93.0  48.0  34142  289.25 0854.52
2009/04/23 15:06:28.5      92   -158    179    183    255 149.7  49.2  34136  289.17 0854.52
2009/04/23 15:06:28.6     -24   -330    244    331    411 184.3  40.0  34128  289.03 0854.52
2009/04/23 15:06:28.7       3   -119    150    120    192 178.2  56.9  34134  289.14 0854.52
2009/04/23 15:06:28.8     -55   -290    -27    296    298 190.7  -5.4  34126  288.98 0854.52
2009/04/23 15:06:28.9    -142   -222     -5    264    265 212.6  -1.2  34128  289.02 0854.52
2009/04/23 15:06:29.0    -178   -185    -10    257    258 223.9  -2.2  34134  289.12 0854.54
2009/04/23 15:06:29.1    -217   -154   -134    267    298 234.5 -33.1  34136  289.15 0854.54
2009/04/23 15:06:29.2    -231   -123   -229    262    347 242.0 -50.0  34144  289.29 0854.54
2009/04/23 15:06:29.3     -77   -356    -60    365    370 192.3  -9.4  34136  289.16 0854.54
2009/04/23 15:06:29.4      17   -398    149    399    425 177.5  21.4  34134  289.12 0854.54
2009/04/23 15:06:29.5      14   -411    107    412    426 178.0  14.6  34134  289.14 0854.54
2009/04/23 15:06:29.6     -93   -450     97    460    471 191.8  12.0  34126  289.00 0854.54
2009/04/23 15:06:29.7      -9   -468     95    469    479 181.2  11.6  34130  289.06 0854.54
2009/04/23 15:06:29.8     -69   -409     36    415    417 189.7   5.1  34130  289.07 0854.54
2009/04/23 15:06:29.9      55   -445     44    449    452 172.9   5.7  34132  289.11 0854.54
2009/04/23 15:06:30.0     288   -428     25    517    518 146.1   2.8  34136  289.15 0854.54
2009/04/23 15:06:30.1     121   -626    -56    638    641 169.0  -5.1  34128  289.04 0854.54
2009/04/23 15:06:30.2     131   -661    -24    674    675 168.8  -2.1  34132  289.09 0854.54
2009/04/23 15:06:30.3     112   -396   -228    412    470 164.1 -35.8  34122  288.92 0854.54
2009/04/23 15:06:30.4      40   -483   -172    485    515 175.2 -19.6  34130  289.05 0854.54
2009/04/23 15:06:30.5      75   -905   -212    909    934 175.2 -13.1  34122  288.94 0854.54
2009/04/23 15:06:30.6    -361   -945     30   1012   1013 201.0   1.7  34122  288.93 0854.54
2009/04/23 15:06:30.7    -290   -905   -137    951    961 197.8  -8.2  34104  288.64 0854.54
2009/04/23 15:06:30.8    -252   -691    -96    736    743 200.1  -7.5  34124  288.97 0854.54
2009/04/23 15:06:30.9    -170   -665   -227    687    724 194.4 -18.3  34124  288.95 0854.54
2009/04/23 15:06:31.0    -206   -515   -194    555    587 201.8 -24.4  34116  288.81 0854.56
2009/04/23 15:06:31.1    -205   -501   -264    542    602 202.3 -32.3  34102  288.59 0854.56
2009/04/23 15:06:31.2    -318   -467   -200    566    600 214.3 -24.7  34106  288.66 0854.56
2009/04/23 15:06:31.3    -334   -469   -181    577    604 215.5 -22.4  34104  288.64 0854.56
2009/04/23 15:06:31.4    -401   -508   -211    648    682 218.3 -18.1  34124  288.95 0854.56
2009/04/23 15:06:31.5    -327   -413   -146    527    546 218.4 -20.2  34116  288.82 0854.56
2009/04/23 15:06:31.6    -317   -531    -12    619    620 210.8  -1.1  34124  288.96 0854.56
2009/04/23 15:06:31.7    -259   -363     -2    447    448 215.5  -0.4  34120  288.89 0854.56
2009/04/23 15:06:31.8    -393     18    -36    394    396 272.7  -5.4  34122  288.94 0854.56
2009/04/23 15:06:31.9    -400   -140   -148    424    449 250.7 -24.4  34142  289.27 0854.56
2009/04/23 15:06:32.0    -567   -223     35    610    611 248.5   3.3  34132  289.10 0854.56
2009/04/23 15:06:32.1    -484   -262   -167    551    577 241.6 -16.9  34124  288.97 0854.56
2009/04/23 15:06:32.2    -467   -234   -149    523    543 243.4 -20.7  34130  289.06 0854.56
2009/04/23 15:06:32.3    -492      9   -228    493    543 271.2 -31.0  34134  289.13 0854.56
2009/04/23 15:06:32.4    -355   -168   -109    394    409 244.6 -15.5  34152  289.44 0854.56
2009/04/23 15:06:32.5    -180   -260   -160    317    355 214.7 -33.3  34148  289.38 0854.56
2009/04/23 15:06:32.6    -296   -243    -81    383    392 230.6 -12.0  34152  289.43 0854.56
2009/04/23 15:06:32.7    -147   -181   -170    234    289 219.0 -44.1  34148  289.36 0854.56
2009/04/23 15:06:32.8    -464   -245    -96    525    534 242.1 -10.4  34134  289.13 0854.56
2009/04/23 15:06:32.9    -566    -99   -181    575    603 260.0 -17.5  34126  288.98 0854.56
2009/04/23 15:06:33.0    -694    -76     73    699    703 263.7   6.0  34126  288.98 0854.54
2009/04/23 15:06:33.1    -420   -297    153    515    538 234.7  16.5  34118  288.87 0854.54
2009/04/23 15:06:33.2    -315   -353     -4    474    475 221.8  -0.5  34134  289.12 0854.54
2009/04/23 15:06:33.3    -284   -397    -32    489    491 215.6  -3.8  34122  288.93 0854.54
2009/04/23 15:06:33.4    -286   -258   -267    386    469 228.0 -42.4  34118  288.87 0854.54
2009/04/23 15:06:33.5    -220   -185   -177    288    338 230.0 -38.8  34118  288.85 0854.54
2009/04/23 15:06:33.6       9   -566    -79    567    573 179.0  -8.0  34126  288.98 0854.54
2009/04/23 15:06:33.7    -380   -336    -91    508    517 228.5 -10.2  34116  288.84 0854.54
2009/04/23 15:06:33.8    -368   -572   -148    681    698 212.8 -12.3  34106  288.65 0854.54
2009/04/23 15:06:33.9      -2   -453     43    454    457 180.3   5.5  34098  288.51 0854.54
2009/04/23 15:06:34.0    -241   -529    288    582    649 204.5  28.4  34128  289.04 0854.54
2009/04/23 15:06:34.1    -231   -474    143    528    548 206.0  15.2  34132  289.11 0854.54
2009/04/23 15:06:34.2    -176   -439    147    474    497 201.9  17.3  34120  288.88 0854.54
2009/04/23 15:06:34.3    -208   -363    105    419    433 209.9  14.2  34138  289.19 0854.54
2009/04/23 15:06:34.4    -233   -445     94    503    512 207.6  10.6  34132  289.10 0854.54
2009/04/23 15:06:34.5    -198   -406     92    452    462 206.0  11.6  34140  289.24 0854.54
2009/04/23 15:06:34.6    -222   -519    -40    565    567 203.2  -4.1  34136  289.18 0854.54
2009/04/23 15:06:34.7    -367   -187    -81    412    421 243.0 -11.2  34162  289.61 0854.54
2009/04/23 15:06:34.8    -363   -197    -29    414    415 241.5  -4.1  34156  289.51 0854.54
2009/04/23 15:06:34.9    -468   -388     -2    609    610 230.4  -0.3  34170  289.75 0854.54
2009/04/23 15:06:35.0    -572   -451   -152    729    745 231.7 -11.8  34162  289.62 0854.55
2009/04/23 15:06:35.1    -610   -553    -70    824    828 227.8  -4.9  34160  289.57 0854.55
2009/04/23 15:06:35.2    -562   -292   -182    634    660 242.5 -16.0  34172  289.76 0854.55
2009/04/23 15:06:35.3    -745   -175   -261    766    810 256.7 -18.8  34104  288.63 0854.55
2009/04/23 15:06:35.4    -606   -541     90    813    819 228.2   6.4  34144  289.31 0854.55
2009/04/23 15:06:35.5    -292   -279    231    405    466 226.3  32.3  34130  289.07 0854.55
2009/04/23 15:06:35.6    -266    -47    111    271    292 259.9  23.1  34140  289.24 0854.55
2009/04/23 15:06:35.7    -285   -294     49    410    413 224.1   6.9  34144  289.29 0854.55
2009/04/23 15:06:35.8    -625   -360      2    722    723 240.1   0.2  34166  289.67 0854.55
2009/04/23 15:06:35.9    -580   -257     52    635    638 246.1   4.7  34164  289.65 0854.55
2009/04/23 15:06:36.0    -388   -440    -47    587    589 221.4  -4.6  34154  289.46 0854.55
2009/04/23 15:06:36.1    -489   -479    -88    685    691 225.6  -7.3  34160  289.56 0854.55
2009/04/23 15:06:36.2    -148   -445     70    470    476 198.5   8.5  34152  289.44 0854.55
2009/04/23 15:06:36.3    -456   -319   -198    557    592 235.0 -19.6  34148  289.37 0854.55
2009/04/23 15:06:36.4    -283   -443      0    527    528 212.6   0.0  34122  288.94 0854.55
2009/04/23 15:06:36.5    -260   -412     77    488    495 212.3   9.0  34148  289.37 0854.55
2009/04/23 15:06:36.6    -657   -476    -16    812    813 234.0  -1.2  34174  289.82 0854.55
2009/04/23 15:06:36.7    -590   -578   -135    826    838 225.6  -9.3  34166  289.67 0854.55
2009/04/23 15:06:36.8    -392   -376   -189    544    575 226.2 -24.3  34172  289.79 0854.55
2009/04/23 15:06:36.9     -92   -611    -62    618    622 188.6  -5.8  34166  289.67 0854.55
2009/04/23 15:06:37.0     190   -631     -2    660    661 163.2  -0.2  34154  289.46 0854.51
2009/04/23 15:06:37.1     145   -477   -229    499    549 163.1 -30.7  34164  289.63 0854.51
2009/04/23 15:06:37.2    -350   -324   -248    478    538 227.2 -33.9  34174  289.81 0854.51
2009/04/23 15:06:37.3    -449   -541   -353    704    787 219.7 -33.1  34188  290.04 0854.51
2009/04/23 15:06:37.4     143   -871     10    883    884 170.7   0.7  34134  289.13 0854.51
2009/04/23 15:06:37.5      35   -624     50    626    629 176.8   4.6  34162  289.59 0854.51
2009/04/23 15:06:37.6      43   -563    115    565    577 175.6  11.6  34162  289.61 0854.51
2009/04/23 15:06:37.7     187   -615    117    644    655 163.1  10.3  34156  289.50 0854.51
2009/04/23 15:06:37.8      36   -641    128    643    656 176.8  11.3  34162  289.60 0854.51
2009/04/23 15:06:37.9      15   -466    264    467    536 178.1  32.0  34166  289.66 0854.51
2009/04/23 15:06:38.0      -9   -609     19    610    611 180.9   1.8  34164  289.64 0854.51
2009/04/23 15:06:38.1     -12   -509     38    510    512 181.4   4.3  34156  289.52 0854.51
2009/04/23 15:06:38.2     -34   -650    194    651    680 183.0  16.6  34154  289.48 0854.51
2009/04/23 15:06:38.3      58   -767    277    769    817 175.7  20.7  34154  289.46 0854.51
2009/04/23 15:06:38.4     182   -806    119    827    836 167.2   8.2  34156  289.52 0854.51
2009/04/23 15:06:38.5      24   -522    548    523    757 177.3  51.5  34160  289.58 0854.51
2009/04/23 15:06:38.6     -11   -369    507    370    627 181.7  60.4  34170  289.75 0854.51
2009/04/23 15:06:38.7     -98   -715    415    722    832 187.8  32.4  34170  289.73 0854.51
2009/04/23 15:06:38.8    -181   -593    426    621    753 197.0  37.7  34158  289.55 0854.51
2009/04/23 15:06:38.9    -174   -656    437    679    807 194.9  35.8  34158  289.55 0854.51
2009/04/23 15:06:39.0    -216   -649    427    685    807 198.5  34.9  34152  289.43 0854.58
2009/04/23 15:06:39.1    -192   -387    270    432    509 206.4  35.0  34176  289.83 0854.58
2009/04/23 15:06:39.2     -14   -449    447    450    634 181.8  49.9  34170  289.75 0854.58
2009/04/23 15:06:39.3      34   -256    357    259    441 172.4  60.5  34168  289.72 0854.58
2009/04/23 15:06:39.4      -8   -286    405    287    496 181.8  61.3  34170  289.75 0854.58
2009/04/23 15:06:39.5    -136   -673    473    687    834 191.5  37.9  34170  289.74 0854.58
2009/04/23 15:06:39.6      16   -432    384    433    578 177.8  46.1  34154  289.46 0854.58
2009/04/23 15:06:39.7    -119   -516    506    530    732 193.0  48.5  34166  289.66 0854.58
2009/04/23 15:06:39.8    -325   -704    439    776    891 204.8  32.0  34158  289.53 0854.58
2009/04/23 15:06:39.9    -236   -664    422    705    821 199.6  33.6  34176  289.83 0854.58
2009/04/23 15:06:40.0    -540   -447    154    702    719 230.4  12.4  34186  290.00 0854.61
2009/04/23 15:06:40.1    -511   -511    -28    723    724 225.0  -2.2  34178  289.86 0854.61
2009/04/23 15:06:40.2    -565   -371      9    677    678 236.7   0.8  34184  289.97 0854.61
2009/04/23 15:06:40.3    -799   -196    -24    823    824 256.2  -1.7  34180  289.92 0854.61
2009/04/23 15:06:40.4    -780   -121     23    790    791 261.2   1.7  34200  290.25 0854.61
2009/04/23 15:06:40.5    -841   -140    -92    853    859 260.5  -6.2  34188  290.04 0854.61
2009/04/23 15:06:40.6    -613    -26   -187    614    643 267.5 -17.0  34170  289.74 0854.61
2009/04/23 15:06:40.7    -662    -46    -52    664    667 266.0  -4.5  34168  289.70 0854.61
2009/04/23 15:06:40.8    -449    -98   -119    460    476 257.6 -14.5  34182  289.96 0854.61
2009/04/23 15:06:40.9    -216   -191   -102    289    306 228.6 -24.4  34182  289.93 0854.61
2009/04/23 15:06:41.0    -165   -134   -148    213    259 230.9 -42.8  34182  289.93 0854.61
2009/04/23 15:06:41.1     -88   -209    -72    228    239 202.9 -22.8  34176  289.83 0854.61
2009/04/23 15:06:41.2     -77   -226    -69    239    248 198.9 -21.0  34176  289.85 0854.61
2009/04/23 15:06:41.3    -128   -140    -80    190    206 222.5 -28.7  34178  289.89 0854.61
2009/04/23 15:06:41.4    -250    -52     21    256    258 258.1   4.9  34184  289.98 0854.61
2009/04/23 15:06:41.5    -315     10     43    316    319 271.9   7.8  34186  290.00 0854.61
2009/04/23 15:06:41.6    -223    -40    -24    227    229 259.6  -6.2  34188  290.04 0854.61
2009/04/23 15:06:41.7    -142   -113    -51    182    189 231.4 -20.2  34194  290.16 0854.61
2009/04/23 15:06:41.8     -64    -72     -2     97     98 221.4  -1.3  34186  290.02 0854.61
2009/04/23 15:06:41.9     -37     16     44     41     60 294.4  52.1  34194  290.14 0854.61
2009/04/23 15:06:42.0     -56     78     88     97    130 324.4  46.9  34204  290.33 0854.57
2009/04/23 15:06:42.1     -15     89    142     91    168 350.2  64.6  34206  290.35 0854.57
2009/04/23 15:06:42.2      70    136    162    154    223  27.2  51.6  34192  290.11 0854.57
2009/04/23 15:06:42.3     127    120    177    175    248  46.7  50.1  34188  290.06 0854.57
2009/04/23 15:06:42.4      91     75    143    118    185  50.5  56.4  34188  290.04 0854.57
2009/04/23 15:06:42.5      85    109     94    139    167  37.8  37.3  34182  289.94 0854.57
2009/04/23 15:06:42.6     125    125    108    177    207  45.0  34.4  34190  290.08 0854.57
2009/04/23 15:06:42.7      34    -77    101     85    132 155.9  55.8  34190  290.09 0854.57
2009/04/23 15:06:42.8     -17    -73     81     76    111 193.4  52.1  34178  289.87 0854.57
2009/04/23 15:06:42.9     -33    -52     38     62     72 212.5  35.5  34180  289.92 0854.57
2009/04/23 15:06:43.0     -56    -19    -34     60     68 251.4 -36.8  34182  289.96 0854.57
2009/04/23 15:06:43.1    -109     85    -26    139    142 308.2 -10.9  34162  289.60 0854.57
2009/04/23 15:06:43.2    -226    -42    -27    230    232 259.4  -6.9  34154  289.48 0854.57
2009/04/23 15:06:43.3    -662    154    -87    680    686 283.1  -7.4  34164  289.63 0854.57
2009/04/23 15:06:43.4    -492     18    216    493    538 272.1  25.2  34184  289.99 0854.57
2009/04/23 15:06:43.5    -570   -256    -26    625    626 245.8  -2.4  34172  289.77 0854.57
2009/04/23 15:06:43.6    -348   -244     70    426    432 234.9   9.3  34176  289.83 0854.57
2009/04/23 15:06:43.7    -145   -374     -1    402    403 201.2  -0.3  34198  290.20 0854.57
2009/04/23 15:06:43.8    -157   -347     40    382    385 204.4   6.0  34190  290.08 0854.57
2009/04/23 15:06:43.9    -263   -300    148    400    426 221.3  21.1  34172  289.77 0854.57
2009/04/23 15:06:44.0    -311   -530    133    615    630 210.4  12.3  34168  289.72 0854.57
2009/04/23 15:06:44.1    -393   -490    127    629    642 218.7  11.4  34170  289.74 0854.57
2009/04/23 15:06:44.2     -49   -627    171    630    653 184.5  15.2  34172  289.79 0854.57
2009/04/23 15:06:44.3    -103   -624    254    633    682 189.4  23.0  34156  289.51 0854.57
2009/04/23 15:06:44.4     -81   -545    241    552    602 188.5  25.1  34156  289.52 0854.57
2009/04/23 15:06:44.5    -202   -496    107    536    547 202.2  11.3  34158  289.55 0854.57
2009/04/23 15:06:44.6    -113   -372    215    389    444 196.9  31.4  34162  289.61 0854.57
2009/04/23 15:06:44.7    -166   -332    209    372    426 206.6  31.7  34162  289.61 0854.57
2009/04/23 15:06:44.8    -153   -163     55    224    231 223.2  13.9  34164  289.63 0854.57
2009/04/23 15:06:44.9    -155   -122     31    198    201 231.6   8.9  34180  289.92 0854.57
2009/04/23 15:06:45.0       9   -334    149    335    366 178.3  25.6  34162  289.62 0854.57
2009/04/23 15:06:45.1    -169   -601    -42    625    627 195.7  -3.9  34202  290.28 0854.57
2009/04/23 15:06:45.2    -161   -600    187    622    650 195.1  16.8  34190  290.09 0854.57
2009/04/23 15:06:45.3    -331   -457    362    565    671 215.9  35.6  34198  290.21 0854.57
2009/04/23 15:06:45.4    -274   -435    441    515    678 212.2  45.0  34172  289.76 0854.57
2009/04/23 15:06:45.5    -247   -204    315    321    449 230.4  49.7  34166  289.68 0854.57
2009/04/23 15:06:45.6    -165     -7    158    166    229 267.4  48.5  34184  289.99 0854.57
2009/04/23 15:06:45.7     -87   -176    318    197    374 206.5  65.3  34204  290.31 0854.57
2009/04/23 15:06:45.8    -279   -229    199    361    412 230.6  31.3  34248  291.06 0854.57
2009/04/23 15:06:45.9    -187    -69    220    200    297 249.8  53.0  34242  290.97 0854.57
2009/04/23 15:06:46.0    -261   -255    350    365    505 225.7  48.8  34210  290.43 0854.58
2009/04/23 15:06:46.1    -150   -117    245    191    310 232.2  58.4  34208  290.39 0854.58
2009/04/23 15:06:46.2    -275    -46     68    279    288 260.4  13.7  34182  289.93 0854.58
2009/04/23 15:06:46.3    -172    117    199    209    288 304.2  48.7  34166  289.66 0854.58
2009/04/23 15:06:46.4    -152     38     68    157    171 284.2  24.9  34164  289.65 0854.58
2009/04/23 15:06:46.5    -292    186   -117    347    367 302.5 -18.7  34174  289.82 0854.58
2009/04/23 15:06:46.6    -153     66     40    167    172 293.5  13.7  34176  289.84 0854.58
2009/04/23 15:06:46.7    -119   -184    136    220    258 213.0  34.8  34186  290.00 0854.58
2009/04/23 15:06:46.8    -137    -23     59    139    151 260.3  24.6  34176  289.84 0854.58
2009/04/23 15:06:46.9    -188    119    -79    223    237 302.5 -19.6  34184  289.99 0854.58
2009/04/23 15:06:47.0    -220    104    -74    244    254 295.3 -21.7  34188  290.03 0854.58
2009/04/23 15:06:47.1     -71    109    -49    131    139 327.0 -25.4  34180  289.92 0854.58
2009/04/23 15:06:47.2      -6    137    -71    138    155 357.3 -33.7  34188  290.06 0854.58
2009/04/23 15:06:47.3      23    138    -24    140    143   9.7  -9.8  34182  289.94 0854.58
2009/04/23 15:06:47.4     -20    191    -47    193    199 354.0 -13.9  34180  289.92 0854.58
2009/04/23 15:06:47.5      21     90    -28     93     98  13.4 -16.6  34184  289.99 0854.58
2009/04/23 15:06:47.6      74    221     44    234    239  18.7  10.8  34192  290.12 0854.58
2009/04/23 15:06:47.7      49    200     -1    206    207  13.8  -0.5  34194  290.16 0854.58
2009/04/23 15:06:47.8      17     54     35     57     66  18.3  35.5  34212  290.47 0854.58
2009/04/23 15:06:47.9      73    -47     16     87     89 122.9  10.6  34206  290.35 0854.58
2009/04/23 15:06:48.1       6    -78     63     79    101 175.5  43.3  34206  290.36 0854.59
2009/04/23 15:06:48.1      56    -77     33     96    102 143.9  19.4  34200  290.26 0854.59
2009/04/23 15:06:48.2       5    -74     25     75     80 175.6  18.9  34206  290.36 0854.59
2009/04/23 15:06:48.3       5    -94      7     95     96 176.9   4.4  34200  290.26 0854.59
2009/04/23 15:06:48.5      39   -159     13    164    165 166.0   4.6  34202  290.30 0854.59
2009/04/23 15:06:48.5      67   -308     24    316    317 167.7   4.4  34198  290.22 0854.59
2009/04/23 15:06:48.6     239   -216    178    323    368 132.0  31.3  34196  290.18 0854.59
2009/04/23 15:06:48.7     228   -172    246    286    377 127.1  45.1  34202  290.27 0854.59
2009/04/23 15:06:48.8     -11   -330    224    331    399 182.0  37.3  34192  290.11 0854.59
2009/04/23 15:06:49.0      43   -324    230    327    399 172.4  38.5  34194  290.15 0854.59
2009/04/23 15:06:49.1      76   -219    245    232    337 160.8  51.9  34194  290.15 0854.59
2009/04/23 15:06:49.2       3   -234    250    235    343 179.1  52.1  34194  290.15 0854.59
2009/04/23 15:06:49.3       9   -207    258    208    331 177.5  57.0  34194  290.15 0854.59
2009/04/23 15:06:49.4       9    -29    135     31    138 161.3  87.0  34206  290.35 0854.59
2009/04/23 15:06:49.5      11    -26    173     29    175 156.4  90.0  34194  290.14 0854.59
2009/04/23 15:06:49.6      -3     -3    186      5    186 223.4  90.0  34202  290.28 0854.59
2009/04/23 15:06:49.7       0   -119    197    120    230 180.4  65.7  34188  290.06 0854.59
2009/04/23 15:06:49.8      21    -21    214     31    216 135.0  90.0  34194  290.14 0854.59
2009/04/23 15:06:49.9     -84   -235    259    250    359 199.8  51.1  34190  290.09 0854.59
2009/04/23 15:06:50.0    -164   -241    173    292    339 214.2  33.5  34192  290.10 0854.59
2009/04/23 15:06:50.1    -186   -113    128    218    252 238.7  33.5  34196  290.17 0854.64
2009/04/23 15:06:50.2    -226     53    100    233    253 283.3  24.3  34182  289.95 0854.64
2009/04/23 15:06:50.3    -178     26     82    180    197 278.4  26.2  34188  290.06 0854.64
2009/04/23 15:06:50.4    -130   -157     96    204    225 219.6  27.1  34202  290.30 0854.64
2009/04/23 15:06:50.5     -92   -119     88    151    174 217.8  33.1  34188  290.06 0854.64
2009/04/23 15:06:50.6    -121   -202    206    236    313 211.0  45.6  34200  290.26 0854.64
2009/04/23 15:06:50.7       0   -255    178    256    311 180.2  38.0  34200  290.26 0854.64
2009/04/23 15:06:50.8     -24   -223    219    225    313 186.2  49.3  34210  290.41 0854.64
2009/04/23 15:06:50.9     -44   -184    169    190    254 193.6  46.2  34202  290.29 0854.64
2009/04/23 15:06:51.0     -66   -219    113    230    256 196.9  28.0  34208  290.37 0854.64
2009/04/23 15:06:51.1     -78   -194    140    210    252 201.9  36.5  34206  290.36 0854.64
2009/04/23 15:06:51.2     -83   -229    124    244    273 200.0  29.2  34206  290.36 0854.64
2009/04/23 15:06:51.3    -224   -108    149    249    290 244.2  33.7  34222  290.63 0854.64
2009/04/23 15:06:51.4    -179    -15    100    180    205 265.0  31.4  34228  290.72 0854.64
2009/04/23 15:06:51.5    -270    -30     85    272    286 263.6  17.4  34230  290.75 0854.64
2009/04/23 15:06:51.6    -153    -82     81    174    191 241.8  27.0  34234  290.84 0854.64
2009/04/23 15:06:51.7      34    -88    105     95    141 158.6  52.7  34246  291.03 0854.64
2009/04/23 15:06:51.8      19   -178     29    180    183 173.8   9.3  34226  290.69 0854.64
2009/04/23 15:06:51.9      10   -137     39    138    144 175.5  15.8  34220  290.58 0854.64
2009/04/23 15:06:52.0      34    -73     70     81    107 154.7  45.4  34224  290.65 0854.64
2009/04/23 15:06:52.1     -17      7     56     19     59 291.7  81.0  34224  290.67 0854.63
2009/04/23 15:06:52.2     -32     75     80     82    114 336.8  50.5  34244  291.01 0854.63
2009/04/23 15:06:52.3    -145    -39     98    151    180 255.0  36.0  34240  290.94 0854.63
2009/04/23 15:06:52.4    -247    -75     42    259    263 253.1   9.3  34248  291.05 0854.63
2009/04/23 15:06:52.5    -123   -103     48    161    169 230.0  16.8  34240  290.92 0854.63
2009/04/23 15:06:52.6    -104    -66     55    124    135 237.5  25.2  34242  290.96 0854.63
2009/04/23 15:06:52.7    -276    -28     24    278    280 264.1   5.0  34234  290.83 0854.63
2009/04/23 15:06:52.8    -204    148    -45    253    258 306.0 -10.1  34240  290.92 0854.63
2009/04/23 15:06:52.9    -119    166    -14    205    206 324.2  -3.9  34228  290.72 0854.63
2009/04/23 15:06:53.0     -20     81     61     84    103 345.7  39.5  34242  290.96 0854.63
2009/04/23 15:06:53.1      51      7    132     52    141  81.2  77.1  34252  291.15 0854.63
2009/04/23 15:06:53.2     -35    -39    139     53    148 221.4  78.2  34254  291.16 0854.63
2009/04/23 15:06:53.3     -21    104    139    107    175 348.5  58.5  34236  290.87 0854.63
2009/04/23 15:06:53.4     -90    263    172    279    327 341.1  34.6  34234  290.82 0854.63
2009/04/23 15:06:53.5    -207    188     44    280    284 312.2   9.0  34230  290.76 0854.63
2009/04/23 15:06:53.6    -193    193     74    273    283 315.0  15.2  34222  290.61 0854.63
2009/04/23 15:06:53.7    -110     75    175    134    220 304.2  58.7  34220  290.58 0854.63
2009/04/23 15:06:53.8    -252    -86    164    267    313 251.2  34.4  34216  290.51 0854.63
2009/04/23 15:06:53.9    -133    -63    163    148    220 244.8  53.0  34238  290.91 0854.63
2009/04/23 15:06:54.0     -29     45    186     54    193 327.5  83.3  34238  290.91 0854.63
2009/04/23 15:06:54.1    -168    -31     80    171    188 259.4  27.1  34214  290.48 0854.61
2009/04/23 15:06:54.2    -191    -69     85    204    221 250.0  23.6  34226  290.70 0854.61
2009/04/23 15:06:54.3    -198     59     10    207    208 286.8   2.9  34220  290.60 0854.61
2009/04/23 15:06:54.4    -233    210      2    314    315 312.0   0.4  34216  290.53 0854.61
2009/04/23 15:06:54.5    -219    112     61    247    255 297.1  13.9  34210  290.42 0854.61
2009/04/23 15:06:54.6    -161    129     -1    207    208 308.9  -0.5  34200  290.26 0854.61
2009/04/23 15:06:54.7    -161    156      8    225    226 314.0   2.1  34204  290.33 0854.61
2009/04/23 15:06:54.8    -126    185    -61    224    233 325.7 -15.2  34202  290.28 0854.61
2009/04/23 15:06:54.9     -61    248     22    256    258 346.0   5.0  34196  290.19 0854.61
2009/04/23 15:06:55.0     -80    227     27    241    243 340.6   6.5  34196  290.17 0854.61
2009/04/23 15:06:55.1    -157    273     94    316    330 330.1  16.6  34200  290.24 0854.61
2009/04/23 15:06:55.2       3    210     83    211    226   1.0  23.0  34204  290.33 0854.61
2009/04/23 15:06:55.3    -149    260    185    300    352 330.2  34.6  34212  290.45 0854.61
2009/04/23 15:06:55.4    -176    263    105    317    335 326.2  18.4  34208  290.37 0854.61
2009/04/23 15:06:55.5      74     90    -15    117    119  39.7  -7.7  34212  290.45 0854.61
2009/04/23 15:06:55.6     -16    316     21    317    318 357.1   3.8  34190  290.07 0854.61
2009/04/23 15:06:55.7     -61    293    106    300    319 348.2  19.5  34186  290.02 0854.61
2009/04/23 15:06:55.8     -70    125    105    144    178 330.6  39.7  34200  290.25 0854.61
2009/04/23 15:06:55.9    -185      5     98    186    210 271.7  29.8  34214  290.48 0854.61
2009/04/23 15:06:56.0     -43    -73     87     86    122 210.7  50.1  34222  290.64 0854.59
2009/04/23 15:06:56.1       0    -50    131     51    140 180.9  77.1  34232  290.81 0854.59
2009/04/23 15:06:56.2     -29     29     94     42    102 314.9  74.5  34236  290.87 0854.59
2009/04/23 15:06:56.3    -107    -28     88    111    141 254.9  42.7  34238  290.89 0854.59
2009/04/23 15:06:56.4    -140   -166    -17    218    219 220.3  -4.6  34230  290.75 0854.59
2009/04/23 15:06:56.5      55   -221     11    228    229 166.0   2.9  34222  290.62 0854.59
2009/04/23 15:06:56.6     -82   -185     13    203    204 203.8   3.8  34230  290.77 0854.59
2009/04/23 15:06:56.7      98    -34    226    104    248 109.5  73.5  34232  290.81 0854.59
2009/04/23 15:06:56.8      51     31    150     60    161  58.5  77.1  34226  290.70 0854.59
2009/04/23 15:06:56.9      78     32    111     85    139  67.8  58.5  34224  290.67 0854.59
2009/04/23 15:06:57.0    -137   -135    171    193    257 225.6  46.4  34260  291.26 0854.59
2009/04/23 15:06:57.1    -163   -154    257    225    341 226.7  54.4  34262  291.29 0854.59
2009/04/23 15:06:57.2    -224    -61    234    233    330 254.7  49.9  34254  291.17 0854.59
2009/04/23 15:06:57.3    -244    -84     98    259    276 250.9  21.7  34266  291.36 0854.59
2009/04/23 15:06:57.4    -148    -22     75    150    167 261.2  28.2  34256  291.20 0854.59
2009/04/23 15:06:57.5    -123    123     31    174    177 315.0  10.1  34244  290.99 0854.59
2009/04/23 15:06:57.6    -157    140    121    211    243 311.6  32.4  34246  291.04 0854.59
2009/04/23 15:06:57.7    -156     68    122    171    210 293.7  39.1  34246  291.03 0854.59
2009/04/23 15:06:57.8    -121     23     85    124    150 281.0  37.6  34234  290.84 0854.59
2009/04/23 15:06:57.9     129      9    182    130    223  85.6  60.8  34234  290.82 0854.59
2009/04/23 15:06:58.0     204     97    215    226    311  64.5  48.6  34240  290.92 0854.54
2009/04/23 15:06:58.1     334     88    221    346    410  75.1  35.6  34226  290.69 0854.54
2009/04/23 15:06:58.2     246     68    275    256    375  74.5  52.2  34230  290.76 0854.54
2009/04/23 15:06:58.3     157     82    301    178    349  62.5  66.8  34238  290.88 0854.54
2009/04/23 15:06:58.4     223    166    304    279    412  53.4  52.7  34218  290.55 0854.54
2009/04/23 15:06:58.5     422    135    154    444    469  72.2  20.0  34224  290.65 0854.54
2009/04/23 15:06:58.6     424     92    151    434    460  77.7  19.3  34222  290.61 0854.54
2009/04/23 15:06:58.7     528    224    203    574    610  67.0  19.5  34202  290.29 0854.54
2009/04/23 15:06:58.8     519    217    206    563    599  67.3  21.0  34200  290.25 0854.54
2009/04/23 15:06:58.9     493    221    177    541    570  65.8  18.2  34196  290.18 0854.54
2009/04/23 15:06:59.0     515    294    296    594    663  60.3  28.6  34222  290.64 0854.54
2009/04/23 15:06:59.1     442    361    255    571    625  50.8  25.7  34198  290.22 0854.54
2009/04/23 15:06:59.2     373    302    239    481    537  51.0  28.2  34176  289.83 0854.54
2009/04/23 15:06:59.3     504    159    214    529    570  72.5  23.1  34204  290.31 0854.54
2009/04/23 15:06:59.4     458    -21    272    459    533  92.7  33.4  34198  290.20 0854.54
2009/04/23 15:06:59.5     642    141    134    658    672  77.6  11.6  34190  290.09 0854.54
2009/04/23 15:06:59.6     573    297    -83    646    652  62.6  -7.3  34182  289.94 0854.54
2009/04/23 15:06:59.7     600    395    110    719    728  56.6   8.7  34192  290.11 0854.54
2009/04/23 15:06:59.8     520    318     89    610    617  58.5   8.3  34188  290.04 0854.54
2009/04/23 15:06:59.9     608    389    145    723    738  57.4  11.3  34178  289.88 0854.54
2009/04/23 15:07:00.0     569    417     90    706    712  53.7   7.3  34194  290.15 0854.53
2009/04/23 15:07:00.1     611    452     64    761    764  53.5   4.9  34242  290.96 0854.53
2009/04/23 15:07:00.2     723    413    170    833    851  60.2  11.6  34196  290.19 0854.53
2009/04/23 15:07:00.3     538    382    310    661    730  54.6  27.0  34298  291.92 0854.53
2009/04/23 15:07:00.4     654    159     77    674    679  76.3   6.6  34160  289.58 0854.53
2009/04/23 15:07:00.5     528    336    -75    627    632  57.5  -6.9  34182  289.94 0854.53
2009/04/23 15:07:00.6     800    269     95    845    851  71.4   6.5  34194  290.15 0854.53
2009/04/23 15:07:00.7     656    232    -21    697    698  70.5  -1.8  34176  289.83 0854.53
2009/04/23 15:07:00.8     625    292     58    690    693  65.0   4.9  34172  289.77 0854.53
2009/04/23 15:07:00.9     749    295     73    806    810  68.5   5.2  34178  289.87 0854.53
2009/04/23 15:07:01.0     695    226    159    731    749  72.0  12.3  34204  290.31 0854.54
2009/04/23 15:07:01.1     568    247     35    620    621  66.5   3.3  34198  290.21 0854.54
2009/04/23 15:07:01.2     623    335    110    708    717  61.7   8.9  34254  291.18 0854.54
2009/04/23 15:07:01.3     498    261    112    563    575  62.4  11.3  34206  290.36 0854.54
2009/04/23 15:07:01.4     683    103   -109    691    700  81.4  -9.0  34196  290.18 0854.54
2009/04/23 15:07:01.5     630    347    111    720    729  61.2   8.8  34208  290.39 0854.54
2009/04/23 15:07:01.6     626    336    171    711    732  61.8  13.6  34234  290.84 0854.54
2009/04/23 15:07:01.7     438    445    157    625    645  44.5  14.2  34222  290.64 0854.54
2009/04/23 15:07:01.8     386    159    162    418    448  67.6  22.3  34240  290.92 0854.54
2009/04/23 15:07:01.9     452    249    312    517    603  61.1  34.0  34252  291.15 0854.54
2009/04/23 15:07:02.0     358    212    172    417    451  59.4  23.7  34214  290.50 0854.54
2009/04/23 15:07:02.1     202    202    190    287    344  45.0  36.5  34242  290.95 0854.54
2009/04/23 15:07:02.2     377    179    180    418    455  64.6  24.9  34266  291.36 0854.54
2009/04/23 15:07:02.3     470     52     70    473    479  83.6   8.5  34194  290.15 0854.54
2009/04/23 15:07:02.4     372    185     80    416    424  63.5  11.0  34228  290.73 0854.54
2009/04/23 15:07:02.5     403    133    127    425    444  71.7  16.7  34214  290.50 0854.54
2009/04/23 15:07:02.6     367    146     56    396    401  68.3   8.1  34212  290.45 0854.54
2009/04/23 15:07:02.7     364    212    146    422    447  59.7  19.2  34218  290.56 0854.54
2009/04/23 15:07:02.8     278    198    138    342    368  54.6  23.1  34212  290.47 0854.54
2009/04/23 15:07:02.9     149    180    163    235    285  39.6  38.0  34230  290.75 0854.54
2009/04/23 15:07:03.0     128    151    157    199    253  40.3  42.4  34222  290.61 0854.58
2009/04/23 15:07:03.1     163    130     31    209    212  51.4   8.5  34232  290.81 0854.58
2009/04/23 15:07:03.2     127    -23    -29    130    134 100.6 -12.9  34248  291.06 0854.58
2009/04/23 15:07:03.3     108    -89    -48    140    148 129.5 -23.3  34252  291.15 0854.58
2009/04/23 15:07:03.4      49   -135   -186    144    235 160.0 -62.8  34226  290.69 0854.58
2009/04/23 15:07:03.5      52   -167   -216    176    278 162.6 -61.0  34220  290.58 0854.58
2009/04/23 15:07:03.6      35    -95   -169    102    197 159.5 -70.8  34232  290.79 0854.58
2009/04/23 15:07:03.7      77    263   -186    275    331  16.3 -41.7  34260  291.26 0854.58
2009/04/23 15:07:03.8     116    341   -118    361    379  18.8 -23.5  34248  291.05 0854.58
2009/04/23 15:07:03.9     220    383   -136    442    462  29.9 -22.1  34228  290.72 0854.58
2009/04/23 15:07:04.0     257    467    -87    534    542  28.9  -9.3  34218  290.57 0854.58
2009/04/23 15:07:04.1     292    508    -52    587    590  29.9  -5.1  34222  290.63 0854.58
2009/04/23 15:07:04.2     246    415   -146    483    504  30.7 -21.7  34226  290.69 0854.58
2009/04/23 15:07:04.3     147    281   -148    318    350  27.6 -31.4  34226  290.69 0854.58
2009/04/23 15:07:04.4     248    312   -189    399    441  38.5 -31.6  34220  290.60 0854.58
2009/04/23 15:07:04.5     273    300   -109    407    422  42.3 -15.0  34234  290.82 0854.58
2009/04/23 15:07:04.6     221    236   -104    324    340  43.2 -23.0  34228  290.71 0854.58
2009/04/23 15:07:04.7     172    194   -172    260    311  41.4 -41.0  34224  290.65 0854.58
2009/04/23 15:07:04.8     131    199   -107    239    261  33.4 -30.1  34228  290.73 0854.58
2009/04/23 15:07:04.9     170    269   -130    319    344  32.3 -27.8  34230  290.77 0854.58
2009/04/23 15:07:05.0     145    246   -140    286    318  30.7 -32.5  34238  290.88 0854.59
2009/04/23 15:07:05.1     107    223   -232    248    339  25.6 -52.3  34242  290.95 0854.59
2009/04/23 15:07:05.2      11    248   -259    249    359   2.6 -55.6  34240  290.93 0854.59
2009/04/23 15:07:05.3    -161    459   -128    487    504 340.6 -14.8  34246  291.02 0854.59
2009/04/23 15:07:05.4      -8    460    -25    461    462 359.0  -3.2  34246  291.02 0854.59
2009/04/23 15:07:05.5     -81    489     -2    496    497 350.6  -0.3  34248  291.05 0854.59
2009/04/23 15:07:05.6       0    363    -66    364    371   0.1 -10.4  34246  291.03 0854.59
2009/04/23 15:07:05.7    -344    140     18    372    373 292.2   2.9  34242  290.98 0854.59
2009/04/23 15:07:05.8    -322    138     81    351    361 293.3  13.1  34246  291.03 0854.59
2009/04/23 15:07:05.9    -271    171     73    321    330 302.3  12.9  34240  290.92 0854.59
2009/04/23 15:07:06.0    -240    221     83    327    338 312.7  14.3  34238  290.91 0854.59
2009/04/23 15:07:06.1    -243     43    -13    247    248 280.1  -3.1  34220  290.59 0854.59
2009/04/23 15:07:06.2    -230    230     61    326    332 314.9  10.7  34248  291.08 0854.59
2009/04/23 15:07:06.3    -203    111   -112    232    257 298.6 -31.8  34206  290.36 0854.59
2009/04/23 15:07:06.4    -167     86   -118    188    221 297.3 -39.9  34206  290.36 0854.59
2009/04/23 15:07:06.5    -136    177    -62    224    232 322.4 -20.0  34240  290.92 0854.59
2009/04/23 15:07:06.6    -145    134    -76    198    212 312.9 -26.4  34234  290.82 0854.59
2009/04/23 15:07:06.7     -62    198     39    208    212 342.4  10.8  34254  291.18 0854.59
2009/04/23 15:07:06.8    -136     64    -53    151    161 295.2 -19.4  34226  290.70 0854.59
2009/04/23 15:07:06.9    -147    -14   -111    148    185 264.3 -44.8  34222  290.62 0854.59
2009/04/23 15:07:07.0    -197     -7    -95    198    219 267.9 -31.7  34206  290.36 0854.62
2009/04/23 15:07:07.1    -189    -36    -80    193    208 259.2 -28.0  34202  290.30 0854.62
2009/04/23 15:07:07.2    -193    -70    -52    206    213 250.0 -14.3  34218  290.55 0854.62
2009/04/23 15:07:07.3    -155    -27    -44    158    165 260.1 -15.8  34226  290.69 0854.62
2009/04/23 15:07:07.4    -233    -79    -92    247    263 251.2 -25.4  34230  290.75 0854.62
2009/04/23 15:07:07.5    -223    -86    -70    240    250 248.9 -21.2  34246  291.04 0854.62
2009/04/23 15:07:07.6    -170    -15    -46    171    178 264.8 -15.2  34238  290.91 0854.62
2009/04/23 15:07:07.7    -187     37    -68    191    202 281.2 -24.6  34248  291.06 0854.62
2009/04/23 15:07:07.8    -200     87     52    219    226 293.5  13.5  34274  291.52 0854.62
2009/04/23 15:07:07.9    -236     15    118    237    264 273.7  28.2  34266  291.38 0854.62
2009/04/23 15:07:08.0    -283     41     56    287    293 278.4  11.1  34262  291.31 0854.62
2009/04/23 15:07:08.1    -281     11     20    282    283 272.4   4.2  34270  291.44 0854.62
2009/04/23 15:07:08.2    -353     82    -17    363    364 283.2  -2.7  34252  291.13 0854.62
2009/04/23 15:07:08.3    -345     24   -138    346    372 274.0 -27.4  34244  291.01 0854.62
2009/04/23 15:07:08.4    -398     -5   -127    399    418 269.2 -22.8  34262  291.29 0854.62
2009/04/23 15:07:08.5    -361     -5    -93    362    374 269.2 -14.4  34262  291.32 0854.62
2009/04/23 15:07:08.6    -270     24    -35    272    275 275.2  -7.3  34266  291.36 0854.62
2009/04/23 15:07:08.7    -263     74    -95    274    290 285.7 -24.0  34268  291.39 0854.62
2009/04/23 15:07:08.8     -75    -66    -96    101    139 228.7 -52.9  34270  291.45 0854.62
2009/04/23 15:07:08.9    -130    -26     16    133    134 258.6   6.9  34272  291.47 0854.62
2009/04/23 15:07:09.0    -262     19    115    263    287 274.3  25.1  34274  291.50 0854.58
2009/04/23 15:07:09.1    -241      0    145    242    282 270.0  33.7  34282  291.65 0854.58
2009/04/23 15:07:09.2    -232     43    183    236    298 280.6  41.7  34290  291.77 0854.58
2009/04/23 15:07:09.3    -288     66    252    296    388 283.0  44.7  34268  291.39 0854.58
2009/04/23 15:07:09.4    -165    175    160    241    289 316.7  36.5  34258  291.22 0854.58
2009/04/23 15:07:09.5    -162    173    188    238    303 316.8  42.7  34270  291.43 0854.58
2009/04/23 15:07:09.6    -184    111    157    215    266 301.1  39.7  34280  291.60 0854.58
2009/04/23 15:07:09.7     -78     94    107    123    163 320.4  45.8  34280  291.60 0854.58
2009/04/23 15:07:09.8    -149    159    112    219    245 316.8  29.1  34270  291.44 0854.58
2009/04/23 15:07:09.9    -205     84    219    222    311 292.4  49.9  34290  291.78 0854.58
2009/04/23 15:07:10.0    -173     81    168    192    255 295.2  45.8  34284  291.67 0854.58
2009/04/23 15:07:10.1    -151     71    134    168    214 295.3  43.0  34300  291.96 0854.58
2009/04/23 15:07:10.2    -132    -24    103    135    169 259.4  41.4  34300  291.96 0854.58
2009/04/23 15:07:10.3     -90    -43     42    100    108 244.2  24.1  34292  291.83 0854.58
2009/04/23 15:07:10.4    -110     81     72    137    154 306.4  29.8  34274  291.50 0854.58
2009/04/23 15:07:10.5    -133     93    107    163    194 304.9  36.0  34264  291.33 0854.58
2009/04/23 15:07:10.6    -187      2    113    188    219 270.8  33.7  34276  291.54 0854.58
2009/04/23 15:07:10.7    -114   -155    149    193    243 216.3  41.6  34264  291.33 0854.58
2009/04/23 15:07:10.8     -55   -186    110    195    223 196.5  31.9  34260  291.26 0854.58
2009/04/23 15:07:10.9     -23   -157     81    159    178 188.5  29.3  34256  291.20 0854.58
2009/04/23 15:07:11.0      22   -198     71    200    212 173.5  20.2  34252  291.13 0854.42
2009/04/23 15:07:11.1      54   -226     81    233    247 166.6  19.2  34246  291.04 0854.42
2009/04/23 15:07:11.2     104   -184     33    212    215 150.6   9.0  34254  291.18 0854.42
2009/04/23 15:07:11.3     159   -147     75    217    230 132.7  19.2  34250  291.11 0854.42
2009/04/23 15:07:11.4     202    -68     96    214    234 108.6  25.9  34244  291.01 0854.42
2009/04/23 15:07:11.5     206    -11     95    207    227  93.3  26.6  34248  291.08 0854.42
2009/04/23 15:07:11.6     178     19    148    180    233  83.9  43.7  34264  291.33 0854.42
2009/04/23 15:07:11.7     169     47    170    176    244  74.3  49.0  34294  291.84 0854.42
2009/04/23 15:07:11.8     203    -38    185    207    277 100.6  46.6  34278  291.56 0854.42
2009/04/23 15:07:11.9      69   -103    185    125    223 146.2  62.8  34272  291.47 0854.42
2009/04/23 15:07:12.0     142   -183    183    232    295 142.2  42.4  34260  291.27 0854.42
2009/04/23 15:07:12.1      13   -179    126    180    219 175.6  38.6  34270  291.45 0854.42
2009/04/23 15:07:12.2    -105   -302    193    320    373 199.2  33.8  34288  291.74 0854.42
2009/04/23 15:07:12.3    -106   -293    274    312    415 200.0  45.8  34280  291.62 0854.42
2009/04/23 15:07:12.4     -85   -242    222    257    339 199.4  45.2  34264  291.34 0854.42
2009/04/23 15:07:12.5      -2   -148    174    149    229 181.0  55.4  34270  291.45 0854.42
2009/04/23 15:07:12.6     -19   -138    177    140    225 188.0  57.5  34266  291.37 0854.42
2009/04/23 15:07:12.7    -136   -204    145    246    285 213.6  33.4  34284  291.68 0854.42
2009/04/23 15:07:12.8    -141   -220    206    262    333 212.6  42.2  34280  291.61 0854.42
2009/04/23 15:07:12.9    -158   -131    117    206    236 230.5  32.3  34304  292.01 0854.42
2009/04/23 15:07:13.0     -97   -225    187    246    309 203.4  41.2  34262  291.31 0854.47
2009/04/23 15:07:13.1     -96   -233    176    253    308 202.5  38.4  34250  291.10 0854.47
2009/04/23 15:07:13.2    -108   -283    176    303    350 200.9  32.9  34258  291.25 0854.47
2009/04/23 15:07:13.3    -111   -323    162    342    378 199.0  27.2  34270  291.44 0854.47
2009/04/23 15:07:13.4    -152   -265    115    306    326 209.9  21.5  34278  291.56 0854.47
2009/04/23 15:07:13.5    -192   -338     19    390    391 209.6   2.9  34254  291.17 0854.47
2009/04/23 15:07:13.6    -173   -340      3    382    383 207.0   0.5  34268  291.42 0854.47
2009/04/23 15:07:13.7    -100   -272    -11    291    292 200.3  -2.3  34276  291.53 0854.47
2009/04/23 15:07:13.8     -88   -303     37    316    319 196.3   6.7  34270  291.43 0854.47
2009/04/23 15:07:13.9      -5   -392     20    393    394 180.8   3.0  34244  291.00 0854.47
2009/04/23 15:07:14.0     124   -391     32    411    413 162.3   4.5  34210  290.43 0854.47
2009/04/23 15:07:14.1     201   -304     28    365    367 146.4   4.5  34210  290.42 0854.47
2009/04/23 15:07:14.2     131   -327    100    353    368 158.1  15.9  34200  290.25 0854.47
2009/04/23 15:07:14.3      56   -366     58    371    376 171.3   8.9  34172  289.76 0854.47
2009/04/23 15:07:14.4      56   -319     74    324    333 170.0  12.9  34168  289.71 0854.47
2009/04/23 15:07:14.5      -4   -246     71    247    258 181.0  16.0  34210  290.41 0854.47
2009/04/23 15:07:14.7     -86   -199     78    217    230 203.4  20.2  34232  290.81 0854.47
2009/04/23 15:07:14.7    -119   -144     21    188    190 219.6   6.5  34254  291.18 0854.47
2009/04/23 15:07:14.8    -131   -144     32    196    199 222.3   9.3  34254  291.16 0854.47
2009/04/23 15:07:15.0     -94   -229     -1    248    249 202.5  -0.3  34246  291.02 0854.47
2009/04/23 15:07:15.1     -24   -172    123    174    213 188.0  38.6  34226  290.69 0854.42
2009/04/23 15:07:15.1     -67   -139     63    155    167 205.9  23.4  34238  290.89 0854.42
2009/04/23 15:07:15.3     -79   -142     49    163    171 209.0  16.8  34258  291.23 0854.42
2009/04/23 15:07:15.4    -231   -106     -5    255    256 245.4  -1.3  34276  291.55 0854.42
2009/04/23 15:07:15.5    -275    -30    -82    277    288 263.6 -21.7  34310  292.11 0854.42
2009/04/23 15:07:15.6    -291    -51    -21    296    297 259.9  -4.1  34236  290.87 0854.42
2009/04/23 15:07:15.7    -258   -158     82    303    314 238.5  15.1  34248  291.07 0854.42
2009/04/23 15:07:15.8    -109   -196     67    225    235 209.0  16.8  34270  291.43 0854.42
2009/04/23 15:07:15.9    -129   -271    -16    301    302 205.4  -3.1  34240  290.93 0854.42
2009/04/23 15:07:16.0     -28   -346   -103    348    363 184.7 -16.5  34244  291.00 0854.42
2009/04/23 15:07:16.1      20   -350   -111    351    369 176.6 -17.6  34224  290.66 0854.42
2009/04/23 15:07:16.2      72   -372      9    379    380 169.0   1.5  34200  290.25 0854.42
2009/04/23 15:07:16.3      -1   -381   -166    382    416 180.3 -29.4  34124  288.97 0854.42
2009/04/23 15:07:16.4      18   -355   -121    356    376 177.1 -23.7  34120  288.91 0854.42
2009/04/23 15:07:16.5     -33   -267    -90    270    284 187.1 -23.6  34144  289.31 0854.42
2009/04/23 15:07:16.6    -131   -256    -85    288    301 207.2 -16.4  34218  290.54 0854.42
2009/04/23 15:07:16.7    -158   -232   -100    281    298 214.3 -24.8  34212  290.44 0854.42
2009/04/23 15:07:16.8    -143   -220   -109    263    284 213.0 -28.5  34228  290.73 0854.42
2009/04/23 15:07:16.9    -136   -239    -79    276    287 209.6 -20.7  34200  290.26 0854.42
2009/04/23 15:07:17.0    -207   -269   -100    340    354 217.6 -21.4  34194  290.15 0854.42
2009/04/23 15:07:17.1    -201   -235   -107    310    327 220.6 -23.9  34208  290.39 0854.46
2009/04/23 15:07:17.2    -130   -204     -9    243    244 212.5  -2.3  34226  290.70 0854.46
2009/04/23 15:07:17.3    -164   -208     39    266    269 218.3   8.5  34210  290.42 0854.46
2009/04/23 15:07:17.4    -148   -290    -34    326    328 207.1  -6.0  34198  290.20 0854.46
2009/04/23 15:07:17.5     -54   -384   -116    388    404 188.1 -21.7  34202  290.27 0854.46
2009/04/23 15:07:17.6     -12   -268   -160    269    312 182.7 -38.0  34192  290.10 0854.46
2009/04/23 15:07:17.7     -23   -284   -178    286    336 184.7 -39.4  34178  289.86 0854.46
2009/04/23 15:07:17.8     -37   -303   -180    306    355 187.1 -37.7  34182  289.94 0854.46
2009/04/23 15:07:17.9     -23   -310   -169    311    353 184.4 -35.3  34174  289.82 0854.46
2009/04/23 15:07:18.0      49   -348   -176    352    393 171.9 -32.9  34186  290.01 0854.46
2009/04/23 15:07:18.1     203   -318   -141    378    403 147.4 -25.8  34184  289.99 0854.46
2009/04/23 15:07:18.2      55   -446    -30    450    451 172.9  -3.9  34186  290.00 0854.46
2009/04/23 15:07:18.3      30   -386   -126    388    408 175.5 -18.0  34192  290.13 0854.46
2009/04/23 15:07:18.4     103   -283    -93    302    317 160.0 -17.2  34192  290.12 0854.46
2009/04/23 15:07:18.5     117   -362      3    381    382 162.0   0.5  34188  290.04 0854.46
2009/04/23 15:07:18.6      56   -382     -7    387    388 171.7  -1.2  34176  289.84 0854.46
2009/04/23 15:07:18.7     -62   -263    -19    271    272 193.4  -4.1  34194  290.14 0854.46
2009/04/23 15:07:18.8     -67   -266    -23    275    277 194.2  -4.9  34198  290.22 0854.46
2009/04/23 15:07:18.9      -4   -285    -31    286    288 180.9  -6.2  34192  290.12 0854.46
2009/04/23 15:07:19.0       6   -273    -55    274    280 178.6 -11.3  34182  289.93 0854.46
2009/04/23 15:07:19.1      86   -164     65    186    198 152.4  19.2  34174  289.82 0854.52
2009/04/23 15:07:19.2      99   -162     62    190    200 148.6  18.1  34176  289.84 0854.52
2009/04/23 15:07:19.3      96   -290     60    306    312 161.7  11.1  34170  289.73 0854.52
2009/04/23 15:07:19.4      60   -289     94    296    311 168.2  17.7  34168  289.71 0854.52
2009/04/23 15:07:19.5      17   -327    154    328    362 176.9  27.1  34152  289.42 0854.52
2009/04/23 15:07:19.6     -31   -393    171    395    430 184.6  25.1  34142  289.27 0854.52
2009/04/23 15:07:19.7      26   -371    205    372    424 175.9  31.3  34152  289.43 0854.52
2009/04/23 15:07:19.8      50   -402    300    406    504 172.8  40.1  34172  289.79 0854.52
2009/04/23 15:07:19.9      30   -497    336    498    600 176.5  37.4  34162  289.61 0854.52
2009/04/23 15:07:20.0     144   -364    223    392    450 158.4  32.1  34158  289.55 0854.52
2009/04/23 15:07:20.1     334   -233    245    408    475 124.9  33.8  34172  289.78 0854.52
2009/04/23 15:07:20.2     288   -190    261    346    433 123.5  40.8  34180  289.90 0854.52
2009/04/23 15:07:20.3     215   -136    222    255    338 122.5  45.5  34172  289.78 0854.52
2009/04/23 15:07:20.4     264   -128    164    294    336 116.0  31.6  34162  289.59 0854.52
2009/04/23 15:07:20.5     273   -135    110    305    324 116.4  20.6  34160  289.58 0854.52
2009/04/23 15:07:20.6     280   -110    126    302    327 111.5  23.9  34168  289.70 0854.52
2009/04/23 15:07:20.7     240   -116    104    267    286 116.0  22.3  34170  289.73 0854.52
2009/04/23 15:07:20.8     281   -179     -5    334    335 122.5  -0.9  34172  289.79 0854.52
2009/04/23 15:07:20.9     264   -237     83    355    365 131.9  13.3  34162  289.60 0854.52
2009/04/23 15:07:21.0     185   -254    117    315    336 143.9  21.4  34164  289.64 0854.52
2009/04/23 15:07:21.1      54   -190     70    198    210 164.0  20.0  34166  289.69 0854.53
2009/04/23 15:07:21.2      77   -206    -44    221    226 159.5 -11.5  34162  289.60 0854.53
2009/04/23 15:07:21.3      81    -98    -16    128    130 140.4  -7.2  34162  289.62 0854.53
2009/04/23 15:07:21.4     167   -139    -73    218    229 129.8 -23.6  34168  289.70 0854.53
2009/04/23 15:07:21.5     164   -164    107    233    256 135.0  26.4  34156  289.51 0854.53
2009/04/23 15:07:21.6     161    -85    167    183    247 117.8  47.1  34172  289.77 0854.53
2009/04/23 15:07:21.7     108    -58    209    123    242 118.4  66.8  34174  289.82 0854.53
2009/04/23 15:07:21.8      11      0    108     12    108  90.0  90.0  34186  290.02 0854.53
2009/04/23 15:07:21.9    -128   -124     31    179    182 225.8  10.1  34172  289.77 0854.53
2009/04/23 15:07:22.0    -126   -108     20    167    169 229.3   6.9  34166  289.69 0854.53
2009/04/23 15:07:22.1     -56   -177    -63    186    197 197.8 -18.7  34168  289.70 0854.53
2009/04/23 15:07:22.2      30   -262    -43    264    268 173.3  -9.4  34172  289.76 0854.53
2009/04/23 15:07:22.3      74   -259    -85    270    284 164.0 -17.5  34182  289.95 0854.53
2009/04/23 15:07:22.4     -69    -11    -60     71     92 260.3 -48.7  34190  290.08 0854.53
2009/04/23 15:07:22.5     -31    -49    -95     59    111 212.5 -69.1  34184  289.99 0854.53
2009/04/23 15:07:22.6      -8   -108     59    109    123 184.4  31.3  34174  289.80 0854.53
2009/04/23 15:07:22.7     148    -53     33    158    162 109.9  12.0  34184  289.97 0854.53
2009/04/23 15:07:22.8     122   -147      3    192    193 140.3   1.0  34186  290.01 0854.53
2009/04/23 15:07:22.9      35   -169     44    173    179 168.2  14.5  34194  290.14 0854.53
2009/04/23 15:07:23.0      79    -55    -33     97    103 124.6 -19.1  34184  289.97 0854.59
2009/04/23 15:07:23.1     100   -190   -102    215    237 152.1 -31.6  34176  289.84 0854.59
2009/04/23 15:07:23.2      81   -207   -119    223    252 158.6 -34.7  34172  289.78 0854.59
2009/04/23 15:07:23.3     106   -192   -197    220    295 151.1 -50.8  34174  289.80 0854.59
2009/04/23 15:07:23.4     153    -66   -144    167    220 113.5 -49.8  34174  289.82 0854.59
2009/04/23 15:07:23.5      92    -46   -113    103    152 116.6 -56.6  34182  289.96 0854.59
2009/04/23 15:07:23.6     198     15   -113    199    228  85.6 -36.5  34170  289.75 0854.59
2009/04/23 15:07:23.7     241     28    -13    243    244  83.2  -3.1  34166  289.68 0854.59
2009/04/23 15:07:23.8     111     12     99    112    149  83.4  45.8  34164  289.65 0854.59
2009/04/23 15:07:23.9      -7    -36     62     37     72 191.6  65.7  34180  289.92 0854.59
2009/04/23 15:07:24.0     228   -107    113    253    277 115.2  25.3  34176  289.83 0854.64
2009/04/23 15:07:24.1     192   -153     52    246    252 128.6  12.1  34172  289.76 0854.64
2009/04/23 15:07:24.2      61   -308     67    315    323 168.7  12.1  34170  289.73 0854.64
2009/04/23 15:07:24.3      17   -293     46    294    298 176.6   9.0  34172  289.76 0854.64
2009/04/23 15:07:24.4     -22   -405    148    406    432 183.1  21.0  34172  289.78 0854.64
2009/04/23 15:07:24.5     260   -314    193    408    451 140.4  27.1  34170  289.73 0854.64
2009/04/23 15:07:24.6     275   -424    231    506    556 147.0  26.2  34168  289.72 0854.64
2009/04/23 15:07:24.7     265   -365    214    452    500 144.0  27.2  34162  289.62 0854.64
2009/04/23 15:07:24.8      82   -403    252    412    482 168.4  34.4  34172  289.78 0854.64
2009/04/23 15:07:24.9     235   -150     97    280    297 122.6  19.2  34178  289.86 0854.64
2009/04/23 15:07:25.0     126   -164    -34    208    211 142.4  -9.4  34174  289.80 0854.64
2009/04/23 15:07:25.1     205   -204   -105    290    308 134.8 -25.3  34176  289.83 0854.64
2009/04/23 15:07:25.2     165   -213    -62    270    278 142.1 -12.9  34172  289.78 0854.64
2009/04/23 15:07:25.3     156   -166     82    229    243 136.8  20.2  34172  289.78 0854.64
2009/04/23 15:07:25.4     201   -145    131    249    281 125.9  30.2  34180  289.90 0854.64
2009/04/23 15:07:25.5     179   -127    137    220    259 125.5  35.0  34170  289.75 0854.64
2009/04/23 15:07:25.6     -51   -285    123    290    315 190.2  24.3  34164  289.63 0854.64
2009/04/23 15:07:25.7    -261   -128     56    291    297 243.8  11.0  34164  289.63 0854.64
2009/04/23 15:07:25.8     -78   -196    240    212    320 201.9  54.0  34162  289.59 0854.64
2009/04/23 15:07:25.9     -57   -305     91    311    325 190.7  16.3  34162  289.61 0854.64
2009/04/23 15:07:26.0    -318   -411    208    520    560 217.8  23.0  34152  289.45 0854.53
2009/04/23 15:07:26.1    -501   -366    221    621    660 233.8  19.6  34148  289.38 0854.53
2009/04/23 15:07:26.2    -388   -229    144    451    474 239.4  17.8  34162  289.59 0854.53
2009/04/23 15:07:26.3    -118   -296    179    319    365 201.8  31.7  34162  289.62 0854.53
2009/04/23 15:07:26.4    -113   -363    208    381    434 197.3  31.3  34170  289.73 0854.53
2009/04/23 15:07:26.5    -296   -288    204    413    460 225.8  28.2  34160  289.58 0854.53
2009/04/23 15:07:26.6    -413   -241    111    479    492 239.7  13.1  34166  289.66 0854.53
2009/04/23 15:07:26.7    -355   -243     86    431    440 235.6  11.3  34164  289.65 0854.53
2009/04/23 15:07:26.8    -282   -249    177    377    416 228.5  27.1  34160  289.58 0854.53
2009/04/23 15:07:26.9    -213    -97     80    235    249 245.6  18.9  34160  289.56 0854.53
2009/04/23 15:07:27.0    -107    -35     35    113    119 251.6  17.4  34164  289.63 0854.53
2009/04/23 15:07:27.1     -70     14   -119     72    139 281.4 -70.6  34170  289.74 0854.53
2009/04/23 15:07:27.2     -98    -47   -179    109    209 244.2 -70.1  34174  289.80 0854.53
2009/04/23 15:07:27.3      80    168    -94    187    209  25.4 -33.1  34162  289.60 0854.53
2009/04/23 15:07:27.4      19    203     40    205    209   5.6  11.1  34168  289.70 0854.53
2009/04/23 15:07:27.5    -142     90    149    169    225 302.4  45.8  34174  289.80 0854.53
2009/04/23 15:07:27.6    -228    135    103    266    285 300.7  22.1  34192  290.10 0854.53
2009/04/23 15:07:27.7    -127    125    -93    179    201 314.4 -33.9  34198  290.21 0854.53
2009/04/23 15:07:27.8     -15    206   -199    207    287 355.6 -53.4  34188  290.03 0854.53
2009/04/23 15:07:27.9     214    160   -190    268    328  53.1 -43.2  34172  289.78 0854.53
2009/04/23 15:07:28.0     230     38     32    234    237  80.5   8.0  34150  289.41 0854.48
2009/04/23 15:07:28.1     115     49    -44    125    132  66.9 -23.8  34160  289.57 0854.48
2009/04/23 15:07:28.2      95     12   -161     96    187  82.5 -70.8  34186  290.02 0854.48
2009/04/23 15:07:28.3     106   -142   -156    178    236 143.3 -50.2  34152  289.45 0854.48
2009/04/23 15:07:28.4     144   -289   -240    323    402 153.5 -44.8  34142  289.28 0854.48
2009/04/23 15:07:28.5     229   -283   -168    365    401 141.0 -30.9  34146  289.33 0854.48
2009/04/23 15:07:28.6     165   -260   -161    309    348 147.5 -34.0  34146  289.33 0854.48
2009/04/23 15:07:28.7     201   -221    -66    299    307 137.7 -12.5  34142  289.25 0854.48
2009/04/23 15:07:28.8     182   -222   -139    288    319 140.6 -32.1  34150  289.39 0854.48
2009/04/23 15:07:28.9     201   -270   -109    337    354 143.3 -23.0  34146  289.35 0854.48
2009/04/23 15:07:29.0     133   -311   -121    339    361 156.8 -19.7  34154  289.48 0854.48
2009/04/23 15:07:29.1     217   -276    -57    352    357 141.8  -9.3  34152  289.45 0854.48
2009/04/23 15:07:29.2     140   -274    -47    308    312 152.9  -8.7  34156  289.49 0854.48
2009/04/23 15:07:29.3     126   -288     -3    315    316 156.3  -0.6  34166  289.68 0854.48
2009/04/23 15:07:29.4     120   -237     42    266    270 153.0   9.0  34162  289.59 0854.48
2009/04/23 15:07:29.5      74   -133    128    153    199 151.0  44.1  34176  289.84 0854.48
2009/04/23 15:07:29.6      92   -193    162    215    269 154.4  40.7  34180  289.92 0854.48
2009/04/23 15:07:29.7      71   -235    133    246    279 163.1  30.8  34168  289.71 0854.48
2009/04/23 15:07:29.8      56   -217    114    225    252 165.5  29.1  34164  289.63 0854.48
2009/04/23 15:07:29.9     126   -295    112    322    342 156.8  19.2  34162  289.59 0854.48
2009/04/23 15:07:30.0      65   -314     54    321    326 168.2   9.7  34152  289.44 0854.48
2009/04/23 15:07:30.1      37   -262     26    265    267 171.9   5.7  34150  289.41 0854.48
2009/04/23 15:07:30.2     -67   -272     -5    281    282 193.8  -1.2  34150  289.41 0854.48
2009/04/23 15:07:30.3     -73   -223     45    235    240 198.3  11.0  34154  289.47 0854.48
2009/04/23 15:07:30.4    -140   -176    -45    226    231 218.5 -11.5  34148  289.36 0854.48
2009/04/23 15:07:30.5    -179   -186    -57    259    266 223.9 -12.4  34154  289.47 0854.48
2009/04/23 15:07:30.6    -271   -134   -102    303    319 243.6 -23.6  34154  289.47 0854.48
2009/04/23 15:07:30.7    -222    -96   -108    243    265 246.5 -30.1  34160  289.56 0854.48
2009/04/23 15:07:30.8    -171   -115   -107    207    233 236.0 -33.7  34160  289.57 0854.48
2009/04/23 15:07:30.9     -68   -205   -121    217    248 198.5 -36.0  34156  289.51 0854.48
2009/04/23 15:07:31.0      62   -231    -98    240    259 164.9 -27.5  34156  289.51 0854.48
2009/04/23 15:07:31.1    -203   -253   -105    325    341 218.7 -23.3  34154  289.47 0854.48
2009/04/23 15:07:31.2    -301   -264   -246    401    470 228.7 -38.8  34154  289.46 0854.48
2009/04/23 15:07:31.3    -504   -111   -211    517    558 257.5 -27.9  34152  289.45 0854.48
2009/04/23 15:07:31.4    -437     -3   -146    438    461 269.5 -23.6  34148  289.38 0854.48
2009/04/23 15:07:31.5    -381    -34    -92    383    394 264.8 -13.6  34154  289.47 0854.48
2009/04/23 15:07:31.6    -343    -20   -121    344    364 266.6 -24.5  34154  289.48 0854.48
2009/04/23 15:07:31.7     -65   -197    -72    208    220 198.5 -23.8  34160  289.58 0854.48
2009/04/23 15:07:31.8    -152   -152    -70    216    228 225.1 -17.9  34158  289.53 0854.48
2009/04/23 15:07:31.9     -51   -173    -79    181    197 196.7 -29.5  34158  289.53 0854.48
2009/04/23 15:07:32.0     -30   -118     69    122    140 194.3  31.4  34154  289.46 0854.52
2009/04/23 15:07:32.1    -107   -114    150    157    217 223.3  48.5  34158  289.55 0854.52
2009/04/23 15:07:32.2    -270      8    110    271    292 271.7  23.1  34180  289.90 0854.52
2009/04/23 15:07:32.3    -124    -79    114    148    186 237.6  42.0  34164  289.63 0854.52
2009/04/23 15:07:32.4    -202   -244    121    318    340 219.6  21.7  34178  289.87 0854.52
2009/04/23 15:07:32.5    -453    -92   -137    463    482 258.5 -21.2  34142  289.25 0854.52
2009/04/23 15:07:32.6    -807   -169   -311    825    881 258.1 -26.1  34152  289.43 0854.52
2009/04/23 15:07:32.7    -771     39   -445    773    891 272.9 -36.8  34130  289.07 0854.52
2009/04/23 15:07:32.8    -724     44    -93    726    732 273.5  -7.3  34166  289.66 0854.52
2009/04/23 15:07:32.9    -924     14   -235    925    955 270.9 -14.3  34214  290.49 0854.52
2009/04/23 15:07:33.0    -821    -71   -160    825    841 265.0 -11.0  34184  289.99 0854.52
2009/04/23 15:07:33.1    -726    141    -48    740    742 281.0  -3.7  34188  290.06 0854.52
2009/04/23 15:07:33.2    -667    136    -52    682    684 281.6  -4.4  34194  290.16 0854.52
2009/04/23 15:07:33.3    -608    133   -136    623    638 282.4 -12.4  34192  290.13 0854.52
2009/04/23 15:07:33.4    -569     34   -164    571    595 273.5 -16.0  34180  289.91 0854.52
2009/04/23 15:07:33.5    -548    -31   -292    549    621 266.7 -34.7  34138  289.19 0854.52
2009/04/23 15:07:33.6    -400   -127   -321    420    528 252.3 -45.6  34152  289.44 0854.52
2009/04/23 15:07:33.7    -228   -182   -292    293    413 231.4 -54.4  34154  289.48 0854.52
2009/04/23 15:07:33.8    -264    -91   -194    280    340 251.0 -42.4  34144  289.31 0854.52
2009/04/23 15:07:33.9    -181     59   -237    191    304 288.2 -61.0  34154  289.47 0854.52
2009/04/23 15:07:34.0     -82     19   -218     85    233 283.3 -82.2  34166  289.67 0854.56
2009/04/23 15:07:34.1     152    100   -264    183    321  56.5 -66.5  34164  289.63 0854.56
2009/04/23 15:07:34.2     -52     17   -144     55    154 288.4 -83.0  34166  289.67 0854.56
2009/04/23 15:07:34.3     152    -36    -43    157    162 103.3 -20.2  34154  289.48 0854.56
2009/04/23 15:07:34.4     222     15   -123    223    254  86.1 -35.7  34168  289.70 0854.56
2009/04/23 15:07:34.5       0     34   -113     35    118 359.1 -87.1  34174  289.82 0854.56
2009/04/23 15:07:34.6      23    165   -106    167    197   8.0 -39.9  34172  289.77 0854.56
2009/04/23 15:07:34.7     177    370   -110    411    426  25.6 -15.0  34174  289.80 0854.56
2009/04/23 15:07:34.8     -40    290   -164    293    335 352.0 -36.0  34164  289.64 0854.56
2009/04/23 15:07:34.9      86    191   -125    210    244  24.3 -37.9  34164  289.64 0854.56
2009/04/23 15:07:35.0     284    161   -103    327    344  60.5 -17.6  34172  289.79 0854.56
2009/04/23 15:07:35.1     282     94   -136    298    327  71.6 -30.8  34168  289.71 0854.56
2009/04/23 15:07:35.2      99   -133   -158    167    229 143.3 -52.6  34170  289.75 0854.56
2009/04/23 15:07:35.3     197   -133     11    239    240 124.1   2.8  34178  289.86 0854.56
2009/04/23 15:07:35.4     140     14   -198    141    243  83.9 -65.7  34170  289.74 0854.56
2009/04/23 15:07:35.5     137     -8   -207    138    248  93.5 -67.8  34168  289.72 0854.56
2009/04/23 15:07:35.6      35     -1   -177     36    180  92.6 -90.0  34180  289.92 0854.56
2009/04/23 15:07:35.7     197   -188   -227    273    355 133.8 -48.5  34168  289.71 0854.56
2009/04/23 15:07:35.8     -49   -103   -321    115    340 205.5 -84.1  34170  289.75 0854.56
2009/04/23 15:07:35.9     123   -242   -349    272    442 152.9 -62.7  34168  289.71 0854.56
2009/04/23 15:07:36.0    -200    -17   -250    201    320 265.0 -61.5  34190  290.09 0854.57
2009/04/23 15:07:36.1    -147     -2   -189    148    240 269.2 -62.6  34196  290.18 0854.57
2009/04/23 15:07:36.2      45     88    -67     99    119  27.2 -42.0  34198  290.23 0854.57
2009/04/23 15:07:36.3      21     95     27     98    102  12.9  15.8  34188  290.04 0854.57
2009/04/23 15:07:36.4      24     64    196     69    207  20.9  80.2  34196  290.19 0854.57
2009/04/23 15:07:36.5      37    -10    172     39    176 105.1  87.7  34196  290.18 0854.57
2009/04/23 15:07:36.6     238     10    132    239    273  87.5  31.4  34180  289.90 0854.57
2009/04/23 15:07:36.7     239    -78    267    252    367 108.2  52.0  34188  290.06 0854.57
2009/04/23 15:07:36.8     157   -337    131    373    395 155.0  20.1  34186  290.01 0854.57
2009/04/23 15:07:36.9     103   -486   -123    497    512 168.0 -13.9  34182  289.95 0854.57
2009/04/23 15:07:37.0     247   -518   -166    574    597 154.5 -20.9  34172  289.78 0854.57
2009/04/23 15:07:37.1     269   -569   -201    630    661 154.7 -22.8  34180  289.92 0854.57
2009/04/23 15:07:37.2     252   -536   -231    593    636 154.8 -26.8  34172  289.77 0854.57
2009/04/23 15:07:37.3     165   -518   -324    544    633 162.3 -38.0  34186  290.02 0854.57
2009/04/23 15:07:37.4     -64    -93   -330    114    349 214.7 -85.0  34198  290.20 0854.57
2009/04/23 15:07:37.5     329   -243   -119    410    426 126.5 -20.9  34186  290.02 0854.57
2009/04/23 15:07:37.6     278   -264   -297    384    485 133.5 -46.0  34188  290.05 0854.57
2009/04/23 15:07:37.7     230   -288   -380    369    529 141.4 -55.5  34184  289.98 0854.57
2009/04/23 15:07:37.8     174   -312   -304    358    469 150.8 -49.2  34170  289.75 0854.57
2009/04/23 15:07:37.9     225   -392   -208    453    498 150.1 -30.9  34182  289.95 0854.57
2009/04/23 15:07:38.0     352   -375   -126    515    531 136.8 -13.8  34170  289.75 0854.60
2009/04/23 15:07:38.1     313   -234     48    391    395 126.8   7.1  34182  289.96 0854.60
2009/04/23 15:07:38.2     344    -23    212    345    404  93.9  34.5  34182  289.94 0854.60
2009/04/23 15:07:38.3     315    -44    226    319    390  98.0  38.7  34184  289.98 0854.60
2009/04/23 15:07:38.4     278   -242     18    369    370 131.0   2.8  34174  289.81 0854.60
2009/04/23 15:07:38.5     313   -258    -48    406    409 129.5  -6.8  34182  289.95 0854.60
2009/04/23 15:07:38.6     274    -11     51    275    280  92.4  10.6  34176  289.83 0854.60
2009/04/23 15:07:38.7     474     -6   -142    475    496  90.8 -16.7  34170  289.73 0854.60
2009/04/23 15:07:38.8     619    -12    -28    620    621  91.2  -2.6  34164  289.65 0854.60
2009/04/23 15:07:38.9     667     50     42    669    671  85.7   3.6  34222  290.63 0854.60
2009/04/23 15:07:39.0     597   -173     35    622    623 106.2   3.2  34218  290.57 0854.60
2009/04/23 15:07:39.1     681     16    219    682    717  88.6  17.8  34306  292.04 0854.60
2009/04/23 15:07:39.2     792    215     89    821    826  74.8   6.2  34250  291.10 0854.60
2009/04/23 15:07:39.3     800    272     47    846    848  71.2   3.2  34250  291.11 0854.60
2009/04/23 15:07:39.4     693    286    147    750    765  67.5  11.1  34298  291.93 0854.60
2009/04/23 15:07:39.5     499    317   -153    592    612  57.6 -14.5  34186  290.02 0854.60
2009/04/23 15:07:39.6     493    323   -180    590    618  56.8 -17.0  34194  290.15 0854.60
2009/04/23 15:07:39.7     472    269     94    544    553  60.3   9.9  34288  291.76 0854.60
2009/04/23 15:07:39.8     419     98   -196    431    473  76.8 -30.6  34188  290.05 0854.60
2009/04/23 15:07:39.9     415    256     89    488    497  58.3  10.4  34186  290.00 0854.60
2009/04/23 15:07:40.0     406    382     55    558    561  46.8   5.7  34210  290.41 0854.66
2009/04/23 15:07:40.1     474    337     70    582    587  54.6   6.9  34368  293.10 0854.66
2009/04/23 15:07:40.2     438    145    214    462    509  71.6  26.6  34328  292.43 0854.66
2009/04/23 15:07:40.3     468    119    309    483    573  75.7  35.6  34314  292.20 0854.66
2009/04/23 15:07:40.4     496    189    284    532    603  69.1  30.3  34278  291.58 0854.66
2009/04/23 15:07:40.5     553    167    207    578    615  73.2  19.7  34248  291.07 0854.66
2009/04/23 15:07:40.6     505    102     48    516    519  78.6   5.4  34218  290.54 0854.66
2009/04/23 15:07:40.7     431     32     67    433    439  85.7   8.9  34202  290.29 0854.66
2009/04/23 15:07:40.8     307   -110     12    327    328 109.8   2.2  34202  290.27 0854.66
2009/04/23 15:07:41.0     208     -6     48    209    215  91.9  13.1  34196  290.19 0854.66
2009/04/23 15:07:41.1     134     41    116    141    182  73.1  43.7  34206  290.35 0854.66
2009/04/23 15:07:41.1     338     79    236    348    420  76.7  37.4  34264  291.35 0854.66
2009/04/23 15:07:41.2     409     -3    230    410    470  90.5  31.9  34204  290.31 0854.66
2009/04/23 15:07:41.4     483     47    127    486    503  84.4  14.7  34188  290.03 0854.66
2009/04/23 15:07:41.5     295    126    234    322    398  66.8  39.7  34202  290.30 0854.66
2009/04/23 15:07:41.6     358     80    202    367    418  77.3  31.4  34214  290.48 0854.66
2009/04/23 15:07:41.7     238     49    268    244    362  78.3  53.2  34240  290.92 0854.66
2009/04/23 15:07:41.7     237    105    210    260    334  66.0  43.3  34232  290.80 0854.66
2009/04/23 15:07:41.9     216     33    208    219    302  81.2  48.2  34242  290.97 0854.66
2009/04/23 15:07:42.0     175     66    243    188    307  69.4  58.5  34258  291.24 0854.66
2009/04/23 15:07:42.1     128     12    188    129    228  84.3  62.6  34216  290.53 0854.66
2009/04/23 15:07:42.2      21     33    147     40    152  32.5  84.8  34266  291.37 0854.66
2009/04/23 15:07:42.3      26      4    120     27    123  80.3  87.5  34252  291.15 0854.66
2009/04/23 15:07:42.4      72    -70    141    101    173 134.0  61.1  34234  290.82 0854.66
2009/04/23 15:07:42.5       0    -22    101     23    103 180.9  87.5  34240  290.92 0854.66
2009/04/23 15:07:42.6     130    -51    117    140    182 111.7  44.1  34238  290.89 0854.66
2009/04/23 15:07:42.7      53    -48    138     72    155 132.2  70.4  34252  291.13 0854.66
2009/04/23 15:07:42.8      36     19    140     41    145  62.0  83.3  34286  291.71 0854.66
2009/04/23 15:07:42.9     -14    -72    161     74    177 191.6  73.8  34242  290.96 0854.66
2009/04/23 15:07:43.0      15    -76    146     78    165 168.4  69.6  34280  291.60 0854.66
2009/04/23 15:07:43.1       8    -86    115     87    144 174.7  59.4  34282  291.64 0854.66
2009/04/23 15:07:43.2      51    -98     98    111    148 152.4  45.9  34256  291.21 0854.66
2009/04/23 15:07:43.3      81   -134    140    157    210 148.8  46.2  34262  291.30 0854.66
2009/04/23 15:07:43.4      26   -128    141    131    192 168.5  52.2  34264  291.33 0854.66
2009/04/23 15:07:43.5      10    -86    100     87    132 173.3  54.3  34262  291.30 0854.66
2009/04/23 15:07:43.6       1      8     63      9     63  11.6  90.0  34284  291.67 0854.66
2009/04/23 15:07:43.7     -35    -38     64     52     82 222.3  56.4  34272  291.47 0854.66
2009/04/23 15:07:43.8     -63    -82    119    104    158 217.4  54.3  34240  290.92 0854.66
2009/04/23 15:07:43.9    -128   -166    107    210    235 217.6  29.1  34232  290.81 0854.66
2009/04/23 15:07:44.0    -113   -199     98    230    250 209.6  24.6  34224  290.66 0854.66
2009/04/23 15:07:44.1     -88   -253     89    268    283 199.2  18.4  34230  290.75 0854.65
2009/04/23 15:07:44.2    -163   -227     56    280    286 215.8  11.4  34240  290.92 0854.65
2009/04/23 15:07:44.3    -122   -193    106    229    252 212.5  26.4  34230  290.76 0854.65
2009/04/23 15:07:44.4    -139   -188     85    235    249 216.5  20.7  34252  291.12 0854.65
2009/04/23 15:07:44.5    -137   -227     75    266    277 211.2  15.8  34258  291.22 0854.65
2009/04/23 15:07:44.6    -241   -104    -61    263    271 246.7 -13.2  34268  291.41 0854.65
2009/04/23 15:07:44.7    -156    -55    -74    166    181 250.5 -30.1  34254  291.16 0854.65
2009/04/23 15:07:44.8    -126   -126    -21    179    181 225.0  -6.9  34246  291.03 0854.65
2009/04/23 15:07:44.9    -197    -14     77    198    212 265.7  22.3  34254  291.16 0854.65
2009/04/23 15:07:45.0    -204    -38    126    208    243 259.4  34.4  34270  291.43 0854.65
2009/04/23 15:07:45.1    -217     18     87    218    234 274.8  22.8  34294  291.86 0854.66
2009/04/23 15:07:45.2    -143   -143    139    203    246 225.1  37.6  34264  291.34 0854.66
2009/04/23 15:07:45.3    -115   -193    196    225    298 210.8  45.8  34254  291.16 0854.66
2009/04/23 15:07:45.4    -238   -237     52    337    341 225.1   8.8  34268  291.40 0854.66
2009/04/23 15:07:45.5      18    -66    173     69    186 164.9  77.1  34268  291.40 0854.66
2009/04/23 15:07:45.6      -3   -107    181    108    210 181.8  66.7  34268  291.40 0854.66
2009/04/23 15:07:45.7     -62   -188    197    199    280 198.3  50.0  34236  290.87 0854.66
2009/04/23 15:07:45.8     -35   -159     91    164    187 192.7  31.4  34262  291.30 0854.66
2009/04/23 15:07:45.9      -2   -148    152    149    212 180.9  50.2  34272  291.47 0854.66
2009/04/23 15:07:46.0     -50   -125    133    135    189 201.8  50.0  34286  291.72 0854.66
2009/04/23 15:07:46.1    -101    -28     80    105    132 254.5  41.6  34302  292.00 0854.66
2009/04/23 15:07:46.2     -65    -31     49     73     87 244.7  37.0  34290  291.79 0854.66
2009/04/23 15:07:46.3     -44    -87     97     98    137 206.7  50.0  34288  291.76 0854.66
2009/04/23 15:07:46.4    -102   -157    153    188    242 213.0  43.5  34284  291.67 0854.66
2009/04/23 15:07:46.5    -125    -46    111    134    174 249.6  43.7  34290  291.77 0854.66
2009/04/23 15:07:46.6     -93    -25    121     97    155 254.9  56.4  34282  291.64 0854.66
2009/04/23 15:07:46.7    -138    -14     66    139    153 263.9  27.2  34274  291.52 0854.66
2009/04/23 15:07:46.8    -133    -90     41    161    167 235.8  14.3  34270  291.45 0854.66
2009/04/23 15:07:46.9    -123   -107     44    164    170 228.9  15.0  34268  291.42 0854.66
2009/04/23 15:07:47.0     -61    -93     62    112    128 213.4  31.4  34266  291.37 0854.66
2009/04/23 15:07:47.1     -33    -87     86     94    127 200.9  47.5  34274  291.50 0854.63
2009/04/23 15:07:47.2     -34    -72     83     80    115 205.3  50.7  34278  291.59 0854.63
2009/04/23 15:07:47.3      18    -49     90     53    104 160.0  66.8  34282  291.66 0854.63
2009/04/23 15:07:47.4     -30   -145    102    149    180 192.0  37.8  34250  291.09 0854.63
2009/04/23 15:07:47.5     -85   -110     84    140    163 217.8  34.0  34244  290.99 0854.63
2009/04/23 15:07:47.6    -111   -166     94    201    221 213.8  27.0  34260  291.26 0854.63
2009/04/23 15:07:47.7    -161   -173    127    237    268 222.8  30.6  34274  291.50 0854.63
2009/04/23 15:07:47.8    -169   -148    130    225    259 228.7  32.4  34296  291.89 0854.63
2009/04/23 15:07:47.9    -164   -159    129    229    262 226.0  31.9  34290  291.77 0854.63
2009/04/23 15:07:48.0    -205    -83     76    222    235 248.0  18.9  34282  291.66 0854.63
2009/04/23 15:07:48.1      13   -130     85    131    156 174.2  35.6  34262  291.30 0854.63
2009/04/23 15:07:48.2       9   -120    127    121    175 175.6  51.4  34254  291.16 0854.63
2009/04/23 15:07:48.3      31    -91    131     97    163 161.3  60.0  34252  291.15 0854.63
2009/04/23 15:07:48.4       3   -191    165    192    253 179.0  45.1  34246  291.02 0854.63
2009/04/23 15:07:48.5     -78   -159    112    178    210 206.1  35.5  34222  290.62 0854.63
2009/04/23 15:07:48.6     -62   -232    171    241    295 195.1  39.1  34206  290.34 0854.63
2009/04/23 15:07:48.7     -59   -249    106    256    277 193.4  23.8  34192  290.12 0854.63
2009/04/23 15:07:48.8     -79   -194    154    210    260 202.3  39.7  34190  290.07 0854.63
2009/04/23 15:07:48.9     -46   -137    110    145    182 198.7  40.9  34196  290.18 0854.63
2009/04/23 15:07:49.0       0   -174    130    175    218 179.8  40.1  34190  290.08 0854.62
2009/04/23 15:07:49.1      -9   -147     61    148    160 183.6  23.6  34188  290.04 0854.62
2009/04/23 15:07:49.2       0   -114    109    115    158 180.0  48.7  34196  290.18 0854.62
2009/04/23 15:07:49.3     -19   -101     82    103    131 191.1  43.3  34200  290.26 0854.62
2009/04/23 15:07:49.4      -5    -72     95     73    119 184.5  58.5  34206  290.35 0854.62
2009/04/23 15:07:49.5     -12    -16    153     21    154 217.8  90.0  34208  290.38 0854.62
2009/04/23 15:07:49.6      17     17    121     25    123  45.0  89.0  34238  290.91 0854.62
2009/04/23 15:07:49.7     -28     57     74     64     97 333.7  54.3  34250  291.11 0854.62
2009/04/23 15:07:49.8      -7    -35     88     36     95 191.6  76.6  34232  290.79 0854.62
2009/04/23 15:07:49.9       9    -53    105     54    118 170.2  71.0  34228  290.72 0854.62
2009/04/23 15:07:50.0     -15    -75     65     77    100 191.6  44.3  34196  290.19 0854.62
2009/04/23 15:07:50.1     -39    -54     94     67    115 216.0  61.1  34214  290.48 0854.62
2009/04/23 15:07:50.2      22    -39     97     46    107 150.1  73.1  34234  290.82 0854.62
2009/04/23 15:07:50.3      -4    -53     66     54     85 184.5  56.4  34214  290.48 0854.62
2009/04/23 15:07:50.4    -151   -111     -8    188    189 233.6  -2.6  34226  290.70 0854.62
2009/04/23 15:07:50.5     -61   -131     22    145    147 204.9   9.0  34212  290.47 0854.62
2009/04/23 15:07:50.6     -57   -118     19    132    134 205.9   8.5  34200  290.25 0854.62
2009/04/23 15:07:50.7    -122    -57     51    135    144 244.8  21.0  34206  290.35 0854.62
2009/04/23 15:07:50.8    -128     -3     50    129    138 268.3  22.5  34216  290.52 0854.62
2009/04/23 15:07:50.9    -158     37     43    163    169 283.3  15.0  34228  290.72 0854.62
2009/04/23 15:07:51.0    -135     80     59    157    167 300.7  21.5  34268  291.40 0854.62
2009/04/23 15:07:51.1    -154     41     23    160    162 285.1   8.5  34268  291.42 0854.62
2009/04/23 15:07:51.2     -91     22    -26     94     98 283.7 -15.5  34266  291.38 0854.62
2009/04/23 15:07:51.3     -56     31      0     65     66 298.8  -0.3  34290  291.79 0854.62
2009/04/23 15:07:51.4     -15     19    -36     25     43 320.4 -65.9  34280  291.62 0854.62
2009/04/23 15:07:51.5     -22     -7    -70     24     74 251.4 -85.6  34290  291.77 0854.62
2009/04/23 15:07:51.6     -18    -20    -74     28     79 221.4 -83.0  34314  292.18 0854.62
2009/04/23 15:07:51.7      26     -3   -105     27    108  97.9 -89.8  34310  292.12 0854.62
2009/04/23 15:07:51.8      66      9   -149     67    163  82.1 -78.9  34296  291.88 0854.62
2009/04/23 15:07:51.9      66     59   -183     89    203  48.2 -76.5  34318  292.25 0854.62
2009/04/23 15:07:52.0     -51     54    -20     75     78 316.8 -15.5  34314  292.20 0854.62
2009/04/23 15:07:52.1     216     89    158    234    282  67.6  37.4  34306  292.06 0854.62
2009/04/23 15:07:52.2     265     76    133    276    306  74.0  27.3  34302  291.97 0854.62
2009/04/23 15:07:52.3     316    181     89    365    376  60.3  13.8  34332  292.48 0854.62
2009/04/23 15:07:52.4     259     65    195    268    331  75.9  39.7  34358  292.94 0854.62
2009/04/23 15:07:52.5     315    110    176    334    377  70.6  30.1  34354  292.87 0854.62
2009/04/23 15:07:52.6     290    144    191    324    376  63.6  33.3  34332  292.48 0854.62
2009/04/23 15:07:52.7     273    198    143    338    367  54.0  24.3  34304  292.02 0854.62
2009/04/23 15:07:52.8     227    149    110    272    293  56.7  23.1  34294  291.84 0854.62
2009/04/23 15:07:52.9     262     39    164    265    311  81.4  35.2  34336  292.57 0854.62
2009/04/23 15:07:53.0     196     93    170    218    276  64.6  41.7  34298  291.92 0854.58
2009/04/23 15:07:53.1     184    125    137    223    261  55.8  34.8  34262  291.29 0854.58
2009/04/23 15:07:53.2      99    104    120    144    187  43.7  43.8  34282  291.64 0854.58
2009/04/23 15:07:53.3     136     75    156    156    220  61.2  50.1  34274  291.50 0854.58
2009/04/23 15:07:53.4     135    175    135    222    259  37.6  34.2  34276  291.53 0854.58
2009/04/23 15:07:53.5     412    243    186    479    513  59.5  22.4  34196  290.17 0854.58
2009/04/23 15:07:53.6     383    145     -1    410    411  69.2  -0.3  34208  290.39 0854.58
2009/04/23 15:07:53.7     371    147    -15    400    401  68.3  -2.2  34202  290.30 0854.58
2009/04/23 15:07:53.8     354    181    -47    398    401  62.9  -6.9  34192  290.11 0854.58
2009/04/23 15:07:53.9     329     78    -31    339    341  76.6  -5.3  34262  291.30 0854.58
2009/04/23 15:07:54.0     268    -35     63    271    279  97.5  13.1  34260  291.27 0854.58
2009/04/23 15:07:54.1     258     25     63    260    268  84.3  13.7  34290  291.78 0854.58
2009/04/23 15:07:54.2     301     20     79    302    313  86.1  14.7  34292  291.82 0854.58
2009/04/23 15:07:54.3     362    -51    119    366    385  98.1  18.0  34302  291.97 0854.58
2009/04/23 15:07:54.4     369    -46    162    372    405  97.2  25.1  34356  292.90 0854.58
2009/04/23 15:07:54.5     309      0    152    310    345  90.1  27.9  34346  292.73 0854.58
2009/04/23 15:07:54.6     355    -90    136    367    391 104.3  21.1  34332  292.51 0854.58
2009/04/23 15:07:54.7     146   -139    -93    202    222 133.6 -30.8  34324  292.37 0854.58
2009/04/23 15:07:54.8     -62   -223   -108    232    255 195.6 -31.4  34252  291.14 0854.58
2009/04/23 15:07:54.9      26   -246    -81    248    260 173.8 -23.6  34244  290.99 0854.58
2009/04/23 15:07:55.0      -6   -279    -31    280    282 181.4  -6.5  34218  290.56 0854.61
2009/04/23 15:07:55.1       0   -268     27    269    271 179.9   5.9  34224  290.65 0854.61
2009/04/23 15:07:55.2       4   -284     42    285    289 179.1   8.5  34222  290.63 0854.61
2009/04/23 15:07:55.3      69   -177     43    191    196 158.6  12.9  34238  290.89 0854.61
2009/04/23 15:07:55.4     -20   -188    -30    190    193 186.2  -9.0  34226  290.70 0854.61
2009/04/23 15:07:55.5     -79   -106    -17    133    135 216.5  -7.3  34234  290.82 0854.61
2009/04/23 15:07:55.6     -88    -94     -2    130    131 223.2  -1.3  34232  290.79 0854.61
2009/04/23 15:07:55.7     -37    -70     73     80    108 208.1  47.5  34228  290.74 0854.61
2009/04/23 15:07:55.8     -16    -64     23     67     71 194.3  18.9  34234  290.82 0854.61
2009/04/23 15:07:55.9     -45    -88    -37    100    106 207.2 -24.8  34234  290.84 0854.61
2009/04/23 15:07:56.0     -15    -75    -62     77     98 191.6 -48.1  34236  290.86 0854.61
2009/04/23 15:07:56.1     -15    -32    -37     36     51 205.5 -54.5  34236  290.87 0854.61
2009/04/23 15:07:56.2      28    -85     18     90     92 161.5  11.6  34238  290.89 0854.61
2009/04/23 15:07:56.3     116    -72    134    137    191 122.0  49.4  34178  289.89 0854.61
2009/04/23 15:07:56.4      76   -147     15    166    167 152.4   5.4  34182  289.96 0854.61
2009/04/23 15:07:56.5      74   -104    -44    128    135 144.4 -23.3  34184  289.97 0854.61
2009/04/23 15:07:56.6      17   -139    129    141    191 172.9  47.5  34180  289.92 0854.61
2009/04/23 15:07:56.7     149   -149    160    211    264 135.0  40.9  34178  289.88 0854.61
2009/04/23 15:07:56.8      -6   -144    180    145    231 182.7  56.6  34184  289.99 0854.61
2009/04/23 15:07:56.9     -11    -97    120     98    154 186.7  56.4  34194  290.14 0854.61
2009/04/23 15:07:57.0      15      5     70     16     71  71.4  88.0  34206  290.36 0854.66
2009/04/23 15:07:57.1      26     46     32     54     62  29.9  33.5  34204  290.33 0854.66
2009/04/23 15:07:57.2     -50     14     65     53     83 285.9  56.4  34206  290.36 0854.66
2009/04/23 15:07:57.3     -37    -92    123    100    158 202.3  56.9  34188  290.04 0854.66
2009/04/23 15:07:57.4     -24   -207    167    209    267 186.9  42.8  34170  289.73 0854.66
2009/04/23 15:07:57.5    -152   -174    177    232    291 221.2  41.2  34188  290.03 0854.66
2009/04/23 15:07:57.6    -199   -281    143    345    373 215.3  23.7  34204  290.33 0854.66
2009/04/23 15:07:57.7    -149   -226    199    271    336 213.4  39.9  34182  289.95 0854.66
2009/04/23 15:07:57.8     -95   -354    282    367    462 195.0  41.6  34180  289.92 0854.66
2009/04/23 15:07:57.9    -184   -292    234    346    417 212.2  37.3  34202  290.28 0854.66
2009/04/23 15:07:58.0    -219   -331    122    397    416 213.5  17.2  34250  291.11 0854.66
2009/04/23 15:07:58.1    -158   -253    176    299    346 211.9  33.1  34198  290.21 0854.66
2009/04/23 15:07:58.2    -126   -343    127    366    388 200.2  19.2  34202  290.28 0854.66
2009/04/23 15:07:58.3    -101   -319    119    335    355 197.6  20.4  34206  290.35 0854.66
2009/04/23 15:07:58.4     -90   -289     54    303    308 197.4  10.1  34214  290.48 0854.66
2009/04/23 15:07:58.5      27   -249     96    251    268 173.8  22.0  34210  290.42 0854.66
2009/04/23 15:07:58.6     -68   -271    110    280    300 194.2  23.0  34210  290.42 0854.66
2009/04/23 15:07:58.7     -84   -293    110    305    325 196.0  19.9  34210  290.42 0854.66
2009/04/23 15:07:58.8    -161   -201     60    258    265 218.8  13.1  34238  290.90 0854.66
2009/04/23 15:07:58.9    -145   -272    119    309    331 208.1  22.3  34200  290.26 0854.66
2009/04/23 15:07:59.0     -33   -140    111    144    181 193.4  41.7  34204  290.33 0854.70
2009/04/23 15:07:59.1     -54   -135    134    146    198 201.8  47.7  34202  290.30 0854.70
2009/04/23 15:07:59.2     -99    -98    117    140    182 225.1  44.1  34212  290.47 0854.70
2009/04/23 15:07:59.3     -78    -98    111    126    167 218.7  45.8  34208  290.40 0854.70
2009/04/23 15:07:59.4     -43   -131    143    138    198 198.3  50.9  34216  290.53 0854.70
2009/04/23 15:07:59.5     -21    -20    127     30    130 226.9  87.0  34230  290.75 0854.70
2009/04/23 15:07:59.6     -12    -16    116     21    117 217.8  90.0  34236  290.87 0854.70
2009/04/23 15:07:59.7     117   -114    110    164    197 134.2  37.3  34216  290.52 0854.70
2009/04/23 15:07:59.8      35    -95    158    102    188 159.5  64.6  34230  290.75 0854.70
2009/04/23 15:07:59.9     -44   -189    216    195    291 193.1  53.3  34214  290.48 0854.70
2009/04/23 15:08:00.0     -14   -189    163    190    250 184.4  44.9  34214  290.50 0854.70
2009/04/23 15:08:00.1     -44   -216     26    221    223 191.6   6.9  34212  290.45 0854.70
2009/04/23 15:08:00.2     -36   -231     19    234    235 188.9   4.9  34204  290.31 0854.70
2009/04/23 15:08:00.3      10   -124     90    125    154 175.1  39.5  34204  290.31 0854.70
2009/04/23 15:08:00.4      12   -171    124    172    212 175.8  39.3  34210  290.43 0854.70
2009/04/23 15:08:00.5     -79   -151     -1    171    172 207.6  -0.5  34196  290.18 0854.70
2009/04/23 15:08:00.6      15   -108     89    110    141 172.0  43.7  34204  290.31 0854.70
2009/04/23 15:08:00.7      56    -84    120    102    157 146.2  55.0  34238  290.89 0854.70
2009/04/23 15:08:00.8      31    -62    105     70    126 153.7  63.6  34230  290.75 0854.70
2009/04/23 15:08:00.9      21     40    -10     46     48  28.1 -12.4  34220  290.60 0854.70
2009/04/23 15:08:01.0     101     67      3    122    123  56.3   1.8  34222  290.64 0854.74
2009/04/23 15:08:01.1      64     43    -23     78     81  55.8 -21.2  34226  290.70 0854.74
2009/04/23 15:08:01.2     164     95     26    190    192  59.8   8.0  34232  290.79 0854.74
2009/04/23 15:08:01.3      56     46    106     73    128  50.5  62.6  34240  290.94 0854.74
2009/04/23 15:08:01.4      -1    123    114    124    168 359.5  47.7  34230  290.77 0854.74
2009/04/23 15:08:01.5       5     17    106     18    107  18.3  90.0  34244  290.99 0854.74
2009/04/23 15:08:01.6     -16    -26     72     31     78 212.5  76.1  34250  291.11 0854.74
2009/04/23 15:08:01.7     -38    -36     62     53     81 226.9  54.8  34244  291.01 0854.74
2009/04/23 15:08:01.8     -49    -64     56     81     98 217.4  37.6  34246  291.03 0854.74
2009/04/23 15:08:01.9     -15    -43     51     46     68 200.0  52.2  34242  290.98 0854.74
2009/04/23 15:08:02.0     -48    -40     57     63     84 230.4  47.5  34244  290.99 0854.74
2009/04/23 15:08:02.1    -122    -14     15    123    124 263.0   7.1  34232  290.79 0854.74
2009/04/23 15:08:02.2    -141     -5     10    142    143 267.9   4.4  34210  290.41 0854.74
2009/04/23 15:08:02.3    -145     10     46    146    154 274.3  17.4  34202  290.30 0854.74
2009/04/23 15:08:02.4    -164     12     44    165    171 274.4  15.0  34202  290.28 0854.74
2009/04/23 15:08:02.5    -201    -90    124    221    253 245.8  31.9  34206  290.34 0854.74
2009/04/23 15:08:02.6    -141   -106     95    177    200 233.1  30.6  34210  290.43 0854.74
2009/04/23 15:08:02.7     -50   -167    162    175    238 196.7  47.9  34200  290.25 0854.74
2009/04/23 15:08:02.8    -104   -219    197    243    312 205.5  43.3  34192  290.10 0854.74
2009/04/23 15:08:02.9    -155   -369    144    401    426 202.8  20.4  34184  289.97 0854.74
2009/04/23 15:08:03.0    -159   -336    138    372    396 205.3  21.4  34178  289.87 0854.73
2009/04/23 15:08:03.1    -136   -230    132    268    298 210.5  28.2  34172  289.76 0854.73
2009/04/23 15:08:03.2     -40   -286    185    289    343 188.0  35.6  34174  289.81 0854.73
2009/04/23 15:08:03.3      -6   -343    192    344    393 181.2  31.6  34198  290.21 0854.73
2009/04/23 15:08:03.4    -160   -318    184    357    401 206.8  29.3  34212  290.47 0854.73
2009/04/23 15:08:03.5     -40   -260    218    264    342 188.9  43.7  34212  290.46 0854.73
2009/04/23 15:08:03.6     -66   -374    163    380    413 190.0  24.8  34196  290.17 0854.73
2009/04/23 15:08:03.7    -129   -287     95    315    329 204.2  16.8  34188  290.05 0854.73
2009/04/23 15:08:03.8     -10   -160     74    161    177 183.6  26.4  34202  290.28 0854.73
2009/04/23 15:08:03.9     157    -12    179    158    238  94.4  54.0  34222  290.64 0854.73
2009/04/23 15:08:04.0     192     -1    137    193    236  90.4  38.8  34226  290.70 0854.73
2009/04/23 15:08:04.1     119    -39    231    126    263 108.2  68.9  34204  290.31 0854.73
2009/04/23 15:08:04.2      29     18    140     35    144  57.6  85.9  34226  290.70 0854.73
2009/04/23 15:08:04.3     -73     73    151    104    183 315.0  62.4  34238  290.91 0854.73
2009/04/23 15:08:04.4      12     47    108     49    118  15.1  74.5  34234  290.84 0854.73
2009/04/23 15:08:04.5       4    -19    115     20    116 166.6  90.0  34230  290.75 0854.73
2009/04/23 15:08:04.6     -13    -64    119     66    136 191.6  68.8  34238  290.91 0854.73
2009/04/23 15:08:04.7    -222     44    145    227    269 281.2  35.6  34214  290.49 0854.73
2009/04/23 15:08:04.8    -191    -28     20    194    196 261.6   6.1  34216  290.52 0854.73
2009/04/23 15:08:04.9    -182   -116     52    217    224 237.5  13.5  34208  290.40 0854.73
2009/04/23 15:08:05.0    -214   -100     98    237    256 244.8  23.6  34216  290.51 0854.73
2009/04/23 15:08:05.1    -175   -187    100    257    275 223.2  22.5  34238  290.88 0854.73
2009/04/23 15:08:05.2    -174   -175     34    248    251 224.8   7.8  34234  290.83 0854.73
2009/04/23 15:08:05.3    -201   -148     12    250    251 233.6   2.9  34222  290.61 0854.73
2009/04/23 15:08:05.4     -94   -113     -8    148    149 219.6  -3.1  34210  290.41 0854.73
2009/04/23 15:08:05.5    -168     17     85    169    189 275.9  28.5  34216  290.53 0854.73
2009/04/23 15:08:05.6    -177   -139     48    226    232 231.8  12.1  34222  290.64 0854.73
2009/04/23 15:08:05.7    -254   -130     36    286    289 242.9   7.2  34218  290.54 0854.73
2009/04/23 15:08:05.8    -208   -147     75    255    266 234.7  16.4  34236  290.85 0854.73
2009/04/23 15:08:05.9       0    -98     94     99    136 180.5  49.0  34234  290.82 0854.73
2009/04/23 15:08:06.0      85     23    131     89    158  74.9  62.6  34226  290.70 0854.73
2009/04/23 15:08:06.1       8    -93    104     94    140 174.7  52.7  34210  290.41 0854.73
2009/04/23 15:08:06.2     -22   -109    142    112    180 191.5  57.7  34220  290.60 0854.73
2009/04/23 15:08:06.3    -156   -117    113    195    225 233.1  32.7  34234  290.82 0854.73
2009/04/23 15:08:06.4    -306    -57    -43    312    315 259.4  -7.9  34228  290.71 0854.73
2009/04/23 15:08:06.5    -342    -60   -104    348    364 260.0 -16.7  34220  290.60 0854.73
2009/04/23 15:08:06.6    -241   -241    215    341    403 225.0  35.5  34250  291.10 0854.73
2009/04/23 15:08:06.7    -343   -363    131    500    517 223.3  14.7  34242  290.95 0854.73
2009/04/23 15:08:06.8    -318   -353     77    476    483 222.0   9.2  34242  290.96 0854.73
2009/04/23 15:08:06.9    -393   -210     53    446    450 241.9   6.8  34260  291.26 0854.73
2009/04/23 15:08:07.0    -427   -253    212    497    540 239.4  24.6  34264  291.33 0854.73
2009/04/23 15:08:07.1    -397   -221    239    455    513 240.8  30.0  34258  291.25 0854.73
2009/04/23 15:08:07.2    -452   -268    146    526    547 239.3  15.6  34262  291.31 0854.73
2009/04/23 15:08:07.3    -391   -274    142    478    499 235.0  16.6  34266  291.37 0854.73
2009/04/23 15:08:07.4    -344   -281    133    445    465 230.7  16.6  34252  291.12 0854.73
2009/04/23 15:08:07.5    -288   -483    132    563    579 210.8  13.2  34224  290.66 0854.73
2009/04/23 15:08:07.7    -209   -331    228    392    453 212.2  32.9  34238  290.90 0854.73
2009/04/23 15:08:07.7    -181   -340    148    386    413 208.1  22.1  34248  291.06 0854.73
2009/04/23 15:08:07.9    -162   -423    159    454    481 201.0  20.0  34258  291.22 0854.73
2009/04/23 15:08:08.0    -111   -426    291    441    528 194.6  36.5  34280  291.61 0854.73
2009/04/23 15:08:08.1    -224   -371    221    434    487 211.1  29.1  34262  291.30 0854.73
2009/04/23 15:08:08.2    -256   -364    224    446    499 215.1  28.7  34272  291.47 0854.73
2009/04/23 15:08:08.3    -357   -399    283    536    606 221.8  30.2  34280  291.61 0854.73
2009/04/23 15:08:08.4    -218   -323    313    390    500 214.1  42.9  34234  290.83 0854.73
2009/04/23 15:08:08.5    -120   -239    332    268    426 206.7  57.0  34238  290.88 0854.73
2009/04/23 15:08:08.6    -242   -344    328    421    533 215.1  41.7  34234  290.83 0854.73
2009/04/23 15:08:08.7     -28   -239    353    241    427 186.9  62.6  34226  290.69 0854.73
2009/04/23 15:08:08.8      58    -54    297     80    307 133.1  84.9  34248  291.07 0854.73
2009/04/23 15:08:08.9     215     13    358    216    418  86.5  66.1  34232  290.81 0854.73
2009/04/23 15:08:09.0     170    -10    338    171    378  93.5  71.3  34228  290.71 0854.73
2009/04/23 15:08:09.1     319     98    479    334    583  72.9  61.8  34222  290.61 0854.73
2009/04/23 15:08:09.2     386    139    482    411    633  70.2  55.4  34208  290.39 0854.73
2009/04/23 15:08:09.3     354    165    375    391    541  65.0  48.7  34226  290.68 0854.73
2009/04/23 15:08:09.4     318     44    384    322    501  82.0  56.0  34254  291.16 0854.73
2009/04/23 15:08:09.5     486    194    197    524    559  68.2  21.5  34222  290.63 0854.73
2009/04/23 15:08:09.6     561    264    248    620    667  64.8  23.0  34198  290.23 0854.73
2009/04/23 15:08:09.7     530    291    338    605    693  61.2  31.5  34210  290.41 0854.73
2009/04/23 15:08:09.8     586    445    257    736    779  52.8  20.0  34204  290.31 0854.73
2009/04/23 15:08:09.9     262    398    280    477    553  33.4  33.1  34196  290.19 0854.73
2009/04/23 15:08:10.0     321    334    264    464    533  43.9  32.1  34202  290.30 0854.73
2009/04/23 15:08:10.1     419    225    -29    476    477  61.7  -3.5  34202  290.30 0854.64
2009/04/23 15:08:10.2     697    384     90    796    802  61.1   6.5  34208  290.37 0854.64
2009/04/23 15:08:10.3     617    340    114    705    715  61.2   9.2  34178  289.88 0854.64
2009/04/23 15:08:10.4     401    463    270    613    669  40.9  25.2  34190  290.09 0854.64
2009/04/23 15:08:10.5     537    533    308    757    817  45.2  23.4  34196  290.17 0854.64
2009/04/23 15:08:10.6     351    211    123    410    429  59.0  16.8  34210  290.41 0854.64
2009/04/23 15:08:10.7     577    225    106    620    629  68.7   9.7  34202  290.28 0854.64
2009/04/23 15:08:10.8     475    224    285    526    598  64.7  30.8  34196  290.19 0854.64
2009/04/23 15:08:10.9     597    193    218    628    665  72.1  19.2  34210  290.43 0854.64
2009/04/23 15:08:11.0     384    179    193    424    465  64.9  26.2  34206  290.34 0854.64
2009/04/23 15:08:11.1     397    -82    105    406    420 101.7  14.6  34226  290.70 0854.64
2009/04/23 15:08:11.2     467    -21    174    468    499  92.7  21.5  34224  290.66 0854.64
2009/04/23 15:08:11.3     281    -66    330    289    438 103.3  54.3  34248  291.06 0854.64
2009/04/23 15:08:11.4     481     31    310    483    573  86.2  35.6  34244  290.99 0854.64
2009/04/23 15:08:11.5     434     68    201    440    483  81.0  26.2  34234  290.83 0854.64
2009/04/23 15:08:11.6     315    103    216    332    396  71.9  36.3  34222  290.62 0854.64
2009/04/23 15:08:11.7     331    172    146    374    401  62.5  22.5  34202  290.30 0854.64
2009/04/23 15:08:11.8     239      2     33    240    243  89.4   8.0  34204  290.31 0854.64
2009/04/23 15:08:11.9     417    238     71    481    487  60.3   8.5  34216  290.52 0854.64
2009/04/23 15:08:12.0     565    220     18    607    608  68.7   1.8  34216  290.51 0854.64
2009/04/23 15:08:12.1     333    225    139    403    427  55.9  19.1  34198  290.22 0854.55
2009/04/23 15:08:12.2     235    182    172    298    344  52.3  32.7  34218  290.55 0854.55
2009/04/23 15:08:12.3      83    169    178    189    259  26.1  48.0  34228  290.73 0854.55
2009/04/23 15:08:12.4     196    183    212    269    342  46.9  42.3  34212  290.46 0854.55
2009/04/23 15:08:12.5     207    171    184    269    325  50.4  37.7  34178  289.88 0854.55
2009/04/23 15:08:12.6     239    188    166    305    347  51.8  30.9  34186  290.01 0854.55
2009/04/23 15:08:12.7     376    139    199    401    447  69.7  28.2  34200  290.26 0854.55
2009/04/23 15:08:12.8     301    191    337    357    490  57.5  48.0  34206  290.34 0854.55
2009/04/23 15:08:12.9     164    233    255    286    383  35.2  46.3  34214  290.49 0854.55
2009/04/23 15:08:13.0     264    356    195    444    484  36.5  25.2  34198  290.20 0854.55
2009/04/23 15:08:13.1     138    400    289    424    513  19.1  37.6  34188  290.06 0854.55
2009/04/23 15:08:13.2     208    293    139    360    385  35.4  22.3  34204  290.32 0854.55
2009/04/23 15:08:13.3     323     56    115    328    348  80.1  19.4  34218  290.54 0854.55
2009/04/23 15:08:13.4     328    107    228    346    414  71.9  36.5  34208  290.38 0854.55
2009/04/23 15:08:13.5     363     76    221    371    431  78.1  33.5  34216  290.51 0854.55
2009/04/23 15:08:13.6     306     42    280    309    416  82.1  47.0  34220  290.60 0854.55
2009/04/23 15:08:13.7     259    162    315    306    439  58.0  50.9  34238  290.89 0854.55
2009/04/23 15:08:13.8     433    139    428    455    624  72.2  48.2  34236  290.87 0854.55
2009/04/23 15:08:13.9     378    117    470    396    614  72.7  55.8  34250  291.09 0854.55
2009/04/23 15:08:14.0     335    106    362    352    504  72.4  50.8  34230  290.75 0854.55
2009/04/23 15:08:14.1     151     58    250    162    297  68.9  64.4  34242  290.95 0854.49
2009/04/23 15:08:14.2       1     49    214     50    219   1.8  87.0  34240  290.92 0854.49
2009/04/23 15:08:14.3     149    241    281    284    399  31.7  49.9  34222  290.64 0854.49
2009/04/23 15:08:14.4     341    102    320    357    479  73.3  46.4  34226  290.70 0854.49
2009/04/23 15:08:14.5     294    -85    341    307    458 106.2  53.5  34230  290.75 0854.49
2009/04/23 15:08:14.6     218    120    338    250    420  61.1  60.0  34224  290.67 0854.49
2009/04/23 15:08:14.7     371    120    193    390    435  72.1  28.2  34210  290.43 0854.49
2009/04/23 15:08:14.8     479    197    118    519    533  67.6  12.9  34208  290.38 0854.49
2009/04/23 15:08:14.9     362    211    197    420    463  59.7  27.1  34218  290.56 0854.49
2009/04/23 15:08:15.0     432    238    192    494    530  61.2  22.4  34228  290.71 0854.49
2009/04/23 15:08:15.1     551    239     53    601    604  66.5   5.1  34220  290.59 0854.49
2009/04/23 15:08:15.2     601    315    164    679    699  62.3  13.6  34202  290.27 0854.49
2009/04/23 15:08:15.3     550    308    205    631    664  60.7  18.0  34212  290.47 0854.49
2009/04/23 15:08:15.4     337    256    219    424    477  52.8  29.4  34224  290.65 0854.49
2009/04/23 15:08:15.5     380    262     53    462    466  55.4   6.6  34220  290.58 0854.49
2009/04/23 15:08:15.6     412     91     28    423    424  77.5   3.9  34258  291.23 0854.49
2009/04/23 15:08:15.7     465     71    128    471    489  81.3  15.3  34232  290.79 0854.49
2009/04/23 15:08:15.8     419    133    120    440    457  72.3  15.3  34224  290.65 0854.49
2009/04/23 15:08:15.9     383     51    220    387    445  82.3  32.3  34198  290.22 0854.49
2009/04/23 15:08:16.0     411     11      5    412    413  88.4   0.8  34226  290.70 0854.48
2009/04/23 15:08:16.1     369    -58    -14    374    375  99.0  -2.2  34218  290.57 0854.48
2009/04/23 15:08:16.2     368    -38     42    371    374  96.0   6.6  34234  290.83 0854.48
2009/04/23 15:08:16.3     417    -32     49    419    422  94.4   6.7  34230  290.75 0854.48
2009/04/23 15:08:16.4     418     15     46    419    422  87.9   6.4  34224  290.65 0854.48
2009/04/23 15:08:16.5     487     45    216    490    535  84.7  25.2  34234  290.84 0854.48
2009/04/23 15:08:16.6     328    -11    254    329    415  92.0  41.5  34232  290.79 0854.48
2009/04/23 15:08:16.7     255    -83    176    269    321 108.2  36.3  34216  290.53 0854.48
2009/04/23 15:08:16.8     411   -111    327    426    537 105.2  41.5  34220  290.59 0854.48
2009/04/23 15:08:16.9     236    -47    334    241    411 101.4  60.6  34242  290.96 0854.48
2009/04/23 15:08:17.0      49    -60    343     78    351 140.3  87.5  34242  290.95 0854.48
2009/04/23 15:08:17.1       0   -198    199    199    281 180.0  50.1  34234  290.83 0854.48
2009/04/23 15:08:17.2      64   -415    273    420    500 171.2  36.0  34240  290.93 0854.48
2009/04/23 15:08:17.3     -49   -367    338    371    501 187.7  47.0  34270  291.45 0854.48
2009/04/23 15:08:17.4     -96   -386    275    398    483 194.0  38.0  34252  291.14 0854.48
2009/04/23 15:08:17.5     -13   -347    369    348    507 182.3  52.0  34240  290.94 0854.48
2009/04/23 15:08:17.6     -87   -441    361    450    576 191.2  42.9  34258  291.25 0854.48
2009/04/23 15:08:17.7     -39   -318    364    321    485 187.1  54.2  34246  291.02 0854.48
2009/04/23 15:08:17.8     -44   -284    243    288    376 188.9  44.3  34268  291.39 0854.48
2009/04/23 15:08:17.9     -12   -154    293    155    331 184.5  69.8  34244  290.99 0854.48
2009/04/23 15:08:18.0     -35   -232    334    235    408 188.7  61.7  34236  290.86 0854.42
2009/04/23 15:08:18.1     -95   -261    355    278    450 200.1  58.2  34234  290.84 0854.42
2009/04/23 15:08:18.2    -106   -249    284    271    392 203.2  51.5  34240  290.94 0854.42
2009/04/23 15:08:18.3     -73   -241    289    252    383 196.9  54.6  34234  290.84 0854.42
2009/04/23 15:08:18.4     -23   -235    339    237    413 185.8  61.7  34238  290.89 0854.42
2009/04/23 15:08:18.5     -57   -200    322    209    383 196.0  64.3  34242  290.96 0854.42
2009/04/23 15:08:18.6      13   -157    186    158    244 175.1  55.4  34224  290.65 0854.42
2009/04/23 15:08:18.7     208      6    132    209    247  88.1  35.5  34246  291.04 0854.42
2009/04/23 15:08:18.8     112    -26    276    116    299 103.3  76.1  34242  290.97 0854.42
2009/04/23 15:08:18.9     -99   -135    242    168    294 216.3  61.7  34218  290.56 0854.42
2009/04/23 15:08:19.0    -128   -250    361    282    458 207.2  58.3  34204  290.33 0854.42
2009/04/23 15:08:19.1    -214   -250    369    330    495 220.6  53.7  34218  290.56 0854.42
2009/04/23 15:08:19.2    -347   -167    272    386    472 244.2  38.6  34240  290.94 0854.42
2009/04/23 15:08:19.3    -271    -98    150    289    325 250.0  29.5  34260  291.27 0854.42
2009/04/23 15:08:19.4    -155   -220    238    270    359 215.2  45.9  34232  290.81 0854.42
2009/04/23 15:08:19.5    -399    -68    102    405    418 260.3  14.2  34254  291.18 0854.42
2009/04/23 15:08:19.6    -329    -92    121    342    362 254.3  20.1  34254  291.18 0854.42
2009/04/23 15:08:19.7    -267     13     96    268    284 272.8  20.7  34288  291.73 0854.42
2009/04/23 15:08:19.8    -154    -56     89    164    186 250.0  30.8  34224  290.67 0854.42
2009/04/23 15:08:19.9     -25   -188     77    190    205 187.8  23.1  34226  290.70 0854.42
2009/04/23 15:08:20.0    -151   -162     84    222    237 223.0  22.0  34212  290.44 0854.41
2009/04/23 15:08:20.1    -172   -244    120    299    322 215.2  22.9  34208  290.39 0854.41
2009/04/23 15:08:20.2    -164   -267    156    314    350 211.7  28.4  34208  290.38 0854.41
2009/04/23 15:08:20.3    -216   -193     45    290    294 228.2   9.0  34220  290.58 0854.41
2009/04/23 15:08:20.4    -223   -250     67    336    343 221.8  11.3  34216  290.52 0854.41
2009/04/23 15:08:20.5    -169   -261    123    312    335 213.0  22.8  34228  290.71 0854.41
2009/04/23 15:08:20.6    -169   -259     46    310    314 213.2   8.5  34204  290.32 0854.41
2009/04/23 15:08:20.7    -125   -163     68    206    218 217.6  18.4  34220  290.60 0854.41
2009/04/23 15:08:20.8     -25   -147    147    150    210 189.8  49.9  34232  290.79 0854.41
2009/04/23 15:08:20.9     -97   -157    144    185    234 211.9  41.7  34228  290.72 0854.41
2009/04/23 15:08:21.0    -126   -140    124    189    226 221.9  36.0  34222  290.62 0854.41
2009/04/23 15:08:21.1     -96   -138    176    169    244 215.0  51.2  34228  290.72 0854.41
2009/04/23 15:08:21.2       1    -82    120     83    145 179.1  62.6  34294  291.86 0854.41
2009/04/23 15:08:21.3     136    -49    163    145    218 110.0  53.7  34318  292.25 0854.41
2009/04/23 15:08:21.4      -8     12    114     15    114 327.5  90.0  34324  292.35 0854.41
2009/04/23 15:08:21.5      14    -18    111     24    113 142.2  89.0  34334  292.54 0854.41
2009/04/23 15:08:21.6     -13   -158    212    159    265 184.9  59.4  34342  292.65 0854.41
2009/04/23 15:08:21.7     -21   -151    147    153    212 188.0  49.2  34334  292.54 0854.41
2009/04/23 15:08:21.8     -46   -127    135    136    191 200.0  50.2  34286  291.72 0854.41
2009/04/23 15:08:21.9       0   -137    151    138    204 180.4  52.5  34336  292.56 0854.41
2009/04/23 15:08:22.0      29    -47    220     56    227 148.4  85.6  34328  292.44 0854.44
2009/04/23 15:08:22.1     -41    -46    142     62    154 221.4  75.0  34324  292.37 0854.44
2009/04/23 15:08:22.2     -38    -12    112     40    118 251.8  79.7  34320  292.30 0854.44
2009/04/23 15:08:22.3      71     19    117     74    138  74.9  64.7  34340  292.64 0854.44
2009/04/23 15:08:22.4      92      1    130     93    159  89.2  61.1  34352  292.83 0854.44
2009/04/23 15:08:22.5     -11    -39    100     41    108 196.9  77.1  34356  292.92 0854.44
2009/04/23 15:08:22.6      60   -136    141    149    205 155.9  48.2  34316  292.23 0854.44
2009/04/23 15:08:22.7     145    -78    193    165    253 118.4  55.4  34358  292.95 0854.44
2009/04/23 15:08:22.8      49    -27    148     56    158 118.9  78.4  34380  293.33 0854.44
2009/04/23 15:08:22.9      34     17    173     39    177  62.9  87.7  34380  293.31 0854.44
2009/04/23 15:08:23.0     -16    -47    239     50    244 198.7  89.0  34342  292.66 0854.44
2009/04/23 15:08:23.1      -1   -133    246    134    280 180.5  69.1  34280  291.61 0854.44
2009/04/23 15:08:23.2      47    -56    227     74    238 140.4  81.6  34274  291.50 0854.44
2009/04/23 15:08:23.3     144     86    255    168    305  59.1  63.6  34312  292.16 0854.44
2009/04/23 15:08:23.4     266     -5    279    267    386  91.3  51.5  34308  292.10 0854.44
2009/04/23 15:08:23.5     154   -259    184    302    353 149.2  34.2  34240  290.94 0854.44
2009/04/23 15:08:23.6     211   -224    250    309    397 136.7  43.0  34212  290.47 0854.44
2009/04/23 15:08:23.7     129   -272    244    302    388 154.6  43.4  34212  290.47 0854.44
2009/04/23 15:08:23.8      94   -356    246    369    443 165.2  36.7  34216  290.51 0854.44
2009/04/23 15:08:23.9       4   -334    246    335    415 179.3  39.8  34210  290.42 0854.44
2009/04/23 15:08:24.0      28   -295    216    297    367 174.6  39.7  34234  290.84 0854.47
2009/04/23 15:08:24.1      36   -349    227    351    418 174.0  35.7  34222  290.62 0854.47
2009/04/23 15:08:24.2      73   -313    231    322    396 166.7  39.2  34218  290.57 0854.47
2009/04/23 15:08:24.3     150   -166     76    224    237 137.9  18.9  34226  290.68 0854.47
2009/04/23 15:08:24.4     202   -146     41    250    254 126.0   9.3  34236  290.87 0854.47
2009/04/23 15:08:24.5      98    -48    111    110    156 116.2  50.1  34240  290.92 0854.47
2009/04/23 15:08:24.6       0   -177    123    178    216 180.2  38.0  34232  290.81 0854.47
2009/04/23 15:08:24.7     194   -206    122    284    309 136.8  25.1  34232  290.80 0854.47
2009/04/23 15:08:24.8     166   -198     17    259    260 140.1   3.8  34234  290.82 0854.47
2009/04/23 15:08:24.9     285   -234     94    369    381 129.4  14.3  34208  290.40 0854.47
2009/04/23 15:08:25.0      25   -147    176    150    231 170.3  55.4  34216  290.52 0854.47
2009/04/23 15:08:25.1     -23    -70     24     74     78 198.7  17.9  34218  290.57 0854.47
2009/04/23 15:08:25.2     126    -12      0    127    128  95.7  -0.3  34206  290.36 0854.47
2009/04/23 15:08:25.3     242    -18     42    243    247  94.4  10.0  34232  290.78 0854.47
2009/04/23 15:08:25.4     319     83    143    330    359  75.4  25.0  34278  291.59 0854.47
2009/04/23 15:08:25.5     207     87    163    225    277  67.2  39.7  34296  291.89 0854.47
2009/04/23 15:08:25.6     137     65    133    152    201  64.6  45.8  34288  291.76 0854.47
2009/04/23 15:08:25.7     121    -12    169    122    208  95.7  60.6  34212  290.47 0854.47
2009/04/23 15:08:25.8      -3    -30    135     31    138 186.2  87.0  34216  290.52 0854.47
2009/04/23 15:08:25.9     117    -23    195    120    228 101.4  65.4  34208  290.38 0854.47
2009/04/23 15:08:26.0     200    -21    131    202    240  96.1  36.0  34208  290.38 0854.53
2009/04/23 15:08:26.1     174    -83    121    193    227 115.5  35.5  34204  290.31 0854.53
2009/04/23 15:08:26.2     132   -118    161    178    240 131.8  46.9  34204  290.31 0854.53
2009/04/23 15:08:26.3      90    -74    158    117    196 129.5  59.8  34204  290.31 0854.53
2009/04/23 15:08:26.4      32      2    117     33    121  85.6  83.9  34196  290.18 0854.53
2009/04/23 15:08:26.5      99     14     89    101    134  81.6  45.8  34194  290.16 0854.53
2009/04/23 15:08:26.6     -33     40     95     53    108 320.4  68.8  34206  290.36 0854.53
2009/04/23 15:08:26.7     -24     55    106     61    122 336.4  67.7  34192  290.11 0854.53
2009/04/23 15:08:26.8     184    137     49    230    236  53.4  12.0  34190  290.09 0854.53
2009/04/23 15:08:26.9     195     57     72    204    217  73.6  19.4  34190  290.08 0854.53
2009/04/23 15:08:27.0     119      9    109    120    162  85.6  47.1  34200  290.26 0854.53
2009/04/23 15:08:27.1     -30    -18     76     36     84 239.3  72.9  34216  290.52 0854.53
2009/04/23 15:08:27.2      53    -25    114     59    128 115.3  71.0  34208  290.40 0854.53
2009/04/23 15:08:27.3      87   -152    165    176    241 150.4  48.0  34206  290.35 0854.53
2009/04/23 15:08:27.4      44    -52    103     69    123 139.5  63.2  34214  290.48 0854.53
2009/04/23 15:08:27.5      24   -225    196    227    299 173.8  45.4  34172  289.76 0854.53
2009/04/23 15:08:27.6     162   -265    207    311    373 148.6  36.9  34184  289.98 0854.53
2009/04/23 15:08:27.7     105   -239    214    262    338 156.2  43.5  34184  289.98 0854.53
2009/04/23 15:08:27.8     147   -208    200    255    324 144.8  42.2  34194  290.14 0854.53
2009/04/23 15:08:27.9     138    -99    124    170    210 125.7  39.7  34206  290.35 0854.53
2009/04/23 15:08:28.0     234    -92    104    252    272 111.5  23.6  34196  290.19 0854.56
2009/04/23 15:08:28.1     169   -117     18    206    207 124.9   5.2  34196  290.18 0854.56
2009/04/23 15:08:28.2      91   -151     66    177    188 148.8  21.3  34190  290.09 0854.56
2009/04/23 15:08:28.3      38   -157     92    162    186 166.2  31.9  34192  290.11 0854.56
2009/04/23 15:08:28.4      57   -150    110    161    194 159.1  37.3  34188  290.06 0854.56
2009/04/23 15:08:28.5      24   -194     87    196    214 172.7  25.3  34186  290.01 0854.56
2009/04/23 15:08:28.6     -44   -202    120    207    239 192.5  32.7  34184  289.97 0854.56
2009/04/23 15:08:28.7     -22   -246    106    248    269 185.3  24.6  34182  289.95 0854.56
2009/04/23 15:08:28.8      18   -206    171    207    268 174.9  43.7  34186  290.00 0854.56
2009/04/23 15:08:28.9      74    -35    112     82    138 115.3  60.5  34184  289.97 0854.56
2009/04/23 15:08:29.0    -169   -120     86    208    225 234.7  23.8  34184  289.97 0854.55
2009/04/23 15:08:29.1    -153   -193    107    247    269 218.5  25.1  34182  289.95 0854.55
2009/04/23 15:08:29.2    -145   -243     12    284    285 210.8   2.5  34182  289.93 0854.55
2009/04/23 15:08:29.3    -110   -314     76    333    342 199.3  12.9  34184  289.98 0854.55
2009/04/23 15:08:29.4    -114   -344      2    363    364 198.3   0.4  34196  290.18 0854.55
2009/04/23 15:08:29.5    -155   -304    -51    342    346 207.1  -8.6  34198  290.23 0854.55
2009/04/23 15:08:29.6     -85   -271   -100    285    303 197.4 -19.4  34204  290.32 0854.55
2009/04/23 15:08:29.7     -48   -288      5    293    294 189.6   1.0  34208  290.37 0854.55
2009/04/23 15:08:29.8      96   -312     61    327    333 162.8  10.7  34190  290.08 0854.55
2009/04/23 15:08:29.9     218   -394     60    451    455 151.0   7.6  34180  289.92 0854.55
2009/04/23 15:08:30.0     128   -453     78    471    478 164.2   9.4  34176  289.83 0854.55
2009/04/23 15:08:30.1     236   -426    138    488    508 151.0  15.8  34176  289.84 0854.55
2009/04/23 15:08:30.2     285   -452    -11    535    536 147.8  -1.3  34168  289.72 0854.55
2009/04/23 15:08:30.3     150   -252     25    294    296 149.3   5.0  34180  289.90 0854.55
2009/04/23 15:08:30.4       7   -252     36    253    256 178.2   8.2  34174  289.81 0854.55
2009/04/23 15:08:30.5     -63   -148     57    162    171 203.2  20.0  34180  289.91 0854.55
2009/04/23 15:08:30.6     -64   -166    101    179    205 201.2  31.9  34182  289.96 0854.55
2009/04/23 15:08:30.7     -77   -173    113    190    221 204.1  33.5  34210  290.43 0854.55
2009/04/23 15:08:30.8      16   -208    149    209    256 175.5  39.1  34230  290.75 0854.55
2009/04/23 15:08:30.9      28   -222    157    224    273 172.7  38.5  34224  290.66 0854.55
2009/04/23 15:08:31.0      24    -62    120     67    137 158.2  68.8  34248  291.08 0854.57
2009/04/23 15:08:31.1      35   -129    110    134    173 164.4  43.7  34220  290.60 0854.57
2009/04/23 15:08:31.2      35      0     42     36     55  90.0  55.4  34246  291.03 0854.57
2009/04/23 15:08:31.3      -1     33     49     34     59 357.4  61.5  34242  290.96 0854.57
2009/04/23 15:08:31.4     -22    -10      0     25     26 244.7  -1.3  34238  290.89 0854.57
2009/04/23 15:08:31.5     -82      6    -41     83     92 274.8 -32.2  34228  290.74 0854.57
2009/04/23 15:08:31.6     -76    -24     12     80     82 252.3   9.0  34212  290.45 0854.57
2009/04/23 15:08:31.7    -106    -15    -30    108    113 261.6 -15.4  34214  290.48 0854.57
2009/04/23 15:08:31.8    -124     21    -20    126    128 279.7  -9.3  34212  290.45 0854.57
2009/04/23 15:08:31.9    -157     71    -29    173    176 294.4  -9.8  34202  290.28 0854.57
2009/04/23 15:08:32.0    -129     42    -27    136    139 288.2 -11.3  34208  290.40 0854.57
2009/04/23 15:08:32.1    -145     11    -81    146    166 274.4 -35.8  34208  290.38 0854.57
2009/04/23 15:08:32.2    -108      3      5    109    110 271.7   2.9  34212  290.45 0854.57
2009/04/23 15:08:32.4    -144     57     18    155    157 291.7   6.7  34212  290.45 0854.57
2009/04/23 15:08:32.4    -108     88     42    140    147 309.1  16.8  34220  290.58 0854.57
2009/04/23 15:08:32.5     -93     81     27    124    128 311.3  12.6  34214  290.48 0854.57
2009/04/23 15:08:32.6    -115    -26     -4    118    119 257.2  -2.2  34212  290.45 0854.57
2009/04/23 15:08:32.7    -159     27     49    162    170 279.7  17.1  34204  290.31 0854.57
2009/04/23 15:08:32.8    -365     65    -47    371    375 280.1  -7.3  34224  290.66 0854.57
2009/04/23 15:08:32.9    -414    -72     -8    421    422 260.1  -1.2  34230  290.77 0854.57
2009/04/23 15:08:33.0    -504    -38    -28    506    507 265.7  -3.2  34216  290.51 0854.58
2009/04/23 15:08:33.1    -381     64    142    387    412 279.6  21.0  34228  290.72 0854.58
2009/04/23 15:08:33.2    -428     32     20    430    431 274.3   2.8  34226  290.70 0854.58
2009/04/23 15:08:33.3    -366     25    -42    367    370 274.0  -6.6  34228  290.74 0854.58
2009/04/23 15:08:33.4    -375     30    -21    377    378 274.7  -3.3  34224  290.67 0854.58
2009/04/23 15:08:33.6    -359     72     23    367    368 281.4   3.6  34218  290.55 0854.58
2009/04/23 15:08:33.6    -454     89      5    463    464 281.1   0.7  34232  290.80 0854.58
2009/04/23 15:08:33.7    -371    148     25    400    401 291.9   3.6  34240  290.93 0854.58
2009/04/23 15:08:33.8    -316     90    173    329    371 285.9  30.0  34258  291.22 0854.58
2009/04/23 15:08:33.9    -231    147    177    274    326 302.5  35.9  34246  291.04 0854.58
2009/04/23 15:08:34.0    -102     20    179    105    207 281.5  66.8  34258  291.23 0854.58
2009/04/23 15:08:34.1     -50   -123    100    134    167 202.3  40.9  34236  290.86 0854.58
2009/04/23 15:08:34.2     -63   -144     52    158    167 203.8  18.4  34232  290.79 0854.58
2009/04/23 15:08:34.3     -68   -217    194    228    299 197.4  44.8  34270  291.43 0854.58
2009/04/23 15:08:34.4    -266   -169     55    316    321 237.6   9.9  34232  290.78 0854.58
2009/04/23 15:08:34.5    -373   -237     11    443    444 237.5   1.5  34208  290.38 0854.58
2009/04/23 15:08:34.6    -174   -313    -46    359    362 209.0  -7.4  34240  290.94 0854.58
2009/04/23 15:08:34.7    -300   -117     -7    323    324 248.7  -1.4  34190  290.07 0854.58
2009/04/23 15:08:34.9    -494   -133    -69    512    517 254.9  -7.7  34170  289.74 0854.58
2009/04/23 15:08:34.9    -536   -100    -98    546    555 259.4 -10.3  34174  289.80 0854.58
2009/04/23 15:08:35.0    -498    -98    -64    508    513 258.8  -7.2  34174  289.81 0854.56
2009/04/23 15:08:35.1    -552   -108    -50    563    566 258.9  -5.1  34170  289.74 0854.56
2009/04/23 15:08:35.3    -542   -100    -74    552    557 259.5  -7.7  34170  289.74 0854.56
2009/04/23 15:08:35.4    -479   -160    -83    506    513 251.5  -9.3  34194  290.15 0854.56
2009/04/23 15:08:35.5    -493   -204   -126    534    549 247.5 -13.3  34188  290.06 0854.56
2009/04/23 15:08:35.6    -602   -112    -58    613    616 259.4  -5.5  34168  289.72 0854.56
2009/04/23 15:08:35.7    -479   -274    -65    552    556 240.2  -6.8  34222  290.63 0854.56
2009/04/23 15:08:35.8    -497   -209   -186    540    572 247.2 -19.1  34174  289.80 0854.56
2009/04/23 15:08:35.9    -434   -309   -112    534    546 234.5 -11.9  34220  290.58 0854.56
2009/04/23 15:08:36.0    -250   -299     85    390    400 219.9  12.3  34248  291.06 0854.56
2009/04/23 15:08:36.1    -265   -179    199    321    377 235.9  34.9  34242  290.96 0854.56
2009/04/23 15:08:36.2    -199   -240    193    312    366 219.7  34.8  34258  291.25 0854.56
2009/04/23 15:08:36.3    -226   -311    234    385    450 216.1  34.2  34276  291.53 0854.56
2009/04/23 15:08:36.4    -149   -200    235    250    343 216.7  48.0  34274  291.50 0854.56
2009/04/23 15:08:36.5    -213   -236    138    319    347 222.1  24.9  34264  291.35 0854.56
2009/04/23 15:08:36.6    -200   -307    126    367    389 213.2  18.9  34240  290.94 0854.56
2009/04/23 15:08:36.7    -199   -297     63    358    364 213.9  10.1  34232  290.79 0854.56
2009/04/23 15:08:36.8    -210   -327    197    389    436 212.7  29.2  34234  290.82 0854.56
2009/04/23 15:08:36.9    -229   -315     39    390    393 216.1   5.8  34228  290.72 0854.56
2009/04/23 15:08:37.0    -200   -278    -31    343    345 215.7  -5.3  34230  290.76 0854.56
2009/04/23 15:08:37.1    -156   -266    -39    309    312 210.5  -7.3  34222  290.61 0854.56
2009/04/23 15:08:37.2    -160   -210    184    265    322 217.4  38.0  34224  290.65 0854.56
2009/04/23 15:08:37.3     -89   -245    118    261    286 200.0  26.2  34220  290.58 0854.56
2009/04/23 15:08:37.4    -226   -310      6    384    385 216.1   0.9  34218  290.55 0854.56
2009/04/23 15:08:37.5    -205   -298    -42    362    365 214.5  -6.7  34204  290.33 0854.56
2009/04/23 15:08:37.6     -67   -441     96    447    458 188.7  12.2  34206  290.34 0854.56
2009/04/23 15:08:37.7      40   -508     64    510    515 175.4   7.2  34208  290.40 0854.56
2009/04/23 15:08:37.8      94   -498     71    507    513 169.3   8.0  34212  290.44 0854.56
2009/04/23 15:08:37.9      63   -450     75    455    462 172.0   9.4  34206  290.34 0854.56
2009/04/23 15:08:38.0      76   -403    146    411    436 169.3  20.3  34208  290.38 0854.56
2009/04/23 15:08:38.1     172   -404     18    440    441 157.0   2.4  34228  290.73 0854.56
2009/04/23 15:08:38.2     176   -313    -24    360    361 150.6  -3.9  34222  290.62 0854.56
2009/04/23 15:08:38.3     138   -345     -4    372    373 158.1  -0.7  34202  290.27 0854.56
2009/04/23 15:08:38.4     137   -295     10    326    327 155.1   1.9  34196  290.19 0854.56
2009/04/23 15:08:38.5     123   -260     70    288    297 154.7  13.7  34198  290.22 0854.56
2009/04/23 15:08:38.6     179   -212     49    278    283 139.9  10.1  34218  290.54 0854.56
2009/04/23 15:08:38.7     175   -211     86    275    289 140.3  17.4  34202  290.27 0854.56
2009/04/23 15:08:38.8     211   -171     59    272    279 129.1  12.4  34220  290.59 0854.56
2009/04/23 15:08:38.9     201   -147    124    250    279 126.2  28.2  34214  290.49 0854.56
2009/04/23 15:08:39.0     292   -157    132    332    357 118.4  22.9  34200  290.25 0854.56
2009/04/23 15:08:39.1     -12   -321    247    322    405 182.3  41.4  34218  290.54 0854.54
2009/04/23 15:08:39.2      12   -321    217    322    388 177.8  37.2  34218  290.55 0854.54
2009/04/23 15:08:39.3    -108   -270    148    291    326 201.9  29.1  34238  290.88 0854.54
2009/04/23 15:08:39.4    -102   -156    101    187    212 213.2  31.0  34224  290.65 0854.54
2009/04/23 15:08:39.5      37   -130    -37    136    142 164.0 -15.5  34190  290.09 0854.54
2009/04/23 15:08:39.6     -30   -189    -66    192    203 189.1 -23.8  34150  289.40 0854.54
2009/04/23 15:08:39.7     -69   -210      6    222    223 198.3   1.8  34184  289.99 0854.54
2009/04/23 15:08:39.8    -105   -113     31    155    159 222.8  11.4  34204  290.31 0854.54
2009/04/23 15:08:39.9    -196     23     69    198    210 276.8  19.2  34206  290.35 0854.54
2009/04/23 15:08:40.0    -214    -54     -4    221    222 255.6  -1.2  34190  290.08 0854.54
2009/04/23 15:08:40.1    -172   -133    -23    218    220 232.2  -6.2  34138  289.19 0854.54
2009/04/23 15:08:40.2    -256    -79    -95    269    286 252.7 -19.6  34100  288.54 0854.54
2009/04/23 15:08:40.3    -283    -41    -81    287    299 261.6 -15.8  34112  288.76 0854.54
2009/04/23 15:08:40.4    -274    -41    -76    278    289 261.4 -15.4  34120  288.90 0854.54
2009/04/23 15:08:40.5    -305    -32    -88    307    319 263.9 -20.9  34122  288.93 0854.54
2009/04/23 15:08:40.6    -320   -123    -85    343    354 248.9 -13.9  34134  289.13 0854.54
2009/04/23 15:08:40.7    -316   -160    -74    355    363 243.1 -11.8  34140  289.23 0854.54
2009/04/23 15:08:40.8    -347   -167   -116    386    404 244.3 -16.8  34140  289.23 0854.54
2009/04/23 15:08:40.9    -337   -207    -55    396    400 238.5  -8.0  34142  289.25 0854.54
2009/04/23 15:08:41.0    -339   -198    -72    393    400 239.7 -10.5  34144  289.30 0854.54
2009/04/23 15:08:41.1    -333   -117   -115    354    373 250.6 -18.1  34150  289.40 0854.54
2009/04/23 15:08:41.2    -309    -67   -119    317    338 257.6 -26.0  34142  289.28 0854.54
2009/04/23 15:08:41.3    -233    -35   -130    236    269 261.4 -35.8  34138  289.19 0854.54
2009/04/23 15:08:41.4    -303   -137   -172    333    374 245.6 -33.7  34138  289.20 0854.54
2009/04/23 15:08:41.5    -189    -69   -147    202    249 249.8 -44.1  34132  289.10 0854.54
2009/04/23 15:08:41.6    -161     -8    -57    162    171 267.0 -24.4  34152  289.43 0854.54
2009/04/23 15:08:41.7    -104     -3    -29    105    110 267.9 -15.5  34166  289.67 0854.54
2009/04/23 15:08:41.8     -75      0    -38     76     84 270.0 -33.1  34180  289.91 0854.54
2009/04/23 15:08:41.9    -102      4    -88    103    135 272.6 -49.2  34192  290.13 0854.54
2009/04/23 15:08:42.0    -177      5   -149    178    232 271.9 -48.2  34168  289.70 0854.54
2009/04/23 15:08:42.1    -289    -21   -172    290    337 265.7 -37.9  34144  289.29 0854.54
2009/04/23 15:08:42.2    -246     61   -117    254    279 284.1 -30.8  34180  289.90 0854.54
2009/04/23 15:08:42.3    -222    100   -113    244    268 294.4 -31.4  34180  289.90 0854.54
2009/04/23 15:08:42.4    -283    238    -56    371    376 310.1  -8.6  34188  290.06 0854.54
2009/04/23 15:08:42.5    -213    262   -118    338    359 320.9 -19.3  34218  290.55 0854.54
2009/04/23 15:08:42.6    -127    241    -38    273    276 332.1  -8.0  34188  290.03 0854.54
2009/04/23 15:08:42.7    -108    200    105    228    251 331.7  26.4  34176  289.83 0854.54
2009/04/23 15:08:42.8     -74    163     51    180    188 335.5  15.8  34192  290.13 0854.54
2009/04/23 15:08:42.9    -135     89    -19    163    165 303.5  -6.9  34198  290.21 0854.54
2009/04/23 15:08:43.0    -204    121    -25    238    240 300.7  -6.1  34210  290.42 0854.54
2009/04/23 15:08:43.1    -183    233    -27    297    299 321.9  -5.2  34228  290.71 0854.54
2009/04/23 15:08:43.2    -205    225    -84    305    317 317.7 -15.4  34222  290.61 0854.54
2009/04/23 15:08:43.3    -270    316   -114    416    432 319.5 -15.4  34220  290.60 0854.54
2009/04/23 15:08:43.4    -262    214   -131    339    363 309.2 -26.7  34220  290.59 0854.54
2009/04/23 15:08:43.5    -183    177   -119    255    281 314.0 -31.4  34206  290.36 0854.54
2009/04/23 15:08:43.6    -219    144   -140    263    297 303.3 -34.7  34210  290.41 0854.54
2009/04/23 15:08:43.7    -223    216    -99    311    326 314.0 -22.9  34204  290.31 0854.54
2009/04/23 15:08:43.8    -335    213    -45    398    401 302.5  -6.6  34212  290.47 0854.54
2009/04/23 15:08:43.9    -373    190   -109    419    433 297.1 -14.6  34218  290.56 0854.54
2009/04/23 15:08:44.0    -406   -167    -68    440    446 247.6  -8.9  34234  290.84 0854.54
2009/04/23 15:08:44.1    -354   -242    -73    429    436 235.6  -9.7  34240  290.94 0854.54
2009/04/23 15:08:44.2    -182   -283    -36    337    340 212.8  -6.2  34218  290.54 0854.54
2009/04/23 15:08:44.3    -196   -208    -52    286    291 223.3 -10.5  34242  290.95 0854.54
2009/04/23 15:08:44.4    -195   -180    -58    266    273 227.3 -12.4  34240  290.93 0854.54
2009/04/23 15:08:44.5    -127   -223    -29    257    259 209.6  -6.5  34222  290.63 0854.54
2009/04/23 15:08:44.6    -132   -214    -43    252    256 211.7  -9.8  34212  290.46 0854.54
2009/04/23 15:08:44.7    -161   -232    -11    283    284 214.7  -2.2  34220  290.59 0854.54
2009/04/23 15:08:44.8    -187   -258    -12    319    320 216.0  -2.3  34214  290.48 0854.54
2009/04/23 15:08:44.9     -99   -293     62    310    317 198.7  11.4  34218  290.56 0854.54
2009/04/23 15:08:45.0     -68   -345    -18    352    353 191.2  -3.0  34214  290.49 0854.57
2009/04/23 15:08:45.1    -202   -473    -88    515    523 203.2  -9.8  34144  289.29 0854.57
2009/04/23 15:08:45.2    -328   -418   -122    532    546 218.1 -13.0  34136  289.16 0854.57
2009/04/23 15:08:45.3    -296   -360   -111    467    481 219.4 -13.4  34162  289.59 0854.57
2009/04/23 15:08:45.4    -340   -282      5    443    444 230.3   0.7  34178  289.88 0854.57
2009/04/23 15:08:45.5    -395   -307    -35    501    503 232.2  -4.0  34192  290.10 0854.57
2009/04/23 15:08:45.6    -194   -140    123    240    269 234.0  29.2  34188  290.03 0854.57
2009/04/23 15:08:45.7     -43    -41    123     60    136 226.9  72.8  34186  290.02 0854.57
2009/04/23 15:08:45.8     182     22    168    184    249  83.0  47.0  34180  289.91 0854.57
2009/04/23 15:08:45.9      21     10    166     24    167  64.7  90.0  34198  290.23 0854.57
2009/04/23 15:08:46.0     -31      0     96     32    101 270.0  81.0  34198  290.23 0854.57
2009/04/23 15:08:46.1     -95   -126     46    159    166 217.0  16.3  34162  289.60 0854.57
2009/04/23 15:08:46.2    -215   -168    148    273    310 232.0  31.3  34148  289.36 0854.57
2009/04/23 15:08:46.3    -129    -67    -42    146    151 242.5 -21.2  34150  289.40 0854.57
2009/04/23 15:08:46.4     -38     10    111     40    117 285.1  79.2  34166  289.67 0854.57
2009/04/23 15:08:46.5     -31    -13     23     34     41 246.5  37.6  34162  289.62 0854.57
2009/04/23 15:08:46.6      47     25     19     54     58  62.0  19.4  34162  289.60 0854.57
2009/04/23 15:08:46.7      86     43     68     97    118  63.4  38.6  34162  289.60 0854.57
2009/04/23 15:08:46.8     120     76     30    143    147  57.6  12.2  34156  289.50 0854.57
2009/04/23 15:08:46.9      81     32    -77     88    116  68.3 -50.2  34164  289.63 0854.57
2009/04/23 15:08:47.0      59   -113    -65    128    143 152.4 -33.6  34168  289.72 0854.59
2009/04/23 15:08:47.1      83    -70    -29    109    113 130.4 -15.0  34172  289.79 0854.59
2009/04/23 15:08:47.2     160     12    -17    161    162  85.7  -6.2  34174  289.80 0854.59
2009/04/23 15:08:47.3     116      9    -35    117    123  85.2 -16.6  34176  289.85 0854.59
2009/04/23 15:08:47.4     179     66    -60    192    202  69.6 -17.3  34178  289.87 0854.59
2009/04/23 15:08:47.5      77     77     39    109    115  45.0  20.0  34172  289.77 0854.59
2009/04/23 15:08:47.6     181    -51    101    189    214 105.9  30.8  34170  289.74 0854.59
2009/04/23 15:08:47.7     121     -3     82    122    146  91.7  37.0  34172  289.79 0854.59
2009/04/23 15:08:47.8     126    -38    101    132    166 106.9  41.2  34172  289.77 0854.59
2009/04/23 15:08:47.9     136    -54    139    147    202 111.8  48.5  34182  289.96 0854.59
2009/04/23 15:08:48.0     105    -42    141    114    181 111.7  56.9  34180  289.91 0854.59
2009/04/23 15:08:48.1     -71    -19    142     74    160 255.0  70.4  34202  290.30 0854.59
2009/04/23 15:08:48.2       3    -31     98     32    103 173.8  80.7  34192  290.11 0854.59
2009/04/23 15:08:48.3      -3    -44    135     45    142 184.5  81.0  34190  290.08 0854.59
2009/04/23 15:08:48.4     -10   -140    209    141    252 184.5  63.2  34180  289.92 0854.59
2009/04/23 15:08:48.5     -47   -202    236    208    314 193.3  54.2  34182  289.93 0854.59
2009/04/23 15:08:48.6    -116   -291    159    314    351 201.9  29.1  34178  289.86 0854.59
2009/04/23 15:08:48.7    -119   -279    107    304    322 203.2  20.0  34172  289.76 0854.59
2009/04/23 15:08:48.8     -42   -250    139    254    289 189.6  31.3  34172  289.78 0854.59
2009/04/23 15:08:48.9     -58   -211     60    219    228 195.4  15.3  34172  289.77 0854.59
2009/04/23 15:08:49.0      -9   -328     66    329    336 181.7  11.5  34170  289.74 0854.60
2009/04/23 15:08:49.1     -34   -405     -3    407    408 184.9  -0.5  34164  289.63 0854.60
2009/04/23 15:08:49.2     -75   -377     19    385    386 191.4   2.9  34168  289.71 0854.60
2009/04/23 15:08:49.3    -133   -398    -66    420    426 198.6  -9.0  34170  289.73 0854.60
2009/04/23 15:08:49.4     -63   -341    -40    347    350 190.5  -6.6  34162  289.59 0854.60
2009/04/23 15:08:49.5     -85   -193     13    212    213 203.8   3.6  34160  289.57 0854.60
2009/04/23 15:08:49.6    -149   -180    105    235    257 219.6  25.7  34164  289.64 0854.60
2009/04/23 15:08:49.7    -198     21    -44    200    205 276.1 -12.6  34188  290.06 0854.60
2009/04/23 15:08:49.8    -223    -59    -73    231    243 255.0 -17.5  34194  290.15 0854.60
2009/04/23 15:08:49.9       0   -110    -64    111    128 180.4 -37.3  34186  290.01 0854.60
2009/04/23 15:08:50.0      39   -192    -85    197    214 168.4 -29.5  34174  289.82 0854.58
2009/04/23 15:08:50.1      61   -140    -85    153    175 156.4 -36.0  34176  289.85 0854.58
2009/04/23 15:08:50.2      -4   -276    -78    277    288 181.0 -15.8  34174  289.80 0854.58
2009/04/23 15:08:50.3     -75   -371    -57    379    384 191.5  -8.6  34162  289.60 0854.58
2009/04/23 15:08:50.4    -160   -350    -16    386    387 204.6  -2.5  34162  289.60 0854.58
2009/04/23 15:08:50.5     -81   -336    156    346    379 193.6  25.9  34160  289.57 0854.58
2009/04/23 15:08:50.6     192   -203    255    280    378 136.7  47.3  34162  289.59 0854.58
2009/04/23 15:08:50.7     339   -282    258    442    511 129.8  32.9  34166  289.66 0854.58
2009/04/23 15:08:50.8     345   -306     72    462    468 131.6   8.9  34162  289.59 0854.58
2009/04/23 15:08:50.9     277   -202     52    344    348 126.1   8.7  34162  289.60 0854.58
2009/04/23 15:08:51.0     239   -298    -77    382    390 141.3 -11.5  34168  289.71 0854.58
2009/04/23 15:08:51.1      47   -333    -18    337    338 171.9  -3.1  34158  289.54 0854.58
2009/04/23 15:08:51.2     147   -308      4    342    343 154.5   0.7  34162  289.59 0854.58
2009/04/23 15:08:51.3     153   -266     24    308    310 150.1   4.6  34160  289.56 0854.58
2009/04/23 15:08:51.4      86   -184     49    204    210 154.8  13.5  34158  289.53 0854.58
2009/04/23 15:08:51.5     142   -252     14    290    291 150.6   2.8  34160  289.58 0854.58
2009/04/23 15:08:51.6      24   -161    161    163    229 171.3  50.0  34162  289.60 0854.58
2009/04/23 15:08:51.7     106   -131    122    169    208 141.0  39.5  34168  289.72 0854.58
2009/04/23 15:08:51.8      15   -182    111    183    214 175.1  34.4  34160  289.58 0854.58
2009/04/23 15:08:51.9     -74   -274    149    284    320 195.2  30.0  34156  289.51 0854.58
2009/04/23 15:08:52.0    -226   -160      7    277    278 234.7   1.6  34142  289.25 0854.57
2009/04/23 15:08:52.1    -113   -182    123    215    247 211.9  32.4  34158  289.54 0854.57
2009/04/23 15:08:52.2     -16   -147    152    148    212 186.2  50.4  34164  289.63 0854.57
2009/04/23 15:08:52.3      11     35     48     37     60  18.7  58.5  34178  289.89 0854.57
2009/04/23 15:08:52.4     -31      0     14     32     34 269.2  27.1  34178  289.89 0854.57
2009/04/23 15:08:52.5     -22   -187     66    189    201 186.7  19.2  34162  289.60 0854.57
2009/04/23 15:08:52.6    -138   -277     39    310    313 206.5   7.2  34154  289.47 0854.57
2009/04/23 15:08:52.7    -124   -313     85    337    348 201.7  14.3  34162  289.60 0854.57
2009/04/23 15:08:52.8    -131   -213   -118    251    277 211.6 -31.5  34160  289.56 0854.57
2009/04/23 15:08:52.9    -236   -195   -258    307    401 230.5 -48.7  34132  289.11 0854.57
2009/04/23 15:08:53.0    -216   -297    -46    368    371 216.1  -7.2  34156  289.50 0854.57
2009/04/23 15:08:53.1    -142   -356     19    384    385 201.8   2.9  34162  289.62 0854.57
2009/04/23 15:08:53.2    -130   -303    114    330    350 203.2  19.1  34170  289.74 0854.57
2009/04/23 15:08:53.3    -114   -321    125    341    363 199.6  21.0  34174  289.82 0854.57
2009/04/23 15:08:53.4     -84   -220    119    236    264 200.9  28.5  34174  289.80 0854.57
2009/04/23 15:08:53.5     -57   -169     88    179    199 198.7  28.0  34172  289.77 0854.57
2009/04/23 15:08:53.6     162   -276    158    321    357 149.5  28.1  34172  289.77 0854.57
2009/04/23 15:08:53.7     101   -222    161    245    293 155.5  36.5  34152  289.44 0854.57
2009/04/23 15:08:53.8      91   -203     37    223    227 155.9   9.5  34162  289.60 0854.57
2009/04/23 15:08:53.9     235   -302   -114    383    399 142.2 -21.5  34170  289.74 0854.57
2009/04/23 15:08:54.0     242   -265    -50    360    364 137.6  -8.0  34152  289.42 0854.57
2009/04/23 15:08:54.1     199   -189    -29    275    277 133.6  -6.1  34152  289.44 0854.57
2009/04/23 15:08:54.2      85   -135    -49    160    168 147.7 -17.3  34164  289.63 0854.57
2009/04/23 15:08:54.3     119   -141     -4    185    186 139.9  -1.3  34164  289.65 0854.57
2009/04/23 15:08:54.4     156   -100    110    186    216 122.9  33.5  34160  289.58 0854.57
2009/04/23 15:08:54.5     225   -160    139    277    309 125.5  28.5  34156  289.49 0854.57
2009/04/23 15:08:54.6     247   -272     22    368    369 137.8   3.5  34156  289.50 0854.57
2009/04/23 15:08:54.7     347   -273    158    442    469 128.2  20.4  34144  289.31 0854.57
2009/04/23 15:08:54.8     315   -512     -2    602    603 148.4  -0.3  34162  289.59 0854.57
2009/04/23 15:08:54.9     178   -446     19    481    482 158.2   2.3  34162  289.59 0854.57
2009/04/23 15:08:55.0     266   -485   -106    554    565 151.3 -10.8  34142  289.28 0854.57
2009/04/23 15:08:55.1     170   -356    -22    395    396 154.5  -3.3  34152  289.45 0854.57
2009/04/23 15:08:55.2     219   -436    -31    489    490 153.3  -3.7  34150  289.40 0854.57
2009/04/23 15:08:55.3     245   -423     27    490    491 149.9   3.2  34150  289.40 0854.57
2009/04/23 15:08:55.4     206   -430    -29    477    478 154.4  -3.5  34136  289.18 0854.57
2009/04/23 15:08:55.5     261   -383    -26    464    465 145.7  -3.3  34128  289.03 0854.57
2009/04/23 15:08:55.6     311   -366    -15    481    482 139.6  -1.8  34124  288.96 0854.57
2009/04/23 15:08:55.7     198   -204    -74    285    295 135.9 -14.7  34132  289.10 0854.57
2009/04/23 15:08:55.8      33    -15     38     37     53 115.2  49.1  34148  289.36 0854.57
2009/04/23 15:08:55.9     -46   -181     47    187    193 194.5  14.3  34148  289.36 0854.57
2009/04/23 15:08:56.0     -55   -233     72    240    251 193.3  16.8  34152  289.42 0854.56
2009/04/23 15:08:56.1     -14   -205    176    206    270 184.0  44.8  34164  289.63 0854.56
2009/04/23 15:08:56.2       0   -144    141    145    202 180.4  49.4  34160  289.57 0854.56
2009/04/23 15:08:56.3       0    -57    145     58    156 180.9  77.1  34162  289.62 0854.56
2009/04/23 15:08:56.4     -92   -138    186    167    249 213.8  53.5  34152  289.45 0854.56
2009/04/23 15:08:56.5    -173    -61    100    184    209 250.5  31.0  34148  289.36 0854.56
2009/04/23 15:08:56.6    -314   -156     61    351    357 243.6   9.9  34148  289.37 0854.56
2009/04/23 15:08:56.7    -464    -86    -28    472    473 259.4  -3.5  34160  289.57 0854.56
2009/04/23 15:08:56.8    -298    -60    -16    304    305 258.6  -3.1  34160  289.58 0854.56
2009/04/23 15:08:56.9    -130   -199    190    238    304 213.2  42.8  34148  289.36 0854.56
2009/04/23 15:08:57.0    -185   -285    197    340    392 213.0  32.6  34138  289.20 0854.56
2009/04/23 15:08:57.1    -153   -353    139    385    410 203.5  19.9  34128  289.04 0854.56
2009/04/23 15:08:57.2    -105   -231     54    254    260 204.5  12.2  34138  289.19 0854.56
2009/04/23 15:08:57.3    -120   -128    206    176    270 223.2  55.4  34156  289.51 0854.56
2009/04/23 15:08:57.4    -278     47     70    283    292 279.7  13.9  34154  289.46 0854.56
2009/04/23 15:08:57.5    -178      0     97    179    203 269.9  31.0  34170  289.74 0854.56
2009/04/23 15:08:57.6     -60    -60   -121     86    148 225.1 -65.5  34156  289.52 0854.56
2009/04/23 15:08:57.7       2    -71   -102     72    124 178.2 -65.9  34152  289.43 0854.56
2009/04/23 15:08:57.8      68   -203    -35    215    218 161.3  -9.3  34148  289.38 0854.56
2009/04/23 15:08:57.9     193   -228     26    299    301 139.7   5.0  34130  289.07 0854.56
2009/04/23 15:08:58.0      75   -340   -119    349    370 167.5 -18.9  34136  289.15 0854.55
2009/04/23 15:08:58.1     -78   -291   -121    302    325 195.1 -27.4  34138  289.20 0854.55
2009/04/23 15:08:58.2      43   -253   -220    257    338 170.3 -49.4  34144  289.31 0854.55
2009/04/23 15:08:58.3    -131    -61   -182    145    232 244.8 -61.9  34154  289.46 0854.55
2009/04/23 15:08:58.4    -176   -124   -108    216    241 234.7 -32.9  34148  289.37 0854.55
2009/04/23 15:08:58.5    -157   -264    -28    308    310 210.8  -5.2  34140  289.24 0854.55
2009/04/23 15:08:58.6    -151   -345    -17    377    378 203.7  -2.6  34136  289.18 0854.55
2009/04/23 15:08:58.7     -77   -544     18    550    551 188.1   1.9  34126  289.01 0854.55
2009/04/23 15:08:58.8    -120   -451     39    467    469 194.9   4.9  34132  289.10 0854.55
2009/04/23 15:08:58.9    -437   -604   -163    746    764 215.9 -12.4  34122  288.92 0854.55
2009/04/23 15:08:59.0    -601   -706    -74    928    932 220.4  -4.6  34130  289.08 0854.55
2009/04/23 15:08:59.1    -425   -452    142    621    638 223.2  12.9  34130  289.08 0854.55
2009/04/23 15:08:59.2    -574   -341    -26    668    669 239.3  -2.2  34136  289.16 0854.55
2009/04/23 15:08:59.3    -376   -287    101    474    485 232.6  12.1  34130  289.08 0854.55
2009/04/23 15:08:59.4    -339   -498   -166    603    626 214.3 -15.4  34136  289.16 0854.55
2009/04/23 15:08:59.5    -333   -507    129    607    621 213.3  12.0  34106  288.67 0854.55
2009/04/23 15:08:59.6    -531   -513     28    739    740 226.0   2.2  34138  289.19 0854.55
2009/04/23 15:08:59.7    -474   -475    -45    672    674 224.9  -3.9  34132  289.10 0854.55
2009/04/23 15:08:59.8    -180   -583    144    611    628 197.2  13.3  34146  289.35 0854.55
2009/04/23 15:08:59.9    -165   -541    165    566    590 197.0  16.3  34154  289.47 0854.55
2009/04/23 15:09:00.0    -392   -640    -35    751    752 211.5  -2.7  34148  289.36 0854.56
2009/04/23 15:09:00.1    -472   -610   -243    772    810 217.8 -17.5  34144  289.30 0854.56
2009/04/23 15:09:00.2    -514   -572   -142    770    784 221.9 -10.5  34146  289.32 0854.56
2009/04/23 15:09:00.3    -545   -549   -190    774    797 224.8 -13.8  34142  289.27 0854.56
2009/04/23 15:09:00.4    -878   -382   -153    958    971 246.5  -9.1  34138  289.19 0854.56
2009/04/23 15:09:00.5    -584   -485    -96    760    767 230.3  -7.2  34140  289.23 0854.56
2009/04/23 15:09:00.6    -539   -343   -118    640    651 237.5 -10.5  34150  289.40 0854.56
2009/04/23 15:09:00.7    -623   -842   -232   1048   1074 216.5 -12.5  34136  289.17 0854.56
2009/04/23 15:09:00.8    -444   -687   -245    819    856 212.9 -16.7  34138  289.21 0854.56
2009/04/23 15:09:00.9    -239   -739   -142    777    790 197.9 -10.4  34132  289.10 0854.56
2009/04/23 15:09:01.0    -111   -653   -109    663    673 189.7  -9.4  34134  289.14 0854.56
2009/04/23 15:09:01.1     -64   -571    -61    575    579 186.5  -6.1  34128  289.02 0854.56
2009/04/23 15:09:01.2    -463   -303    -41    554    556 236.8  -4.2  34154  289.48 0854.56
2009/04/23 15:09:01.3    -446   -323   -160    551    573 234.0 -20.9  34140  289.23 0854.56
2009/04/23 15:09:01.4    -571   -222   -185    613    640 248.7 -21.7  34134  289.13 0854.56
2009/04/23 15:09:01.5    -677   -209   -197    709    735 252.8 -20.1  34134  289.13 0854.56
2009/04/23 15:09:01.6    -630   -268   -279    685    739 246.9 -27.9  34130  289.08 0854.56
2009/04/23 15:09:01.7    -626   -230   -276    668    722 249.8 -28.2  34142  289.25 0854.56
2009/04/23 15:09:01.8    -585   -236   -173    631    654 248.0 -20.0  34144  289.30 0854.56
2009/04/23 15:09:01.9    -466   -189   -267    503    569 247.9 -34.6  34142  289.26 0854.56
2009/04/23 15:09:02.0    -393   -282   -321    484    580 234.3 -40.9  34146  289.33 0854.54
2009/04/23 15:09:02.1    -319   -235   -205    397    446 233.6 -33.7  34156  289.51 0854.54
2009/04/23 15:09:02.2    -345   -130   -115    369    387 249.3 -17.3  34150  289.40 0854.54
2009/04/23 15:09:02.3    -471     66   -148    476    498 278.0 -22.3  34172  289.79 0854.54
2009/04/23 15:09:02.4    -455     -7   -193    456    495 269.1 -28.6  34162  289.61 0854.54
2009/04/23 15:09:02.5    -546     -3   -173    547    573 269.7 -22.8  34176  289.85 0854.54
2009/04/23 15:09:02.6    -393     65   -124    399    417 279.5 -22.4  34210  290.41 0854.54
2009/04/23 15:09:02.7    -448    122   -170    465    495 285.3 -25.4  34160  289.56 0854.54
2009/04/23 15:09:02.8    -392     91   -141    403    428 283.2 -19.3  34174  289.80 0854.54
2009/04/23 15:09:02.9    -489    101   -180    500    531 281.7 -25.1  34186  290.01 0854.54
2009/04/23 15:09:03.1    -294     97   -200    310    368 288.4 -40.0  34184  289.98 0854.54
2009/04/23 15:09:03.2    -325    115   -132    345    369 289.5 -26.2  34172  289.76 0854.54
2009/04/23 15:09:03.3    -526      4   -271    527    592 270.5 -33.7  34162  289.61 0854.54
2009/04/23 15:09:03.4    -518    -43   -325    520    613 265.2 -39.4  34164  289.64 0854.54
2009/04/23 15:09:03.5    -867    257   -284    905    949 286.5 -17.4  34170  289.74 0854.54
2009/04/23 15:09:03.6    -637    367     47    736    738 299.9   3.7  34180  289.90 0854.54
2009/04/23 15:09:03.7    -381    212     45    437    440 299.1   6.0  34166  289.68 0854.54
2009/04/23 15:09:03.8    -399    346    113    529    542 310.9  12.1  34180  289.92 0854.54
2009/04/23 15:09:03.9    -450    292    194    537    572 303.0  19.9  34170  289.75 0854.54
2009/04/23 15:09:04.0    -469    264    226    539    584 299.4  24.1  34182  289.93 0854.54
2009/04/23 15:09:04.1    -473    110    190    486    521 283.2  22.5  34162  289.59 0854.56
2009/04/23 15:09:04.2    -581    167    129    605    619 286.0  12.1  34168  289.72 0854.56
2009/04/23 15:09:04.3    -874   -145   -177    887    905 260.6 -11.3  34140  289.23 0854.56
2009/04/23 15:09:04.4    -904     45     37    906    907 272.9   2.4  34170  289.75 0854.56
2009/04/23 15:09:04.5   -1035   -149    108   1046   1052 261.8   5.9  34166  289.66 0854.56
2009/04/23 15:09:04.6   -1085   -185    -79   1101   1104 260.3  -4.1  34192  290.11 0854.56
2009/04/23 15:09:04.7    -945   -113    -44    952    954 263.1  -2.7  34168  289.71 0854.56
2009/04/23 15:09:04.8    -610   -184    123    638    650 253.2  11.0  34178  289.87 0854.56
2009/04/23 15:09:04.9    -457   -146    130    480    498 252.2  15.2  34172  289.79 0854.56
2009/04/23 15:09:05.0    -664    -66    238    668    709 264.3  20.4  34178  289.87 0854.56
2009/04/23 15:09:05.1    -520   -137    143    538    557 255.2  14.9  34180  289.90 0854.56
2009/04/23 15:09:05.2    -500   -353     52    613    616 234.8   4.9  34186  290.01 0854.56
2009/04/23 15:09:05.3    -480   -421      1    639    640 228.7   0.1  34164  289.65 0854.56
2009/04/23 15:09:05.4    -469   -319    -89    568    576 235.7  -8.9  34156  289.49 0854.56
2009/04/23 15:09:05.5    -602   -358    -79    701    706 239.3  -6.5  34188  290.03 0854.56
2009/04/23 15:09:05.6    -552   -345   -152    651    669 238.0 -13.2  34164  289.65 0854.56
2009/04/23 15:09:05.7    -528   -457   -247    699    742 229.1 -19.5  34182  289.96 0854.56
2009/04/23 15:09:05.8    -597   -497   -192    778    802 230.2 -13.9  34180  289.90 0854.56
2009/04/23 15:09:05.9    -474   -638    -83    796    801 216.6  -6.0  34140  289.24 0854.56
2009/04/23 15:09:06.0    -481   -495     77    691    696 224.2   6.4  34172  289.77 0854.56
2009/04/23 15:09:06.1    -642   -337   -201    726    754 242.3 -15.5  34194  290.14 0854.58
2009/04/23 15:09:06.2    -531   -384   -158    656    675 234.1 -13.6  34202  290.27 0854.58
2009/04/23 15:09:06.3    -563   -319   -110    648    658 240.5  -9.7  34184  289.98 0854.58
2009/04/23 15:09:06.4    -584   -158   -270    606    663 254.9 -30.0  34156  289.50 0854.58
2009/04/23 15:09:06.5    -506   -240   -150    561    581 244.6 -15.1  34184  289.97 0854.58
2009/04/23 15:09:06.6    -536   -394    -96    666    674 233.7  -8.3  34174  289.82 0854.58
2009/04/23 15:09:06.7    -475   -597     10    763    764 218.5   0.8  34168  289.72 0854.58
2009/04/23 15:09:06.8    -290   -453    -38    539    541 212.6  -4.1  34186  290.02 0854.58
2009/04/23 15:09:06.9    -233   -353    -33    424    426 213.4  -4.5  34162  289.61 0854.58
2009/04/23 15:09:07.0    -323   -360     87    484    492 221.9  10.2  34182  289.93 0854.58
2009/04/23 15:09:07.1    -520   -155     51    543    546 253.4   5.4  34196  290.19 0854.58
2009/04/23 15:09:07.2    -341    -92     97    354    368 254.8  15.4  34202  290.30 0854.58
2009/04/23 15:09:07.3    -236   -115      5    263    264 244.0   1.2  34192  290.10 0854.58
2009/04/23 15:09:07.4     -66   -340    222    347    411 191.0  35.6  34158  289.55 0854.58
2009/04/23 15:09:07.5    -152   -285    139    324    352 208.1  24.8  34164  289.65 0854.58
2009/04/23 15:09:07.6    -158   -217     87    269    283 216.1  17.9  34164  289.64 0854.58
2009/04/23 15:09:07.7    -173   -143     28    225    227 230.4   7.1  34174  289.80 0854.58
2009/04/23 15:09:07.8     -76    -96    102    123    159 218.3  44.1  34166  289.69 0854.58
2009/04/23 15:09:07.9    -231     -2    101    232    253 269.4  25.1  34172  289.78 0854.58
2009/04/23 15:09:08.0    -237    -62   -136    246    281 255.2 -35.8  34168  289.70 0854.58
2009/04/23 15:09:08.1    -385   -265   -179    468    501 235.4 -26.4  34154  289.47 0854.55
2009/04/23 15:09:08.2    -395   -210    -73    448    455 242.0  -9.3  34142  289.26 0854.55
2009/04/23 15:09:08.3    -510     12   -134    511    529 271.4 -14.7  34126  289.01 0854.55
2009/04/23 15:09:08.4    -550     24   -187    551    581 272.5 -23.8  34124  288.95 0854.55
2009/04/23 15:09:08.5    -509     13   -161    510    534 271.5 -22.5  34134  289.14 0854.55
2009/04/23 15:09:08.6    -442     20   -163    443    472 272.6 -25.5  34128  289.02 0854.55
2009/04/23 15:09:08.7    -401     30   -131    403    423 274.3 -23.3  34136  289.16 0854.55
2009/04/23 15:09:08.8    -264    -37   -110    267    288 262.0 -28.0  34136  289.17 0854.55
2009/04/23 15:09:08.9    -202   -120   -121    236    265 239.3 -33.6  34146  289.34 0854.55
2009/04/23 15:09:09.0    -222    -60    -70    231    241 254.9 -21.8  34144  289.29 0854.55
2009/04/23 15:09:09.1    -463     87   -189    472    508 280.7 -27.4  34142  289.27 0854.55
2009/04/23 15:09:09.2    -548     77   -279    554    620 278.0 -33.1  34136  289.15 0854.55
2009/04/23 15:09:09.3    -556     83   -252    563    616 278.5 -30.2  34160  289.56 0854.55
2009/04/23 15:09:09.4    -480   -126    -99    497    507 255.2 -11.3  34172  289.76 0854.55
2009/04/23 15:09:09.5    -344   -220   -138    409    431 237.4 -23.6  34170  289.75 0854.55
2009/04/23 15:09:09.6    -338   -245   -164    418    449 234.0 -27.1  34166  289.68 0854.55
2009/04/23 15:09:09.7    -415   -249   -121    485    500 239.0 -14.1  34168  289.71 0854.55
2009/04/23 15:09:09.8    -420   -326    -87    532    540 232.2  -9.3  34162  289.60 0854.55
2009/04/23 15:09:09.9    -406   -294    -10    502    503 234.0  -1.2  34148  289.37 0854.55
2009/04/23 15:09:10.0    -239   -297     90    382    393 218.8  13.3  34154  289.48 0854.56
2009/04/23 15:09:10.1    -291   -354    -59    459    463 219.5  -7.4  34170  289.75 0854.56
2009/04/23 15:09:10.2    -291   -402   -141    497    517 216.0 -15.9  34176  289.84 0854.56
2009/04/23 15:09:10.3    -185   -331   -100    380    393 209.3 -14.8  34174  289.81 0854.56
2009/04/23 15:09:10.4    -327   -168    -87    368    379 242.8 -13.4  34170  289.74 0854.56
2009/04/23 15:09:10.5    -413      0   -169    414    447 270.0 -27.8  34176  289.85 0854.56
2009/04/23 15:09:10.6    -313     -4   -186    314    364 269.2 -37.9  34178  289.86 0854.56
2009/04/23 15:09:10.7    -330   -116   -110    350    367 250.6 -17.5  34174  289.81 0854.56
2009/04/23 15:09:10.8    -339     42   -121    342    362 277.1 -24.5  34162  289.59 0854.56
2009/04/23 15:09:10.9    -424    -12   -228    425    482 268.3 -34.9  34156  289.51 0854.56
2009/04/23 15:09:11.0    -293     35   -226    296    372 276.8 -45.7  34172  289.77 0854.52
2009/04/23 15:09:11.1    -446    -86   -132    455    473 259.0 -21.0  34186  290.00 0854.52
2009/04/23 15:09:11.2    -251    -18   -170    252    303 265.9 -41.8  34172  289.78 0854.52
2009/04/23 15:09:11.3    -245     -7    -96    246    264 268.3 -26.9  34182  289.93 0854.52
2009/04/23 15:09:11.4    -350    -49   -160    354    388 262.0 -30.6  34182  289.94 0854.52
2009/04/23 15:09:11.5    -240   -132   -106    275    294 241.1 -26.5  34196  290.17 0854.52
2009/04/23 15:09:11.6    -199   -180   -153    269    309 227.8 -36.5  34206  290.34 0854.52
2009/04/23 15:09:11.7    -300   -257   -172    396    431 229.4 -29.5  34190  290.07 0854.52
2009/04/23 15:09:11.8    -203   -321   -155    380    410 212.3 -27.8  34178  289.86 0854.52
2009/04/23 15:09:11.9    -261    -53    -86    267    280 258.3 -22.9  34184  289.97 0854.52
2009/04/23 15:09:12.0    -203   -279    -68    346    353 216.1 -11.1  34174  289.81 0854.52
2009/04/23 15:09:12.1    -212   -309    -35    376    378 214.5  -5.3  34170  289.74 0854.52
2009/04/23 15:09:12.2    -109   -319   -120    338    358 199.0 -24.8  34166  289.69 0854.52
2009/04/23 15:09:12.3     -96   -229     -3    249    250 202.8  -0.7  34182  289.95 0854.52
2009/04/23 15:09:12.4     -45   -225     -9    230    231 191.3  -2.2  34172  289.79 0854.52
2009/04/23 15:09:12.5     -10   -218   -113    219    246 182.7 -33.7  34168  289.70 0854.52
2009/04/23 15:09:12.6     102   -279    -85    298    309 160.0 -20.7  34160  289.56 0854.52
2009/04/23 15:09:12.7      44   -323    -60    327    333 172.1 -10.5  34166  289.67 0854.52
2009/04/23 15:09:12.8     -16   -295    -13    296    297 183.1  -2.6  34160  289.56 0854.52
2009/04/23 15:09:12.9      28   -435     28    436    437 176.3   3.8  34170  289.73 0854.52
2009/04/23 15:09:13.0     -21   -297    -29    298    300 184.2  -5.6  34172  289.76 0854.52
2009/04/23 15:09:13.1      48   -424     20    427    428 173.5   2.8  34172  289.77 0854.52
2009/04/23 15:09:13.2     215   -447   -110    497    510 154.3 -12.5  34172  289.78 0854.52
2009/04/23 15:09:13.3     172   -407     42    443    446 157.1   5.5  34172  289.78 0854.52
2009/04/23 15:09:13.4     134   -427    139    448    470 162.5  17.3  34174  289.80 0854.52
2009/04/23 15:09:13.5     266   -320    205    417    464 140.3  28.1  34174  289.80 0854.52
2009/04/23 15:09:13.6     257   -418     71    491    497 148.4   8.2  34178  289.89 0854.52
2009/04/23 15:09:13.7     201   -391     85    440    449 152.7  11.0  34176  289.85 0854.52
2009/04/23 15:09:13.8     181   -387     86    428    437 155.0  11.4  34174  289.82 0854.52
2009/04/23 15:09:13.9     201   -365    107    417    431 151.1  14.5  34178  289.88 0854.52
2009/04/23 15:09:14.0     207   -234    179    313    360 138.6  32.6  34180  289.91 0854.52
2009/04/23 15:09:14.1     109   -171    182    203    272 147.5  46.9  34190  290.09 0854.52
2009/04/23 15:09:14.2     -81   -319    197    330    384 194.3  33.6  34186  290.01 0854.52
2009/04/23 15:09:14.3    -153   -430    165    457    487 199.7  19.9  34194  290.15 0854.52
2009/04/23 15:09:14.4     -91   -429     83    439    447 192.0  10.8  34202  290.28 0854.52
2009/04/23 15:09:14.5    -144   -381     49    408    411 200.7   6.9  34190  290.07 0854.52
2009/04/23 15:09:14.6    -181   -430   -102    467    479 202.8 -12.4  34192  290.12 0854.52
2009/04/23 15:09:14.7    -155   -327    -71    362    369 205.4 -11.1  34184  289.98 0854.52
2009/04/23 15:09:14.8      15   -183     18    184    185 175.1   5.7  34196  290.19 0854.52
2009/04/23 15:09:14.9       4   -365    108    366    382 179.3  16.5  34204  290.33 0854.52
2009/04/23 15:09:15.0    -123   -367     77    388    396 198.6  11.3  34184  289.98 0854.53
2009/04/23 15:09:15.1    -209   -408     18    459    460 207.2   2.3  34174  289.82 0854.53
2009/04/23 15:09:15.2    -287   -346     29    450    451 219.6   3.7  34174  289.80 0854.53
2009/04/23 15:09:15.3    -132   -333     30    359    361 201.6   4.9  34174  289.81 0854.53
2009/04/23 15:09:15.4     -49   -453     -9    456    457 186.3  -1.2  34174  289.80 0854.53
2009/04/23 15:09:15.5      17   -437    -36    438    440 177.8  -4.8  34176  289.83 0854.53
2009/04/23 15:09:15.6      82   -443     -8    451    452 169.4  -1.1  34176  289.83 0854.53
2009/04/23 15:09:15.7      30   -447   -158    448    475 176.1 -24.7  34178  289.89 0854.53
2009/04/23 15:09:15.8     163   -480    -83    508    515 161.2  -9.3  34176  289.84 0854.53
2009/04/23 15:09:15.9      37   -474     49    476    479 175.4   5.9  34176  289.83 0854.53
2009/04/23 15:09:16.0     163   -624    125    645    658 165.3  11.0  34168  289.70 0854.53
2009/04/23 15:09:16.1       9   -548    161    549    573 179.0  16.4  34164  289.63 0854.53
2009/04/23 15:09:16.2      65   -403     76    409    416 170.8  10.6  34172  289.77 0854.53
2009/04/23 15:09:16.3       0   -398     94    399    410 180.0  13.3  34170  289.73 0854.53
2009/04/23 15:09:16.4      48   -337     17    341    342 171.8   2.9  34176  289.84 0854.53
2009/04/23 15:09:16.5     -92   -371     53    383    387 193.9   8.0  34176  289.84 0854.53
2009/04/23 15:09:16.6     -17   -403     88    404    414 182.5  12.4  34180  289.90 0854.53
2009/04/23 15:09:16.7     198   -313     62    371    377 147.6   9.5  34182  289.96 0854.53
2009/04/23 15:09:16.8     167   -466    126    496    512 160.2  14.3  34176  289.84 0854.53
2009/04/23 15:09:16.9      85   -546     86    553    560 171.1   8.9  34186  290.02 0854.53
2009/04/23 15:09:17.0     206   -418    175    467    498 153.7  21.5  34180  289.91 0854.55
2009/04/23 15:09:17.1     166   -488    178    516    547 161.2  19.1  34188  290.06 0854.55
2009/04/23 15:09:17.2     138   -414    203    437    481 161.5  26.7  34182  289.96 0854.55
2009/04/23 15:09:17.3      82   -436    201    444    487 169.3  26.2  34192  290.12 0854.55
2009/04/23 15:09:17.4     123   -415    206    433    479 163.5  27.2  34188  290.05 0854.55
2009/04/23 15:09:17.5      -3   -308    225    309    382 180.7  39.7  34196  290.18 0854.55
2009/04/23 15:09:17.6     121   -507    -20    522    523 166.6  -2.2  34184  289.99 0854.55
2009/04/23 15:09:17.7      94   -404     76    415    422 166.8  10.4  34184  289.99 0854.55
2009/04/23 15:09:17.8     185   -484    167    519    546 159.1  17.8  34180  289.90 0854.55
2009/04/23 15:09:17.9      16   -583     33    584    585 178.4   3.3  34188  290.03 0854.55
2009/04/23 15:09:18.0      41   -592    -53    594    597 176.0  -5.2  34186  290.00 0854.55
2009/04/23 15:09:18.1      99   -508    -10    518    519 168.9  -1.2  34182  289.96 0854.55
2009/04/23 15:09:18.2      97   -478    101    488    499 168.5  11.8  34178  289.86 0854.55
2009/04/23 15:09:18.3      43   -496    200    498    536 175.0  23.1  34178  289.89 0854.55
2009/04/23 15:09:18.4      64   -457    280    462    540 172.0  34.1  34174  289.81 0854.55
2009/04/23 15:09:18.5     144   -400    198    426    469 160.2  26.6  34164  289.63 0854.55
2009/04/23 15:09:18.6      15   -391    295    392    490 177.7  40.7  34170  289.75 0854.55
2009/04/23 15:09:18.7     138   -411    249    434    500 161.4  32.4  34174  289.81 0854.55
2009/04/23 15:09:18.8       0   -403    337    404    526 179.9  44.0  34172  289.78 0854.55
2009/04/23 15:09:18.9       6   -391    250    392    464 179.1  35.6  34168  289.70 0854.55
2009/04/23 15:09:19.0      43   -301    166    305    347 171.8  30.9  34172  289.79 0854.56
2009/04/23 15:09:19.1      -6   -390    126    391    411 180.9  17.9  34170  289.75 0854.56
2009/04/23 15:09:19.2     -92   -361    -27    373    374 194.4  -4.2  34172  289.79 0854.56
2009/04/23 15:09:19.3     -87   -434   -144    443    465 191.4 -23.3  34168  289.70 0854.56
2009/04/23 15:09:19.4    -121   -579   -135    592    608 191.9 -12.9  34166  289.68 0854.56
2009/04/23 15:09:19.5    -231   -387    -68    451    457 210.8  -8.6  34168  289.70 0854.56
2009/04/23 15:09:19.6    -360   -371   -103    518    529 224.1 -11.3  34172  289.79 0854.56
2009/04/23 15:09:19.7    -341   -285     -9    445    446 230.1  -1.3  34174  289.82 0854.56
2009/04/23 15:09:19.8    -360   -271    -24    451    452 233.0  -3.1  34178  289.88 0854.56
2009/04/23 15:09:19.9    -292   -252   -135    387    409 229.2 -24.4  34170  289.74 0854.56
2009/04/23 15:09:20.0    -376   -377   -203    533    570 224.9 -26.4  34166  289.67 0854.56
2009/04/23 15:09:20.1    -432   -460   -264    632    684 223.2 -28.5  34150  289.39 0854.56
2009/04/23 15:09:20.2    -630   -441   -506    770    921 235.0 -40.9  34152  289.42 0854.56
2009/04/23 15:09:20.3    -355   -171   -288    395    488 244.3 -44.1  34156  289.49 0854.56
2009/04/23 15:09:20.4    -198    -77   -225    213    309 248.7 -56.4  34188  290.05 0854.56
2009/04/23 15:09:20.5    -153   -213   -218    263    341 215.8 -48.4  34180  289.90 0854.56
2009/04/23 15:09:20.6    -166   -350   -128    388    408 205.5 -23.7  34176  289.84 0854.56
2009/04/23 15:09:20.7     -73   -275   -125    285    311 194.9 -29.6  34176  289.83 0854.56
2009/04/23 15:09:20.8      -8   -264    -84    265    279 181.8 -17.6  34176  289.85 0854.56
2009/04/23 15:09:20.9      51   -341     50    345    349 171.4   8.3  34176  289.84 0854.56
2009/04/23 15:09:21.0      91   -322    -13    335    336 164.2  -2.2  34172  289.79 0854.57
2009/04/23 15:09:21.1     -22   -191    -83    193    210 186.7 -29.5  34172  289.79 0854.57
2009/04/23 15:09:21.2      36   -142    -81    147    167 165.7 -35.8  34174  289.80 0854.57
2009/04/23 15:09:21.3      24   -327    -60    328    334 175.7 -10.4  34172  289.76 0854.57
2009/04/23 15:09:21.4     -76   -267   -155    278    318 196.0 -36.0  34170  289.73 0854.57
2009/04/23 15:09:21.5     -72   -216    -72    228    239 198.5 -22.8  34164  289.63 0854.57
2009/04/23 15:09:21.6    -145   -262    -32    300    302 209.0  -6.2  34170  289.75 0854.57
2009/04/23 15:09:21.7     -88   -260     25    275    277 198.7   5.2  34170  289.75 0854.57
2009/04/23 15:09:21.8    -192   -346   -109    396    411 209.0 -15.4  34156  289.51 0854.57
2009/04/23 15:09:21.9     -23   -368    -56    369    374 183.7  -8.7  34162  289.60 0854.57
2009/04/23 15:09:22.0     -71   -210    -46    222    227 198.7 -11.9  34168  289.70 0854.57
2009/04/23 15:09:22.1    -152   -214     44    263    267 215.4   9.5  34172  289.76 0854.57
2009/04/23 15:09:22.2    -222   -196   -105    297    316 228.6 -19.6  34170  289.73 0854.57
2009/04/23 15:09:22.3    -266   -150    -71    306    315 240.5 -13.2  34174  289.80 0854.57
2009/04/23 15:09:22.4    -301   -166   -154    344    376 241.1 -30.1  34170  289.74 0854.57
2009/04/23 15:09:22.5      22   -211   -166    213    270 174.0 -46.4  34164  289.63 0854.57
2009/04/23 15:09:22.6      92   -454   -217    464    512 168.6 -31.3  34142  289.27 0854.57
2009/04/23 15:09:22.7     -32   -476   -157    478    504 183.9 -18.2  34156  289.52 0854.57
2009/04/23 15:09:22.8      82   -536     -6    543    544 171.3  -0.7  34164  289.63 0854.57
2009/04/23 15:09:22.9      66   -357   -102    364    379 169.4 -15.7  34164  289.64 0854.57
2009/04/23 15:09:23.0     195   -379    -36    427    429 152.8  -4.9  34154  289.46 0854.60
2009/04/23 15:09:23.1     240   -428   -117    491    505 150.7 -13.4  34166  289.66 0854.60
2009/04/23 15:09:23.2     311   -272   -115    414    429 131.1 -20.2  34186  290.02 0854.60
2009/04/23 15:09:23.3     145   -105     50    180    187 126.0  15.6  34164  289.63 0854.60
2009/04/23 15:09:23.4       9   -118    143    119    186 175.5  56.3  34176  289.84 0854.60
2009/04/23 15:09:23.5      11   -143    162    144    216 175.5  53.7  34176  289.84 0854.60
2009/04/23 15:09:23.6      68   -333    209    341    399 168.4  34.4  34162  289.59 0854.60
2009/04/23 15:09:23.7       0   -345    157    346    379 180.0  26.0  34158  289.54 0854.60
2009/04/23 15:09:23.8     -17   -572    224    573    615 181.8  22.5  34170  289.75 0854.60
2009/04/23 15:09:23.9     129   -565    218    580    619 167.1  21.6  34158  289.54 0854.60
2009/04/23 15:09:24.0     237   -521    279    573    637 155.5  27.9  34144  289.30 0854.60
2009/04/23 15:09:24.1      28   -592    244    593    641 177.2  23.7  34166  289.67 0854.60
2009/04/23 15:09:24.2      54   -676    247    679    722 175.4  20.9  34160  289.57 0854.60
2009/04/23 15:09:24.3      24   -605    248    606    654 177.7  23.6  34172  289.79 0854.60
2009/04/23 15:09:24.4      82   -672    304    678    743 173.0  25.8  34196  290.17 0854.60
2009/04/23 15:09:24.5     102   -622    254    631    680 170.7  23.1  34190  290.09 0854.60
2009/04/23 15:09:24.6      78   -560    235    566    612 172.0  23.8  34170  289.75 0854.60
2009/04/23 15:09:24.7     284   -409    274    499    569 145.2  31.3  34176  289.84 0854.60
2009/04/23 15:09:24.8     380   -346    182    514    546 132.3  19.5  34180  289.92 0854.60
2009/04/23 15:09:24.9     227   -310    246    385    456 143.8  35.6  34174  289.82 0854.60
2009/04/23 15:09:25.0     506   -300    389    589    705 120.7  36.6  34176  289.85 0854.63
2009/04/23 15:09:25.1      97   -110    294    148    329 138.6  71.4  34212  290.44 0854.63
2009/04/23 15:09:25.2      33   -204    227    207    307 170.7  53.0  34206  290.36 0854.63
2009/04/23 15:09:25.3      80   -454    264    462    532 170.0  32.3  34182  289.95 0854.63
2009/04/23 15:09:25.4      77   -452    398    459    607 170.3  45.4  34174  289.82 0854.63
2009/04/23 15:09:25.5     155   -255    254    299    392 148.6  44.8  34164  289.64 0854.63
2009/04/23 15:09:25.6     -11   -520    143    521    541 181.3  15.4  34162  289.60 0854.63
2009/04/23 15:09:25.7     -90   -700    290    706    763 187.4  23.6  34162  289.62 0854.63
2009/04/23 15:09:25.8     -74   -767    281    771    820 185.6  21.0  34168  289.72 0854.63
2009/04/23 15:09:25.9    -101   -501    308    512    597 191.5  33.8  34144  289.29 0854.63
2009/04/23 15:09:26.0    -126   -407    437    427    610 197.3  50.7  34158  289.55 0854.63
2009/04/23 15:09:26.1     -27   -654    489    655    817 182.4  40.5  34184  289.99 0854.63
2009/04/23 15:09:26.2     346   -631    494    720    873 151.3  37.8  34176  289.84 0854.63
2009/04/23 15:09:26.3     291   -687    221    747    780 157.1  16.5  34148  289.38 0854.63
2009/04/23 15:09:26.4     -18   -602    187    603    632 181.8  17.3  34144  289.31 0854.63
2009/04/23 15:09:26.5      49   -201    367    207    421 166.2  68.3  34182  289.94 0854.63
2009/04/23 15:09:26.6      27   -580    426    581    720 177.3  39.8  34138  289.21 0854.63
2009/04/23 15:09:26.7    -144   -835    320    848    906 189.8  21.7  34142  289.27 0854.63
2009/04/23 15:09:26.8     147   -756    470    771    902 169.0  34.2  34162  289.61 0854.63
2009/04/23 15:09:26.9     477   -801     96    933    938 149.2   5.9  34160  289.56 0854.63
2009/04/23 15:09:27.0     659   -541    -47    853    855 129.4  -3.2  34158  289.53 0854.64
2009/04/23 15:09:27.1     321   -426   -207    534    572 143.0 -26.7  34158  289.53 0854.64
2009/04/23 15:09:27.2      53   -633     88    636    642 175.1   7.9  34152  289.42 0854.64
2009/04/23 15:09:27.3     456   -766    305    892    944 149.3  18.9  34158  289.55 0854.64
2009/04/23 15:09:27.4     545   -793    263    963    999 145.5  15.3  34146  289.34 0854.64
2009/04/23 15:09:27.5     505   -992    200   1113   1132 153.0  10.2  34140  289.24 0854.64
2009/04/23 15:09:27.6     439   -869    112    974    981 153.2   6.6  34152  289.45 0854.64
2009/04/23 15:09:27.7      64  -1222     29   1224   1225 177.0   1.4  34160  289.57 0854.64
2009/04/23 15:09:27.8     -66  -1269   -219   1271   1291 183.0  -9.8  34156  289.51 0854.64
2009/04/23 15:09:27.9    -160  -1073   -359   1085   1143 188.5 -18.3  34160  289.58 0854.64
2009/04/23 15:09:28.0      89  -1149   -376   1153   1213 175.5 -18.1  34162  289.62 0854.64
2009/04/23 15:09:28.1     204  -1042   -317   1063   1109 168.9 -21.5  34158  289.55 0854.64
2009/04/23 15:09:28.2      90  -1154   -416   1158   1231 175.5 -19.8  34170  289.73 0854.64
2009/04/23 15:09:28.3     -64  -1156   -383   1158   1220 183.2 -18.3  34156  289.49 0854.64
2009/04/23 15:09:28.4       9  -1127   -386   1128   1193 179.5 -18.9  34160  289.58 0854.64
2009/04/23 15:09:28.5     246   -986   -319   1017   1066 166.0 -17.4  34142  289.26 0854.64
2009/04/23 15:09:28.6     163  -1057   -368   1070   1131 171.2 -24.3  34146  289.33 0854.64
2009/04/23 15:09:28.7     181   -915   -363    933   1001 168.8 -26.8  34138  289.19 0854.64
2009/04/23 15:09:28.8     158   -924   -294    938    982 170.3 -22.3  34146  289.33 0854.64
2009/04/23 15:09:28.9     229   -880   -354    910    976 165.4 -26.8  34128  289.02 0854.64
2009/04/23 15:09:29.0     353   -808   -392    883    966 156.4 -30.0  34146  289.34 0854.64
2009/04/23 15:09:29.1     396   -757   -336    855    918 152.4 -27.1  34122  288.93 0854.64
2009/04/23 15:09:29.2     190   -433   -404    473    622 156.3 -49.2  34146  289.34 0854.64
2009/04/23 15:09:29.3     248   -499   -317    558    641 153.6 -36.6  34140  289.23 0854.64
2009/04/23 15:09:29.4     143   -380   -305    407    508 159.4 -45.1  34152  289.45 0854.64
2009/04/23 15:09:29.5      88   -402     10    412    413 167.6   1.5  34142  289.27 0854.64
2009/04/23 15:09:29.6     -77   -264   -244    276    368 196.3 -50.3  34156  289.52 0854.64
2009/04/23 15:09:29.7     -20   -156   -189    158    246 187.6 -60.5  34158  289.53 0854.64
2009/04/23 15:09:29.8    -165   -291     -4    335    336 209.6  -0.7  34146  289.33 0854.64
2009/04/23 15:09:29.9     -73   -563    152    568    588 187.5  15.0  34132  289.10 0854.64
2009/04/23 15:09:30.0     -75   -521    191    527    560 188.3  20.9  34136  289.18 0854.64
2009/04/23 15:09:30.1     -52   -656    295    659    722 184.6  25.8  34128  289.03 0854.64
2009/04/23 15:09:30.2     -37   -469    324    471    571 184.6  37.8  34132  289.09 0854.64
2009/04/23 15:09:30.3     -31   -334    207    336    394 185.3  34.5  34136  289.18 0854.64
2009/04/23 15:09:30.4     -27   -165    149    168    224 189.3  46.2  34130  289.08 0854.64
2009/04/23 15:09:30.5     -13   -209    303    210    368 183.8  62.1  34146  289.32 0854.64
2009/04/23 15:09:30.6     191   -525    369    560    670 160.0  36.5  34136  289.18 0854.64
2009/04/23 15:09:30.7     259   -393    302    471    559 146.6  35.6  34130  289.07 0854.64
2009/04/23 15:09:30.9     361   -210    196    418    461 120.2  27.1  34132  289.09 0854.64
2009/04/23 15:09:31.0     174   -399    237    436    496 156.5  30.9  34130  289.08 0854.64
2009/04/23 15:09:31.1     457   -761    161    888    903 149.0  10.3  34134  289.13 0854.64
2009/04/23 15:09:31.2     358   -909    253    978   1011 158.5  14.5  34130  289.07 0854.64
2009/04/23 15:09:31.3     600   -802    149   1002   1014 143.2   8.5  34132  289.10 0854.64
2009/04/23 15:09:31.4     733   -781    267   1072   1105 136.8  14.0  34128  289.04 0854.64
2009/04/23 15:09:31.5     691   -681    288    971   1013 134.6  16.5  34132  289.09 0854.64
2009/04/23 15:09:31.6     655   -699    250    959    991 136.9  14.6  34152  289.45 0854.64
2009/04/23 15:09:31.7     425   -674    212    797    825 147.8  14.9  34146  289.33 0854.64
2009/04/23 15:09:31.8     506   -717    221    878    906 144.8  14.2  34142  289.27 0854.64
2009/04/23 15:09:31.9     526   -582    304    785    841 137.9  22.4  34140  289.23 0854.64
2009/04/23 15:09:32.0     499   -646    307    817    872 142.3  21.7  34142  289.27 0854.64
2009/04/23 15:09:32.1     376   -869    274    947    986 156.6  16.1  34146  289.35 0854.64
2009/04/23 15:09:32.2     428  -1007    375   1095   1158 157.0  18.9  34146  289.33 0854.64
2009/04/23 15:09:32.3     342   -931     48    993    995 159.8   2.8  34106  288.66 0854.64
2009/04/23 15:09:32.4     438   -526   -234    685    725 140.2 -18.9  34138  289.20 0854.64
2009/04/23 15:09:32.5     487   -577     64    756    759 139.8   4.9  34142  289.26 0854.64
2009/04/23 15:09:32.6     306   -535   -150    617    635 150.3 -13.7  34152  289.43 0854.64
2009/04/23 15:09:32.7     403   -427    -74    588    593 136.7  -7.2  34144  289.30 0854.64
2009/04/23 15:09:32.8     355   -547   -107    653    662 147.0  -9.3  34140  289.24 0854.64
2009/04/23 15:09:32.9      63   -330    -99    337    352 169.1 -16.4  34152  289.42 0854.64
2009/04/23 15:09:33.0     209   -178    214    275    348 130.5  42.0  34142  289.27 0854.64
2009/04/23 15:09:33.1     501   -327    506    599    784 123.2  44.5  34162  289.59 0854.64
2009/04/23 15:09:33.2     583   -380    454    697    831 123.1  36.0  34148  289.37 0854.64
2009/04/23 15:09:33.3     868   -720     33   1129   1130 129.7   1.7  34122  288.92 0854.64
2009/04/23 15:09:33.4     617   -478    287    781    832 127.8  21.1  34128  289.03 0854.64
2009/04/23 15:09:33.5     348   -566    281    665    721 148.4  24.3  34130  289.08 0854.64
2009/04/23 15:09:33.6     519   -583    136    781    793 138.3   9.9  34140  289.22 0854.64
2009/04/23 15:09:33.7     312   -318     95    446    457 135.6  12.1  34136  289.17 0854.64
2009/04/23 15:09:33.8     429   -158    -47    458    461 110.2  -5.9  34140  289.22 0854.64
2009/04/23 15:09:33.9     406   -208    185    457    493 117.2  23.2  34146  289.35 0854.64
2009/04/23 15:09:34.0     366   -410    195    550    584 138.2  19.6  34150  289.41 0854.64
2009/04/23 15:09:34.1     238   -249    190    345    393 136.2  31.3  34144  289.30 0854.66
2009/04/23 15:09:34.2     183    -11    271    184    327  93.5  62.7  34154  289.47 0854.66
2009/04/23 15:09:34.3     243   -138    229    280    361 119.7  43.6  34154  289.47 0854.66
2009/04/23 15:09:34.4     144     90    122    170    209  58.0  39.3  34152  289.45 0854.66
2009/04/23 15:09:34.5      -1    -68    258     69    267 181.0  84.9  34160  289.57 0854.66
2009/04/23 15:09:34.6      15   -202    153    203    254 175.5  40.7  34150  289.41 0854.66
2009/04/23 15:09:34.7      97   -187    226    211    309 152.6  52.2  34150  289.41 0854.66
2009/04/23 15:09:34.8      79   -268     60    280    287 163.5  12.2  34152  289.42 0854.66
2009/04/23 15:09:34.9      28    -85    -10     90     91 161.7  -6.7  34146  289.33 0854.66
2009/04/23 15:09:35.0     116   -177    104    212    236 146.8  28.2  34150  289.41 0854.66
2009/04/23 15:09:35.1      37   -147    212    152    260 165.7  60.8  34152  289.43 0854.66
2009/04/23 15:09:35.2     240   -554    228    604    645 156.6  21.7  34140  289.23 0854.66
2009/04/23 15:09:35.3     302   -414    203    513    551 143.9  22.9  34146  289.33 0854.66
2009/04/23 15:09:35.4     351   -244    183    428    465 124.9  24.6  34150  289.39 0854.66
2009/04/23 15:09:35.5     273   -389     57    476    480 144.9   6.9  34150  289.39 0854.66
2009/04/23 15:09:35.6     169   -555    -11    581    582 163.1  -1.2  34148  289.37 0854.66
2009/04/23 15:09:35.7     143   -549    -46    568    570 165.3  -4.7  34154  289.46 0854.66
2009/04/23 15:09:35.8     342   -620     64    708    711 151.1   5.2  34142  289.27 0854.66
2009/04/23 15:09:35.9     593   -518    -51    788    790 131.2  -3.7  34134  289.12 0854.66
2009/04/23 15:09:36.0     551   -387    112    674    684 125.1   9.4  34142  289.26 0854.66
2009/04/23 15:09:36.1     651   -334   -120    732    742 117.2  -9.3  34144  289.31 0854.66
2009/04/23 15:09:36.2     513   -685    191    856    878 143.2  12.6  34130  289.06 0854.66
2009/04/23 15:09:36.3     473   -560    -28    734    735 139.8  -2.2  34118  288.85 0854.66
2009/04/23 15:09:36.4     337   -674   -144    754    768 153.4 -10.8  34134  289.14 0854.66
2009/04/23 15:09:36.5     350   -833    -98    904    910 157.2  -6.2  34128  289.04 0854.66
2009/04/23 15:09:36.6     365   -503    -67    622    626 144.0  -6.2  34136  289.18 0854.66
2009/04/23 15:09:36.7     432   -638    -47    771    773 145.9  -3.5  34146  289.35 0854.66
2009/04/23 15:09:36.8     306   -729    122    791    801 157.2   8.8  34144  289.29 0854.66
2009/04/23 15:09:36.9     419   -597    355    730    811 144.9  27.8  34130  289.07 0854.66
2009/04/23 15:09:37.0     206   -581    258    617    668 160.4  24.1  34142  289.28 0854.66
2009/04/23 15:09:37.1     114   -560    122    572    586 168.4  12.1  34148  289.37 0854.66
2009/04/23 15:09:37.2     -59   -539   -165    543    568 186.3 -17.0  34146  289.35 0854.66
2009/04/23 15:09:37.3     -65   -449   -189    454    491 188.3 -28.3  34140  289.22 0854.66
2009/04/23 15:09:37.4     104   -472   -300    484    569 167.5 -39.2  34156  289.51 0854.66
2009/04/23 15:09:37.5     183   -427   -171    465    495 156.8 -25.5  34152  289.42 0854.66
2009/04/23 15:09:37.6     260   -487   -223    553    596 151.9 -27.5  34164  289.63 0854.66
2009/04/23 15:09:37.7     245   -526   -233    581    625 155.1 -27.5  34156  289.51 0854.66
2009/04/23 15:09:37.8     269   -717    -72    767    771 159.4  -5.4  34148  289.36 0854.66
2009/04/23 15:09:37.9     191   -532    -73    566    571 160.2  -7.4  34154  289.46 0854.66
2009/04/23 15:09:38.0     204   -588    -12    623    624 160.8  -1.1  34150  289.40 0854.66
2009/04/23 15:09:38.1     289   -430    -42    519    521 146.1  -4.7  34148  289.36 0854.66
2009/04/23 15:09:38.2     365   -556     68    666    670 146.7   5.9  34152  289.44 0854.66
2009/04/23 15:09:38.3     170   -743    -15    763    764 167.1  -1.2  34156  289.50 0854.66
2009/04/23 15:09:38.4     315   -580    -79    660    665 151.5  -6.9  34138  289.21 0854.66
2009/04/23 15:09:38.5     428   -708     45    828    830 148.8   3.1  34128  289.03 0854.66
2009/04/23 15:09:38.6     303   -838    107    892    899 160.1   6.9  34130  289.05 0854.66
2009/04/23 15:09:38.7     419   -607   -122    738    749 145.4  -9.4  34144  289.31 0854.66
2009/04/23 15:09:38.8     225   -515   -151    563    583 156.4 -15.1  34156  289.51 0854.66
2009/04/23 15:09:38.9     120   -690   -153    701    718 170.1 -12.4  34152  289.44 0854.66
2009/04/23 15:09:39.0     246   -785     12    823    824 162.6   0.9  34142  289.28 0854.66
2009/04/23 15:09:39.1    -242   -696   -220    738    770 199.2 -21.6  34144  289.31 0854.66
2009/04/23 15:09:39.2      99  -1021   -177   1027   1043 174.4  -9.8  34130  289.05 0854.66
2009/04/23 15:09:39.3    -200  -1034   -209   1054   1075 191.0 -11.2  34136  289.18 0854.66
2009/04/23 15:09:39.4    -508  -1060   -288   1176   1211 205.6 -13.8  34112  288.76 0854.66
2009/04/23 15:09:39.5    -727  -1005   -318   1241   1282 215.9 -14.4  34118  288.87 0854.66
2009/04/23 15:09:39.6    -222  -1107   -201   1130   1148 191.3 -10.1  34122  288.94 0854.66
2009/04/23 15:09:39.7    -269  -1225   -340   1255   1301 192.4 -15.2  34126  289.00 0854.66
2009/04/23 15:09:39.8    -341   -986   -297   1044   1085 199.1 -20.5  34106  288.66 0854.66
2009/04/23 15:09:39.9    -471   -733   -398    872    958 212.8 -30.7  34098  288.51 0854.66
2009/04/23 15:09:40.0      46   -847   -268    849    891 176.9 -17.5  34122  288.93 0854.66
2009/04/23 15:09:40.1     -11   -825   -272    826    869 180.8 -23.3  34110  288.71 0854.66
2009/04/23 15:09:40.2     -75   -834   -515    838    983 185.2 -38.8  34124  288.95 0854.66
2009/04/23 15:09:40.3     -52   -879   -416    881    974 183.4 -31.5  34138  289.20 0854.66
2009/04/23 15:09:40.4    -195   -499   -202    536    572 201.4 -26.1  34144  289.29 0854.66
2009/04/23 15:09:40.5     115   -731     64    741    744 171.0   5.0  34134  289.12 0854.66
2009/04/23 15:09:40.6     262  -1114    291   1145   1182 166.7  14.3  34126  288.99 0854.66
2009/04/23 15:09:40.7     486  -1192     20   1288   1289 157.8   0.9  34122  288.94 0854.66
2009/04/23 15:09:40.8     623   -988    110   1168   1174 147.8   5.4  34128  289.02 0854.66
2009/04/23 15:09:40.9     427   -972      5   1062   1063 156.3   0.3  34120  288.90 0854.66
2009/04/23 15:09:41.0     379   -920     -4    996    997 157.6  -0.3  34126  288.98 0854.66
2009/04/23 15:09:41.1     135  -1311    208   1318   1335 174.1   9.0  34126  288.99 0854.66
2009/04/23 15:09:41.2    -170  -1349   -232   1360   1380 187.2  -9.7  34118  288.85 0854.66
2009/04/23 15:09:41.3     190  -1186   -553   1202   1323 170.9 -30.9  34128  289.04 0854.66
2009/04/23 15:09:41.4      47  -1148   -531   1149   1265 177.6 -31.0  34128  289.03 0854.66
2009/04/23 15:09:41.5     206  -1130   -391   1149   1214 169.7 -18.8  34130  289.06 0854.66
2009/04/23 15:09:41.6     237  -1054   -373   1081   1143 167.3 -24.3  34114  288.78 0854.66
2009/04/23 15:09:41.7      94  -1234   -203   1238   1255 175.6  -9.3  34118  288.86 0854.66
2009/04/23 15:09:41.8     174  -1381   -279   1393   1421 172.8 -11.3  34120  288.90 0854.66
2009/04/23 15:09:41.9     -62  -1139    617   1141   1297 183.1  30.8  34110  288.71 0854.66
2009/04/23 15:09:42.0    -171  -1185    628   1198   1352 188.2  30.0  34124  288.96 0854.65
2009/04/23 15:09:42.1    -225  -1250    296   1271   1305 190.2  13.1  34124  288.96 0854.65
2009/04/23 15:09:42.2     134  -1116    241   1125   1151 173.1  12.1  34124  288.96 0854.65
2009/04/23 15:09:42.3     339  -1048    -43   1102   1103 162.1  -2.2  34126  289.01 0854.65
2009/04/23 15:09:42.4     363   -996   -206   1061   1081 160.0 -11.0  34128  289.03 0854.65
2009/04/23 15:09:42.5     542   -989   -123   1128   1135 151.3  -6.3  34130  289.07 0854.65
2009/04/23 15:09:42.6     650   -874     34   1090   1091 143.4   1.8  34132  289.09 0854.65
2009/04/23 15:09:42.7     650   -987    278   1183   1216 146.6  13.2  34116  288.84 0854.65
2009/04/23 15:09:42.8     495   -951    394   1072   1142 152.5  21.1  34128  289.02 0854.65
2009/04/23 15:09:42.9     498   -974    564   1094   1230 152.9  29.4  34124  288.95 0854.65
2009/04/23 15:09:43.0     486   -785    503    924   1052 148.3  30.9  34116  288.84 0854.65
2009/04/23 15:09:43.1     464   -668    534    814    973 145.2  36.4  34120  288.89 0854.65
2009/04/23 15:09:43.2     271   -721    555    771    949 159.4  39.3  34126  288.98 0854.65
2009/04/23 15:09:43.3     337   -612    490    699    853 151.1  38.5  34126  288.99 0854.65
2009/04/23 15:09:43.4     388   -499    496    633    804 142.2  42.1  34132  289.11 0854.65
2009/04/23 15:09:43.5     455   -499    476    676    826 137.7  38.6  34124  288.95 0854.65
2009/04/23 15:09:43.6     403   -455    503    609    789 138.5  43.7  34130  289.07 0854.65
2009/04/23 15:09:43.7     290   -467    420    550    692 148.1  41.3  34126  288.99 0854.65
2009/04/23 15:09:43.8      82   -413    425    422    598 168.8  50.2  34132  289.11 0854.65
2009/04/23 15:09:43.9     131   -460    418    479    635 164.1  45.6  34130  289.07 0854.65
2009/04/23 15:09:44.0     249   -546    481    601    769 155.5  42.8  34132  289.10 0854.60
2009/04/23 15:09:44.1      70   -257    355    267    444 164.6  59.4  34130  289.08 0854.60
2009/04/23 15:09:44.2     153      0    309    154    345  90.0  71.9  34140  289.24 0854.60
2009/04/23 15:09:44.3     225    -95    371    245    444 112.8  63.6  34142  289.25 0854.60
2009/04/23 15:09:44.4     -47     -5    345     48    348 263.0  90.0  34160  289.58 0854.60
2009/04/23 15:09:44.5    -344   -115    268    364    452 251.4  39.9  34148  289.38 0854.60
2009/04/23 15:09:44.6    -326    -49    263    330    421 261.3  42.7  34154  289.48 0854.60
2009/04/23 15:09:44.7    -155   -553    214    575    613 195.7  21.4  34134  289.14 0854.60
2009/04/23 15:09:44.8      10   -140    288    141    320 175.5  72.1  34156  289.49 0854.60
2009/04/23 15:09:44.9      37   -266    225    269    350 171.9  44.1  34146  289.34 0854.60
2009/04/23 15:09:45.0     -45   -115    282    124    308 201.4  74.9  34154  289.47 0854.60
2009/04/23 15:09:45.1     270   -116    230    295    374 113.3  41.9  34146  289.35 0854.60
2009/04/23 15:09:45.2     -38   -285    472    288    552 187.6  65.8  34150  289.40 0854.60
2009/04/23 15:09:45.3    -114   -254    435    279    516 204.3  64.6  34142  289.27 0854.60
2009/04/23 15:09:45.4     -91   -337    263    350    437 195.2  40.7  34150  289.39 0854.60
2009/04/23 15:09:45.5    -203   -350    370    405    548 210.1  47.0  34142  289.27 0854.60
2009/04/23 15:09:45.6    -219   -396    368    453    583 209.0  43.3  34140  289.23 0854.60
2009/04/23 15:09:45.7    -235   -187    253    301    393 231.4  44.4  34148  289.37 0854.60
2009/04/23 15:09:45.8    -285     -8    170    286    332 268.3  33.5  34168  289.70 0854.60
2009/04/23 15:09:45.9    -169     32     99    173    199 281.0  32.4  34156  289.52 0854.60
2009/04/23 15:09:46.0     -97     42    152    106    185 293.5  61.8  34178  289.89 0854.57
2009/04/23 15:09:46.1    -205    144    260    251    361 305.1  51.1  34164  289.64 0854.57
2009/04/23 15:09:46.2    -210    -26    182    212    279 262.8  45.1  34166  289.68 0854.57
2009/04/23 15:09:46.3     -23    -57    217     62    225 202.7  84.1  34168  289.72 0854.57
2009/04/23 15:09:46.4     -32    -51    201     61    210 212.6  82.5  34160  289.57 0854.57
2009/04/23 15:09:46.5     -85   -178    235    198    307 205.5  55.8  34152  289.42 0854.57
2009/04/23 15:09:46.6    -211   -238    236    319    396 221.5  40.1  34152  289.45 0854.57
2009/04/23 15:09:46.7    -307   -442    270    539    602 214.8  28.7  34164  289.64 0854.57
2009/04/23 15:09:46.8    -197   -416    247    461    523 205.4  30.6  34146  289.34 0854.57
2009/04/23 15:09:46.9    -101   -339    155    354    386 196.6  25.1  34152  289.42 0854.57
2009/04/23 15:09:47.0    -119   -339    225    360    424 199.4  35.1  34154  289.48 0854.57
2009/04/23 15:09:47.1    -148   -291    206    327    386 207.0  35.5  34166  289.69 0854.57
2009/04/23 15:09:47.2    -151   -183    148    238    280 219.6  35.2  34160  289.58 0854.57
2009/04/23 15:09:47.3     -90   -221    153    239    283 202.3  35.6  34150  289.39 0854.57
2009/04/23 15:09:47.4       0   -342    170    343    382 180.0  28.2  34154  289.47 0854.57
2009/04/23 15:09:47.5     -34   -295    131    298    325 186.7  25.2  34154  289.46 0854.57
2009/04/23 15:09:47.6     -28   -174     61    177    188 189.1  19.2  34152  289.45 0854.57
2009/04/23 15:09:47.7     -87   -166    202    188    275 207.6  52.2  34158  289.54 0854.57
2009/04/23 15:09:47.8    -286   -211    292    356    460 233.5  43.7  34156  289.49 0854.57
2009/04/23 15:09:47.9    -298   -220    288    371    469 233.5  41.7  34140  289.22 0854.57
2009/04/23 15:09:48.0    -291   -137    204    322    381 244.8  35.5  34162  289.59 0854.56
2009/04/23 15:09:48.1    -127    -17     91    129    157 262.1  38.8  34178  289.87 0854.56
2009/04/23 15:09:48.2     401    131    379    422    567  71.9  46.6  34150  289.41 0854.56
2009/04/23 15:09:48.3     386   -318    116    501    515 129.5  13.1  34162  289.59 0854.56
2009/04/23 15:09:48.4     383   -228    167    446    476 120.8  21.5  34156  289.49 0854.56
2009/04/23 15:09:48.5     356   -230    242    424    488 122.9  32.3  34178  289.86 0854.56
2009/04/23 15:09:48.6     225   -448   -116    502    516 153.3 -13.0  34150  289.40 0854.56
2009/04/23 15:09:48.7      92   -642    -85    649    655 171.8  -7.5  34148  289.38 0854.56
2009/04/23 15:09:48.8     188   -582     32    612    613 162.1   3.0  34156  289.51 0854.56
2009/04/23 15:09:48.9      89   -630    121    637    649 171.9  10.8  34148  289.38 0854.56
2009/04/23 15:09:49.0     118   -492    138    507    526 166.4  15.3  34152  289.43 0854.56
2009/04/23 15:09:49.1      29   -271    127    273    301 173.8  27.0  34154  289.46 0854.56
2009/04/23 15:09:49.2      49   -202     64    208    218 166.2  17.3  34156  289.50 0854.56
2009/04/23 15:09:49.3     109    -68   -143    129    192 122.0 -57.4  34152  289.43 0854.56
2009/04/23 15:09:49.4     204    -31    -13    207    208  98.8  -3.7  34152  289.45 0854.56
2009/04/23 15:09:49.5      10     41    -23     43     48  14.3 -34.7  34158  289.53 0854.56
2009/04/23 15:09:49.6    -142     89    103    168    197 302.0  34.4  34160  289.58 0854.56
2009/04/23 15:09:49.7    -229     61    142    238    277 285.1  33.5  34162  289.59 0854.56
2009/04/23 15:09:49.8    -274    -65    156    282    322 256.5  31.4  34168  289.70 0854.56
2009/04/23 15:09:49.9    -431   -219     55    484    488 243.0   6.6  34148  289.37 0854.56
2009/04/23 15:09:50.0    -342   -309    206    461    504 227.9  25.7  34152  289.42 0854.56
2009/04/23 15:09:50.1    -541     32    -68    542    547 273.4  -7.2  34136  289.16 0854.56
2009/04/23 15:09:50.2    -505      0   -105    506    517 270.0 -11.8  34108  288.68 0854.56
2009/04/23 15:09:50.3    -161   -249    120    297    320 213.0  23.2  34158  289.54 0854.56
2009/04/23 15:09:50.4     -76   -466    306    473    563 189.3  35.9  34158  289.53 0854.56
2009/04/23 15:09:50.5       0   -289    319    290    431 180.1  53.2  34166  289.67 0854.56
2009/04/23 15:09:50.6    -281    -35    191    284    342 262.8  37.0  34176  289.83 0854.56
2009/04/23 15:09:50.7     -79   -198    133    214    251 201.9  35.2  34184  289.97 0854.56
2009/04/23 15:09:50.8    -142   -171   -197    223    297 219.7 -50.3  34168  289.71 0854.56
2009/04/23 15:09:50.9    -199    -66   -235    210    315 251.6 -58.1  34156  289.49 0854.56
2009/04/23 15:09:51.0    -243    -36   -124    246    275 261.4 -33.5  34160  289.56 0854.56
2009/04/23 15:09:51.1    -365   -136   -136    390    413 249.5 -24.4  34180  289.92 0854.56
2009/04/23 15:09:51.2    -510   -241   -173    565    590 244.7 -21.8  34158  289.54 0854.56
2009/04/23 15:09:51.3    -477   -244   -215    536    577 242.9 -27.5  34154  289.48 0854.56
2009/04/23 15:09:51.4    -502   -173   -104    532    543 250.9 -11.1  34148  289.38 0854.56
2009/04/23 15:09:51.5    -666   -272   -201    720    747 247.8 -20.3  34140  289.23 0854.56
2009/04/23 15:09:51.6    -749   -279   -225    800    831 249.5 -20.4  34122  288.92 0854.56
2009/04/23 15:09:51.7    -684   -219   -345    719    797 252.2 -31.9  34128  289.03 0854.56
2009/04/23 15:09:51.8    -617   -280   -333    678    755 245.6 -32.5  34126  289.00 0854.56
2009/04/23 15:09:51.9    -609   -187   -288    638    699 252.9 -30.4  34120  288.90 0854.56
2009/04/23 15:09:52.0    -557   -116   -404    570    698 258.2 -43.2  34142  289.26 0854.55
2009/04/23 15:09:52.1    -505   -112   -385    518    645 257.5 -44.6  34150  289.41 0854.55
2009/04/23 15:09:52.2    -482    -73   -395    488    627 261.3 -47.4  34158  289.54 0854.55
2009/04/23 15:09:52.3    -295    -41   -362    298    468 262.0 -60.8  34156  289.49 0854.55
2009/04/23 15:09:52.4    -397   -195   -256    443    511 243.8 -37.1  34176  289.83 0854.55
2009/04/23 15:09:52.5    -129    -79   -225    152    271 238.5 -67.6  34176  289.83 0854.55
2009/04/23 15:09:52.6    -303    -56   -247    309    395 259.5 -47.1  34168  289.71 0854.55
2009/04/23 15:09:52.7    -259   -132   -274    291    399 242.9 -52.6  34184  289.99 0854.55
2009/04/23 15:09:52.8    -232   -247   -145    340    369 223.2 -29.0  34178  289.89 0854.55
2009/04/23 15:09:52.9    -139   -273    -56    307    313 207.1 -10.4  34180  289.92 0854.55
2009/04/23 15:09:53.0    -130   -183   -117    225    253 215.4 -33.9  34182  289.93 0854.55
2009/04/23 15:09:53.1     -75   -300   -112    310    329 194.0 -25.0  34170  289.75 0854.55
2009/04/23 15:09:53.2      56   -401   -117    406    423 172.0 -16.2  34166  289.66 0854.55
2009/04/23 15:09:53.3    -113   -381   -110    398    414 196.5 -15.5  34162  289.61 0854.55
2009/04/23 15:09:53.4     -99   -289    -22    306    307 198.9  -4.1  34158  289.53 0854.55
2009/04/23 15:09:53.5     -31   -260   -132    262    293 186.9 -33.5  34162  289.61 0854.55
2009/04/23 15:09:53.6      29   -267    -96    269    286 173.7 -19.7  34158  289.53 0854.55
2009/04/23 15:09:53.7    -162   -235   -118    286    309 214.7 -28.0  34158  289.54 0854.55
2009/04/23 15:09:53.8    -345   -346   -162    489    516 224.9 -18.3  34154  289.47 0854.55
2009/04/23 15:09:53.9     -43   -438    -73    441    448 185.7  -9.4  34150  289.41 0854.55
2009/04/23 15:09:54.0      50   -415    -55    419    423 173.0  -7.6  34154  289.46 0854.57
2009/04/23 15:09:54.1      30   -427    -62    429    434 176.0  -8.2  34156  289.49 0854.57
2009/04/23 15:09:54.2     -43   -465    -90    468    477 185.4 -10.9  34152  289.42 0854.57
2009/04/23 15:09:54.3     138   -345   -104    372    386 158.2 -20.2  34154  289.47 0854.57
2009/04/23 15:09:54.4     163   -197    -86    256    271 140.4 -18.7  34150  289.41 0854.57
2009/04/23 15:09:54.5    -124   -251     42    281    285 206.3   8.5  34150  289.41 0854.57
2009/04/23 15:09:54.6    -191   -306    -37    361    364 212.0  -6.0  34152  289.42 0854.57
2009/04/23 15:09:54.7    -141   -440   -151    463    488 197.8 -18.1  34156  289.49 0854.57
2009/04/23 15:09:54.8    -154   -466   -119    491    506 198.3 -13.7  34156  289.49 0854.57
2009/04/23 15:09:54.9    -154   -413   -122    441    458 200.5 -15.5  34152  289.43 0854.57
2009/04/23 15:09:55.0    -192   -427    -98    469    480 204.2 -11.8  34156  289.50 0854.59
2009/04/23 15:09:55.1    -156   -376    -60    408    413 202.5  -8.4  34152  289.44 0854.59
2009/04/23 15:09:55.2     -55   -374     -8    379    380 188.5  -1.3  34154  289.48 0854.59
2009/04/23 15:09:55.3     -40   -375     82    378    387 186.2  12.3  34152  289.42 0854.59
2009/04/23 15:09:55.4     -74   -309    103    318    335 193.6  17.9  34154  289.48 0854.59
2009/04/23 15:09:55.5     -48   -257     99    262    280 190.7  21.5  34158  289.53 0854.59
2009/04/23 15:09:55.6     -30   -379     96    381    393 184.6  14.2  34162  289.59 0854.59
2009/04/23 15:09:55.7       4   -288    127    289    315 179.1  25.2  34220  290.58 0854.59
2009/04/23 15:09:55.8      26   -320    335    322    464 175.3  51.2  34220  290.60 0854.59
2009/04/23 15:09:55.9     -36   -251    150    254    294 188.2  33.4  34204  290.31 0854.59
2009/04/23 15:09:56.0     -60   -436    260    441    511 187.9  33.4  34186  290.01 0854.59
2009/04/23 15:09:56.1     131   -313    285    340    443 157.3  44.1  34196  290.17 0854.59
2009/04/23 15:09:56.2     150   -253    189    295    350 149.3  35.6  34180  289.91 0854.59
2009/04/23 15:09:56.3     168   -285    122    331    352 149.5  21.1  34178  289.86 0854.59
2009/04/23 15:09:56.4     179   -322    117    369    388 151.0  17.7  34158  289.55 0854.59
2009/04/23 15:09:56.5       9   -348    208    349    406 178.4  33.6  34166  289.67 0854.59
2009/04/23 15:09:56.6     -42   -308    169    311    353 187.8  30.9  34162  289.59 0854.59
2009/04/23 15:09:56.7       0   -283    130    284    312 180.0  26.4  34160  289.56 0854.59
2009/04/23 15:09:56.8     -43   -277     25    281    283 188.9   5.2  34160  289.56 0854.59
2009/04/23 15:09:56.9    -115   -245     52    271    277 205.2  11.0  34164  289.63 0854.59
2009/04/23 15:09:57.0     -50   -226     45    232    237 192.7  11.1  34168  289.70 0854.62
2009/04/23 15:09:57.1    -108   -327     89    345    357 198.4  14.5  34174  289.82 0854.62
2009/04/23 15:09:57.3    -126   -335      5    359    360 200.7   0.8  34174  289.81 0854.62
2009/04/23 15:09:57.4    -165   -245      4    296    297 214.1   0.8  34182  289.95 0854.62
2009/04/23 15:09:57.5      15   -189     59    190    199 175.3  17.3  34176  289.85 0854.62
2009/04/23 15:09:57.6      96   -252    120    270    295 159.1  25.3  34182  289.95 0854.62
2009/04/23 15:09:57.6      92   -371    275    383    471 166.1  39.2  34166  289.68 0854.62
2009/04/23 15:09:57.8     270   -326    294    424    515 140.3  38.0  34174  289.81 0854.62
2009/04/23 15:09:57.9     130   -340    154    365    396 159.0  24.2  34174  289.82 0854.62
2009/04/23 15:09:58.0     133   -423    143    444    467 162.5  17.9  34180  289.90 0854.62
2009/04/23 15:09:58.1      43   -398    -18    401    402 173.8  -2.7  34178  289.86 0854.62
2009/04/23 15:09:58.2       7   -379    -16    380    381 178.9  -2.5  34178  289.87 0854.62
2009/04/23 15:09:58.3     121   -317    130    340    364 159.0  22.0  34178  289.87 0854.62
2009/04/23 15:09:58.4     146   -327    288    359    460 155.9  42.9  34168  289.70 0854.62
2009/04/23 15:09:58.5     160   -191    226    250    337 139.9  46.9  34178  289.86 0854.62
2009/04/23 15:09:58.6     360   -503    281    619    679 144.4  26.2  34158  289.54 0854.62
2009/04/23 15:09:58.7     338   -745    132    819    830 155.6   9.2  34144  289.31 0854.62
2009/04/23 15:09:58.8     113   -750    232    759    794 171.4  17.0  34156  289.49 0854.62
2009/04/23 15:09:58.9     302   -566    161    642    662 151.9  14.2  34162  289.59 0854.62
2009/04/23 15:09:59.0     158   -534    -96    558    567 163.5  -9.8  34156  289.51 0854.62
2009/04/23 15:09:59.1      10   -511   -161    512    537 178.8 -17.5  34148  289.38 0854.62
2009/04/23 15:09:59.2    -191   -401   -139    445    466 205.5 -22.5  34148  289.38 0854.62
2009/04/23 15:09:59.3    -246   -587   -185    637    664 202.7 -16.2  34176  289.84 0854.62
2009/04/23 15:09:59.4    -294   -354   -202    461    503 219.7 -29.6  34156  289.52 0854.62
2009/04/23 15:09:59.5    -462   -594   -128    753    764 217.9  -9.7  34162  289.62 0854.62
2009/04/23 15:09:59.6    -352   -387   -288    524    597 222.3 -35.7  34160  289.56 0854.62
2009/04/23 15:09:59.7     -42   -383    -79    386    395 186.3 -11.6  34164  289.65 0854.62
2009/04/23 15:09:59.8     -15   -438   -227    439    494 182.0 -33.9  34174  289.81 0854.62
2009/04/23 15:09:59.9     100   -413   -179    426    462 166.3 -28.5  34174  289.82 0854.62
2009/04/23 15:10:00.0     194   -425    -30    468    469 155.5  -3.7  34170  289.73 0854.62
2009/04/23 15:10:00.1     225   -330      4    400    401 145.7   0.7  34152  289.43 0854.62
2009/04/23 15:10:00.2     317   -328    261    457    526 136.0  32.3  34146  289.35 0854.62
2009/04/23 15:10:00.3     121   -496    158    511    535 166.2  17.2  34144  289.29 0854.62
2009/04/23 15:10:00.4     218   -479    124    527    542 155.5  13.2  34152  289.43 0854.62
2009/04/23 15:10:00.5     110   -409    199    424    468 164.9  27.0  34152  289.44 0854.62
2009/04/23 15:10:00.6     156   -353    224    387    447 156.2  32.7  34148  289.36 0854.62
2009/04/23 15:10:00.7     169   -434    267    466    537 158.7  32.4  34132  289.10 0854.62
2009/04/23 15:10:00.8     218   -396    159    453    480 151.2  20.2  34144  289.30 0854.62
2009/04/23 15:10:00.9     181   -349    207    394    445 152.6  30.0  34144  289.31 0854.62
2009/04/23 15:10:01.0     315   -489    310    582    659 147.2  30.3  34152  289.42 0854.62
2009/04/23 15:10:01.1     373   -653     98    753    760 150.3   7.5  34158  289.53 0854.62
2009/04/23 15:10:01.2     102   -632    -61    641    645 170.8  -5.5  34166  289.67 0854.62
2009/04/23 15:10:01.3      96   -558    -38    567    569 170.2  -3.9  34166  289.68 0854.62
2009/04/23 15:10:01.4     162   -285      0    328    329 150.4   0.0  34162  289.60 0854.62
2009/04/23 15:10:01.5     233   -246     97    339    353 136.6  16.0  34168  289.72 0854.62
2009/04/23 15:10:01.6     228   -165    -27    282    284 125.9  -5.6  34162  289.61 0854.62
2009/04/23 15:10:01.7     254   -246   -120    354    373 134.1 -23.7  34170  289.74 0854.62
2009/04/23 15:10:01.8     310   -243    -53    395    399 128.1  -7.7  34158  289.55 0854.62
2009/04/23 15:10:01.9     243   -124     27    274    276 117.1   5.7  34160  289.56 0854.62
2009/04/23 15:10:02.0     200    -76     73    215    228 110.8  18.9  34156  289.50 0854.62
2009/04/23 15:10:02.1     238   -159     42    287    291 123.7   8.5  34154  289.46 0854.62
2009/04/23 15:10:02.2     212   -250    -30    329    331 139.7  -5.3  34164  289.64 0854.62
2009/04/23 15:10:02.3     188   -244      2    309    310 142.4   0.5  34166  289.66 0854.62
2009/04/23 15:10:02.4     124   -135   -136    184    228 137.5 -44.3  34152  289.45 0854.62
2009/04/23 15:10:02.5      11    -83    -25     84     87 172.0 -21.7  34146  289.33 0854.62
2009/04/23 15:10:02.6    -356    282     54    455    459 308.4   6.9  34154  289.48 0854.62
2009/04/23 15:10:02.7     -74    320   -148    329    360 347.0 -30.2  34142  289.26 0854.62
2009/04/23 15:10:02.8     108    135    -80    174    191  38.7 -31.0  34158  289.53 0854.62
2009/04/23 15:10:02.9     170    -80   -249    189    312 115.3 -63.5  34160  289.56 0854.62
2009/04/23 15:10:03.0     226     20   -251    227    338  84.8 -57.6  34138  289.20 0854.62
2009/04/23 15:10:03.1     245     18    -75    246    258  85.6 -17.0  34156  289.49 0854.63
2009/04/23 15:10:03.2     120     43    140    128    189  70.1  52.7  34152  289.43 0854.63
2009/04/23 15:10:03.3     290    138    218    322    388  64.5  37.3  34158  289.55 0854.63
2009/04/23 15:10:03.4     289    115    242    312    394  68.3  41.7  34162  289.59 0854.63
2009/04/23 15:10:03.5     203     32    231    206    309  81.0  54.0  34146  289.32 0854.63
2009/04/23 15:10:03.6     261    345     81    433    441  37.1  10.6  34138  289.21 0854.63
2009/04/23 15:10:03.7     -38    275     28    278    280 352.0   5.9  34156  289.51 0854.63
2009/04/23 15:10:03.8      42    -55    184     70    196 142.2  78.2  34164  289.63 0854.63
2009/04/23 15:10:03.9     269    -37   -119    272    296  98.0 -29.5  34162  289.61 0854.63
2009/04/23 15:10:04.0     413    -57    105    417    430  97.9  14.2  34152  289.44 0854.63
2009/04/23 15:10:04.1      86   -464    176    472    503 169.4  21.5  34150  289.40 0854.63
2009/04/23 15:10:04.2     361   -133    -16    385    386 110.3  -2.5  34148  289.38 0854.63
2009/04/23 15:10:04.3     286   -140     70    319    327 116.2  12.4  34150  289.41 0854.63
2009/04/23 15:10:04.4     -61   -451    300    456    545 187.7  36.5  34146  289.32 0854.63
2009/04/23 15:10:04.5     -62   -260    255    268    369 193.6  48.6  34152  289.45 0854.63
2009/04/23 15:10:04.6      12   -308    459    309    553 177.8  62.8  34166  289.67 0854.63
2009/04/23 15:10:04.7    -113   -401    468    417    626 195.8  53.9  34158  289.55 0854.63
2009/04/23 15:10:04.8      59    152    369    164    403  21.4  74.5  34158  289.54 0854.63
2009/04/23 15:10:04.9      34     77    278     85    290  23.6  82.7  34172  289.78 0854.63
2009/04/23 15:10:05.0     -15    149    227    150    272 354.2  63.6  34164  289.63 0854.64
2009/04/23 15:10:05.1     -12    324    186    325    374 357.8  32.3  34156  289.50 0854.64
2009/04/23 15:10:05.2     -89    438    156    448    475 348.4  19.2  34170  289.73 0854.64
2009/04/23 15:10:05.3    -117    354    129    373    395 341.7  19.2  34166  289.69 0854.64
2009/04/23 15:10:05.4     -52    309    113    314    333 350.4  20.7  34158  289.54 0854.64
2009/04/23 15:10:05.5     -83    300     99    312    328 344.4  17.7  34160  289.56 0854.64
2009/04/23 15:10:05.6     -94    272     67    289    297 340.8  13.1  34166  289.68 0854.64
2009/04/23 15:10:05.7     -66    437    137    442    463 351.4  17.3  34164  289.63 0854.64
2009/04/23 15:10:05.8     -49    299     48    304    308 350.7   9.0  34176  289.83 0854.64
2009/04/23 15:10:05.9     -66     66    125     94    156 314.9  59.4  34172  289.79 0854.64
2009/04/23 15:10:06.0    -155    -49     35    163    167 252.3  12.4  34166  289.67 0854.64
2009/04/23 15:10:06.1     -56     38   -100     68    120 304.2 -67.0  34156  289.50 0854.64
2009/04/23 15:10:06.2     -78    -97    -44    125    132 218.7 -23.8  34162  289.60 0854.64
2009/04/23 15:10:06.3    -124   -147     55    193    201 220.1  16.0  34152  289.45 0854.64
2009/04/23 15:10:06.4      -8   -208    123    209    242 182.2  33.5  34160  289.57 0854.64
2009/04/23 15:10:06.5     101   -265     46    284    288 159.1   9.3  34166  289.66 0854.64
2009/04/23 15:10:06.6      -3    -48    250     49    254 184.5  89.6  34180  289.91 0854.64
2009/04/23 15:10:06.7     163    -54    198    172    262 108.4  54.3  34162  289.61 0854.64
2009/04/23 15:10:06.8     -83   -311    352    322    477 195.1  52.9  34178  289.88 0854.64
2009/04/23 15:10:06.9     -22   -171    287    173    335 187.6  66.2  34188  290.05 0854.64
2009/04/23 15:10:07.0      30   -111     98    116    151 164.8  44.3  34180  289.92 0854.64
2009/04/23 15:10:07.1    -121    -72    -60    141    153 239.3 -28.5  34170  289.74 0854.64
2009/04/23 15:10:07.2    -318    -41   -291    321    433 262.5 -51.3  34130  289.06 0854.64
2009/04/23 15:10:07.3    -417    376     28    562    563 312.1   2.9  34108  288.69 0854.64
2009/04/23 15:10:07.4    -322    237    347    400    529 306.4  45.4  34150  289.39 0854.64
2009/04/23 15:10:07.5    -199    -88    203    218    297 246.0  47.9  34164  289.64 0854.64
2009/04/23 15:10:07.6     -96    -90    128    132    183 226.8  49.4  34158  289.55 0854.64
2009/04/23 15:10:07.7    -208    -55     70    216    228 255.0  17.9  34148  289.36 0854.64
2009/04/23 15:10:07.8    -181     73     78    196    210 292.0  23.0  34156  289.50 0854.64
2009/04/23 15:10:07.9    -320    185     91    370    382 300.1  13.8  34184  289.98 0854.64
2009/04/23 15:10:08.0    -461    170    135    492    511 290.3  15.4  34188  290.06 0854.64
2009/04/23 15:10:08.1    -515    326     30    610    611 302.4   2.9  34198  290.22 0854.64
2009/04/23 15:10:08.2    -697    288     65    755    758 292.5   5.0  34194  290.16 0854.64
2009/04/23 15:10:08.3    -561    382      0    679    680 304.3   0.0  34168  289.71 0854.64
2009/04/23 15:10:08.4    -335    218    156    401    430 303.1  22.4  34186  290.00 0854.64
2009/04/23 15:10:08.5    -501    172    123    530    545 289.0  13.1  34172  289.77 0854.64
2009/04/23 15:10:08.6    -497    253     24    558    559 297.0   2.5  34164  289.65 0854.64
2009/04/23 15:10:08.7    -359    277     -9    454    455 307.7  -1.2  34170  289.75 0854.64
2009/04/23 15:10:08.8    -274     87   -158    288    328 287.7 -35.7  34174  289.81 0854.64
2009/04/23 15:10:08.9     -97    218   -120    239    267 335.9 -32.9  34184  289.98 0854.64
2009/04/23 15:10:09.0    -109   -109    -43    155    161 225.1 -15.5  34184  289.99 0854.63
2009/04/23 15:10:09.1     -75   -131     21    152    154 209.9   8.0  34182  289.94 0854.63
2009/04/23 15:10:09.2    -527   -166    -85    553    560 252.5  -8.8  34188  290.06 0854.63
2009/04/23 15:10:09.3    -173   -454    -75    487    493 200.9  -8.8  34178  289.88 0854.63
2009/04/23 15:10:09.4     -32   -181     20    184    186 190.2   6.5  34178  289.89 0854.63
2009/04/23 15:10:09.5    -133   -294    249    323    407 204.3  41.6  34202  290.27 0854.63
2009/04/23 15:10:09.6      -7   -223    162    224    276 182.0  39.5  34166  289.66 0854.63
2009/04/23 15:10:09.7    -139   -354    321    381    498 201.5  44.3  34216  290.53 0854.63
2009/04/23 15:10:09.8    -150   -368    296    398    496 202.2  40.2  34222  290.62 0854.63
2009/04/23 15:10:09.9     -59   -373    402    378    551 189.1  52.1  34196  290.18 0854.63
2009/04/23 15:10:10.0     -44   -373    450    376    586 186.9  56.0  34200  290.26 0854.63
2009/04/23 15:10:10.1      60   -139    358    152    388 156.4  75.7  34202  290.30 0854.63
2009/04/23 15:10:10.2    -179   -216    421    281    506 219.7  63.3  34190  290.07 0854.63
2009/04/23 15:10:10.3    -407   -242    290    474    555 239.3  34.4  34176  289.84 0854.63
2009/04/23 15:10:10.4    -363    -28     93    365    377 265.5  14.3  34182  289.96 0854.63
2009/04/23 15:10:10.5     -64   -377    409    383    560 189.7  52.2  34178  289.88 0854.63
2009/04/23 15:10:10.6    -402   -423    424    584    721 223.6  39.5  34162  289.61 0854.63
2009/04/23 15:10:10.7    -135   -499    514    518    729 195.2  49.9  34174  289.80 0854.63
2009/04/23 15:10:10.8       3   -229    480    230    532 179.1  72.8  34170  289.75 0854.63
2009/04/23 15:10:10.9    -139   -293    467    325    568 205.5  61.7  34178  289.88 0854.63
2009/04/23 15:10:11.0    -277   -147    131    314    340 242.0  23.8  34158  289.55 0854.63
2009/04/23 15:10:11.1    -269   -281    170    390    425 223.8  25.1  34170  289.73 0854.63
2009/04/23 15:10:11.2    -236   -464    243    521    574 207.0  27.1  34176  289.84 0854.63
2009/04/23 15:10:11.3    -317   -476    201    573    608 213.7  19.4  34170  289.73 0854.63
2009/04/23 15:10:11.4    -390   -550    316    675    745 215.3  27.0  34164  289.64 0854.63
2009/04/23 15:10:11.5    -358   -241    203    432    477 236.1  27.0  34186  290.00 0854.63
2009/04/23 15:10:11.6    -367   -106     97    383    396 253.8  14.3  34184  289.99 0854.63
2009/04/23 15:10:11.7    -323   -237     91    401    412 233.7  12.9  34184  289.99 0854.63
2009/04/23 15:10:11.8    -398   -398    123    563    577 225.0  12.4  34182  289.93 0854.63
2009/04/23 15:10:11.9    -386   -451    202    594    628 220.5  18.8  34164  289.64 0854.63
2009/04/23 15:10:12.0    -191   -419    143    461    483 204.5  17.3  34160  289.57 0854.63
2009/04/23 15:10:12.1    -285   -283    222    402    459 225.2  31.4  34176  289.83 0854.63
2009/04/23 15:10:12.2    -121   -100     -3    158    159 230.4  -1.1  34178  289.89 0854.63
2009/04/23 15:10:12.3    -324   -197    -48    380    384 238.7  -7.3  34172  289.79 0854.63
2009/04/23 15:10:12.4    -525   -176   -110    555    566 251.4 -11.2  34192  290.13 0854.63
2009/04/23 15:10:12.5    -566   -162    -33    589    590 254.0  -3.3  34192  290.10 0854.63
2009/04/23 15:10:12.6    -402   -239     -9    468    469 239.3  -1.1  34186  290.00 0854.63
2009/04/23 15:10:12.7    -320   -204    -21    380    381 237.5  -3.2  34188  290.04 0854.63
2009/04/23 15:10:12.8    -213   -175     49    276    281 230.5  10.1  34198  290.22 0854.63
2009/04/23 15:10:12.9    -236    -13    185    237    300 266.7  41.7  34186  290.00 0854.63
2009/04/23 15:10:13.0    -245   -315    255    400    474 217.9  35.6  34190  290.09 0854.66
2009/04/23 15:10:13.1    -203   -404    223    453    504 206.7  28.2  34182  289.95 0854.66
2009/04/23 15:10:13.2    -122   -402    175    421    455 197.0  23.9  34184  289.99 0854.66
2009/04/23 15:10:13.3    -113   -340    380    359    522 198.5  52.0  34194  290.15 0854.66
2009/04/23 15:10:13.4     -55   -159    328    169    368 199.2  70.8  34218  290.54 0854.66
2009/04/23 15:10:13.5    -174   -157    164    235    286 227.8  38.4  34204  290.32 0854.66
2009/04/23 15:10:13.6    -337   -164    125    376    397 244.0  18.5  34208  290.40 0854.66
2009/04/23 15:10:13.7    -280    -99    196    298    356 250.5  36.5  34210  290.42 0854.66
2009/04/23 15:10:13.8    -223    -20    107    224    248 264.8  27.3  34210  290.41 0854.66
2009/04/23 15:10:13.9    -282     75    137    292    322 285.0  27.1  34216  290.51 0854.66
2009/04/23 15:10:14.0    -332   -152    129    366    389 245.4  19.4  34230  290.76 0854.66
2009/04/23 15:10:14.1     -73   -166    210    182    277 203.8  54.6  34248  291.05 0854.66
2009/04/23 15:10:14.2    -234   -172    162    291    333 233.6  31.4  34248  291.05 0854.66
2009/04/23 15:10:14.3    -380   -276    -63    470    475 234.0  -7.7  34182  289.93 0854.66
2009/04/23 15:10:14.4    -363   -247    -89    440    449 235.7 -11.5  34186  290.02 0854.66
2009/04/23 15:10:14.5    -366   -105     68    381    388 253.9  10.1  34222  290.64 0854.66
2009/04/23 15:10:14.6    -335   -172     59    377    382 242.7   9.0  34192  290.10 0854.66
2009/04/23 15:10:14.7    -401   -216     39    456    458 241.6   5.0  34184  289.97 0854.66
2009/04/23 15:10:14.8    -429   -274     10    510    511 237.4   1.2  34178  289.88 0854.66
2009/04/23 15:10:14.9    -344    -99     62    359    365 253.9   9.9  34208  290.38 0854.66
2009/04/23 15:10:15.0    -345    -77     17    354    355 257.4   2.8  34208  290.40 0854.65
2009/04/23 15:10:15.1    -330    -21    -21    331    332 266.2  -3.7  34216  290.52 0854.65
2009/04/23 15:10:15.2    -285   -123    -21    311    312 246.7  -4.0  34218  290.54 0854.65
2009/04/23 15:10:15.3    -237    -92     -9    255    256 248.7  -2.2  34208  290.37 0854.65
2009/04/23 15:10:15.4    -162    -75     23    179    181 245.2   7.5  34212  290.47 0854.65
2009/04/23 15:10:15.5    -138   -167    -43    217    222 219.6 -11.3  34212  290.47 0854.65
2009/04/23 15:10:15.6    -247   -192    -85    313    324 232.2 -20.0  34212  290.46 0854.65
2009/04/23 15:10:15.7    -133   -142   -101    195    219 223.2 -33.9  34216  290.52 0854.65
2009/04/23 15:10:15.8     -57   -220   -190    228    296 194.7 -48.2  34182  289.93 0854.65
2009/04/23 15:10:15.9    -114   -339   -101    358    371 198.6 -20.2  34184  289.99 0854.65
2009/04/23 15:10:16.0     -71   -321   -117    329    350 192.5 -19.7  34192  290.11 0854.61
2009/04/23 15:10:16.1    -268   -331   -110    426    441 219.0 -14.5  34202  290.28 0854.61
2009/04/23 15:10:16.2    -214   -228    -99    313    328 223.2 -22.6  34210  290.42 0854.61
2009/04/23 15:10:16.3    -207   -240   -110    317    335 220.8 -24.3  34212  290.45 0854.61
2009/04/23 15:10:16.4    -333   -302    163    450    479 227.8  19.9  34222  290.61 0854.61
2009/04/23 15:10:16.5    -367    -34      5    369    370 264.6   0.9  34246  291.03 0854.61
2009/04/23 15:10:16.6    -252   -282     19    379    380 221.8   2.9  34244  291.01 0854.61
2009/04/23 15:10:16.7    -265   -255   -116    369    387 226.1 -17.5  34210  290.42 0854.61
2009/04/23 15:10:16.8    -385   -366   -157    532    555 226.4 -16.5  34162  289.60 0854.61
2009/04/23 15:10:16.9    -588   -307   -139    664    679 242.4 -11.9  34234  290.83 0854.61
2009/04/23 15:10:17.0    -496   -443    -78    666    671 228.2  -6.7  34208  290.39 0854.61
2009/04/23 15:10:17.1    -472   -312   -169    567    592 236.5 -16.6  34222  290.63 0854.61
2009/04/23 15:10:17.2    -382   -340   -146    512    532 228.3 -20.7  34202  290.28 0854.61
2009/04/23 15:10:17.3    -644   -269   -252    699    743 247.3 -25.2  34192  290.10 0854.61
2009/04/23 15:10:17.4    -384   -373   -230    536    583 225.9 -29.2  34204  290.33 0854.61
2009/04/23 15:10:17.5     -32   -354   -214    356    415 185.3 -38.2  34202  290.27 0854.61
2009/04/23 15:10:17.6     184   -459   -149    495    518 158.1 -16.8  34222  290.62 0854.61
2009/04/23 15:10:17.7      10   -237    198    238    309 177.4  43.8  34210  290.42 0854.61
2009/04/23 15:10:17.8    -625   -340   -132    712    725 241.4 -10.5  34142  289.27 0854.61
2009/04/23 15:10:17.9    -636   -211   -247    671    715 251.6 -25.5  34154  289.47 0854.61
2009/04/23 15:10:18.0    -614   -477   -152    778    793 232.1 -11.1  34166  289.68 0854.59
2009/04/23 15:10:18.1    -454   -272   -353    530    636 239.1 -41.3  34146  289.34 0854.59
2009/04/23 15:10:18.2    -477   -169   -335    507    607 250.5 -40.9  34148  289.37 0854.59
2009/04/23 15:10:18.3    -396   -276   -359    483    601 235.1 -44.6  34154  289.48 0854.59
2009/04/23 15:10:18.4    -321   -359   -166    482    509 221.8 -24.3  34150  289.39 0854.59
2009/04/23 15:10:18.5    -268   -116   -382    293    481 246.5 -63.1  34134  289.12 0854.59
2009/04/23 15:10:18.6    -381   -153   -212    411    462 248.0 -33.7  34136  289.17 0854.59
2009/04/23 15:10:18.7    -248    -34   -307    251    396 262.0 -61.0  34152  289.42 0854.59
2009/04/23 15:10:18.8      56     41   -255     70    264  54.1 -89.2  34174  289.80 0854.59
2009/04/23 15:10:18.9      63   -186   -251    197    319 161.1 -62.3  34158  289.53 0854.59
2009/04/23 15:10:19.0    -218   -253   -127    335    358 220.8 -26.1  34144  289.30 0854.59
2009/04/23 15:10:19.1    -301   -194   -104    359    373 237.2 -20.9  34136  289.15 0854.59
2009/04/23 15:10:19.2    -324     -2    -67    325    333 269.6 -11.8  34188  290.06 0854.59
2009/04/23 15:10:19.3    -176    -38    -91    181    202 257.6 -33.5  34180  289.91 0854.59
2009/04/23 15:10:19.4    -291   -116   -145    314    345 248.3 -31.0  34170  289.74 0854.59
2009/04/23 15:10:19.5    -347   -101   -194    362    410 253.7 -34.9  34182  289.93 0854.59
2009/04/23 15:10:19.6    -392   -226   -156    453    480 240.0 -19.1  34188  290.06 0854.59
2009/04/23 15:10:19.7    -468   -222   -143    518    538 244.6 -15.5  34190  290.07 0854.59
2009/04/23 15:10:19.8    -522   -234   -165    573    596 245.8 -20.9  34194  290.14 0854.59
2009/04/23 15:10:19.9    -579   -231   -293    624    689 248.2 -31.5  34174  289.80 0854.59
2009/04/23 15:10:20.0    -403   -258   -107    479    491 237.4 -12.7  34178  289.86 0854.59
2009/04/23 15:10:20.1    -313   -301    172    435    467 226.1  22.7  34210  290.41 0854.59
2009/04/23 15:10:20.2    -468   -333    176    575    602 234.5  17.0  34218  290.54 0854.59
2009/04/23 15:10:20.3    -398   -308    201    504    542 232.3  23.0  34184  289.97 0854.59
2009/04/23 15:10:20.4    -257   -391    346    469    582 213.4  40.0  34196  290.19 0854.59
2009/04/23 15:10:20.5    -314   -503    361    594    695 212.0  34.2  34188  290.05 0854.59
2009/04/23 15:10:20.6    -294   -554    370    628    728 208.0  33.3  34200  290.25 0854.59
2009/04/23 15:10:20.7    -394   -439    285    590    655 221.9  27.7  34202  290.30 0854.59
2009/04/23 15:10:20.8    -261   -488    311    554    635 208.1  31.9  34186  290.02 0854.59
2009/04/23 15:10:20.9    -151   -356    255    387    463 203.0  36.5  34202  290.29 0854.59
2009/04/23 15:10:21.0     -80   -250    302    263    400 197.8  54.7  34196  290.18 0854.59
2009/04/23 15:10:21.1    -126   -320    346    344    487 201.5  50.1  34212  290.44 0854.59
2009/04/23 15:10:21.2     -91   -291    171    305    349 197.4  31.9  34230  290.77 0854.59
2009/04/23 15:10:21.3     -29     21    205     36    208 306.0  90.0  34208  290.38 0854.59
2009/04/23 15:10:21.4     -78    -40    227     88    243 242.9  78.2  34216  290.52 0854.59
2009/04/23 15:10:21.5    -184   -190    314    265    410 224.1  55.6  34202  290.30 0854.59
2009/04/23 15:10:21.6    -238   -257    373    351    512 222.8  52.1  34206  290.34 0854.59
2009/04/23 15:10:21.7    -306   -325    226    447    500 223.3  28.8  34208  290.39 0854.59
2009/04/23 15:10:21.8    -167   -297    156    342    375 209.4  26.3  34196  290.18 0854.59
2009/04/23 15:10:21.9    -187   -152     77    242    254 230.9  17.7  34184  289.97 0854.59
2009/04/23 15:10:22.0    -104    -57     62    119    134 241.1  29.3  34196  290.18 0854.56
2009/04/23 15:10:22.1    -126    -99     -6    161    162 231.8  -2.2  34192  290.13 0854.56
2009/04/23 15:10:22.2    -197    -69    -26    209    211 250.5  -7.3  34202  290.28 0854.56
2009/04/23 15:10:22.3    -256   -162     44    304    308 237.6   8.2  34200  290.26 0854.56
2009/04/23 15:10:22.4    -198     21     64    200    211 276.1  17.9  34218  290.55 0854.56
2009/04/23 15:10:22.5    -112    177     74    210    223 327.7  19.4  34186  290.01 0854.56
2009/04/23 15:10:22.6    -137    219     13    259    260 327.9   2.9  34166  289.66 0854.56
2009/04/23 15:10:22.7     -68    124    -16    142    143 331.0  -6.7  34174  289.82 0854.56
2009/04/23 15:10:22.8     -14    -14     11     21     23 225.1  29.3  34178  289.87 0854.56
2009/04/23 15:10:22.9     -22   -132    -12    134    135 189.8  -5.2  34192  290.13 0854.56
2009/04/23 15:10:23.0      -2   -142    -31    143    147 180.9 -12.4  34190  290.09 0854.56
2009/04/23 15:10:23.1       2   -143    -76    144    162 179.1 -34.7  34188  290.04 0854.56
2009/04/23 15:10:23.2      -2   -158    -72    159    174 181.0 -30.6  34178  289.89 0854.56
2009/04/23 15:10:23.3      -7   -153    -79    154    173 182.7 -33.7  34178  289.87 0854.56
2009/04/23 15:10:23.4      -8   -173    -49    174    180 182.7 -20.2  34178  289.87 0854.56
2009/04/23 15:10:23.5     -54   -220     15    227    228 194.0   3.8  34186  290.01 0854.56
2009/04/23 15:10:23.7    -189   -204     41    279    283 222.8   8.5  34196  290.17 0854.56
2009/04/23 15:10:23.8    -242   -189     -6    308    309 232.0  -1.2  34190  290.09 0854.56
2009/04/23 15:10:23.9    -263    -89    100    278    295 251.2  20.9  34194  290.15 0854.56
2009/04/23 15:10:24.0    -279     -4     89    280    294 269.0  17.7  34198  290.22 0854.56
2009/04/23 15:10:24.1    -233     20    -60    234    242 275.0 -14.4  34200  290.24 0854.53
2009/04/23 15:10:24.2    -192     39    -21    196    198 281.5  -6.2  34198  290.23 0854.53
2009/04/23 15:10:24.3    -129    151     -4    199    200 319.5  -1.2  34202  290.28 0854.53
2009/04/23 15:10:24.4       2    169    -38    170    175   0.9 -12.6  34196  290.18 0854.53
2009/04/23 15:10:24.5      32    166    -47    170    176  11.1 -20.0  34196  290.18 0854.53
2009/04/23 15:10:24.6      73    143    -56    161    171  27.2 -19.4  34174  289.82 0854.53
2009/04/23 15:10:24.7      16     57    -86     60    104  16.0 -65.9  34160  289.58 0854.53
2009/04/23 15:10:24.8     -12     33    -64     36     73 340.0 -73.2  34170  289.75 0854.53
2009/04/23 15:10:24.9     -25     37    -50     45     67 325.7 -56.6  34170  289.74 0854.53
2009/04/23 15:10:25.0      24     44    -49     51     70  29.0 -53.4  34156  289.50 0854.53
2009/04/23 15:10:25.1     -49     75     -8     90     91 326.6  -5.2  34160  289.57 0854.53
2009/04/23 15:10:25.2    -127     89     51    156    165 305.1  18.1  34178  289.87 0854.53
2009/04/23 15:10:25.3    -124     67     -2    141    142 298.4  -1.2  34128  289.02 0854.53
2009/04/23 15:10:25.4    -163     19    -59    165    176 276.8 -19.7  34124  288.97 0854.53
2009/04/23 15:10:25.5    -167     23    -55    169    178 278.1 -18.1  34132  289.11 0854.53
2009/04/23 15:10:25.6    -212     85    -72    229    241 292.0 -17.5  34138  289.19 0854.53
2009/04/23 15:10:25.7    -125     27     -5    129    130 282.4  -2.2  34144  289.30 0854.53
2009/04/23 15:10:25.8    -110    -68    104    130    166 238.0  43.3  34150  289.41 0854.53
2009/04/23 15:10:25.9    -105   -106     80    150    170 224.5  30.3  34140  289.23 0854.53
2009/04/23 15:10:26.0     -23   -113     49    116    125 191.5  24.1  34140  289.24 0854.53
2009/04/23 15:10:26.1     -50    -96    -14    109    110 207.6  -7.3  34154  289.48 0854.53
2009/04/23 15:10:26.2      73    -81     40    110    117 138.1  20.9  34154  289.48 0854.53
2009/04/23 15:10:26.3     169    -88     11    191    192 117.5   3.3  34236  290.87 0854.53
2009/04/23 15:10:26.4     182   -152    -18    238    239 129.8  -4.4  34238  290.88 0854.53
2009/04/23 15:10:26.5     105    -98    -41    144    150 133.1 -16.0  34228  290.72 0854.53
2009/04/23 15:10:26.6      63    -34     31     72     78 118.8  24.1  34250  291.11 0854.53
2009/04/23 15:10:26.7     147     45    102    154    184  72.7  36.5  34234  290.82 0854.53
2009/04/23 15:10:26.8     199     93     76    220    234  64.8  19.2  34256  291.21 0854.53
2009/04/23 15:10:26.9     142     53     40    152    158  69.2  15.0  34288  291.76 0854.53
2009/04/23 15:10:27.0     185      4     82    186    203  88.5  25.1  34260  291.26 0854.53
2009/04/23 15:10:27.1     128     22     79    131    152  79.9  34.4  34296  291.89 0854.53
2009/04/23 15:10:27.2      89     16    112     91    144  79.4  56.4  34290  291.77 0854.53
2009/04/23 15:10:27.3      36     11    106     38    112  71.8  80.2  34298  291.93 0854.53
2009/04/23 15:10:27.4     -21     21     73     30     78 315.0  77.1  34308  292.10 0854.53
2009/04/23 15:10:27.5     -32    -25     99     41    107 232.2  77.0  34296  291.88 0854.53
2009/04/23 15:10:27.6     -53    -53    110     75    133 225.0  62.7  34258  291.25 0854.53
2009/04/23 15:10:27.7     -75    -63    102     99    142 230.0  50.7  34264  291.35 0854.53
2009/04/23 15:10:27.8     -57    -19     88     61    107 251.4  62.1  34282  291.64 0854.53
2009/04/23 15:10:27.9     -48     16     63     51     81 288.4  56.9  34276  291.55 0854.53
2009/04/23 15:10:28.0     -21     13     31     26     40 302.4  55.4  34264  291.35 0854.53
2009/04/23 15:10:28.1     -20     17     33     27     42 309.5  55.4  34262  291.32 0854.55
2009/04/23 15:10:28.2       8     20      6     22     23  21.8  15.3  34258  291.25 0854.55
2009/04/23 15:10:28.3      -6     83      0     84     85 355.6   0.2  34256  291.20 0854.55
2009/04/23 15:10:28.4      15     74     12     76     77  11.5   9.0  34250  291.11 0854.55
2009/04/23 15:10:28.5      -1     68     18     69     72 359.1  15.2  34250  291.09 0854.55
2009/04/23 15:10:28.6     -78    113    -48    138    147 325.3 -19.1  34226  290.70 0854.55
2009/04/23 15:10:28.7    -100    191    -27    216    218 332.4  -7.2  34220  290.58 0854.55
2009/04/23 15:10:28.8     -30    271    -15    273    274 353.5  -3.3  34254  291.16 0854.55
2009/04/23 15:10:28.9     -89    242    -11    259    260 339.7  -2.6  34260  291.26 0854.55
2009/04/23 15:10:29.0     -84    234     -7    249    250 340.2  -1.6  34212  290.44 0854.55
2009/04/23 15:10:29.1      63    267     64    275    283  13.4  13.2  34186  290.00 0854.55
2009/04/23 15:10:29.2      38    251    103    254    274   8.7  23.1  34164  289.63 0854.55
2009/04/23 15:10:29.3     -46    226    111    231    256 348.4  27.3  34168  289.70 0854.55
2009/04/23 15:10:29.4    -171    224     72    283    293 322.6  14.3  34190  290.07 0854.55
2009/04/23 15:10:29.5    -234    154     44    281    285 303.3   9.0  34204  290.31 0854.55
2009/04/23 15:10:29.6    -194     77    152    209    258 291.7  39.7  34232  290.78 0854.55
2009/04/23 15:10:29.7    -192    126    168    230    284 303.3  39.7  34228  290.71 0854.55
2009/04/23 15:10:29.8     -11    144    127    145    192 355.5  45.8  34222  290.62 0854.55
2009/04/23 15:10:29.9      38    112    134    119    179  18.7  53.7  34216  290.53 0854.55
2009/04/23 15:10:30.0     100     36    124    107    163  70.0  54.6  34208  290.40 0854.55
2009/04/23 15:10:30.1      67    -49    129     84    153 126.0  64.6  34228  290.72 0854.60
2009/04/23 15:10:30.2      31   -153    122    157    198 168.5  41.7  34222  290.64 0854.60
2009/04/23 15:10:30.3      76   -210    149    224    269 160.0  36.5  34212  290.44 0854.60
2009/04/23 15:10:30.4     121   -137     99    183    208 138.6  30.8  34214  290.50 0854.60
2009/04/23 15:10:30.5     178   -178     49    253    258 135.0  11.0  34238  290.90 0854.60
2009/04/23 15:10:30.6     160   -115     83    198    214 125.7  23.8  34254  291.16 0854.60
2009/04/23 15:10:30.7     169    -74     75    185    199 113.7  23.4  34204  290.31 0854.60
2009/04/23 15:10:30.8     167    -29     89    170    191 100.1  29.8  34178  289.87 0854.60
2009/04/23 15:10:30.9     190    -12    140    191    236  93.7  39.7  34190  290.08 0854.60
2009/04/23 15:10:31.0     118      0    173    119    209  90.4  62.4  34206  290.36 0854.60
2009/04/23 15:10:31.1     256     31    202    258    327  83.0  42.1  34170  289.75 0854.60
2009/04/23 15:10:31.2     303    132    250    331    414  66.4  40.7  34198  290.23 0854.60
2009/04/23 15:10:31.3     213    148    255    260    364  55.1  49.7  34220  290.60 0854.60
2009/04/23 15:10:31.4     -32    -90    243     96    261 199.6  77.4  34180  289.92 0854.60
2009/04/23 15:10:31.5      10      0    175     11    175  90.0  90.0  34182  289.96 0854.60
2009/04/23 15:10:31.6     -18    -96    109     98    146 191.1  53.3  34190  290.08 0854.60
2009/04/23 15:10:31.7     -47   -115    158    125    201 202.3  57.7  34164  289.65 0854.60
2009/04/23 15:10:31.8     -55   -190    110    198    226 196.3  31.4  34170  289.74 0854.60
2009/04/23 15:10:31.9     -32    -76     96     83    126 203.2  54.3  34180  289.92 0854.60
2009/04/23 15:10:32.0    -112     -9    151    113    188 265.2  59.4  34200  290.26 0854.60
2009/04/23 15:10:32.1    -154    -47    119    162    201 253.1  39.9  34232  290.81 0854.60
2009/04/23 15:10:32.2    -244    -52    127    250    280 257.8  29.2  34196  290.19 0854.60
2009/04/23 15:10:32.3    -213   -199    142    292    324 226.9  27.8  34198  290.20 0854.60
2009/04/23 15:10:32.4    -274   -100      1    292    293 250.0   0.2  34222  290.63 0854.60
2009/04/23 15:10:32.5    -380   -127    -15    401    402 251.4  -2.2  34222  290.62 0854.60
2009/04/23 15:10:32.6    -465   -132    -47    484    487 254.1  -5.6  34200  290.25 0854.60
2009/04/23 15:10:32.7    -367   -133   -121    391    410 250.0 -17.3  34206  290.34 0854.60
2009/04/23 15:10:32.8    -263   -237    -58    355    360 228.0  -9.3  34210  290.43 0854.60
2009/04/23 15:10:32.9    -154   -199     44    252    256 217.8  10.0  34222  290.61 0854.60
2009/04/23 15:10:33.0     -84   -162     62    183    194 207.4  18.9  34186  290.02 0854.60
2009/04/23 15:10:33.1     -41   -265    -30    269    271 188.9  -6.5  34160  289.58 0854.60
2009/04/23 15:10:33.2     -19   -325    -39    326    329 183.4  -6.9  34168  289.70 0854.60
2009/04/23 15:10:33.3    -182   -293     -2    346    347 211.9  -0.5  34172  289.79 0854.60
2009/04/23 15:10:33.4    -210   -342    -15    402    403 211.5  -2.2  34164  289.65 0854.60
2009/04/23 15:10:33.5     -49   -349     26    353    354 188.0   4.2  34170  289.74 0854.60
2009/04/23 15:10:33.6      80   -394    111    402    418 168.5  15.4  34156  289.51 0854.60
2009/04/23 15:10:33.7      13   -303     99    304    320 177.5  18.0  34148  289.37 0854.60
2009/04/23 15:10:33.8     -90   -313    121    326    347 196.1  21.3  34156  289.52 0854.60
2009/04/23 15:10:33.9     -75   -260    140    271    305 196.1  29.3  34156  289.51 0854.60
2009/04/23 15:10:34.0     -51   -191    -38    198    202 195.1 -11.1  34162  289.60 0854.63
2009/04/23 15:10:34.1    -191   -180    -14    263    264 226.7  -3.1  34170  289.73 0854.63
2009/04/23 15:10:34.2     -81   -343    122    353    374 193.4  19.1  34168  289.71 0854.63
2009/04/23 15:10:34.3    -199   -268    -17    335    336 216.6  -3.0  34158  289.54 0854.63
2009/04/23 15:10:34.4    -188   -189     -8    267    268 224.9  -1.8  34158  289.53 0854.63
2009/04/23 15:10:34.5    -210    -49    -24    216    218 256.7  -6.5  34158  289.55 0854.63
2009/04/23 15:10:34.6    -275      0   -145    276    311 270.1 -34.5  34146  289.32 0854.63
2009/04/23 15:10:34.7    -251     -7   -138    252    287 268.3 -35.7  34146  289.32 0854.63
2009/04/23 15:10:34.8     -85   -145    -37    169    174 210.3 -12.4  34162  289.60 0854.63
2009/04/23 15:10:34.9     -35   -218     54    221    228 189.3  13.9  34168  289.72 0854.63
2009/04/23 15:10:35.0    -173   -283     96    332    346 211.4  16.1  34184  289.99 0854.63
2009/04/23 15:10:35.1    -105   -296    119    315    336 199.6  21.7  34172  289.79 0854.63
2009/04/23 15:10:35.2    -173   -240    -16    297    298 215.8  -3.1  34146  289.34 0854.63
2009/04/23 15:10:35.3    -124   -232    -80    264    275 208.1 -21.8  34148  289.37 0854.63
2009/04/23 15:10:35.4    -151   -151    -63    214    223 225.0 -21.5  34158  289.55 0854.63
2009/04/23 15:10:35.5    -172    -71   -150    187    239 247.4 -47.2  34156  289.52 0854.63
2009/04/23 15:10:35.6     -96   -100   -150    139    204 223.7 -56.6  34156  289.50 0854.63
2009/04/23 15:10:35.7    -131   -122   -101    180    206 227.1 -35.8  34182  289.94 0854.63
2009/04/23 15:10:35.8    -194     -5    -18    195    196 268.5  -5.4  34178  289.89 0854.63
2009/04/23 15:10:35.9    -142     25      7    145    146 280.1   2.9  34186  290.01 0854.63
2009/04/23 15:10:36.0    -187     45    -12    193    194 283.5  -3.7  34198  290.21 0854.66
2009/04/23 15:10:36.1    -256    -50     -5    261    262 258.8  -1.3  34224  290.65 0854.66
2009/04/23 15:10:36.2    -258    -49     67    263    272 259.2  14.3  34198  290.22 0854.66
2009/04/23 15:10:36.3    -294   -104     -3    312    313 250.5  -0.7  34158  289.53 0854.66
2009/04/23 15:10:36.4    -318    -96    -84    333    344 253.2 -14.3  34152  289.45 0854.66
2009/04/23 15:10:36.5    -331     25   -105    333    349 274.5 -22.8  34164  289.64 0854.66
2009/04/23 15:10:36.6    -378     19   -105    379    393 272.9 -20.2  34152  289.42 0854.66
2009/04/23 15:10:36.7    -342     31    -98    344    357 275.2 -20.7  34148  289.38 0854.66
2009/04/23 15:10:36.8    -328     30   -113    330    349 275.4 -18.9  34164  289.64 0854.66
2009/04/23 15:10:36.9    -321     31   -110    323    342 275.7 -18.8  34144  289.30 0854.66
2009/04/23 15:10:37.0    -342     68   -147    349    378 281.4 -28.6  34148  289.37 0854.66
2009/04/23 15:10:37.1    -366    -53   -146    370    397 261.7 -27.1  34152  289.42 0854.66
2009/04/23 15:10:37.2    -303    -54   -181    308    357 259.9 -37.5  34150  289.40 0854.66
2009/04/23 15:10:37.3    -378    -76   -220    386    444 258.5 -36.7  34152  289.44 0854.66
2009/04/23 15:10:37.4    -389   -223   -149    449    473 240.2 -23.6  34150  289.39 0854.66
2009/04/23 15:10:37.5    -432   -197   -167    475    503 245.5 -24.4  34166  289.66 0854.66
2009/04/23 15:10:37.6    -438   -270    -52    515    518 238.4  -5.8  34178  289.86 0854.66
2009/04/23 15:10:37.7    -480   -304   -124    569    583 237.6 -12.4  34158  289.54 0854.66
2009/04/23 15:10:37.8    -565   -180    -91    593    600 252.3  -8.8  34142  289.25 0854.66
2009/04/23 15:10:37.9    -472   -223   -128    523    539 244.7 -13.8  34150  289.41 0854.66
2009/04/23 15:10:38.0    -391   -151    -85    420    429 248.8 -11.5  34146  289.34 0854.61
2009/04/23 15:10:38.1    -360   -146    -91    389    400 247.9 -13.3  34152  289.42 0854.61
2009/04/23 15:10:38.2    -280   -182   -110    335    352 236.9 -23.5  34152  289.42 0854.61
2009/04/23 15:10:38.3    -332   -324   -121    465    481 225.7 -14.7  34152  289.44 0854.61
2009/04/23 15:10:38.4    -389   -278   -105    479    491 234.4 -12.4  34146  289.35 0854.61
2009/04/23 15:10:38.5    -378   -196   -126    426    444 242.6 -21.5  34152  289.43 0854.61
2009/04/23 15:10:38.6    -279   -131   -100    309    325 244.9 -17.9  34148  289.37 0854.61
2009/04/23 15:10:38.7    -532    -97   -209    541    579 259.6 -26.6  34158  289.55 0854.61
2009/04/23 15:10:38.8    -445    -85   -110    454    468 259.2 -13.7  34168  289.72 0854.61
2009/04/23 15:10:38.9    -421    -35   -166    423    454 265.1 -27.1  34162  289.60 0854.61
2009/04/23 15:10:39.0    -433     26   -204    434    479 273.5 -31.5  34166  289.66 0854.51
2009/04/23 15:10:39.1    -400     41   -137    403    426 276.0 -18.8  34168  289.70 0854.51
2009/04/23 15:10:39.2    -476   -156    -58    501    505 251.8  -6.7  34170  289.74 0854.51
2009/04/23 15:10:39.3    -646   -144   -291    663    724 257.4 -29.6  34160  289.57 0854.51
2009/04/23 15:10:39.4    -629   -185   -227    656    694 253.6 -24.1  34168  289.70 0854.51
2009/04/23 15:10:39.5    -588   -138   -167    604    627 256.8 -15.5  34172  289.77 0854.51
2009/04/23 15:10:39.6    -786    -12   -334    787    854 269.1 -28.9  34146  289.35 0854.51
2009/04/23 15:10:39.7    -718    -61   -377    721    813 265.1 -34.3  34138  289.19 0854.51
2009/04/23 15:10:39.8    -856   -156   -394    871    955 259.7 -30.4  34148  289.37 0854.51
2009/04/23 15:10:39.9    -943   -142   -505    954   1079 261.4 -34.6  34148  289.38 0854.51
2009/04/23 15:10:40.0    -728    159   -417    746    854 282.4 -36.0  34148  289.38 0854.51
2009/04/23 15:10:40.1    -513    288   -230    589    632 299.3 -26.8  34156  289.50 0854.51
2009/04/23 15:10:40.2    -536    104   -195    546    581 281.0 -19.7  34160  289.56 0854.51
2009/04/23 15:10:40.3    -366    -38    -81    369    378 264.0 -12.5  34168  289.71 0854.51
2009/04/23 15:10:40.4    -276   -216      3    351    352 232.0   0.5  34178  289.86 0854.51
2009/04/23 15:10:40.5    -143   -333    -34    363    365 203.2  -5.5  34180  289.91 0854.51
2009/04/23 15:10:40.6     -48   -391    136    395    418 187.1  19.1  34178  289.87 0854.51
2009/04/23 15:10:40.7     -72   -421    122    428    446 189.8  15.9  34172  289.78 0854.51
2009/04/23 15:10:40.8     -64   -284    -28    292    294 192.7  -5.6  34178  289.86 0854.51
2009/04/23 15:10:40.9    -230   -270    -67    355    362 220.4 -10.8  34178  289.87 0854.51
2009/04/23 15:10:41.0    -118   -196    -72    229    240 211.0 -22.5  34172  289.78 0854.47
2009/04/23 15:10:41.1    -299   -196   -126    358    379 236.7 -24.5  34184  289.99 0854.47
2009/04/23 15:10:41.2    -113   -177    -86    211    227 212.6 -27.5  34198  290.23 0854.47
2009/04/23 15:10:41.3      89   -232      7    249    250 158.8   1.7  34184  289.97 0854.47
2009/04/23 15:10:41.4     210   -206    261    295    393 134.4  46.1  34168  289.72 0854.47
2009/04/23 15:10:41.5     250   -154     89    294    308 121.6  16.8  34178  289.86 0854.47
2009/04/23 15:10:41.6     291   -172    177    339    382 120.7  29.6  34172  289.79 0854.47
2009/04/23 15:10:41.7     206   -265    192    336    386 142.2  32.3  34172  289.77 0854.47
2009/04/23 15:10:41.8     257   -308    290    402    495 140.2  39.5  34176  289.83 0854.47
2009/04/23 15:10:41.9     339   -231    296    411    506 124.3  39.3  34178  289.89 0854.47
2009/04/23 15:10:42.0     245   -156    293    291    412 122.5  50.2  34182  289.94 0854.47
2009/04/23 15:10:42.1     260   -268    230    374    439 135.9  34.5  34176  289.83 0854.47
2009/04/23 15:10:42.2     253   -244    235    352    423 133.9  36.7  34176  289.84 0854.47
2009/04/23 15:10:42.3      41   -373    136    376    400 173.7  19.9  34172  289.76 0854.47
2009/04/23 15:10:42.4     133   -422     37    443    445 162.5   4.9  34164  289.63 0854.47
2009/04/23 15:10:42.5     136   -376     -3    400    401 160.1  -0.5  34166  289.69 0854.47
2009/04/23 15:10:42.6     164   -367    -98    403    415 155.9 -13.7  34168  289.70 0854.47
2009/04/23 15:10:42.7     251   -256    117    359    378 135.6  18.2  34160  289.57 0854.47
2009/04/23 15:10:42.8     252   -498    151    559    580 153.2  15.2  34154  289.47 0854.47
2009/04/23 15:10:42.9     166   -455     76    485    492 159.9   9.0  34166  289.66 0854.47
2009/04/23 15:10:43.0      26   -334    142    336    364 175.5  24.5  34174  289.81 0854.43
2009/04/23 15:10:43.1      -1   -324     89    325    338 180.3  15.4  34174  289.81 0854.43
2009/04/23 15:10:43.2      21   -459     35    460    462 177.3   4.4  34180  289.90 0854.43
2009/04/23 15:10:43.3     137   -506    113    525    538 164.9  12.2  34202  290.30 0854.43
2009/04/23 15:10:43.4      38   -417    216    419    471 174.7  29.3  34192  290.12 0854.43
2009/04/23 15:10:43.5      42   -329    100    332    347 172.7  16.8  34190  290.08 0854.43
2009/04/23 15:10:43.6      51   -301     16    306    307 170.4   3.1  34184  289.98 0854.43
2009/04/23 15:10:43.7      53   -241      6    247    248 167.5   1.6  34184  289.97 0854.43
2009/04/23 15:10:43.8     -15   -277     88    278    292 183.1  17.7  34192  290.12 0854.43
2009/04/23 15:10:43.9      52   -254    140    260    295 168.4  30.8  34186  290.02 0854.43
2009/04/23 15:10:44.0      97   -243    149    262    301 158.1  32.3  34190  290.07 0854.43
2009/04/23 15:10:44.1     183   -322    162    371    404 150.4  25.1  34202  290.28 0854.43
2009/04/23 15:10:44.2      93   -251    108    268    288 159.5  23.0  34212  290.44 0854.43
2009/04/23 15:10:44.3       3   -185    123    186    222 179.0  36.3  34204  290.33 0854.43
2009/04/23 15:10:44.4    -195   -207    109    285    305 223.3  22.0  34194  290.15 0854.43
2009/04/23 15:10:44.5    -154   -128    124    201    236 230.4  34.5  34198  290.21 0854.43
2009/04/23 15:10:44.6    -158   -238    142    286    319 213.6  28.4  34200  290.26 0854.43
2009/04/23 15:10:44.7    -184   -226    213    292    361 219.2  39.7  34214  290.50 0854.43
2009/04/23 15:10:44.8     -31   -140    241    144    280 192.5  66.7  34222  290.61 0854.43
2009/04/23 15:10:44.9     -44   -216    288    221    363 191.6  58.6  34198  290.22 0854.43
2009/04/23 15:10:45.0    -142   -332    404    362    542 203.2  53.7  34194  290.15 0854.43
2009/04/23 15:10:45.1     -19   -424    299    425    519 182.6  38.6  34196  290.17 0854.43
2009/04/23 15:10:45.2      -3   -392    235    393    457 180.5  33.7  34212  290.46 0854.43
2009/04/23 15:10:45.3      22   -279    296    280    407 175.3  51.9  34214  290.50 0854.43
2009/04/23 15:10:45.4     -24   -404    292    405    499 183.4  39.5  34192  290.13 0854.43
2009/04/23 15:10:45.5     -19   -319    234    320    396 183.5  39.8  34188  290.04 0854.43
2009/04/23 15:10:45.6     -27   -204    151    206    255 187.6  39.7  34190  290.09 0854.43
2009/04/23 15:10:45.8    -129   -298     65    325    332 203.5  11.4  34182  289.96 0854.43
2009/04/23 15:10:45.8    -111   -248    202    272    338 204.1  40.2  34188  290.05 0854.43
2009/04/23 15:10:45.9    -153   -218     72    267    277 215.2  15.2  34190  290.09 0854.43
2009/04/23 15:10:46.0    -123   -164    133    206    245 217.0  35.7  34190  290.07 0854.43
2009/04/23 15:10:46.1     -15   -137    208    138    249 186.3  63.6  34202  290.30 0854.43
2009/04/23 15:10:46.2      69    -86    155    111    190 141.3  60.8  34210  290.41 0854.43
2009/04/23 15:10:46.3     145    -22    239    147    280  98.8  65.6  34208  290.39 0854.43
2009/04/23 15:10:46.4      12   -159    231    160    281 175.5  62.4  34202  290.27 0854.43
2009/04/23 15:10:46.5      19   -133    153    135    204 171.5  54.2  34204  290.33 0854.43
2009/04/23 15:10:46.6     -31    -90    193     96    215 199.2  71.9  34192  290.13 0854.43
2009/04/23 15:10:46.7      94    -18    151     96    178 101.0  64.7  34206  290.35 0854.43
2009/04/23 15:10:46.8     210   -176    214    275    348 130.0  42.0  34202  290.29 0854.43
2009/04/23 15:10:47.0     160   -140    153    213    262 131.3  39.3  34204  290.31 0854.43
2009/04/23 15:10:47.0     197   -120    103    231    252 121.3  25.7  34208  290.39 0854.46
2009/04/23 15:10:47.1     129     26    111    132    172  78.5  44.3  34220  290.60 0854.46
2009/04/23 15:10:47.2     167    -68     84    181    199 112.2  26.6  34220  290.60 0854.46
2009/04/23 15:10:47.3      53   -277    220    283    358 169.1  41.7  34188  290.06 0854.46
2009/04/23 15:10:47.4      -5   -323    302    324    442 180.9  47.9  34188  290.05 0854.46
2009/04/23 15:10:47.5      91   -421    237    431    491 167.7  31.3  34192  290.10 0854.46
2009/04/23 15:10:47.6     259   -405    167    482    511 147.4  19.2  34188  290.06 0854.46
2009/04/23 15:10:47.7     325   -320     66    457    462 134.6   8.2  34202  290.29 0854.46
2009/04/23 15:10:47.8     167   -271    -54    319    324 148.4  -9.6  34192  290.10 0854.46
2009/04/23 15:10:47.9     145   -228    -79    271    282 147.5 -21.2  34196  290.19 0854.46
2009/04/23 15:10:48.0     120    -82    -97    146    175 124.2 -40.9  34192  290.11 0854.46
2009/04/23 15:10:48.2     -23    -88    -70     91    114 194.7 -46.1  34202  290.30 0854.46
2009/04/23 15:10:48.2    -152    -77    -42    171    177 242.9 -13.9  34204  290.31 0854.46
2009/04/23 15:10:48.3    -156   -103    -29    188    191 236.5  -8.8  34200  290.25 0854.46
2009/04/23 15:10:48.4     -48    -31    -36     58     68 237.6 -39.9  34204  290.33 0854.46
2009/04/23 15:10:48.5     -34    -45     82     57     99 217.0  61.5  34212  290.45 0854.46
2009/04/23 15:10:48.6      -2    -82    116     83    142 181.8  60.6  34204  290.31 0854.46
2009/04/23 15:10:48.7     134    -31    110    138    176 103.3  43.0  34204  290.33 0854.46
2009/04/23 15:10:48.8     225   -145     62    268    276 122.9  13.1  34198  290.22 0854.46
2009/04/23 15:10:48.9     211    -97    -11    233    234 114.6  -2.8  34198  290.20 0854.46
2009/04/23 15:10:49.0      27   -163    -21    166    168 170.4  -7.3  34192  290.11 0854.46
2009/04/23 15:10:49.1      -4   -281    151    282    319 180.9  30.5  34168  289.71 0854.46
2009/04/23 15:10:49.2    -117   -376    146    394    420 197.3  21.1  34178  289.87 0854.46
2009/04/23 15:10:49.4     -81   -302    185    313    363 195.1  33.5  34194  290.15 0854.46
2009/04/23 15:10:49.4     -48   -196     47    202    208 194.0  13.2  34192  290.11 0854.46
2009/04/23 15:10:49.5       5    -74     79     75    108 175.5  51.6  34190  290.09 0854.46
2009/04/23 15:10:49.6      83    -41     35     93     99 116.6  21.5  34188  290.06 0854.46
2009/04/23 15:10:49.7     199     62    -75    209    223  72.7 -19.7  34184  289.99 0854.46
2009/04/23 15:10:49.9     220     74     54    233    240  71.4  13.2  34198  290.22 0854.46
2009/04/23 15:10:50.0     264     15    109    265    286  86.7  23.6  34220  290.58 0854.46
2009/04/23 15:10:50.0     179      8    -12    180    181  87.2  -4.1  34232  290.79 0854.46
2009/04/23 15:10:50.1     175     41   -100    180    205  76.7 -35.8  34208  290.40 0854.46
2009/04/23 15:10:50.2     165     99   -126    193    230  59.1 -40.1  34276  291.55 0854.46
2009/04/23 15:10:50.4     266     54   -140    272    305  78.3 -33.7  34272  291.48 0854.46
2009/04/23 15:10:50.5     392     80    -58    401    406  78.4  -8.2  34290  291.79 0854.46
2009/04/23 15:10:50.6     346    142    -33    375    377  67.7  -5.1  34308  292.10 0854.46
2009/04/23 15:10:50.7     283     90    -94    298    313  72.3 -17.6  34306  292.04 0854.46
2009/04/23 15:10:50.8     376    168     67    412    418  65.9   9.3  34272  291.48 0854.46
2009/04/23 15:10:50.9     221    273    119    352    372  39.0  18.8  34264  291.34 0854.46
2009/04/23 15:10:51.0      11    233    151    234    278   2.9  35.7  34264  291.34 0854.46
2009/04/23 15:10:51.1       8    270     63    271    279   1.8  13.2  34264  291.34 0854.46
2009/04/23 15:10:51.2     -85    178     89    198    217 334.5  25.7  34266  291.38 0854.46
2009/04/23 15:10:51.3     -70    243     30    253    255 343.9   6.9  34228  290.73 0854.46
2009/04/23 15:10:51.4     -47    235     11    240    241 348.5   2.8  34220  290.59 0854.46
2009/04/23 15:10:51.5       4    236     46    237    242   1.0  11.0  34220  290.58 0854.46
2009/04/23 15:10:51.6       0    260     46    261    266 359.9  10.1  34226  290.70 0854.46
2009/04/23 15:10:51.7     -32    259     41    262    266 352.9   9.0  34220  290.58 0854.46
2009/04/23 15:10:51.8     -70    212    -10    224    225 341.7  -2.6  34226  290.69 0854.46
2009/04/23 15:10:51.9     152     98     79    182    198  57.1  24.9  34262  291.30 0854.46
2009/04/23 15:10:52.0     212     26    146    214    259  82.8  37.6  34334  292.53 0854.46
2009/04/23 15:10:52.1     200     69    235    212    316  70.9  53.4  34324  292.36 0854.46
2009/04/23 15:10:52.2      71     70    191    101    216  45.4  70.0  34326  292.40 0854.46
2009/04/23 15:10:52.3      45     56    125     72    144  38.7  67.2  34338  292.59 0854.46
2009/04/23 15:10:52.4      33     40    112     52    123  39.6  73.5  34330  292.46 0854.46
2009/04/23 15:10:52.5    -124    139    129    187    227 318.1  37.8  34324  292.35 0854.46
2009/04/23 15:10:52.6     -76    225    112    238    263 341.3  27.1  34326  292.40 0854.46
2009/04/23 15:10:52.7     -94    113    173    148    227 320.4  55.4  34320  292.30 0854.46
2009/04/23 15:10:52.8     -79     96    119    125    172 320.3  49.0  34316  292.22 0854.46
2009/04/23 15:10:52.9    -138    -83    123    162    203 238.9  40.9  34242  290.96 0854.46
2009/04/23 15:10:53.0    -139    -44    131    146    196 252.3  46.4  34220  290.60 0854.46
2009/04/23 15:10:53.1    -195     14    164    196    255 274.4  44.1  34274  291.50 0854.46
2009/04/23 15:10:53.2    -199    -35    137    203    244 259.9  37.4  34280  291.60 0854.46
2009/04/23 15:10:53.3    -192    -91     19    213    214 244.6   5.2  34230  290.77 0854.46
2009/04/23 15:10:53.4    -186    -52     60    194    204 254.3  17.3  34276  291.54 0854.46
2009/04/23 15:10:53.5    -236    -69     25    247    249 253.6   6.0  34304  292.01 0854.46
2009/04/23 15:10:53.6    -287   -135     32    318    320 244.8   5.9  34340  292.64 0854.46
2009/04/23 15:10:53.7    -208     20     69    210    222 275.7  18.1  34348  292.78 0854.46
2009/04/23 15:10:53.8    -186    -61     61    196    206 251.6  17.4  34328  292.42 0854.46
2009/04/23 15:10:53.9    -209   -137    108    251    273 236.7  24.6  34346  292.74 0854.46
2009/04/23 15:10:54.0     -88   -130    100    158    186 214.2  35.5  34336  292.56 0854.46
2009/04/23 15:10:54.1      99     65    106    119    159  56.7  46.6  34324  292.37 0854.46
2009/04/23 15:10:54.2     377    150     48    406    409  68.3   6.9  34348  292.76 0854.46
2009/04/23 15:10:54.3     383    184     81    426    434  64.3  10.8  34358  292.93 0854.46
2009/04/23 15:10:54.4     226    199    210    302    367  48.7  38.3  34362  293.00 0854.46
2009/04/23 15:10:54.5      66     55    135     87    160  50.0  64.1  34368  293.10 0854.46
2009/04/23 15:10:54.6     223    -25     79    225    238  96.6  20.0  34372  293.16 0854.46
2009/04/23 15:10:54.7     179    -34    170    183    249 101.0  47.9  34328  292.44 0854.46
2009/04/23 15:10:54.8     252    150    170    294    339  59.3  32.8  34328  292.43 0854.46
2009/04/23 15:10:54.9     270    250    107    369    385  47.2  16.1  34340  292.63 0854.46
2009/04/23 15:10:55.0     317    150    143    351    379  64.6  23.2  34366  293.07 0854.46
2009/04/23 15:10:55.1     342    123    179    364    405  70.1  28.2  34354  292.87 0854.42
2009/04/23 15:10:55.2     242    159    189    290    346  56.7  36.0  34356  292.92 0854.42
2009/04/23 15:10:55.3     324    223    191    394    437  55.4  27.8  34320  292.30 0854.42
2009/04/23 15:10:55.4     407    222    203    464    506  61.4  25.1  34346  292.75 0854.42
2009/04/23 15:10:55.5     366    241    120    439    456  56.7  15.3  34342  292.67 0854.42
2009/04/23 15:10:55.6     464    309    -31    558    559  56.3  -3.2  34250  291.09 0854.42
2009/04/23 15:10:55.7     542    299    -91    619    626  61.1  -8.4  34282  291.66 0854.42
2009/04/23 15:10:55.8     502    219   -120    549    563  66.4 -12.4  34266  291.38 0854.42
2009/04/23 15:10:55.9     626    258   -243    678    720  67.6 -25.0  34228  290.71 0854.42
2009/04/23 15:10:56.0     571    181   -374    600    707  72.4 -39.3  34160  289.58 0854.42
2009/04/23 15:10:56.1     177    323   -357    369    513  28.8 -53.4  34218  290.57 0854.42
2009/04/23 15:10:56.2      90    178   -300    200    360  27.0 -67.7  34234  290.83 0854.42
2009/04/23 15:10:56.3     110    165   -342    199    395  33.8 -71.8  34200  290.25 0854.42
2009/04/23 15:10:56.4     130    129   -191    184    265  45.2 -55.6  34226  290.70 0854.42
2009/04/23 15:10:56.5      73    -48   -136     88    161 123.3 -68.8  34240  290.92 0854.42
2009/04/23 15:10:56.6     -14     30   -164     34    167 334.7 -90.0  34250  291.09 0854.42
2009/04/23 15:10:56.7      96    122   -164    156    226  38.3 -56.4  34272  291.47 0854.42
2009/04/23 15:10:56.8     445    220   -147    497    519  63.7 -16.5  34196  290.18 0854.42
2009/04/23 15:10:56.9     440    144   -187    463    499  71.9 -27.6  34218  290.56 0854.42
2009/04/23 15:10:57.0     511    103      6    522    523  78.6   0.7  34234  290.84 0854.42
2009/04/23 15:10:57.1     366     51    109    370    386  82.0  16.4  34288  291.74 0854.39
2009/04/23 15:10:57.2     295    -85     97    308    324 106.2  17.5  34284  291.68 0854.39
2009/04/23 15:10:57.3     270   -148     15    308    309 118.8   2.8  34322  292.33 0854.39
2009/04/23 15:10:57.4     295   -112     62    316    323 110.8  11.1  34316  292.23 0854.39
2009/04/23 15:10:57.5     305    -79    105    316    334 104.6  18.4  34368  293.10 0854.39
2009/04/23 15:10:57.6     264   -135     98    297    313 117.1  18.4  34354  292.87 0854.39
2009/04/23 15:10:57.7     295   -116    189    318    369 111.5  33.6  34300  291.95 0854.39
2009/04/23 15:10:57.8     215   -118    260    246    357 118.8  51.9  34324  292.36 0854.39
2009/04/23 15:10:57.9     215    -55    215    223    309 104.4  49.0  34304  292.01 0854.39
2009/04/23 15:10:58.0     402    -95    339    414    535 103.3  43.6  34288  291.73 0854.39
2009/04/23 15:10:58.1     285   -146    250    321    406 117.1  41.9  34274  291.52 0854.39
2009/04/23 15:10:58.2     287    -97    220    304    375 108.8  39.5  34312  292.14 0854.39
2009/04/23 15:10:58.3     282   -122    251    308    397 113.5  43.4  34282  291.64 0854.39
2009/04/23 15:10:58.4     370   -126    235    391    456 108.8  33.7  34258  291.24 0854.39
2009/04/23 15:10:58.5     242   -223    255    330    417 132.6  41.6  34250  291.10 0854.39
2009/04/23 15:10:58.6     231   -256    230    346    415 137.9  36.7  34258  291.22 0854.39
2009/04/23 15:10:58.7     133   -217    226    255    340 148.4  46.3  34270  291.43 0854.39
2009/04/23 15:10:58.8     100   -323    247    339    419 162.8  39.7  34294  291.85 0854.39
2009/04/23 15:10:58.9     220   -437     86    490    498 153.3  10.0  34296  291.87 0854.39
2009/04/23 15:10:59.0     245   -466    127    527    543 152.3  13.6  34260  291.28 0854.40
2009/04/23 15:10:59.1     255   -346    174    431    464 143.6  23.1  34258  291.23 0854.40
2009/04/23 15:10:59.2     222   -373    260    435    506 149.2  33.6  34290  291.78 0854.40
2009/04/23 15:10:59.3     348   -324    214    476    521 133.0  25.9  34208  290.37 0854.40
2009/04/23 15:10:59.4     325   -315    187    453    490 134.1  23.7  34258  291.25 0854.40
2009/04/23 15:10:59.5     252   -348    185    430    468 144.1  24.6  34248  291.07 0854.40
2009/04/23 15:10:59.6     292   -444    257    532    590 146.6  27.7  34244  291.00 0854.40
2009/04/23 15:10:59.7     159   -520    263    544    604 163.0  27.7  34222  290.64 0854.40
2009/04/23 15:10:59.8     255   -422    235    494    547 148.9  27.3  34288  291.74 0854.40
2009/04/23 15:10:59.9     209   -334    260    395    472 148.0  36.5  34324  292.37 0854.40
2009/04/23 15:11:00.0     159   -340    246    376    449 155.0  36.4  34268  291.41 0854.37
2009/04/23 15:11:00.1     100   -396    277    409    493 165.7  37.4  34232  290.81 0854.37
2009/04/23 15:11:00.2      19   -351    266    352    441 176.9  40.9  34244  290.99 0854.37
2009/04/23 15:11:00.3      60   -385    257    390    467 171.0  36.4  34216  290.53 0854.37
2009/04/23 15:11:00.4      65   -313    287    320    429 168.2  46.5  34240  290.94 0854.37
2009/04/23 15:11:00.5      60   -179    209    190    282 161.3  53.2  34220  290.58 0854.37
2009/04/23 15:11:00.6       0   -261    251    262    362 180.1  48.7  34228  290.74 0854.37
2009/04/23 15:11:00.7      20   -272    266    273    381 175.8  49.4  34228  290.71 0854.37
2009/04/23 15:11:00.8      -6   -366    303    367    475 181.0  43.7  34214  290.50 0854.37
2009/04/23 15:11:00.9      40   -363    330    366    492 173.7  46.8  34216  290.51 0854.37
2009/04/23 15:11:01.0      44   -469    307    472    563 174.6  36.0  34188  290.06 0854.37
2009/04/23 15:11:01.1      37   -315    337    318    463 173.3  52.1  34180  289.92 0854.37
2009/04/23 15:11:01.2     -60   -334    308    340    458 190.3  46.9  34186  290.00 0854.37
2009/04/23 15:11:01.3     -12   -387    364    388    532 181.9  48.0  34184  289.98 0854.37
2009/04/23 15:11:01.4      20   -330    317    331    458 176.5  48.8  34182  289.95 0854.37
2009/04/23 15:11:01.5     -31   -339    294    341    450 185.3  45.2  34188  290.05 0854.37
2009/04/23 15:11:01.6     -25   -348    269    349    440 184.2  41.6  34184  289.99 0854.37
2009/04/23 15:11:01.7     -65   -382    157    388    418 189.7  23.1  34182  289.94 0854.37
2009/04/23 15:11:01.8     -74   -385    194    393    438 190.9  28.2  34178  289.88 0854.37
2009/04/23 15:11:01.9     -14   -479    156    480    505 181.8  18.0  34170  289.73 0854.37
2009/04/23 15:11:02.0      51   -434    163    438    467 173.2  21.3  34182  289.94 0854.37
2009/04/23 15:11:02.1     -40   -431    171    434    466 185.4  22.8  34174  289.82 0854.37
2009/04/23 15:11:02.2     144   -416    278    441    521 160.8  35.3  34180  289.91 0854.37
2009/04/23 15:11:02.3       0   -573    170    574    599 180.0  16.5  34174  289.80 0854.37
2009/04/23 15:11:02.4      -7   -455     89    456    465 180.9  11.1  34172  289.77 0854.37
2009/04/23 15:11:02.5     158   -374    173    407    442 157.1  24.5  34184  289.97 0854.37
2009/04/23 15:11:02.6     157   -330    170    366    403 154.5  26.9  34188  290.06 0854.37
2009/04/23 15:11:02.7     320     -9    228    321    393  91.7  38.8  34204  290.33 0854.37
2009/04/23 15:11:02.8     339    -41    223    342    408  97.0  36.0  34228  290.71 0854.37
2009/04/23 15:11:02.9     169    -84     78    189    204 116.6  23.4  34214  290.48 0854.37
2009/04/23 15:11:03.0     103     -3    121    104    159  92.1  55.0  34222  290.64 0854.37
2009/04/23 15:11:03.1      61    -39     82     73    109 122.4  53.7  34244  290.99 0854.37
2009/04/23 15:11:03.2      66    -59      4     89     90 131.8   2.8  34234  290.84 0854.37
2009/04/23 15:11:03.3      25    -20    -35     33     48 129.5 -54.5  34218  290.57 0854.37
2009/04/23 15:11:03.4     -17     33     26     38     46 332.8  37.6  34224  290.65 0854.37
2009/04/23 15:11:03.5    -121    -12     46    122    130 263.9  21.5  34212  290.45 0854.37
2009/04/23 15:11:03.6    -195    -71    124    208    242 249.8  33.7  34204  290.31 0854.37
2009/04/23 15:11:03.7    -164    -61    110    176    207 249.6  35.5  34196  290.18 0854.37
2009/04/23 15:11:03.8    -138    -11     54    139    149 265.2  22.5  34184  289.97 0854.37
2009/04/23 15:11:03.9     -51     82    145     97    174 327.9  63.4  34238  290.91 0854.37
2009/04/23 15:11:04.0     135    121     77    182    197  48.0  24.3  34264  291.35 0854.26
2009/04/23 15:11:04.1      48    215    131    221    256  12.7  33.5  34280  291.60 0854.26
2009/04/23 15:11:04.2     -49    237    126    243    273 348.2  29.5  34288  291.75 0854.26
2009/04/23 15:11:04.3     -47    231    149    236    279 348.4  35.5  34296  291.87 0854.26
2009/04/23 15:11:04.4     -51    194    135    201    242 345.1  37.0  34308  292.08 0854.26
2009/04/23 15:11:04.5     -15    180    116    181    214 355.1  35.6  34312  292.15 0854.26
2009/04/23 15:11:04.6     -32    179     42    182    187 349.8  13.2  34318  292.25 0854.26
2009/04/23 15:11:04.7      80    145    103    166    195  29.0  35.2  34314  292.18 0854.26
2009/04/23 15:11:04.8      62    101     33    119    124  31.6  15.8  34298  291.93 0854.26
2009/04/23 15:11:04.9      38     91     -5     99    100  22.7  -3.2  34306  292.05 0854.26
2009/04/23 15:11:05.0      25     90     32     94    100  16.0  18.9  34336  292.58 0854.26
2009/04/23 15:11:05.1     164    155     46    226    231  46.7  11.6  34238  290.91 0854.26
2009/04/23 15:11:05.2     199     74    173    213    274  69.4  43.5  34250  291.10 0854.26
2009/04/23 15:11:05.3      60    110    226    126    258  28.5  68.8  34264  291.35 0854.26
2009/04/23 15:11:05.4     240    127    -24    272    274  62.1  -5.1  34182  289.95 0854.26
2009/04/23 15:11:05.5     173    114     90    208    226  56.5  25.1  34242  290.98 0854.26
2009/04/23 15:11:05.6     226    187    -22    294    295  50.4  -4.4  34228  290.71 0854.26
2009/04/23 15:11:05.7     197    136     20    240    241  55.4   4.9  34234  290.82 0854.26
2009/04/23 15:11:05.8     193    192     55    273    279  45.2  11.4  34262  291.29 0854.26
2009/04/23 15:11:05.9     264    152    141    305    336  60.0  26.5  34266  291.36 0854.26
2009/04/23 15:11:06.0     497    106    234    509    560  77.9  26.4  34290  291.77 0854.31
2009/04/23 15:11:06.1     418     25    282    419    505  86.5  37.1  34312  292.14 0854.31
2009/04/23 15:11:06.2     270   -149    109    309    328 118.9  19.5  34292  291.82 0854.31
2009/04/23 15:11:06.3     133   -123    169    182    248 132.7  47.9  34268  291.40 0854.31
2009/04/23 15:11:06.4     -39   -241    129    245    276 189.3  30.1  34312  292.14 0854.31
2009/04/23 15:11:06.5     -25   -236    327    238    404 186.2  60.5  34234  290.84 0854.31
2009/04/23 15:11:06.6     134    -92    205    163    261 124.6  57.5  34242  290.97 0854.31
2009/04/23 15:11:06.7      86   -341    201    352    405 165.7  32.3  34182  289.94 0854.31
2009/04/23 15:11:06.8      86   -379    256    389    465 167.2  36.5  34178  289.88 0854.31
2009/04/23 15:11:06.9     105   -377    282    392    482 164.3  39.2  34196  290.17 0854.31
2009/04/23 15:11:07.0      29   -380    247    382    454 175.5  35.7  34182  289.95 0854.31
2009/04/23 15:11:07.1      56   -367    143    372    398 171.3  22.0  34180  289.91 0854.31
2009/04/23 15:11:07.2      97   -294     73    310    319 161.7  13.3  34178  289.88 0854.31
2009/04/23 15:11:07.3       0   -282     99    283    301 180.0  19.4  34204  290.31 0854.31
2009/04/23 15:11:07.4       8   -177    104    178    206 177.3  33.1  34190  290.09 0854.31
2009/04/23 15:11:07.5     -48   -237    107    242    264 191.5  25.3  34190  290.09 0854.31
2009/04/23 15:11:07.6    -151   -236    155    281    320 212.6  31.5  34192  290.10 0854.31
2009/04/23 15:11:07.7    -205    -49     48    211    217 256.3  12.9  34186  290.01 0854.31
2009/04/23 15:11:07.8     117     73   -131    138    190  58.0 -52.9  34202  290.28 0854.31
2009/04/23 15:11:07.9     136    151   -190    204    278  42.1 -52.3  34198  290.22 0854.31
2009/04/23 15:11:08.0     227    149    -44    272    276  56.7  -9.3  34184  289.97 0854.35
2009/04/23 15:11:08.1     332    115    -60    352    358  70.8  -9.7  34178  289.89 0854.35
2009/04/23 15:11:08.2     356    249    -17    435    436  55.0  -2.2  34152  289.43 0854.35
2009/04/23 15:11:08.3     454    222     76    506    512  63.9   8.6  34188  290.05 0854.35
2009/04/23 15:11:08.4     448    220    -14    500    501  63.8  -1.7  34184  289.98 0854.35
2009/04/23 15:11:08.5     353    110    -32    370    372  72.7  -5.1  34182  289.96 0854.35
2009/04/23 15:11:08.6     229     95    138    248    283  67.4  31.4  34198  290.22 0854.35
2009/04/23 15:11:08.7     323     89     88    336    348  74.5  14.7  34210  290.43 0854.35
2009/04/23 15:11:08.8     338     -3      9    339    340  90.6   1.6  34208  290.37 0854.35
2009/04/23 15:11:08.9     240     28     52    242    248  83.2  12.1  34214  290.48 0854.35
2009/04/23 15:11:09.0     157    -12     88    158    180  94.4  31.4  34176  289.85 0854.35
2009/04/23 15:11:09.1      79    -26     98     84    129 108.4  55.4  34182  289.94 0854.35
2009/04/23 15:11:09.2      73     -5    105     74    128  94.4  61.5  34192  290.11 0854.35
2009/04/23 15:11:09.3      41    -50     70     65     95 140.3  52.2  34194  290.16 0854.35
2009/04/23 15:11:09.4      65     30     82     72    109  64.6  53.7  34196  290.18 0854.35
2009/04/23 15:11:09.5      83     19     88     86    123  76.7  50.1  34210  290.43 0854.35
2009/04/23 15:11:09.6     -11     12    105     17    106 316.8  90.0  34234  290.82 0854.35
2009/04/23 15:11:09.7     -85    -88    122    123    173 224.1  50.2  34224  290.65 0854.35
2009/04/23 15:11:09.8    -157     45     97    164    190 286.2  33.5  34234  290.82 0854.35
2009/04/23 15:11:09.9    -194     54    128    202    239 285.7  35.5  34234  290.82 0854.35
2009/04/23 15:11:10.0    -191     42    103    196    221 282.4  29.8  34238  290.91 0854.36
2009/04/23 15:11:10.1    -220     -3    152    221    268 269.2  37.8  34226  290.70 0854.36
2009/04/23 15:11:10.2    -212    -25     73    214    227 263.0  18.9  34222  290.62 0854.36
2009/04/23 15:11:10.3    -225      9    -68    226    236 272.4 -21.7  34200  290.24 0854.36
2009/04/23 15:11:10.4    -335     17   -110    336    353 273.0 -23.3  34184  289.99 0854.36
2009/04/23 15:11:10.5    -293    -68   -148    301    335 256.8 -32.4  34158  289.53 0854.36
2009/04/23 15:11:10.6    -401    142   -133    426    446 289.5 -22.4  34150  289.41 0854.36
2009/04/23 15:11:10.7    -359     86   -221    370    430 283.6 -37.9  34154  289.46 0854.36
2009/04/23 15:11:10.8    -362     62   -224    368    430 279.8 -38.6  34150  289.41 0854.36
2009/04/23 15:11:10.9    -421   -140   -243    444    506 251.5 -35.7  34164  289.64 0854.36
2009/04/23 15:11:11.0    -485     60   -192    489    525 277.1 -26.9  34184  289.98 0854.36
2009/04/23 15:11:11.1    -186    189   -146    266    303 315.5 -35.7  34166  289.68 0854.36
2009/04/23 15:11:11.2    -198    136    -83    241    254 304.6 -24.3  34176  289.85 0854.36
2009/04/23 15:11:11.3    -170     47   -126    177    217 285.7 -43.5  34186  290.02 0854.36
2009/04/23 15:11:11.4    -475    -26   -212    476    521 266.8 -30.1  34186  290.01 0854.36
2009/04/23 15:11:11.5    -454    172   -102    486    497 290.8 -11.9  34190  290.08 0854.36
2009/04/23 15:11:11.6    -574    122    -40    587    589 282.0  -3.9  34194  290.15 0854.36
2009/04/23 15:11:11.7    -637    239   -142    681    696 290.6 -11.8  34162  289.61 0854.36
2009/04/23 15:11:11.8    -714    122   -229    725    761 279.7 -17.6  34178  289.87 0854.36
2009/04/23 15:11:11.9    -644     -3   -150    645    663 269.7 -13.1  34204  290.33 0854.36
2009/04/23 15:11:12.0    -592    124   -126    606    620 281.9 -11.8  34200  290.25 0854.35
2009/04/23 15:11:12.1    -528    -18     22    529    530 268.0   2.4  34226  290.70 0854.35
2009/04/23 15:11:12.2    -500   -125    -10    516    517 255.9  -1.2  34236  290.85 0854.35
2009/04/23 15:11:12.3    -607     12   -415    608    736 271.2 -42.1  34170  289.75 0854.35
2009/04/23 15:11:12.4    -541    -23   -278    542    609 267.5 -33.7  34184  289.98 0854.35
2009/04/23 15:11:12.5    -415     -6   -202    416    462 269.1 -32.1  34198  290.21 0854.35
2009/04/23 15:11:12.6    -507    -98   -352    517    625 259.0 -42.0  34184  289.98 0854.35
2009/04/23 15:11:12.7    -526    178   -282    556    623 288.7 -33.5  34218  290.54 0854.35
2009/04/23 15:11:12.8    -641   -187   -366    668    761 253.7 -35.7  34176  289.84 0854.35
2009/04/23 15:11:12.9    -528     69   -153    533    555 277.5 -16.0  34206  290.36 0854.35
2009/04/23 15:11:13.0    -348     31   -257    350    434 275.2 -44.2  34190  290.09 0854.35
2009/04/23 15:11:13.1    -362    -37   -206    364    418 264.1 -36.5  34192  290.13 0854.35
2009/04/23 15:11:13.2    -617    -97   -215    625    660 261.0 -24.0  34178  289.89 0854.35
2009/04/23 15:11:13.3    -630   -134   -214    645    679 258.0 -23.6  34168  289.71 0854.35
2009/04/23 15:11:13.4    -649    -49   -306    651    719 265.6 -31.5  34166  289.67 0854.35
2009/04/23 15:11:13.5    -649   -184   -317    675    745 254.1 -31.5  34170  289.74 0854.35
2009/04/23 15:11:13.6    -722    -22   -267    723    770 268.2 -25.5  34186  290.02 0854.35
2009/04/23 15:11:13.7    -609   -336   -246    696    739 241.1 -19.5  34204  290.32 0854.35
2009/04/23 15:11:13.8    -374   -148    -89    403    413 248.3 -12.5  34202  290.29 0854.35
2009/04/23 15:11:13.9    -403   -258   -186    479    513 237.4 -26.8  34216  290.51 0854.35
2009/04/23 15:11:14.0    -417   -226   -144    475    496 241.5 -21.8  34216  290.52 0854.30
2009/04/23 15:11:14.1    -608    -79   -181    614    640 262.5 -21.2  34208  290.37 0854.30
2009/04/23 15:11:14.2    -221    -73   -238    233    333 251.6 -55.2  34228  290.71 0854.30
2009/04/23 15:11:14.3    -245   -142    179    284    335 239.8  35.3  34220  290.58 0854.30
2009/04/23 15:11:14.4    -338    -78    121    347    368 257.0  19.3  34230  290.76 0854.30
2009/04/23 15:11:14.5    -529     92   -159    538    562 279.9 -16.5  34222  290.62 0854.30
2009/04/23 15:11:14.6    -759     60   -145    762    776 274.6 -10.8  34192  290.10 0854.30
2009/04/23 15:11:14.7    -751    -41     31    753    754 266.9   2.4  34204  290.31 0854.30
2009/04/23 15:11:14.8    -576      0    103    577    587 270.0  10.1  34206  290.34 0854.30
2009/04/23 15:11:14.9    -415   -146     57    441    445 250.6   7.5  34186  290.00 0854.30
2009/04/23 15:11:15.0    -305   -282    129    416    436 227.2  17.3  34180  289.92 0854.30
2009/04/23 15:11:15.1    -578    -36    -98    580    589 266.4  -9.6  34184  289.98 0854.30
2009/04/23 15:11:15.2    -596     26    -76    597    602 272.5  -7.3  34182  289.95 0854.30
2009/04/23 15:11:15.3    -652   -190    -78    680    685 253.7  -6.6  34192  290.12 0854.30
2009/04/23 15:11:15.4    -664   -391   -157    771    788 239.5 -11.6  34178  289.86 0854.30
2009/04/23 15:11:15.5    -647     34   -159    648    668 273.0 -13.8  34192  290.10 0854.30
2009/04/23 15:11:15.6    -625   -122   -155    638    657 258.9 -13.7  34192  290.13 0854.30
2009/04/23 15:11:15.7    -596    -82   -273    602    661 262.1 -30.6  34148  289.37 0854.30
2009/04/23 15:11:15.8    -323    -30   -115    325    344 264.7 -24.6  34158  289.55 0854.30
2009/04/23 15:11:15.9    -404    -50   -125    408    426 262.9 -22.1  34186  290.00 0854.30
2009/04/23 15:11:16.0    -433    -60   -124    438    456 262.0 -15.8  34190  290.07 0854.27
2009/04/23 15:11:16.2    -462     43   -146    465    488 275.3 -17.5  34178  289.86 0854.27
2009/04/23 15:11:16.3    -452    -11   -153    453    479 268.5 -18.7  34192  290.12 0854.27
2009/04/23 15:11:16.4    -344    -50    -95    348    361 261.6 -15.4  34182  289.94 0854.27
2009/04/23 15:11:16.5    -355    -78    -46    364    367 257.5  -7.2  34198  290.23 0854.27
2009/04/23 15:11:16.6    -224   -173     -7    284    285 232.3  -1.6  34206  290.34 0854.27
2009/04/23 15:11:16.7    -406    -49    -46    410    413 263.0  -6.5  34214  290.48 0854.27
2009/04/23 15:11:16.8    -340    -47   -119    344    365 262.0 -19.1  34212  290.47 0854.27
2009/04/23 15:11:16.9    -242     48    -13    247    248 281.4  -3.1  34212  290.46 0854.27
2009/04/23 15:11:17.0    -232     22     11    234    235 275.5   2.9  34208  290.37 0854.27
2009/04/23 15:11:17.1    -259    -24    -82    261    274 264.7 -17.6  34200  290.26 0854.27
2009/04/23 15:11:17.2    -326     78    -58    336    342 283.6  -9.9  34216  290.52 0854.27
2009/04/23 15:11:17.3    -240    100    -14    261    262 292.7  -3.1  34224  290.65 0854.27
2009/04/23 15:11:17.4    -250    175   -114    306    326 305.1 -25.8  34212  290.46 0854.27
2009/04/23 15:11:17.5    -295    271    -41    402    405 312.6  -5.9  34204  290.31 0854.27
2009/04/23 15:11:17.6    -174    313    -19    359    360 330.9  -3.2  34204  290.32 0854.27
2009/04/23 15:11:17.7       2    259     10    260    261   0.5   2.3  34180  289.92 0854.27
2009/04/23 15:11:17.8     122    247    139    276    309  26.3  28.7  34162  289.59 0854.27
2009/04/23 15:11:17.9     106    325     41    342    345  18.1   6.9  34184  289.99 0854.27
2009/04/23 15:11:18.0     275    102    202    294    356  69.6  37.8  34148  289.37 0854.27
2009/04/23 15:11:18.1     150    117    226    191    295  52.0  55.6  34170  289.73 0854.24
2009/04/23 15:11:18.2     270     12    292    271    398  87.4  52.3  34178  289.87 0854.24
2009/04/23 15:11:18.3      47      3    251     48    255  85.6  89.8  34194  290.16 0854.24
2009/04/23 15:11:18.4     110     -2    219    111    245  91.3  71.4  34192  290.11 0854.24
2009/04/23 15:11:18.5     -97    201     35    224    227 334.1   9.0  34178  289.87 0854.24
2009/04/23 15:11:18.6    -105    114     59    156    166 317.2  21.5  34178  289.87 0854.24
2009/04/23 15:11:18.7    -108     75     39    132    138 305.1  16.8  34180  289.91 0854.24
2009/04/23 15:11:18.8    -115     50     40    126    133 293.5  17.9  34182  289.96 0854.24
2009/04/23 15:11:18.9     -93     68    -63    116    132 306.4 -35.2  34172  289.77 0854.24
2009/04/23 15:11:19.0    -338    156    -59    373    378 294.8  -9.0  34168  289.71 0854.24
2009/04/23 15:11:19.1    -467     72     12    473    474 278.8   1.5  34180  289.91 0854.24
2009/04/23 15:11:19.2    -225   -222    -76    317    327 225.3 -13.6  34182  289.93 0854.24
2009/04/23 15:11:19.3    -204   -275      8    343    344 216.5   1.5  34180  289.91 0854.24
2009/04/23 15:11:19.4    -220   -363     36    425    427 211.2   4.9  34182  289.94 0854.24
2009/04/23 15:11:19.5     -31   -420     56    422    426 184.2   7.6  34184  289.99 0854.24
2009/04/23 15:11:19.6      26   -413    134    414    436 176.4  18.0  34186  290.00 0854.24
2009/04/23 15:11:19.7     100   -384    116    397    414 165.4  16.4  34184  289.97 0854.24
2009/04/23 15:11:19.8     109   -431    193    445    485 165.7  25.0  34166  289.69 0854.24
2009/04/23 15:11:19.9     169   -292    279    338    438 150.0  43.7  34168  289.70 0854.24
2009/04/23 15:11:20.0     227   -124    287    259    386 118.8  53.4  34172  289.76 0854.24
2009/04/23 15:11:20.1      54   -168    284    177    334 162.0  65.1  34182  289.93 0854.29
2009/04/23 15:11:20.2     250   -153    298    294    418 121.5  50.2  34182  289.94 0854.29
2009/04/23 15:11:20.3     104    -27    194    108    222 104.6  68.8  34178  289.87 0854.29
2009/04/23 15:11:20.4     182   -150    211    237    317 129.5  46.4  34160  289.58 0854.29
2009/04/23 15:11:20.5     101   -281    242    299    384 160.2  43.4  34172  289.77 0854.29
2009/04/23 15:11:20.6     -39   -128    153    134    203 196.9  54.3  34170  289.75 0854.29
2009/04/23 15:11:20.7      34    -49    196     60    204 144.8  82.3  34176  289.84 0854.29
2009/04/23 15:11:20.8       2   -171    255    172    307 179.1  62.8  34180  289.92 0854.29
2009/04/23 15:11:20.9      -9   -126    180    127    220 184.4  61.3  34186  290.02 0854.29
2009/04/23 15:11:21.0     -80     -6    131     81    154 265.6  64.7  34184  289.99 0854.29
2009/04/23 15:11:21.1     -48   -124    157    134    206 201.4  55.4  34178  289.87 0854.34
2009/04/23 15:11:21.2    -126   -166     32    209    212 217.4   8.8  34182  289.94 0854.34
2009/04/23 15:11:21.3    -315   -212     49    380    384 236.1   7.5  34196  290.18 0854.34
2009/04/23 15:11:21.4    -301   -443     62    536    540 214.2   6.7  34196  290.18 0854.34
2009/04/23 15:11:21.5    -396   -330    -65    516    521 230.2  -7.2  34192  290.10 0854.34
2009/04/23 15:11:21.6    -331   -347   -120    480    495 223.7 -14.1  34196  290.18 0854.34
2009/04/23 15:11:21.7    -209   -319    -77    382    390 213.3 -11.5  34204  290.32 0854.34
2009/04/23 15:11:21.8    -168   -179   -130    246    278 223.2 -34.6  34204  290.32 0854.34
2009/04/23 15:11:21.9    -249   -387    -44    461    464 212.8  -5.5  34208  290.38 0854.34
2009/04/23 15:11:22.0    -325   -201    -43    383    386 238.2  -6.5  34210  290.42 0854.34
2009/04/23 15:11:22.1    -320   -136   -113    348    366 247.0 -18.0  34204  290.33 0854.34
2009/04/23 15:11:22.2    -111   -201    -69    230    240 209.0 -21.7  34212  290.46 0854.34
2009/04/23 15:11:22.3    -114   -270    106    294    312 202.9  20.7  34214  290.49 0854.34
2009/04/23 15:11:22.4    -245   -382    -20    455    456 212.7  -2.6  34212  290.46 0854.34
2009/04/23 15:11:22.5    -278   -425    -92    509    518 213.2 -10.3  34206  290.35 0854.34
2009/04/23 15:11:22.6    -295   -324   -147    439    464 222.3 -18.6  34172  289.77 0854.34
2009/04/23 15:11:22.7    -243   -228     42    334    337 226.9   7.2  34218  290.57 0854.34
2009/04/23 15:11:22.8    -155   -170     77    231    244 222.3  18.4  34232  290.78 0854.34
2009/04/23 15:11:22.9    -107   -181    -97    211    232 210.7 -31.0  34206  290.36 0854.34
2009/04/23 15:11:23.0     -34   -113     37    119    125 196.9  17.3  34216  290.52 0854.34
2009/04/23 15:11:23.1    -101   -140    -51    173    181 215.8 -16.4  34220  290.58 0854.39
2009/04/23 15:11:23.2     -24   -145    -18    148    150 189.7  -7.2  34222  290.62 0854.39
2009/04/23 15:11:23.3     -73    -69    -45    101    110 226.9 -30.6  34214  290.50 0854.39
2009/04/23 15:11:23.4     -83    -65     -7    106    107 231.8  -4.1  34216  290.53 0854.39
2009/04/23 15:11:23.5     -57    -34     29     67     73 239.3  25.1  34232  290.79 0854.39
2009/04/23 15:11:23.6     -71    -96     94    120    152 216.5  42.7  34234  290.82 0854.39
2009/04/23 15:11:23.7     -26    -90     55     94    108 196.5  32.9  34228  290.74 0854.39
2009/04/23 15:11:23.8     -81   -191    -54    208    215 202.9 -14.7  34226  290.69 0854.39
2009/04/23 15:11:23.9       3    -98    -85     99    130 178.2 -49.8  34212  290.47 0854.39
2009/04/23 15:11:24.0      79     -8     50     80     94  96.1  35.5  34210  290.41 0854.39
2009/04/23 15:11:24.1     -46   -178    102    184    210 194.5  31.4  34212  290.45 0854.39
2009/04/23 15:11:24.2    -141   -133     97    195    217 226.7  28.5  34210  290.43 0854.39
2009/04/23 15:11:24.3    -145   -128     16    194    195 228.7   4.9  34204  290.31 0854.39
2009/04/23 15:11:24.4    -175    -27    -42    178    184 261.0 -13.4  34200  290.26 0854.39
2009/04/23 15:11:24.5     -37   -216     19    220    221 189.8   5.0  34198  290.23 0854.39
2009/04/23 15:11:24.6    -224   -404     99    463    474 209.0  12.2  34192  290.12 0854.39
2009/04/23 15:11:24.7    -279   -352    118    450    466 218.4  14.7  34200  290.24 0854.39
2009/04/23 15:11:24.8    -273   -261    136    378    401 226.3  20.6  34192  290.13 0854.39
2009/04/23 15:11:24.9    -225   -303    134    378    401 216.6  20.2  34182  289.94 0854.39
2009/04/23 15:11:25.0    -177   -355     55    397    402 206.6   8.0  34172  289.76 0854.39
2009/04/23 15:11:25.1    -241   -276     62    367    373 221.1   9.7  34186  290.01 0854.41
2009/04/23 15:11:25.2    -219   -250    -99    333    348 221.1 -16.6  34182  289.96 0854.41
2009/04/23 15:11:25.3    -235   -206   -167    313    354 228.7 -34.9  34202  290.28 0854.41
2009/04/23 15:11:25.4    -106   -478     50    490    493 192.5   5.9  34206  290.34 0854.41
2009/04/23 15:11:25.5     -22   -344    111    345    363 183.7  17.8  34200  290.25 0854.41
2009/04/23 15:11:25.6    -217   -377    199    436    479 209.9  26.2  34226  290.69 0854.41
2009/04/23 15:11:25.7    -101   -280    188    298    352 200.0  35.3  34220  290.60 0854.41
2009/04/23 15:11:25.8    -150   -293    131    330    355 207.1  22.8  34222  290.64 0854.41
2009/04/23 15:11:25.9     -72   -341     67    349    356 192.0  11.0  34204  290.33 0854.41
2009/04/23 15:11:26.0    -108   -393     88    408    418 195.4  12.2  34204  290.31 0854.41
2009/04/23 15:11:26.1      25   -367    128    368    390 176.0  19.2  34194  290.16 0854.41
2009/04/23 15:11:26.2     -55   -390    153    395    423 188.1  22.3  34200  290.26 0854.41
2009/04/23 15:11:26.3    -138   -385    127    410    430 199.7  17.3  34208  290.38 0854.41
2009/04/23 15:11:26.4    -171   -492    112    521    534 199.2  12.2  34202  290.28 0854.41
2009/04/23 15:11:26.5    -244   -404    173    472    502 211.1  21.0  34212  290.45 0854.41
2009/04/23 15:11:26.6    -158   -469    179    496    528 198.7  19.9  34232  290.81 0854.41
2009/04/23 15:11:26.7     -21   -351    246    352    429 183.5  38.5  34218  290.55 0854.41
2009/04/23 15:11:26.8     -28   -375    136    376    399 184.3  20.7  34214  290.50 0854.41
2009/04/23 15:11:26.9     -94   -352    206    365    419 195.1  32.0  34224  290.66 0854.41
2009/04/23 15:11:27.0    -135   -471    106    491    503 196.0  12.3  34222  290.64 0854.36
2009/04/23 15:11:27.1    -119   -403    213    421    471 196.5  28.9  34198  290.21 0854.36
2009/04/23 15:11:27.2    -135   -357    206    382    434 200.8  30.7  34196  290.17 0854.36
2009/04/23 15:11:27.3    -224   -439    190    493    528 207.1  22.3  34226  290.69 0854.36
2009/04/23 15:11:27.4     -51   -361    263    365    449 188.1  39.5  34196  290.19 0854.36
2009/04/23 15:11:27.5    -111   -441    367    455    584 194.2  43.0  34190  290.07 0854.36
2009/04/23 15:11:27.6    -118   -396    274    414    496 196.7  36.5  34202  290.29 0854.36
2009/04/23 15:11:27.7     -54   -270    232    276    360 191.3  44.4  34202  290.27 0854.36
2009/04/23 15:11:27.8     -41   -404    169    407    440 185.9  24.1  34202  290.28 0854.36
2009/04/23 15:11:27.9     106   -421     82    435    443 165.9  10.7  34200  290.24 0854.36
2009/04/23 15:11:28.0     121   -336     71    358    366 160.2  11.3  34196  290.18 0854.36
2009/04/23 15:11:28.1     144   -282    168    317    358 152.9  30.2  34182  289.93 0854.36
2009/04/23 15:11:28.2       9   -312    174    313    358 178.2  31.4  34168  289.72 0854.36
2009/04/23 15:11:28.3      -1   -281    172    282    330 180.2  34.4  34178  289.86 0854.36
2009/04/23 15:11:28.4     -46   -153    150    160    219 196.9  48.0  34198  290.21 0854.36
2009/04/23 15:11:28.5       6   -354    103    355    370 179.0  16.3  34200  290.25 0854.36
2009/04/23 15:11:28.6      40   -367    130    370    393 173.7  19.4  34194  290.15 0854.36
2009/04/23 15:11:28.7      19   -332     99    333    348 176.6  16.7  34182  289.96 0854.36
2009/04/23 15:11:28.8      -4   -397    181    398    437 180.7  26.2  34186  290.02 0854.36
2009/04/23 15:11:28.9     105   -325    249    342    423 162.1  39.7  34192  290.10 0854.36
2009/04/23 15:11:29.0      -7   -409    243    410    476 181.0  33.4  34200  290.26 0854.39
2009/04/23 15:11:29.1     -76   -451    282    458    537 189.6  34.6  34208  290.39 0854.39
2009/04/23 15:11:29.2    -150   -692    182    709    733 192.3  14.4  34196  290.17 0854.39
2009/04/23 15:11:29.3    -126   -799    163    810    827 189.0  11.4  34188  290.03 0854.39
2009/04/23 15:11:29.4    -211   -762    -58    791    794 195.5  -4.2  34146  289.35 0854.39
2009/04/23 15:11:29.5    -304   -844   -105    898    905 199.8  -6.7  34148  289.36 0854.39
2009/04/23 15:11:29.6    -167   -822   -138    839    851 191.5  -9.4  34146  289.34 0854.39
2009/04/23 15:11:29.7    -288   -562   -105    632    641 207.2  -9.5  34168  289.70 0854.39
2009/04/23 15:11:29.8    -339   -364    -82    498    505 222.9  -9.4  34208  290.40 0854.39
2009/04/23 15:11:29.9    -489   -451    -72    666    671 227.4  -6.2  34184  289.97 0854.39
2009/04/23 15:11:30.0    -899   -346    -69    964    967 248.9  -4.1  34168  289.72 0854.39
2009/04/23 15:11:30.1    -566   -406    161    697    716 234.3  13.0  34188  290.06 0854.39
2009/04/23 15:11:30.2    -787   -317   -212    849    876 248.1 -14.1  34144  289.31 0854.39
2009/04/23 15:11:30.3    -286   -434    291    520    595 213.4  31.7  34180  289.90 0854.39
2009/04/23 15:11:30.4    -375   -402    133    550    566 223.0  13.7  34192  290.11 0854.39
2009/04/23 15:11:30.5    -493   -183   -115    527    540 249.6 -12.4  34154  289.48 0854.39
2009/04/23 15:11:30.6    -675   -169    -68    696    700 255.9  -5.6  34166  289.69 0854.39
2009/04/23 15:11:30.7    -255   -587    190    641    669 203.5  16.5  34182  289.93 0854.39
2009/04/23 15:11:30.8    -329   -554    199    645    676 210.7  17.2  34154  289.48 0854.39
2009/04/23 15:11:30.9    -387   -312     88    498    506 231.1  10.1  34166  289.66 0854.39
2009/04/23 15:11:31.0    -399   -511    177    649    673 218.0  15.3  34156  289.49 0854.40
2009/04/23 15:11:31.1    -458   -350    173    577    603 232.6  16.7  34156  289.49 0854.40
2009/04/23 15:11:31.2    -249   -289    282    382    474 220.8  40.1  34156  289.51 0854.40
2009/04/23 15:11:31.3    -117   -502    286    516    589 193.1  31.4  34166  289.67 0854.40
2009/04/23 15:11:31.4    -144   -260    151    298    334 209.0  28.9  34168  289.70 0854.40
2009/04/23 15:11:31.5    -111   -225    -28    252    254 206.3  -6.5  34172  289.78 0854.40
2009/04/23 15:11:31.6    -227   -174     22    287    288 232.5   4.6  34168  289.70 0854.40
2009/04/23 15:11:31.7    -174    -21     92    176    198 263.0  29.8  34178  289.89 0854.40
2009/04/23 15:11:31.8    -313      4    -12    314    315 270.8  -2.2  34194  290.14 0854.40
2009/04/23 15:11:31.9    -193   -160     91    251    266 230.4  20.9  34204  290.31 0854.40
2009/04/23 15:11:32.0     -82   -177    102    196    220 204.9  29.5  34198  290.21 0854.40
2009/04/23 15:11:32.1      -7   -349   -105    350    366 181.2 -16.8  34178  289.89 0854.40
2009/04/23 15:11:32.2    -210   -420    -10    470    471 206.6  -1.3  34182  289.96 0854.40
2009/04/23 15:11:32.3    -256   -369     25    450    451 214.7   3.2  34186  290.02 0854.40
2009/04/23 15:11:32.4    -280   -230     22    363    364 230.5   3.5  34184  289.99 0854.40
2009/04/23 15:11:32.5    -413   -426    179    594    621 224.1  16.8  34166  289.68 0854.40
2009/04/23 15:11:32.6    -714   -494    -33    869    870 235.3  -2.2  34170  289.74 0854.40
2009/04/23 15:11:32.7    -521   -338    141    622    638 237.0  12.8  34178  289.86 0854.40
2009/04/23 15:11:32.8    -518     -2    122    519    534 269.7  13.3  34202  290.28 0854.40
2009/04/23 15:11:32.9    -315   -277    204    420    466 228.7  27.7  34216  290.51 0854.40
2009/04/23 15:11:33.0    -273   -162    185    318    367 239.3  32.9  34230  290.77 0854.42
2009/04/23 15:11:33.1    -292   -117    140    315    344 248.0  25.7  34220  290.60 0854.42
2009/04/23 15:11:33.2    -258   -187     78    319    329 234.0  13.8  34206  290.34 0854.42
2009/04/23 15:11:33.3    -207   -143     36    252    255 235.4   8.2  34196  290.17 0854.42
2009/04/23 15:11:33.4    -275   -112    -97    297    313 247.8 -18.2  34212  290.44 0854.42
2009/04/23 15:11:33.5    -140   -237    -65    276    284 210.5 -13.3  34212  290.44 0854.42
2009/04/23 15:11:33.6     -80   -298     50    309    314 195.2   9.2  34218  290.54 0854.42
2009/04/23 15:11:33.7     -37   -199     57    203    212 190.7  15.8  34204  290.31 0854.42
2009/04/23 15:11:33.8     -23    -68     50     72     87 198.7  38.0  34204  290.31 0854.42
2009/04/23 15:11:33.9     111   -149     70    187    199 143.3  21.3  34180  289.92 0854.42
2009/04/23 15:11:34.0     156   -176    105    236    258 138.6  25.3  34188  290.03 0854.42
2009/04/23 15:11:34.1     153    -26    101    156    185  99.6  35.6  34162  289.62 0854.42
2009/04/23 15:11:34.2      76     69    130    103    165  47.8  57.7  34170  289.74 0854.42
2009/04/23 15:11:34.3     -10     33    110     35    115 343.1  80.7  34194  290.16 0854.42
2009/04/23 15:11:34.4     112     39    122    119    170  70.5  50.4  34174  289.82 0854.42
2009/04/23 15:11:34.5     100    124     76    160    177  38.7  27.2  34172  289.77 0854.42
2009/04/23 15:11:34.6      96     67     64    118    134  54.9  31.3  34196  290.18 0854.42
2009/04/23 15:11:34.7     122    -20     70    124    142  99.7  31.4  34200  290.26 0854.42
2009/04/23 15:11:34.8      91      0    105     92    139  90.4  54.3  34190  290.08 0854.42
2009/04/23 15:11:34.9      71     75     71    104    125  43.7  37.6  34188  290.06 0854.42
2009/04/23 15:11:35.0      61    110     44    126    134  29.0  19.4  34188  290.06 0854.39
2009/04/23 15:11:35.1     125    138     51    187    194  42.1  15.3  34188  290.04 0854.39
2009/04/23 15:11:35.2      -9    261    -18    262    263 358.0  -4.1  34176  289.83 0854.39
2009/04/23 15:11:35.3    -219    124     70    252    262 299.5  15.6  34188  290.05 0854.39
2009/04/23 15:11:35.4    -297    204    -32    361    363 304.5  -5.2  34188  290.03 0854.39
2009/04/23 15:11:35.5    -282    164   -103    327    343 300.2 -17.5  34184  289.98 0854.39
2009/04/23 15:11:35.6    -182    106     73    211    224 300.4  19.2  34176  289.84 0854.39
2009/04/23 15:11:35.7    -397     -5    104    398    412 269.2  14.7  34180  289.90 0854.39
2009/04/23 15:11:35.8    -200   -166    197    261    327 230.4  40.9  34176  289.85 0854.39
2009/04/23 15:11:35.9     -76   -137    201    157    255 209.0  58.2  34200  290.26 0854.39
2009/04/23 15:11:36.0     -71   -184    123    198    233 201.2  35.5  34192  290.11 0854.39
2009/04/23 15:11:36.1      31   -155    148    159    217 168.4  47.9  34196  290.19 0854.39
2009/04/23 15:11:36.2     -47   -129    151    138    204 200.0  52.5  34202  290.28 0854.39
2009/04/23 15:11:36.3     -70   -254     53    264    270 195.6  11.4  34194  290.14 0854.39
2009/04/23 15:11:36.4     -29   -295     60    297    303 185.8  11.4  34196  290.19 0854.39
2009/04/23 15:11:36.5      64   -292     61    299    306 167.6  11.6  34194  290.15 0854.39
2009/04/23 15:11:36.6      60   -327     87    333    345 169.5  14.6  34202  290.27 0854.39
2009/04/23 15:11:36.7      70   -333    228    341    410 168.0  36.9  34190  290.08 0854.39
2009/04/23 15:11:36.8     -11   -364    152    365    395 181.8  24.1  34194  290.16 0854.39
2009/04/23 15:11:36.9      18   -357    173    358    397 177.0  27.8  34188  290.03 0854.39
2009/04/23 15:11:37.0     112   -284    197    306    363 158.4  35.6  34168  289.71 0854.34
2009/04/23 15:11:37.1     113   -343    203    362    415 161.7  31.6  34164  289.65 0854.34
2009/04/23 15:11:37.2     151   -316    284    351    451 154.5  43.1  34170  289.75 0854.34
2009/04/23 15:11:37.3      86   -373    261    383    463 167.0  37.6  34180  289.92 0854.34
2009/04/23 15:11:37.4      19   -388    137    389    413 177.1  19.5  34186  290.02 0854.34
2009/04/23 15:11:37.5      40   -317    207    320    381 172.8  35.7  34192  290.11 0854.34
2009/04/23 15:11:37.6     117   -333    219    354    416 160.6  34.6  34188  290.03 0854.34
2009/04/23 15:11:37.7      78   -387    233    395    458 168.6  33.4  34196  290.19 0854.34
2009/04/23 15:11:37.8     106   -356    261    372    454 163.3  38.5  34196  290.19 0854.34
2009/04/23 15:11:37.9      55   -348    244    353    429 171.0  37.9  34204  290.31 0854.34
2009/04/23 15:11:38.0     101   -331    215    347    408 163.0  34.9  34210  290.42 0854.34
2009/04/23 15:11:38.1      89   -294    174    308    353 163.1  31.9  34230  290.76 0854.34
2009/04/23 15:11:38.2      44   -373    242    376    447 173.2  35.6  34242  290.97 0854.34
2009/04/23 15:11:38.3    -182   -550    141    580    597 198.3  13.7  34240  290.93 0854.34
2009/04/23 15:11:38.4     -23   -363    236    364    433 183.7  36.0  34220  290.58 0854.34
2009/04/23 15:11:38.5      24   -283    191    285    343 175.1  37.2  34216  290.51 0854.34
2009/04/23 15:11:38.6     -34   -348    108    350    367 185.6  17.2  34226  290.69 0854.34
2009/04/23 15:11:38.7     -34   -216    212    219    304 189.1  49.0  34198  290.22 0854.34
2009/04/23 15:11:38.8     -60   -266    255    273    373 192.9  47.9  34184  289.98 0854.34
2009/04/23 15:11:38.9    -107   -269    195    290    349 201.8  36.9  34200  290.25 0854.34
2009/04/23 15:11:39.0     -24   -187    163    189    249 187.6  45.1  34184  289.99 0854.36
2009/04/23 15:11:39.1      45   -175    181    181    255 165.5  50.1  34194  290.14 0854.36
2009/04/23 15:11:39.2     -37   -145    128    150    197 194.3  45.1  34190  290.09 0854.36
2009/04/23 15:11:39.3      27    -82    158     87    180 161.3  68.9  34196  290.18 0854.36
2009/04/23 15:11:39.4      13     25    105     29    108  27.2  84.4  34218  290.57 0854.36
2009/04/23 15:11:39.5     143    -10    152    144    209  94.3  51.6  34220  290.58 0854.36
2009/04/23 15:11:39.6      79      1    111     80    136  89.2  60.6  34222  290.62 0854.36
2009/04/23 15:11:39.7     108     28     68    112    131  75.4  34.4  34210  290.43 0854.36
2009/04/23 15:11:39.8      90      0     35     91     97  90.4  21.5  34208  290.38 0854.36
2009/04/23 15:11:39.9     120     -8    157    121    198  93.9  58.5  34198  290.23 0854.36
2009/04/23 15:11:40.0      50     41    111     66    129  50.5  66.7  34214  290.48 0854.36
2009/04/23 15:11:40.1     187    -21     38    189    193  96.6  11.6  34186  290.01 0854.36
2009/04/23 15:11:40.2     186    -57    -21    195    197 107.1  -6.2  34184  289.99 0854.36
2009/04/23 15:11:40.3     132    -31     70    136    152 103.3  29.3  34182  289.96 0854.36
2009/04/23 15:11:40.4     111    -12     91    112    144  96.6  43.7  34192  290.11 0854.36
2009/04/23 15:11:40.5      85    -31     81     91    121 110.4  46.4  34196  290.19 0854.36
2009/04/23 15:11:40.6      83    -19     76     86    114 102.8  46.4  34200  290.26 0854.36
2009/04/23 15:11:40.7     -13    -45     65     48     80 196.9  60.0  34208  290.40 0854.36
2009/04/23 15:11:40.8      23    -67     80     71    106 160.8  53.3  34200  290.26 0854.36
2009/04/23 15:11:40.9      67    -33     76     75    106 116.2  49.7  34206  290.35 0854.36
2009/04/23 15:11:41.0      84    -17     74     86    113 101.5  45.4  34220  290.58 0854.32
2009/04/23 15:11:41.1      36    -22     81     43     91 121.5  69.8  34236  290.86 0854.32
2009/04/23 15:11:41.2       7     45     60     46     75   9.8  58.5  34234  290.82 0854.32
2009/04/23 15:11:41.3     -39     97     16    105    107 337.7   9.0  34226  290.69 0854.32
2009/04/23 15:11:41.4     -11     81     -3     82     83 352.0  -2.6  34240  290.92 0854.32
2009/04/23 15:11:41.5      71     80     -5    108    109  41.4  -3.1  34264  291.33 0854.32
2009/04/23 15:11:41.6      65    137     62    152    164  25.4  23.4  34282  291.64 0854.32
2009/04/23 15:11:41.7      99    155     66    185    196  32.6  20.2  34280  291.60 0854.32
2009/04/23 15:11:41.8     106     18     29    108    113  80.3  15.3  34268  291.40 0854.32
2009/04/23 15:11:41.9     154     -2    -24    155    157  90.8  -8.8  34268  291.40 0854.32
2009/04/23 15:11:42.0      41     38    -84     57    101  46.9 -67.0  34278  291.59 0854.32
2009/04/23 15:11:42.1      83     40    -81     93    123  64.2 -50.2  34290  291.77 0854.32
2009/04/23 15:11:42.2     127     10    -41    128    135  85.2 -18.1  34282  291.66 0854.32
2009/04/23 15:11:42.3      86      7     32     87     92  85.2  20.4  34284  291.67 0854.32
2009/04/23 15:11:42.4     121     68     15    139    140  60.7   6.5  34296  291.88 0854.32
2009/04/23 15:11:42.5      28     13     29     32     43  64.7  47.9  34290  291.79 0854.32
2009/04/23 15:11:42.6      35     11     92     37     99  71.8  77.1  34316  292.23 0854.32
2009/04/23 15:11:42.7      23     13     67     27     72  61.1  77.1  34322  292.34 0854.32
2009/04/23 15:11:42.8      -2    -19     71     20     73 186.2  83.9  34302  292.00 0854.32
2009/04/23 15:11:43.0     -28    -23     75     37     83 230.4  71.9  34286  291.71 0854.32
2009/04/23 15:11:43.1     -74   -106     57    130    141 214.7  25.1  34246  291.03 0854.36
2009/04/23 15:11:43.2     -74   -116     72    138    155 212.6  29.8  34270  291.43 0854.36
2009/04/23 15:11:43.3     -42    -85     82     95    125 206.3  45.8  34290  291.79 0854.36
2009/04/23 15:11:43.4     -64    -34     29     73     78 242.0  22.5  34290  291.79 0854.36
2009/04/23 15:11:43.5     -86     -8     19     87     90 264.3  12.6  34308  292.08 0854.36
2009/04/23 15:11:43.6     -58    -38     30     70     76 236.7  24.1  34320  292.30 0854.36
2009/04/23 15:11:43.7      13   -120     24    121    124 173.7  11.6  34322  292.34 0854.36
2009/04/23 15:11:43.8      -6   -137     36    138    143 182.6  14.7  34322  292.32 0854.36
2009/04/23 15:11:43.9     -37   -109     54    116    127 198.7  27.1  34328  292.44 0854.36
2009/04/23 15:11:44.0     -91   -149     82    175    193 211.6  27.1  34328  292.42 0854.36
2009/04/23 15:11:44.1    -194    -85     84    212    228 246.3  23.0  34264  291.33 0854.26
2009/04/23 15:11:44.2    -199   -112     11    229    230 240.5   2.8  34236  290.87 0854.26
2009/04/23 15:11:44.3    -170    -93     24    194    196 241.2   7.2  34224  290.67 0854.26
2009/04/23 15:11:44.4    -117   -183     -4    218    219 212.5  -1.3  34224  290.65 0854.26
2009/04/23 15:11:44.5    -131   -163      2    210    211 218.7   0.8  34228  290.72 0854.26
2009/04/23 15:11:44.6     -84    -83     27    119    123 225.2  13.1  34242  290.96 0854.26
2009/04/23 15:11:44.7     -37   -142     53    147    156 194.7  20.4  34228  290.74 0854.26
2009/04/23 15:11:44.8     -27   -168     18    171    172 189.1   6.1  34226  290.70 0854.26
2009/04/23 15:11:44.9       0   -127     -8    128    129 180.0  -3.7  34266  291.38 0854.26
2009/04/23 15:11:45.0     -98   -134     50    167    175 216.3  16.6  34260  291.26 0854.26
2009/04/23 15:11:45.1    -151   -199     26    251    253 217.2   6.1  34266  291.36 0854.26
2009/04/23 15:11:45.2       8   -104    148    105    181 175.5  61.1  34314  292.20 0854.26
2009/04/23 15:11:45.3     -22   -187    165    189    250 186.9  45.8  34326  292.39 0854.26
2009/04/23 15:11:45.4     -71   -235    202    246    318 196.9  43.6  34308  292.07 0854.26
2009/04/23 15:11:45.5     -39   -251    264    255    367 188.9  51.1  34272  291.49 0854.26
2009/04/23 15:11:45.6      49   -157    174    165    239 162.6  51.4  34284  291.67 0854.26
2009/04/23 15:11:45.7      34    -65    148     74    165 151.9  71.4  34280  291.60 0854.26
2009/04/23 15:11:45.8      -6   -123    147    124    192 183.1  55.8  34258  291.25 0854.26
2009/04/23 15:11:45.9     -43   -276    130    280    308 188.9  27.1  34240  290.93 0854.26
2009/04/23 15:11:46.0      -4   -263     96    264    280 180.9  20.9  34236  290.85 0854.26
2009/04/23 15:11:46.1      -5   -345     -9    346    347 180.9  -1.6  34234  290.83 0854.32
2009/04/23 15:11:46.2       4   -280    -10    281    282 179.1  -2.2  34218  290.54 0854.32
2009/04/23 15:11:46.3     -32   -233    -13    236    237 188.0  -3.3  34212  290.44 0854.32
2009/04/23 15:11:46.4      22   -202     90    204    222 173.8  25.2  34200  290.25 0854.32
2009/04/23 15:11:46.5      96   -218     32    239    242 156.3   7.8  34202  290.29 0854.32
2009/04/23 15:11:46.6      91   -125     71    155    170 143.9  26.4  34208  290.38 0854.32
2009/04/23 15:11:46.7     121   -114     47    167    174 133.3  15.8  34202  290.30 0854.32
2009/04/23 15:11:46.8     110   -126      6    168    169 138.8   2.1  34206  290.35 0854.32
2009/04/23 15:11:46.9     -84   -116      9    144    145 216.0   3.8  34206  290.35 0854.32
2009/04/23 15:11:47.0     -35   -129     84    134    158 195.6  35.2  34202  290.30 0854.32
2009/04/23 15:11:47.1     -28   -118    129    122    177 193.4  52.0  34198  290.21 0854.32
2009/04/23 15:11:47.2     -74   -218    179    231    292 198.7  41.7  34194  290.14 0854.32
2009/04/23 15:11:47.3    -164   -317    157    357    389 207.4  25.2  34198  290.21 0854.32
2009/04/23 15:11:47.4    -251   -348     75    430    437 215.9  10.0  34196  290.19 0854.32
2009/04/23 15:11:47.5     -67   -389    163    395    427 189.8  23.7  34200  290.26 0854.32
2009/04/23 15:11:47.6    -139   -390    123    415    433 199.7  16.5  34194  290.14 0854.32
2009/04/23 15:11:47.7     -84   -451     72    459    465 190.6   9.0  34196  290.19 0854.32
2009/04/23 15:11:47.8     -15   -405    160    406    436 182.2  22.8  34196  290.19 0854.32
2009/04/23 15:11:47.9     122   -570    119    584    597 167.9  11.6  34196  290.17 0854.32
2009/04/23 15:11:48.0      91   -543     -6    551    552 170.4  -0.7  34198  290.21 0854.32
2009/04/23 15:11:48.1     148   -537    -30    558    559 164.6  -3.1  34200  290.26 0854.37
2009/04/23 15:11:48.2      41   -405     -8    408    409 174.2  -1.3  34198  290.21 0854.37
2009/04/23 15:11:48.3      50   -467     40    470    472 173.8   4.9  34186  290.01 0854.37
2009/04/23 15:11:48.4     -15   -481     24    482    483 181.8   2.9  34196  290.17 0854.37
2009/04/23 15:11:48.5     -14   -455     23    456    457 181.8   2.9  34200  290.26 0854.37
2009/04/23 15:11:48.6      26   -402    -11    403    404 176.3  -1.6  34202  290.29 0854.37
2009/04/23 15:11:48.7     -21   -409    -56    410    414 183.0  -7.9  34200  290.26 0854.37
2009/04/23 15:11:48.8       5   -378    -81    379    388 179.1 -12.2  34190  290.08 0854.37
2009/04/23 15:11:48.9     -94   -351   -157    364    396 195.1 -29.2  34198  290.21 0854.37
2009/04/23 15:11:49.0    -177   -404   -146    442    466 203.7 -18.3  34204  290.33 0854.37
2009/04/23 15:11:49.1    -115   -465     59    479    483 193.9   7.1  34202  290.30 0854.37
2009/04/23 15:11:49.2     -98   -353    189    367    412 195.5  29.3  34202  290.27 0854.37
2009/04/23 15:11:49.3     -91   -268    147    284    319 198.7  29.5  34198  290.20 0854.37
2009/04/23 15:11:49.4     -91   -400    194    411    454 192.9  27.1  34200  290.24 0854.37
2009/04/23 15:11:49.5     -38   -503    121    505    520 184.4  13.5  34212  290.44 0854.37
2009/04/23 15:11:49.6     -18   -519    136    520    538 182.0  14.7  34216  290.52 0854.37
2009/04/23 15:11:49.7     -68   -512    121    517    532 187.6  13.2  34212  290.46 0854.37
2009/04/23 15:11:49.8    -124   -457    120    474    490 195.2  14.3  34212  290.44 0854.37
2009/04/23 15:11:49.9    -104   -465    101    477    488 192.7  12.0  34212  290.44 0854.37
2009/04/23 15:11:50.0     -34   -512    133    514    531 183.8  14.5  34210  290.41 0854.37
2009/04/23 15:11:50.1     -27   -502    137    503    522 183.1  15.3  34200  290.25 0854.39
2009/04/23 15:11:50.2      22   -544    192    545    578 177.7  19.4  34190  290.09 0854.39
2009/04/23 15:11:50.3      41   -482    245    484    542 175.0  28.8  34188  290.06 0854.39
2009/04/23 15:11:50.4      74   -435    281    442    523 170.3  35.5  34198  290.20 0854.39
2009/04/23 15:11:50.5     187   -307    300    360    468 148.7  44.2  34188  290.05 0854.39
2009/04/23 15:11:50.6      85    -64    206    107    232 126.9  70.6  34190  290.08 0854.39
2009/04/23 15:11:50.7     297   -293    217    418    470 134.7  29.6  34180  289.90 0854.39
2009/04/23 15:11:50.8     187   -364    219    410    464 152.8  30.3  34184  289.97 0854.39
2009/04/23 15:11:50.9      79   -483    219    490    536 170.7  25.7  34188  290.06 0854.39
2009/04/23 15:11:51.0     -43   -511    180    514    545 184.9  19.3  34186  290.01 0854.39
2009/04/23 15:11:51.1     -54   -534    168    537    563 185.8  17.4  34188  290.06 0854.39
2009/04/23 15:11:51.2      33   -532    193    534    568 176.4  19.9  34180  289.90 0854.39
2009/04/23 15:11:51.3      62   -564    245    568    618 173.7  25.0  34170  289.73 0854.39
2009/04/23 15:11:51.4       7   -507    183    508    539 179.1  20.7  34172  289.79 0854.39
2009/04/23 15:11:51.5       8   -381    135    382    405 178.8  20.1  34172  289.77 0854.39
2009/04/23 15:11:51.6     -44   -273     48    277    282 189.3   9.9  34172  289.76 0854.39
2009/04/23 15:11:51.7    -122   -234     12    265    266 207.6   2.8  34180  289.90 0854.39
2009/04/23 15:11:51.8    -233   -266    -64    354    360 221.3 -10.4  34178  289.89 0854.39
2009/04/23 15:11:51.9    -147   -419    -39    445    447 199.3  -5.1  34178  289.87 0854.39
2009/04/23 15:11:52.0    -141   -593    -42    610    612 193.4  -4.0  34170  289.73 0854.38
2009/04/23 15:11:52.1    -291   -691    132    750    762 202.8  10.0  34160  289.58 0854.38
2009/04/23 15:11:52.2    -318   -759     32    824    825 202.7   2.2  34160  289.57 0854.38
2009/04/23 15:11:52.3    -357   -804     26    880    881 204.0   1.7  34142  289.27 0854.38
2009/04/23 15:11:52.4    -555   -627   -197    838    861 221.5 -13.3  34140  289.22 0854.38
2009/04/23 15:11:52.5    -468   -471   -191    665    692 224.8 -16.0  34128  289.02 0854.38
2009/04/23 15:11:52.6    -444   -411   -155    606    626 227.2 -14.4  34142  289.25 0854.38
2009/04/23 15:11:52.7    -461   -369   -201    591    624 231.3 -23.9  34144  289.29 0854.38
2009/04/23 15:11:52.8    -375   -310    -88    487    495 230.4 -10.3  34162  289.59 0854.38
2009/04/23 15:11:52.9    -260   -327   -145    419    444 218.5 -19.1  34160  289.58 0854.38
2009/04/23 15:11:53.0     -84   -413    -80    422    430 191.6 -10.8  34152  289.44 0854.38
2009/04/23 15:11:53.1    -213   -399    -75    453    460 208.1  -9.5  34150  289.41 0854.38
2009/04/23 15:11:53.2    -156   -368    -13    400    401 203.0  -1.9  34152  289.43 0854.38
2009/04/23 15:11:53.3    -316   -480     33    575    576 213.4   3.3  34156  289.52 0854.38
2009/04/23 15:11:53.4    -226   -339     19    408    409 213.7   2.8  34150  289.39 0854.38
2009/04/23 15:11:53.5    -137   -218    129    258    288 212.1  28.5  34160  289.58 0854.38
2009/04/23 15:11:53.6     -29   -192    195    195    275 188.7  50.1  34164  289.63 0854.38
2009/04/23 15:11:53.7    -138   -249     22    285    286 209.0   4.6  34158  289.54 0854.38
2009/04/23 15:11:53.8    -130   -157     45    204    210 219.6  12.6  34162  289.60 0854.38
2009/04/23 15:11:53.9     -67    -67    -45     95    105 225.1 -31.6  34162  289.60 0854.38
2009/04/23 15:11:54.0      38    -85    -64     94    113 155.5 -41.4  34164  289.65 0854.38
2009/04/23 15:11:54.1      66    -56    -30     87     93 130.4 -19.1  34164  289.63 0854.38
2009/04/23 15:11:54.2      32    -46    -42     57     70 144.8 -44.1  34164  289.63 0854.38
2009/04/23 15:11:54.3       6     -5    -21      8     22 129.5 -83.6  34168  289.72 0854.38
2009/04/23 15:11:54.4     -32     21      2     39     40 303.3   3.8  34168  289.70 0854.38
2009/04/23 15:11:54.5     -68    -64     29     94     99 226.9  17.3  34160  289.57 0854.38
2009/04/23 15:11:54.6     -49    -92     37    105    112 208.1  19.4  34160  289.58 0854.38
2009/04/23 15:11:54.7      -9   -133    127    134    184 184.0  48.5  34160  289.58 0854.38
2009/04/23 15:11:54.8      86   -181    151    201    251 154.5  40.7  34164  289.64 0854.38
2009/04/23 15:11:54.9     111   -225     31    252    255 153.7   7.2  34156  289.49 0854.38
2009/04/23 15:11:55.0     130   -138    124    190    226 136.8  36.0  34160  289.58 0854.38
2009/04/23 15:11:55.1     170   -127    110    213    239 126.6  29.3  34162  289.60 0854.38
2009/04/23 15:11:55.2     151   -216     28    264    266 144.9   6.1  34162  289.59 0854.38
2009/04/23 15:11:55.3     207   -168    111    267    289 129.1  24.1  34152  289.44 0854.38
2009/04/23 15:11:55.4     190   -230    -20    299    300 140.3  -3.9  34156  289.49 0854.38
2009/04/23 15:11:55.5     151   -201     22    252    254 143.1   5.2  34152  289.42 0854.38
2009/04/23 15:11:55.6     232   -231     24    328    329 134.8   4.2  34144  289.30 0854.38
2009/04/23 15:11:55.7     209    -76    112    223    249 110.0  28.5  34152  289.42 0854.38
2009/04/23 15:11:55.8     213    -66     27    224    226 107.3   6.9  34148  289.36 0854.38
2009/04/23 15:11:55.9     152   -161     71    222    234 136.7  17.7  34144  289.31 0854.38
2009/04/23 15:11:56.0      41   -136     60    143    155 163.1  23.6  34148  289.38 0854.41
2009/04/23 15:11:56.1     129    -90     88    158    180 125.1  31.4  34150  289.40 0854.41
2009/04/23 15:11:56.2     272    -98    140    290    322 109.9  27.7  34138  289.19 0854.41
2009/04/23 15:11:56.3     245   -109    169    269    317 114.0  35.1  34126  288.98 0854.41
2009/04/23 15:11:56.4      59   -113    182    128    222 152.4  61.5  34148  289.38 0854.41
2009/04/23 15:11:56.5     -59   -215    198    224    298 195.4  45.9  34134  289.14 0854.41
2009/04/23 15:11:56.6       3   -194    251    195    317 179.0  58.3  34136  289.15 0854.41
2009/04/23 15:11:56.7      36   -177    238    181    299 168.5  59.0  34140  289.22 0854.41
2009/04/23 15:11:56.8      64    -13    131     66    146 101.5  71.9  34148  289.36 0854.41
2009/04/23 15:11:56.9     -37    -53    195     65    205 215.2  81.0  34150  289.40 0854.41
2009/04/23 15:11:57.0      25   -121    250    124    279 168.0  71.9  34150  289.39 0854.41
2009/04/23 15:11:57.1       7    -95    185     96    208 175.5  70.8  34160  289.57 0854.41
2009/04/23 15:11:57.2      85    -17    148     87    171 101.5  67.0  34164  289.65 0854.41
2009/04/23 15:11:57.3     -15   -214    152    215    263 184.0  38.6  34142  289.25 0854.41
2009/04/23 15:11:57.4     100     22    131    103    166  77.6  57.7  34162  289.62 0854.41
2009/04/23 15:11:57.5     -26    -31    134     41    140 220.5  82.7  34172  289.79 0854.41
2009/04/23 15:11:57.6     -35     12    142     38    147 290.0  84.9  34178  289.87 0854.41
2009/04/23 15:11:57.7     -35   -193    194    197    276 190.5  49.8  34144  289.29 0854.41
2009/04/23 15:11:57.8      57     31    129     66    144  61.2  70.8  34154  289.48 0854.41
2009/04/23 15:11:57.9      54     34    136     65    150  57.6  72.9  34154  289.48 0854.41
2009/04/23 15:11:58.0      41     36    173     55    181  48.7  81.8  34168  289.72 0854.47
2009/04/23 15:11:58.1      18   -100    148    102    179 169.3  62.1  34150  289.40 0854.47
2009/04/23 15:11:58.2       0      7    118      8    118 355.5  90.0  34164  289.63 0854.47
2009/04/23 15:11:58.3      10    -11    131     16    131 136.6  90.0  34158  289.53 0854.47
2009/04/23 15:11:58.4     -17    -53    174     56    182 198.7  81.2  34150  289.40 0854.47
2009/04/23 15:11:58.5      -7    -49    175     50    182 188.9  84.1  34156  289.52 0854.47
2009/04/23 15:11:58.6     -15    -45    206     48    211 199.2  87.0  34166  289.67 0854.47
2009/04/23 15:11:58.7     -32   -191    138    194    238 189.6  38.8  34144  289.31 0854.47
2009/04/23 15:11:58.8      18    -46     91     50    103 158.2  68.8  34154  289.48 0854.47
2009/04/23 15:11:58.9      23     -8     77     25     80 110.0  81.2  34164  289.65 0854.47
2009/04/23 15:11:59.0     -46      4     70     47     84 276.1  63.6  34176  289.85 0854.47
2009/04/23 15:11:59.1     -64     43    134     78    155 304.2  66.8  34174  289.80 0854.47
2009/04/23 15:11:59.2     -40     28    139     49    147 305.1  80.2  34170  289.74 0854.47
2009/04/23 15:11:59.3      36    -21    173     43    178 120.7  85.9  34164  289.63 0854.47
2009/04/23 15:11:59.4      24    -25     93     35     99 136.6  78.6  34168  289.72 0854.47
2009/04/23 15:11:59.5      27    -14    126     31    129 117.1  86.9  34178  289.87 0854.47
2009/04/23 15:11:59.6       0    -18     90     19     91 182.7  89.0  34168  289.70 0854.47
2009/04/23 15:11:59.7       0    -62    155     63    167 179.1  76.8  34152  289.45 0854.47
2009/04/23 15:11:59.8      99    -90    151    134    201 132.2  54.0  34146  289.35 0854.47
2009/04/23 15:11:59.9      63   -179    181    191    263 160.4  48.5  34138  289.20 0854.47
2009/04/23 15:12:00.0      95   -209    149    230    274 155.5  36.0  34140  289.24 0854.49
2009/04/23 15:12:00.1      33   -232    121    235    264 171.8  29.3  34146  289.32 0854.49
2009/04/23 15:12:00.2      25   -184    128    186    225 172.2  38.0  34144  289.30 0854.49
2009/04/23 15:12:00.3      42   -185    136    190    233 167.1  39.3  34142  289.28 0854.49
2009/04/23 15:12:00.4      70   -174    177    188    258 157.9  48.0  34148  289.37 0854.49
2009/04/23 15:12:00.5     -11    -53    135     55    145 191.6  77.0  34154  289.48 0854.49
2009/04/23 15:12:00.6      21   -100    161    103    191 168.0  64.6  34150  289.41 0854.49
2009/04/23 15:12:00.7     207    -64     90    217    234 107.3  24.1  34144  289.31 0854.49
2009/04/23 15:12:00.8     186   -115     81    219    233 121.8  21.0  34146  289.33 0854.49
2009/04/23 15:12:00.9     206    -97    117    228    256 115.3  29.2  34148  289.36 0854.49
2009/04/23 15:12:01.0     219    -88    111    237    261 111.8  27.1  34156  289.51 0854.49
2009/04/23 15:12:01.1     226   -164    115    280    302 126.0  23.1  34140  289.22 0854.49
2009/04/23 15:12:01.2     199   -428    231    472    525 155.1  28.0  34126  288.98 0854.49
2009/04/23 15:12:01.3     372   -332     91    499    508 131.8  10.4  34122  288.93 0854.49
2009/04/23 15:12:01.4     270   -353    -17    445    446 142.6  -2.2  34126  289.00 0854.49
2009/04/23 15:12:01.5     161   -458     67    486    491 160.6   7.9  34126  288.98 0854.49
2009/04/23 15:12:01.6     143   -408    148    433    458 160.6  18.9  34136  289.16 0854.49
2009/04/23 15:12:01.7     126   -413    -61    432    437 163.0  -8.1  34136  289.16 0854.49
2009/04/23 15:12:01.8     185   -520    -79    553    559 160.4  -8.2  34130  289.07 0854.49
2009/04/23 15:12:01.9     174   -554     19    581    582 162.5   1.9  34142  289.25 0854.49
2009/04/23 15:12:02.0       8   -566    155    567    588 179.1  15.3  34144  289.29 0854.49
2009/04/23 15:12:02.1       3   -456     75    457    464 179.5   9.3  34142  289.26 0854.49
2009/04/23 15:12:02.2     -19   -430    -68    431    437 182.6  -9.0  34140  289.24 0854.49
2009/04/23 15:12:02.3     -46   -492   -101    495    506 185.4 -11.6  34146  289.34 0854.49
2009/04/23 15:12:02.4    -353   -667   -124    755    766 207.9  -9.4  34154  289.48 0854.49
2009/04/23 15:12:02.5    -734   -457   -239    865    897 238.1 -20.1  34146  289.33 0854.49
2009/04/23 15:12:02.6    -603   -230   -266    646    698 249.1 -28.1  34160  289.56 0854.49
2009/04/23 15:12:02.7    -407   -352     -6    539    540 229.1  -0.7  34130  289.06 0854.49
2009/04/23 15:12:02.8     -89   -367     47    378    381 193.7   7.1  34148  289.38 0854.49
2009/04/23 15:12:02.9    -143   -661    137    677    691 192.3  11.5  34146  289.34 0854.49
2009/04/23 15:12:03.0    -556   -563    -26    792    793 224.6  -1.9  34164  289.63 0854.49
2009/04/23 15:12:03.1    -377   -510    178    635    660 216.5  15.7  34158  289.53 0854.49
2009/04/23 15:12:03.2    -299   -539     64    617    621 209.0   6.0  34150  289.40 0854.49
2009/04/23 15:12:03.3    -176   -472    118    505    519 200.5  13.2  34146  289.32 0854.49
2009/04/23 15:12:03.4      61   -485    250    489    549 172.8  29.2  34158  289.53 0854.49
2009/04/23 15:12:03.5     -41   -539    -23    541    542 184.4  -2.5  34158  289.55 0854.49
2009/04/23 15:12:03.6    -193   -578    -43    610    612 198.5  -4.1  34150  289.41 0854.49
2009/04/23 15:12:03.7    -248   -516    -55    573    576 205.7  -5.6  34148  289.37 0854.49
2009/04/23 15:12:03.8    -188   -852     13    873    874 192.5   0.9  34156  289.52 0854.49
2009/04/23 15:12:03.9    -356   -664    106    754    762 208.2   8.0  34152  289.43 0854.49
2009/04/23 15:12:04.0    -719   -603     29    939    940 230.0   1.8  34152  289.42 0854.48
2009/04/23 15:12:04.1    -659   -343   -199    743    770 242.5 -15.1  34156  289.50 0854.48
2009/04/23 15:12:04.2    -548   -674     -4    869    870 219.1  -0.3  34156  289.49 0854.48
2009/04/23 15:12:04.3    -757   -446   -295    879    928 239.5 -18.6  34168  289.70 0854.48
2009/04/23 15:12:04.4    -667   -425   -224    792    823 237.5 -20.5  34166  289.67 0854.48
2009/04/23 15:12:04.5    -606   -458    -78    760    764 232.9  -5.9  34166  289.67 0854.48
2009/04/23 15:12:04.6    -937   -370   -343   1008   1065 248.4 -18.8  34156  289.51 0854.48
2009/04/23 15:12:04.7    -739   -234   -219    776    807 252.4 -15.8  34166  289.66 0854.48
2009/04/23 15:12:04.8    -500    -85   -181    508    539 260.3 -24.8  34168  289.70 0854.48
2009/04/23 15:12:04.9    -243     56    123    250    278 283.0  28.2  34164  289.63 0854.48
2009/04/23 15:12:05.0    -336     98     55    351    356 286.3   8.9  34168  289.72 0854.48
2009/04/23 15:12:05.1    -166    -10    215    167    272 266.5  58.4  34188  290.05 0854.48
2009/04/23 15:12:05.2    -224    -92    119    243    270 247.6  27.8  34186  290.00 0854.48
2009/04/23 15:12:05.3      -9    -97     34     98    104 185.8  19.4  34174  289.82 0854.48
2009/04/23 15:12:05.4     204    -35      4    208    209  99.9   1.2  34168  289.70 0854.48
2009/04/23 15:12:05.5     200    265      8    333    334  37.0   1.5  34186  290.01 0854.48
2009/04/23 15:12:05.6     120      1     78    121    143  89.1  35.6  34180  289.92 0854.48
2009/04/23 15:12:05.7     164   -114    123    200    234 124.9  34.4  34190  290.09 0854.48
2009/04/23 15:12:05.8     132    -84    162    157    225 122.4  50.9  34188  290.04 0854.48
2009/04/23 15:12:05.9     -71   -111     70    132    149 212.6  30.3  34202  290.28 0854.48
2009/04/23 15:12:06.0     -60   -108      1    124    125 209.0   0.8  34190  290.09 0854.48
2009/04/23 15:12:06.1     -26   -122    -16    125    127 192.0  -7.7  34188  290.04 0854.48
2009/04/23 15:12:06.2     -21   -283     29    284    286 184.4   6.0  34172  289.76 0854.48
2009/04/23 15:12:06.3     -41   -324    -14    327    328 187.4  -2.6  34174  289.81 0854.48
2009/04/23 15:12:06.4      36   -370      0    372    373 174.4   0.0  34168  289.72 0854.48
2009/04/23 15:12:06.5    -103   -462     18    474    475 192.7   2.2  34166  289.66 0854.48
2009/04/23 15:12:06.6     -23   -380     32    381    383 183.5   4.9  34158  289.54 0854.48
2009/04/23 15:12:06.7      69   -391    248    398    468 169.9  34.9  34174  289.80 0854.48
2009/04/23 15:12:06.8     -29   -252    345    254    428 186.7  60.4  34184  289.98 0854.48
2009/04/23 15:12:06.9      10    -97    266     98    283 173.8  79.2  34182  289.95 0854.48
2009/04/23 15:12:07.0      -4   -273    409    274    492 180.9  63.2  34186  290.02 0854.51
2009/04/23 15:12:07.1      20   -775    329    776    842 178.5  24.4  34182  289.94 0854.51
2009/04/23 15:12:07.2     155   -573    379    594    704 164.9  35.6  34216  290.53 0854.51
2009/04/23 15:12:07.3      49   -600    -33    603    604 175.3  -3.1  34180  289.91 0854.51
2009/04/23 15:12:07.4      39   -964    273    965   1003 177.7  15.8  34174  289.80 0854.51
2009/04/23 15:12:07.5      -3   -868    340    869    933 180.3  22.5  34184  289.99 0854.51
2009/04/23 15:12:07.6     344   -633    188    721    746 151.5  14.6  34184  289.99 0854.51
2009/04/23 15:12:07.7     152   -333    169    367    404 155.4  26.5  34174  289.82 0854.51
2009/04/23 15:12:07.8     -59   -588    -69    592    597 185.8  -6.7  34182  289.95 0854.51
2009/04/23 15:12:07.9      45   -460   -155    463    489 174.3 -18.6  34180  289.91 0854.51
2009/04/23 15:12:08.0     185   -432    -18    471    472 156.8  -2.2  34178  289.88 0854.51
2009/04/23 15:12:08.1     286   -538    143    610    627 152.0  13.3  34174  289.81 0854.51
2009/04/23 15:12:08.2     109   -317    248    336    417 161.0  40.0  34168  289.71 0854.51
2009/04/23 15:12:08.3     220   -349    322    413    523 147.8  41.7  34170  289.74 0854.51
2009/04/23 15:12:08.4      63   -317    274    324    424 168.7  44.5  34174  289.82 0854.51
2009/04/23 15:12:08.5     -21   -424   -118    425    442 182.9 -15.5  34178  289.87 0854.51
2009/04/23 15:12:08.6      53   -447   -124    451    467 173.1 -20.1  34172  289.77 0854.51
2009/04/23 15:12:08.7      24   -266    -87    268    281 174.7 -23.3  34168  289.70 0854.51
2009/04/23 15:12:08.8     180   -104     71    208    220 120.0  18.9  34176  289.84 0854.51
2009/04/23 15:12:08.9     129   -226    130    261    291 150.2  28.2  34172  289.78 0854.51
2009/04/23 15:12:09.0     297    -41   -123    300    324  97.9 -28.0  34178  289.88 0854.51
2009/04/23 15:12:09.1     239   -251     65    347    354 136.5  10.7  34182  289.93 0854.51
2009/04/23 15:12:09.2      86   -210    197    227    300 157.7  45.8  34182  289.93 0854.51
2009/04/23 15:12:09.3    -183   -230    -52    294    299 218.5 -10.1  34186  290.00 0854.51
2009/04/23 15:12:09.4    -100    -75    114    126    169 233.1  46.9  34178  289.87 0854.51
2009/04/23 15:12:09.5     -15    -31    239     35    241 207.2  90.0  34206  290.35 0854.51
2009/04/23 15:12:09.6      88   -358    310    369    481 166.1  44.3  34184  289.99 0854.51
2009/04/23 15:12:09.7     100   -535      4    545    546 169.4   0.5  34192  290.13 0854.51
2009/04/23 15:12:09.8     -12   -440    -17    441    442 181.6  -2.2  34190  290.09 0854.51
2009/04/23 15:12:09.9    -151   -378     68    408    414 201.9   9.5  34192  290.11 0854.51
2009/04/23 15:12:10.0     266   -380    400    465    613 145.0  45.1  34182  289.94 0854.51
2009/04/23 15:12:10.1     -69   -631    228    635    674 186.3  20.7  34184  289.99 0854.51
2009/04/23 15:12:10.2     132   -559    107    575    585 166.7  10.6  34194  290.14 0854.51
2009/04/23 15:12:10.3     233   -390    286    455    537 149.2  35.3  34190  290.08 0854.51
2009/04/23 15:12:10.4     177    -16    192    178    261  95.2  52.2  34184  289.97 0854.51
2009/04/23 15:12:10.5     509    -87    -54    517    520  99.7  -6.0  34188  290.05 0854.51
2009/04/23 15:12:10.6     452    178    -15    486    487  68.5  -1.8  34186  290.01 0854.51
2009/04/23 15:12:10.8     401    204     92    450    460  63.0  11.6  34182  289.94 0854.51
2009/04/23 15:12:10.9     315      2     52    316    321  89.6   9.4  34174  289.81 0854.51
2009/04/23 15:12:11.0     150   -102    215    182    281 124.2  55.4  34192  290.12 0854.51
2009/04/23 15:12:11.1     211   -246     25    325    327 139.4   4.5  34172  289.78 0854.54
2009/04/23 15:12:11.2     181   -240    200    301    361 143.0  36.7  34172  289.77 0854.54
2009/04/23 15:12:11.3     180   -445    195    481    519 157.9  23.5  34176  289.83 0854.54
2009/04/23 15:12:11.4     238   -526    164    578    601 155.7  15.9  34156  289.49 0854.54
2009/04/23 15:12:11.5     447   -639    235    781    816 145.0  16.8  34162  289.60 0854.54
2009/04/23 15:12:11.6     461   -632    283    783    833 143.9  19.9  34152  289.42 0854.54
2009/04/23 15:12:11.7     221   -580    373    622    725 159.1  33.7  34156  289.49 0854.54
2009/04/23 15:12:11.8     270   -566    364    628    725 154.5  32.7  34158  289.54 0854.54
2009/04/23 15:12:11.9     394   -507    241    643    686 142.2  21.6  34174  289.80 0854.54
2009/04/23 15:12:12.0     634   -436    304    770    827 124.5  22.8  34152  289.42 0854.54
2009/04/23 15:12:12.1     606   -209     93    642    649 109.1   8.3  34166  289.67 0854.54
2009/04/23 15:12:12.2     402   -291     24    497    498 125.9   2.8  34172  289.78 0854.54
2009/04/23 15:12:12.3     459   -429    110    629    639 133.1  10.0  34164  289.65 0854.54
2009/04/23 15:12:12.4     293   -262    175    394    431 131.8  25.3  34174  289.80 0854.54
2009/04/23 15:12:12.5      83   -291    236    303    384 164.0  41.9  34172  289.79 0854.54
2009/04/23 15:12:12.6     169   -361    222    399    456 154.8  31.4  34172  289.78 0854.54
2009/04/23 15:12:12.7     114   -488    167    502    530 166.8  18.5  34174  289.80 0854.54
2009/04/23 15:12:12.8     104   -376    209    391    443 164.5  30.5  34164  289.65 0854.54
2009/04/23 15:12:12.9      69   -360    171    367    404 169.1  26.9  34168  289.71 0854.54
2009/04/23 15:12:13.0      25   -329    147    331    362 175.5  25.6  34176  289.84 0854.54
2009/04/23 15:12:13.1      74   -496    336    502    604 171.5  37.0  34166  289.66 0854.53
2009/04/23 15:12:13.2     300   -329    330    446    554 137.6  40.2  34154  289.48 0854.53
2009/04/23 15:12:13.3     276     91      4    291    292  71.6   0.8  34170  289.73 0854.53
2009/04/23 15:12:13.4     191   -223   -175    294    342 139.5 -38.0  34170  289.73 0854.53
2009/04/23 15:12:13.5      63    -86    -99    107    145 143.9 -52.3  34168  289.70 0854.53
2009/04/23 15:12:13.6     111    -44     95    120    153 111.7  43.3  34170  289.75 0854.53
2009/04/23 15:12:13.7     251    -54    188    257    318 102.2  39.9  34172  289.76 0854.53
2009/04/23 15:12:13.8     135     10    151    136    203  85.6  53.3  34166  289.69 0854.53
2009/04/23 15:12:13.9     252    204    126    325    348  50.9  22.3  34162  289.59 0854.53
2009/04/23 15:12:14.0     481     47    108    484    497  84.4  12.6  34162  289.61 0854.53
2009/04/23 15:12:14.1     270      3     99    271    288  89.2  20.9  34162  289.59 0854.53
2009/04/23 15:12:14.2     372   -100    243    386    456 105.1  35.3  34156  289.51 0854.53
2009/04/23 15:12:14.3     -33   -118     90    123    152 195.6  39.7  34170  289.75 0854.53
2009/04/23 15:12:14.4      56   -303    -41    309    312 169.5  -7.7  34160  289.58 0854.53
2009/04/23 15:12:14.5     214   -480    266    526    589 155.9  29.1  34144  289.30 0854.53
2009/04/23 15:12:14.6     214   -468    238    515    567 155.4  26.6  34146  289.35 0854.53
2009/04/23 15:12:14.7     186   -537    306    569    646 160.8  30.7  34152  289.42 0854.53
2009/04/23 15:12:14.8     224   -698    458    734    865 162.2  34.9  34148  289.38 0854.53
2009/04/23 15:12:14.9     240   -719    385    759    851 161.5  29.1  34154  289.48 0854.53
2009/04/23 15:12:15.0     402   -760    278    860    904 152.1  17.9  34154  289.47 0854.53
2009/04/23 15:12:15.1     358   -643    313    737    800 150.9  24.5  34142  289.27 0854.40
2009/04/23 15:12:15.2     279   -520    320    591    672 151.8  30.8  34146  289.33 0854.40
2009/04/23 15:12:15.3     417   -479    160    636    656 139.0  14.2  34150  289.40 0854.40
2009/04/23 15:12:15.4     410   -566     73    699    703 144.1   6.0  34150  289.40 0854.40
2009/04/23 15:12:15.5     273   -555    221    619    658 153.8  19.7  34152  289.42 0854.40
2009/04/23 15:12:15.6     356   -440    199    567    602 141.0  19.4  34152  289.42 0854.40
2009/04/23 15:12:15.7     220   -349    210    413    463 147.7  29.1  34156  289.51 0854.40
2009/04/23 15:12:15.8     122   -389    367    408    548 162.5  46.6  34152  289.44 0854.40
2009/04/23 15:12:15.9      28   -204    240    207    316 172.0  54.8  34154  289.47 0854.40
2009/04/23 15:12:16.0     -55   -468    365    472    596 186.7  41.7  34156  289.51 0854.40
2009/04/23 15:12:16.1     -59   -414    273    419    500 188.1  36.2  34156  289.50 0854.40
2009/04/23 15:12:16.2      -6   -397    346    398    527 180.9  45.5  34166  289.67 0854.40
2009/04/23 15:12:16.3      50   -103    110    115    159 154.1  49.0  34162  289.60 0854.40
2009/04/23 15:12:16.4     306     62    259    313    406  78.5  43.8  34158  289.54 0854.40
2009/04/23 15:12:16.5      88    -73    332    115    351 130.0  80.6  34172  289.76 0854.40
2009/04/23 15:12:16.6      33   -431    290    433    521 175.5  37.0  34160  289.56 0854.40
2009/04/23 15:12:16.7    -260   -605    176    659    683 203.3  15.0  34146  289.34 0854.40
2009/04/23 15:12:16.8    -189   -422    133    463    482 204.1  16.0  34160  289.57 0854.40
2009/04/23 15:12:16.9    -255   -520     60    580    584 206.1   6.0  34156  289.52 0854.40
2009/04/23 15:12:17.0    -275   -592    -84    653    659 204.9  -7.4  34162  289.60 0854.40
2009/04/23 15:12:17.1     -16   -426    -38    427    429 182.3  -5.2  34154  289.46 0854.39
2009/04/23 15:12:17.2     -58   -189     81    198    213 197.2  23.1  34152  289.43 0854.39
2009/04/23 15:12:17.3     182   -115    175    216    277 122.4  43.3  34166  289.66 0854.39
2009/04/23 15:12:17.4      75   -316    138    325    353 166.6  24.3  34154  289.48 0854.39
2009/04/23 15:12:17.5      60   -203     78    212    225 163.5  21.0  34164  289.65 0854.39
2009/04/23 15:12:17.6    -169   -287    168    334    373 210.5  28.7  34160  289.57 0854.39
2009/04/23 15:12:17.7    -311   -221     45    382    385 234.6   6.8  34160  289.57 0854.39
2009/04/23 15:12:17.8     -37    -78    197     87    215 205.4  74.8  34170  289.74 0854.39
2009/04/23 15:12:17.9      50   -231    192    237    305 167.7  43.7  34168  289.71 0854.39
2009/04/23 15:12:18.0     138   -144    210    200    290 136.3  51.2  34174  289.80 0854.39
2009/04/23 15:12:18.1     -33   -471    244    473    532 184.0  29.3  34152  289.44 0854.39
2009/04/23 15:12:18.2      79   -536    342    542    640 171.5  35.3  34152  289.44 0854.39
2009/04/23 15:12:18.3     140   -691    344    705    784 168.5  27.9  34158  289.55 0854.39
2009/04/23 15:12:18.4      65   -720    289    723    778 174.8  23.0  34144  289.31 0854.39
2009/04/23 15:12:18.5     126   -797    285    808    856 171.0  20.2  34154  289.48 0854.39
2009/04/23 15:12:18.6     183   -879    268    899    939 168.2  16.6  34154  289.46 0854.39
2009/04/23 15:12:18.7       0   -786    278    787    834 180.0  20.3  34162  289.60 0854.39
2009/04/23 15:12:18.8      33   -862    310    863    916 177.8  20.7  34164  289.63 0854.39
2009/04/23 15:12:18.9     111   -908    285    915    959 173.0  17.3  34164  289.64 0854.39
2009/04/23 15:12:19.0     140   -778    281    791    839 169.8  20.4  34170  289.75 0854.39
2009/04/23 15:12:19.1     120   -741     93    751    757 170.8   7.1  34170  289.75 0854.39
2009/04/23 15:12:19.2      23   -576     65    577    581 177.7   6.5  34170  289.75 0854.39
2009/04/23 15:12:19.3     264   -679     93    729    735 158.7   7.3  34164  289.64 0854.39
2009/04/23 15:12:19.4     274   -727    227    778    811 159.3  16.3  34164  289.63 0854.39
2009/04/23 15:12:19.5     293   -794    327    847    907 159.7  22.2  34162  289.62 0854.39
2009/04/23 15:12:19.6     379   -687    248    785    824 151.1  17.5  34160  289.57 0854.39
2009/04/23 15:12:19.7     468   -588    293    752    807 141.5  22.4  34150  289.41 0854.39
2009/04/23 15:12:19.8     394   -395    285    559    627 135.1  29.2  34148  289.36 0854.39
2009/04/23 15:12:19.9     274   -431    445    512    678 147.5  45.5  34154  289.47 0854.39
2009/04/23 15:12:20.0     441   -656    372    791    874 146.1  27.1  34174  289.82 0854.39
2009/04/23 15:12:20.1     281   -308    433    418    601 137.6  51.2  34176  289.84 0854.39
2009/04/23 15:12:20.2     -24   -560    158    561    584 182.5  15.8  34184  289.97 0854.39
2009/04/23 15:12:20.3      64   -537    302    541    619 173.1  31.4  34170  289.75 0854.39
2009/04/23 15:12:20.4     366   -572    301    680    743 147.4  25.3  34174  289.81 0854.39
2009/04/23 15:12:20.5     310   -634    425    706    824 153.9  33.8  34180  289.90 0854.39
2009/04/23 15:12:20.6     -42   -798    641    800   1025 183.0  42.8  34186  290.01 0854.39
2009/04/23 15:12:20.7    -306   -886    122    938    946 199.1   7.4  34162  289.61 0854.39
2009/04/23 15:12:20.8     -21   -703   -239    704    744 181.8 -18.8  34170  289.74 0854.39
2009/04/23 15:12:20.9    -159   -765     -6    782    783 191.8  -0.5  34170  289.74 0854.39
2009/04/23 15:12:21.0     -91   -686    -27    693    694 187.6  -2.2  34176  289.83 0854.40
2009/04/23 15:12:21.1      25   -549   -195    550    583 177.3 -24.6  34180  289.90 0854.40
2009/04/23 15:12:21.2     -99   -685   -190    693    719 188.3 -15.4  34176  289.83 0854.40
2009/04/23 15:12:21.3     -61   -717   -256    720    764 184.9 -24.8  34156  289.50 0854.40
2009/04/23 15:12:21.4     -23   -626   -315    627    701 182.1 -33.2  34158  289.54 0854.40
2009/04/23 15:12:21.5    -136   -623   -183    638    664 192.4 -16.1  34144  289.31 0854.40
2009/04/23 15:12:21.6    -124   -614   -204    627    659 191.5 -23.2  34166  289.67 0854.40
2009/04/23 15:12:21.7    -167   -595   -238    618    662 195.7 -26.6  34178  289.86 0854.40
2009/04/23 15:12:21.8    -196   -616   -230    647    687 197.7 -19.6  34146  289.34 0854.40
2009/04/23 15:12:21.9    -322   -596   -174    678    700 208.4 -14.4  34158  289.53 0854.40
2009/04/23 15:12:22.0    -311   -616    -58    691    694 206.8  -4.8  34154  289.48 0854.40
2009/04/23 15:12:22.1     -67   -588   -175    592    617 186.6 -21.2  34138  289.19 0854.40
2009/04/23 15:12:22.2    -422   -559   -303    701    763 217.1 -29.4  34140  289.24 0854.40
2009/04/23 15:12:22.3    -396   -326   -172    514    542 230.5 -23.3  34150  289.41 0854.40
2009/04/23 15:12:22.4    -198   -199   -113    281    302 224.9 -27.5  34148  289.36 0854.40
2009/04/23 15:12:22.5    -255   -230    -98    344    357 227.9 -20.7  34152  289.45 0854.40
2009/04/23 15:12:22.6    -249   -196   -100    318    333 231.8 -22.4  34156  289.51 0854.40
2009/04/23 15:12:22.7    -111   -292    -40    313    316 200.9  -7.3  34142  289.27 0854.40
2009/04/23 15:12:22.8     -69   -296   -102    304    321 193.1 -18.7  34144  289.29 0854.40
2009/04/23 15:12:22.9    -217   -372    -71    432    438 210.3  -9.4  34140  289.24 0854.40
2009/04/23 15:12:23.0    -300   -362   -145    471    492 219.7 -22.2  34142  289.27 0854.41
2009/04/23 15:12:23.1    -329   -227   -189    400    442 235.4 -31.5  34142  289.26 0854.41
2009/04/23 15:12:23.2    -236   -127   -111    269    291 241.6 -28.2  34144  289.29 0854.41
2009/04/23 15:12:23.3    -117   -162   -126    201    237 215.8 -39.4  34142  289.26 0854.41
2009/04/23 15:12:23.4    -147   -225     -1    270    271 213.2  -0.3  34136  289.15 0854.41
2009/04/23 15:12:23.5    -166   -299     67    343    350 209.0  11.1  34146  289.33 0854.41
2009/04/23 15:12:23.6     -79   -219     24    233    235 200.0   6.0  34148  289.37 0854.41
2009/04/23 15:12:23.7    -283   -118   -141    307    337 247.3 -30.9  34150  289.39 0854.41
2009/04/23 15:12:23.8    -162    -31   -221    166    276 259.0 -63.8  34150  289.41 0854.41
2009/04/23 15:12:23.9    -143   -280   -144    315    346 207.2 -30.7  34138  289.21 0854.41
2009/04/23 15:12:24.0    -105   -320   -113    337    355 198.3 -23.6  34144  289.30 0854.41
2009/04/23 15:12:24.1     -52   -373   -113    377    394 188.0 -16.7  34146  289.33 0854.41
2009/04/23 15:12:24.2    -109   -478     -9    491    492 192.9  -1.1  34140  289.22 0854.41
2009/04/23 15:12:24.3    -147   -525     11    546    547 195.7   1.2  34154  289.48 0854.41
2009/04/23 15:12:24.4    -120   -533     31    547    548 192.8   3.3  34140  289.23 0854.41
2009/04/23 15:12:24.5    -435   -559     60    709    712 217.9   4.9  34148  289.37 0854.41
2009/04/23 15:12:24.6    -445   -575   -140    728    742 217.7 -10.9  34140  289.24 0854.41
2009/04/23 15:12:24.7    -389   -469    -12    610    611 219.7  -1.2  34148  289.37 0854.41
2009/04/23 15:12:24.8    -320   -362     21    484    485 221.5   2.5  34154  289.47 0854.41
2009/04/23 15:12:24.9    -340   -329     24    474    475 226.0   2.9  34146  289.34 0854.41
2009/04/23 15:12:25.0    -288   -337     32    444    446 220.6   4.2  34148  289.38 0854.41
2009/04/23 15:12:25.1    -126   -220     59    254    261 209.9  13.2  34152  289.42 0854.41
2009/04/23 15:12:25.2    -128   -290    141    318    347 203.8  25.7  34156  289.50 0854.41
2009/04/23 15:12:25.3     -79   -493     98    500    510 189.1  11.1  34146  289.35 0854.41
2009/04/23 15:12:25.4    -104   -447    117    460    475 193.2  14.3  34136  289.15 0854.41
2009/04/23 15:12:25.5     -43   -303    112    307    326 188.2  20.7  34144  289.29 0854.41
2009/04/23 15:12:25.6    -112   -203    127    232    264 208.9  31.3  34150  289.41 0854.41
2009/04/23 15:12:25.7    -166   -244     71    296    305 214.2  13.6  34150  289.41 0854.41
2009/04/23 15:12:25.8    -196   -221    -37    296    299 221.5  -7.2  34150  289.41 0854.41
2009/04/23 15:12:25.9    -151   -230     43    276    280 213.4   9.0  34150  289.39 0854.41
2009/04/23 15:12:26.0    -278   -173    -35    328    330 238.0  -6.3  34150  289.40 0854.41
2009/04/23 15:12:26.1    -337   -141   -123    366    386 247.3 -23.3  34148  289.37 0854.41
2009/04/23 15:12:26.2    -305   -113   -115    326    345 249.6 -24.5  34152  289.45 0854.41
2009/04/23 15:12:26.3    -224   -127    -56    258    265 240.3 -12.4  34154  289.47 0854.41
2009/04/23 15:12:26.4    -165   -117    -64    203    212 234.7 -22.8  34154  289.48 0854.41
2009/04/23 15:12:26.5    -175     22     18    177    179 277.2   6.1  34154  289.48 0854.41
2009/04/23 15:12:26.6    -459    -61    -85    464    472 262.4 -10.4  34162  289.62 0854.41
2009/04/23 15:12:26.7    -476   -102   -224    487    536 257.9 -30.9  34168  289.72 0854.41
2009/04/23 15:12:26.8    -596     86   -166    603    625 278.3 -20.0  34160  289.57 0854.41
2009/04/23 15:12:26.9    -497    -25   -162    498    524 267.1 -18.1  34182  289.93 0854.41
2009/04/23 15:12:27.0    -366    122    -30    386    388 288.5  -4.5  34158  289.55 0854.44
2009/04/23 15:12:27.1    -364     55    -14    369    370 278.6  -2.3  34166  289.69 0854.44
2009/04/23 15:12:27.2    -406     46   -180    409    446 276.6 -29.6  34174  289.80 0854.44
2009/04/23 15:12:27.3    -216    182   -112    283    304 310.2 -27.4  34160  289.58 0854.44
2009/04/23 15:12:27.4    -213     36     38    217    221 279.6  10.1  34176  289.85 0854.44
2009/04/23 15:12:27.5    -286   -109   -178    307    354 249.1 -37.2  34182  289.94 0854.44
2009/04/23 15:12:27.6    -306   -257    -94    400    411 230.0 -13.3  34164  289.63 0854.44
2009/04/23 15:12:27.7    -185   -134     28    229    231 234.0   7.1  34172  289.79 0854.44
2009/04/23 15:12:27.8     -86   -178     61    198    208 205.9  17.3  34172  289.79 0854.44
2009/04/23 15:12:27.9     -17   -218    161    219    271 184.7  39.7  34174  289.80 0854.44
2009/04/23 15:12:28.0     136   -187     91    232    249 144.0  22.3  34170  289.75 0854.46
2009/04/23 15:12:28.1     126   -197    142    234    273 147.4  34.2  34188  290.03 0854.46
2009/04/23 15:12:28.2      71   -198    184    211    279 160.2  45.8  34184  289.97 0854.46
2009/04/23 15:12:28.3      17   -196    209    197    287 174.9  52.1  34188  290.03 0854.46
2009/04/23 15:12:28.4     -58   -200    226    209    307 196.3  52.2  34182  289.93 0854.46
2009/04/23 15:12:28.5     -22   -200    274    202    340 186.5  60.3  34186  290.02 0854.46
2009/04/23 15:12:28.6     -81   -319    361    330    489 194.3  53.0  34178  289.87 0854.46
2009/04/23 15:12:28.7     -88   -320    250    332    415 195.4  40.7  34168  289.72 0854.46
2009/04/23 15:12:28.8     -70   -278    280    287    400 194.3  49.4  34162  289.62 0854.46
2009/04/23 15:12:28.9     -92   -304    228    318    391 196.9  39.3  34166  289.69 0854.46
2009/04/23 15:12:29.0     -91   -209    185    229    294 203.6  43.3  34174  289.80 0854.46
2009/04/23 15:12:29.1     -50   -208    223    214    309 193.6  51.2  34178  289.86 0854.46
2009/04/23 15:12:29.2     -94   -274    188    290    345 199.1  35.9  34178  289.86 0854.46
2009/04/23 15:12:29.3     -28   -121    210    125    244 193.4  66.7  34184  289.99 0854.46
2009/04/23 15:12:29.4     122   -129    216    178    279 136.6  56.4  34182  289.93 0854.46
2009/04/23 15:12:29.5     215    -36    301    219    372  99.6  60.5  34178  289.89 0854.46
2009/04/23 15:12:29.6     158    -12    237    159    285  94.4  62.8  34178  289.86 0854.46
2009/04/23 15:12:29.7     250     54    272    256    373  77.6  52.1  34168  289.72 0854.46
2009/04/23 15:12:29.8     364    255    115    445    460  54.9  14.5  34194  290.14 0854.46
2009/04/23 15:12:29.9     236    305     75    386    394  37.8  11.1  34222  290.64 0854.46
2009/04/23 15:12:30.0       3    233    138    234    271   0.9  33.5  34206  290.36 0854.47
2009/04/23 15:12:30.1     221    183    215    287    358  50.4  40.7  34188  290.04 0854.47
2009/04/23 15:12:30.2     196    283     79    345    354  34.7  12.9  34192  290.13 0854.47
2009/04/23 15:12:30.3     112    125    165    168    235  41.9  49.8  34228  290.72 0854.47
2009/04/23 15:12:30.4       0     91    144     92    170   0.0  64.6  34240  290.92 0854.47
2009/04/23 15:12:30.5       8    237    103    238    259   2.0  24.9  34236  290.85 0854.47
2009/04/23 15:12:30.6     129    210    108    247    269  31.6  25.1  34214  290.49 0854.47
2009/04/23 15:12:30.7     194    282    122    343    364  34.6  20.4  34218  290.54 0854.47
2009/04/23 15:12:30.8      72    308    136    317    344  13.3  24.8  34230  290.76 0854.47
2009/04/23 15:12:30.9      46    210    172    216    276  12.5  42.7  34222  290.63 0854.47
2009/04/23 15:12:31.0      -7    190    191    191    270 357.8  50.1  34222  290.63 0854.47
2009/04/23 15:12:31.1      52    174    115    182    215  16.7  35.5  34256  291.20 0854.47
2009/04/23 15:12:31.2      13    198    115    199    229   3.8  32.7  34238  290.89 0854.47
2009/04/23 15:12:31.3     -77    134    117    155    194 330.1  40.9  34238  290.91 0854.47
2009/04/23 15:12:31.4     -36    138     95    143    171 345.3  36.7  34246  291.03 0854.47
2009/04/23 15:12:31.5     -68     92    118    115    164 323.5  50.4  34256  291.20 0854.47
2009/04/23 15:12:31.6     -60    122    125    137    185 333.7  47.5  34262  291.30 0854.47
2009/04/23 15:12:31.7     -76    175     76    192    206 336.4  23.0  34274  291.52 0854.47
2009/04/23 15:12:31.8      43    218     76    223    236  11.3  18.9  34304  292.03 0854.47
2009/04/23 15:12:31.9       0    227     44    228    233 359.8  11.1  34286  291.71 0854.47
2009/04/23 15:12:32.0     -65    184     47    196    202 340.4  13.7  34286  291.71 0854.45
2009/04/23 15:12:32.1     -46    127    119    136    180 340.0  45.8  34328  292.44 0854.45
2009/04/23 15:12:32.2      -9    132     83    133    156 356.0  35.0  34364  293.04 0854.45
2009/04/23 15:12:32.3     -30    166     77    169    185 349.5  26.4  34360  292.97 0854.45
2009/04/23 15:12:32.4      48     88    115    101    153  28.5  54.2  34350  292.81 0854.45
2009/04/23 15:12:32.5     100     72     59    124    137  54.1  27.2  34354  292.86 0854.45
2009/04/23 15:12:32.6     162     18    108    164    196  83.4  36.5  34328  292.42 0854.45
2009/04/23 15:12:32.7     144     52     88    154    177  70.0  32.4  34332  292.49 0854.45
2009/04/23 15:12:32.8     245    136     96    281    298  60.9  18.9  34334  292.53 0854.45
2009/04/23 15:12:32.9     251     95    173    269    319  69.2  35.7  34330  292.45 0854.45
2009/04/23 15:12:33.0     197    116    197    229    302  59.4  45.4  34312  292.14 0854.45
2009/04/23 15:12:33.1     209     68    167    220    276  71.8  40.9  34262  291.29 0854.45
2009/04/23 15:12:33.2     181     25    206    183    275  82.1  54.2  34298  291.92 0854.45
2009/04/23 15:12:33.3     151     59    132    163    209  68.7  43.5  34306  292.05 0854.45
2009/04/23 15:12:33.4     112     19     91    114    145  80.3  42.7  34310  292.13 0854.45
2009/04/23 15:12:33.5     141      0     67    142    157  90.0  27.0  34330  292.46 0854.45
2009/04/23 15:12:33.6      61     36     95     72    119  59.3  59.0  34334  292.54 0854.45
2009/04/23 15:12:33.7      14     17     21     23     31  39.6  47.9  34334  292.54 0854.45
2009/04/23 15:12:33.8      -7      0     57      8     57 270.0  90.0  34326  292.39 0854.45
2009/04/23 15:12:33.9     -52     13     85     54    100 284.2  64.7  34324  292.35 0854.45
2009/04/23 15:12:34.0     -99   -120    115    156    193 219.6  39.9  34292  291.83 0854.44
2009/04/23 15:12:34.1    -120   -120     98    171    197 225.0  32.4  34280  291.62 0854.44
2009/04/23 15:12:34.2    -163   -164     26    232    234 224.8   6.5  34292  291.82 0854.44
2009/04/23 15:12:34.3    -147   -164     26    221    223 221.9   6.9  34258  291.25 0854.44
2009/04/23 15:12:34.4    -137   -119     37    182    186 229.1  11.6  34248  291.08 0854.44
2009/04/23 15:12:34.5     -13   -140    174    141    223 185.3  56.6  34266  291.38 0854.44
2009/04/23 15:12:34.6     144   -118    261    187    321 129.3  61.1  34292  291.82 0854.44
2009/04/23 15:12:34.7      10    -52    238     54    244 168.4  87.7  34286  291.71 0854.44
2009/04/23 15:12:34.8      95    -15    170     97    195  99.2  67.7  34302  291.98 0854.44
2009/04/23 15:12:34.9      32    -46    149     57    159 144.8  78.4  34308  292.10 0854.44
2009/04/23 15:12:35.0      -5     89    128     90    156 356.4  61.5  34332  292.49 0854.44
2009/04/23 15:12:35.1      75     15    128     77    149  78.5  66.2  34312  292.15 0854.44
2009/04/23 15:12:35.2     -28     70    107     76    131 338.2  61.1  34344  292.69 0854.44
2009/04/23 15:12:35.3     -39     73     57     83    100 331.9  38.0  34330  292.46 0854.44
2009/04/23 15:12:35.4     -78    -13     97     80    125 260.3  56.4  34290  291.77 0854.44
2009/04/23 15:12:35.5    -157    -94     79    183    199 239.1  25.1  34250  291.11 0854.44
2009/04/23 15:12:35.6     -73    -17     43     76     87 256.7  32.4  34240  290.92 0854.44
2009/04/23 15:12:35.7    -101     29    -37    106    112 286.4 -23.3  34218  290.55 0854.44
2009/04/23 15:12:35.8    -100    -13    -31    101    105 262.1 -22.3  34244  291.01 0854.44
2009/04/23 15:12:35.9     -87    -55     57    104    118 237.6  31.3  34256  291.21 0854.44
2009/04/23 15:12:36.0      77    -32    117     84    144 112.6  60.6  34212  290.45 0854.43
2009/04/23 15:12:36.1      65      0    100     66    119  89.2  63.2  34210  290.41 0854.43
2009/04/23 15:12:36.2     -16     -3     92     17     93 258.5  90.0  34228  290.72 0854.43
2009/04/23 15:12:36.3     -14    -84    128     86    154 189.8  63.2  34228  290.74 0854.43
2009/04/23 15:12:36.4    -103     66     62    123    137 302.9  28.7  34244  290.99 0854.43
2009/04/23 15:12:36.5     -66     22    147     70    162 289.1  72.9  34252  291.15 0854.43
2009/04/23 15:12:36.6    -107   -102    131    149    198 226.4  45.9  34198  290.21 0854.43
2009/04/23 15:12:36.7    -114   -121    142    167    219 223.2  44.5  34190  290.09 0854.43
2009/04/23 15:12:36.8     -94   -139    184    168    249 214.1  53.2  34206  290.35 0854.43
2009/04/23 15:12:36.9     -94   -147    161    175    237 212.6  47.7  34202  290.28 0854.43
2009/04/23 15:12:37.0     -63   -119    136    135    191 208.1  49.9  34200  290.26 0854.43
2009/04/23 15:12:37.1     -64   -135    108    150    184 205.4  39.5  34194  290.16 0854.43
2009/04/23 15:12:37.2     -38   -156    160    161    226 193.8  50.0  34196  290.19 0854.43
2009/04/23 15:12:37.3     -30   -121    162    125    204 194.3  58.5  34194  290.16 0854.43
2009/04/23 15:12:37.4     -69   -176    168    190    253 201.4  45.9  34194  290.14 0854.43
2009/04/23 15:12:37.5     -25   -231    207    233    311 186.2  46.4  34198  290.20 0854.43
2009/04/23 15:12:37.6      88   -194    152    214    262 155.5  38.8  34200  290.26 0854.43
2009/04/23 15:12:37.7      12   -149     96    150    178 175.1  35.6  34196  290.18 0854.43
2009/04/23 15:12:37.8      52   -241    185    247    308 167.7  40.7  34222  290.63 0854.43
2009/04/23 15:12:37.9       0   -223    184    224    289 180.0  43.7  34214  290.48 0854.43
2009/04/23 15:12:38.0       3   -182    173    183    251 178.9  48.5  34208  290.40 0854.46
2009/04/23 15:12:38.1     -21   -206    149    208    255 186.0  39.5  34206  290.34 0854.46
2009/04/23 15:12:38.2       9   -202    143    203    248 177.3  38.6  34200  290.26 0854.46
2009/04/23 15:12:38.3      46   -262     93    267    282 170.0  20.0  34186  290.00 0854.46
2009/04/23 15:12:38.4      24   -229    139    231    269 173.8  34.0  34196  290.19 0854.46
2009/04/23 15:12:38.5      18   -240    125    241    271 175.6  29.5  34192  290.10 0854.46
2009/04/23 15:12:38.7       3   -251     86    252    267 179.1  18.9  34190  290.09 0854.46
2009/04/23 15:12:38.8     -38   -247     94    251    268 188.9  21.5  34192  290.12 0854.46
2009/04/23 15:12:38.9      18   -239     85    240    255 175.5  19.6  34194  290.15 0854.46
2009/04/23 15:12:39.0      77   -192    101    207    230 158.1  27.4  34188  290.06 0854.46
2009/04/23 15:12:39.1      73   -176    105    191    217 157.3  31.4  34190  290.09 0854.46
2009/04/23 15:12:39.2      85   -214     90    231    247 158.2  22.3  34196  290.17 0854.46
2009/04/23 15:12:39.3     121   -190     81    226    240 147.5  20.4  34196  290.17 0854.46
2009/04/23 15:12:39.4     188   -170     62    254    262 132.2  13.9  34196  290.17 0854.46
2009/04/23 15:12:39.5     213   -170     52    273    278 128.6  10.8  34194  290.15 0854.46
2009/04/23 15:12:39.6     109   -247    105    271    290 156.2  22.3  34188  290.05 0854.46
2009/04/23 15:12:39.7      78   -189     75    205    218 157.5  21.0  34182  289.94 0854.46
2009/04/23 15:12:39.8      60   -222    131    231    265 164.9  32.1  34194  290.15 0854.46
2009/04/23 15:12:39.9      33   -162    164    166    233 168.2  50.0  34202  290.30 0854.46
2009/04/23 15:12:40.0      -9   -119    154    120    195 184.5  57.9  34200  290.26 0854.46
2009/04/23 15:12:40.1     114     11    116    115    163  84.3  49.9  34202  290.28 0854.51
2009/04/23 15:12:40.2     121     -9     76    122    143  94.4  35.5  34196  290.19 0854.51
2009/04/23 15:12:40.3     101    -34     76    107    131 108.6  39.1  34196  290.19 0854.51
2009/04/23 15:12:40.4     129    -12     70    130    147  95.7  31.3  34196  290.18 0854.51
2009/04/23 15:12:40.5     110    -28     65    114    131 104.6  32.4  34194  290.14 0854.51
2009/04/23 15:12:40.6      83    -13    101     85    132  99.2  55.8  34200  290.26 0854.51
2009/04/23 15:12:40.7      20    -86    102     89    135 166.6  54.3  34198  290.23 0854.51
2009/04/23 15:12:40.8     -38   -151     91    156    180 194.3  32.9  34182  289.96 0854.51
2009/04/23 15:12:40.9     -44   -121     55    129    140 200.1  24.6  34180  289.91 0854.51
2009/04/23 15:12:41.0      -8   -118     77    119    141 184.0  35.6  34184  289.97 0854.51
2009/04/23 15:12:41.1     -51   -141     51    151    160 200.1  18.9  34182  289.94 0854.51
2009/04/23 15:12:41.2      53   -178    119    186    220 163.3  35.6  34174  289.82 0854.51
2009/04/23 15:12:41.3     203   -203     81    288    300 134.9  15.8  34176  289.85 0854.51
2009/04/23 15:12:41.4      11   -191    148    192    242 176.6  41.6  34178  289.89 0854.51
2009/04/23 15:12:41.5      87   -166    176    188    257 152.4  48.0  34190  290.09 0854.51
2009/04/23 15:12:41.6      70   -133     42    151    157 152.4  15.8  34178  289.89 0854.51
2009/04/23 15:12:41.7     -13   -121     92    122    152 186.2  40.7  34180  289.92 0854.51
2009/04/23 15:12:41.8      40   -114    -69    122    140 160.4 -35.8  34174  289.82 0854.51
2009/04/23 15:12:41.9     -73   -147    -46    165    172 206.5 -15.8  34172  289.77 0854.51
2009/04/23 15:12:42.0    -102   -176    -60    204    212 210.3 -21.7  34172  289.79 0854.51
2009/04/23 15:12:42.1     -93   -147    -87    175    195 212.5 -32.9  34178  289.89 0854.55
2009/04/23 15:12:42.2     -95   -192    -67    215    226 206.5 -17.3  34184  289.97 0854.55
2009/04/23 15:12:42.3      16   -148     39    149    155 173.7  14.7  34176  289.85 0854.55
2009/04/23 15:12:42.4      14   -100     55    102    115 171.9  30.8  34182  289.94 0854.55
2009/04/23 15:12:42.5      -1    -65    102     66    121 180.9  64.1  34198  290.23 0854.55
2009/04/23 15:12:42.6     107   -107    126    152    197 135.0  44.1  34204  290.31 0854.55
2009/04/23 15:12:42.7      57    -92    116    109    159 148.4  52.0  34200  290.25 0854.55
2009/04/23 15:12:42.8      33    -33     74     48     88 135.0  64.1  34208  290.38 0854.55
2009/04/23 15:12:42.9      62    -17     88     65    109 105.9  60.5  34212  290.45 0854.55
2009/04/23 15:12:43.0     123     -7     61    124    138  93.5  27.3  34200  290.26 0854.55
2009/04/23 15:12:43.1     143      0     63    144    157  89.6  25.1  34204  290.33 0854.55
2009/04/23 15:12:43.2     160     12     93    161    185  85.6  32.7  34214  290.50 0854.55
2009/04/23 15:12:43.3     215     22    125    217    250  83.9  32.4  34208  290.39 0854.55
2009/04/23 15:12:43.4     205     40     79    209    223  78.8  21.5  34206  290.36 0854.55
2009/04/23 15:12:43.5     195      0     68    196    208  90.0  19.2  34194  290.16 0854.55
2009/04/23 15:12:43.6     182      1     50    183    190  89.6  15.3  34182  289.94 0854.55
2009/04/23 15:12:43.7     183      0    108    184    213  90.1  33.5  34214  290.50 0854.55
2009/04/23 15:12:43.8     150     11    120    151    192  85.6  42.7  34222  290.64 0854.55
2009/04/23 15:12:43.9     150     11    113    151    188  85.6  40.7  34196  290.18 0854.55
2009/04/23 15:12:44.0     185    -52    145    193    241 105.9  40.7  34188  290.06 0854.55
2009/04/23 15:12:44.1     115    -73    132    137    190 122.4  49.2  34194  290.16 0854.58
2009/04/23 15:12:44.2      23    -49     93     55    108 154.5  66.2  34200  290.25 0854.58
2009/04/23 15:12:44.3      -1    -22     68     23     71 182.7  81.0  34216  290.52 0854.58
2009/04/23 15:12:44.4       7    -97     45     98    107 175.6  26.6  34226  290.70 0854.58
2009/04/23 15:12:44.5     -15    -31      0     35     36 205.5  -1.3  34226  290.70 0854.58
2009/04/23 15:12:44.6      27     94     -5     98     99  16.0  -3.1  34268  291.42 0854.58
2009/04/23 15:12:44.7    -108     13     -4    109    110 277.0  -2.2  34274  291.52 0854.58
2009/04/23 15:12:44.8     -21    -54    100     59    116 201.8  66.2  34268  291.40 0854.58
2009/04/23 15:12:44.9     -15   -163    196    164    255 185.3  56.1  34232  290.81 0854.58
2009/04/23 15:12:45.0    -138   -251    203    287    351 208.9  38.7  34210  290.43 0854.58
2009/04/23 15:12:45.1    -144   -244    251    284    379 210.7  46.1  34198  290.21 0854.58
2009/04/23 15:12:45.2     -57   -176    209    186    279 198.0  54.0  34214  290.48 0854.58
2009/04/23 15:12:45.3       6    -70    114     71    134 174.7  64.7  34214  290.50 0854.58
2009/04/23 15:12:45.4      59     -8     86     60    104  97.9  61.5  34218  290.55 0854.58
2009/04/23 15:12:45.5     -58    110     51    125    135 331.9  23.1  34226  290.69 0854.58
2009/04/23 15:12:45.6     -33     88     90     95    130 339.1  48.5  34226  290.69 0854.58
2009/04/23 15:12:45.7      60      7     93     61    111  83.0  64.1  34206  290.36 0854.58
2009/04/23 15:12:45.8      65     13     86     67    109  78.6  57.9  34210  290.41 0854.58
2009/04/23 15:12:45.9      33     33     73     47     86  45.0  64.6  34220  290.58 0854.58
2009/04/23 15:12:46.0      48     77     84     92    124  32.1  47.5  34218  290.55 0854.58
2009/04/23 15:12:46.1      54     20     66     58     87  69.2  53.7  34228  290.74 0854.57
2009/04/23 15:12:46.2      -3     50    -17     51     53 355.6 -23.6  34224  290.67 0854.57
2009/04/23 15:12:46.3     -24     20     56     32     64 309.5  67.7  34234  290.84 0854.57
2009/04/23 15:12:46.4     -54    -37     52     66     84 235.8  42.2  34238  290.89 0854.57
2009/04/23 15:12:46.5       8     30     70     32     76  15.1  73.1  34254  291.16 0854.57
2009/04/23 15:12:46.6     -83     19     84     86    120 283.3  50.0  34266  291.38 0854.57
2009/04/23 15:12:46.7    -106     -1     37    107    114 269.2  19.4  34258  291.25 0854.57
2009/04/23 15:12:46.8    -150    -50      0    159    160 251.4   0.0  34288  291.74 0854.57
2009/04/23 15:12:46.9    -161    -77     72    179    192 244.2  23.0  34288  291.74 0854.57
2009/04/23 15:12:47.0     -65    -44     83     79    114 235.8  51.2  34284  291.67 0854.57
2009/04/23 15:12:47.1     -39     34     93     52    106 311.3  68.8  34260  291.28 0854.57
2009/04/23 15:12:47.2     -37   -106    139    113    179 199.6  56.6  34226  290.69 0854.57
2009/04/23 15:12:47.3     -18    -95    118     97    152 191.1  56.4  34218  290.57 0854.57
2009/04/23 15:12:47.4      -7    -99    122    100    157 184.4  56.4  34230  290.77 0854.57
2009/04/23 15:12:47.5     -15   -183    217    184    284 184.9  55.6  34222  290.61 0854.57
2009/04/23 15:12:47.6     -95   -286    210    302    367 198.5  38.3  34264  291.34 0854.57
2009/04/23 15:12:47.7     -26   -197    144    199    245 187.6  39.7  34252  291.15 0854.57
2009/04/23 15:12:47.8     -65   -125    148    142    205 207.6  50.9  34232  290.79 0854.57
2009/04/23 15:12:47.9     -11   -131    144    132    195 184.9  52.7  34224  290.67 0854.57
2009/04/23 15:12:48.0     -37   -141    135    146    198 194.7  47.9  34234  290.84 0854.47
2009/04/23 15:12:48.1    -159   -180     99    241    260 221.4  23.6  34210  290.42 0854.47
2009/04/23 15:12:48.2     -69   -156    109    171    202 203.8  35.6  34214  290.48 0854.47
2009/04/23 15:12:48.3     -47   -199    118    205    236 193.3  32.4  34218  290.55 0854.47
2009/04/23 15:12:48.4     -69   -172    123    186    222 201.9  36.3  34216  290.53 0854.47
2009/04/23 15:12:48.5     -10    -99    121    100    156 186.2  56.1  34226  290.70 0854.47
2009/04/23 15:12:48.6     -62   -148    116    161    198 202.7  39.5  34216  290.53 0854.47
2009/04/23 15:12:48.7     -23   -227    183    229    293 186.0  42.8  34214  290.48 0854.47
2009/04/23 15:12:48.8     -41   -296    127    299    324 188.0  24.5  34208  290.37 0854.47
2009/04/23 15:12:48.9     -75   -335    137    344    370 192.6  23.0  34206  290.35 0854.47
2009/04/23 15:12:49.0      -9   -315    150    316    349 181.8  27.2  34218  290.55 0854.40
2009/04/23 15:12:49.1    -141   -338     50    367    371 202.7   7.8  34200  290.25 0854.40
2009/04/23 15:12:49.2    -113   -265     12    289    290 203.2   2.5  34198  290.22 0854.40
2009/04/23 15:12:49.3     -30   -278     13    280    281 186.3   2.8  34208  290.37 0854.40
2009/04/23 15:12:49.4      56   -197     76    206    219 164.0  21.0  34210  290.41 0854.40
2009/04/23 15:12:49.5      47   -233     33    238    241 168.5   8.0  34212  290.46 0854.40
2009/04/23 15:12:49.6      -9   -292     93    293    308 181.8  17.7  34204  290.31 0854.40
2009/04/23 15:12:49.7      -2   -286     86    287    300 180.5  16.8  34202  290.29 0854.40
2009/04/23 15:12:49.8      97   -225      7    246    247 156.6   1.8  34210  290.41 0854.40
2009/04/23 15:12:49.9     102   -234     85    256    271 156.3  18.5  34212  290.44 0854.40
2009/04/23 15:12:50.0      66   -192     50    204    211 161.1  13.9  34212  290.45 0854.40
2009/04/23 15:12:50.1      15   -170     43    171    177 174.9  14.3  34218  290.57 0854.40
2009/04/23 15:12:50.2      12   -111     25    112    115 173.8  12.6  34216  290.52 0854.40
2009/04/23 15:12:50.3      17   -111    -33    113    118 171.1 -16.6  34208  290.40 0854.40
2009/04/23 15:12:50.4      14   -120    -40    121    127 172.9 -23.8  34200  290.25 0854.40
2009/04/23 15:12:50.5      53   -154     14    164    165 160.8   5.2  34216  290.53 0854.40
2009/04/23 15:12:50.6      90   -124     36    154    159 144.0  13.2  34214  290.48 0854.40
2009/04/23 15:12:50.7     150    -78     84    170    189 117.5  28.0  34202  290.28 0854.40
2009/04/23 15:12:50.8     202      0      2    203    204  90.0   0.7  34188  290.06 0854.40
2009/04/23 15:12:50.9     215    -13     23    216    218  93.5   6.1  34178  289.89 0854.40
2009/04/23 15:12:51.0     128     -4    102    129    164  92.1  42.2  34190  290.09 0854.41
2009/04/23 15:12:51.1      66     18    127     69    144  74.9  68.9  34210  290.43 0854.41
2009/04/23 15:12:51.2      24     72    135     77    155  18.7  67.7  34218  290.55 0854.41
2009/04/23 15:12:51.3     -15     32    113     36    118 334.5  82.3  34216  290.52 0854.41
2009/04/23 15:12:51.4     123    109    115    165    201  48.2  38.4  34192  290.13 0854.41
2009/04/23 15:12:51.5     181     46    171    187    253  75.6  47.7  34192  290.10 0854.41
2009/04/23 15:12:51.6     169     49    123    177    215  73.6  38.6  34190  290.08 0854.41
2009/04/23 15:12:51.7     266     76     99    277    294  74.0  20.7  34184  289.97 0854.41
2009/04/23 15:12:51.8     250     46    135    255    288  79.4  30.2  34188  290.03 0854.41
2009/04/23 15:12:51.9     181     22    183    183    258  83.0  50.1  34192  290.12 0854.41
2009/04/23 15:12:52.0     197     56    190    205    279  74.1  47.9  34190  290.09 0854.41
2009/04/23 15:12:52.1     127     13    147    128    194  83.9  54.8  34200  290.26 0854.41
2009/04/23 15:12:52.2      38     34    124     52    134  47.8  76.1  34212  290.45 0854.41
2009/04/23 15:12:52.3     101    -19    142    103    175 101.0  60.8  34206  290.35 0854.41
2009/04/23 15:12:52.4      -5     -5     99      8     99 225.0  90.0  34212  290.47 0854.41
2009/04/23 15:12:52.5     -13   -171    205    172    267 184.5  56.1  34206  290.34 0854.41
2009/04/23 15:12:52.6      27   -105    138    109    175 165.3  57.7  34210  290.43 0854.41
2009/04/23 15:12:52.7      32    -84    129     91    157 159.1  61.3  34226  290.70 0854.41
2009/04/23 15:12:52.8     -22   -139    117    141    183 189.3  43.8  34228  290.72 0854.41
2009/04/23 15:12:52.9     -40   -192     87    197    215 191.8  25.3  34212  290.45 0854.41
2009/04/23 15:12:53.0     -72   -196     57    210    218 200.3  15.2  34204  290.33 0854.35
2009/04/23 15:12:53.1    -154   -101     -1    185    186 236.7  -0.5  34206  290.35 0854.35
2009/04/23 15:12:53.2      62    -61     45     88     98 134.6  28.7  34212  290.47 0854.35
2009/04/23 15:12:53.3      62     62    153     88    176  45.0  67.7  34224  290.65 0854.35
2009/04/23 15:12:53.4     -39    -25    126     47    134 237.6  79.2  34252  291.13 0854.35
2009/04/23 15:12:53.5     -65      0     96     66    116 270.8  62.6  34248  291.06 0854.35
2009/04/23 15:12:53.6     -25    -54    118     60    132 205.3  71.0  34246  291.04 0854.35
2009/04/23 15:12:53.7      42     45    126     62    140  43.2  72.4  34228  290.74 0854.35
2009/04/23 15:12:53.8      88    106    124    138    185  39.6  46.6  34220  290.58 0854.35
2009/04/23 15:12:53.9      78    101     81    128    151  37.8  35.5  34218  290.55 0854.35
2009/04/23 15:12:54.0     -23     58    115     63    131 338.1  68.9  34240  290.92 0854.35
2009/04/23 15:12:54.1      25     53    147     59    158  25.3  77.1  34230  290.77 0854.35
2009/04/23 15:12:54.2     -18     41    138     45    145 336.4  80.7  34234  290.82 0854.35
2009/04/23 15:12:54.3      -9      8    120     13    120 313.3  90.0  34242  290.98 0854.35
2009/04/23 15:12:54.4      11    -29     33     32     45 158.2  50.1  34224  290.65 0854.35
2009/04/23 15:12:54.5     -30     20     80     37     88 304.2  74.0  34236  290.86 0854.35
2009/04/23 15:12:54.6      31    -44    146     54    155 144.8  79.2  34208  290.38 0854.35
2009/04/23 15:12:54.7    -109    -40    115    117    164 249.6  50.0  34212  290.47 0854.35
2009/04/23 15:12:54.8      34     80    -17     88     90  23.2 -10.9  34220  290.58 0854.35
2009/04/23 15:12:54.9     131     51    106    141    176  68.7  40.7  34222  290.62 0854.35
2009/04/23 15:12:55.0     110     71    128    131    183  57.1  49.4  34224  290.67 0854.34
2009/04/23 15:12:55.1      62     57    125     85    151  47.3  62.6  34236  290.86 0854.34
2009/04/23 15:12:55.2     133    134    123    190    226  44.8  35.6  34230  290.75 0854.34
2009/04/23 15:12:55.3     198    108     21    226    228  61.4   5.4  34254  291.16 0854.34
2009/04/23 15:12:55.4     161     56     82    171    189  70.7  27.3  34238  290.89 0854.34
2009/04/23 15:12:55.5      77     64     96    101    139  50.0  48.5  34238  290.89 0854.34
2009/04/23 15:12:55.6      37    -11     40     39     55 106.8  49.1  34228  290.74 0854.34
2009/04/23 15:12:55.7    -208    -59     30    217    220 254.1   8.0  34220  290.60 0854.34
2009/04/23 15:12:55.8     -51   -117     81    128    151 203.6  35.5  34196  290.19 0854.34
2009/04/23 15:12:55.9      30   -207    208    210    295 171.8  50.0  34198  290.22 0854.34
2009/04/23 15:12:56.0      13   -228    241    229    332 176.6  51.9  34202  290.27 0854.34
2009/04/23 15:12:56.1     105    -91     38    139    145 130.9  15.3  34220  290.60 0854.34
2009/04/23 15:12:56.2       3    -78     51     79     94 177.3  35.6  34214  290.48 0854.34
2009/04/23 15:12:56.3      62    -30    -30     70     76 116.2 -28.5  34234  290.82 0854.34
2009/04/23 15:12:56.4     109    -21     26    112    116 101.0  13.2  34284  291.69 0854.34
2009/04/23 15:12:56.5     142    107     29    179    182  52.9   9.3  34304  292.01 0854.34
2009/04/23 15:12:56.6     272      8    -12    273    274  88.3  -2.6  34264  291.33 0854.34
2009/04/23 15:12:56.7     194     -9    -67    195    207  92.8 -19.1  34258  291.23 0854.34
2009/04/23 15:12:56.8      59   -177    -37    187    191 161.3 -11.3  34278  291.59 0854.34
2009/04/23 15:12:56.9      86   -208     -9    226    227 157.5  -2.3  34236  290.87 0854.34
2009/04/23 15:12:57.0      47   -199     69    205    217 166.6  18.6  34222  290.64 0854.36
2009/04/23 15:12:57.1     -15   -206     30    207    210 184.2   8.2  34200  290.26 0854.36
2009/04/23 15:12:57.2      -6   -158     56    159    169 182.5  19.4  34206  290.36 0854.36
2009/04/23 15:12:57.3       2   -167     23    168    170 179.3   8.0  34188  290.06 0854.36
2009/04/23 15:12:57.4     -32   -226     26    229    231 188.1   6.7  34180  289.91 0854.36
2009/04/23 15:12:57.5     -39   -197      0    201    202 191.3  -0.3  34188  290.06 0854.36
2009/04/23 15:12:57.6       4   -110     45    111    119 177.8  23.1  34180  289.92 0854.36
2009/04/23 15:12:57.7      -3    -82     80     83    115 182.2  49.4  34218  290.55 0854.36
2009/04/23 15:12:57.8      29   -111     27    115    119 165.3  13.2  34208  290.38 0854.36
2009/04/23 15:12:57.9      27    -79     72     84    110 160.8  44.8  34204  290.33 0854.36
2009/04/23 15:12:58.0      75    -47    103     89    136 122.0  54.3  34220  290.58 0854.36
2009/04/23 15:12:58.1     108    -13     83    109    137  97.0  41.6  34220  290.60 0854.36
2009/04/23 15:12:58.2       0    -71     84     72    110 180.0  55.4  34228  290.74 0854.36
2009/04/23 15:12:58.3     -34    -90    107     97    144 200.9  52.7  34214  290.50 0854.36
2009/04/23 15:12:58.4    -166    -99     78    194    209 239.1  23.0  34204  290.31 0854.36
2009/04/23 15:12:58.5    -302    104    -52    320    325 289.1  -9.3  34204  290.31 0854.36
2009/04/23 15:12:58.6    -526     54    -68    529    534 275.9  -7.3  34196  290.18 0854.36
2009/04/23 15:12:58.7    -397    188   -204    440    484 295.4 -31.0  34222  290.62 0854.36
2009/04/23 15:12:58.8    -313    365    -10    481    482 319.4  -1.3  34226  290.68 0854.36
2009/04/23 15:12:58.9    -205    254     -3    327    328 321.0  -0.6  34228  290.73 0854.36
2009/04/23 15:12:59.0    -159    397    -40    428    431 338.2  -5.4  34222  290.61 0854.36
2009/04/23 15:12:59.1    -154    303    -18    341    342 333.0  -3.1  34228  290.74 0854.36
2009/04/23 15:12:59.2     -40    317    -74    320    329 352.8 -13.2  34258  291.22 0854.36
2009/04/23 15:12:59.3     -40    390   -101    393    406 354.1 -14.5  34246  291.03 0854.36
2009/04/23 15:12:59.5     199    241     88    313    326  39.6  15.7  34234  290.82 0854.36
2009/04/23 15:12:59.5     179    258    122    315    337  34.7  22.3  34284  291.69 0854.36
2009/04/23 15:12:59.6     110    111    186    157    243  44.5  55.6  34294  291.86 0854.36
2009/04/23 15:12:59.7     -89    115    252    146    291 322.2  67.0  34280  291.61 0854.36
2009/04/23 15:12:59.8    -159    100    207    188    279 302.2  53.3  34282  291.65 0854.36
2009/04/23 15:12:59.9    -225    185    189    292    347 309.3  35.7  34304  292.02 0854.36
2009/04/23 15:13:00.0    -153    140    173    208    270 312.4  43.8  34310  292.13 0854.36
2009/04/23 15:13:00.1    -148    189    157    241    287 321.9  36.0  34312  292.14 0854.36
2009/04/23 15:13:00.2    -156    229     96    278    295 325.7  19.2  34306  292.06 0854.36
2009/04/23 15:13:00.3     -76    208     41    222    226 340.0  10.6  34316  292.22 0854.36
2009/04/23 15:13:00.4    -127    259    206    289    354 333.7  39.0  34370  293.14 0854.36
2009/04/23 15:13:00.5     -98    208    174    231    289 334.7  40.7  34392  293.51 0854.36
2009/04/23 15:13:00.7    -127    198    138    236    273 327.4  33.4  34394  293.54 0854.36
2009/04/23 15:13:00.7     -69    159    122    174    212 336.6  38.4  34400  293.65 0854.36
2009/04/23 15:13:00.8      22    303    103    304    322   4.2  18.8  34378  293.28 0854.36
2009/04/23 15:13:00.9      85    316     79    328    338  15.1  13.7  34348  292.78 0854.36
2009/04/23 15:13:01.0      85    297    105    310    328  16.0  18.8  34336  292.55 0854.36
2009/04/23 15:13:01.1     260    277    117    381    399  43.2  17.2  34260  291.27 0854.36
2009/04/23 15:13:01.2     231    222    188    321    372  46.2  33.1  34262  291.30 0854.36
2009/04/23 15:13:01.3     189    309    226    363    427  31.4  35.1  34246  291.02 0854.36
2009/04/23 15:13:01.4     269    311    302    412    510  40.8  39.9  34238  290.91 0854.36
2009/04/23 15:13:01.5     238    286    137    373    397  39.8  21.0  34232  290.79 0854.36
2009/04/23 15:13:01.6     327    263    370    420    559  51.2  45.9  34228  290.74 0854.36
2009/04/23 15:13:01.7     202     84    226    219    314  67.4  51.1  34242  290.95 0854.36
2009/04/23 15:13:01.8     406   -162    273    438    516 111.8  35.0  34246  291.03 0854.36
2009/04/23 15:13:02.0     358    -67    127    365    387 100.6  19.3  34252  291.15 0854.36
2009/04/23 15:13:02.0     204   -246    123    320    342 140.3  22.2  34234  290.84 0854.36
2009/04/23 15:13:02.1     259   -219     -2    340    341 130.2  -0.4  34230  290.76 0854.36
2009/04/23 15:13:02.2      86   -159    -78    181    197 151.5 -29.3  34246  291.03 0854.36
2009/04/23 15:13:02.3     226   -227   -156    321    356 135.2 -32.3  34240  290.94 0854.36
2009/04/23 15:13:02.4     369   -291   -176    471    502 128.3 -25.9  34224  290.66 0854.36
2009/04/23 15:13:02.5     653   -505   -144    826    839 127.7  -9.9  34212  290.45 0854.36
2009/04/23 15:13:02.6     496   -532   -345    728    805 137.0 -31.5  34196  290.19 0854.36
2009/04/23 15:13:02.7     587   -615   -358    851    923 136.3 -28.6  34210  290.41 0854.36
2009/04/23 15:13:02.8     814   -414   -254    914    948 117.0 -20.2  34210  290.42 0854.36
2009/04/23 15:13:02.9     856   -318   -175    914    931 110.4 -10.9  34162  289.61 0854.36
2009/04/23 15:13:03.0     896   -215    164    922    937 103.5  10.1  34198  290.20 0854.38
2009/04/23 15:13:03.2     800   -297    292    854    903 110.4  18.9  34198  290.23 0854.38
2009/04/23 15:13:03.2     493   -292    357    574    675 120.7  34.9  34202  290.28 0854.38
2009/04/23 15:13:03.3     516   -279    228    587    629 118.4  22.3  34216  290.52 0854.38
2009/04/23 15:13:03.4     582    237    206    629    662  67.8  18.2  34202  290.30 0854.38
2009/04/23 15:13:03.5     486    234     56    540    543  64.3   6.0  34230  290.77 0854.38
2009/04/23 15:13:03.6     471     46    -10    474    475  84.3  -1.3  34228  290.73 0854.38
2009/04/23 15:13:03.7     700    -79     19    705    706  96.5   1.6  34224  290.67 0854.38
2009/04/23 15:13:03.8     859    -61     12    862    863  94.1   0.8  34218  290.54 0854.38
2009/04/23 15:13:03.9     509   -164    111    535    547 107.9  11.8  34194  290.16 0854.38
2009/04/23 15:13:04.0     782   -232    160    816    832 106.5  11.1  34238  290.89 0854.38
2009/04/23 15:13:04.1     862     48     66    864    867  86.8   4.4  34192  290.10 0854.38
2009/04/23 15:13:04.2     991     52    637    993   1179  87.0  35.7  34190  290.07 0854.38
2009/04/23 15:13:04.4     640   -406    228    758    792 122.4  16.8  34232  290.81 0854.38
2009/04/23 15:13:04.4     638   -244    282    684    739 110.9  23.7  34202  290.28 0854.38
2009/04/23 15:13:04.5     590   -268    288    649    710 114.4  25.5  34208  290.38 0854.38
2009/04/23 15:13:04.6     683   -130     35    696    697 100.8   2.9  34186  290.01 0854.38
2009/04/23 15:13:04.7     627   -213    120    663    674 108.8  10.3  34200  290.24 0854.38
2009/04/23 15:13:04.8     568   -182    128    597    611 107.8  12.1  34196  290.19 0854.38
2009/04/23 15:13:04.9     374     84    112    384    401  77.2  16.3  34182  289.94 0854.38
2009/04/23 15:13:05.0     321    172     14    365    366  61.7   2.3  34208  290.37 0854.37
2009/04/23 15:13:05.1     207    171    -54    269    275  50.4 -11.3  34216  290.51 0854.37
2009/04/23 15:13:05.2     207     47     61    213    222  77.2  16.0  34208  290.38 0854.37
2009/04/23 15:13:05.3     326     80    146    336    366  76.2  25.1  34168  289.72 0854.37
2009/04/23 15:13:05.4     361    130     78    384    393  70.1  11.6  34174  289.81 0854.37
2009/04/23 15:13:05.6     314    198    -24    372    373  57.7  -3.7  34190  290.08 0854.37
2009/04/23 15:13:05.7     108    216    -74    242    254  26.7 -17.0  34236  290.87 0854.37
2009/04/23 15:13:05.8    -334    372    107    501    513 318.1  12.1  34222  290.61 0854.37
2009/04/23 15:13:05.9    -273    389    103    476    488 324.9  12.3  34268  291.42 0854.37
2009/04/23 15:13:06.0    -170    333    242    374    445 332.9  35.9  34260  291.26 0854.37
2009/04/23 15:13:06.0    -280    360    220    457    507 322.2  27.7  34258  291.25 0854.37
2009/04/23 15:13:06.2     -76    418    417    425    595 349.7  49.7  34212  290.46 0854.37
2009/04/23 15:13:06.3      30    422    358    424    554   4.1  44.5  34252  291.13 0854.37
2009/04/23 15:13:06.4    -118    553    287    566    634 347.9  28.9  34286  291.72 0854.37
2009/04/23 15:13:06.5     -84    403    302    412    510 348.2  39.9  34262  291.29 0854.37
2009/04/23 15:13:06.6     106    191    119    219    249  29.0  30.8  34270  291.44 0854.37
2009/04/23 15:13:06.7     184     61     83    194    211  71.6  24.6  34266  291.38 0854.37
2009/04/23 15:13:06.8     269   -163     68    315    323 121.3  12.2  34274  291.51 0854.37
2009/04/23 15:13:06.9     110   -130     99    171    197 139.7  32.9  34272  291.49 0854.37
2009/04/23 15:13:07.0      47     84    127     97    159  29.0  58.7  34282  291.64 0854.37
2009/04/23 15:13:07.1     347    -40    168    350    388  96.6  27.3  34254  291.18 0854.36
2009/04/23 15:13:07.2     683    198    218    712    745  73.8  17.1  34282  291.64 0854.36
2009/04/23 15:13:07.3     673    371     72    769    773  61.1   5.4  34256  291.20 0854.36
2009/04/23 15:13:07.4     647    305     29    716    717  64.8   2.3  34262  291.29 0854.36
2009/04/23 15:13:07.5     880    350    182    948    966  68.3  10.9  34268  291.40 0854.36
2009/04/23 15:13:07.6     791    418    319    895    950  62.1  20.4  34262  291.31 0854.36
2009/04/23 15:13:07.7     787    452    161    908    923  60.1  10.1  34250  291.11 0854.36
2009/04/23 15:13:07.8     729    171    250    749    790  76.8  18.5  34240  290.92 0854.36
2009/04/23 15:13:07.9     934   -166    264    949    986 100.1  15.6  34260  291.28 0854.36
2009/04/23 15:13:08.0     631   -294    137    697    711 115.0  11.1  34292  291.80 0854.36
2009/04/23 15:13:08.1     658   -271     31    712    713 112.4   2.5  34288  291.75 0854.36
2009/04/23 15:13:08.2     591   -325   -121    675    686 118.8 -10.2  34252  291.14 0854.36
2009/04/23 15:13:08.3     498   -360   -165    615    637 125.9 -15.1  34208  290.40 0854.36
2009/04/23 15:13:08.4     331   -311    -25    455    456 133.2  -3.2  34256  291.19 0854.36
2009/04/23 15:13:08.5     351   -238    -30    425    427 124.2  -4.1  34198  290.21 0854.36
2009/04/23 15:13:08.6     203     -9    -65    204    214  92.6 -23.0  34208  290.38 0854.36
2009/04/23 15:13:08.7       0   -244    -24    245    247 180.1  -5.6  34232  290.78 0854.36
2009/04/23 15:13:08.8     108   -326     41    344    347 161.6   6.8  34268  291.39 0854.36
2009/04/23 15:13:08.9     141   -424    -41    448    451 161.5  -5.3  34250  291.11 0854.36
2009/04/23 15:13:09.0    -107   -461    -62    474    478 193.1  -7.5  34186  290.00 0854.36
2009/04/23 15:13:09.1      27   -364     -7    365    366 175.6  -1.2  34192  290.11 0854.34
2009/04/23 15:13:09.2     227   -411    -31    470    472 151.1  -3.8  34224  290.66 0854.34
2009/04/23 15:13:09.3     160   -544    203    568    603 163.6  20.4  34238  290.90 0854.34
2009/04/23 15:13:09.4     133   -404    324    426    535 161.7  41.2  34226  290.68 0854.34
2009/04/23 15:13:09.5     259   -293    313    392    501 138.5  42.7  34218  290.57 0854.34
2009/04/23 15:13:09.6      17    -20    229     27    230 138.6  90.0  34208  290.38 0854.34
2009/04/23 15:13:09.7     196   -127    283    234    367 123.1  56.4  34198  290.23 0854.34
2009/04/23 15:13:09.8     256   -334    217    421    473 142.5  29.4  34188  290.04 0854.34
2009/04/23 15:13:09.9     275   -201    169    341    380 126.2  28.2  34198  290.23 0854.34
2009/04/23 15:13:10.0     188   -122    208    225    306 122.9  47.9  34198  290.22 0854.34
2009/04/23 15:13:10.1      78    -37    219     87    235 115.3  77.1  34200  290.26 0854.34
2009/04/23 15:13:10.2     224     -4    200    225    301  91.3  46.2  34194  290.15 0854.34
2009/04/23 15:13:10.3     180    130    281    223    358  54.1  57.7  34220  290.58 0854.34
2009/04/23 15:13:10.4     245    156    227    291    369  57.5  42.0  34212  290.47 0854.34
2009/04/23 15:13:10.5     165     58    290    176    339  70.5  65.8  34236  290.87 0854.34
2009/04/23 15:13:10.6     229     62    233    238    333  74.7  49.3  34196  290.17 0854.34
2009/04/23 15:13:10.7     204     15    148    205    252  85.7  39.3  34202  290.29 0854.34
2009/04/23 15:13:10.8     126     29     34    130    135  76.7  14.7  34194  290.14 0854.34
2009/04/23 15:13:10.9     153    130    165    201    260  49.6  43.7  34210  290.42 0854.34
2009/04/23 15:13:11.0     137     -5    194    138    238  92.1  61.3  34212  290.45 0854.34
2009/04/23 15:13:11.1     179     43    261    185    319  76.3  61.4  34220  290.59 0854.33
2009/04/23 15:13:11.2     132    281    157    311    348  25.3  28.7  34210  290.43 0854.33
2009/04/23 15:13:11.3      68     54    190     88    209  51.4  73.2  34222  290.64 0854.33
2009/04/23 15:13:11.4     123    259    248    287    379  25.5  45.4  34212  290.47 0854.33
2009/04/23 15:13:11.5     132    434    200    454    496  16.9  25.2  34210  290.42 0854.33
2009/04/23 15:13:11.6     120    428     34    445    447  15.7   4.4  34228  290.73 0854.33
2009/04/23 15:13:11.7     178    228    140    290    322  37.9  27.7  34224  290.65 0854.33
2009/04/23 15:13:11.8     208    194    124    285    310  46.9  25.1  34226  290.68 0854.33
2009/04/23 15:13:11.9     345    345     -4    488    489  45.0  -0.5  34222  290.61 0854.33
2009/04/23 15:13:12.0     299    268    132    402    424  48.1  18.2  34204  290.33 0854.33
2009/04/23 15:13:12.1     286    249    126    380    401  49.0  18.5  34208  290.38 0854.33
2009/04/23 15:13:12.2     115    331     14    351    352  19.2   2.4  34234  290.83 0854.33
2009/04/23 15:13:12.3     141    338    -13    367    368  22.6  -2.1  34196  290.18 0854.33
2009/04/23 15:13:12.4     257    378   -139    458    479  34.2 -17.0  34196  290.18 0854.33
2009/04/23 15:13:12.5     193    175   -115    261    285  47.8 -29.6  34184  289.97 0854.33
2009/04/23 15:13:12.6     110    153    -61    189    199  35.8 -17.9  34188  290.04 0854.33
2009/04/23 15:13:12.7     164     30     14    167    168  79.4   4.9  34216  290.52 0854.33
2009/04/23 15:13:12.8     285    -31    106    287    305  96.2  21.0  34230  290.75 0854.33
2009/04/23 15:13:12.9      92     22    171     95    195  76.3  68.8  34240  290.92 0854.33
2009/04/23 15:13:13.0      -9    -31    187     33    189 196.9  90.0  34256  291.21 0854.33
2009/04/23 15:13:13.1     -34     25    204     43    208 306.9  89.0  34254  291.18 0854.33
2009/04/23 15:13:13.2     -50      7    194     51    200 278.8  85.2  34252  291.13 0854.33
2009/04/23 15:13:13.3     -45     45    142     64    155 314.9  74.0  34256  291.21 0854.33
2009/04/23 15:13:13.4     -59    -13    123     61    137 257.6  71.9  34262  291.30 0854.33
2009/04/23 15:13:13.5    -136     22    142    138    198 279.2  50.7  34256  291.21 0854.33
2009/04/23 15:13:13.6      80    159     40    178    183  26.7  12.9  34256  291.21 0854.33
2009/04/23 15:13:13.7      54     91    -48    106    116  30.7 -31.0  34246  291.03 0854.33
2009/04/23 15:13:13.8      59     99    -54    116    127  30.7 -31.5  34246  291.04 0854.33
2009/04/23 15:13:13.9     110     28    -75    114    136  75.4 -40.0  34232  290.79 0854.33
2009/04/23 15:13:14.0      88    -32      0     94     95 110.0   0.2  34210  290.43 0854.36
2009/04/23 15:13:14.1     -83    -86    146    120    188 224.2  56.4  34216  290.53 0854.36
2009/04/23 15:13:14.2    -267   -169     10    317    318 237.6   1.9  34210  290.41 0854.36
2009/04/23 15:13:14.3    -201   -143    242    247    345 234.5  49.7  34226  290.68 0854.36
2009/04/23 15:13:14.4    -125     37    243    131    276 286.8  69.3  34244  290.99 0854.36
2009/04/23 15:13:14.5     -36     -7    223     37    226 258.6  90.0  34268  291.40 0854.36
2009/04/23 15:13:14.6      58    110    218    125    251  28.1  67.7  34266  291.38 0854.36
2009/04/23 15:13:14.7     -16     87    162     89    184 349.3  68.8  34254  291.16 0854.36
2009/04/23 15:13:14.8      48    312    193    316    370   8.9  34.4  34232  290.81 0854.36
2009/04/23 15:13:14.9    -191    178     10    262    263 312.9   2.3  34254  291.16 0854.36
2009/04/23 15:13:15.0    -361    -65     99    367    381 259.7  15.2  34252  291.13 0854.36
2009/04/23 15:13:15.1    -316   -388    116    501    515 219.2  13.1  34252  291.13 0854.36
2009/04/23 15:13:15.2    -235   -482      9    537    538 206.0   1.0  34222  290.63 0854.36
2009/04/23 15:13:15.3    -197   -438     54    481    485 204.2   6.5  34188  290.03 0854.36
2009/04/23 15:13:15.4    -131   -278     28    308    310 205.3   5.3  34184  289.97 0854.36
2009/04/23 15:13:15.5      67    -55     74     88    114 129.5  43.8  34208  290.40 0854.36
2009/04/23 15:13:15.6     -88    106    -99    138    169 320.3 -43.5  34222  290.62 0854.36
2009/04/23 15:13:15.7    -144    110    -52    182    190 307.3 -16.0  34234  290.82 0854.36
2009/04/23 15:13:15.8     -71     96    -14    120    121 323.5  -6.7  34228  290.74 0854.36
2009/04/23 15:13:15.9    -147      2    -78    148    167 270.9 -34.2  34226  290.70 0854.36
2009/04/23 15:13:16.0    -193     -5   -131    194    234 268.5 -41.4  34232  290.79 0854.39
2009/04/23 15:13:16.1    -147     78   -137    167    216 298.2 -48.1  34224  290.67 0854.39
2009/04/23 15:13:16.2      95     51    -46    108    117  61.6 -28.5  34226  290.69 0854.39
2009/04/23 15:13:16.3     193    114    230    225    321  59.4  50.7  34206  290.34 0854.39
2009/04/23 15:13:16.4     216    229    121    316    338  43.3  22.0  34212  290.47 0854.39
2009/04/23 15:13:16.5     167    224    139    280    312  36.7  28.4  34210  290.42 0854.39
2009/04/23 15:13:16.6     115    353    139    372    397  18.1  21.5  34232  290.81 0854.39
2009/04/23 15:13:16.7     -52    119     29    130    134 336.4  12.6  34224  290.65 0854.39
2009/04/23 15:13:16.8     -70   -149     33    165    169 205.2  11.4  34214  290.50 0854.39
2009/04/23 15:13:16.9      27    -43     54     51     74 147.5  51.2  34228  290.74 0854.39
2009/04/23 15:13:17.0      37   -106     17    113    115 160.4   9.0  34224  290.67 0854.39
2009/04/23 15:13:17.1       2   -142    -41    143    148 179.1 -20.7  34222  290.64 0854.39
2009/04/23 15:13:17.2      18   -149    -66    151    164 172.9 -29.5  34224  290.65 0854.39
2009/04/23 15:13:17.3      36   -118    -68    124    141 163.1 -35.7  34224  290.67 0854.39
2009/04/23 15:13:17.4      48   -170    -58    177    187 164.0 -18.1  34228  290.72 0854.39
2009/04/23 15:13:17.5      46   -158    -75    165    181 163.7 -30.6  34230  290.75 0854.39
2009/04/23 15:13:17.6      20   -369    -84    370    380 176.9 -12.9  34238  290.91 0854.39
2009/04/23 15:13:17.7     119   -296    -99    320    334 158.1 -22.2  34240  290.94 0854.39
2009/04/23 15:13:17.8     146   -215   -111    261    283 145.7 -29.3  34240  290.92 0854.39
2009/04/23 15:13:17.9     173   -240   -118    297    319 144.2 -27.1  34236  290.87 0854.39
2009/04/23 15:13:18.0     266   -173   -146    318    349 123.1 -30.9  34238  290.88 0854.41
2009/04/23 15:13:18.1     346     29   -182    348    392  85.2 -34.2  34188  290.04 0854.41
2009/04/23 15:13:18.2     386     79   -111    395    411  78.4 -15.8  34180  289.92 0854.41
2009/04/23 15:13:18.3     505    254    -51    566    569  63.3  -5.2  34170  289.75 0854.41
2009/04/23 15:13:18.4     430    339    324    548    636  51.8  33.3  34198  290.22 0854.41
2009/04/23 15:13:18.5     676    244    214    719    751  70.1  16.6  34186  290.02 0854.41
2009/04/23 15:13:18.6     571    308    152    649    667  61.6  13.2  34192  290.12 0854.41
2009/04/23 15:13:18.7     631    359    242    727    767  60.4  18.5  34210  290.41 0854.41
2009/04/23 15:13:18.8     604    149    158    623    643  76.1  14.3  34200  290.26 0854.41
2009/04/23 15:13:18.9     744    179   -102    766    773  76.4  -7.6  34192  290.12 0854.41
2009/04/23 15:13:19.0     818    192   -230    841    872  76.8 -15.3  34194  290.15 0854.41
2009/04/23 15:13:19.1     666    371     58    763    765  60.9   4.4  34184  289.99 0854.41
2009/04/23 15:13:19.2     785    312    -31    845    846  68.3  -2.1  34180  289.90 0854.41
2009/04/23 15:13:19.3     803    445    153    919    932  61.0   9.5  34236  290.87 0854.41
2009/04/23 15:13:19.4     656    476    217    811    840  54.0  15.0  34232  290.81 0854.41
2009/04/23 15:13:19.5     105    369    287    384    479  15.9  40.6  34232  290.80 0854.41
2009/04/23 15:13:19.6     411    293    165    505    532  54.5  18.1  34224  290.67 0854.41
2009/04/23 15:13:19.7     440    447    224    628    666  44.6  20.6  34208  290.38 0854.41
2009/04/23 15:13:19.8     565    160    131    588    603  74.2  12.6  34210  290.41 0854.41
2009/04/23 15:13:19.9     438    215     23    489    490  63.8   2.8  34232  290.79 0854.41
2009/04/23 15:13:20.0     314    177    155    361    392  60.6  24.9  34246  291.03 0854.43
2009/04/23 15:13:20.1     328    528    196    622    653  31.9  17.5  34232  290.81 0854.43
2009/04/23 15:13:20.2     443    174     44    477    480  68.5   5.3  34214  290.49 0854.43
2009/04/23 15:13:20.3     330    231     41    403    406  55.0   5.9  34210  290.43 0854.43
2009/04/23 15:13:20.4     615    414    -27    742    743  56.1  -2.1  34228  290.74 0854.43
2009/04/23 15:13:20.5     157    565     62    587    591  15.6   6.1  34294  291.85 0854.43
2009/04/23 15:13:20.6       2    235     20    236    237   0.5   4.9  34292  291.80 0854.43
2009/04/23 15:13:20.7     409     92      0    420    421  77.3   0.0  34230  290.77 0854.43
2009/04/23 15:13:20.8     347      4     29    348    350  89.2   4.9  34238  290.88 0854.43
2009/04/23 15:13:20.9     508    258    287    570    638  63.0  28.7  34238  290.89 0854.43
2009/04/23 15:13:21.0     422    119    174    439    472  74.2  22.8  34234  290.82 0854.43
2009/04/23 15:13:21.1     331     46    105    335    352  82.1  17.4  34244  291.00 0854.43
2009/04/23 15:13:21.2     463   -100    373    474    603 102.3  42.2  34264  291.35 0854.43
2009/04/23 15:13:21.3     566     51    407    569    699  84.8  39.2  34224  290.65 0854.43
2009/04/23 15:13:21.4     480     53    548    483    730  83.6  54.2  34226  290.70 0854.43
2009/04/23 15:13:21.5     340      3    407    341    530  89.4  56.0  34212  290.44 0854.43
2009/04/23 15:13:21.6     167    -44    301    173    347 104.8  67.6  34222  290.63 0854.43
2009/04/23 15:13:21.7      91   -133    264    162    309 145.7  65.4  34260  291.26 0854.43
2009/04/23 15:13:21.8     104   -272    285    292    408 159.1  49.3  34272  291.47 0854.43
2009/04/23 15:13:21.9      83   -193    238    211    318 156.8  53.9  34264  291.34 0854.43
2009/04/23 15:13:22.0     212   -266    271    341    435 141.4  42.6  34248  291.06 0854.44
2009/04/23 15:13:22.1     205   -266    161    336    372 142.4  27.3  34246  291.03 0854.44
2009/04/23 15:13:22.2     260    -65    203    269    337 104.2  40.8  34252  291.12 0854.44
2009/04/23 15:13:22.3     322     56    187    328    377  80.0  32.1  34262  291.32 0854.44
2009/04/23 15:13:22.4     297     15    195    298    356  87.0  36.3  34258  291.22 0854.44
2009/04/23 15:13:22.5     396    227    -35    457    459  60.2  -4.4  34204  290.31 0854.44
2009/04/23 15:13:22.6     484    315    -52    578    581  56.9  -5.2  34222  290.63 0854.44
2009/04/23 15:13:22.7     331    268   -118    427    443  51.0 -20.0  34228  290.73 0854.44
2009/04/23 15:13:22.8     305    224   -161    379    411  53.6 -28.7  34250  291.11 0854.44
2009/04/23 15:13:22.9     278     96   -132    295    323  70.9 -30.2  34242  290.97 0854.44
2009/04/23 15:13:23.0     273    -82    -38    286    289 106.8  -7.7  34242  290.97 0854.44
2009/04/23 15:13:23.1     230    -80    -47    244    249 109.3 -10.9  34246  291.02 0854.44
2009/04/23 15:13:23.2     215   -102    -66    239    247 115.5 -20.0  34230  290.75 0854.44
2009/04/23 15:13:23.3     187    -87     37    207    211 115.1  10.1  34288  291.76 0854.44
2009/04/23 15:13:23.4      78    -58     36     98    104 126.4  20.4  34290  291.79 0854.44
2009/04/23 15:13:23.5      -2    -20     -9     21     22 188.0 -27.4  34274  291.50 0854.44
2009/04/23 15:13:23.6      -2   -145    -75    146    164 180.9 -33.7  34278  291.59 0854.44
2009/04/23 15:13:23.7      88   -135    -49    162    170 147.0 -16.8  34280  291.62 0854.44
2009/04/23 15:13:23.8     116   -130   -150    175    230 138.1 -49.2  34276  291.54 0854.44
2009/04/23 15:13:23.9     342     48   -158    346    380  81.9 -30.8  34256  291.20 0854.44
2009/04/23 15:13:24.0     281     66    -18    289    290  76.7  -3.7  34262  291.29 0854.44
2009/04/23 15:13:24.1     312     73    -80    321    331  76.7 -14.1  34282  291.63 0854.44
2009/04/23 15:13:24.2     214    -57     -4    222    223 105.1  -1.1  34258  291.23 0854.44
2009/04/23 15:13:24.3     222    -66    -53    232    239 106.6 -12.9  34258  291.24 0854.44
2009/04/23 15:13:24.4     211   -140    -23    254    256 123.7  -5.2  34252  291.12 0854.44
2009/04/23 15:13:24.5     209   -107    110    235    259 117.1  27.1  34240  290.93 0854.44
2009/04/23 15:13:24.6     209    -14    105    210    234  93.9  28.5  34244  290.99 0854.44
2009/04/23 15:13:24.7     239    100    -66    260    269  67.3 -14.3  34248  291.05 0854.44
2009/04/23 15:13:24.8      48     83    -78     97    124  30.3 -47.1  34246  291.04 0854.44
2009/04/23 15:13:24.9      29    -84     10     90     91 160.8   6.5  34248  291.08 0854.44
2009/04/23 15:13:25.0     256     44      3    260    261  80.1   0.7  34262  291.31 0854.44
2009/04/23 15:13:25.1     237    117    183    265    322  63.8  37.9  34252  291.12 0854.44
2009/04/23 15:13:25.2     608    168    100    632    640  74.5   9.0  34296  291.88 0854.44
2009/04/23 15:13:25.3     451    106    226    464    516  76.8  27.9  34298  291.90 0854.44
2009/04/23 15:13:25.4     251     26    131    253    284  84.1  29.3  34292  291.82 0854.44
2009/04/23 15:13:25.5     248     24    259    250    359  84.3  51.1  34282  291.63 0854.44
2009/04/23 15:13:25.6     367     75     45    375    378  78.3   6.9  34260  291.28 0854.44
2009/04/23 15:13:25.7     289    -50    114    294    315  99.9  22.4  34246  291.02 0854.44
2009/04/23 15:13:25.8     405     59    337    410    530  81.7  43.7  34222  290.64 0854.44
2009/04/23 15:13:25.9     227      9    210    228    309  87.5  47.9  34212  290.44 0854.44
2009/04/23 15:13:26.0     296      8    194    297    354  88.3  36.3  34220  290.60 0854.43
2009/04/23 15:13:26.1     114     82    151    141    206  54.0  52.2  34226  290.70 0854.43
2009/04/23 15:13:26.2     326     74    -28    335    337  77.2  -4.8  34224  290.67 0854.43
2009/04/23 15:13:26.3     323    175    -66    368    374  61.5 -10.3  34200  290.25 0854.43
2009/04/23 15:13:26.4     272    255     15    374    375  46.9   2.4  34208  290.38 0854.43
2009/04/23 15:13:26.5     381    206    -52    434    438  61.6  -6.9  34206  290.34 0854.43
2009/04/23 15:13:26.6     319    130   -105    345    361  67.8 -16.9  34218  290.54 0854.43
2009/04/23 15:13:26.7     310    358      8    474    475  40.9   1.0  34220  290.59 0854.43
2009/04/23 15:13:26.8     232    326     76    401    409  35.5  10.8  34220  290.60 0854.43
2009/04/23 15:13:26.9     174    163     15    239    240  46.9   3.6  34228  290.73 0854.43
2009/04/23 15:13:27.0     171    111    -18    205    206  56.9  -5.2  34230  290.77 0854.43
2009/04/23 15:13:27.1     183     34     69    187    199  79.4  21.0  34236  290.87 0854.43
2009/04/23 15:13:27.2     126      0    139    127    188  90.0  52.7  34232  290.79 0854.43
2009/04/23 15:13:27.3      57     25    115     63    131  66.5  68.9  34248  291.06 0854.43
2009/04/23 15:13:27.4      12     44     91     46    101  16.0  71.4  34258  291.23 0854.43
2009/04/23 15:13:27.5     -21    156    102    158    188 352.0  35.6  34244  291.01 0854.43
2009/04/23 15:13:27.6     -57    121     67    134    149 334.7  28.2  34244  291.01 0854.43
2009/04/23 15:13:27.7     -19     70    103     73    126 344.9  61.1  34260  291.26 0854.43
2009/04/23 15:13:27.8     -62     64     90     90    127 315.9  50.1  34248  291.06 0854.43
2009/04/23 15:13:27.9     -28     49     23     57     61 330.1  23.0  34240  290.94 0854.43
2009/04/23 15:13:28.0      34    -32      8     47     48 133.1  10.1  34226  290.69 0854.41
2009/04/23 15:13:28.1      41    -26    -65     49     81 122.5 -63.4  34230  290.77 0854.41
2009/04/23 15:13:28.2      19   -119     17    121    123 170.7   8.0  34234  290.82 0854.41
2009/04/23 15:13:28.3     -67     13     59     69     90 281.5  44.8  34256  291.21 0854.41
2009/04/23 15:13:28.4      19     36      0     41     42  28.1   0.8  34242  290.98 0854.41
2009/04/23 15:13:28.5     233    219    -41    320    323  46.8  -7.3  34228  290.73 0854.41
2009/04/23 15:13:28.6     235    176     10    294    295  53.1   2.1  34282  291.65 0854.41
2009/04/23 15:13:28.7     154    205     30    257    259  37.0   6.9  34262  291.29 0854.41
2009/04/23 15:13:28.8     109    143    181    181    255  37.4  50.1  34268  291.39 0854.41
2009/04/23 15:13:28.9     136     69    155    153    217  63.0  50.2  34302  291.98 0854.41
2009/04/23 15:13:29.0      20    145    130    147    196   8.0  45.9  34298  291.93 0854.41
2009/04/23 15:13:29.1      60    118    110    133    172  27.1  43.8  34302  292.00 0854.41
2009/04/23 15:13:29.2      71    129    133    148    198  29.0  46.6  34334  292.54 0854.41
2009/04/23 15:13:29.3     184    168    177    250    306  47.6  38.8  34324  292.36 0854.41
2009/04/23 15:13:29.4     135    126    222    185    288  46.9  56.3  34318  292.26 0854.41
2009/04/23 15:13:29.5     172     14    262    173    313  85.0  63.4  34278  291.56 0854.41
2009/04/23 15:13:29.6     168    -40    220    173    279 103.7  58.2  34306  292.06 0854.41
2009/04/23 15:13:29.7    -105   -129    193    167    255 219.2  54.8  34316  292.22 0854.41
2009/04/23 15:13:29.8     -43   -177    257    183    315 193.8  61.2  34254  291.16 0854.41
2009/04/23 15:13:29.9    -150   -214    231    262    349 215.1  45.8  34244  291.00 0854.41
2009/04/23 15:13:30.0    -129   -363    237    386    452 199.6  34.4  34246  291.04 0854.43
2009/04/23 15:13:30.1    -118   -302    223    325    394 201.4  37.8  34244  291.00 0854.43
2009/04/23 15:13:30.2    -198   -328    139    384    409 211.2  19.9  34230  290.76 0854.43
2009/04/23 15:13:30.3     -32   -387     98    389    402 184.9  14.2  34240  290.93 0854.43
2009/04/23 15:13:30.4     -63   -271     78    279    290 193.1  15.8  34240  290.93 0854.43
2009/04/23 15:13:30.5      36   -228     40    231    235 170.9   9.9  34244  291.00 0854.43
2009/04/23 15:13:30.6      97   -205      0    227    228 154.6   0.0  34246  291.04 0854.43
2009/04/23 15:13:30.7      68   -218     27    229    231 162.6   6.9  34244  291.01 0854.43
2009/04/23 15:13:30.8      98   -177     58    203    212 151.0  16.0  34242  290.96 0854.43
2009/04/23 15:13:30.9     -40   -198    104    202    227 191.5  29.3  34260  291.28 0854.43
2009/04/23 15:13:31.0    -150   -253      9    295    296 210.7   1.8  34258  291.22 0854.43
2009/04/23 15:13:31.1    -110   -206    -50    234    240 208.1 -12.2  34268  291.39 0854.43
2009/04/23 15:13:31.2    -195   -123     13    231    232 237.6   3.3  34270  291.43 0854.43
2009/04/23 15:13:31.3    -124   -171     24    212    214 215.8   6.7  34262  291.30 0854.43
2009/04/23 15:13:31.4       7   -240    131    241    274 178.2  31.0  34256  291.19 0854.43
2009/04/23 15:13:31.5     -41   -375    165    378    412 186.3  25.1  34208  290.37 0854.43
2009/04/23 15:13:31.6      -8   -429    197    430    472 181.1  26.3  34206  290.36 0854.43
2009/04/23 15:13:31.7      86   -317     83    329    340 164.8  14.3  34210  290.42 0854.43
2009/04/23 15:13:31.9     -38   -252    215    255    333 188.7  44.4  34208  290.39 0854.43
2009/04/23 15:13:31.9     -27   -210    109    212    238 187.6  29.3  34208  290.40 0854.43
2009/04/23 15:13:32.0     -96   -114     -3    150    151 220.1  -1.2  34192  290.13 0854.45
2009/04/23 15:13:32.2      -4    -12     62     13     63 198.3  89.0  34212  290.47 0854.45
2009/04/23 15:13:32.2      80     70     70    107    127  48.7  36.0  34216  290.52 0854.45
2009/04/23 15:13:32.3     133    116     42    177    183  48.7  13.5  34210  290.43 0854.45
2009/04/23 15:13:32.5     198    105     42    225    229  62.0  10.6  34210  290.41 0854.45
2009/04/23 15:13:32.6     242    -33    137    245    280  97.9  31.6  34226  290.68 0854.45
2009/04/23 15:13:32.7     217    -73     58    230    238 108.6  14.3  34208  290.37 0854.45
2009/04/23 15:13:32.8     180     -8    108    181    210  92.6  33.5  34202  290.28 0854.45
2009/04/23 15:13:32.9     179    -10    133    180    223  93.5  39.7  34202  290.28 0854.45
2009/04/23 15:13:33.0      41   -104    135    113    176 158.2  55.8  34196  290.18 0854.45
2009/04/23 15:13:33.1      45     -9    104     46    113 101.5  74.5  34194  290.16 0854.45
2009/04/23 15:13:33.2     150      0     63    151    163  90.0  23.8  34182  289.94 0854.45
2009/04/23 15:13:33.3     180     -3     70    181    194  91.3  22.0  34184  289.99 0854.45
2009/04/23 15:13:33.4     243    -29    118    245    271  97.0  27.3  34190  290.07 0854.45
2009/04/23 15:13:33.5     255     27    126    257    286  83.9  27.8  34188  290.05 0854.45
2009/04/23 15:13:33.6     154    -21    239    156    285  98.0  64.1  34194  290.14 0854.45
2009/04/23 15:13:33.7     257     32    273    260    377  82.9  51.6  34192  290.10 0854.45
2009/04/23 15:13:33.8     127   -105    228    165    281 129.6  60.6  34194  290.15 0854.45
2009/04/23 15:13:33.9      88    -96    159    131    206 137.7  56.4  34184  289.97 0854.45
2009/04/23 15:13:34.0     280   -182    279    335    435 123.1  44.0  34166  289.66 0854.45
2009/04/23 15:13:34.1     102    -94    270    140    304 132.7  70.8  34176  289.83 0854.45
2009/04/23 15:13:34.2     268   -147    349    306    464 118.8  54.3  34182  289.95 0854.45
2009/04/23 15:13:34.3     260   -358    301    443    535 144.0  37.4  34170  289.74 0854.45
2009/04/23 15:13:34.4     274   -338    307    436    533 140.9  38.6  34178  289.86 0854.45
2009/04/23 15:13:34.5     180   -378    309    419    520 154.5  40.1  34156  289.50 0854.45
2009/04/23 15:13:34.6     150   -451    417    476    632 161.6  45.7  34154  289.46 0854.45
2009/04/23 15:13:34.7     251   -439    311    506    593 150.2  34.4  34160  289.58 0854.45
2009/04/23 15:13:34.8     328   -221    262    396    474 124.1  36.6  34168  289.70 0854.45
2009/04/23 15:13:34.9     286   -278    202    400    448 134.2  29.1  34170  289.75 0854.45
2009/04/23 15:13:35.0     374   -326     85    497    505 131.1   9.7  34158  289.54 0854.45
2009/04/23 15:13:35.1     259   -251    112    361    379 134.1  17.3  34162  289.59 0854.47
2009/04/23 15:13:35.2     104   -218    210    242    320 154.5  45.5  34176  289.83 0854.47
2009/04/23 15:13:35.3     106   -364    231    380    444 163.7  34.2  34164  289.63 0854.47
2009/04/23 15:13:35.4      48   -405    184    408    447 173.1  26.0  34168  289.72 0854.47
2009/04/23 15:13:35.5     166   -214    172    271    320 142.2  35.5  34172  289.76 0854.47
2009/04/23 15:13:35.6     187    -76    139    202    245 112.2  37.6  34174  289.80 0854.47
2009/04/23 15:13:35.7      36   -119    131    125    181 163.0  51.4  34176  289.85 0854.47
2009/04/23 15:13:35.8     138   -264    229    299    376 152.4  41.4  34172  289.77 0854.47
2009/04/23 15:13:35.9     121   -374    279    394    482 162.0  38.7  34176  289.85 0854.47
2009/04/23 15:13:36.0     133   -312    226    340    408 156.8  36.6  34182  289.93 0854.47
2009/04/23 15:13:36.1      58   -352    278    357    452 170.6  41.7  34186  290.02 0854.47
2009/04/23 15:13:36.2      78   -178    232    195    303 156.2  56.3  34184  289.98 0854.47
2009/04/23 15:13:36.3     185   -334    321    382    498 151.0  44.3  34176  289.83 0854.47
2009/04/23 15:13:36.4      44   -286    307    290    422 171.1  52.1  34168  289.71 0854.47
2009/04/23 15:13:36.5      19   -279    367    280    461 176.0  58.9  34170  289.73 0854.47
2009/04/23 15:13:36.6       0   -401    368    402    545 180.0  47.3  34162  289.59 0854.47
2009/04/23 15:13:36.7     -99   -320    297    336    448 197.2  45.9  34166  289.68 0854.47
2009/04/23 15:13:36.8     -97   -207    211    229    311 205.3  47.9  34170  289.73 0854.47
2009/04/23 15:13:36.9     -74   -237    213    249    327 197.4  44.8  34180  289.90 0854.47
2009/04/23 15:13:37.0    -193   -142    212    240    320 233.6  46.2  34194  290.15 0854.47
2009/04/23 15:13:37.1    -224    -81    -64    239    248 250.1 -15.2  34192  290.10 0854.45
2009/04/23 15:13:37.2    -201    -22     -4    203    204 263.6  -1.3  34198  290.21 0854.45
2009/04/23 15:13:37.3      29    145     75    148    165  11.5  29.1  34206  290.35 0854.45
2009/04/23 15:13:37.4      76     84    -67    114    132  41.9 -37.8  34218  290.55 0854.45
2009/04/23 15:13:37.5     -51     61    -91     80    121 320.3 -58.7  34218  290.57 0854.45
2009/04/23 15:13:37.6      30     80   -159     86    180  20.5 -73.7  34252  291.13 0854.45
2009/04/23 15:13:37.7      24     36   -123     44    130  34.3 -84.6  34274  291.50 0854.45
2009/04/23 15:13:37.8      40    101   -206    109    233  21.8 -74.2  34290  291.77 0854.45
2009/04/23 15:13:37.9      18    100   -152    102    183  10.7 -67.6  34300  291.96 0854.45
2009/04/23 15:13:38.0     -92     66   -102    114    152 306.0 -51.3  34296  291.89 0854.45
2009/04/23 15:13:38.1    -211     40     19    215    216 280.8   5.2  34298  291.93 0854.45
2009/04/23 15:13:38.2    -170    108     94    202    222 302.4  27.1  34302  292.00 0854.45
2009/04/23 15:13:38.3    -111    125     58    168    178 318.6  19.2  34298  291.91 0854.45
2009/04/23 15:13:38.4      18    189    -95    190    212   5.6 -32.6  34290  291.77 0854.45
2009/04/23 15:13:38.5     109    159    -81    193    209  34.5 -28.7  34320  292.30 0854.45
2009/04/23 15:13:38.6     237    -29    132    239    273  97.0  31.4  34324  292.35 0854.45
2009/04/23 15:13:38.7     212    167    214    271    345  51.8  42.4  34344  292.70 0854.45
2009/04/23 15:13:38.8     357    362    184    509    541  44.5  20.8  34250  291.09 0854.45
2009/04/23 15:13:38.9     459    204    176    503    534  66.0  19.3  34326  292.39 0854.45
2009/04/23 15:13:39.0     597    211    276    634    691  70.5  25.1  34252  291.14 0854.45
2009/04/23 15:13:39.1     708    115     11    718    719  80.8   0.9  34226  290.69 0854.32
2009/04/23 15:13:39.2     505    100   -217    515    558  78.8 -28.6  34200  290.24 0854.32
2009/04/23 15:13:39.3     561    527     73    770    774  46.8   5.4  34180  289.91 0854.32
2009/04/23 15:13:39.4     596    552     73    813    817  47.2   5.2  34162  289.60 0854.32
2009/04/23 15:13:39.5     432    567     29    713    714  37.3   2.4  34172  289.79 0854.32
2009/04/23 15:13:39.6     609    257    145    662    678  67.1  12.4  34162  289.60 0854.32
2009/04/23 15:13:39.7     669     45      8    671    672  86.1   0.7  34174  289.80 0854.32
2009/04/23 15:13:39.8     783    251    205    823    849  72.2  14.0  34152  289.44 0854.32
2009/04/23 15:13:39.9     917     50    -41    919    920  86.9  -2.6  34170  289.75 0854.32
2009/04/23 15:13:40.0     644    185    -18    671    672  74.0  -1.6  34176  289.85 0854.32
2009/04/23 15:13:40.1     247   -240    -70    345    353 134.2 -11.6  34224  290.67 0854.32
2009/04/23 15:13:40.2     279   -248   -185    374    417 131.6 -32.6  34222  290.61 0854.32
2009/04/23 15:13:40.3     345    199   -165    399    431  60.0 -28.2  34168  289.72 0854.32
2009/04/23 15:13:40.4     325    310   -128    450    467  46.4 -20.7  34164  289.63 0854.32
2009/04/23 15:13:40.5     348    111   -210    366    421  72.3 -36.8  34200  290.26 0854.32
2009/04/23 15:13:40.6     227    222    -95    318    332  45.6 -16.6  34202  290.27 0854.32
2009/04/23 15:13:40.7     323    242    -52    404    408  53.2  -7.4  34200  290.24 0854.32
2009/04/23 15:13:40.8     483    205   -105    525    536  66.9 -11.3  34202  290.30 0854.32
2009/04/23 15:13:40.9     300      4    104    301    319  89.1  19.1  34194  290.14 0854.32
2009/04/23 15:13:41.0     220    -95    357    240    430 113.5  62.8  34174  289.81 0854.27
2009/04/23 15:13:41.1      32   -228     32    231    234 171.9   8.0  34182  289.94 0854.27
2009/04/23 15:13:41.2    -120   -252     11    280    281 205.4   2.3  34162  289.59 0854.27
2009/04/23 15:13:41.3    -436   -100   -312    448    545 257.0 -42.7  34166  289.67 0854.27
2009/04/23 15:13:41.4    -410   -302   -117    510    524 233.6 -13.0  34166  289.69 0854.27
2009/04/23 15:13:41.5    -353   -313    -63    472    477 228.4  -7.7  34156  289.49 0854.27
2009/04/23 15:13:41.6    -423   -384     23    572    573 227.8   2.3  34152  289.44 0854.27
2009/04/23 15:13:41.7    -252   -579     82    632    638 203.5   7.5  34172  289.76 0854.27
2009/04/23 15:13:41.8    -182   -268     40    324    327 214.2   7.1  34160  289.56 0854.27
2009/04/23 15:13:41.9    -317   -221     16    387    388 235.2   2.4  34180  289.91 0854.27
2009/04/23 15:13:42.0    -291    -87    -93    304    317 253.2 -21.9  34180  289.92 0854.27
2009/04/23 15:13:42.1     -96    290     74    306    315 341.7  13.7  34178  289.86 0854.27
2009/04/23 15:13:42.2     -34    163   -132    167    212 348.2 -46.6  34190  290.09 0854.27
2009/04/23 15:13:42.3      14     22     24     27     36  32.5  45.8  34190  290.08 0854.27
2009/04/23 15:13:42.4      97     62    -80    116    140  57.6 -42.4  34190  290.09 0854.27
2009/04/23 15:13:42.5     -34   -199   -146    202    249 189.8 -43.9  34180  289.92 0854.27
2009/04/23 15:13:42.6      19   -392    128    393    414 177.1  18.0  34180  289.90 0854.27
2009/04/23 15:13:42.7     -38   -273   -153    276    315 188.0 -35.9  34190  290.07 0854.27
2009/04/23 15:13:42.8      80   -265   -175    278    328 163.1 -39.6  34182  289.93 0854.27
2009/04/23 15:13:42.9     119   -332    -86    353    364 160.2 -13.7  34184  289.98 0854.27
2009/04/23 15:13:43.0      51   -302     43    307    311 170.3   8.0  34168  289.71 0854.26
2009/04/23 15:13:43.1     258   -286    233    386    450 137.9  33.8  34172  289.78 0854.26
2009/04/23 15:13:43.2     129   -239    277    272    388 151.5  50.4  34154  289.47 0854.26
2009/04/23 15:13:43.3    -116   -289    279    312    418 201.9  46.5  34178  289.87 0854.26
2009/04/23 15:13:43.4    -113   -371    325    388    506 197.0  44.1  34172  289.76 0854.26
2009/04/23 15:13:43.5     -14   -246    357    247    434 183.4  62.1  34188  290.03 0854.26
2009/04/23 15:13:43.6      50   -324    379    329    501 171.1  54.8  34190  290.09 0854.26
2009/04/23 15:13:43.7      35   -159    338    164    375 167.3  72.4  34192  290.12 0854.26
2009/04/23 15:13:43.8      15   -199    378    200    427 175.5  69.9  34200  290.25 0854.26
2009/04/23 15:13:43.9     -41   -201    399    206    449 191.6  70.8  34200  290.25 0854.26
2009/04/23 15:13:44.0      33     26    232     43    235  52.2  90.0  34204  290.31 0854.26
2009/04/23 15:13:44.1     -43     80    209     92    228 331.5  74.9  34178  289.89 0854.26
2009/04/23 15:13:44.2    -213    137    241    254    350 302.9  48.5  34162  289.59 0854.26
2009/04/23 15:13:44.3      30     39    126     50    135  37.0  77.1  34140  289.23 0854.26
2009/04/23 15:13:44.4     -56     90    177    107    206 327.9  66.0  34154  289.48 0854.26
2009/04/23 15:13:44.5     125    178    129    218    253  35.2  33.5  34144  289.29 0854.26
2009/04/23 15:13:44.6      -2    154    156    155    219 359.0  50.1  34176  289.84 0854.26
2009/04/23 15:13:44.7      83    102    123    132    180  39.2  47.9  34174  289.82 0854.26
2009/04/23 15:13:44.8     -24     86    154     90    178 344.0  67.2  34190  290.09 0854.26
2009/04/23 15:13:44.9       1    103    142    104    176   0.9  60.3  34192  290.11 0854.26
2009/04/23 15:13:45.0     139     46    180    147    232  71.4  56.4  34176  289.85 0854.29
2009/04/23 15:13:45.1      66    119      7    137    138  29.0   3.3  34172  289.79 0854.29
2009/04/23 15:13:45.2     -13    162    114    163    198 355.1  38.4  34186  290.02 0854.29
2009/04/23 15:13:45.3     -31    161     31    165    168 348.9  10.8  34184  289.97 0854.29
2009/04/23 15:13:45.4      50    153     98    162    189  18.3  34.2  34180  289.92 0854.29
2009/04/23 15:13:45.5      -7    201     23    202    204 358.0   6.5  34184  289.97 0854.29
2009/04/23 15:13:45.6     -52    119     35    130    135 336.4  15.3  34184  289.99 0854.29
2009/04/23 15:13:45.7      -1    122     62    123    137 359.5  28.7  34182  289.96 0854.29
2009/04/23 15:13:45.8     -23     82     69     86    110 344.4  43.7  34174  289.82 0854.29
2009/04/23 15:13:45.9     -29     43     52     53     74 325.7  51.1  34176  289.85 0854.29
2009/04/23 15:13:46.0     -28     -4     16     29     33 260.3  31.4  34184  289.97 0854.29
2009/04/23 15:13:46.1     -33     11    -12     35     37 288.4 -23.6  34184  289.99 0854.29
2009/04/23 15:13:46.2     -18      1     18     19     26 274.3  50.0  34186  290.02 0854.29
2009/04/23 15:13:46.3     -42    -15    100     45    109 249.2  74.0  34204  290.33 0854.29
2009/04/23 15:13:46.4     -14    -74    138     76    157 190.7  68.8  34216  290.52 0854.29
2009/04/23 15:13:46.5      15    -51     77     54     94 163.1  62.1  34200  290.26 0854.29
2009/04/23 15:13:46.6      -7    -35     49     36     60 191.6  60.5  34200  290.26 0854.29
2009/04/23 15:13:46.7    -156    -21     71    158    173 262.1  25.7  34216  290.53 0854.29
2009/04/23 15:13:46.8    -296     99     85    313    325 288.6  15.3  34198  290.22 0854.29
2009/04/23 15:13:46.9    -369    134   -124    393    412 290.1 -22.6  34162  289.61 0854.29
2009/04/23 15:13:47.0    -387     16    -77    388    396 272.5 -11.2  34162  289.62 0854.29
2009/04/23 15:13:47.1    -364     -5   -133    365    388 269.2 -25.3  34148  289.38 0854.29
2009/04/23 15:13:47.2    -368     -5   -107    369    384 269.2 -21.0  34176  289.84 0854.29
2009/04/23 15:13:47.3    -332     10    -34    333    335 271.8  -6.0  34178  289.86 0854.29
2009/04/23 15:13:47.4    -300    -70     36    309    312 256.7   6.7  34188  290.05 0854.29
2009/04/23 15:13:47.5    -340   -100     26    355    356 253.6   4.3  34176  289.84 0854.29
2009/04/23 15:13:47.6    -331    -30    -36    333    336 264.8  -6.2  34172  289.79 0854.29
2009/04/23 15:13:47.7    -258    -25     71    260    270 264.3  15.3  34196  290.17 0854.29
2009/04/23 15:13:47.8    -288   -183     54    342    347 237.6   9.0  34200  290.25 0854.29
2009/04/23 15:13:47.9    -256   -205     51    329    334 231.3   8.9  34208  290.37 0854.29
2009/04/23 15:13:48.0    -163     68   -137    177    223 292.8 -46.1  34176  289.85 0854.29
2009/04/23 15:13:48.1    -330     28   -185    332    380 274.9 -35.9  34168  289.72 0854.29
2009/04/23 15:13:48.2    -232    -10   -105    233    255 267.5 -30.6  34174  289.81 0854.29
2009/04/23 15:13:48.3    -312    -23     -1    313    314 265.6  -0.2  34182  289.95 0854.29
2009/04/23 15:13:48.4    -205      9     55    206    214 272.6  15.0  34182  289.94 0854.29
2009/04/23 15:13:48.5     -84    -89     90    123    152 223.3  39.7  34182  289.94 0854.29
2009/04/23 15:13:48.6     -66    -75    163    101    191 221.4  64.7  34202  290.30 0854.29
2009/04/23 15:13:48.7    -210    -32     90    213    231 261.2  24.1  34190  290.08 0854.29
2009/04/23 15:13:48.8    -253    -76     77    265    277 253.2  16.3  34192  290.12 0854.29
2009/04/23 15:13:48.9    -315    201    -24    374    375 302.6  -3.7  34184  289.98 0854.29
2009/04/23 15:13:49.0    -405     56     66    409    415 277.9   9.2  34196  290.17 0854.32
2009/04/23 15:13:49.1    -165      0     80    166    184 270.1  27.4  34194  290.14 0854.32
2009/04/23 15:13:49.2    -272    -55    -55    278    284 258.5 -11.3  34200  290.24 0854.32
2009/04/23 15:13:49.3    -237    -78     30    250    252 251.6   6.9  34204  290.31 0854.32
2009/04/23 15:13:49.4    -165   -143     18    219    220 229.1   4.9  34202  290.28 0854.32
2009/04/23 15:13:49.5     -78   -198   -136    214    253 201.6 -39.9  34204  290.32 0854.32
2009/04/23 15:13:49.6      18   -177   -110    178    209 174.0 -39.4  34198  290.23 0854.32
2009/04/23 15:13:49.7      43   -128    -37    136    142 161.3 -15.4  34200  290.26 0854.32
2009/04/23 15:13:49.8      -5   -322    -17    323    324 181.0  -3.2  34198  290.20 0854.32
2009/04/23 15:13:49.9    -165   -327      7    367    368 206.7   1.1  34192  290.10 0854.32
2009/04/23 15:13:50.0    -191   -175     14    260    261 227.6   3.3  34196  290.17 0854.32
2009/04/23 15:13:50.1    -274   -207    -43    344    347 232.9  -7.2  34198  290.20 0854.32
2009/04/23 15:13:50.2    -190   -237    -27    305    307 218.7  -5.1  34190  290.07 0854.32
2009/04/23 15:13:50.3    -221   -259    -18    341    342 220.5  -3.1  34186  290.01 0854.32
2009/04/23 15:13:50.4     -87   -287     19    301    302 196.9   3.8  34192  290.10 0854.32
2009/04/23 15:13:50.5       3   -272    111    273    294 179.3  23.1  34186  290.00 0854.32
2009/04/23 15:13:50.6     -84   -456    168    464    493 190.5  20.8  34176  289.84 0854.32
2009/04/23 15:13:50.7     -89   -268    -79    283    293 198.5 -20.2  34182  289.95 0854.32
2009/04/23 15:13:50.8     -42   -247   -141    251    287 189.8 -36.3  34188  290.05 0854.32
2009/04/23 15:13:50.9    -228   -180    -96    291    307 231.8 -18.3  34182  289.93 0854.32
2009/04/23 15:13:51.0    -413   -117   -118    430    445 254.1 -20.0  34196  290.17 0854.34
2009/04/23 15:13:51.1    -495    -38      1    497    498 265.5   0.2  34182  289.96 0854.34
2009/04/23 15:13:51.2    -431   -111     53    446    450 255.5   6.9  34196  290.19 0854.34
2009/04/23 15:13:51.3    -345   -143    -67    374    381 247.5 -10.3  34156  289.52 0854.34
2009/04/23 15:13:51.4    -249   -164   -123    299    323 236.7 -28.1  34152  289.44 0854.34
2009/04/23 15:13:51.5    -199   -155   -117    253    278 232.2 -31.0  34156  289.49 0854.34
2009/04/23 15:13:51.6    -126   -175   -117    216    245 215.8 -35.0  34154  289.46 0854.34
2009/04/23 15:13:51.7     -23   -260    -78    262    273 185.1 -21.7  34160  289.58 0854.34
2009/04/23 15:13:51.8     -49   -326   -146    330    360 188.6 -29.7  34156  289.52 0854.34
2009/04/23 15:13:51.9     -22   -293   -199    294    355 184.4 -41.8  34154  289.48 0854.34
2009/04/23 15:13:52.0    -128   -177   -164    219    273 216.0 -45.1  34186  290.02 0854.34
2009/04/23 15:13:52.1     -86   -274   -164    288    331 197.4 -36.7  34170  289.73 0854.34
2009/04/23 15:13:52.2       6   -261   -119    262    287 178.6 -30.6  34176  289.83 0854.34
2009/04/23 15:13:52.3      42    -39    -75     58     94 133.1 -62.9  34188  290.04 0854.34
2009/04/23 15:13:52.4      24    -18    -11     31     33 127.8 -19.7  34198  290.21 0854.34
2009/04/23 15:13:52.5       0     -7     -4      8      9 182.7 -31.6  34204  290.33 0854.34
2009/04/23 15:13:52.6     -63    -41    -71     76    104 236.7 -52.4  34210  290.43 0854.34
2009/04/23 15:13:52.7     -20   -262   -197    263    328 184.5 -45.1  34180  289.90 0854.34
2009/04/23 15:13:52.8    -121   -122   -256    173    308 224.8 -67.1  34188  290.03 0854.34
2009/04/23 15:13:52.9    -271   -236   -429    360    560 229.0 -60.2  34158  289.54 0854.34
2009/04/23 15:13:53.0    -664     74   -491    669    829 276.4 -44.4  34160  289.57 0854.31
2009/04/23 15:13:53.1    -882     29   -526    883   1027 271.9 -38.0  34162  289.60 0854.31
2009/04/23 15:13:53.2    -669   -148   -379    686    783 257.5 -35.8  34166  289.67 0854.31
2009/04/23 15:13:53.3    -632    -41   -214    634    670 266.2 -18.7  34172  289.77 0854.31
2009/04/23 15:13:53.4    -452   -262   -218    523    566 239.9 -28.5  34166  289.68 0854.31
2009/04/23 15:13:53.5    -339   -147   -182    370    412 246.6 -32.6  34174  289.82 0854.31
2009/04/23 15:13:53.6    -301   -301    -24    426    427 225.0  -3.3  34184  289.99 0854.31
2009/04/23 15:13:53.7    -424   -220    -74    478    484 242.5  -8.8  34196  290.17 0854.31
2009/04/23 15:13:53.8    -309   -196   -225    367    430 237.6 -38.8  34164  289.63 0854.31
2009/04/23 15:13:53.9    -201   -242   -201    315    373 219.7 -40.0  34174  289.82 0854.31
2009/04/23 15:13:54.0     -94   -174   -112    199    228 208.5 -36.0  34180  289.92 0854.31
2009/04/23 15:13:54.1    -185   -236   -187    300    353 218.1 -39.4  34168  289.71 0854.31
2009/04/23 15:13:54.2     -78   -276   -225    287    364 195.8 -46.6  34158  289.55 0854.31
2009/04/23 15:13:54.3     -77   -259   -148    271    308 196.7 -35.7  34174  289.80 0854.31
2009/04/23 15:13:54.4     -65   -319   -169    326    367 191.6 -33.8  34172  289.76 0854.31
2009/04/23 15:13:54.5    -154   -198   -246    252    352 217.9 -53.8  34172  289.78 0854.31
2009/04/23 15:13:54.6    -184   -262   -238    321    399 215.1 -44.5  34178  289.86 0854.31
2009/04/23 15:13:54.7    -194   -180   -221    265    345 227.1 -48.4  34180  289.90 0854.31
2009/04/23 15:13:54.8    -148    -48   -216    156    266 251.8 -65.0  34182  289.95 0854.31
2009/04/23 15:13:54.9      85    -28   -105     90    138 108.6 -59.2  34186  290.01 0854.31
2009/04/23 15:13:55.0      60   -119   -143    134    195 153.3 -56.6  34190  290.08 0854.36
2009/04/23 15:13:55.1      84   -192   -214    210    299 156.4 -54.6  34190  290.07 0854.36
2009/04/23 15:13:55.2      20   -258   -258    259    365 175.5 -54.4  34190  290.08 0854.36
2009/04/23 15:13:55.3      -5   -302   -208    303    367 181.0 -42.1  34190  290.08 0854.36
2009/04/23 15:13:55.4      61   -208    -95    218    237 163.5 -29.5  34202  290.28 0854.36
2009/04/23 15:13:55.5      38   -350    219    353    415 173.7  34.9  34178  289.89 0854.36
2009/04/23 15:13:55.6     -15   -564    190    565    597 181.6  18.6  34190  290.07 0854.36
2009/04/23 15:13:55.7     -34   -514    216    516    559 183.8  24.2  34190  290.09 0854.36
2009/04/23 15:13:55.8    -161   -441    240    470    527 200.1  29.2  34186  290.01 0854.36
2009/04/23 15:13:55.9    -166   -331    234    371    438 206.7  35.5  34184  289.99 0854.36
2009/04/23 15:13:56.0     -59   -609     42    612    614 185.6   4.0  34180  289.90 0854.36
2009/04/23 15:13:56.1     -11   -570    -41    571    573 181.2  -4.1  34190  290.08 0854.36
2009/04/23 15:13:56.2     -30   -480    -72    481    487 183.6  -8.6  34188  290.05 0854.36
2009/04/23 15:13:56.3      38   -422     51    424    428 174.8   6.9  34184  289.99 0854.36
2009/04/23 15:13:56.4      31   -344    195    346    397 174.8  31.9  34188  290.04 0854.36
2009/04/23 15:13:56.5     -28   -283    206    285    351 185.8  39.5  34188  290.03 0854.36
2009/04/23 15:13:56.6      15   -345    217    346    408 177.4  35.3  34188  290.04 0854.36
2009/04/23 15:13:56.7      90   -384    287    395    488 166.8  39.7  34184  289.97 0854.36
2009/04/23 15:13:56.8      -5   -264    264    265    374 181.1  50.0  34202  290.27 0854.36
2009/04/23 15:13:56.9       5   -181    235    182    297 178.4  58.5  34216  290.51 0854.36
2009/04/23 15:13:57.0      45   -214    226    219    314 168.0  51.1  34218  290.56 0854.36
2009/04/23 15:13:57.1     117   -277    250    301    391 157.1  43.8  34244  291.01 0854.36
2009/04/23 15:13:57.2     -29   -257    206    259    330 186.5  42.7  34238  290.88 0854.36
2009/04/23 15:13:57.3      53   -242    196    248    316 167.6  42.3  34244  291.00 0854.36
2009/04/23 15:13:57.4      13   -105    140    106    175 172.9  59.0  34234  290.84 0854.36
2009/04/23 15:13:57.5      32   -135    117    139    181 166.6  44.5  34256  291.21 0854.36
2009/04/23 15:13:57.6      30   -120    166    124    207 165.7  59.4  34242  290.98 0854.36
2009/04/23 15:13:57.7      10   -132    206    133    245 175.6  64.4  34248  291.08 0854.36
2009/04/23 15:13:57.8    -119     10    195    120    228 274.8  65.4  34256  291.20 0854.36
2009/04/23 15:13:57.9    -151     30    104    155    186 281.5  36.7  34248  291.08 0854.36
2009/04/23 15:13:58.0    -182   -116     85    216    232 237.5  22.8  34222  290.62 0854.36
2009/04/23 15:13:58.1     -94   -207     92    228    245 204.5  23.1  34210  290.42 0854.36
2009/04/23 15:13:58.2    -151   -236     -5    281    282 212.7  -1.2  34202  290.29 0854.36
2009/04/23 15:13:58.3     -59   -207     16    216    217 196.0   4.4  34206  290.36 0854.36
2009/04/23 15:13:58.4     -18   -178     -7    179    180 186.0  -2.2  34196  290.18 0854.36
2009/04/23 15:13:58.5     -61   -153     73    165    180 201.8  25.3  34190  290.08 0854.36
2009/04/23 15:13:58.7     -45    -96     90    107    139 205.3  43.8  34206  290.35 0854.36
2009/04/23 15:13:58.8       6      7    124     10    124  43.2  90.0  34230  290.75 0854.36
2009/04/23 15:13:58.9     -38     46    126     60    139 320.3  72.8  34234  290.84 0854.36
2009/04/23 15:13:59.0    -118    -85    169    146    223 234.0  54.6  34218  290.55 0854.36
2009/04/23 15:13:59.1     -94   -231    173    250    304 202.1  38.0  34214  290.48 0854.36
2009/04/23 15:13:59.2    -242    -45     99    247    266 259.4  23.0  34210  290.42 0854.36
2009/04/23 15:13:59.3    -133    -84    112    158    193 237.6  38.8  34216  290.53 0854.36
2009/04/23 15:13:59.4     -90   -137    117    165    202 213.4  38.8  34206  290.36 0854.36
2009/04/23 15:13:59.5    -282   -130     -2    311    312 245.2  -0.5  34182  289.93 0854.36
2009/04/23 15:13:59.6    -288     45     78    292    303 279.0  15.0  34178  289.86 0854.36
2009/04/23 15:13:59.7    -289     58     46    295    299 281.5   9.0  34188  290.03 0854.36
2009/04/23 15:13:59.8    -424     36     91    426    436 274.9  12.2  34222  290.61 0854.36
2009/04/23 15:13:59.9    -385    -66    172    391    427 260.2  25.2  34224  290.65 0854.36
2009/04/23 15:14:00.0    -309    -67    214    317    382 257.6  37.4  34242  290.96 0854.36
2009/04/23 15:14:00.1    -422      8    107    423    437 271.2  14.3  34232  290.78 0854.36
2009/04/23 15:14:00.2    -421    133     42    442    445 287.6   5.5  34248  291.07 0854.36
2009/04/23 15:14:00.3    -354    165     86    391    401 295.1  12.5  34276  291.54 0854.36
2009/04/23 15:14:00.4    -287     35    140    290    322 277.0  27.7  34264  291.34 0854.36
2009/04/23 15:14:00.5    -276    111    107    298    316 292.0  20.4  34226  290.70 0854.36
2009/04/23 15:14:00.6    -348    123    105    370    385 289.6  15.9  34218  290.55 0854.36
2009/04/23 15:14:00.7    -306    140    128    337    360 294.6  21.6  34228  290.71 0854.36
2009/04/23 15:14:00.8    -346    -49    154    350    382 261.9  25.3  34244  291.00 0854.36
2009/04/23 15:14:00.9    -304      0     59    305    311 270.0  11.1  34248  291.05 0854.36
2009/04/23 15:14:01.0    -370    -32     43    372    375 264.9   6.7  34250  291.11 0854.36
2009/04/23 15:14:01.1    -382   -190    100    427    439 243.5  13.3  34286  291.72 0854.36
2009/04/23 15:14:01.2    -381   -162     72    415    422 246.9   9.9  34264  291.33 0854.36
2009/04/23 15:14:01.3    -347   -330    169    480    509 226.4  19.4  34280  291.61 0854.36
2009/04/23 15:14:01.4    -339   -320     64    467    472 226.7   7.8  34266  291.36 0854.36
2009/04/23 15:14:01.5    -270   -316    274    416    498 220.5  36.5  34232  290.78 0854.36
2009/04/23 15:14:01.6    -388   -297    167    489    518 232.6  18.9  34228  290.74 0854.36
2009/04/23 15:14:01.7    -408   -259    -15    484    485 237.5  -1.8  34218  290.54 0854.36
2009/04/23 15:14:01.8    -373   -391     27    541    542 223.7   2.9  34212  290.46 0854.36
2009/04/23 15:14:01.9    -382   -524    126    649    662 216.1  11.0  34232  290.80 0854.36
2009/04/23 15:14:02.0    -356   -557    275    662    716 212.6  23.9  34232  290.78 0854.36
2009/04/23 15:14:02.1    -330   -432    276    544    610 217.4  29.2  34204  290.32 0854.34
2009/04/23 15:14:02.2    -257   -233    329    347    478 227.8  48.5  34216  290.53 0854.34
2009/04/23 15:14:02.3    -347   -163    240    384    452 244.8  35.1  34208  290.38 0854.34
2009/04/23 15:14:02.4    -201   -328    354    385    523 211.5  47.5  34208  290.40 0854.34
2009/04/23 15:14:02.5    -206   -472    368    516    633 203.6  39.1  34216  290.51 0854.34
2009/04/23 15:14:02.6       5   -232    401    233    463 178.6  67.2  34222  290.62 0854.34
2009/04/23 15:14:02.7    -181   -452    360    488    606 201.8  40.0  34204  290.32 0854.34
2009/04/23 15:14:02.8    -135   -305    441    334    553 203.9  59.3  34210  290.42 0854.34
2009/04/23 15:14:02.9     -58    -58    304     83    315 225.0  84.7  34212  290.44 0854.34
2009/04/23 15:14:03.0     -79   -256    319    268    416 197.2  56.0  34208  290.37 0854.34
2009/04/23 15:14:03.1    -371   -345    221    507    553 227.1  25.1  34232  290.79 0854.34
2009/04/23 15:14:03.2    -317   -466    175    564    591 214.2  17.3  34212  290.44 0854.34
2009/04/23 15:14:03.3    -159   -360    428    394    581 203.8  52.7  34192  290.13 0854.34
2009/04/23 15:14:03.4    -142   -297    348    330    479 205.6  51.6  34214  290.50 0854.34
2009/04/23 15:14:03.5    -377   -495    228    623    663 217.3  21.0  34234  290.84 0854.34
2009/04/23 15:14:03.6    -322   -426    212    535    575 217.1  22.9  34252  291.13 0854.34
2009/04/23 15:14:03.7    -131   -127    263    183    320 226.0  62.0  34272  291.48 0854.34
2009/04/23 15:14:03.8    -614   -247    161    663    683 248.1  13.7  34216  290.53 0854.34
2009/04/23 15:14:03.9    -178   -289    370    340    502 211.6  52.7  34222  290.63 0854.34
2009/04/23 15:14:04.0    -230   -207    112    310    330 228.0  19.9  34250  291.09 0854.34
2009/04/23 15:14:04.1    -392   -153    -23    422    423 248.6  -3.1  34264  291.33 0854.37
2009/04/23 15:14:04.2    -443    -37    -58    445    449 265.2  -7.5  34256  291.21 0854.37
2009/04/23 15:14:04.3    -466     34     -5    468    469 274.3  -0.7  34236  290.86 0854.37
2009/04/23 15:14:04.4    -584     44     46    586    588 274.4   4.6  34202  290.29 0854.37
2009/04/23 15:14:04.5    -628     34      9    630    631 273.1   0.9  34208  290.40 0854.37
2009/04/23 15:14:04.6    -698    -83     38    703    705 263.2   3.1  34208  290.40 0854.37
2009/04/23 15:14:04.7    -709   -116    -11    719    720 260.7  -0.9  34204  290.32 0854.37
2009/04/23 15:14:04.8    -724     83   -279    729    780 276.6 -26.4  34204  290.31 0854.37
2009/04/23 15:14:04.9    -705   -238   -189    745    769 251.3 -14.3  34164  289.65 0854.37
2009/04/23 15:14:05.0    -769    -16   -297    770    825 268.8 -26.6  34188  290.06 0854.37
2009/04/23 15:14:05.1    -617    -77   -212    622    658 262.8 -18.8  34170  289.74 0854.37
2009/04/23 15:14:05.2    -481   -117    -19    495    496 256.3  -2.2  34202  290.29 0854.37
2009/04/23 15:14:05.3    -550   -302     13    628    629 241.2   1.2  34220  290.60 0854.37
2009/04/23 15:14:05.4    -560   -238   -193    609    638 247.0 -22.6  34170  289.74 0854.37
2009/04/23 15:14:05.5    -382    -99     62    395    400 255.4   9.0  34178  289.87 0854.37
2009/04/23 15:14:05.6    -566    -42    -11    568    569 265.7  -1.1  34192  290.13 0854.37
2009/04/23 15:14:05.7    -591     27   -108    592    602 272.7 -10.4  34186  290.00 0854.37
2009/04/23 15:14:05.8    -673     -7    -93    674    681 269.4  -7.9  34204  290.33 0854.37
2009/04/23 15:14:05.9    -534   -123    -91    549    557 257.0  -9.5  34210  290.41 0854.37
2009/04/23 15:14:06.0    -608    -51    -63    611    615 265.1  -5.9  34190  290.07 0854.37
2009/04/23 15:14:06.1    -785     20     13    786    787 271.5   1.0  34200  290.25 0854.40
2009/04/23 15:14:06.2    -688   -147    -24    704    705 257.9  -2.0  34192  290.10 0854.40
2009/04/23 15:14:06.3    -644    -97   -103    652    661 261.4  -9.0  34188  290.04 0854.40
2009/04/23 15:14:06.4    -551    -37   -112    553    565 266.1 -11.5  34202  290.28 0854.40
2009/04/23 15:14:06.5    -681    178     72    704    708 284.7   5.9  34212  290.47 0854.40
2009/04/23 15:14:06.6    -527     81    -20    534    535 278.8  -2.2  34194  290.14 0854.40
2009/04/23 15:14:06.7    -569    182   -108    598    608 287.8 -10.3  34200  290.25 0854.40
2009/04/23 15:14:06.8    -486    211      6    530    531 293.5   0.7  34202  290.28 0854.40
2009/04/23 15:14:06.9    -586    197    -24    619    620 288.6  -2.2  34194  290.15 0854.40
2009/04/23 15:14:07.0    -473    285     -2    553    554 301.1  -0.2  34196  290.19 0854.40
2009/04/23 15:14:07.1    -462    224   -122    514    529 295.9 -13.4  34180  289.92 0854.40
2009/04/23 15:14:07.2    -387    200   -143    436    459 297.4 -18.2  34164  289.63 0854.40
2009/04/23 15:14:07.3    -422    168    -77    455    462 291.7  -9.6  34174  289.82 0854.40
2009/04/23 15:14:07.4    -342    204    -31    399    401 300.8  -4.6  34192  290.10 0854.40
2009/04/23 15:14:07.5    -422    256   -114    494    508 301.3 -13.0  34174  289.81 0854.40
2009/04/23 15:14:07.6    -466    360   -176    589    615 307.7 -16.6  34144  289.29 0854.40
2009/04/23 15:14:07.7    -449    340    -22    564    565 307.1  -2.2  34162  289.62 0854.40
2009/04/23 15:14:07.8    -438    320    -10    543    544 306.2  -1.2  34170  289.75 0854.40
2009/04/23 15:14:07.9    -561    233     -5    608    609 292.6  -0.5  34180  289.90 0854.40
2009/04/23 15:14:08.0    -640    134   -194    655    684 281.9 -16.5  34144  289.31 0854.42
2009/04/23 15:14:08.1    -474    127    -16    491    492 285.1  -1.9  34176  289.84 0854.42
2009/04/23 15:14:08.2    -573    -17   -102    574    584 268.3 -10.1  34152  289.42 0854.42
2009/04/23 15:14:08.3    -366     98    -54    379    383 285.1  -8.1  34164  289.64 0854.42
2009/04/23 15:14:08.4    -256    209    -36    331    334 309.3  -6.3  34188  290.03 0854.42
2009/04/23 15:14:08.5    -457    255   -101    524    534 299.1 -11.0  34172  289.79 0854.42
2009/04/23 15:14:08.6    -397    110    -84    413    422 285.5 -11.5  34164  289.65 0854.42
2009/04/23 15:14:08.7    -343    218     35    407    409 302.4   5.0  34172  289.77 0854.42
2009/04/23 15:14:08.8    -349    327     11    479    480 313.1   1.4  34158  289.54 0854.42
2009/04/23 15:14:08.9    -227    251     75    339    348 317.9  12.6  34182  289.94 0854.42
2009/04/23 15:14:09.0    -274    249     73    371    379 312.3  11.1  34154  289.48 0854.42
2009/04/23 15:14:09.1    -274    275     -2    389    390 315.1  -0.4  34154  289.48 0854.42
2009/04/23 15:14:09.2    -331    295    -29    444    445 311.7  -3.8  34184  289.97 0854.42
2009/04/23 15:14:09.3    -294    361   -102    466    478 320.8 -12.4  34164  289.64 0854.42
2009/04/23 15:14:09.4    -223    354   -124    419    436 327.8 -21.4  34162  289.61 0854.42
2009/04/23 15:14:09.5    -332    269   -155    428    455 309.1 -25.3  34150  289.39 0854.42
2009/04/23 15:14:09.6    -274    160   -120    318    339 300.2 -26.0  34162  289.60 0854.42
2009/04/23 15:14:09.7    -311    247    -28    398    399 308.5  -4.1  34206  290.35 0854.42
2009/04/23 15:14:09.8    -283    139    -94    316    329 296.2 -21.6  34190  290.07 0854.42
2009/04/23 15:14:09.9    -255    232   -155    346    379 312.3 -30.1  34194  290.15 0854.42
2009/04/23 15:14:10.0    -357    137    -89    383    394 291.1 -13.2  34192  290.13 0854.46
2009/04/23 15:14:10.1    -207     27    117    209    239 277.5  31.6  34198  290.23 0854.46
2009/04/23 15:14:10.2    -173   -108    105    205    230 238.0  29.2  34214  290.48 0854.46
2009/04/23 15:14:10.3    -139   -120    119    184    219 229.1  35.7  34226  290.70 0854.46
2009/04/23 15:14:10.4     -31    -94     74    100    124 198.3  40.1  34214  290.48 0854.46
2009/04/23 15:14:10.5      56     -9     89     57    105  99.7  64.6  34220  290.58 0854.46
2009/04/23 15:14:10.6      50     63    136     81    158  38.7  66.8  34224  290.67 0854.46
2009/04/23 15:14:10.7     -52    120     61    132    145 336.4  26.6  34200  290.26 0854.46
2009/04/23 15:14:10.8     -86    137     65    162    174 327.9  22.8  34194  290.16 0854.46
2009/04/23 15:14:10.9     -93    183     74    206    218 332.9  20.7  34182  289.94 0854.46
2009/04/23 15:14:11.0     -17     54     69     57     89 342.2  56.4  34192  290.13 0854.46
2009/04/23 15:14:11.1      39     32    134     51    143  50.5  78.6  34206  290.35 0854.46
2009/04/23 15:14:11.2      52     17    143     55    153  71.6  78.2  34196  290.19 0854.46
2009/04/23 15:14:11.3     114     40    164    122    204  70.5  59.8  34186  290.01 0854.46
2009/04/23 15:14:11.4      56     30    120     64    136  61.1  69.8  34188  290.04 0854.46
2009/04/23 15:14:11.5      15      0     42     16     44  90.0  79.2  34190  290.08 0854.46
2009/04/23 15:14:11.6     -44    -95   -101    105    145 204.9 -53.4  34192  290.11 0854.46
2009/04/23 15:14:11.7      -1   -112     -6    113    114 180.9  -3.2  34194  290.14 0854.46
2009/04/23 15:14:11.8      17    -65    116     68    134 164.9  66.8  34210  290.43 0854.46
2009/04/23 15:14:11.9     -37    -78     74     87    114 205.4  44.8  34204  290.33 0854.46
2009/04/23 15:14:12.0     -32    -33     98     46    108 224.1  73.1  34208  290.38 0854.48
2009/04/23 15:14:12.1       3      2    101      4    101  57.6  90.0  34208  290.38 0854.48
2009/04/23 15:14:12.2     -17     52     44     55     70 341.5  43.7  34208  290.40 0854.48
2009/04/23 15:14:12.3     -60    109     18    125    127 331.0   8.5  34206  290.36 0854.48
2009/04/23 15:14:12.4     -50     89    -68    103    123 330.6 -40.4  34182  289.94 0854.48
2009/04/23 15:14:12.5     -57     57    -20     81     84 315.0 -13.9  34184  289.99 0854.48
2009/04/23 15:14:12.6       0     48     95     49    106 359.1  70.4  34202  290.28 0854.48
2009/04/23 15:14:12.7     -14    -22     88     27     92 212.6  82.3  34232  290.79 0854.48
2009/04/23 15:14:12.8     -43    -14     82     46     94 251.6  67.7  34230  290.75 0854.48
2009/04/23 15:14:12.9    -210   -110     65    238    247 242.2  15.3  34200  290.26 0854.48
2009/04/23 15:14:13.0    -218   -158     53    270    276 234.0  11.1  34184  289.97 0854.48
2009/04/23 15:14:13.1    -251   -186     29    313    315 233.4   5.4  34176  289.83 0854.48
2009/04/23 15:14:13.2    -266   -142     -1    302    303 241.8  -0.3  34166  289.68 0854.48
2009/04/23 15:14:13.3    -301   -166     11    344    345 241.1   1.9  34172  289.76 0854.48
2009/04/23 15:14:13.4    -316   -185    -98    367    380 239.6 -15.0  34182  289.93 0854.48
2009/04/23 15:14:13.5    -143   -242    -36    282    285 210.5  -7.3  34178  289.86 0854.48
2009/04/23 15:14:13.6    -116   -255    -35    281    284 204.5  -7.2  34176  289.85 0854.48
2009/04/23 15:14:13.7    -124   -213   -126    247    277 210.3 -33.6  34162  289.59 0854.48
2009/04/23 15:14:13.8    -182   -145   -139    233    271 231.4 -38.4  34162  289.61 0854.48
2009/04/23 15:14:13.9    -297   -101   -189    314    366 251.2 -38.2  34164  289.65 0854.48
2009/04/23 15:14:14.0    -345    -57   -280    350    448 260.6 -47.2  34158  289.55 0854.50
2009/04/23 15:14:14.1    -424    -58   -294    428    519 262.1 -42.2  34166  289.67 0854.50
2009/04/23 15:14:14.2    -439    -29   -304    440    534 266.1 -42.4  34162  289.62 0854.50
2009/04/23 15:14:14.3    -435    102   -167    447    477 283.3 -25.9  34166  289.69 0854.50
2009/04/23 15:14:14.4    -406    171   -177    441    475 292.8 -27.5  34170  289.73 0854.50
2009/04/23 15:14:14.5    -334    111   -263    353    440 288.4 -45.0  34180  289.90 0854.50
2009/04/23 15:14:14.6    -195     21   -218    197    293 276.4 -57.7  34190  290.09 0854.50
2009/04/23 15:14:14.7    -204    113   -118    234    262 298.9 -33.5  34186  290.00 0854.50
2009/04/23 15:14:14.8    -189    138   -116    235    262 306.2 -32.6  34186  290.02 0854.50
2009/04/23 15:14:14.9    -200    201   -101    284    302 315.2 -19.7  34190  290.07 0854.50
2009/04/23 15:14:15.0    -352     18   -118    353    372 273.0 -23.6  34196  290.18 0854.50
2009/04/23 15:14:15.1    -330    231     58    404    409 305.0   8.2  34192  290.12 0854.50
2009/04/23 15:14:15.2    -440     23     78    441    449 273.0  10.1  34200  290.26 0854.50
2009/04/23 15:14:15.3    -599    -84   -301    606    676 262.0 -32.9  34164  289.64 0854.50
2009/04/23 15:14:15.4    -646    -10   -186    647    673 269.1 -20.8  34186  290.00 0854.50
2009/04/23 15:14:15.5    -593      3   -266    594    650 270.4 -30.2  34174  289.82 0854.50
2009/04/23 15:14:15.6    -492     45   -329    495    594 275.3 -41.1  34178  289.87 0854.50
2009/04/23 15:14:15.7    -413      0   -282    414    500 270.0 -42.0  34174  289.81 0854.50
2009/04/23 15:14:15.8    -507     -7   -247    508    564 269.1 -32.2  34174  289.80 0854.50
2009/04/23 15:14:15.9    -665     -4   -255    666    713 269.6 -26.4  34182  289.93 0854.50
2009/04/23 15:14:16.0    -406     80   -344    414    538 281.2 -48.2  34172  289.78 0854.49
2009/04/23 15:14:16.1    -328     32   -291    330    439 275.7 -50.2  34184  289.97 0854.49
2009/04/23 15:14:16.2    -372     85   -124    382    401 282.9 -23.2  34194  290.16 0854.49
2009/04/23 15:14:16.3    -135     25   -202    138    244 280.6 -67.0  34190  290.09 0854.49
2009/04/23 15:14:16.4    -107     41   -186    115    218 291.3 -69.8  34186  290.01 0854.49
2009/04/23 15:14:16.5     -26    -35   -149     44    155 217.0 -87.2  34192  290.11 0854.49
2009/04/23 15:14:16.6      23     21    -78     32     84  46.9 -81.5  34204  290.31 0854.49
2009/04/23 15:14:16.7     122   -101    -82    159    178 129.6 -33.9  34200  290.26 0854.49
2009/04/23 15:14:16.8     164    -64   -134    177    222 111.5 -45.1  34192  290.11 0854.49
2009/04/23 15:14:16.9     260    -71   -148    270    307 105.3 -35.7  34194  290.15 0854.49
2009/04/23 15:14:17.0     453    -98    -85    464    472 102.3 -10.4  34182  289.95 0854.48
2009/04/23 15:14:17.1     361     54   -238    366    436  81.5 -40.6  34200  290.24 0854.48
2009/04/23 15:14:17.2     321    -76   -117    330    350 103.4 -24.5  34182  289.94 0854.48
2009/04/23 15:14:17.3     396    -47    -73    399    406  96.9 -10.4  34184  289.99 0854.48
2009/04/23 15:14:17.4     314     33    -69    316    324  83.9 -12.4  34182  289.95 0854.48
2009/04/23 15:14:17.5     211    -46     31    217    220 102.4   8.2  34184  289.97 0854.48
2009/04/23 15:14:17.6     125     -9     59    126    139  94.3  27.1  34188  290.04 0854.48
2009/04/23 15:14:17.7     -22    -94     90     97    132 193.4  47.9  34188  290.06 0854.48
2009/04/23 15:14:17.8    -113    -30    -14    117    118 255.0  -7.2  34196  290.18 0854.48
2009/04/23 15:14:17.9    -114    -63    -77    131    151 241.2 -37.9  34190  290.08 0854.48
2009/04/23 15:14:18.0      34   -131    -72    136    153 165.3 -34.7  34188  290.06 0854.48
2009/04/23 15:14:18.1      27   -181    -58    184    194 171.5 -17.6  34184  289.97 0854.48
2009/04/23 15:14:18.2      30   -143    -13    147    148 168.0  -5.2  34190  290.09 0854.48
2009/04/23 15:14:18.3      25   -168     54    170    179 171.3  17.7  34190  290.09 0854.48
2009/04/23 15:14:18.4      10   -387     69    388    395 178.4  10.1  34184  289.99 0854.48
2009/04/23 15:14:18.5      67   -423    150    429    454 171.0  20.0  34192  290.11 0854.48
2009/04/23 15:14:18.6      48   -441    121    444    461 173.7  15.3  34204  290.33 0854.48
2009/04/23 15:14:18.7     -26   -492     70    493    499 183.1   8.1  34202  290.29 0854.48
2009/04/23 15:14:18.8     -40   -476     99    478    489 184.9  11.8  34204  290.32 0854.48
2009/04/23 15:14:18.9     -81   -375     10    384    385 192.3   1.6  34204  290.32 0854.48
2009/04/23 15:14:19.0     118   -290    -86    314    326 157.9 -15.4  34194  290.14 0854.47
2009/04/23 15:14:19.1     -42   -357     42    360    363 186.8   6.8  34198  290.20 0854.47
2009/04/23 15:14:19.2     -57   -330     58    336    342 189.9   9.9  34208  290.38 0854.47
2009/04/23 15:14:19.3     -94   -348    -92    361    373 195.2 -14.3  34212  290.47 0854.47
2009/04/23 15:14:19.4     -66   -388    -35    394    396 189.8  -5.2  34236  290.86 0854.47
2009/04/23 15:14:19.5    -168   -376     10    412    413 204.1   1.5  34238  290.89 0854.47
2009/04/23 15:14:19.6    -259   -317     51    410    414 219.2   7.1  34242  290.95 0854.47
2009/04/23 15:14:19.7    -199   -293      6    355    356 214.3   1.0  34240  290.94 0854.47
2009/04/23 15:14:19.8    -119   -390     88    408    418 197.0  12.2  34194  290.14 0854.47
2009/04/23 15:14:19.9    -158   -324     23    361    362 206.0   3.8  34192  290.13 0854.47
2009/04/23 15:14:20.0    -356   -172    -45    396    399 244.1  -6.5  34182  289.94 0854.47
2009/04/23 15:14:20.1    -281   -146     24    317    318 242.5   4.3  34188  290.05 0854.47
2009/04/23 15:14:20.2     -95   -333    190    347    395 196.0  31.3  34192  290.11 0854.47
2009/04/23 15:14:20.3     -29   -293    127    295    321 185.8  24.8  34194  290.14 0854.47
2009/04/23 15:14:20.4    -101   -255     48    275    280 201.6   9.9  34206  290.36 0854.47
2009/04/23 15:14:20.5    -122   -239    -34    269    272 207.0  -7.2  34218  290.54 0854.47
2009/04/23 15:14:20.6    -121   -231    -11    261    262 207.6  -2.6  34210  290.42 0854.47
2009/04/23 15:14:20.7    -123   -237    -88    268    283 207.4 -18.3  34216  290.51 0854.47
2009/04/23 15:14:20.8    -188   -258   -147    320    352 216.1 -30.8  34192  290.10 0854.47
2009/04/23 15:14:20.9     -45   -213   -209    218    302 192.0 -53.4  34204  290.31 0854.47
2009/04/23 15:14:21.0     -96   -223   -116    243    269 203.4 -31.7  34188  290.05 0854.46
2009/04/23 15:14:21.1     -35   -458    -55    460    464 184.5  -6.9  34186  290.02 0854.46
2009/04/23 15:14:21.2     -23   -456    -78    457    464 183.0  -9.8  34196  290.17 0854.46
2009/04/23 15:14:21.3       0   -480   -110    481    494 180.0 -12.9  34202  290.30 0854.46
2009/04/23 15:14:21.4     -48   -443      6    446    447 186.2   0.8  34208  290.39 0854.46
2009/04/23 15:14:21.5      12   -412    -38    413    415 178.2  -5.4  34214  290.50 0854.46
2009/04/23 15:14:21.6      30   -369    -42    371    374 175.3  -6.6  34222  290.64 0854.46
2009/04/23 15:14:21.7      28   -376    -35    377    379 175.6  -5.3  34222  290.64 0854.46
2009/04/23 15:14:21.8      60   -404     12    409    410 171.5   1.7  34228  290.72 0854.46
2009/04/23 15:14:21.9      28   -404     12    405    406 176.0   1.8  34216  290.53 0854.46
2009/04/23 15:14:22.0      28   -369    -73    371    379 175.5 -11.2  34186  290.01 0854.46
2009/04/23 15:14:22.1     -19   -397   -109    398    413 182.8 -15.4  34184  289.99 0854.46
2009/04/23 15:14:22.2     -56   -404   -121    408    426 187.9 -16.5  34218  290.55 0854.46
2009/04/23 15:14:22.3     -85   -343    -40    354    357 194.0  -6.6  34218  290.57 0854.46
2009/04/23 15:14:22.4     -28   -392     -7    393    394 184.1  -1.2  34210  290.43 0854.46
2009/04/23 15:14:22.5     -33   -389     12    391    392 184.9   1.8  34202  290.30 0854.46
2009/04/23 15:14:22.6     -54   -382     -4    386    387 188.1  -0.7  34206  290.35 0854.46
2009/04/23 15:14:22.7     -40   -343      1    346    347 186.8   0.2  34204  290.32 0854.46
2009/04/23 15:14:22.8     -12   -255    138    256    290 182.7  30.8  34208  290.37 0854.46
2009/04/23 15:14:22.9      36   -287     76    290    300 172.7  14.7  34208  290.37 0854.46
2009/04/23 15:14:23.0      55   -297     82    303    314 169.4  15.2  34210  290.41 0854.46
2009/04/23 15:14:23.1     143   -348    101    377    391 157.6  15.0  34206  290.35 0854.46
2009/04/23 15:14:23.2     102   -329     74    345    353 162.7  12.2  34192  290.11 0854.46
2009/04/23 15:14:23.3      95   -287     55    303    308 161.5  10.3  34190  290.09 0854.46
2009/04/23 15:14:23.4     135   -283     71    314    322 154.5  12.8  34186  290.02 0854.46
2009/04/23 15:14:23.5      71   -272     66    282    290 165.3  13.2  34192  290.12 0854.46
2009/04/23 15:14:23.6      75   -221     98    234    253 161.1  23.8  34192  290.10 0854.46
2009/04/23 15:14:23.7      14   -301     91    302    316 177.3  16.8  34194  290.15 0854.46
2009/04/23 15:14:23.8      61   -318     30    324    326 169.1   5.4  34198  290.20 0854.46
2009/04/23 15:14:23.9      64   -324     49    331    335 168.8   8.5  34198  290.21 0854.46
2009/04/23 15:14:24.0      51   -284     85    289    302 169.8  16.4  34196  290.19 0854.46
2009/04/23 15:14:24.1      42   -253     91    257    273 170.4  19.6  34196  290.19 0854.46
2009/04/23 15:14:24.2      51   -255    105    261    281 168.5  23.0  34192  290.12 0854.46
2009/04/23 15:14:24.3     103   -258     83    279    292 158.2  16.6  34190  290.07 0854.46
2009/04/23 15:14:24.5      56   -267     43    274    278 168.0   9.0  34194  290.14 0854.46
2009/04/23 15:14:24.6      67   -362     20    369    370 169.4   3.2  34182  289.96 0854.46
2009/04/23 15:14:24.7      54   -336     -1    341    342 170.9  -0.3  34178  289.87 0854.46
2009/04/23 15:14:24.8     107   -329     14    346    347 162.0   2.4  34178  289.89 0854.46
2009/04/23 15:14:24.8      65   -319     16    326    327 168.4   2.9  34172  289.78 0854.46
2009/04/23 15:14:25.0     -13   -289     83    290    302 182.7  16.0  34174  289.80 0854.46
2009/04/23 15:14:25.1      26   -257     35    259    262 174.0   7.8  34178  289.88 0854.44
2009/04/23 15:14:25.2       0   -239     -9    240    241 179.9  -2.3  34182  289.95 0854.44
2009/04/23 15:14:25.3      15   -193     17    194    195 175.5   5.2  34176  289.85 0854.44
2009/04/23 15:14:25.4     -27   -190     68    192    203 188.2  20.2  34174  289.80 0854.44
2009/04/23 15:14:25.5     -27   -181     65    184    195 188.5  20.0  34178  289.87 0854.44
2009/04/23 15:14:25.6      11   -188     12    189    190 176.4   3.6  34178  289.89 0854.44
2009/04/23 15:14:25.7       3   -234     41    235    239 179.1  10.0  34176  289.85 0854.44
2009/04/23 15:14:25.8     -49   -173     35    181    185 196.0  11.0  34182  289.94 0854.44
2009/04/23 15:14:25.9       3   -194     30    195    198 179.1   9.0  34180  289.92 0854.44
2009/04/23 15:14:26.0     -14   -244     96    245    263 183.5  22.5  34180  289.92 0854.44
2009/04/23 15:14:26.1     -91   -243     91    260    276 200.7  19.4  34178  289.88 0854.44
2009/04/23 15:14:26.2    -129   -235     78    269    281 208.7  16.3  34182  289.93 0854.44
2009/04/23 15:14:26.3    -131   -221     88    258    273 210.7  18.9  34180  289.92 0854.44
2009/04/23 15:14:26.4    -127   -157     56    203    211 219.0  15.6  34182  289.96 0854.44
2009/04/23 15:14:26.5    -200   -192     45    278    282 226.2   9.3  34188  290.03 0854.44
2009/04/23 15:14:26.6    -229   -124     23    261    263 241.6   5.2  34176  289.85 0854.44
2009/04/23 15:14:26.7    -249    -80    -67    262    271 252.2 -14.5  34176  289.85 0854.44
2009/04/23 15:14:26.8    -248   -131     -3    281    282 242.0  -0.7  34184  289.97 0854.44
2009/04/23 15:14:26.9    -240   -158    -96    288    303 236.7 -23.6  34178  289.88 0854.44
2009/04/23 15:14:27.0    -278   -156    -21    319    320 240.7  -3.9  34184  289.97 0854.44
2009/04/23 15:14:27.1    -260   -159    -93    306    320 238.5 -17.0  34182  289.93 0854.41
2009/04/23 15:14:27.2    -206   -134    -86    247    261 236.9 -24.0  34184  289.97 0854.41
2009/04/23 15:14:27.3    -181   -159   -153    242    286 228.7 -39.9  34182  289.93 0854.41
2009/04/23 15:14:27.4    -168   -161    -87    234    249 226.2 -25.4  34178  289.88 0854.41
2009/04/23 15:14:27.5    -225    -80   -108    240    263 250.3 -30.6  34178  289.86 0854.41
2009/04/23 15:14:27.6    -201    -16   -121    202    235 265.4 -37.9  34178  289.89 0854.41
2009/04/23 15:14:27.7    -192    -68   -175    204    268 250.5 -49.2  34182  289.93 0854.41
2009/04/23 15:14:27.8    -181    -92   -178    204    270 242.9 -50.2  34188  290.03 0854.41
2009/04/23 15:14:27.9    -194    -86   -158    213    265 246.0 -44.8  34182  289.93 0854.41
2009/04/23 15:14:28.0    -210    -45   -134    215    253 257.8 -39.6  34178  289.86 0854.41
2009/04/23 15:14:28.1    -201    -21   -111    203    231 263.9 -35.7  34176  289.84 0854.41
2009/04/23 15:14:28.2    -124     -9   -113    125    168 265.7 -51.3  34180  289.91 0854.41
2009/04/23 15:14:28.3    -122    -21   -113    124    167 259.9 -51.5  34180  289.92 0854.41
2009/04/23 15:14:28.4     -74    -58   -112     95    146 231.8 -60.2  34186  290.02 0854.41
2009/04/23 15:14:28.5     -53   -122    -72    134    152 203.6 -35.2  34186  290.02 0854.41
2009/04/23 15:14:28.6     -34   -124    -47    129    137 195.6 -25.4  34186  290.01 0854.41
2009/04/23 15:14:28.7     -56   -121    -12    134    135 204.9  -5.2  34182  289.96 0854.41
2009/04/23 15:14:28.8    -111   -204    -12    233    234 208.5  -3.1  34192  290.10 0854.41
2009/04/23 15:14:28.9    -137   -146    -16    201    202 223.0  -4.6  34192  290.11 0854.41
2009/04/23 15:14:29.0     -72   -133     40    152    158 208.5  14.7  34194  290.16 0854.41
2009/04/23 15:14:29.1     -80   -182     70    199    211 203.7  19.4  34184  289.99 0854.42
2009/04/23 15:14:29.2    -104   -169     64    199    210 211.6  17.9  34184  289.97 0854.42
2009/04/23 15:14:29.3    -119   -223     49    253    258 208.1  11.1  34184  289.98 0854.42
2009/04/23 15:14:29.4    -148   -218    -14    264    265 214.2  -3.2  34186  290.02 0854.42
2009/04/23 15:14:29.5    -138   -164    -65    215    224 220.1 -21.8  34182  289.96 0854.42
2009/04/23 15:14:29.6     -80   -124    -57    148    158 213.0 -26.4  34184  289.99 0854.42
2009/04/23 15:14:29.7     -92   -233    -65    251    260 201.6 -14.5  34180  289.90 0854.42
2009/04/23 15:14:29.8    -125   -252    -78    282    293 206.5 -15.5  34184  289.97 0854.42
2009/04/23 15:14:29.9     -39   -213    -64    217    227 190.5 -16.6  34186  290.01 0854.42
2009/04/23 15:14:30.0     -16   -172    -53    173    180 185.3 -22.3  34184  289.99 0854.42
2009/04/23 15:14:30.1      32   -205    -26    208    210 170.9  -7.2  34182  289.96 0854.42
2009/04/23 15:14:30.2      98   -256      7    275    276 159.1   1.6  34184  289.98 0854.42
2009/04/23 15:14:30.3      87   -220     15    237    238 158.4   3.8  34184  289.98 0854.42
2009/04/23 15:14:30.4     111   -125    -48    168    175 138.6 -16.0  34184  289.97 0854.42
2009/04/23 15:14:30.5      86    -73    -81    113    139 130.4 -43.9  34184  289.99 0854.42
2009/04/23 15:14:30.6     143    -36    -65    148    161 104.2 -29.5  34182  289.96 0854.42
2009/04/23 15:14:30.7      64    -73    -60     98    114 138.6 -39.9  34188  290.06 0854.42
2009/04/23 15:14:30.8      51    -53    -20     74     77 135.8 -15.5  34188  290.06 0854.42
2009/04/23 15:14:30.9      35    -49    -11     61     63 144.8 -10.3  34190  290.09 0854.42
2009/04/23 15:14:31.0       2    -73    -57     74     93 178.2 -46.6  34188  290.04 0854.42
2009/04/23 15:14:31.1      -1   -122    -14    123    124 180.5  -6.7  34188  290.04 0854.44
2009/04/23 15:14:31.2     -54    -98    -11    113    114 209.0  -5.6  34188  290.04 0854.44
2009/04/23 15:14:31.3      32    -75     -8     82     83 156.4  -6.2  34186  290.01 0854.44
2009/04/23 15:14:31.4      28   -104    -61    108    124 164.9 -36.3  34192  290.13 0854.44
2009/04/23 15:14:31.5      23    -69    -52     73     89 161.3 -43.5  34188  290.06 0854.44
2009/04/23 15:14:31.6      32    -88    -36     94    100 160.0 -26.9  34192  290.11 0854.44
2009/04/23 15:14:31.7      20   -103    -13    105    106 168.9  -7.3  34190  290.08 0854.44
2009/04/23 15:14:31.8      29    -85     32     91     97 160.8  19.4  34192  290.13 0854.44
2009/04/23 15:14:31.9      61    -70     17     94     96 139.0  10.6  34190  290.09 0854.44
2009/04/23 15:14:32.0      84    -59     -5    103    104 125.1  -3.2  34190  290.08 0854.44
2009/04/23 15:14:32.1      98    -21     23    101    104 102.4  13.2  34194  290.14 0854.44
2009/04/23 15:14:32.2     156    -20    -19    158    160  97.5  -6.9  34192  290.13 0854.44
2009/04/23 15:14:32.3     296     60     19    302    303  78.5   3.6  34198  290.20 0854.44
2009/04/23 15:14:32.4     298     75     32    308    310  75.8   6.1  34194  290.14 0854.44
2009/04/23 15:14:32.5     260    143     51    297    302  61.2   9.9  34190  290.09 0854.44
2009/04/23 15:14:32.6     222    158     15    273    274  54.5   3.3  34196  290.17 0854.44
2009/04/23 15:14:32.7     242    -21    -67    243    253  95.0 -15.5  34190  290.07 0854.44
2009/04/23 15:14:32.8     178    -14    -54    179    187  94.6 -16.8  34184  289.99 0854.44
2009/04/23 15:14:32.9     198     52     -8    205    206  75.2  -2.2  34196  290.18 0854.44
2009/04/23 15:14:33.0     150     57     -3    161    162  68.9  -1.3  34198  290.21 0854.44
2009/04/23 15:14:33.1     170     67      2    183    184  68.3   0.8  34210  290.43 0854.46
2009/04/23 15:14:33.2     168     24    -20    170    172  81.6  -6.9  34234  290.82 0854.46
2009/04/23 15:14:33.3     119     -1     14    120    121  90.8   6.9  34242  290.98 0854.46
2009/04/23 15:14:33.4      57    -47     20     75     78 129.5  15.2  34246  291.03 0854.46
2009/04/23 15:14:33.5      73    -47     51     88    101 122.9  32.4  34248  291.06 0854.46
2009/04/23 15:14:33.6      86    -92     77    127    148 136.8  34.4  34242  290.96 0854.46
2009/04/23 15:14:33.7     111    -61     44    127    135 118.9  19.4  34228  290.72 0854.46
2009/04/23 15:14:33.8     111   -127     35    169    173 138.8  12.0  34236  290.86 0854.46
2009/04/23 15:14:33.9     173    -76     91    190    210 113.7  27.3  34258  291.25 0854.46
2009/04/23 15:14:34.0     152    -36    137    157    208 103.3  45.8  34260  291.28 0854.46
2009/04/23 15:14:34.1     107    -94    151    143    207 131.3  51.6  34258  291.25 0854.46
2009/04/23 15:14:34.2     144    -57    135    155    205 111.7  45.6  34250  291.09 0854.46
2009/04/23 15:14:34.3     148    -36    174    153    231 103.7  54.3  34274  291.50 0854.46
2009/04/23 15:14:34.4      88    -51    128    102    163 120.2  57.5  34270  291.45 0854.46
2009/04/23 15:14:34.5      30     15     99     34    104  62.9  81.2  34272  291.47 0854.46
2009/04/23 15:14:34.6     -26    -28     80     39     89 223.4  72.8  34262  291.30 0854.46
2009/04/23 15:14:34.7       1   -118    114    119    164 179.5  49.2  34252  291.13 0854.46
2009/04/23 15:14:34.8      26    -80    101     85    132 162.2  55.8  34258  291.25 0854.46
2009/04/23 15:14:34.9      15   -127     71    128    146 172.9  31.4  34252  291.13 0854.46
2009/04/23 15:14:35.0       5   -163     61    164    174 178.0  20.7  34248  291.08 0854.46
2009/04/23 15:14:35.1    -111   -131     62    173    183 220.3  20.2  34258  291.23 0854.51
2009/04/23 15:14:35.2    -107   -164     80    197    212 213.2  23.1  34256  291.20 0854.51
2009/04/23 15:14:35.3     -90   -224     21    242    243 201.9   5.2  34236  290.85 0854.51
2009/04/23 15:14:35.4     -68   -193    -13    205    206 199.4  -3.7  34232  290.81 0854.51
2009/04/23 15:14:35.5     -62   -185    -27    196    198 198.7  -8.0  34240  290.92 0854.51
2009/04/23 15:14:35.6     -90   -179     -7    201    202 206.7  -2.2  34238  290.91 0854.51
2009/04/23 15:14:35.7     -64   -172     -5    184    185 200.5  -1.6  34252  291.15 0854.51
2009/04/23 15:14:35.8     -61    -96    -31    114    119 212.5 -15.5  34264  291.33 0854.51
2009/04/23 15:14:35.9     -66    -95      1    116    117 214.7   0.8  34264  291.35 0854.51
2009/04/23 15:14:36.0     -50    -94     17    107    109 208.1   9.0  34264  291.33 0854.51
2009/04/23 15:14:36.1     -36   -107     22    113    116 198.7  11.1  34264  291.35 0854.51
2009/04/23 15:14:36.2     -26    -96     35    100    107 195.2  19.4  34268  291.40 0854.51
2009/04/23 15:14:36.3     -42   -113     62    121    135 200.5  29.2  34268  291.42 0854.51
2009/04/23 15:14:36.4     -72   -122     75    142    160 210.7  30.1  34252  291.15 0854.51
2009/04/23 15:14:36.5     -46    -97     98    108    145 205.3  47.9  34244  290.99 0854.51
2009/04/23 15:14:36.6      -3    -66    106     67    125 182.7  64.7  34254  291.16 0854.51
2009/04/23 15:14:36.7      -7    -59     87     60    105 187.1  62.6  34254  291.16 0854.51
2009/04/23 15:14:36.8     -32    -88     77     94    121 200.5  43.7  34236  290.86 0854.51
2009/04/23 15:14:36.9     -14    -91     88     93    128 188.9  48.5  34234  290.84 0854.51
2009/04/23 15:14:37.0       3    -86    106     87    137 177.8  56.4  34252  291.15 0854.51
2009/04/23 15:14:37.1       0    -92     99     93    135 180.4  51.6  34224  290.67 0854.51
2009/04/23 15:14:37.2     -12   -123    110    124    165 185.8  46.4  34198  290.23 0854.51
2009/04/23 15:14:37.3     -10   -130    126    131    181 184.4  49.0  34212  290.47 0854.51
2009/04/23 15:14:37.4     -13   -105    123    106    162 187.1  54.8  34230  290.77 0854.51
2009/04/23 15:14:37.5     -40   -113    128    120    175 199.6  52.1  34268  291.40 0854.51
2009/04/23 15:14:37.6     -41   -103    123    112    166 201.8  53.0  34256  291.20 0854.51
2009/04/23 15:14:37.7     -29    -92    125     97    158 197.8  58.5  34252  291.13 0854.51
2009/04/23 15:14:37.8     -10   -100    118    101    155 186.2  55.4  34254  291.18 0854.51
2009/04/23 15:14:37.9      38    -52     65     65     91 144.0  50.1  34266  291.37 0854.51
2009/04/23 15:14:38.0      47   -103     86    114    142 155.5  40.7  34244  291.01 0854.42
2009/04/23 15:14:38.1     112    -62     93    129    159 118.9  39.3  34254  291.18 0854.42
2009/04/23 15:14:38.2     122    -32    105    127    164 105.0  44.1  34246  291.04 0854.42
2009/04/23 15:14:38.3      73    -46     63     87    107 122.0  39.7  34254  291.16 0854.42
2009/04/23 15:14:38.4      12    -59     56     61     82 168.5  47.9  34252  291.15 0854.42
2009/04/23 15:14:38.5       3    -48     62     49     79 175.5  57.5  34254  291.18 0854.42
2009/04/23 15:14:38.6     -44    -44     66     63     91 225.0  51.2  34244  290.99 0854.42
2009/04/23 15:14:38.7      31     -6     65     32     72 101.5  72.8  34256  291.21 0854.42
2009/04/23 15:14:38.8      12    -63     94     65    114 168.5  62.6  34258  291.23 0854.42
2009/04/23 15:14:38.9     -49    -85    107     99    145 209.9  52.2  34258  291.25 0854.42
2009/04/23 15:14:39.0     -43    -84    113     95    147 207.2  56.3  34264  291.35 0854.42
2009/04/23 15:14:39.1    -127    -67      7    144    145 242.0   2.8  34264  291.35 0854.42
2009/04/23 15:14:39.2    -133   -103     21    169    171 232.2   7.2  34272  291.49 0854.42
2009/04/23 15:14:39.3    -112   -116     57    162    172 223.9  19.6  34264  291.35 0854.42
2009/04/23 15:14:39.4    -104    -75     25    129    132 234.0  11.1  34270  291.43 0854.42
2009/04/23 15:14:39.5    -156    -61     32    168    172 248.7  10.8  34324  292.35 0854.42
2009/04/23 15:14:39.6    -179    -92     17    202    203 242.9   4.9  34330  292.47 0854.42
2009/04/23 15:14:39.7    -163   -118     62    202    212 234.0  17.1  34324  292.35 0854.42
2009/04/23 15:14:39.8    -127    -81     41    151    157 237.5  15.3  34334  292.52 0854.42
2009/04/23 15:14:39.9     -87    -63     -2    108    109 234.0  -1.3  34340  292.63 0854.42
2009/04/23 15:14:40.0     -39    -78     50     88    101 206.7  31.9  34354  292.88 0854.43
2009/04/23 15:14:40.1     -22    -29     80     37     88 217.8  74.0  34350  292.80 0854.43
2009/04/23 15:14:40.2     -18    -68     79     71    106 195.1  52.7  34334  292.52 0854.43
2009/04/23 15:14:40.3     -15     -4     65     16     66 254.9  85.9  34352  292.85 0854.43
2009/04/23 15:14:40.4      -3     33     64     34     72 353.8  69.8  34352  292.83 0854.43
2009/04/23 15:14:40.5     -38     12     68     40     78 288.2  66.8  34338  292.61 0854.43
2009/04/23 15:14:40.6     -58    -11     45     60     75 258.6  39.7  34338  292.59 0854.43
2009/04/23 15:14:40.7     -22    -25     69     34     76 221.4  72.8  34336  292.58 0854.43
2009/04/23 15:14:40.8     -30     17     68     35     76 300.7  70.8  34344  292.71 0854.43
2009/04/23 15:14:40.9     -88    -13     61     90    108 261.2  37.0  34336  292.56 0854.43
2009/04/23 15:14:41.0    -113    -23     63    116    132 258.6  30.8  34332  292.51 0854.43
2009/04/23 15:14:41.1    -107    -68     43    127    135 237.6  18.9  34338  292.59 0854.43
2009/04/23 15:14:41.2     -90    -57     29    107    111 237.6  15.3  34336  292.58 0854.43
2009/04/23 15:14:41.3     -76    -67     35    102    108 228.7  18.9  34342  292.68 0854.43
2009/04/23 15:14:41.4     -29   -113     57    117    130 194.7  27.3  34358  292.93 0854.43
2009/04/23 15:14:41.5    -102    -58    103    118    156 240.2  45.8  34372  293.17 0854.43
2009/04/23 15:14:41.6     -95      1     82     96    126 270.8  45.4  34350  292.81 0854.43
2009/04/23 15:14:41.7    -145     39     79    151    170 285.0  29.8  34326  292.40 0854.43
2009/04/23 15:14:41.8    -178     13     -3    179    180 274.4  -1.1  34264  291.35 0854.43
2009/04/23 15:14:41.9    -158     36     20    163    165 282.8   7.2  34268  291.42 0854.43
2009/04/23 15:14:42.0    -141     52     35    151    156 290.4  13.1  34284  291.69 0854.42
2009/04/23 15:14:42.1     -63     26     94     69    116 292.6  60.5  34306  292.06 0854.42
2009/04/23 15:14:42.2     -33    -84    131     91    159 201.8  61.8  34332  292.51 0854.42
2009/04/23 15:14:42.3     -58    -95    165    112    199 211.2  62.6  34350  292.80 0854.42
2009/04/23 15:14:42.4     -60   -118    174    133    219 207.2  58.7  34290  291.79 0854.42
2009/04/23 15:14:42.5      -8   -216    114    217    245 182.2  29.8  34246  291.02 0854.42
2009/04/23 15:14:42.6      43   -241     85    245    260 169.8  19.2  34232  290.80 0854.42
2009/04/23 15:14:42.7      57   -261     17    268    269 167.5   3.8  34260  291.26 0854.42
2009/04/23 15:14:42.8     164   -179     12    244    245 137.5   2.9  34216  290.53 0854.42
2009/04/23 15:14:42.9      27   -175     61    178    189 171.1  18.9  34218  290.55 0854.42
2009/04/23 15:14:43.0     -12   -260     36    261    264 182.7   8.0  34222  290.63 0854.42
2009/04/23 15:14:43.1      30   -239     93    241    258 172.7  22.1  34222  290.61 0854.42
2009/04/23 15:14:43.2       4   -249    107    250    271 178.9  24.3  34218  290.54 0854.42
2009/04/23 15:14:43.3      14   -320    180    321    368 177.4  31.7  34224  290.66 0854.42
2009/04/23 15:14:43.4     -17   -262    298    263    397 183.8  54.2  34226  290.69 0854.42
2009/04/23 15:14:43.5    -140   -344    125    372    393 202.2  18.6  34212  290.47 0854.42
2009/04/23 15:14:43.6    -188   -342    142    391    415 208.8  20.8  34206  290.34 0854.42
2009/04/23 15:14:43.7    -167   -263    143    312    343 212.5  26.5  34212  290.45 0854.42
2009/04/23 15:14:43.8     -77   -176     90    193    212 203.6  27.0  34230  290.75 0854.42
2009/04/23 15:14:43.9     -57   -193    174    202    266 196.5  45.1  34222  290.63 0854.42
2009/04/23 15:14:44.0     -28   -260    201    262    330 186.3  41.4  34216  290.51 0854.38
2009/04/23 15:14:44.1     -43   -265    128    269    297 189.3  27.3  34206  290.36 0854.38
2009/04/23 15:14:44.2      75   -330    213    339    400 167.1  35.3  34210  290.43 0854.38
2009/04/23 15:14:44.3     146   -237    139    279    311 148.3  28.2  34210  290.42 0854.38
2009/04/23 15:14:44.4     183   -183    152    260    301 135.0  33.4  34226  290.70 0854.38
2009/04/23 15:14:44.5     192    -98    143    216    259 117.1  36.5  34238  290.90 0854.38
2009/04/23 15:14:44.6      86   -151    104    174    202 150.4  33.7  34210  290.41 0854.38
2009/04/23 15:14:44.7     120   -106     83    161    181 131.4  29.5  34212  290.45 0854.38
2009/04/23 15:14:44.8      98    -89     40    133    139 132.2  16.8  34210  290.43 0854.38
2009/04/23 15:14:44.9      49     -9      7     50     51 100.6   8.0  34212  290.45 0854.38
2009/04/23 15:14:45.0      37     24    -20     45     49  56.7 -28.5  34212  290.47 0854.38
2009/04/23 15:14:45.1      17     63     -2     66     67  15.1  -2.2  34222  290.64 0854.38
2009/04/23 15:14:45.2     -81     50    -21     96     99 302.0 -12.4  34216  290.53 0854.38
2009/04/23 15:14:45.3       0    107     50    108    119   0.5  27.1  34222  290.64 0854.38
2009/04/23 15:14:45.4     -27     97     45    101    110 344.0  26.2  34230  290.75 0854.38
2009/04/23 15:14:45.5    -101     19      1    103    104 281.0   0.8  34220  290.58 0854.38
2009/04/23 15:14:45.6    -136    -17     74    138    156 262.5  30.3  34230  290.75 0854.38
2009/04/23 15:14:45.7    -119     16     64    121    136 277.9  29.8  34226  290.70 0854.38
2009/04/23 15:14:45.8     -93     50     49    106    116 298.4  27.1  34230  290.75 0854.38
2009/04/23 15:14:45.9     -98     71     38    122    128 306.0  17.3  34228  290.74 0854.38
2009/04/23 15:14:46.0     -13     63     -8     65     66 348.4  -7.3  34232  290.79 0854.40
2009/04/23 15:14:46.1      42    -51    -18     67     70 140.4 -15.5  34236  290.87 0854.40
2009/04/23 15:14:46.2    -129    -26     87    132    158 258.6  36.5  34240  290.92 0854.40
2009/04/23 15:14:46.3    -218    -67     78    229    243 252.9  18.9  34248  291.05 0854.40
2009/04/23 15:14:46.4    -205    -41    116    210    239 258.6  31.4  34266  291.38 0854.40
2009/04/23 15:14:46.5    -167     55     56    177    186 288.4  17.7  34248  291.06 0854.40
2009/04/23 15:14:46.6    -236     -3    125    237    267 269.1  30.2  34268  291.39 0854.40
2009/04/23 15:14:46.7    -279    -16    113    280    301 266.7  23.0  34308  292.07 0854.40
2009/04/23 15:14:46.8    -267     -3     13    268    269 269.2   2.8  34282  291.63 0854.40
2009/04/23 15:14:46.9    -243    -45    -17    248    249 259.4  -4.1  34292  291.82 0854.40
2009/04/23 15:14:47.0    -121     14   -105    122    160 277.0 -49.8  34266  291.37 0854.40
2009/04/23 15:14:47.1     -62     45    -78     77    109 305.9 -54.1  34266  291.37 0854.40
2009/04/23 15:14:47.2    -106     47     -4    117    118 294.0  -2.2  34276  291.55 0854.40
2009/04/23 15:14:47.3     -45     95     27    106    110 334.5  14.7  34282  291.64 0854.40
2009/04/23 15:14:47.4     -78     93    -15    122    124 319.9  -7.3  34278  291.59 0854.40
2009/04/23 15:14:47.5     -82    139     15    162    163 329.3   5.4  34292  291.83 0854.40
2009/04/23 15:14:47.6     -94     60    -12    112    113 302.9  -6.2  34304  292.01 0854.40
2009/04/23 15:14:47.7     -30     65    -51     72     88 334.6 -43.0  34308  292.08 0854.40
2009/04/23 15:14:47.8      30     89     64     95    114  18.7  36.5  34320  292.29 0854.40
2009/04/23 15:14:47.9      80     61     85    101    132  52.7  44.3  34342  292.66 0854.40
2009/04/23 15:14:48.0      10     51    100     53    113  11.6  70.4  34354  292.86 0854.45
2009/04/23 15:14:48.1      17     18    107     25    109  43.4  87.5  34382  293.34 0854.45
2009/04/23 15:14:48.2     -37    -37     91     53    105 225.1  66.8  34372  293.19 0854.45
2009/04/23 15:14:48.3     -25    -24    132     35    136 226.7  84.9  34390  293.48 0854.45
2009/04/23 15:14:48.4      51     31    164     60    174  58.5  79.7  34364  293.04 0854.45
2009/04/23 15:14:48.5      44     44    138     63    151  45.0  73.5  34340  292.63 0854.45
2009/04/23 15:14:48.6      41     52     47     67     81  37.8  38.6  34300  291.96 0854.45
2009/04/23 15:14:48.7      72    -13    105     74    128 100.6  61.5  34300  291.96 0854.45
2009/04/23 15:14:48.8      58    -70     98     92    134 140.3  51.6  34286  291.71 0854.45
2009/04/23 15:14:48.9      18    -33     66     38     76 151.0  66.8  34304  292.01 0854.45
2009/04/23 15:14:49.0     -24      4     34     25     42 279.7  59.4  34318  292.25 0854.45
2009/04/23 15:14:49.1     -42      3     91     43    100 274.4  72.9  34332  292.49 0854.45
2009/04/23 15:14:49.2     -85    -14     55     87    102 260.3  35.5  34334  292.52 0854.45
2009/04/23 15:14:49.3      11     11     84     16     85  45.0  90.0  34300  291.95 0854.45
2009/04/23 15:14:49.4     -13    110     96    111    146 352.9  45.4  34286  291.71 0854.45
2009/04/23 15:14:49.5      -1     40     42     41     58 357.4  48.2  34292  291.81 0854.45
2009/04/23 15:14:49.6     -39     54     13     67     69 324.0  11.0  34306  292.06 0854.45
2009/04/23 15:14:49.7     -46     59     73     75    104 322.2  50.0  34318  292.25 0854.45
2009/04/23 15:14:49.8      -6   -167    159    168    231 182.2  48.2  34314  292.20 0854.45
2009/04/23 15:14:49.9      52    -96    122    110    164 151.5  53.3  34288  291.76 0854.45
2009/04/23 15:14:50.0      53     33    192     63    202  57.6  81.0  34292  291.81 0854.40
2009/04/23 15:14:50.1     -19    -72    131     75    150 195.1  67.7  34280  291.60 0854.40
2009/04/23 15:14:50.2       0    -90    111     91    143 180.4  56.4  34262  291.30 0854.40
2009/04/23 15:14:50.3      63    -52    116     82    142 129.5  60.6  34286  291.71 0854.40
2009/04/23 15:14:50.4      -3      3    151      5    151 313.3  90.0  34278  291.59 0854.40
2009/04/23 15:14:50.5       0    -10    145     11    145 182.7  90.0  34280  291.60 0854.40
2009/04/23 15:14:50.6     -25    -82    167     86    187 197.4  70.8  34278  291.59 0854.40
2009/04/23 15:14:50.7    -117   -203    259    235    349 209.9  53.2  34344  292.70 0854.40
2009/04/23 15:14:50.9    -129   -257    216    288    360 206.7  40.6  34362  293.00 0854.40
2009/04/23 15:14:50.9     -79   -230    222    244    329 198.9  47.0  34330  292.47 0854.40
2009/04/23 15:14:51.0    -235   -227    162    328    365 226.0  28.2  34336  292.56 0854.40
2009/04/23 15:14:51.2    -233   -147    168    276    323 237.6  34.3  34328  292.41 0854.40
2009/04/23 15:14:51.3    -216   -119    164    247    296 241.2  36.5  34300  291.94 0854.40
2009/04/23 15:14:51.4    -254   -132    169    287    333 242.5  33.1  34284  291.67 0854.40
2009/04/23 15:14:51.5    -119   -383     83    402    411 197.3  11.8  34244  291.01 0854.40
2009/04/23 15:14:51.6    -154   -403     38    432    434 200.9   5.1  34250  291.09 0854.40
2009/04/23 15:14:51.7     -40   -348     -9    351    352 186.7  -1.6  34258  291.25 0854.40
2009/04/23 15:14:51.8       0   -253    156    254    298 180.1  34.5  34292  291.82 0854.40
2009/04/23 15:14:51.9     -21   -164    194    166    255 187.3  55.3  34318  292.25 0854.40
2009/04/23 15:14:52.0    -100   -120    184    157    241 219.7  55.3  34318  292.25 0854.40
2009/04/23 15:14:52.1    -174   -134    162    220    273 232.3  39.9  34320  292.30 0854.36
2009/04/23 15:14:52.2    -139     -7    168    140    218 267.0  56.3  34324  292.37 0854.36
2009/04/23 15:14:52.3    -172   -114     70    207    219 236.3  18.9  34330  292.46 0854.36
2009/04/23 15:14:52.4    -171   -111    -78    205    219 236.9 -26.1  34310  292.12 0854.36
2009/04/23 15:14:52.5    -207   -227    -97    308    324 222.3 -17.5  34274  291.50 0854.36
2009/04/23 15:14:52.6    -162   -194     87    254    269 219.9  18.9  34270  291.43 0854.36
2009/04/23 15:14:52.7    -273    -79     60    285    292 253.8  12.0  34296  291.89 0854.36
2009/04/23 15:14:52.8    -276    -96     -9    293    294 250.7  -1.8  34284  291.68 0854.36
2009/04/23 15:14:52.9    -267   -154     -6    309    310 240.0  -1.1  34258  291.24 0854.36
2009/04/23 15:14:53.0    -279   -101    -11    297    298 250.1  -2.2  34272  291.48 0854.36
2009/04/23 15:14:53.1    -330    -73    -51    339    343 257.4  -8.6  34258  291.23 0854.36
2009/04/23 15:14:53.2    -319   -205     -7    380    381 237.2  -1.2  34258  291.23 0854.36
2009/04/23 15:14:53.3    -312   -154   -124    349    371 243.7 -19.7  34254  291.18 0854.36
2009/04/23 15:14:53.4    -135   -388   -107    411    425 199.2 -14.7  34234  290.84 0854.36
2009/04/23 15:14:53.5    -253   -419   -152    490    514 211.1 -17.3  34222  290.61 0854.36
2009/04/23 15:14:53.6    -234   -373   -127    441    458 212.1 -20.9  34226  290.70 0854.36
2009/04/23 15:14:53.7    -238   -253   -125    348    369 223.2 -24.8  34238  290.88 0854.36
2009/04/23 15:14:53.8    -156   -282   -121    323    344 208.9 -25.9  34252  291.15 0854.36
2009/04/23 15:14:53.9    -310   -221    -84    381    391 234.5 -12.5  34242  290.98 0854.36
2009/04/23 15:14:54.0    -278   -282    -93    397    408 224.6 -13.3  34272  291.46 0854.36
2009/04/23 15:14:54.1     -97   -293    -79    309    320 198.5 -14.4  34292  291.80 0854.34
2009/04/23 15:14:54.2     -86   -170   -101    191    216 207.0 -34.5  34304  292.01 0854.34
2009/04/23 15:14:54.3      10   -155     99    156    184 176.0  35.5  34294  291.84 0854.34
2009/04/23 15:14:54.4       0   -221    156    222    271 180.2  38.6  34300  291.96 0854.34
2009/04/23 15:14:54.5      29   -214     58    216    224 172.2  15.2  34232  290.79 0854.34
2009/04/23 15:14:54.6     -46   -165     -7    172    173 195.8  -2.6  34236  290.87 0854.34
2009/04/23 15:14:54.7     -70   -163     10    178    179 203.4   3.3  34252  291.15 0854.34
2009/04/23 15:14:54.8     -88   -183     92    204    223 205.6  25.9  34252  291.15 0854.34
2009/04/23 15:14:54.9     -21   -206     87    208    225 186.0  24.1  34270  291.45 0854.34
2009/04/23 15:14:55.0    -100   -121     55    158    168 219.6  19.4  34252  291.13 0854.34
2009/04/23 15:14:55.1     -81   -162     35    182    186 206.5  11.0  34242  290.96 0854.34
2009/04/23 15:14:55.2    -102   -197     52    222    229 207.4  13.2  34220  290.58 0854.34
2009/04/23 15:14:55.3     -71   -155     55    171    180 204.7  17.9  34230  290.77 0854.34
2009/04/23 15:14:55.4     -71   -104     41    127    134 214.3  17.9  34238  290.89 0854.34
2009/04/23 15:14:55.5     -78    -73     64    108    125 226.9  33.5  34246  291.03 0854.34
2009/04/23 15:14:55.6     -53    -73    109     91    141 216.1  56.3  34266  291.37 0854.34
2009/04/23 15:14:55.7     -43    -19     98     48    109 245.6  72.4  34302  291.98 0854.34
2009/04/23 15:14:55.8      77     -5     95     78    122  94.3  56.4  34308  292.08 0854.34
2009/04/23 15:14:55.9       1    -44    152     45    158 178.2  83.3  34304  292.03 0854.34
2009/04/23 15:14:56.0     -24    -40    126     47    134 211.6  79.2  34304  292.01 0854.34
2009/04/23 15:14:56.1      35    -27    133     45    140 127.8  81.2  34296  291.89 0854.35
2009/04/23 15:14:56.2      57   -214    106    222    246 164.9  27.3  34226  290.68 0854.35
2009/04/23 15:14:56.3      79   -311    116    321    341 165.7  20.6  34220  290.60 0854.35
2009/04/23 15:14:56.4     168   -305     79    349    358 151.2  12.8  34244  291.01 0854.35
2009/04/23 15:14:56.5     146   -243     38    284    287 149.0   7.8  34218  290.56 0854.35
2009/04/23 15:14:56.6      85   -234     28    250    252 160.0   6.5  34198  290.20 0854.35
2009/04/23 15:14:56.7      97   -231      0    251    252 157.1   0.0  34198  290.22 0854.35
2009/04/23 15:14:56.8     128   -292    -33    320    322 156.3  -5.9  34198  290.22 0854.35
2009/04/23 15:14:56.9      89   -241    -46    258    263 159.7 -10.3  34214  290.48 0854.35
2009/04/23 15:14:57.0     125   -196    -45    233    238 147.5 -11.1  34240  290.93 0854.35
2009/04/23 15:14:57.1     105   -176    -42    206    211 149.2 -11.5  34240  290.94 0854.35
2009/04/23 15:14:57.2     112   -135    -53    176    184 140.1 -16.8  34244  290.99 0854.35
2009/04/23 15:14:57.3      90   -151    -65    176    187 149.3 -25.4  34226  290.70 0854.35
2009/04/23 15:14:57.4      86   -161      2    183    184 151.7   0.8  34236  290.87 0854.35
2009/04/23 15:14:57.5     156    -48     -7    164    165 107.1  -2.6  34254  291.18 0854.35
2009/04/23 15:14:57.6     -12   -133     -5    134    135 185.3  -2.2  34218  290.57 0854.35
2009/04/23 15:14:57.7     -83   -148     30    170    173 209.4  10.1  34206  290.36 0854.35
2009/04/23 15:14:57.8     -52   -170    -24    178    180 197.2  -7.7  34198  290.23 0854.35
2009/04/23 15:14:57.9     -24   -118     57    121    133 191.6  27.2  34202  290.28 0854.35
2009/04/23 15:14:58.0      -1    -77     52     78     93 181.0  36.5  34210  290.41 0854.35
2009/04/23 15:14:58.1     -48   -152     35    160    164 197.6  12.6  34216  290.53 0854.38
2009/04/23 15:14:58.2     -31    -94     81     99    127 198.3  43.7  34212  290.45 0854.38
2009/04/23 15:14:58.3      73      0    125     74    145  90.0  66.8  34232  290.81 0854.38
2009/04/23 15:14:58.4      33      2    148     34    151  85.6  87.5  34234  290.84 0854.38
2009/04/23 15:14:58.5      92     22     96     95    135  76.3  49.7  34224  290.67 0854.38
2009/04/23 15:14:58.6      80     20     71     83    109  75.4  44.3  34228  290.74 0854.38
2009/04/23 15:14:58.7      23      0     77     24     80  90.8  82.3  34240  290.94 0854.38
2009/04/23 15:14:58.8      36     45     85     58    102  38.7  62.6  34236  290.86 0854.38
2009/04/23 15:14:58.9     -10     73    106     74    129 351.9  62.1  34234  290.82 0854.38
2009/04/23 15:14:59.0      55     18     98     58    113  71.6  66.2  34256  291.21 0854.38
2009/04/23 15:14:59.1      13     50     85     52     99  15.1  65.7  34272  291.49 0854.45
2009/04/23 15:14:59.2    -129     71     94    148    175 298.9  35.5  34248  291.08 0854.45
2009/04/23 15:14:59.3    -237     79    121    251    278 288.6  27.4  34234  290.82 0854.45
2009/04/23 15:14:59.4    -223    190    156    294    332 310.4  30.3  34248  291.05 0854.45
2009/04/23 15:14:59.5    -248     83    125    262    290 288.6  27.3  34234  290.82 0854.45
2009/04/23 15:14:59.6    -269     81    108    281    301 286.8  22.1  34230  290.75 0854.45
2009/04/23 15:14:59.7    -240      0    -68    241    250 269.9 -20.7  34228  290.71 0854.45
2009/04/23 15:14:59.8     -64   -238     84    247    262 195.2  18.9  34236  290.85 0854.45
2009/04/23 15:14:59.9     -99   -332    130    347    370 196.6  21.4  34246  291.03 0854.45
2009/04/23 15:15:00.0    -128   -271    224    300    374 205.3  40.4  34240  290.94 0854.45
2009/04/23 15:15:00.1       3   -220    169    221    278 179.1  41.4  34262  291.29 0854.45
2009/04/23 15:15:00.2      46    -77    247     90    262 149.3  79.2  34268  291.42 0854.45
2009/04/23 15:15:00.3     -40   -266    232    270    355 188.7  45.2  34228  290.74 0854.45
2009/04/23 15:15:00.4     -24   -262    181    264    320 185.3  37.7  34234  290.82 0854.45
2009/04/23 15:15:00.5     -36   -292    194    295    353 187.1  36.5  34232  290.81 0854.45
2009/04/23 15:15:00.6     -53   -318    184    323    371 189.6  32.1  34230  290.76 0854.45
2009/04/23 15:15:00.7     -52   -303    217    308    376 189.8  38.7  34266  291.37 0854.45
2009/04/23 15:15:00.8     -42   -251    157    255    299 189.6  34.8  34236  290.85 0854.45
2009/04/23 15:15:00.9      22   -110    122    113    166 168.4  52.5  34252  291.13 0854.45
2009/04/23 15:15:01.0     -10    -99    100    100    141 185.8  50.1  34272  291.49 0854.45
2009/04/23 15:15:01.1     -31   -181     84    184    202 190.0  26.2  34258  291.23 0854.47
2009/04/23 15:15:01.2     -63   -203     82    213    228 197.4  22.0  34242  290.98 0854.47
2009/04/23 15:15:01.3       8   -167     39    168    173 177.1  13.2  34242  290.96 0854.47
2009/04/23 15:15:01.4     -46   -165    -13    172    173 195.6  -4.6  34226  290.70 0854.47
2009/04/23 15:15:01.5     -53   -158     24    167    169 198.7   8.5  34236  290.86 0854.47
2009/04/23 15:15:01.6     -10   -140    152    141    207 184.5  52.2  34254  291.16 0854.47
2009/04/23 15:15:01.7     -51   -175    121    183    219 196.3  36.7  34232  290.81 0854.47
2009/04/23 15:15:01.8     -47   -160    152    167    225 196.5  47.1  34228  290.72 0854.47
2009/04/23 15:15:01.9      16   -183     75    184    198 174.9  23.1  34220  290.58 0854.47
2009/04/23 15:15:02.0      40   -224     80    228    241 169.8  20.0  34226  290.68 0854.47
2009/04/23 15:15:02.1      60   -331     92    337    350 169.7  15.4  34220  290.59 0854.47
2009/04/23 15:15:02.2      85   -303    115    315    335 164.2  21.0  34214  290.49 0854.47
2009/04/23 15:15:02.3      51   -333     50    337    341 171.3   8.5  34208  290.38 0854.47
2009/04/23 15:15:02.4     107   -295     56    315    321 160.0  10.2  34218  290.54 0854.47
2009/04/23 15:15:02.5     137   -273     29    306    308 153.3   5.4  34214  290.48 0854.47
2009/04/23 15:15:02.6     144   -259     22    297    298 151.0   4.4  34212  290.44 0854.47
2009/04/23 15:15:02.7     152   -340     87    373    384 155.9  13.2  34200  290.25 0854.47
2009/04/23 15:15:02.8     135   -336     38    363    366 158.1   6.1  34198  290.20 0854.47
2009/04/23 15:15:02.9      96   -332    163    346    382 163.9  27.1  34204  290.33 0854.47
2009/04/23 15:15:03.0      72   -317    165    326    365 167.1  29.1  34208  290.40 0854.46
2009/04/23 15:15:03.1      36   -262     92    265    281 172.0  19.2  34210  290.42 0854.46
2009/04/23 15:15:03.2      20   -268     84    269    282 175.6  17.4  34206  290.34 0854.46
2009/04/23 15:15:03.3      55   -245    155    252    295 167.3  34.5  34216  290.51 0854.46
2009/04/23 15:15:03.4     -37   -260     79    263    275 188.1  16.8  34212  290.46 0854.46
2009/04/23 15:15:03.5     -66   -293    222    301    374 192.7  40.0  34212  290.47 0854.46
2009/04/23 15:15:03.6     -70   -190    176    203    268 200.5  45.1  34210  290.42 0854.46
2009/04/23 15:15:03.7     -44   -154    121    161    201 196.0  40.9  34212  290.47 0854.46
2009/04/23 15:15:03.8     -84   -212     89    229    245 201.6  22.3  34210  290.41 0854.46
2009/04/23 15:15:03.9     -99   -286     24    303    305 199.2   4.6  34210  290.41 0854.46
2009/04/23 15:15:04.0     -18   -364    -12    365    366 182.9  -1.9  34216  290.52 0854.46
2009/04/23 15:15:04.1      11   -249     89    250    266 177.3  19.6  34218  290.56 0854.46
2009/04/23 15:15:04.2      66   -158    105    172    201 157.3  34.2  34214  290.50 0854.46
2009/04/23 15:15:04.3      58   -175    143    185    233 161.5  41.7  34216  290.53 0854.46
2009/04/23 15:15:04.4     -39   -170    121    175    212 193.1  37.8  34220  290.60 0854.46
2009/04/23 15:15:04.5     -83   -128    109    153    187 213.0  39.1  34220  290.60 0854.46
2009/04/23 15:15:04.6      67    -39    160     78    178 120.7  72.1  34224  290.65 0854.46
2009/04/23 15:15:04.7     -23    -28    162     37    166 219.6  87.5  34232  290.81 0854.46
2009/04/23 15:15:04.8      24    -66    180     71    193 160.0  77.6  34214  290.50 0854.46
2009/04/23 15:15:04.9     -16    -83    153     85    175 191.1  68.5  34220  290.60 0854.46
2009/04/23 15:15:05.0      12    -87     95     88    129 171.5  52.2  34216  290.52 0854.48
2009/04/23 15:15:05.1     -44    -44    117     63    132 225.0  68.9  34220  290.60 0854.48
2009/04/23 15:15:05.2      14    -82    111     84    139 169.8  59.4  34224  290.67 0854.48
2009/04/23 15:15:05.3       4    -55    107     56    120 175.6  70.8  34230  290.75 0854.48
2009/04/23 15:15:05.4       2   -146    148    147    208 179.0  50.1  34218  290.57 0854.48
2009/04/23 15:15:05.5      69   -240    188    250    312 164.0  40.8  34214  290.49 0854.48
2009/04/23 15:15:05.6      58   -203    192    212    286 164.0  46.9  34218  290.54 0854.48
2009/04/23 15:15:05.7      82   -174    187    193    268 154.8  49.2  34224  290.65 0854.48
2009/04/23 15:15:05.8      62   -180    136    191    234 160.8  38.8  34214  290.50 0854.48
2009/04/23 15:15:05.9      44   -167    117    173    208 165.1  37.4  34214  290.50 0854.48
2009/04/23 15:15:06.0       0    -83     56     84    100 180.0  37.0  34224  290.67 0854.48
2009/04/23 15:15:06.1      -7    -84     83     85    118 185.3  49.9  34230  290.75 0854.48
2009/04/23 15:15:06.2      17    -18     96     25     99 136.6  84.9  34224  290.65 0854.48
2009/04/23 15:15:06.3      23     58    111     63    127  21.8  68.3  34238  290.91 0854.48
2009/04/23 15:15:06.4      22     47    144     53    153  25.3  79.2  34236  290.86 0854.48
2009/04/23 15:15:06.5     106      3    120    107    160  88.3  53.7  34224  290.67 0854.48
2009/04/23 15:15:06.6      50     14     57     53     77  74.1  52.1  34226  290.70 0854.48
2009/04/23 15:15:06.7       6     14      9     16     18  25.4  31.4  34238  290.91 0854.48
2009/04/23 15:15:06.8      20     24    -10     32     33  39.7 -23.8  34228  290.74 0854.48
2009/04/23 15:15:06.9       7     23     16     25     29  18.5  35.5  34238  290.89 0854.48
2009/04/23 15:15:07.0      19     23     18     30     35  39.6  35.5  34236  290.86 0854.48
2009/04/23 15:15:07.1      35     26     24     44     50  53.1  31.4  34236  290.87 0854.48
2009/04/23 15:15:07.2      59     16     23     62     66  74.9  20.0  34230  290.77 0854.48
2009/04/23 15:15:07.3      50     32      7     60     61  57.5   7.1  34222  290.64 0854.48
2009/04/23 15:15:07.4      32     20     -6     38     39  57.5 -10.3  34224  290.65 0854.48
2009/04/23 15:15:07.5      29     18      0     35     36  57.6  -1.3  34224  290.67 0854.48
2009/04/23 15:15:07.6      -4     21      3     22     23 348.4   9.0  34224  290.67 0854.48
2009/04/23 15:15:07.7     -42      7    -12     43     44 279.7 -20.7  34232  290.79 0854.48
2009/04/23 15:15:07.8     -80     19    -27     83     88 283.3 -18.1  34234  290.82 0854.48
2009/04/23 15:15:07.9    -142     -9    -74    143    161 266.1 -33.9  34226  290.70 0854.48
2009/04/23 15:15:08.0    -161     36    -87    165    186 282.6 -34.5  34212  290.45 0854.48
2009/04/23 15:15:08.1     -82   -121     28    147    150 214.3  11.1  34214  290.50 0854.48
2009/04/23 15:15:08.2     -77   -240     78    253    265 197.8  17.3  34224  290.65 0854.48
2009/04/23 15:15:08.3     -58   -204     22    213    215 196.0   5.9  34226  290.70 0854.48
2009/04/23 15:15:08.4    -159   -231    -67    281    289 214.5 -13.4  34254  291.17 0854.48
2009/04/23 15:15:08.5    -100   -302     -1    319    320 198.3  -0.2  34214  290.49 0854.48
2009/04/23 15:15:08.6     -72   -358    -39    366    369 191.4  -6.1  34208  290.38 0854.48
2009/04/23 15:15:08.7     -32   -405      0    407    408 184.6   0.1  34210  290.41 0854.48
2009/04/23 15:15:08.8     -51   -330    -31    335    337 188.9  -5.3  34220  290.59 0854.48
2009/04/23 15:15:08.9     -80   -345    -69    355    362 193.2 -11.1  34218  290.57 0854.48
2009/04/23 15:15:09.0     -48   -337     36    341    343 188.2   6.1  34218  290.55 0854.48
2009/04/23 15:15:09.1     -62   -352    115    358    377 190.1  17.8  34210  290.42 0854.48
2009/04/23 15:15:09.2     -80   -288    134    300    328 195.6  25.8  34212  290.44 0854.48
2009/04/23 15:15:09.3     -81   -284    172    296    342 196.0  32.9  34210  290.41 0854.48
2009/04/23 15:15:09.4      58   -221    161    229    279 165.1  38.6  34206  290.36 0854.48
2009/04/23 15:15:09.5      70   -286     25    295    297 166.2   5.0  34206  290.36 0854.48
2009/04/23 15:15:09.6      79   -213     68    228    238 159.7  16.6  34206  290.36 0854.48
2009/04/23 15:15:09.7      17   -219     42    220    225 175.5  11.0  34202  290.28 0854.48
2009/04/23 15:15:09.8      28   -294     93    296    311 174.4  17.4  34204  290.32 0854.48
2009/04/23 15:15:09.9     102   -245      2    266    267 157.3   0.5  34204  290.32 0854.48
2009/04/23 15:15:10.0      81   -241    -24    255    257 161.3  -5.4  34210  290.41 0854.48
2009/04/23 15:15:10.1      50   -296     32    301    303 170.4   6.1  34204  290.32 0854.48
2009/04/23 15:15:10.2      38   -486     43    488    491 175.5   5.1  34206  290.34 0854.48
2009/04/23 15:15:10.3      12   -449    105    450    463 178.4  13.2  34204  290.31 0854.48
2009/04/23 15:15:10.4     -34   -435     43    437    440 184.5   5.7  34208  290.38 0854.48
2009/04/23 15:15:10.5      38   -419    103    421    434 174.8  13.8  34212  290.46 0854.48
2009/04/23 15:15:10.6    -160   -512     21    537    538 197.4   2.3  34210  290.43 0854.48
2009/04/23 15:15:10.7    -159   -406    125    437    455 201.4  16.0  34210  290.41 0854.48
2009/04/23 15:15:10.8     -99   -347    164    362    397 196.0  26.2  34208  290.37 0854.48
2009/04/23 15:15:10.9    -111   -315    195    335    387 199.4  32.9  34206  290.35 0854.48
2009/04/23 15:15:11.0    -156   -208    310    261    405 216.9  55.7  34210  290.43 0854.48
2009/04/23 15:15:11.1    -173   -433    210    467    512 201.8  25.8  34206  290.35 0854.48
2009/04/23 15:15:11.2      -5   -612    308    613    686 180.5  28.7  34198  290.21 0854.48
2009/04/23 15:15:11.3     -11   -573    155    574    595 181.2  15.2  34196  290.19 0854.48
2009/04/23 15:15:11.4      13   -443    156    444    471 178.2  19.4  34202  290.28 0854.48
2009/04/23 15:15:11.5      60   -389     -7    394    395 171.1  -1.1  34208  290.38 0854.48
2009/04/23 15:15:11.6     240   -270    173    362    401 138.3  27.3  34192  290.13 0854.48
2009/04/23 15:15:11.7     364   -316    239    483    538 131.0  28.2  34210  290.41 0854.48
2009/04/23 15:15:11.8     280   -310    148    418    444 137.9  19.5  34206  290.36 0854.48
2009/04/23 15:15:11.9     329   -232    109    403    418 125.2  15.2  34204  290.31 0854.48
2009/04/23 15:15:12.0     375   -352     29    515    516 133.1   3.3  34202  290.30 0854.48
2009/04/23 15:15:12.1     326   -341    -94    473    483 136.3 -11.3  34218  290.56 0854.48
2009/04/23 15:15:12.2     268   -249    -32    367    369 132.9  -5.1  34214  290.50 0854.48
2009/04/23 15:15:12.3     296   -302    -86    423    432 135.6 -11.5  34204  290.31 0854.48
2009/04/23 15:15:12.4     305   -271     -8    409    410 131.6  -1.2  34180  289.92 0854.48
2009/04/23 15:15:12.5     303   -313    -24    436    437 135.9  -3.2  34200  290.26 0854.48
2009/04/23 15:15:12.6     263   -353    -46    441    444 143.4  -6.0  34188  290.05 0854.48
2009/04/23 15:15:12.7     295   -271     28    401    402 132.6   4.0  34180  289.91 0854.48
2009/04/23 15:15:12.8     263   -373    113    457    471 144.8  13.9  34196  290.18 0854.48
2009/04/23 15:15:12.9     213   -385     -8    441    442 151.0  -1.2  34180  289.90 0854.48
2009/04/23 15:15:13.0     263   -343     49    433    436 142.5   6.6  34154  289.48 0854.48
2009/04/23 15:15:13.2     319   -320      5    452    453 135.1   0.7  34150  289.41 0854.48
2009/04/23 15:15:13.2     261   -320     39    414    416 140.8   5.5  34150  289.41 0854.48
2009/04/23 15:15:13.3     318   -316     84    449    457 134.9  10.6  34146  289.33 0854.48
2009/04/23 15:15:13.4     368   -242    164    441    470 123.3  21.5  34148  289.38 0854.48
2009/04/23 15:15:13.5     339   -254    211    424    473 126.9  28.4  34154  289.48 0854.48
2009/04/23 15:15:13.6     339   -281    231    441    497 129.7  29.9  34150  289.40 0854.48
2009/04/23 15:15:13.7     359   -314    269    478    548 131.2  31.9  34144  289.31 0854.48
2009/04/23 15:15:13.8     309   -388    227    497    546 141.5  26.2  34176  289.85 0854.48
2009/04/23 15:15:13.9     281   -309    187    418    457 137.7  25.7  34152  289.43 0854.48
2009/04/23 15:15:14.0     336   -283    137    440    461 130.1  17.3  34148  289.36 0854.48
2009/04/23 15:15:14.1     377   -307    179    487    518 129.1  21.0  34146  289.35 0854.48
2009/04/23 15:15:14.2     361   -261    132    446    466 125.9  16.5  34156  289.51 0854.48
2009/04/23 15:15:14.4     317   -340    127    466    484 137.0  15.3  34156  289.52 0854.48
2009/04/23 15:15:14.4     221   -323     46    392    395 145.5   6.7  34162  289.59 0854.48
2009/04/23 15:15:14.5     187   -241     44    306    310 142.1   8.2  34164  289.63 0854.48
2009/04/23 15:15:14.6      52   -144     53    154    164 159.9  19.2  34178  289.89 0854.48
2009/04/23 15:15:14.7     -28   -308    -12    310    311 185.3  -2.2  34190  290.07 0854.48
2009/04/23 15:15:14.8     -49   -353    131    357    380 187.9  21.0  34194  290.15 0854.48
2009/04/23 15:15:14.9      86   -376     70    386    393 167.0  10.3  34184  289.99 0854.48
2009/04/23 15:15:15.0      41   -200     47    205    211 168.4  13.1  34188  290.06 0854.41
2009/04/23 15:15:15.1      12   -150     93    151    177 175.1  34.8  34178  289.89 0854.41
2009/04/23 15:15:15.2       4   -177     72    178    192 178.6  23.1  34180  289.91 0854.41
2009/04/23 15:15:15.3      61   -186    156    196    250 161.7  42.7  34176  289.83 0854.41
2009/04/23 15:15:15.4       2   -183     43    184    189 179.1  13.2  34166  289.69 0854.41
2009/04/23 15:15:15.6    -128   -335    -19    359    360 200.9  -3.2  34152  289.42 0854.41
2009/04/23 15:15:15.6    -168   -342    -63    382    388 206.2  -9.5  34166  289.67 0854.41
2009/04/23 15:15:15.7    -120   -239   -125    268    295 206.7 -31.4  34160  289.56 0854.41
2009/04/23 15:15:15.8    -166   -200    -18    260    261 219.7  -4.1  34160  289.58 0854.41
2009/04/23 15:15:15.9    -175   -253     47    309    313 214.7   8.7  34178  289.88 0854.41
2009/04/23 15:15:16.0    -188   -285     56    342    347 213.4   9.3  34172  289.79 0854.41
2009/04/23 15:15:16.1     -30   -278    -77    280    291 186.3 -15.4  34162  289.61 0854.41
2009/04/23 15:15:16.2    -121   -276     26    302    304 203.7   5.0  34156  289.49 0854.41
2009/04/23 15:15:16.3    -161   -251    -22    299    300 212.6  -4.4  34174  289.80 0854.41
2009/04/23 15:15:16.4      16   -273     -1    274    275 176.6  -0.3  34166  289.66 0854.41
2009/04/23 15:15:16.5     -11   -142     73    143    160 184.5  29.3  34170  289.74 0854.41
2009/04/23 15:15:16.6    -137   -247    -25    283    285 209.0  -5.1  34168  289.71 0854.41
2009/04/23 15:15:16.8    -104   -286     43    305    309 200.1   8.1  34172  289.76 0854.41
2009/04/23 15:15:16.8     -50   -327    135    331    357 188.7  23.4  34174  289.81 0854.41
2009/04/23 15:15:16.9    -233   -243     69    338    346 223.8  11.6  34164  289.64 0854.41
2009/04/23 15:15:17.0    -507   -143   -299    527    605 254.2 -36.4  34176  289.83 0854.33
2009/04/23 15:15:17.1    -550   -111   -197    562    595 258.5 -24.4  34166  289.66 0854.33
2009/04/23 15:15:17.2    -421   -245   -164    488    515 239.8 -18.6  34170  289.73 0854.33
2009/04/23 15:15:17.3    -497   -211   -209    541    579 247.0 -26.6  34186  290.01 0854.33
2009/04/23 15:15:17.4    -675   -346   -271    759    807 242.8 -19.7  34180  289.90 0854.33
2009/04/23 15:15:17.5    -580   -357   -222    682    718 238.4 -18.1  34176  289.83 0854.33
2009/04/23 15:15:17.6    -600   -353   -164    697    717 239.5 -13.3  34188  290.05 0854.33
2009/04/23 15:15:17.7    -534   -482   -265    720    767 227.9 -25.4  34206  290.35 0854.33
2009/04/23 15:15:17.8    -622   -434   -290    759    812 235.1 -26.5  34204  290.32 0854.33
2009/04/23 15:15:17.9    -496   -494   -349    701    783 225.1 -32.9  34178  289.87 0854.33
2009/04/23 15:15:18.1    -459   -302   -247    550    602 236.6 -30.2  34212  290.46 0854.33
2009/04/23 15:15:18.1    -162   -441   -165    470    498 200.2 -24.4  34162  289.61 0854.33
2009/04/23 15:15:18.2    -242   -204   -154    317    352 229.8 -32.2  34162  289.59 0854.33
2009/04/23 15:15:18.3    -201   -214   -161    294    335 223.2 -35.7  34160  289.58 0854.33
2009/04/23 15:15:18.4     -78   -185    -68    201    212 202.9 -23.3  34176  289.85 0854.33
2009/04/23 15:15:18.6      86   -356   -108    367    383 166.4 -16.5  34180  289.91 0854.33
2009/04/23 15:15:18.7     114   -386     31    403    405 163.5   4.5  34174  289.82 0854.33
2009/04/23 15:15:18.8      86   -454    269    463    535 169.3  32.9  34164  289.64 0854.33
2009/04/23 15:15:18.9    -110   -262    221    285    360 202.7  41.7  34182  289.94 0854.33
2009/04/23 15:15:19.0     -49    -48    160     69    174 225.9  75.5  34204  290.31 0854.33
2009/04/23 15:15:19.1    -164   -430    -84    461    469 200.9 -10.4  34212  290.45 0854.29
2009/04/23 15:15:19.2     -24   -310   -106    312    329 184.5 -23.7  34234  290.83 0854.29
2009/04/23 15:15:19.3    -102   -345   -128    360    382 196.5 -24.7  34224  290.67 0854.29
2009/04/23 15:15:19.4     -43   -345   -192    348    397 187.2 -35.8  34198  290.21 0854.29
2009/04/23 15:15:19.5    -137   -421   -140    443    465 198.0 -17.6  34210  290.41 0854.29
2009/04/23 15:15:19.6     -18   -237   -146    238    279 184.5 -38.8  34208  290.37 0854.29
2009/04/23 15:15:19.7     -31    -81   -137     87    162 200.9 -69.1  34208  290.40 0854.29
2009/04/23 15:15:19.8     193   -122    -21    229    231 122.4  -5.4  34200  290.25 0854.29
2009/04/23 15:15:19.9     145   -214    116    259    283 145.7  25.9  34178  289.88 0854.29
2009/04/23 15:15:20.0     113   -370     74    388    396 163.0  10.8  34178  289.87 0854.29
2009/04/23 15:15:20.1     -85   -342    100    353    368 194.0  15.9  34196  290.18 0854.29
2009/04/23 15:15:20.2       8   -277    155    278    318 178.2  31.6  34196  290.17 0854.29
2009/04/23 15:15:20.3     -20   -519     92    520    529 182.3  10.1  34198  290.23 0854.29
2009/04/23 15:15:20.4      89   -633     93    640    647 172.0   8.3  34186  290.01 0854.29
2009/04/23 15:15:20.5     -90   -547     42    555    557 189.4   4.4  34188  290.06 0854.29
2009/04/23 15:15:20.6      53   -580     76    583    588 174.7   7.5  34194  290.14 0854.29
2009/04/23 15:15:20.7     -67   -482     -7    487    488 188.0  -0.9  34186  290.01 0854.29
2009/04/23 15:15:20.8    -252   -547    -53    603    606 204.7  -5.1  34180  289.91 0854.29
2009/04/23 15:15:20.9      -9   -535     94    536    545 181.0  10.0  34182  289.96 0854.29
2009/04/23 15:15:21.0     -42   -456     23    459    460 185.3   2.9  34186  290.00 0854.29
2009/04/23 15:15:21.1    -261   -582    -21    639    640 204.2  -1.9  34194  290.15 0854.32
2009/04/23 15:15:21.2    -322   -572    -91    657    664 209.4  -7.9  34172  289.77 0854.32
2009/04/23 15:15:21.3    -255   -245   -124    354    376 226.2 -19.3  34156  289.50 0854.32
2009/04/23 15:15:21.4    -113   -423    155    438    465 195.1  19.5  34182  289.94 0854.32
2009/04/23 15:15:21.5      27   -466    -18    467    468 176.6  -2.2  34182  289.95 0854.32
2009/04/23 15:15:21.6       7   -578    -11    579    580 179.3  -1.2  34190  290.08 0854.32
2009/04/23 15:15:21.7     -69   -636     -7    640    641 186.2  -0.7  34182  289.96 0854.32
2009/04/23 15:15:21.8    -170   -532   -164    559    583 197.8 -16.4  34198  290.22 0854.32
2009/04/23 15:15:21.9    -170   -629   -119    652    663 195.2 -10.4  34142  289.27 0854.32
2009/04/23 15:15:22.0     -91   -658    -97    665    673 187.9  -8.4  34150  289.41 0854.32
2009/04/23 15:15:22.1    -253   -628    -79    678    683 202.0  -6.7  34168  289.70 0854.35
2009/04/23 15:15:22.2    -136   -658   -124    673    685 191.7 -10.5  34152  289.44 0854.35
2009/04/23 15:15:22.3    -141   -605    -55    622    625 193.1  -5.1  34162  289.62 0854.35
2009/04/23 15:15:22.4     -15   -455    -24    456    457 181.9  -3.1  34168  289.72 0854.35
2009/04/23 15:15:22.5     -84   -538    -89    545    553 188.9  -9.3  34176  289.84 0854.35
2009/04/23 15:15:22.6      -5   -539    -16    540    541 180.6  -1.8  34180  289.90 0854.35
2009/04/23 15:15:22.7     -41   -530    149    532    553 184.5  15.7  34176  289.85 0854.35
2009/04/23 15:15:22.8      89   -630    144    637    654 171.9  12.8  34160  289.57 0854.35
2009/04/23 15:15:22.9      89   -509     15    517    518 170.0   1.7  34160  289.57 0854.35
2009/04/23 15:15:23.0     -41   -546    193    548    582 184.4  19.4  34164  289.63 0854.35
2009/04/23 15:15:23.1      50   -470    226    473    524 173.9  27.3  34176  289.84 0854.35
2009/04/23 15:15:23.2      36   -503    128    505    522 175.9  14.3  34164  289.64 0854.35
2009/04/23 15:15:23.3      65   -545    122    549    563 173.1  12.6  34166  289.68 0854.35
2009/04/23 15:15:23.4     -74   -378    338    386    513 191.1  45.8  34182  289.96 0854.35
2009/04/23 15:15:23.5      53   -486    172    490    520 173.7  19.4  34166  289.66 0854.35
2009/04/23 15:15:23.6     -17   -483    125    484    500 182.1  14.5  34182  289.95 0854.35
2009/04/23 15:15:23.7    -154   -523    111    546    558 196.4  11.6  34188  290.06 0854.35
2009/04/23 15:15:23.8    -257   -427    -35    499    501 211.0  -4.1  34202  290.27 0854.35
2009/04/23 15:15:23.9     -24   -368    -32    369    371 183.8  -5.1  34144  289.30 0854.35
2009/04/23 15:15:24.0    -587    353   -244    685    727 301.0 -24.8  34166  289.67 0854.35
2009/04/23 15:15:24.1    -438    190   -322    478    576 293.4 -41.6  34160  289.57 0854.40
2009/04/23 15:15:24.2    -237    459    -73    517    523 332.7  -8.1  34170  289.74 0854.40
2009/04/23 15:15:24.3    -150     61    344    162    380 292.2  73.1  34198  290.22 0854.40
2009/04/23 15:15:24.4    -109    -32    343    114    361 253.2  80.9  34176  289.85 0854.40
2009/04/23 15:15:24.5    -471    209    321    516    607 294.0  34.9  34158  289.54 0854.40
2009/04/23 15:15:24.6    -669    367    194    764    789 298.8  14.3  34156  289.49 0854.40
2009/04/23 15:15:24.7    -512    474    357    698    783 312.8  29.2  34222  290.62 0854.40
2009/04/23 15:15:24.8    -845    -87    575    850   1026 264.1  37.3  34232  290.79 0854.40
2009/04/23 15:15:24.9    -154    216     21    266    267 324.4   4.6  34182  289.93 0854.40
2009/04/23 15:15:25.0      36    289    108    292    311   7.1  21.0  34184  289.98 0854.40
2009/04/23 15:15:25.1    -126   -121    254    175    308 226.2  62.6  34202  290.29 0854.40
2009/04/23 15:15:25.2     -67   -105    395    125    414 212.5  81.9  34206  290.35 0854.40
2009/04/23 15:15:25.3    -142   -275    265    310    407 207.4  44.8  34200  290.25 0854.40
2009/04/23 15:15:25.4    -150   -201    239    251    346 216.7  48.5  34202  290.27 0854.40
2009/04/23 15:15:25.5     -80   -283    340    295    450 195.8  54.7  34200  290.26 0854.40
2009/04/23 15:15:25.6       3   -370    341    371    503 179.5  47.5  34204  290.33 0854.40
2009/04/23 15:15:25.7    -222   -424    375    479    608 207.6  42.0  34186  290.02 0854.40
2009/04/23 15:15:25.8      32   -495    519    497    718 176.2  51.4  34198  290.23 0854.40
2009/04/23 15:15:25.9     -45   -793    673    795   1041 183.3  44.5  34194  290.16 0854.40
2009/04/23 15:15:26.0    -309   -754    577    816    999 202.3  38.7  34188  290.05 0854.40
2009/04/23 15:15:26.1    -323   -807    375    870    947 201.8  24.8  34172  289.77 0854.42
2009/04/23 15:15:26.2    -452   -610    216    760    791 216.5  15.9  34190  290.07 0854.42
2009/04/23 15:15:26.3    -421   -276    152    504    527 236.7  16.8  34210  290.41 0854.42
2009/04/23 15:15:26.4    -313   -156    341    350    488 243.4  49.3  34222  290.61 0854.42
2009/04/23 15:15:26.5    -629    167   -219    651    686 284.9 -23.6  34242  290.95 0854.42
2009/04/23 15:15:26.6    -492    -49   -266    495    561 264.3 -35.0  34238  290.89 0854.42
2009/04/23 15:15:26.7    -628   -322   -230    706    743 242.8 -18.1  34224  290.66 0854.42
2009/04/23 15:15:26.8    -195   -409     68    454    460 205.5   8.6  34186  290.02 0854.42
2009/04/23 15:15:26.9    -463   -325     16    566    567 234.9   1.7  34212  290.45 0854.42
2009/04/23 15:15:27.0    -454   -302    159    546    569 236.3  16.3  34214  290.48 0854.42
2009/04/23 15:15:27.1     -31   -425     24    427    428 184.2   3.3  34204  290.33 0854.42
2009/04/23 15:15:27.2     -69   -652     53    656    659 186.1   4.7  34196  290.17 0854.42
2009/04/23 15:15:27.3     111   -739     93    748    754 171.4   7.1  34182  289.94 0854.42
2009/04/23 15:15:27.4     265   -623    -80    678    683 157.0  -6.8  34184  289.99 0854.42
2009/04/23 15:15:27.5     449   -673    199    810    835 146.3  13.8  34184  289.99 0854.42
2009/04/23 15:15:27.6     526   -727    215    898    924 144.1  13.5  34194  290.14 0854.42
2009/04/23 15:15:27.7     545   -409     88    682    688 126.9   7.4  34188  290.05 0854.42
2009/04/23 15:15:27.8     423   -296    137    517    535 125.0  14.9  34192  290.13 0854.42
2009/04/23 15:15:27.9     169   -534    298    561    635 162.4  30.2  34166  289.69 0854.42
2009/04/23 15:15:28.0     259   -632    390    684    787 157.7  32.3  34184  289.97 0854.42
2009/04/23 15:15:28.1     337   -249    192    420    461 126.5  26.4  34192  290.11 0854.35
2009/04/23 15:15:28.2     253   -695     73    740    744 160.0   5.7  34170  289.75 0854.35
2009/04/23 15:15:28.3     138   -809    209    821    848 170.3  14.3  34166  289.66 0854.35
2009/04/23 15:15:28.4      29   -684    108    685    694 177.5   9.0  34190  290.07 0854.35
2009/04/23 15:15:28.5      58   -813     26    815    816 175.9   1.9  34194  290.16 0854.35
2009/04/23 15:15:28.6    -345   -838    -80    907    911 202.4  -5.1  34178  289.89 0854.35
2009/04/23 15:15:28.7    -484   -771    142    911    923 212.1   8.9  34172  289.78 0854.35
2009/04/23 15:15:28.8     -89   -246    137    262    295 200.0  29.5  34174  289.81 0854.35
2009/04/23 15:15:28.9      -3   -250    329    251    413 180.9  59.0  34184  289.98 0854.35
2009/04/23 15:15:29.0    -242   -750    199    789    814 197.9  14.2  34178  289.87 0854.35
2009/04/23 15:15:29.1    -342   -373    186    507    540 222.5  21.0  34160  289.57 0854.35
2009/04/23 15:15:29.2     -39   -425      6    428    429 185.4   0.8  34180  289.90 0854.35
2009/04/23 15:15:29.3      24    -30    210     39    213 140.4  90.0  34200  290.25 0854.35
2009/04/23 15:15:29.4     435   -253    350    504    613 120.2  38.3  34190  290.08 0854.35
2009/04/23 15:15:29.5     203   -251    326    323    458 141.0  50.2  34186  290.02 0854.35
2009/04/23 15:15:29.6     121   -254    292    282    405 154.5  51.2  34188  290.06 0854.35
2009/04/23 15:15:29.7    -109   -412    263    427    501 194.9  34.6  34178  289.88 0854.35
2009/04/23 15:15:29.8     -13   -421     79    422    430 181.9  10.7  34176  289.85 0854.35
2009/04/23 15:15:29.9     208   -354    234    411    472 149.6  32.3  34176  289.83 0854.35
2009/04/23 15:15:30.0     245   -244    125    347    370 134.9  19.9  34176  289.84 0854.35
2009/04/23 15:15:30.1      59     48    152     77    170  50.5  71.4  34188  290.04 0854.34
2009/04/23 15:15:30.2      16   -221    181    222    286 175.6  43.7  34186  290.02 0854.34
2009/04/23 15:15:30.3     113   -275    -19    298    299 157.7  -3.7  34176  289.85 0854.34
2009/04/23 15:15:30.4     254   -221     61    337    343 131.0  10.3  34172  289.79 0854.34
2009/04/23 15:15:30.5      58   -257    251    264    364 167.1  48.5  34170  289.74 0854.34
2009/04/23 15:15:30.6     239   -455    411    514    658 152.3  42.7  34178  289.86 0854.34
2009/04/23 15:15:30.7      32   -163    366    167    402 168.7  74.0  34194  290.15 0854.34
2009/04/23 15:15:30.8      25   -403    400    404    568 176.4  49.9  34170  289.74 0854.34
2009/04/23 15:15:30.9     -21   -501     60    502    506 182.5   6.9  34166  289.69 0854.34
2009/04/23 15:15:31.0      55   -581   -163    584    606 174.6 -20.2  34182  289.93 0854.34
2009/04/23 15:15:31.1    -108   -360   -259    377    457 196.8 -42.1  34172  289.78 0854.34
2009/04/23 15:15:31.2      81   -170    180    189    261 154.6  48.5  34178  289.86 0854.34
2009/04/23 15:15:31.3     109   -180    196    211    287 148.8  47.9  34184  289.98 0854.34
2009/04/23 15:15:31.4      20   -263    265    264    374 175.5  50.1  34156  289.50 0854.34
2009/04/23 15:15:31.5      43   -509    124    511    526 175.1  13.7  34158  289.55 0854.34
2009/04/23 15:15:31.6       4   -199    134    200    240 178.6  37.0  34176  289.84 0854.34
2009/04/23 15:15:31.7      32    -97    156    103    186 161.7  63.9  34176  289.85 0854.34
2009/04/23 15:15:31.8    -139   -520    219    539    581 195.1  23.4  34174  289.80 0854.34
2009/04/23 15:15:31.9    -334   -364    194    495    531 222.6  22.7  34172  289.77 0854.34
2009/04/23 15:15:32.0    -142   -224    171    266    316 212.5  35.7  34182  289.93 0854.34
2009/04/23 15:15:32.1     -94   -169     86    194    212 209.2  25.3  34178  289.89 0854.37
2009/04/23 15:15:32.2     -21   -156     55    158    168 187.8  19.2  34180  289.91 0854.37
2009/04/23 15:15:32.3       3    -68    -50     69     85 177.3 -43.5  34180  289.91 0854.37
2009/04/23 15:15:32.4      93     93   -101    132    166  45.1 -45.6  34180  289.92 0854.37
2009/04/23 15:15:32.5     368     55     73    373    381  81.4  11.1  34168  289.71 0854.37
2009/04/23 15:15:32.6     317   -187     -7    369    370 120.5  -1.2  34166  289.69 0854.37
2009/04/23 15:15:32.7     245   -102    205    266    335 112.6  41.4  34172  289.76 0854.37
2009/04/23 15:15:32.8     279    -56    204    285    350 101.4  39.1  34174  289.81 0854.37
2009/04/23 15:15:32.9     349   -124    160    371    404 109.7  24.9  34178  289.87 0854.37
2009/04/23 15:15:33.0     355   -169    279    394    482 115.5  38.7  34174  289.80 0854.37
2009/04/23 15:15:33.1     485   -472     44    677    679 134.2   3.8  34172  289.77 0854.37
2009/04/23 15:15:33.2     520   -360   -113    633    644 124.8 -10.1  34172  289.77 0854.37
2009/04/23 15:15:33.3     414   -254    -36    486    488 121.5  -4.2  34150  289.40 0854.37
2009/04/23 15:15:33.4     476   -270    -11    548    549 119.5  -1.2  34170  289.75 0854.37
2009/04/23 15:15:33.5     295    -37    -90    298    311  97.2 -21.8  34170  289.75 0854.37
2009/04/23 15:15:33.6     120   -125    132    174    218 136.1  41.2  34174  289.82 0854.37
2009/04/23 15:15:33.7     255   -133    169    288    333 117.5  32.9  34172  289.78 0854.37
2009/04/23 15:15:33.8     305     -6     55    306    311  91.3  10.2  34172  289.76 0854.37
2009/04/23 15:15:33.9      51    -17    166     55    174 109.1  80.7  34186  290.02 0854.37
2009/04/23 15:15:34.0    -162   -226    261    279    382 215.6  47.9  34178  289.89 0854.39
2009/04/23 15:15:34.1      52     31    175     61    185  59.3  80.7  34198  290.23 0854.39
2009/04/23 15:15:34.2    -190   -212    260    285    385 221.9  47.1  34188  290.04 0854.39
2009/04/23 15:15:34.3    -194   -271    121    334    355 215.7  20.8  34186  290.01 0854.39
2009/04/23 15:15:34.4    -198   -185    189    272    331 226.9  38.0  34180  289.92 0854.39
2009/04/23 15:15:34.5      12     49     53     51     73  14.3  50.1  34196  290.18 0854.39
2009/04/23 15:15:34.6    -113     15    198    115    228 277.9  67.2  34196  290.18 0854.39
2009/04/23 15:15:34.7    -177     18    200    178    267 275.9  53.7  34210  290.42 0854.39
2009/04/23 15:15:34.8    -492     56    215    496    540 276.6  25.1  34228  290.72 0854.39
2009/04/23 15:15:34.9    -430   -114    215    445    494 255.1  27.8  34206  290.35 0854.39
2009/04/23 15:15:35.0    -261   -123    233    289    371 244.8  43.1  34208  290.37 0854.39
2009/04/23 15:15:35.1    -455     87    229    464    517 280.8  28.2  34218  290.54 0854.39
2009/04/23 15:15:35.2    -417    -36    197    419    463 265.0  27.1  34190  290.07 0854.39
2009/04/23 15:15:35.3    -111    204    263    233    351 331.5  54.0  34204  290.31 0854.39
2009/04/23 15:15:35.4    -295    189    171    351    390 302.8  28.0  34198  290.23 0854.39
2009/04/23 15:15:35.5      41   -187    238    192    305 167.5  56.6  34208  290.37 0854.39
2009/04/23 15:15:35.6    -145   -257    243    296    382 209.4  43.7  34180  289.91 0854.39
2009/04/23 15:15:35.7    -124   -332    254    355    436 200.5  39.2  34180  289.92 0854.39
2009/04/23 15:15:35.8     -18   -340    277    341    439 183.2  43.5  34188  290.05 0854.39
2009/04/23 15:15:35.9      49   -519    195    522    557 174.6  21.4  34186  290.01 0854.39
2009/04/23 15:15:36.0      33   -514    104    516    527 176.3  11.5  34196  290.18 0854.35
2009/04/23 15:15:36.1     182   -487    233    521    570 159.5  25.8  34190  290.07 0854.35
2009/04/23 15:15:36.2      44   -255    251    259    360 170.0  49.3  34218  290.57 0854.35
2009/04/23 15:15:36.3       8   -114    153    115    191 175.5  59.2  34222  290.64 0854.35
2009/04/23 15:15:36.4      38   -225    185    229    294 170.2  43.3  34216  290.51 0854.35
2009/04/23 15:15:36.5     -52   -303    220    308    378 189.8  39.1  34188  290.03 0854.35
2009/04/23 15:15:36.6     -62   -249    193    257    321 194.0  40.7  34192  290.12 0854.35
2009/04/23 15:15:36.7     -19   -310    168    311    353 183.6  30.7  34188  290.03 0854.35
2009/04/23 15:15:36.8     -62   -277    -85    284    297 192.7 -16.6  34196  290.17 0854.35
2009/04/23 15:15:36.9    -137   -273   -120    306    328 206.7 -26.9  34188  290.05 0854.35
2009/04/23 15:15:37.0    -131   -233   -149    268    306 209.4 -35.8  34192  290.10 0854.35
2009/04/23 15:15:37.1      51   -215     11    222    223 166.6   2.9  34208  290.38 0854.35
2009/04/23 15:15:37.2    -111    -17    125    113    168 261.2  53.3  34210  290.41 0854.35
2009/04/23 15:15:37.3     -12    124    109    125    165 354.2  45.6  34220  290.58 0854.35
2009/04/23 15:15:37.4     -30    214    130    217    252 352.0  34.0  34222  290.61 0854.35
2009/04/23 15:15:37.5     150    174     76    230    243  40.8  18.4  34220  290.59 0854.35
2009/04/23 15:15:37.6     171    -35    161    175    237 101.7  47.7  34228  290.74 0854.35
2009/04/23 15:15:37.7      72    -76     96    105    142 136.7  47.9  34210  290.43 0854.35
2009/04/23 15:15:37.8    -169     36     26    173    176 282.2   8.8  34222  290.64 0854.35
2009/04/23 15:15:37.9    -259     56   -102    266    284 282.2 -26.4  34242  290.97 0854.35
2009/04/23 15:15:38.0    -266    -27    -19    268    269 264.1  -4.1  34242  290.95 0854.30
2009/04/23 15:15:38.1    -363    -28     33    365    367 265.5   5.2  34240  290.94 0854.30
2009/04/23 15:15:38.2    -239   -154     14    285    286 237.1   2.9  34234  290.83 0854.30
2009/04/23 15:15:38.3    -154   -280    -14    320    321 208.9  -2.6  34218  290.56 0854.30
2009/04/23 15:15:38.4    -193   -212     51    287    292 222.3  10.1  34220  290.59 0854.30
2009/04/23 15:15:38.5    -249   -259    -32    360    362 223.8  -5.1  34220  290.60 0854.30
2009/04/23 15:15:38.6    -135   -401     36    424    426 198.6   5.0  34198  290.22 0854.30
2009/04/23 15:15:38.7    -213   -419     73    471    477 207.0   8.9  34198  290.23 0854.30
2009/04/23 15:15:38.8    -107   -450    137    463    483 193.4  16.5  34202  290.30 0854.30
2009/04/23 15:15:38.9    -165   -456    165    486    514 200.0  18.8  34202  290.30 0854.30
2009/04/23 15:15:39.0    -248   -388    108    461    474 212.6  13.3  34204  290.32 0854.30
2009/04/23 15:15:39.1    -131   -346     33    371    373 200.8   5.1  34204  290.32 0854.30
2009/04/23 15:15:39.2    -146   -333      7    364    365 203.7   1.1  34202  290.30 0854.30
2009/04/23 15:15:39.3    -184   -358      0    403    404 207.2   0.0  34200  290.26 0854.30
2009/04/23 15:15:39.4    -160   -401     -9    433    434 201.8  -1.3  34200  290.26 0854.30
2009/04/23 15:15:39.5    -223   -258     -1    342    343 220.8  -0.2  34198  290.23 0854.30
2009/04/23 15:15:39.6    -304   -261   -143    401    426 229.4 -19.7  34266  291.36 0854.30
2009/04/23 15:15:39.7    -338   -321   -108    467    480 226.5 -13.0  34228  290.71 0854.30
2009/04/23 15:15:39.8    -171   -438      4    471    472 201.3   0.5  34208  290.39 0854.30
2009/04/23 15:15:39.9    -160   -454      8    482    483 199.5   1.0  34208  290.40 0854.30
2009/04/23 15:15:40.0    -185   -506    -45    539    542 200.1  -4.9  34216  290.53 0854.27
2009/04/23 15:15:40.1    -184   -542    -59    573    576 198.8  -5.9  34238  290.88 0854.27
2009/04/23 15:15:40.2    -227   -462     -2    515    516 206.2  -0.3  34224  290.66 0854.27
2009/04/23 15:15:40.3    -207   -612     47    647    649 198.7   4.2  34218  290.54 0854.27
2009/04/23 15:15:40.4    -158   -638     62    658    662 193.9   5.4  34210  290.43 0854.27
2009/04/23 15:15:40.5     -70   -488    142    494    515 188.2  16.0  34202  290.29 0854.27
2009/04/23 15:15:40.6    -101   -586    120    595    607 189.8  11.5  34206  290.36 0854.27
2009/04/23 15:15:40.7    -120   -681     56    692    695 190.0   4.7  34228  290.73 0854.27
2009/04/23 15:15:40.8     -55   -713     93    716    723 184.5   7.5  34216  290.52 0854.27
2009/04/23 15:15:40.9      76   -655    220    660    696 173.3  18.5  34196  290.19 0854.27
2009/04/23 15:15:41.0      66   -703    247    707    748 174.6  20.0  34214  290.50 0854.27
2009/04/23 15:15:41.1     198   -652    127    682    694 163.1  10.6  34228  290.73 0854.27
2009/04/23 15:15:41.2     222   -608    226    648    687 159.9  19.3  34238  290.89 0854.27
2009/04/23 15:15:41.3     273   -670     22    724    725 157.8   1.8  34222  290.62 0854.27
2009/04/23 15:15:41.4     225   -582    150    625    643 158.8  13.5  34208  290.40 0854.27
2009/04/23 15:15:41.5     408   -557    240    691    732 143.8  19.2  34218  290.54 0854.27
2009/04/23 15:15:41.6     250   -559    102    613    622 155.9   9.4  34194  290.16 0854.27
2009/04/23 15:15:41.7     205   -430    255    477    540 154.5  30.5  34200  290.26 0854.27
2009/04/23 15:15:41.8     121   -477    253    493    554 165.7  29.3  34196  290.18 0854.27
2009/04/23 15:15:41.9     121   -536    192    550    583 167.2  19.3  34202  290.29 0854.27
2009/04/23 15:15:42.0     177   -544    214    573    611 162.0  21.5  34200  290.25 0854.28
2009/04/23 15:15:42.1    -171   -398    276    434    514 203.2  35.5  34196  290.17 0854.28
2009/04/23 15:15:42.2    -275   -285    234    397    460 223.9  33.3  34200  290.24 0854.28
2009/04/23 15:15:42.3    -153   -330    189    364    410 204.9  29.5  34208  290.37 0854.28
2009/04/23 15:15:42.4    -166   -228    210    283    352 216.1  40.2  34202  290.28 0854.28
2009/04/23 15:15:42.5    -267   -247    169    365    402 227.2  26.6  34202  290.30 0854.28
2009/04/23 15:15:42.6    -228   -208    186    309    360 227.6  33.8  34202  290.27 0854.28
2009/04/23 15:15:42.7    -202   -409    199    457    498 206.3  25.1  34196  290.18 0854.28
2009/04/23 15:15:42.8    -123    -89    185    152    239 234.1  56.4  34202  290.30 0854.28
2009/04/23 15:15:42.9    -105   -211    178    236    295 206.5  40.7  34210  290.42 0854.28
2009/04/23 15:15:43.0     -94   -278    205    294    358 198.7  38.4  34204  290.32 0854.31
2009/04/23 15:15:43.1     -60   -336    143    342    370 190.2  23.9  34208  290.37 0854.31
2009/04/23 15:15:43.2     -42   -431      0    434    435 185.6   0.1  34200  290.26 0854.31
2009/04/23 15:15:43.3    -144   -387    -82    414    423 200.5 -11.2  34202  290.29 0854.31
2009/04/23 15:15:43.4    -138   -429    -40    451    453 197.9  -5.1  34206  290.34 0854.31
2009/04/23 15:15:43.5     -66   -404   -111    410    425 189.3 -15.2  34208  290.39 0854.31
2009/04/23 15:15:43.6      34   -440    -73    442    449 175.5  -9.4  34204  290.33 0854.31
2009/04/23 15:15:43.7     127   -484    -23    501    502 165.3  -2.7  34206  290.34 0854.31
2009/04/23 15:15:43.8      36   -480    112    482    495 175.6  13.1  34202  290.30 0854.31
2009/04/23 15:15:43.9     -81   -458    -18    466    467 190.1  -2.2  34228  290.74 0854.31
2009/04/23 15:15:44.0     -68   -395     17    401    402 189.8   2.5  34228  290.72 0854.31
2009/04/23 15:15:44.1     -89   -276     -9    291    292 197.9  -1.8  34218  290.56 0854.31
2009/04/23 15:15:44.2     -61   -393    -41    398    401 188.9  -5.9  34234  290.83 0854.31
2009/04/23 15:15:44.3    -118   -473    -21    488    489 194.0  -2.5  34246  291.03 0854.31
2009/04/23 15:15:44.4     -67   -395    -78    401    409 189.7 -11.1  34234  290.82 0854.31
2009/04/23 15:15:44.5      46   -398    -74    401    408 173.3 -10.5  34234  290.84 0854.31
2009/04/23 15:15:44.6      63   -362   -142    368    394 170.0 -26.6  34240  290.93 0854.31
2009/04/23 15:15:44.7      13   -288   -195    289    348 177.4 -41.6  34232  290.81 0854.31
2009/04/23 15:15:44.8       7   -294   -159    295    335 178.6 -35.2  34236  290.87 0854.31
2009/04/23 15:15:44.9     134   -331    -47    358    362 157.9  -7.5  34218  290.57 0854.31
2009/04/23 15:15:45.0     141   -304    -36    336    339 155.2  -6.3  34216  290.52 0854.33
2009/04/23 15:15:45.1      19   -438     63    439    444 177.4   8.2  34222  290.63 0854.33
2009/04/23 15:15:45.2      18   -463     13    464    465 177.7   1.7  34204  290.33 0854.33
2009/04/23 15:15:45.3     -39   -428     40    431    434 185.3   5.4  34200  290.24 0854.33
2009/04/23 15:15:45.4    -101   -416    -30    429    431 193.7  -4.0  34204  290.31 0854.33
2009/04/23 15:15:45.5     -42   -473     72    475    481 185.1   8.7  34202  290.30 0854.33
2009/04/23 15:15:45.6     -77   -385     32    393    395 191.4   4.7  34210  290.43 0854.33
2009/04/23 15:15:45.7     -31   -291     63    293    300 186.3  12.2  34212  290.44 0854.33
2009/04/23 15:15:45.8     -26   -318     40    320    323 184.7   7.2  34216  290.51 0854.33
2009/04/23 15:15:45.9       0   -335     16    336    337 180.0   2.8  34220  290.60 0854.33
2009/04/23 15:15:46.0    -103   -301    112    319    339 198.9  19.4  34220  290.60 0854.33
2009/04/23 15:15:46.1    -265   -249     -1    364    365 226.8  -0.3  34214  290.49 0854.33
2009/04/23 15:15:46.2    -201   -230    137    306    335 221.2  25.8  34226  290.70 0854.33
2009/04/23 15:15:46.4    -357   -183     33    402    404 242.8   4.7  34226  290.68 0854.33
2009/04/23 15:15:46.5    -196   -186     40    271    275 226.4   8.5  34216  290.51 0854.33
2009/04/23 15:15:46.6    -244    -22     93    246    262 264.8  21.7  34230  290.76 0854.33
2009/04/23 15:15:46.7    -387     29     19    389    390 274.4   2.9  34232  290.79 0854.33
2009/04/23 15:15:46.8    -345    -22     -7    346    347 266.2  -1.3  34234  290.83 0854.33
2009/04/23 15:15:46.9    -373    -65      9    379    380 260.1   1.5  34268  291.40 0854.33
2009/04/23 15:15:47.0    -193     42    126    198    234 282.4  35.5  34228  290.72 0854.33
2009/04/23 15:15:47.1    -135    164     73    213    226 320.4  18.9  34226  290.69 0854.35
2009/04/23 15:15:47.2    -161     66    105    175    204 292.4  34.0  34228  290.72 0854.35
2009/04/23 15:15:47.3     -96    264    142    282    315 339.9  28.9  34222  290.63 0854.35
2009/04/23 15:15:47.4     -84    208    157    225    274 337.9  38.5  34222  290.61 0854.35
2009/04/23 15:15:47.5     -72    264    130    274    303 344.6  27.2  34222  290.61 0854.35
2009/04/23 15:15:47.6     -43    253    130    257    288 350.3  29.1  34240  290.93 0854.35
2009/04/23 15:15:47.7     -48    335    144    339    368 351.8  24.3  34230  290.77 0854.35
2009/04/23 15:15:47.8       5    338    130    339    363   1.0  22.0  34226  290.69 0854.35
2009/04/23 15:15:47.9     -39    219    118    223    252 349.8  30.2  34230  290.76 0854.35
2009/04/23 15:15:48.0    -100    183    132    209    247 331.1  35.5  34224  290.65 0854.35
2009/04/23 15:15:48.1    -130    116     80    175    192 311.8  26.4  34230  290.77 0854.35
2009/04/23 15:15:48.2    -157     63     54    170    179 292.0  17.7  34230  290.75 0854.35
2009/04/23 15:15:48.3    -218    -41     -6    222    223 259.2  -1.8  34228  290.72 0854.35
2009/04/23 15:15:48.4     -65   -118    190    135    233 208.9  61.3  34238  290.91 0854.35
2009/04/23 15:15:48.5     -57   -116    166    130    210 206.3  57.9  34246  291.03 0854.35
2009/04/23 15:15:48.6     -82   -140    105    163    193 210.5  35.6  34240  290.92 0854.35
2009/04/23 15:15:48.7     -41    -80    117     90    147 207.2  58.5  34240  290.92 0854.35
2009/04/23 15:15:48.8      18    -92     65     94    114 168.9  37.6  34242  290.98 0854.35
2009/04/23 15:15:48.9     129   -127    109    182    212 134.6  34.0  34240  290.94 0854.35
2009/04/23 15:15:49.0     187   -105    100    215    237 119.5  26.4  34238  290.89 0854.35
2009/04/23 15:15:49.1     133    -88    138    160    211 123.7  45.4  34242  290.98 0854.33
2009/04/23 15:15:49.2      52     35    126     64    141  55.8  71.0  34258  291.25 0854.33
2009/04/23 15:15:49.3     -33     11    131     35    135 288.4  84.9  34262  291.30 0854.33
2009/04/23 15:15:49.4     -55     55    149     79    168 315.0  69.8  34258  291.23 0854.33
2009/04/23 15:15:49.5     -69     -4    148     70    163 266.5  72.9  34270  291.45 0854.33
2009/04/23 15:15:49.6      33    -70    155     78    173 154.6  71.4  34254  291.16 0854.33
2009/04/23 15:15:49.7     -50   -138    192    147    241 200.0  59.0  34238  290.91 0854.33
2009/04/23 15:15:49.8     -34   -181    203    185    274 190.9  53.2  34236  290.85 0854.33
2009/04/23 15:15:49.9      -9   -140    202    141    246 184.0  61.8  34240  290.92 0854.33
2009/04/23 15:15:50.0      44    -40    154     60    165 132.2  77.8  34236  290.86 0854.33
2009/04/23 15:15:50.1      97    -57    184    113    215 120.7  65.7  34248  291.08 0854.33
2009/04/23 15:15:50.2     -41    -40    169     58    178 225.1  80.7  34254  291.16 0854.33
2009/04/23 15:15:50.3      11    -79    158     80    177 172.0  71.4  34284  291.67 0854.33
2009/04/23 15:15:50.4      33    -42    166     54    174 141.3  80.7  34282  291.66 0854.33
2009/04/23 15:15:50.5       6   -139    230    140    269 177.3  65.7  34296  291.89 0854.33
2009/04/23 15:15:50.6       0     38    165     39    169 359.1  87.3  34282  291.66 0854.33
2009/04/23 15:15:50.7      -7   -152    158    153    219 182.7  50.9  34270  291.43 0854.33
2009/04/23 15:15:50.8     -43   -303    181    307    356 188.2  33.4  34240  290.94 0854.33
2009/04/23 15:15:50.9     -43   -282    210    286    354 188.7  39.9  34248  291.05 0854.33
2009/04/23 15:15:51.0       0   -235    226    236    326 180.0  48.8  34252  291.12 0854.33
2009/04/23 15:15:51.1      -3   -323    201    324    381 180.6  35.0  34242  290.98 0854.31
2009/04/23 15:15:51.2     -13   -291    219    292    365 182.7  40.7  34244  291.00 0854.31
2009/04/23 15:15:51.3     -63   -280    191    288    345 192.7  36.6  34244  291.00 0854.31
2009/04/23 15:15:51.4     -53   -313    209    318    380 189.6  36.3  34258  291.25 0854.31
2009/04/23 15:15:51.5     -38   -248    236    251    344 188.7  48.0  34250  291.09 0854.31
2009/04/23 15:15:51.6     -16   -263    243    264    358 183.6  47.6  34250  291.10 0854.31
2009/04/23 15:15:51.7     -24   -279    182    281    334 185.1  35.9  34244  290.99 0854.31
2009/04/23 15:15:51.8     -87   -263    191    277    336 198.3  38.0  34246  291.04 0854.31
2009/04/23 15:15:51.9     -66   -327    171    334    375 191.6  29.3  34240  290.94 0854.31
2009/04/23 15:15:52.0     -74   -274    254    284    381 195.2  46.4  34244  291.01 0854.31
2009/04/23 15:15:52.1     -61   -243    219    251    333 194.3  45.6  34242  290.97 0854.31
2009/04/23 15:15:52.2    -121   -237    173    267    318 207.2  36.2  34270  291.43 0854.31
2009/04/23 15:15:52.3    -129   -211    219    248    330 211.4  46.1  34260  291.26 0854.31
2009/04/23 15:15:52.4    -215   -270    131    346    369 218.5  21.5  34268  291.42 0854.31
2009/04/23 15:15:52.5    -218   -260    132    340    364 220.1  22.3  34262  291.30 0854.31
2009/04/23 15:15:52.6    -343   -240     22    419    420 235.0   3.1  34306  292.06 0854.31
2009/04/23 15:15:52.7    -103   -291    152    309    344 199.6  28.0  34270  291.44 0854.31
2009/04/23 15:15:52.8     -96   -284    170    300    344 198.7  32.1  34258  291.23 0854.31
2009/04/23 15:15:52.9    -232   -198    182    306    356 229.5  33.5  34286  291.71 0854.31
2009/04/23 15:15:53.0    -236   -275    177    363    403 220.6  27.9  34260  291.27 0854.31
2009/04/23 15:15:53.1    -284   -292    190    408    450 224.2  27.0  34274  291.52 0854.33
2009/04/23 15:15:53.2    -231   -265    179    352    394 221.1  29.2  34226  290.69 0854.33
2009/04/23 15:15:53.3    -146   -159    129    216    251 222.5  33.7  34258  291.22 0854.33
2009/04/23 15:15:53.4    -154   -169    156    229    277 222.3  37.6  34234  290.83 0854.33
2009/04/23 15:15:53.5    -132   -137    166    191    253 224.1  45.6  34242  290.95 0854.33
2009/04/23 15:15:53.6    -273    -35    219    276    352 262.5  42.4  34294  291.86 0854.33
2009/04/23 15:15:53.7    -290     68    185    298    350 283.3  35.1  34304  292.03 0854.33
2009/04/23 15:15:53.8    -312    -33     80    314    325 263.9  14.3  34294  291.84 0854.33
2009/04/23 15:15:53.9    -334     50     34    338    340 278.6   5.8  34332  292.48 0854.33
2009/04/23 15:15:54.0    -310     72     19    319    320 283.2   3.5  34334  292.53 0854.33
2009/04/23 15:15:54.1    -347     16    -27    348    350 272.8  -4.5  34322  292.31 0854.33
2009/04/23 15:15:54.2    -374    -30    -35    376    378 265.4  -5.5  34298  291.93 0854.33
2009/04/23 15:15:54.3    -395     30    -62    397    402 274.4  -9.0  34284  291.68 0854.33
2009/04/23 15:15:54.4    -363    -31    -73    365    373 265.0 -11.3  34268  291.39 0854.33
2009/04/23 15:15:54.5    -340    -96    -44    354    357 254.1  -7.2  34252  291.15 0854.33
2009/04/23 15:15:54.6    -219   -192    -59    292    298 228.9 -11.5  34262  291.29 0854.33
2009/04/23 15:15:54.7    -414    -46   -132    417    438 263.6 -17.6  34234  290.84 0854.33
2009/04/23 15:15:54.8    -377    -44     58    380    385 263.2   8.8  34266  291.37 0854.33
2009/04/23 15:15:54.9    -166    -50     90    174    195 253.2  29.3  34276  291.55 0854.33
2009/04/23 15:15:55.0     -13   -121     72    122    141 186.2  33.5  34278  291.57 0854.33
2009/04/23 15:15:55.1     -33   -175     18    179    180 190.7   5.9  34256  291.20 0854.35
2009/04/23 15:15:55.2     -32   -172    -23    176    178 190.7  -7.7  34246  291.04 0854.35
2009/04/23 15:15:55.3     -40   -163    -52    169    177 194.0 -17.3  34246  291.04 0854.35
2009/04/23 15:15:55.4     -50   -152      7    161    162 198.3   2.8  34236  290.86 0854.35
2009/04/23 15:15:55.5    -120    -94     92    153    178 231.8  34.0  34252  291.13 0854.35
2009/04/23 15:15:55.6    -132   -148    111    199    227 221.9  31.4  34256  291.20 0854.35
2009/04/23 15:15:55.7     -66   -189      6    201    202 199.2   1.8  34230  290.75 0854.35
2009/04/23 15:15:55.8     -72   -168     50    183    190 203.2  15.3  34234  290.84 0854.35
2009/04/23 15:15:55.9     -70   -111    -19    132    134 212.5  -8.2  34234  290.82 0854.35
2009/04/23 15:15:56.0     -53   -117    -65    129    144 204.5 -33.6  34230  290.75 0854.35
2009/04/23 15:15:56.1     -16   -110    -66    112    130 188.5 -37.9  34224  290.67 0854.35
2009/04/23 15:15:56.2     -74   -101    -45    126    134 216.5 -19.7  34228  290.74 0854.35
2009/04/23 15:15:56.3     -70    -86    -46    111    120 219.2 -28.0  34234  290.82 0854.35
2009/04/23 15:15:56.4     -59   -170    -25    181    183 199.2  -8.0  34238  290.89 0854.35
2009/04/23 15:15:56.5      24   -199     54    201    209 173.1  15.2  34230  290.77 0854.35
2009/04/23 15:15:56.6      16   -266    135    267    299 176.4  29.1  34232  290.78 0854.35
2009/04/23 15:15:56.7    -206    -82    127    223    256 248.2  32.3  34242  290.95 0854.35
2009/04/23 15:15:56.8     -82   -206     43    222    227 201.9  11.0  34236  290.86 0854.35
2009/04/23 15:15:56.9     -55   -244    -12    251    252 192.7  -2.8  34234  290.82 0854.35
2009/04/23 15:15:57.0      47   -254     27    259    261 169.5   6.0  34226  290.70 0854.35
2009/04/23 15:15:57.1      98   -305     15    321    322 162.2   2.8  34232  290.80 0854.35
2009/04/23 15:15:57.2      86   -301     56    314    320 164.0  10.2  34232  290.80 0854.35
2009/04/23 15:15:57.3      86   -292    107    305    324 163.5  19.4  34232  290.80 0854.35
2009/04/23 15:15:57.4     105   -264     99    285    302 158.2  19.2  34236  290.85 0854.35
2009/04/23 15:15:57.5      76   -299     73    309    318 165.7  13.3  34238  290.88 0854.35
2009/04/23 15:15:57.6      17   -231    102    232    253 175.6  25.3  34242  290.95 0854.35
2009/04/23 15:15:57.7      84   -210     78    227    241 158.2  18.9  34246  291.02 0854.35
2009/04/23 15:15:57.8      95   -205     35    227    230 155.1   9.0  34248  291.06 0854.35
2009/04/23 15:15:57.9      91   -151     83    177    195 149.0  27.1  34246  291.04 0854.35
2009/04/23 15:15:58.0     -83   -135     57    159    168 211.6  20.4  34268  291.42 0854.35
2009/04/23 15:15:58.1     -31   -131     65    135    149 193.4  27.3  34256  291.21 0854.35
2009/04/23 15:15:58.2     -10   -150     52    151    160 184.0  19.2  34256  291.21 0854.35
2009/04/23 15:15:58.3      11   -173     59    174    184 176.2  18.9  34252  291.13 0854.35
2009/04/23 15:15:58.4      17   -226     81    227    242 175.6  19.6  34254  291.16 0854.35
2009/04/23 15:15:58.5     -22   -264     54    266    272 184.9  11.6  34254  291.16 0854.35
2009/04/23 15:15:58.6     -49   -320     41    324    327 188.8   7.2  34256  291.19 0854.35
2009/04/23 15:15:58.7    -102   -380     27    394    395 195.1   4.0  34268  291.42 0854.35
2009/04/23 15:15:58.8     -35   -393    -15    395    396 185.2  -2.2  34270  291.44 0854.35
2009/04/23 15:15:58.9     -16   -321    -14    322    323 182.9  -2.6  34260  291.27 0854.35
2009/04/23 15:15:59.0     -67   -337    -56    344    349 191.4  -9.3  34272  291.47 0854.35
2009/04/23 15:15:59.1     -61   -280    -57    287    293 192.3 -11.3  34264  291.34 0854.37
2009/04/23 15:15:59.2    -134   -308     17    336    337 203.5   2.9  34244  291.01 0854.37
2009/04/23 15:15:59.3    -112   -372    122    389    408 196.8  17.5  34264  291.34 0854.37
2009/04/23 15:15:59.4    -237   -342     92    417    428 214.8  12.5  34282  291.65 0854.37
2009/04/23 15:15:59.5    -189   -369    184    415    453 207.1  25.3  34284  291.69 0854.37
2009/04/23 15:15:59.6    -174   -419    240    454    513 202.6  30.2  34278  291.59 0854.37
2009/04/23 15:15:59.7    -157   -412    239    442    502 200.9  30.8  34256  291.20 0854.37
2009/04/23 15:15:59.8    -114   -353    213    372    428 197.9  32.4  34264  291.33 0854.37
2009/04/23 15:15:59.9     -15   -286    272    287    395 183.1  48.4  34250  291.11 0854.37
2009/04/23 15:16:00.0     -64   -254    242    262    356 194.2  47.7  34258  291.23 0854.37
2009/04/23 15:16:00.1     -36   -250    234    253    344 188.2  47.6  34268  291.39 0854.37
2009/04/23 15:16:00.2     -24   -264    266    266    376 185.3  50.1  34258  291.23 0854.37
2009/04/23 15:16:00.3     -74   -377    239    385    453 191.1  34.9  34248  291.06 0854.37
2009/04/23 15:16:00.4     -66   -423    181    429    465 188.9  24.2  34230  290.75 0854.37
2009/04/23 15:16:00.5    -111   -437    106    451    464 194.3  13.2  34230  290.75 0854.37
2009/04/23 15:16:00.6     -76   -476     98    483    494 189.1  11.6  34228  290.73 0854.37
2009/04/23 15:16:00.7     -73   -428    202    435    479 189.7  26.6  34234  290.83 0854.37
2009/04/23 15:16:00.8      31   -433    248    435    500 175.9  32.1  34242  290.96 0854.37
2009/04/23 15:16:00.9     -34   -402    191    404    446 184.9  27.1  34234  290.82 0854.37
2009/04/23 15:16:01.0    -100   -387    120    400    418 194.5  16.7  34226  290.70 0854.38
2009/04/23 15:16:01.1     -96   -321     81    336    346 196.6  13.6  34228  290.72 0854.38
2009/04/23 15:16:01.2    -229   -342    150    412    438 213.9  20.9  34230  290.75 0854.38
2009/04/23 15:16:01.3    -270   -242    151    363    393 228.1  23.9  34242  290.98 0854.38
2009/04/23 15:16:01.4    -213   -352    200    412    457 211.2  27.8  34224  290.65 0854.38
2009/04/23 15:16:01.5    -205   -290    123    356    377 215.2  19.2  34210  290.42 0854.38
2009/04/23 15:16:01.6    -234   -309    129    388    410 217.1  18.5  34200  290.26 0854.38
2009/04/23 15:16:01.7    -332   -392     96    514    523 220.3  10.6  34198  290.21 0854.38
2009/04/23 15:16:01.8    -346   -113     76    365    373 251.8  11.8  34210  290.43 0854.38
2009/04/23 15:16:01.9    -101     77    126    128    179 307.3  50.0  34232  290.79 0854.38
2009/04/23 15:16:02.0     -97   -167     97    194    216 210.3  28.5  34212  290.47 0854.38
2009/04/23 15:16:02.1    -182   -367    173    410    445 206.4  24.2  34206  290.36 0854.38
2009/04/23 15:16:02.2    -138   -392    173    416    450 199.4  23.9  34208  290.38 0854.38
2009/04/23 15:16:02.3    -129   -306    109    333    351 202.8  18.2  34218  290.54 0854.38
2009/04/23 15:16:02.4    -186   -250    137    312    340 216.7  25.1  34220  290.60 0854.38
2009/04/23 15:16:02.5    -184   -308    168    360    397 210.9  26.9  34218  290.55 0854.38
2009/04/23 15:16:02.6    -222   -349    151    415    441 212.5  20.9  34216  290.51 0854.38
2009/04/23 15:16:02.7    -216   -230    134    316    343 223.2  24.3  34218  290.54 0854.38
2009/04/23 15:16:02.8    -169   -177    123    246    275 223.7  28.5  34222  290.63 0854.38
2009/04/23 15:16:02.9      59    -59    157     84    178 135.0  69.6  34234  290.84 0854.38
2009/04/23 15:16:03.0      11    -34     79     36     86 161.3  74.5  34240  290.94 0854.38
2009/04/23 15:16:03.1      59   -108     83    124    149 151.5  37.0  34218  290.57 0854.38
2009/04/23 15:16:03.2      84   -208     48    225    231 158.1  12.2  34216  290.52 0854.38
2009/04/23 15:16:03.3      15   -183     58    184    194 175.3  17.7  34216  290.52 0854.38
2009/04/23 15:16:03.4      81    -51    113     97    148 122.4  55.4  34228  290.72 0854.38
2009/04/23 15:16:03.5      -9   -129    -71    130    148 184.0 -35.7  34206  290.35 0854.38
2009/04/23 15:16:03.6      19   -350     11    351    352 176.9   1.9  34208  290.38 0854.38
2009/04/23 15:16:03.7      20   -308    237    309    389 176.2  41.3  34208  290.37 0854.38
2009/04/23 15:16:03.8     -47   -365    298    368    473 187.4  43.1  34204  290.31 0854.38
2009/04/23 15:16:03.9     -19   -184    229    186    295 186.0  56.6  34200  290.26 0854.38
2009/04/23 15:16:04.0      25   -164    192    167    254 171.1  54.6  34218  290.55 0854.38
2009/04/23 15:16:04.1      -7   -406    303    407    507 181.1  40.2  34196  290.17 0854.38
2009/04/23 15:16:04.2     -48   -632    170    634    657 184.4  15.0  34208  290.40 0854.38
2009/04/23 15:16:04.3     -85   -652    233    658    699 187.5  19.5  34214  290.48 0854.38
2009/04/23 15:16:04.4     112   -624    292    635    698 169.8  26.5  34210  290.43 0854.38
2009/04/23 15:16:04.5      47   -606    364    609    709 175.5  33.6  34196  290.17 0854.38
2009/04/23 15:16:04.6      63   -512    298    516    595 172.9  32.8  34204  290.32 0854.38
2009/04/23 15:16:04.7     175   -286    236    336    410 148.6  38.6  34202  290.27 0854.38
2009/04/23 15:16:04.8     192   -347    316    397    507 151.0  42.6  34214  290.49 0854.38
2009/04/23 15:16:04.9     113   -293    290    315    428 158.8  47.6  34202  290.30 0854.38
2009/04/23 15:16:05.0      51   -326    214    331    394 171.1  36.0  34206  290.35 0854.38
2009/04/23 15:16:05.1      46   -332    222    336    402 172.0  36.5  34216  290.52 0854.38
2009/04/23 15:16:05.2      95   -355    191    368    414 165.0  29.6  34202  290.27 0854.38
2009/04/23 15:16:05.3      21   -274    172    275    324 175.6  35.1  34212  290.44 0854.38
2009/04/23 15:16:05.4    -120   -477    231    492    543 194.2  27.1  34200  290.24 0854.38
2009/04/23 15:16:05.5     -82   -390    423    399    581 192.0  52.1  34186  290.02 0854.38
2009/04/23 15:16:05.6      55   -391    314    396    505 171.9  42.6  34202  290.27 0854.38
2009/04/23 15:16:05.7      99   -322    220    338    403 162.8  36.2  34202  290.30 0854.38
2009/04/23 15:16:05.8     101   -232    238    254    348 156.4  48.0  34208  290.37 0854.38
2009/04/23 15:16:05.9      92   -326    290    339    446 164.2  44.9  34200  290.24 0854.38
2009/04/23 15:16:06.0      87   -256    235    271    358 161.1  45.5  34204  290.33 0854.38
2009/04/23 15:16:06.1     121   -260    226    287    365 155.1  42.3  34202  290.28 0854.38
2009/04/23 15:16:06.2     123   -326    152    349    380 159.3  25.1  34198  290.20 0854.38
2009/04/23 15:16:06.3     129   -454    161    473    500 164.1  18.8  34192  290.10 0854.38
2009/04/23 15:16:06.4     159   -537    216    561    601 163.5  22.1  34186  290.02 0854.38
2009/04/23 15:16:06.5     311   -490    203    581    616 147.6  19.3  34178  289.88 0854.38
2009/04/23 15:16:06.6     364   -405    164    545    570 138.1  16.8  34180  289.92 0854.38
2009/04/23 15:16:06.7     354   -320    338    478    585 132.1  38.6  34184  289.97 0854.38
2009/04/23 15:16:06.8     261   -268    197    375    423 135.8  30.1  34182  289.95 0854.38
2009/04/23 15:16:06.9     206   -157    161    260    305 127.3  35.0  34176  289.85 0854.38
2009/04/23 15:16:07.0     176    -92    210    199    289 117.8  51.6  34192  290.10 0854.38
2009/04/23 15:16:07.1     -13   -111    174    112    206 186.7  64.6  34194  290.14 0854.38
2009/04/23 15:16:07.2     138   -138    117    196    228 135.0  33.5  34188  290.06 0854.38
2009/04/23 15:16:07.3     127   -300     29    326    328 157.1   5.1  34186  290.02 0854.38
2009/04/23 15:16:07.4     -99   -578    126    587    601 189.8  12.1  34194  290.14 0854.38
2009/04/23 15:16:07.5     -97   -577    115    586    598 189.6  11.1  34184  289.97 0854.38
2009/04/23 15:16:07.6     -57   -571    111    574    585 185.8  11.0  34188  290.05 0854.38
2009/04/23 15:16:07.7     -20   -520     84    521    528 182.2   9.2  34190  290.09 0854.38
2009/04/23 15:16:07.8     148   -432     19    457    458 161.1   2.4  34184  289.99 0854.38
2009/04/23 15:16:07.9     304   -115     24    326    327 110.8   4.4  34172  289.76 0854.38
2009/04/23 15:16:08.0     504   -152    164    527    552 106.8  17.3  34174  289.80 0854.39
2009/04/23 15:16:08.1     367   -120    113    387    404 108.2  16.3  34174  289.82 0854.39
2009/04/23 15:16:08.2     317   -246   -181    402    440 127.8 -30.3  34188  290.05 0854.39
2009/04/23 15:16:08.3     327   -381     18    503    504 139.4   2.1  34178  289.88 0854.39
2009/04/23 15:16:08.4     326   -386      2    506    507 139.8   0.3  34176  289.83 0854.39
2009/04/23 15:16:08.5      95   -555     73    564    569 170.2   7.5  34182  289.96 0854.39
2009/04/23 15:16:08.6     230   -274     93    358    370 140.0  14.6  34170  289.74 0854.39
2009/04/23 15:16:08.7     210   -187     72    282    292 131.8  14.3  34168  289.71 0854.39
2009/04/23 15:16:08.8      98    -95     92    137    165 134.0  37.0  34178  289.87 0854.39
2009/04/23 15:16:08.9     146    -59    177    158    237 112.2  53.7  34182  289.96 0854.39
2009/04/23 15:16:09.0     181    -87    123    202    236 115.8  34.2  34182  289.94 0854.39
2009/04/23 15:16:09.1      24   -143    177    146    229 170.3  56.4  34186  290.02 0854.39
2009/04/23 15:16:09.2     -45   -109     56    119    131 202.7  27.1  34186  290.02 0854.39
2009/04/23 15:16:09.3     -59    -59     15     84     86 225.0  10.1  34184  289.99 0854.39
2009/04/23 15:16:09.4       0    -17    -15     18     23 180.9 -50.2  34184  289.97 0854.39
2009/04/23 15:16:09.5      15    -46    -17     49     51 161.7 -23.3  34184  289.99 0854.39
2009/04/23 15:16:09.6      -1    -75    -49     76     90 180.9 -40.0  34184  289.99 0854.39
2009/04/23 15:16:09.7      37    -36    -17     52     54 134.0 -23.8  34186  290.01 0854.39
2009/04/23 15:16:09.8      81     37     -3     90     91  65.6  -2.2  34186  290.02 0854.39
2009/04/23 15:16:09.9      30     65      8     72     73  25.3   6.9  34186  290.01 0854.39
2009/04/23 15:16:10.0     -35     12     39     38     54 290.0  49.1  34196  290.18 0854.41
2009/04/23 15:16:10.1     -48     -3     61     49     78 265.6  56.4  34206  290.35 0854.41
2009/04/23 15:16:10.2     -30     -9    121     32    125 253.2  84.9  34204  290.31 0854.41
2009/04/23 15:16:10.3     -90    109     81    142    163 320.3  32.4  34188  290.04 0854.41
2009/04/23 15:16:10.4      51    142     92    152    177  20.0  34.2  34190  290.08 0854.41
2009/04/23 15:16:10.5     109   -123    196    165    256 138.6  55.8  34192  290.11 0854.41
2009/04/23 15:16:10.6     172   -147    221    227    316 130.7  49.3  34176  289.85 0854.41
2009/04/23 15:16:10.7       2      0    133      3    133  71.6  90.0  34204  290.31 0854.41
2009/04/23 15:16:10.8       1     58    147     59    158   1.8  77.1  34200  290.26 0854.41
2009/04/23 15:16:10.9     -61     39    130     73    149 302.5  68.8  34204  290.31 0854.41
2009/04/23 15:16:11.0      43      2    117     44    125  86.5  79.2  34190  290.08 0854.41
2009/04/23 15:16:11.1     -16      6    123     18    124 291.7  90.0  34206  290.35 0854.41
2009/04/23 15:16:11.2      30     12    143     33    146  68.3  87.5  34214  290.48 0854.41
2009/04/23 15:16:11.3     160    144    187    216    285  48.0  45.4  34194  290.14 0854.41
2009/04/23 15:16:11.4     145    144    201    205    287  45.1  49.8  34200  290.26 0854.41
2009/04/23 15:16:11.5     166      3    143    167    219  88.7  45.1  34208  290.38 0854.41
2009/04/23 15:16:11.6     150     70    236    166    288  64.9  61.5  34206  290.34 0854.41
2009/04/23 15:16:11.7      75     71    144    104    177  46.4  60.6  34226  290.70 0854.41
2009/04/23 15:16:11.8     116     -4    269    117    293  92.1  75.0  34204  290.32 0854.41
2009/04/23 15:16:11.9     172     22    328    174    371  82.5  69.8  34220  290.59 0854.41
2009/04/23 15:16:12.0     385    -64    226    391    451  99.5  32.6  34200  290.24 0854.42
2009/04/23 15:16:12.1     337   -224    154    405    433 123.6  21.8  34196  290.19 0854.42
2009/04/23 15:16:12.2     242   -345    156    422    449 144.9  21.1  34194  290.16 0854.42
2009/04/23 15:16:12.3     323   -366    109    489    502 138.6  12.6  34182  289.95 0854.42
2009/04/23 15:16:12.4     273   -634     96    691    698 156.7   7.9  34176  289.85 0854.42
2009/04/23 15:16:12.5     424   -653    220    779    810 147.0  15.8  34180  289.90 0854.42
2009/04/23 15:16:12.6     348   -466    317    582    662 143.3  31.0  34192  290.11 0854.42
2009/04/23 15:16:12.7     449   -432    229    624    664 133.9  21.0  34188  290.03 0854.42
2009/04/23 15:16:12.8     281   -329    360    433    563 139.5  43.8  34188  290.06 0854.42
2009/04/23 15:16:12.9     200   -398    370    446    579 153.3  43.8  34190  290.09 0854.42
2009/04/23 15:16:13.0      82   -364    304    374    481 167.2  43.3  34190  290.07 0854.42
2009/04/23 15:16:13.1     -11   -366    227    367    431 181.8  34.5  34186  290.02 0854.42
2009/04/23 15:16:13.2    -235   -328    112    404    420 215.6  15.6  34182  289.95 0854.42
2009/04/23 15:16:13.3    -150   -307     76    342    351 206.1  12.6  34182  289.96 0854.42
2009/04/23 15:16:13.4    -124   -394    -25    414    415 197.5  -3.5  34204  290.33 0854.42
2009/04/23 15:16:13.5    -297   -698      2    759    760 203.1   0.2  34186  290.02 0854.42
2009/04/23 15:16:13.6     -26   -529     15    530    531 182.9   1.7  34190  290.07 0854.42
2009/04/23 15:16:13.7     164   -512    104    538    549 162.2  11.0  34184  289.99 0854.42
2009/04/23 15:16:13.8     206   -479    125    522    537 156.7  13.5  34186  290.02 0854.42
2009/04/23 15:16:13.9     256   -528    205    587    622 154.1  19.3  34178  289.86 0854.42
2009/04/23 15:16:14.0     109   -425     64    439    444 165.6   8.3  34168  289.72 0854.42
2009/04/23 15:16:14.2     -76   -309     44    319    323 193.8   7.9  34180  289.90 0854.42
2009/04/23 15:16:14.3     -44   -281     67    285    293 188.9  13.2  34180  289.90 0854.42
2009/04/23 15:16:14.4    -109   -330     81    348    358 198.3  13.2  34182  289.93 0854.42
2009/04/23 15:16:14.5     -66   -218     46    228    233 196.9  11.6  34184  289.97 0854.42
2009/04/23 15:16:14.6      91    -58    160    108    193 122.5  63.2  34200  290.25 0854.42
2009/04/23 15:16:14.7     -25   -196     25    198    200 187.3   7.2  34194  290.16 0854.42
2009/04/23 15:16:14.8    -133   -269     42    301    305 206.3   8.0  34194  290.14 0854.42
2009/04/23 15:16:14.9    -149   -242     95    285    301 211.6  18.5  34196  290.19 0854.42
2009/04/23 15:16:15.0      17   -123     52    125    135 171.9  23.6  34198  290.21 0854.42
2009/04/23 15:16:15.1      71     23    -31     75     81  71.4 -28.0  34202  290.30 0854.42
2009/04/23 15:16:15.2     154     45    -52    161    170  73.6 -18.1  34198  290.23 0854.42
2009/04/23 15:16:15.3     185    -85   -126    204    239 114.8 -38.9  34200  290.26 0854.42
2009/04/23 15:16:15.4      43   -139   -187    146    237 162.6 -62.8  34212  290.47 0854.42
2009/04/23 15:16:15.5     110    -47   -184    120    219 113.5 -68.5  34202  290.30 0854.42
2009/04/23 15:16:15.6     146    -86   -201    170    263 120.6 -60.0  34196  290.17 0854.42
2009/04/23 15:16:15.7     261   -160   -128    307    332 121.5 -28.2  34184  289.98 0854.42
2009/04/23 15:16:15.8     285   -145    -63    320    327 117.0 -11.1  34184  289.97 0854.42
2009/04/23 15:16:15.9     112   -194     11    225    226 149.9   2.9  34192  290.13 0854.42
2009/04/23 15:16:16.0     107   -170    -43    202    207 147.7 -12.2  34198  290.23 0854.42
2009/04/23 15:16:16.1     156    -77    -69    175    188 116.4 -27.2  34198  290.21 0854.44
2009/04/23 15:16:16.2     158   -141     58    213    221 131.8  15.3  34196  290.18 0854.44
2009/04/23 15:16:16.3     237    -97    160    257    302 112.2  35.2  34182  289.93 0854.44
2009/04/23 15:16:16.4     208    -23    -36    210    214  96.4  -9.8  34178  289.89 0854.44
2009/04/23 15:16:16.5     422   -192    -92    464    474 114.5 -11.2  34186  290.00 0854.44
2009/04/23 15:16:16.6     381   -200     11    431    432 117.7   1.5  34188  290.04 0854.44
2009/04/23 15:16:16.7     419   -220     61    474    478 117.7   7.4  34188  290.03 0854.44
2009/04/23 15:16:16.8     359   -105    174    375    413 106.4  26.6  34198  290.23 0854.44
2009/04/23 15:16:16.9     288      8    197    289    349  88.3  37.4  34218  290.55 0854.44
2009/04/23 15:16:17.0     200     98    196    224    297  63.8  45.8  34250  291.09 0854.44
2009/04/23 15:16:17.1     214     71    164    226    279  71.4  39.7  34284  291.67 0854.44
2009/04/23 15:16:17.2     160     -4    127    161    205  91.7  42.4  34242  290.98 0854.44
2009/04/23 15:16:17.3      95      1    155     96    182  89.2  65.1  34246  291.03 0854.44
2009/04/23 15:16:17.4      75     43    140     87    164  59.8  65.1  34272  291.49 0854.44
2009/04/23 15:16:17.5      43     42    118     61    132  46.0  70.8  34278  291.59 0854.44
2009/04/23 15:16:17.6     -16     53     57     56     79 343.1  50.1  34286  291.71 0854.44
2009/04/23 15:16:17.7     -49    165    122    173    211 343.5  38.4  34264  291.35 0854.44
2009/04/23 15:16:17.8    -220    182     77    286    297 309.6  15.2  34280  291.60 0854.44
2009/04/23 15:16:17.9       9    -89     31     90     96 173.8  19.4  34246  291.04 0854.44
2009/04/23 15:16:18.0     -55   -153      8    163    164 200.0   2.9  34234  290.84 0854.44
2009/04/23 15:16:18.1     -62    -71    110     95    145 221.0  54.8  34258  291.23 0854.45
2009/04/23 15:16:18.2     -94    -48     85    106    135 242.9  43.3  34254  291.18 0854.45
2009/04/23 15:16:18.3    -110    -47    100    120    156 246.5  44.3  34256  291.20 0854.45
2009/04/23 15:16:18.4    -144   -101     73    176    190 234.9  23.6  34248  291.06 0854.45
2009/04/23 15:16:18.5     -70    -52     45     88     98 233.6  28.7  34266  291.38 0854.45
2009/04/23 15:16:18.6     -17     33     64     38     74 332.8  64.7  34280  291.60 0854.45
2009/04/23 15:16:18.7     -25     95     78     99    126 345.3  42.2  34322  292.34 0854.45
2009/04/23 15:16:18.8       6    136     56    137    148   2.6  23.1  34330  292.46 0854.45
2009/04/23 15:16:18.9      87     98     75    132    151  41.4  31.9  34264  291.35 0854.45
2009/04/23 15:16:19.0      67     60    146     91    172  48.2  65.1  34276  291.54 0854.45
2009/04/23 15:16:19.1     145    -23    173    147    227  99.2  55.6  34244  290.99 0854.45
2009/04/23 15:16:19.2     103     34    116    109    159  71.4  52.0  34268  291.42 0854.45
2009/04/23 15:16:19.3     -14    -72    193     74    206 191.5  78.2  34228  290.72 0854.45
2009/04/23 15:16:19.4      53     83    155     99    183  32.5  64.6  34302  291.98 0854.45
2009/04/23 15:16:19.5     127     89    223    156    272  54.9  61.8  34352  292.84 0854.45
2009/04/23 15:16:19.6      69     61    194     93    215  48.2  72.8  34350  292.80 0854.45
2009/04/23 15:16:19.7     136    103    245    171    298  52.9  61.7  34344  292.70 0854.45
2009/04/23 15:16:19.8      70    111    198    132    237  32.5  63.2  34308  292.10 0854.45
2009/04/23 15:16:19.9      66    -61    187     90    207 132.7  72.8  34274  291.50 0854.45
2009/04/23 15:16:20.0     183   -122    193    220    292 123.7  45.8  34244  291.00 0854.45
2009/04/23 15:16:20.1     123    -83    202    149    251 124.1  60.0  34224  290.67 0854.45
2009/04/23 15:16:20.2      97    -32    173    103    201 108.6  66.4  34246  291.03 0854.45
2009/04/23 15:16:20.3     109    -14    173    110    205  97.5  64.7  34256  291.20 0854.45
2009/04/23 15:16:20.4     113     54    137    126    186  64.6  52.7  34290  291.77 0854.45
2009/04/23 15:16:20.5     -50     30    221     59    228 300.7  84.9  34248  291.08 0854.45
2009/04/23 15:16:20.6      95    -22    222     98    242 103.3  74.9  34226  290.70 0854.45
2009/04/23 15:16:20.7     257   -272    293    375    475 136.7  42.0  34200  290.24 0854.45
2009/04/23 15:16:20.8     207   -340    239    399    465 148.6  33.7  34190  290.07 0854.45
2009/04/23 15:16:20.9     198   -355    285    407    496 150.9  38.5  34188  290.03 0854.45
2009/04/23 15:16:21.0     223   -283    280    361    456 141.8  41.7  34194  290.14 0854.45
2009/04/23 15:16:21.1     349   -237    247    423    489 124.2  32.9  34198  290.20 0854.45
2009/04/23 15:16:21.2     356   -206    127    412    432 120.0  17.2  34188  290.05 0854.45
2009/04/23 15:16:21.3     182   -182    164    258    305 135.0  35.5  34190  290.09 0854.45
2009/04/23 15:16:21.4     177   -105    191    206    280 120.7  47.9  34204  290.31 0854.45
2009/04/23 15:16:21.5     246   -156    156    292    331 122.4  30.6  34184  289.98 0854.45
2009/04/23 15:16:21.6     188   -200    112    275    296 136.7  23.1  34182  289.95 0854.45
2009/04/23 15:16:21.7     243   -151    190    287    344 121.8  36.5  34194  290.15 0854.45
2009/04/23 15:16:21.8     198   -172    192    263    325 131.1  39.8  34220  290.58 0854.45
2009/04/23 15:16:21.9     171   -200    145    264    301 139.4  31.3  34200  290.24 0854.45
2009/04/23 15:16:22.0      89   -207    129    226    260 156.8  32.3  34202  290.29 0854.45
2009/04/23 15:16:22.1      99    -83     75    130    150 130.0  32.4  34198  290.23 0854.44
2009/04/23 15:16:22.2      18   -115    146    117    187 171.1  56.9  34202  290.30 0854.44
2009/04/23 15:16:22.3     -31   -147    145    151    209 192.0  49.2  34206  290.36 0854.44
2009/04/23 15:16:22.4       9   -118    152    119    193 175.6  57.9  34206  290.35 0854.44
2009/04/23 15:16:22.5     -79   -171     82    189    206 204.7  25.1  34212  290.45 0854.44
2009/04/23 15:16:22.6     -21   -126    142    128    191 189.7  53.3  34212  290.45 0854.44
2009/04/23 15:16:22.7     -30    -91    130     96    161 198.3  59.8  34218  290.57 0854.44
2009/04/23 15:16:22.8     -15   -197    252    198    320 184.4  57.9  34216  290.53 0854.44
2009/04/23 15:16:22.9     -98   -220    113    242    267 204.1  27.1  34208  290.37 0854.44
2009/04/23 15:16:23.0    -112   -167    190    202    277 213.8  48.0  34212  290.44 0854.44
2009/04/23 15:16:23.1      30   -170    203    173    266 169.8  55.4  34214  290.48 0854.44
2009/04/23 15:16:23.2      17   -187    214    188    284 174.7  54.3  34214  290.48 0854.44
2009/04/23 15:16:23.3     -12   -198    200    199    282 183.6  50.1  34206  290.34 0854.44
2009/04/23 15:16:23.4      27   -168    172    171    242 170.7  50.1  34208  290.38 0854.44
2009/04/23 15:16:23.5     -10   -323    187    324    374 181.8  32.7  34192  290.10 0854.44
2009/04/23 15:16:23.6      87   -312    158    324    360 164.4  27.9  34190  290.08 0854.44
2009/04/23 15:16:23.7     185   -383    167    426    457 154.1  22.7  34186  290.00 0854.44
2009/04/23 15:16:23.8     163   -356    280    392    481 155.4  39.1  34190  290.09 0854.44
2009/04/23 15:16:23.9     164   -266    223    313    384 148.4  39.1  34192  290.10 0854.44
2009/04/23 15:16:24.0       0   -263    174    264    316 180.0  36.6  34192  290.12 0854.44
2009/04/23 15:16:24.1      62   -278    159    285    326 167.3  31.7  34190  290.09 0854.43
2009/04/23 15:16:24.2      -1   -408    228    409    468 180.3  31.7  34180  289.90 0854.43
2009/04/23 15:16:24.3      39   -400    143    402    427 174.4  19.6  34182  289.95 0854.43
2009/04/23 15:16:24.4     -29   -389    104    391    405 184.4  14.9  34184  289.99 0854.43
2009/04/23 15:16:24.5     -57   -416     96    420    431 187.9  12.9  34184  289.97 0854.43
2009/04/23 15:16:24.6     -88   -327     19    339    340 195.1   3.3  34186  290.01 0854.43
2009/04/23 15:16:24.7    -100   -308     59    324    330 198.1  10.3  34198  290.20 0854.43
2009/04/23 15:16:24.8     -50   -246     93    252    268 191.6  21.0  34196  290.19 0854.43
2009/04/23 15:16:24.9     150   -102    104    182    209 124.2  32.4  34194  290.16 0854.43
2009/04/23 15:16:25.0     275   -187    136    333    359 124.2  23.5  34204  290.33 0854.43
2009/04/23 15:16:25.1     263   -178    203    318    377 124.1  35.6  34202  290.30 0854.44
2009/04/23 15:16:25.2     -34   -375    207    377    430 185.3  31.3  34180  289.92 0854.44
2009/04/23 15:16:25.3     -10   -391    138    392    416 181.5  19.5  34192  290.11 0854.44
2009/04/23 15:16:25.4     -53   -377    129    381    403 188.1  18.8  34190  290.08 0854.44
2009/04/23 15:16:25.5     -61   -258    114    266    289 193.4  24.9  34194  290.14 0854.44
2009/04/23 15:16:25.6     -76   -129    -24    150    153 210.7  -9.3  34190  290.08 0854.44
2009/04/23 15:16:25.7       0    -94    -27     95     99 180.5 -16.0  34190  290.09 0854.44
2009/04/23 15:16:25.8     -36   -210    -92    214    232 189.7 -29.3  34194  290.16 0854.44
2009/04/23 15:16:25.9      24   -315    -66    316    323 175.6 -11.9  34172  289.76 0854.44
2009/04/23 15:16:26.0      56   -252     40    259    263 167.5   8.8  34172  289.76 0854.44
2009/04/23 15:16:26.1       6   -218    141    219    260 178.4  35.6  34180  289.92 0854.44
2009/04/23 15:16:26.2     -14    -47    170     50    177 196.9  83.3  34202  290.30 0854.44
2009/04/23 15:16:26.3     -21     56    126     60    139 339.1  72.8  34216  290.53 0854.44
2009/04/23 15:16:26.4      -5     71     98     72    121 355.6  60.0  34222  290.62 0854.44
2009/04/23 15:16:26.5      53     55     88     77    116  44.2  54.3  34212  290.47 0854.44
2009/04/23 15:16:26.6     144     38     99    150    179  75.0  36.5  34196  290.19 0854.44
2009/04/23 15:16:26.7      82     61     73    103    126  53.1  39.1  34198  290.23 0854.44
2009/04/23 15:16:26.8      51    -31     99     60    115 121.5  65.1  34202  290.30 0854.44
2009/04/23 15:16:26.9     -19    -12     83     23     86 235.8  83.9  34208  290.38 0854.44
2009/04/23 15:16:27.0     -27     43     83     51     97 327.5  64.7  34220  290.60 0854.44
2009/04/23 15:16:27.1      96     96    116    137    179  45.0  44.5  34210  290.41 0854.43
2009/04/23 15:16:27.2     167    106    103    199    224  57.5  29.5  34198  290.21 0854.43
2009/04/23 15:16:27.3     211     66     57    222    230  72.5  14.5  34182  289.94 0854.43
2009/04/23 15:16:27.4     189     17    134    190    232  84.8  38.6  34186  290.01 0854.43
2009/04/23 15:16:27.5      46    -27     77     54     94 120.7  62.1  34198  290.23 0854.43
2009/04/23 15:16:27.6     -28   -166     93    169    192 189.6  31.4  34180  289.92 0854.43
2009/04/23 15:16:27.7     -57   -204     57    213    221 195.8  15.0  34182  289.96 0854.43
2009/04/23 15:16:27.8     -86   -246     35    261    264 199.4   7.8  34172  289.76 0854.43
2009/04/23 15:16:27.9    -145   -141     17    203    204 225.8   4.9  34184  289.99 0854.43
2009/04/23 15:16:28.0     -81   -193     66    210    221 202.9  17.4  34172  289.79 0854.43
2009/04/23 15:16:28.1    -143   -257    -16    295    296 209.2  -3.1  34170  289.75 0854.43
2009/04/23 15:16:28.2    -156    -80    -62    176    187 242.9 -19.7  34178  289.89 0854.43
2009/04/23 15:16:28.3     -74    -25     14     79     81 251.4  10.6  34184  289.97 0854.43
2009/04/23 15:16:28.4     -45    -35     65     58     87 232.2  53.3  34186  290.01 0854.43
2009/04/23 15:16:28.5     -73    -40     82     84    117 241.1  49.9  34194  290.14 0854.43
2009/04/23 15:16:28.6     -52     11     75     54     92 282.4  60.5  34198  290.21 0854.43
2009/04/23 15:16:28.7      -3     62     78     63    100 356.4  56.9  34200  290.26 0854.43
2009/04/23 15:16:28.8     -28      9     66     30     72 288.6  73.1  34204  290.31 0854.43
2009/04/23 15:16:28.9     -42    -72    117     84    144 210.7  60.6  34194  290.16 0854.43
2009/04/23 15:16:29.0      31    -79     75     85    113 158.6  46.4  34192  290.13 0854.43
2009/04/23 15:16:29.1     -81   -156    107    176    205 207.4  34.2  34186  290.02 0854.44
2009/04/23 15:16:29.2     -47   -233    110    238    262 191.6  26.4  34184  289.97 0854.44
2009/04/23 15:16:29.3     -81   -263    173    276    325 197.2  35.1  34182  289.95 0854.44
2009/04/23 15:16:29.4    -128   -360    182    383    424 199.6  27.2  34188  290.04 0854.44
2009/04/23 15:16:29.5    -304   -294     74    424    431 226.0  10.0  34186  290.00 0854.44
2009/04/23 15:16:29.6    -301   -282    158    413    442 226.9  22.0  34192  290.11 0854.44
2009/04/23 15:16:29.7    -256   -356    205    439    484 215.7  26.9  34206  290.34 0854.44
2009/04/23 15:16:29.8     -17   -282    302    283    413 183.6  52.1  34208  290.40 0854.44
2009/04/23 15:16:29.9       0   -233     73    234    246 179.8  17.3  34210  290.41 0854.44
2009/04/23 15:16:30.0      32    -81    151     88    174 158.2  67.0  34222  290.62 0854.44
2009/04/23 15:16:30.1    -143    208    149    253    293 325.5  33.4  34242  290.97 0854.44
2009/04/23 15:16:30.2      -7    -22    186     24    187 198.3  90.0  34234  290.84 0854.44
2009/04/23 15:16:30.3      33     70    144     78    163  25.3  69.1  34232  290.81 0854.44
2009/04/23 15:16:30.4    -129    -61     85    143    166 244.6  33.5  34234  290.82 0854.44
2009/04/23 15:16:30.5    -130   -175    137    219    258 216.5  35.2  34216  290.53 0854.44
2009/04/23 15:16:30.6      13   -210    106    211    236 176.2  28.5  34216  290.52 0854.44
2009/04/23 15:16:30.7      19   -137    177    139    225 171.9  57.7  34240  290.94 0854.44
2009/04/23 15:16:30.8     -99   -147    207    178    273 214.1  55.0  34206  290.34 0854.44
2009/04/23 15:16:30.9     -59   -229    124    237    267 194.5  29.8  34216  290.51 0854.44
2009/04/23 15:16:31.0     -37   -182     74    186    200 191.6  23.0  34198  290.21 0854.44
2009/04/23 15:16:31.1    -111   -215      2    243    244 207.4   0.5  34194  290.14 0854.44
2009/04/23 15:16:31.2     -34   -114    -74    120    140 196.9 -39.4  34170  289.75 0854.44
2009/04/23 15:16:31.3    -136    -49    107    145    180 250.0  40.1  34170  289.75 0854.44
2009/04/23 15:16:31.4     -10   -136     52    137    146 184.4  21.5  34172  289.79 0854.44
2009/04/23 15:16:31.5     -50   -149     19    158    160 198.7   6.9  34164  289.63 0854.44
2009/04/23 15:16:31.6    -152    -77     30    171    174 243.1  10.1  34170  289.75 0854.44
2009/04/23 15:16:31.7    -141   -109     73    179    193 232.2  23.1  34170  289.74 0854.44
2009/04/23 15:16:31.8     -56   -168     -5    178    179 198.5  -1.8  34164  289.65 0854.44
2009/04/23 15:16:31.9    -204   -101     63    228    237 243.6  15.6  34172  289.76 0854.44
2009/04/23 15:16:32.0    -221    -89     72    239    250 248.0  16.8  34176  289.85 0854.44
2009/04/23 15:16:32.1    -203   -185      7    275    276 227.6   1.6  34178  289.88 0854.44
2009/04/23 15:16:32.2    -204   -138     56    247    254 235.9  12.9  34188  290.03 0854.44
2009/04/23 15:16:32.3    -153   -143     83    210    225 226.9  23.0  34192  290.13 0854.44
2009/04/23 15:16:32.4    -184    -89     98    205    227 244.2  27.2  34188  290.04 0854.44
2009/04/23 15:16:32.5    -245    -49     95    250    267 258.5  22.0  34200  290.24 0854.44
2009/04/23 15:16:32.6    -402    -20    134    403    426 267.1  18.5  34230  290.75 0854.44
2009/04/23 15:16:32.7    -419    -73    171    426    459 260.0  23.0  34226  290.68 0854.44
2009/04/23 15:16:32.8    -457   -234     90    514    523 242.9  10.0  34232  290.79 0854.44
2009/04/23 15:16:32.9    -414   -268     61    494    498 237.0   7.1  34176  289.84 0854.44
2009/04/23 15:16:33.0    -412   -175     55    448    452 247.0   7.1  34196  290.17 0854.43
2009/04/23 15:16:33.1    -367   -176     80    408    416 244.3  11.1  34216  290.53 0854.43
2009/04/23 15:16:33.2    -367   -146    -51    396    400 248.3  -7.4  34230  290.76 0854.43
2009/04/23 15:16:33.3    -350   -310   -204    468    510 228.5 -29.5  34222  290.62 0854.43
2009/04/23 15:16:33.4    -397   -550   -195    679    707 215.9 -16.1  34218  290.54 0854.43
2009/04/23 15:16:33.5    -412   -489   -139    640    656 220.1 -12.3  34204  290.32 0854.43
2009/04/23 15:16:33.6    -410   -406   -217    578    617 225.3 -26.0  34222  290.63 0854.43
2009/04/23 15:16:33.7    -644   -410   -316    764    826 237.5 -28.1  34244  291.01 0854.43
2009/04/23 15:16:33.8    -546   -462   -240    716    756 229.8 -18.6  34214  290.50 0854.43
2009/04/23 15:16:33.9    -592   -443   -229    740    775 233.2 -17.2  34218  290.57 0854.43
2009/04/23 15:16:34.0    -310   -496    -63    586    590 212.0  -6.2  34210  290.41 0854.43
2009/04/23 15:16:34.1    -136   -471    112    491    504 196.1  12.9  34216  290.52 0854.43
2009/04/23 15:16:34.2    -195   -461   -169    501    530 202.9 -18.7  34216  290.53 0854.43
2009/04/23 15:16:34.3     -14   -403   -243    404    471 182.0 -38.2  34190  290.07 0854.43
2009/04/23 15:16:34.4     133   -387   -289    410    501 160.9 -43.0  34176  289.83 0854.43
2009/04/23 15:16:34.5     415   -442     90    607    614 136.8   8.5  34182  289.95 0854.43
2009/04/23 15:16:34.6     183   -577     30    606    607 162.4   2.9  34180  289.90 0854.43
2009/04/23 15:16:34.7     181   -568    105    597    607 162.3  10.0  34188  290.05 0854.43
2009/04/23 15:16:34.8      -8   -526    129    527    543 180.9  13.8  34190  290.09 0854.43
2009/04/23 15:16:34.9     -58   -556    205    560    596 186.0  21.0  34194  290.15 0854.43
2009/04/23 15:16:35.0    -146   -721    202    736    764 191.5  15.4  34182  289.94 0854.39
2009/04/23 15:16:35.1    -150   -636    103    654    663 193.3   9.0  34180  289.92 0854.39
2009/04/23 15:16:35.2    -148   -621    149    639    657 193.4  13.1  34172  289.79 0854.39
2009/04/23 15:16:35.3    -165   -625    123    647    659 194.8  10.8  34174  289.82 0854.39
2009/04/23 15:16:35.4    -126   -800     53    811    813 189.0   3.8  34190  290.09 0854.39
2009/04/23 15:16:35.5     -72   -725     -3    729    730 185.7  -0.3  34198  290.23 0854.39
2009/04/23 15:16:35.6    -147   -596    -62    614    618 193.9  -5.8  34188  290.04 0854.39
2009/04/23 15:16:35.7    -104   -653     -2    662    663 189.1  -0.2  34194  290.16 0854.39
2009/04/23 15:16:35.8      -9   -579    -12    580    581 180.9  -1.3  34190  290.07 0854.39
2009/04/23 15:16:35.9    -284   -593    -25    658    659 205.7  -2.2  34196  290.17 0854.39
2009/04/23 15:16:36.0    -386   -526    131    653    667 216.3  11.3  34196  290.19 0854.39
2009/04/23 15:16:36.1    -500   -521    -67    723    727 223.8  -5.3  34216  290.52 0854.39
2009/04/23 15:16:36.2    -457   -523    -28    695    696 221.1  -2.4  34208  290.39 0854.39
2009/04/23 15:16:36.3    -465   -550   -168    721    741 220.2 -13.1  34190  290.07 0854.39
2009/04/23 15:16:36.4    -462   -508     34    687    688 222.3   2.9  34200  290.24 0854.39
2009/04/23 15:16:36.5    -487   -641    -35    806    807 217.2  -2.5  34198  290.21 0854.39
2009/04/23 15:16:36.6    -531   -539   -184    757    779 224.5 -13.7  34200  290.25 0854.39
2009/04/23 15:16:36.7    -428   -618   -212    752    782 214.7 -15.8  34196  290.19 0854.39
2009/04/23 15:16:36.8    -545   -242   -114    597    608 246.0 -10.8  34206  290.34 0854.39
2009/04/23 15:16:36.9    -515    -72   -213    521    562 262.0 -27.9  34196  290.19 0854.39
2009/04/23 15:16:37.0    -585   -155    -34    606    607 255.1  -3.3  34212  290.47 0854.40
2009/04/23 15:16:37.1    -732   -117   -100    742    749 260.9  -7.7  34196  290.19 0854.40
2009/04/23 15:16:37.2    -684   -219   -201    719    746 252.2 -20.3  34152  289.45 0854.40
2009/04/23 15:16:37.3    -674   -165   -215    695    728 256.2 -17.2  34160  289.57 0854.40
2009/04/23 15:16:37.4    -577   -366    -45    684    686 237.6  -3.8  34186  290.00 0854.40
2009/04/23 15:16:37.5    -532   -385    -25    657    658 234.1  -2.2  34228  290.72 0854.40
2009/04/23 15:16:37.6    -358   -385     54    526    529 222.9   5.9  34212  290.46 0854.40
2009/04/23 15:16:37.7    -446   -363     30    576    577 230.9   3.0  34202  290.27 0854.40
2009/04/23 15:16:37.8    -535   -414    -26    677    678 232.3  -2.2  34192  290.12 0854.40
2009/04/23 15:16:37.9    -382   -362    113    527    540 226.5  12.2  34196  290.19 0854.40
2009/04/23 15:16:38.0    -291   -261    108    392    407 228.1  15.4  34198  290.21 0854.40
2009/04/23 15:16:38.1    -323   -154    -14    358    359 244.5  -2.3  34156  289.52 0854.40
2009/04/23 15:16:38.2    -568   -207     75    605    610 250.0   7.1  34174  289.81 0854.40
2009/04/23 15:16:38.3    -516   -124    -48    531    534 256.5  -5.2  34200  290.26 0854.40
2009/04/23 15:16:38.4    -525    115   -159    538    562 282.4 -16.5  34186  290.02 0854.40
2009/04/23 15:16:38.5    -563   -121    -58    577    581 257.8  -5.8  34194  290.14 0854.40
2009/04/23 15:16:38.6    -509   -141    -74    529    535 254.5  -8.0  34174  289.80 0854.40
2009/04/23 15:16:38.7    -519   -233    -51    569    572 245.8  -5.2  34192  290.12 0854.40
2009/04/23 15:16:38.8    -519   -227   -218    567    607 246.4 -26.6  34174  289.81 0854.40
2009/04/23 15:16:38.9    -585   -322   -258    668    716 241.2 -26.7  34172  289.76 0854.40
2009/04/23 15:16:39.0    -511   -322   -204    604    637 237.8 -23.8  34206  290.35 0854.38
2009/04/23 15:16:39.1    -634   -413   -199    757    783 236.9 -14.8  34178  289.86 0854.38
2009/04/23 15:16:39.2    -578   -318   -108    660    669 241.2  -9.3  34214  290.49 0854.38
2009/04/23 15:16:39.3    -567   -306    -37    645    647 241.6  -3.3  34194  290.15 0854.38
2009/04/23 15:16:39.4    -580   -253    -48    634    636 246.4  -4.4  34214  290.50 0854.38
2009/04/23 15:16:39.5    -574   -261    -65    631    635 245.5  -5.9  34210  290.43 0854.38
2009/04/23 15:16:39.6    -457   -261    -43    527    529 240.3  -4.7  34212  290.46 0854.38
2009/04/23 15:16:39.7    -430   -246     10    496    497 240.3   1.2  34208  290.39 0854.38
2009/04/23 15:16:39.8    -418   -174      6    453    454 247.4   0.8  34224  290.67 0854.38
2009/04/23 15:16:39.9    -408   -136    -28    431    432 251.5  -3.8  34218  290.56 0854.38
2009/04/23 15:16:40.0    -421    -30   -117    423    440 265.9 -15.5  34214  290.50 0854.38
2009/04/23 15:16:40.1    -359    -56   -177    364    404 261.1 -32.2  34210  290.42 0854.38
2009/04/23 15:16:40.2    -304    -74   -117    313    334 256.3 -25.9  34218  290.54 0854.38
2009/04/23 15:16:40.3    -174      9   -143    175    225 273.0 -48.1  34214  290.48 0854.38
2009/04/23 15:16:40.4    -244     -7   -193    245    311 268.3 -46.6  34220  290.59 0854.38
2009/04/23 15:16:40.5    -212    -94    -84    232    246 246.0 -25.3  34222  290.61 0854.38
2009/04/23 15:16:40.6     -54    -57      6     79     80 223.2   4.4  34220  290.58 0854.38
2009/04/23 15:16:40.7     -55    -87    -40    104    111 212.5 -26.4  34216  290.53 0854.38
2009/04/23 15:16:40.8    -213     -3    -91    214    232 269.0 -28.7  34202  290.28 0854.38
2009/04/23 15:16:41.0    -123     82   -115    149    188 303.7 -46.1  34202  290.30 0854.38
2009/04/23 15:16:41.0    -281    107    -93    301    316 290.9 -17.2  34204  290.31 0854.40
2009/04/23 15:16:41.2    -342     89    -71    354    362 284.6 -11.3  34202  290.27 0854.40
2009/04/23 15:16:41.3    -318    106   -132    336    361 288.4 -27.1  34206  290.35 0854.40
2009/04/23 15:16:41.4    -337   -113      7    356    357 251.4   1.2  34208  290.40 0854.40
2009/04/23 15:16:41.5    -319     34    -58    321    327 276.3 -10.4  34212  290.46 0854.40
2009/04/23 15:16:41.6    -384     58   -104    389    403 278.6 -15.1  34208  290.38 0854.40
2009/04/23 15:16:41.7    -362    178   -138    404    426 296.2 -23.8  34234  290.84 0854.40
2009/04/23 15:16:41.8    -311    126   -236    336    410 292.2 -43.0  34220  290.59 0854.40
2009/04/23 15:16:41.9    -387     29   -151    389    417 274.4 -26.8  34216  290.51 0854.40
2009/04/23 15:16:42.0    -435     64    -56    440    444 278.4  -7.3  34240  290.94 0854.40
2009/04/23 15:16:42.1    -387     70     19    394    395 280.4   2.8  34240  290.94 0854.40
2009/04/23 15:16:42.2    -194    160     11    252    253 309.6   2.5  34240  290.93 0854.40
2009/04/23 15:16:42.3    -213    251    -43    330    333 319.7  -7.5  34244  291.01 0854.40
2009/04/23 15:16:42.4    -319    189     79    371    380 300.7  12.1  34226  290.69 0854.40
2009/04/23 15:16:42.5    -310    261     20    406    407 310.0   2.9  34234  290.84 0854.40
2009/04/23 15:16:42.6    -408     55   -146    412    438 277.7 -19.6  34210  290.41 0854.40
2009/04/23 15:16:42.7    -412    151    -41    440    443 290.2  -5.4  34238  290.90 0854.40
2009/04/23 15:16:42.8    -465     24     73    466    472 273.0   9.0  34246  291.03 0854.40
2009/04/23 15:16:42.9    -540    -66    111    545    557 263.0  11.6  34248  291.06 0854.40
2009/04/23 15:16:43.0    -239   -286    164    373    407 219.9  25.2  34236  290.86 0854.40
2009/04/23 15:16:43.1     -75   -118    323    141    352 212.5  75.0  34238  290.88 0854.42
2009/04/23 15:16:43.2     -91   -160    179    185    257 209.6  49.0  34246  291.04 0854.42
2009/04/23 15:16:43.3      79    -35    148     87    171 114.4  67.0  34246  291.04 0854.42
2009/04/23 15:16:43.4       0    -99    188    100    212 180.0  69.8  34234  290.82 0854.42
2009/04/23 15:16:43.5       2    -36    135     37    139 175.6  84.8  34240  290.92 0854.42
2009/04/23 15:16:43.6      40     32    118     52    128  51.4  74.9  34240  290.94 0854.42
2009/04/23 15:16:43.7       7    -67    145     68    160 173.8  73.2  34248  291.06 0854.42
2009/04/23 15:16:43.8     148    -35    188    153    242 103.3  56.6  34248  291.08 0854.42
2009/04/23 15:16:43.9     231    -17    224    232    322  94.3  49.0  34252  291.14 0854.42
2009/04/23 15:16:44.0     328    131    243    354    429  68.2  37.6  34298  291.92 0854.42
2009/04/23 15:16:44.1     235     66    244    245    345  74.3  50.1  34334  292.52 0854.42
2009/04/23 15:16:44.2     326     30    214    328    391  84.6  36.4  34328  292.42 0854.42
2009/04/23 15:16:44.3     375    184    248    418    486  63.8  33.5  34326  292.39 0854.42
2009/04/23 15:16:44.4     382    247    259    456    524  57.1  32.1  34232  290.78 0854.42
2009/04/23 15:16:44.5     442    412    142    605    622  47.0  13.3  34232  290.79 0854.42
2009/04/23 15:16:44.6     486    455    133    667    681  46.9  11.3  34216  290.51 0854.42
2009/04/23 15:16:44.7     338    603     61    692    695  29.3   5.1  34254  291.17 0854.42
2009/04/23 15:16:44.8     266    517    159    582    604  27.3  15.3  34286  291.70 0854.42
2009/04/23 15:16:44.9     344    341    225    485    534  45.2  26.6  34300  291.95 0854.42
2009/04/23 15:16:45.0     380    303    104    487    499  51.4  12.1  34272  291.46 0854.42
2009/04/23 15:16:45.1     552    229    236    598    642  67.4  22.8  34312  292.15 0854.45
2009/04/23 15:16:45.2     423    208    161    472    499  63.8  18.9  34292  291.81 0854.45
2009/04/23 15:16:45.3     482    227    281    533    602  64.8  30.1  34306  292.04 0854.45
2009/04/23 15:16:45.4     499     97    179    509    540  79.0  19.4  34290  291.79 0854.45
2009/04/23 15:16:45.5     393    257    326    470    571  56.8  38.1  34300  291.96 0854.45
2009/04/23 15:16:45.6     569    197    254    603    654  70.9  24.3  34310  292.12 0854.45
2009/04/23 15:16:45.7     532      7    149    533    554  89.2  15.7  34320  292.28 0854.45
2009/04/23 15:16:45.8     513    116    250    527    583  77.2  27.2  34314  292.20 0854.45
2009/04/23 15:16:45.9     430     67    221    436    488  81.1  28.9  34296  291.87 0854.45
2009/04/23 15:16:46.0     476     42    278    478    552  84.9  32.9  34246  291.03 0854.45
2009/04/23 15:16:46.1     556    210    226    595    636  69.3  21.8  34236  290.86 0854.51
2009/04/23 15:16:46.2     384    270    165    470    498  54.9  20.0  34226  290.68 0854.51
2009/04/23 15:16:46.3     489    337     99    595    604  55.4   9.5  34254  291.17 0854.51
2009/04/23 15:16:46.4     440     20    124    441    459  87.3  15.7  34270  291.45 0854.51
2009/04/23 15:16:46.5     240     96     75    259    270  68.2  16.3  34312  292.16 0854.51
2009/04/23 15:16:46.6     117   -114    -53    164    173 134.2 -17.9  34306  292.06 0854.51
2009/04/23 15:16:46.7      58   -273    -33    280    283 168.0  -6.9  34294  291.84 0854.51
2009/04/23 15:16:46.8    -118   -272     14    297    298 203.6   2.8  34284  291.68 0854.51
2009/04/23 15:16:46.9    -155   -225    253    274    372 214.5  47.7  34298  291.91 0854.51
2009/04/23 15:16:47.0    -179   -322    179    369    410 209.2  27.9  34288  291.73 0854.51
2009/04/23 15:16:47.1    -106   -439    206    452    496 193.7  26.2  34282  291.66 0854.51
2009/04/23 15:16:47.2     138   -392    176    416    451 160.6  24.2  34260  291.28 0854.51
2009/04/23 15:16:47.3      82   -159     28    180    183 152.6   8.8  34268  291.40 0854.51
2009/04/23 15:16:47.4      68   -218    137    229    266 162.6  33.7  34256  291.21 0854.51
2009/04/23 15:16:47.5      86   -165      9    187    188 152.4   2.9  34252  291.13 0854.51
2009/04/23 15:16:47.6     177    -53    105    185    212 106.8  32.4  34248  291.06 0854.51
2009/04/23 15:16:47.7     155    -16    184    156    241  96.1  55.4  34256  291.20 0854.51
2009/04/23 15:16:47.8     206     36    133    210    248  79.9  35.5  34244  291.00 0854.51
2009/04/23 15:16:47.9     197     39    158    201    255  78.6  42.2  34264  291.34 0854.51
2009/04/23 15:16:48.0      31    -37    119     49    128 140.4  76.6  34292  291.81 0854.51
2009/04/23 15:16:48.1     155   -170     28    231    233 137.7   7.1  34252  291.15 0854.53
2009/04/23 15:16:48.2     148   -127     35    196    200 130.7  10.1  34252  291.15 0854.53
2009/04/23 15:16:48.3      99    -93     59    137    149 133.2  25.1  34248  291.08 0854.53
2009/04/23 15:16:48.4     188   -127     71    228    239 124.1  17.3  34246  291.04 0854.53
2009/04/23 15:16:48.5      94   -182     18    205    206 152.6   5.2  34234  290.84 0854.53
2009/04/23 15:16:48.6     -80   -175    135    193    235 204.5  38.6  34242  290.96 0854.53
2009/04/23 15:16:48.7     -35   -129     87    134    159 195.2  36.0  34234  290.82 0854.53
2009/04/23 15:16:48.8     -68   -143     90    159    182 205.5  32.1  34242  290.98 0854.53
2009/04/23 15:16:48.9      11   -183     39    184    189 176.4  12.0  34246  291.04 0854.53
2009/04/23 15:16:49.0      49   -144     29    153    156 161.3  11.0  34250  291.09 0854.53
2009/04/23 15:16:49.1      10   -132     65    133    148 175.6  27.3  34250  291.11 0854.53
2009/04/23 15:16:49.2      38   -106     76    113    136 160.0  37.0  34256  291.21 0854.53
2009/04/23 15:16:49.3     -36   -115    150    121    192 197.4  56.6  34262  291.32 0854.53
2009/04/23 15:16:49.4    -156   -156    158    221    271 224.9  39.1  34236  290.87 0854.53
2009/04/23 15:16:49.5    -102   -177     16    205    206 209.9   4.6  34240  290.94 0854.53
2009/04/23 15:16:49.6     -23   -280    -46    282    286 184.9  -9.4  34252  291.12 0854.53
2009/04/23 15:16:49.7    -143   -361      7    389    390 201.7   1.1  34254  291.18 0854.53
2009/04/23 15:16:49.8    -114   -292     37    314    317 201.4   6.8  34242  290.97 0854.53
2009/04/23 15:16:49.9     -51   -320     18    325    326 189.1   3.2  34244  290.99 0854.53
2009/04/23 15:16:50.0    -123   -244     96    274    291 206.7  19.4  34238  290.88 0854.53
2009/04/23 15:16:50.1    -118   -199     38    232    236 210.7   9.5  34248  291.05 0854.53
2009/04/23 15:16:50.2     -88   -135     10    162    163 213.2   3.8  34248  291.06 0854.53
2009/04/23 15:16:50.3     -31   -153     97    157    184 191.6  35.0  34244  290.99 0854.53
2009/04/23 15:16:50.4     -97   -152    132    181    224 212.5  39.7  34262  291.30 0854.53
2009/04/23 15:16:50.5    -156   -274     47    316    320 209.6   8.5  34248  291.05 0854.53
2009/04/23 15:16:50.6     -99   -264     44    283    287 200.7   9.0  34216  290.53 0854.53
2009/04/23 15:16:50.7      -6   -269     52    270    276 181.4  11.0  34212  290.44 0854.53
2009/04/23 15:16:50.8    -162   -343    140    380    404 205.3  21.0  34212  290.47 0854.53
2009/04/23 15:16:50.9    -163   -342    101    379    393 205.5  14.9  34224  290.67 0854.53
2009/04/23 15:16:51.0     -65   -354    128    360    382 190.5  20.3  34220  290.60 0854.53
2009/04/23 15:16:51.1     -90   -433     -9    443    444 191.8  -1.3  34226  290.70 0854.53
2009/04/23 15:16:51.2    -138   -466     50    487    490 196.5   5.9  34228  290.71 0854.53
2009/04/23 15:16:51.3    -220   -484     88    532    540 204.5   9.5  34212  290.45 0854.53
2009/04/23 15:16:51.4    -193   -425     85    467    475 204.5  10.3  34208  290.37 0854.53
2009/04/23 15:16:51.5     -61   -329    173    335    377 190.6  29.4  34216  290.52 0854.53
2009/04/23 15:16:51.6     108   -349    100    366    380 162.7  15.4  34208  290.38 0854.53
2009/04/23 15:16:51.7     123   -423     46    441    444 163.7   6.0  34196  290.19 0854.53
2009/04/23 15:16:51.8      -9   -491    -22    492    493 181.2  -2.6  34196  290.17 0854.53
2009/04/23 15:16:51.9     -51   -455     71    458    464 186.5   8.9  34196  290.19 0854.53
2009/04/23 15:16:52.0     -33   -532     54    534    537 183.6   5.8  34198  290.21 0854.53
2009/04/23 15:16:52.1       1   -668     -5    669    670 179.9  -0.5  34198  290.21 0854.52
2009/04/23 15:16:52.2     -17   -634     88    635    641 181.6   7.9  34192  290.11 0854.52
2009/04/23 15:16:52.3      54   -638     76    641    646 175.1   6.8  34190  290.08 0854.52
2009/04/23 15:16:52.4      66   -605     30    609    610 173.7   2.9  34196  290.19 0854.52
2009/04/23 15:16:52.5    -242   -257   -205    354    409 223.3 -37.2  34182  289.94 0854.52
2009/04/23 15:16:52.6      -6   -664   -169    665    687 180.6 -14.3  34192  290.12 0854.52
2009/04/23 15:16:52.7    -144   -789   -198    802    827 190.4 -13.9  34200  290.26 0854.52
2009/04/23 15:16:52.8    -128   -926   -193    935    955 187.9 -11.7  34198  290.22 0854.52
2009/04/23 15:16:52.9      35   -903   -145    904    916 177.8  -9.1  34188  290.04 0854.52
2009/04/23 15:16:53.0    -412   -771   -308    875    928 208.1 -19.4  34190  290.09 0854.52
2009/04/23 15:16:53.1    -200   -476    -41    517    519 202.8  -4.6  34188  290.06 0854.52
2009/04/23 15:16:53.2      38   -583   -122    585    598 176.3 -11.8  34208  290.37 0854.52
2009/04/23 15:16:53.3      20   -535   -150    536    556 177.8 -20.3  34200  290.26 0854.52
2009/04/23 15:16:53.4      44   -975   -212    976    999 177.4 -12.3  34180  289.92 0854.52
2009/04/23 15:16:53.5     170   -870   -207    887    911 168.9 -13.2  34174  289.80 0854.52
2009/04/23 15:16:53.6     280   -868     50    913    915 162.1   3.1  34168  289.70 0854.52
2009/04/23 15:16:53.7     -20   -720    -28    721    722 181.6  -2.2  34168  289.72 0854.52
2009/04/23 15:16:53.8      88   -754    -67    760    764 173.3  -5.1  34154  289.46 0854.52
2009/04/23 15:16:53.9     -17   -885    124    886    895 181.2   8.0  34156  289.49 0854.52
2009/04/23 15:16:54.0    -163  -1267    -55   1278   1280 187.4  -2.5  34172  289.78 0854.52
2009/04/23 15:16:54.1    -221  -1311   -124   1330   1337 189.6  -5.4  34164  289.63 0854.51
2009/04/23 15:16:54.2    -172  -1255    -44   1267   1268 187.8  -2.0  34164  289.65 0854.51
2009/04/23 15:16:54.3      25   -978    -39    979    980 178.5  -2.3  34156  289.50 0854.51
2009/04/23 15:16:54.4      21   -894    -19    895    896 178.6  -1.3  34168  289.72 0854.51
2009/04/23 15:16:54.5     132   -784    132    796    807 170.4   9.4  34166  289.66 0854.51
2009/04/23 15:16:54.6     296   -564    154    638    657 152.3  13.6  34162  289.59 0854.51
2009/04/23 15:16:54.7     158   -626    -87    646    652 165.8  -7.7  34162  289.62 0854.51
2009/04/23 15:16:54.8    -162   -650     18    670    671 194.0   1.6  34174  289.80 0854.51
2009/04/23 15:16:54.9    -382   -620    -51    729    731 211.6  -4.0  34184  289.98 0854.51
2009/04/23 15:16:55.0    -436   -367   -180    570    598 229.9 -17.5  34174  289.80 0854.51
2009/04/23 15:16:55.1    -214    -29   -124    217    249 262.1 -36.8  34188  290.03 0854.51
2009/04/23 15:16:55.2    -354    -81    -84    364    374 257.0 -13.1  34188  290.06 0854.51
2009/04/23 15:16:55.3    -218   -397   -153    453    478 208.8 -23.7  34176  289.83 0854.51
2009/04/23 15:16:55.4       9   -388   -248    389    461 178.6 -40.0  34166  289.68 0854.51
2009/04/23 15:16:55.5     -17   -562    -66    563    567 181.8  -6.7  34168  289.72 0854.51
2009/04/23 15:16:55.6      11   -413     63    414    419 178.4   8.7  34168  289.72 0854.51
2009/04/23 15:16:55.7     193    -49    131    200    239 104.4  36.5  34168  289.72 0854.51
2009/04/23 15:16:55.8     197     14    220    198    295  85.9  53.3  34160  289.58 0854.51
2009/04/23 15:16:55.9      -3     39    222     40    225 355.6  90.0  34180  289.91 0854.51
2009/04/23 15:16:56.0     116    119    207    167    265  44.3  56.6  34178  289.86 0854.51
2009/04/23 15:16:56.1      49     50     98     71    121  44.2  60.5  34164  289.65 0854.53
2009/04/23 15:16:56.2     -33    -40    113     52    124 219.6  73.5  34188  290.04 0854.53
2009/04/23 15:16:56.3      96     -3    124     97    157  92.1  57.9  34184  289.97 0854.53
2009/04/23 15:16:56.4     317     30     85    319    331  84.6  14.9  34174  289.80 0854.53
2009/04/23 15:16:56.5     154     18    230    156    277  83.0  62.6  34172  289.78 0854.53
2009/04/23 15:16:56.6     149   -161    227    220    316 137.2  51.1  34176  289.85 0854.53
2009/04/23 15:16:56.7     125   -183     84    222    237 145.7  22.0  34174  289.80 0854.53
2009/04/23 15:16:56.8      23    -59     58     64     86 158.1  47.5  34182  289.94 0854.53
2009/04/23 15:16:56.9    -144   -118     58    187    197 230.5  17.4  34174  289.82 0854.53
2009/04/23 15:16:57.0       7      2     73      8     73  71.6  90.0  34178  289.89 0854.53
2009/04/23 15:16:57.1    -190      6    115    191    222 271.9  34.0  34184  289.99 0854.53
2009/04/23 15:16:57.2    -146     88     73    171    185 301.1  24.6  34196  290.18 0854.53
2009/04/23 15:16:57.3    -281    263    -63    386    392 313.1  -9.3  34188  290.04 0854.53
2009/04/23 15:16:57.4      31    135     82    139    161  13.3  33.1  34192  290.11 0854.53
2009/04/23 15:16:57.5     -41     22    197     47    202 298.0  86.9  34194  290.16 0854.53
2009/04/23 15:16:57.6      35     74    123     82    147  25.5  63.6  34196  290.19 0854.53
2009/04/23 15:16:57.7     -52   -261    -76    267    278 191.3 -16.0  34192  290.12 0854.53
2009/04/23 15:16:57.8     -29   -150   -133    153    202 191.1 -50.2  34188  290.06 0854.53
2009/04/23 15:16:57.9     -32    100   -120    106    160 342.2 -58.4  34190  290.08 0854.53
2009/04/23 15:16:58.0      51     80    -41     95    103  32.6 -29.0  34190  290.08 0854.54
2009/04/23 15:16:58.1      65    112    -23    130    133  30.3 -10.3  34196  290.19 0854.54
2009/04/23 15:16:58.2     123    -30    -78    127    149 103.7 -39.4  34188  290.04 0854.54
2009/04/23 15:16:58.3     205   -121   -148    239    281 120.7 -39.2  34190  290.07 0854.54
2009/04/23 15:16:58.4     237   -171    -37    293    296 125.9  -7.3  34182  289.95 0854.54
2009/04/23 15:16:58.5     357    -99     26    371    372 105.5   4.0  34192  290.11 0854.54
2009/04/23 15:16:58.6     256   -204    148    328    359 128.6  25.9  34184  289.98 0854.54
2009/04/23 15:16:58.7      42   -177    226    182    290 166.6  56.9  34188  290.05 0854.54
2009/04/23 15:16:58.8      48   -339    203    343    398 171.9  33.5  34182  289.96 0854.54
2009/04/23 15:16:58.9     182   -219    230    285    366 140.3  43.1  34178  289.87 0854.54
2009/04/23 15:16:59.0     262   -263    240    372    442 135.1  35.7  34184  289.99 0854.54
2009/04/23 15:16:59.1     227   -322    165    395    428 144.8  24.1  34184  289.97 0854.54
2009/04/23 15:16:59.2     185   -469     99    505    515 158.4  11.1  34178  289.89 0854.54
2009/04/23 15:16:59.3      -5   -448     13    449    450 180.7   1.7  34184  289.97 0854.54
2009/04/23 15:16:59.4     107   -455     87    468    477 166.8  10.6  34172  289.79 0854.54
2009/04/23 15:16:59.5      70   -527    145    532    552 172.4  15.3  34174  289.82 0854.54
2009/04/23 15:16:59.6     148   -303    148    338    368 153.9  25.2  34184  289.98 0854.54
2009/04/23 15:16:59.7     138   -378    279    403    490 160.0  38.1  34176  289.83 0854.54
2009/04/23 15:16:59.8     129   -357    255    380    457 160.1  37.0  34182  289.94 0854.54
2009/04/23 15:16:59.9      83   -529    238    536    586 171.0  25.6  34184  289.97 0854.54
2009/04/23 15:17:00.0     113   -502    212    515    556 167.2  23.7  34184  289.97 0854.37
2009/04/23 15:17:00.1      71   -418    329    425    537 170.3  41.7  34184  289.98 0854.37
2009/04/23 15:17:00.2     105   -517    323    528    618 168.4  34.4  34178  289.88 0854.37
2009/04/23 15:17:00.3     149   -482    237    505    557 162.8  27.1  34184  289.97 0854.37
2009/04/23 15:17:00.4     193   -263    233    327    401 143.7  39.1  34182  289.96 0854.37
2009/04/23 15:17:00.5      28   -341    246    343    422 175.3  39.3  34188  290.03 0854.37
2009/04/23 15:17:00.6     -23   -377    271    378    465 183.5  39.3  34186  290.02 0854.37
2009/04/23 15:17:00.7      44   -421    269    424    502 173.9  35.5  34188  290.05 0854.37
2009/04/23 15:17:00.8      61   -307    246    314    398 168.7  42.1  34188  290.06 0854.37
2009/04/23 15:17:00.9      12   -203    145    204    250 176.6  38.8  34190  290.09 0854.37
2009/04/23 15:17:01.0     107   -177     96    208    229 148.8  27.0  34194  290.14 0854.37
2009/04/23 15:17:01.1     106   -166    -25    198    200 147.5  -7.2  34186  290.01 0854.37
2009/04/23 15:17:01.2      49   -273    121    278    303 169.8  25.1  34190  290.09 0854.37
2009/04/23 15:17:01.3      33   -360    136    362    386 174.7  21.6  34188  290.06 0854.37
2009/04/23 15:17:01.4      15   -297    151    298    334 177.1  28.9  34188  290.05 0854.37
2009/04/23 15:17:01.5     -30   -464    266    466    536 183.8  32.3  34196  290.18 0854.37
2009/04/23 15:17:01.6      -8   -500    294    501    580 181.0  33.1  34192  290.11 0854.37
2009/04/23 15:17:01.7      48   -492    245    495    552 174.4  28.2  34188  290.06 0854.37
2009/04/23 15:17:01.8      43   -601    305    603    675 175.9  28.9  34188  290.04 0854.37
2009/04/23 15:17:01.9      44   -612    338    614    700 175.9  31.3  34186  290.02 0854.37
2009/04/23 15:17:02.0      25   -620    350    621    712 177.7  32.0  34188  290.04 0854.29
2009/04/23 15:17:02.1      39   -689    266    691    740 176.8  22.1  34178  289.89 0854.29
2009/04/23 15:17:02.2      86   -749    119    754    764 173.4   9.0  34186  290.02 0854.29
2009/04/23 15:17:02.3      99   -687    147    695    711 171.8  12.0  34188  290.03 0854.29
2009/04/23 15:17:02.4      59   -492    152    496    519 173.1  17.1  34186  290.00 0854.29
2009/04/23 15:17:02.5      50   -612    -44    615    617 175.3  -4.1  34194  290.16 0854.29
2009/04/23 15:17:02.6     148   -617     60    635    638 166.5   5.4  34188  290.04 0854.29
2009/04/23 15:17:02.7      41   -677    129    679    692 176.5  10.8  34182  289.95 0854.29
2009/04/23 15:17:02.8     -45   -584     91    586    594 184.5   8.9  34186  290.00 0854.29
2009/04/23 15:17:02.9    -176   -497    -47    528    531 199.6  -5.1  34180  289.90 0854.29
2009/04/23 15:17:03.0    -314   -603    115    680    690 207.5   9.6  34186  290.02 0854.29
2009/04/23 15:17:03.1    -471   -388    120    611    623 230.5  11.1  34178  289.86 0854.29
2009/04/23 15:17:03.2    -528   -120    -98    542    551 257.1 -10.3  34196  290.19 0854.29
2009/04/23 15:17:03.3    -455    -27   -162    456    485 266.6 -19.6  34192  290.12 0854.29
2009/04/23 15:17:03.4    -361   -129   -137    384    407 250.3 -24.6  34200  290.25 0854.29
2009/04/23 15:17:03.5    -467     31   -142    469    491 273.9 -16.9  34170  289.73 0854.29
2009/04/23 15:17:03.6    -346    -91    123    358    379 255.2  19.1  34202  290.27 0854.29
2009/04/23 15:17:03.7    -236   -138    -70    274    283 239.6 -14.5  34208  290.39 0854.29
2009/04/23 15:17:03.8    -364    -16    -86    365    376 267.4 -13.3  34208  290.40 0854.29
2009/04/23 15:17:03.9    -491    -91   -211    500    542 259.4 -28.6  34136  289.18 0854.29
2009/04/23 15:17:04.0    -659   -210   -354    692    777 252.3 -33.6  34114  288.79 0854.23
2009/04/23 15:17:04.1    -583   -152   -196    603    635 255.4 -18.0  34148  289.38 0854.23
2009/04/23 15:17:04.2    -452   -172   -138    484    503 249.1 -20.7  34202  290.29 0854.23
2009/04/23 15:17:04.3    -381   -159     79    414    422 247.3  10.8  34206  290.36 0854.23
2009/04/23 15:17:04.4    -503   -214   -120    547    561 246.9 -12.4  34178  289.87 0854.23
2009/04/23 15:17:04.5    -482   -185   -132    517    534 249.0 -14.4  34086  288.33 0854.23
2009/04/23 15:17:04.6    -514   -160   -203    539    575 252.7 -26.0  34114  288.79 0854.23
2009/04/23 15:17:04.7    -458   -167   -191    488    524 250.0 -26.9  34126  289.01 0854.23
2009/04/23 15:17:04.8    -394   -151   -225    423    479 249.0 -34.7  34106  288.65 0854.23
2009/04/23 15:17:04.9    -266   -106   -229    287    367 248.3 -47.1  34112  288.77 0854.23
2009/04/23 15:17:05.0    -246   -103   -169    267    315 247.3 -39.7  34098  288.51 0854.23
2009/04/23 15:17:05.1    -337   -166   -202    376    426 243.8 -35.0  34142  289.26 0854.23
2009/04/23 15:17:05.2    -334   -143   -265    364    450 246.8 -44.1  34142  289.26 0854.23
2009/04/23 15:17:05.3    -387    -12   -148    388    415 268.1 -26.4  34148  289.38 0854.23
2009/04/23 15:17:05.4    -325    -56   -147    330    361 260.2 -29.7  34182  289.96 0854.23
2009/04/23 15:17:05.5    -186    -78   -206    202    288 247.2 -54.6  34180  289.92 0854.23
2009/04/23 15:17:05.6     -11   -153   -113    154    191 184.4 -44.3  34184  289.99 0854.23
2009/04/23 15:17:05.7      35   -150    -86    155    177 166.7 -35.8  34176  289.85 0854.23
2009/04/23 15:17:05.8      57   -130   -115    142    182 156.3 -47.9  34186  290.01 0854.23
2009/04/23 15:17:05.9      28    -59   -122     66    138 154.6 -73.3  34190  290.08 0854.23
2009/04/23 15:17:06.0      -5     -4    -61      7     61 230.5 -90.0  34188  290.06 0854.20
2009/04/23 15:17:06.1     -89     54     -5    105    106 301.5  -3.2  34168  289.72 0854.20
2009/04/23 15:17:06.2    -113    105    -12    155    156 313.1  -4.6  34146  289.35 0854.20
2009/04/23 15:17:06.3    -179     13   -210    180    276 274.4 -59.4  34160  289.56 0854.20
2009/04/23 15:17:06.4    -176    -75   -185    192    266 246.9 -53.4  34172  289.78 0854.20
2009/04/23 15:17:06.5    -255   -333   -255    420    491 217.5 -38.5  34192  290.10 0854.20
2009/04/23 15:17:06.6    -307   -363   -159    476    501 220.3 -23.6  34188  290.06 0854.20
2009/04/23 15:17:06.7    -331   -310     -5    454    455 226.9  -0.7  34168  289.72 0854.20
2009/04/23 15:17:06.9    -285   -225    -74    364    372 231.8 -11.5  34178  289.87 0854.20
2009/04/23 15:17:06.9      63   -373   -145    379    405 170.4 -26.4  34166  289.67 0854.20
2009/04/23 15:17:07.0      57   -425   -136    429    450 172.3 -22.6  34162  289.60 0854.20
2009/04/23 15:17:07.1     183   -419   -158    458    485 156.4 -19.1  34156  289.52 0854.20
2009/04/23 15:17:07.3     152   -424   -123    451    467 160.2 -20.0  34164  289.63 0854.20
2009/04/23 15:17:07.4     226   -344    -43    412    415 146.7  -6.1  34162  289.60 0854.20
2009/04/23 15:17:07.5     167   -335   -116    375    392 153.4 -22.2  34162  289.59 0854.20
2009/04/23 15:17:07.6     166   -259   -126    309    333 147.3 -27.8  34168  289.71 0854.20
2009/04/23 15:17:07.7     230   -242   -117    334    355 136.5 -19.4  34172  289.76 0854.20
2009/04/23 15:17:07.8     232   -192   -108    302    321 129.6 -19.7  34178  289.88 0854.20
2009/04/23 15:17:07.9     213   -248    -92    328    341 139.4 -15.8  34168  289.72 0854.20
2009/04/23 15:17:08.0     211   -312     42    377    380 145.9   6.4  34172  289.76 0854.20
2009/04/23 15:17:08.1     165   -359     30    396    398 155.3   4.4  34166  289.69 0854.20
2009/04/23 15:17:08.2     221   -229     75    319    328 136.1  13.2  34168  289.71 0854.20
2009/04/23 15:17:08.3     263   -213     66    339    346 129.0  11.1  34168  289.72 0854.20
2009/04/23 15:17:08.4     284   -180      8    337    338 122.4   1.5  34172  289.77 0854.20
2009/04/23 15:17:08.5     201   -209    124    291    316 136.1  24.5  34166  289.66 0854.20
2009/04/23 15:17:08.6     200   -303    128    364    386 146.6  19.4  34164  289.65 0854.20
2009/04/23 15:17:08.7     122   -328    -96    351    365 159.5 -15.4  34164  289.64 0854.20
2009/04/23 15:17:08.8     -32   -315     85    317    329 185.8  15.1  34154  289.47 0854.20
2009/04/23 15:17:08.9      46   -348     66    352    359 172.4  10.6  34168  289.72 0854.20
2009/04/23 15:17:09.0      29   -538    -79    539    545 176.9  -8.4  34172  289.77 0854.20
2009/04/23 15:17:09.1       0   -449    -78    450    457 180.0  -9.9  34162  289.60 0854.19
2009/04/23 15:17:09.2      66   -460    -80    465    472 171.8  -9.8  34158  289.54 0854.19
2009/04/23 15:17:09.3     116   -410     16    427    428 164.2   2.2  34170  289.73 0854.19
2009/04/23 15:17:09.4     133   -398    -40    420    422 161.5  -5.5  34178  289.88 0854.19
2009/04/23 15:17:09.5     107   -527    -21    538    539 168.5  -2.3  34170  289.75 0854.19
2009/04/23 15:17:09.6      22   -476     -7    477    478 177.3  -0.9  34166  289.66 0854.19
2009/04/23 15:17:09.7      65   -505     41    510    512 172.6   4.7  34178  289.86 0854.19
2009/04/23 15:17:09.8     119   -531     67    545    550 167.3   7.1  34182  289.94 0854.19
2009/04/23 15:17:09.9     151   -471     77    495    502 162.2   8.9  34176  289.84 0854.19
2009/04/23 15:17:10.0      98   -426     85    438    447 167.0  11.0  34176  289.83 0854.19
2009/04/23 15:17:10.1     167   -319    197    361    411 152.4  31.0  34182  289.96 0854.19
2009/04/23 15:17:10.2     236   -306    184    387    428 142.3  27.2  34160  289.58 0854.19
2009/04/23 15:17:10.3     216   -349    173    411    445 148.3  24.2  34168  289.70 0854.19
2009/04/23 15:17:10.4     179   -348    190    392    435 152.8  27.9  34198  290.22 0854.19
2009/04/23 15:17:10.5     -39   -231    300    235    381 189.8  58.0  34208  290.37 0854.19
2009/04/23 15:17:10.6      14   -193    260    194    324 175.6  59.4  34216  290.53 0854.19
2009/04/23 15:17:10.7      -1    -71    176     72    190 180.9  76.8  34234  290.84 0854.19
2009/04/23 15:17:10.8      16   -180    159    181    240 174.7  45.9  34226  290.70 0854.19
2009/04/23 15:17:10.9      -6    -79    166     80    184 184.5  72.7  34226  290.69 0854.19
2009/04/23 15:17:11.0    -158   -166    178    230    290 223.7  41.7  34200  290.26 0854.19
2009/04/23 15:17:11.1    -160    -88    192    183    265 241.1  51.4  34208  290.39 0854.24
2009/04/23 15:17:11.2    -178   -183    236    256    348 224.1  47.7  34214  290.49 0854.24
2009/04/23 15:17:11.3    -236    115    135    263    295 296.0  29.3  34202  290.27 0854.24
2009/04/23 15:17:11.4    -207    122    131    241    274 300.6  31.0  34222  290.63 0854.24
2009/04/23 15:17:11.5    -205    137    173    247    301 303.7  38.5  34220  290.59 0854.24
2009/04/23 15:17:11.6    -264     77    114    276    298 286.4  23.6  34204  290.32 0854.24
2009/04/23 15:17:11.7    -187    218     30    288    290 319.5   6.0  34200  290.24 0854.24
2009/04/23 15:17:11.8     -70     74    -54    103    116 316.7 -34.2  34218  290.57 0854.24
2009/04/23 15:17:11.9      25    329    181    331    377   4.5  31.3  34230  290.76 0854.24
2009/04/23 15:17:12.0     -69    356    264    363    448 348.9  39.5  34234  290.82 0854.24
2009/04/23 15:17:12.1    -342    434    103    553    563 321.8  10.6  34250  291.09 0854.24
2009/04/23 15:17:12.2    -169    362    191    400    443 335.0  27.3  34222  290.61 0854.24
2009/04/23 15:17:12.3    -385    330     43    508    510 310.6   4.9  34256  291.19 0854.24
2009/04/23 15:17:12.4    -410    -31    105    412    426 265.6  14.3  34256  291.19 0854.24
2009/04/23 15:17:12.5    -440      6    -72    441    447 270.9  -9.3  34244  290.99 0854.24
2009/04/23 15:17:12.6    -377   -119     37    396    398 252.4   5.4  34268  291.42 0854.24
2009/04/23 15:17:12.7     -80   -468    169    476    505 189.8  20.3  34184  289.98 0854.24
2009/04/23 15:17:12.8    -135   -545    381    562    678 193.9  37.4  34214  290.50 0854.24
2009/04/23 15:17:12.9    -220   -578    144    619    636 200.9  13.1  34222  290.64 0854.24
2009/04/23 15:17:13.0    -194   -492    257    530    589 201.6  27.8  34220  290.58 0854.24
2009/04/23 15:17:13.1    -150   -622    199    640    671 193.6  17.3  34202  290.29 0854.23
2009/04/23 15:17:13.2    -292   -503    245    582    631 210.1  24.2  34224  290.67 0854.23
2009/04/23 15:17:13.3    -189   -344    243    393    462 208.9  34.9  34208  290.38 0854.23
2009/04/23 15:17:13.4     -79   -214    223    229    319 200.3  49.4  34214  290.49 0854.23
2009/04/23 15:17:13.5    -173   -431    440    465    640 201.9  48.4  34216  290.51 0854.23
2009/04/23 15:17:13.6    -190   -464    425    502    657 202.3  44.5  34208  290.37 0854.23
2009/04/23 15:17:13.7    -211   -427    297    477    561 206.3  34.9  34216  290.53 0854.23
2009/04/23 15:17:13.8    -180   -296    325    347    475 211.3  48.0  34190  290.09 0854.23
2009/04/23 15:17:13.9    -216   -494    378    540    659 203.6  38.5  34198  290.23 0854.23
2009/04/23 15:17:14.0    -188   -450    301    488    573 202.7  34.5  34208  290.40 0854.23
2009/04/23 15:17:14.1    -123   -264    355    292    459 204.9  56.4  34224  290.65 0854.23
2009/04/23 15:17:14.2     -89   -277    397    292    492 197.9  60.3  34248  291.06 0854.23
2009/04/23 15:17:14.3    -535   -224    164    581    604 247.3  15.8  34214  290.49 0854.23
2009/04/23 15:17:14.4    -447   -426    357    618    713 226.4  32.7  34238  290.90 0854.23
2009/04/23 15:17:14.5    -532   -385    -64    657    661 234.1  -5.6  34228  290.72 0854.23
2009/04/23 15:17:14.6    -442   -178    -39    477    479 248.0  -4.7  34228  290.74 0854.23
2009/04/23 15:17:14.7    -661   -355   -163    751    769 241.7 -12.3  34166  289.68 0854.23
2009/04/23 15:17:14.8    -552   -205     77    589    594 249.6   7.5  34208  290.39 0854.23
2009/04/23 15:17:14.9    -772   -154   -129    788    799 258.7  -9.3  34174  289.81 0854.23
2009/04/23 15:17:15.0    -968   -111   -250    975   1007 263.4 -14.4  34168  289.70 0854.23
2009/04/23 15:17:15.1   -1069   -111   -328   1075   1125 264.0 -17.0  34144  289.30 0854.23
2009/04/23 15:17:15.2   -1064   -215   -244   1086   1114 258.6 -12.7  34140  289.24 0854.23
2009/04/23 15:17:15.3   -1098   -160   -345   1110   1162 261.7 -22.2  34130  289.06 0854.23
2009/04/23 15:17:15.4    -806     -6   -226    807    838 269.5 -20.2  34190  290.09 0854.23
2009/04/23 15:17:15.5    -993    -94   -316    998   1046 264.6 -22.6  34122  288.93 0854.23
2009/04/23 15:17:15.6   -1076    -68   -328   1079   1127 266.4 -21.8  34124  288.96 0854.23
2009/04/23 15:17:15.7    -910   -210   -297    934    980 257.0 -22.6  34178  289.87 0854.23
2009/04/23 15:17:15.8    -612    -37   -353    614    708 266.5 -36.8  34160  289.56 0854.23
2009/04/23 15:17:15.9    -416    -17   -190    417    458 267.6 -30.6  34186  290.00 0854.23
2009/04/23 15:17:16.0    -151    -50   -117    160    198 251.4 -44.1  34174  289.82 0854.23
2009/04/23 15:17:16.1    -317   -201    -24    376    377 237.5  -3.7  34208  290.37 0854.23
2009/04/23 15:17:16.2    -247   -119    -49    275    280 244.2 -10.3  34190  290.07 0854.23
2009/04/23 15:17:16.3    -373    -16   -108    374    390 267.5 -16.2  34178  289.87 0854.23
2009/04/23 15:17:16.4    -360   -135     14    385    386 249.4   2.1  34192  290.10 0854.23
2009/04/23 15:17:16.5    -466    -64   -181    471    504 262.1 -26.5  34186  290.00 0854.23
2009/04/23 15:17:16.6    -553     12    -94    554    562 271.3  -9.7  34178  289.89 0854.23
2009/04/23 15:17:16.7    -460     98   -143    471    493 282.1 -17.0  34188  290.06 0854.23
2009/04/23 15:17:16.8     -71   -178     60    192    202 201.8  17.4  34184  289.99 0854.23
2009/04/23 15:17:16.9    -117     20    230    119    258 279.7  70.8  34176  289.85 0854.23
2009/04/23 15:17:17.0    -409     -3     41    410    413 269.5   5.8  34176  289.83 0854.23
2009/04/23 15:17:17.1    -311    -88   -144    324    354 254.1 -30.0  34162  289.59 0854.23
2009/04/23 15:17:17.2    -416    -44    147    419    444 263.9  20.1  34182  289.94 0854.23
2009/04/23 15:17:17.3    -566      7    -71    567    572 270.7  -7.2  34184  289.97 0854.23
2009/04/23 15:17:17.4    -516   -268    158    582    604 242.5  15.2  34212  290.44 0854.23
2009/04/23 15:17:17.5    -589   -267     -4    647    648 245.6  -0.4  34230  290.76 0854.23
2009/04/23 15:17:17.6    -280   -309   -170    418    451 222.2 -27.6  34202  290.28 0854.23
2009/04/23 15:17:17.7    -162   -348   -142    384    409 205.0 -25.7  34178  289.87 0854.23
2009/04/23 15:17:17.8     -75   -400    125    408    427 190.7  17.0  34172  289.77 0854.23
2009/04/23 15:17:17.9    -145   -437     19    461    462 198.4   2.4  34172  289.78 0854.23
2009/04/23 15:17:18.0    -270   -298     28    403    404 222.2   4.0  34178  289.88 0854.23
2009/04/23 15:17:18.1    -183   -228    -42    293    297 218.7  -8.3  34174  289.80 0854.23
2009/04/23 15:17:18.2    -112   -258    -73    282    292 203.4 -14.5  34174  289.81 0854.23
2009/04/23 15:17:18.3    -182   -354    -79    399    407 207.2 -11.3  34176  289.85 0854.23
2009/04/23 15:17:18.4    -440   -316      2    543    544 234.3   0.2  34176  289.85 0854.23
2009/04/23 15:17:18.5    -426   -193    -56    468    472 245.6  -6.9  34162  289.59 0854.23
2009/04/23 15:17:18.6    -354   -137     36    380    382 248.7   5.4  34192  290.13 0854.23
2009/04/23 15:17:18.7    -109   -143    227    181    290 217.4  57.3  34190  290.09 0854.23
2009/04/23 15:17:18.8     -69   -174     82    188    205 201.8  25.2  34194  290.14 0854.23
2009/04/23 15:17:18.9    -278   -172    128    328    352 238.2  22.5  34192  290.11 0854.23
2009/04/23 15:17:19.0    -330   -102      6    346    347 252.8   1.0  34188  290.03 0854.23
2009/04/23 15:17:19.1     -34   -180    -54    184    192 190.9 -16.4  34190  290.09 0854.25
2009/04/23 15:17:19.2      89   -293     83    307    319 163.1  15.2  34190  290.09 0854.25
2009/04/23 15:17:19.3      -6   -343    119    344    365 181.2  19.1  34188  290.06 0854.25
2009/04/23 15:17:19.4    -126   -335     97    359    372 200.7  15.1  34192  290.11 0854.25
2009/04/23 15:17:19.5     -38   -488    100    490    501 184.5  11.6  34186  290.00 0854.25
2009/04/23 15:17:19.6     124   -563    150    577    597 167.5  14.6  34180  289.90 0854.25
2009/04/23 15:17:19.7     197   -507    137    545    563 158.7  14.2  34180  289.92 0854.25
2009/04/23 15:17:19.8     318   -380     62    496    500 140.1   7.2  34174  289.81 0854.25
2009/04/23 15:17:19.9     132   -278      9    308    309 154.6   1.8  34182  289.93 0854.25
2009/04/23 15:17:20.0     180   -239    106    300    319 143.0  19.6  34180  289.90 0854.25
2009/04/23 15:17:20.1      22   -180     83    182    200 172.9  26.2  34184  289.97 0854.25
2009/04/23 15:17:20.2       0    -20     42     21     46 182.7  71.9  34194  290.14 0854.25
2009/04/23 15:17:20.3     -98     29     20    103    105 286.8  11.0  34204  290.31 0854.25
2009/04/23 15:17:20.4    -116     84    -11    144    145 306.0  -4.6  34200  290.26 0854.25
2009/04/23 15:17:20.5    -239    234    -98    335    349 314.4 -21.1  34166  289.69 0854.25
2009/04/23 15:17:20.6    -265    124    -95    293    309 295.1 -18.1  34178  289.88 0854.25
2009/04/23 15:17:20.7    -139     45    -18    147    149 288.2  -7.2  34184  289.97 0854.25
2009/04/23 15:17:20.8     -69   -151     90    167    189 204.5  30.8  34200  290.25 0854.25
2009/04/23 15:17:20.9     -61   -149    141    162    214 202.3  45.6  34200  290.26 0854.25
2009/04/23 15:17:21.0    -141    -98    213    172    273 235.1  57.1  34210  290.42 0854.25
2009/04/23 15:17:21.1     -76   -204    173    218    278 200.5  42.4  34194  290.15 0854.30
2009/04/23 15:17:21.2      19   -174    210    176    274 173.8  55.8  34206  290.34 0854.30
2009/04/23 15:17:21.3     174   -101    239    202    312 120.2  55.6  34218  290.56 0854.30
2009/04/23 15:17:21.4      48      3    170     49    176  85.6  84.1  34216  290.53 0854.30
2009/04/23 15:17:21.5     -27     48    156     56    165 331.0  79.9  34216  290.53 0854.30
2009/04/23 15:17:21.6    -127   -108     51    167    175 229.6  17.1  34206  290.35 0854.30
2009/04/23 15:17:21.7    -185    -64     35    196    200 250.9  10.1  34196  290.19 0854.30
2009/04/23 15:17:21.8    -203    -91     27    223    225 245.8   7.1  34204  290.31 0854.30
2009/04/23 15:17:21.9    -168      1     91    169    191 270.4  31.0  34206  290.36 0854.30
2009/04/23 15:17:22.0    -237    -56     93    244    261 256.7  22.0  34218  290.56 0854.30
2009/04/23 15:17:22.1    -376    -88      1    387    388 256.8   0.2  34230  290.76 0854.30
2009/04/23 15:17:22.2    -387     -8     15    388    389 268.8   2.2  34236  290.86 0854.30
2009/04/23 15:17:22.3    -356   -231     88    425    435 237.0  11.8  34224  290.65 0854.30
2009/04/23 15:17:22.4    -115   -345    147    364    392 198.5  23.2  34202  290.30 0854.30
2009/04/23 15:17:22.5    -157   -533    109    556    567 196.4  11.1  34206  290.36 0854.30
2009/04/23 15:17:22.6      -4   -516    170    517    545 180.5  18.2  34214  290.48 0854.30
2009/04/23 15:17:22.7      -2   -511    219    512    556 180.3  24.6  34214  290.48 0854.30
2009/04/23 15:17:22.8      44   -371    227    374    437 173.1  34.2  34234  290.84 0854.30
2009/04/23 15:17:22.9       2   -295    153    296    333 179.5  29.4  34224  290.65 0854.30
2009/04/23 15:17:23.0     -19   -249     68    250    260 184.5  15.3  34214  290.49 0854.30
2009/04/23 15:17:23.1      -3   -235     56    236    243 180.9  13.5  34214  290.49 0854.31
2009/04/23 15:17:23.2    -178   -239    -22    299    300 216.7  -4.4  34218  290.54 0854.31
2009/04/23 15:17:23.3    -143   -235    -25    276    278 211.4  -5.2  34216  290.53 0854.31
2009/04/23 15:17:23.4       9   -310     20    311    312 178.2   3.8  34216  290.53 0854.31
2009/04/23 15:17:23.5     -44   -202     27    207    209 192.5   7.5  34218  290.57 0854.31
2009/04/23 15:17:23.6     -47   -137    -54    146    155 199.2 -25.4  34220  290.58 0854.31
2009/04/23 15:17:23.7     -47   -107     41    117    125 203.7  19.4  34222  290.62 0854.31
2009/04/23 15:17:23.8     104   -392     -1    406    407 165.1  -0.3  34214  290.48 0854.31
2009/04/23 15:17:23.9     135   -283     92    314    328 154.5  16.3  34212  290.46 0854.31
2009/04/23 15:17:24.0      33   -260     86    263    277 172.7  18.1  34218  290.54 0854.31
2009/04/23 15:17:24.1      61   -259    189    267    327 166.6  38.8  34218  290.54 0854.31
2009/04/23 15:17:24.2      56   -299    206    305    368 169.3  37.3  34210  290.42 0854.31
2009/04/23 15:17:24.3     233   -329    300    404    503 144.7  40.2  34186  290.00 0854.31
2009/04/23 15:17:24.4      42   -410    325    413    525 174.0  42.2  34166  289.67 0854.31
2009/04/23 15:17:24.5     -44   -405    180    408    445 186.3  25.2  34194  290.14 0854.31
2009/04/23 15:17:24.6    -248   -409    122    479    495 211.2  14.3  34212  290.45 0854.31
2009/04/23 15:17:24.7    -237   -264      5    355    356 221.9   0.8  34208  290.40 0854.31
2009/04/23 15:17:24.8    -201   -272     49    339    343 216.5   8.3  34202  290.30 0854.31
2009/04/23 15:17:24.9    -166   -614     49    637    640 195.2   4.5  34198  290.20 0854.31
2009/04/23 15:17:25.0    -159   -508     66    533    538 197.4   7.1  34194  290.14 0854.31
2009/04/23 15:17:25.1      36   -310    214    313    379 173.3  37.6  34196  290.18 0854.31
2009/04/23 15:17:25.2      84   -255    123    269    295 161.7  26.2  34196  290.17 0854.31
2009/04/23 15:17:25.3      59   -212    192    221    292 164.4  45.8  34214  290.48 0854.31
2009/04/23 15:17:25.4     206   -452    304    497    582 155.5  34.4  34198  290.23 0854.31
2009/04/23 15:17:25.5     117   -431    330    447    555 164.8  40.1  34198  290.21 0854.31
2009/04/23 15:17:25.6     149   -304    165    339    377 153.9  27.9  34196  290.18 0854.31
2009/04/23 15:17:25.7     -50   -396    391    400    559 187.2  49.4  34182  289.93 0854.31
2009/04/23 15:17:25.8    -285   -238     33    372    374 230.1   5.2  34164  289.65 0854.31
2009/04/23 15:17:25.9    -286    -62    -53    293    298 257.6 -10.3  34164  289.64 0854.31
2009/04/23 15:17:26.0    -101     45   -123    111    165 294.0 -57.7  34174  289.82 0854.31
2009/04/23 15:17:26.1      19    302     48    303    307   3.6   9.0  34178  289.86 0854.31
2009/04/23 15:17:26.2      58    194    137    203    244  16.7  37.4  34172  289.77 0854.31
2009/04/23 15:17:26.3     220    100     20    242    243  65.6   4.9  34176  289.85 0854.31
2009/04/23 15:17:26.4     117    143     30    185    188  39.4   9.3  34184  289.97 0854.31
2009/04/23 15:17:26.5     136    180    -12    226    227  37.0  -3.2  34182  289.96 0854.31
2009/04/23 15:17:26.6     -32     29     28     44     52 312.2  35.5  34184  289.99 0854.31
2009/04/23 15:17:26.7     -80    127    140    151    205 327.9  47.7  34176  289.85 0854.31
2009/04/23 15:17:26.8     -82    157    210    178    275 332.4  55.4  34196  290.19 0854.31
2009/04/23 15:17:26.9     -38     94    196    102    220 337.7  70.6  34202  290.28 0854.31
2009/04/23 15:17:27.0    -103     26    199    107    225 284.2  69.6  34206  290.35 0854.31
2009/04/23 15:17:27.1    -112   -216    157    244    290 207.4  35.6  34180  289.92 0854.31
2009/04/23 15:17:27.2      39   -279    143    282    316 172.0  29.1  34168  289.70 0854.31
2009/04/23 15:17:27.3     -96   -282    275    299    406 198.9  47.5  34170  289.74 0854.31
2009/04/23 15:17:27.4    -242   -247    162    347    382 224.4  27.1  34174  289.82 0854.31
2009/04/23 15:17:27.5    -215   -472     -8    519    520 204.5  -0.9  34162  289.60 0854.31
2009/04/23 15:17:27.6    -217   -498    126    544    559 203.6  13.1  34156  289.51 0854.31
2009/04/23 15:17:27.7     -25   -284    333    286    438 185.1  55.0  34166  289.69 0854.31
2009/04/23 15:17:27.8      51   -414    336    418    536 172.9  43.1  34170  289.74 0854.31
2009/04/23 15:17:27.9      -8   -482    318    483    578 181.0  36.5  34216  290.53 0854.31
2009/04/23 15:17:28.0     -29   -347    375    349    512 184.9  52.2  34188  290.05 0854.31
2009/04/23 15:17:28.1    -134   -581    389    597    712 193.0  36.2  34214  290.49 0854.31
2009/04/23 15:17:28.2      -4   -309    259    310    403 180.9  44.1  34208  290.38 0854.31
2009/04/23 15:17:28.3      31   -134    256    138    290 166.7  69.3  34212  290.46 0854.31
2009/04/23 15:17:28.4      36   -139    267    144    303 165.3  69.6  34218  290.54 0854.31
2009/04/23 15:17:28.5    -169   -264    493    314    584 212.6  64.7  34192  290.12 0854.31
2009/04/23 15:17:28.6    -316   -399    153    510    533 218.4  16.7  34168  289.70 0854.31
2009/04/23 15:17:28.7    -282   -297     -1    410    411 223.5  -0.3  34166  289.66 0854.31
2009/04/23 15:17:28.8    -208   -188    -15    281    282 227.8  -3.2  34172  289.76 0854.31
2009/04/23 15:17:28.9    -105   -231    -30    254    256 204.5  -6.9  34190  290.09 0854.31
2009/04/23 15:17:29.0     -51   -177     -3    185    186 196.3  -1.2  34206  290.35 0854.34
2009/04/23 15:17:29.1      21   -207     10    209    210 174.2   2.8  34202  290.30 0854.34
2009/04/23 15:17:29.2      37   -181     50    185    192 168.2  15.3  34194  290.14 0854.34
2009/04/23 15:17:29.3      42   -136    133    143    195 162.6  47.9  34210  290.43 0854.34
2009/04/23 15:17:29.4       8   -151     90    152    176 176.9  33.1  34196  290.18 0854.34
2009/04/23 15:17:29.5     -97   -125     31    159    163 217.9  11.1  34154  289.46 0854.34
2009/04/23 15:17:29.6     -93     59     90    111    142 302.4  43.7  34204  290.31 0854.34
2009/04/23 15:17:29.7     -94     20     19     97     99 282.4  11.1  34186  290.02 0854.34
2009/04/23 15:17:29.8    -148    153     -6    214    215 315.9  -1.8  34194  290.14 0854.34
2009/04/23 15:17:29.9    -137     87    -21    163    165 302.6  -7.3  34178  289.87 0854.34
2009/04/23 15:17:30.0    -178     34    -36    182    186 281.0 -11.3  34170  289.75 0854.37
2009/04/23 15:17:30.1    -222     67     -5    232    233 286.8  -1.3  34176  289.83 0854.37
2009/04/23 15:17:30.2    -295    -82    214    307    374 254.5  38.4  34184  289.99 0854.37
2009/04/23 15:17:30.3    -255   -216    272    335    431 229.8  43.3  34174  289.82 0854.37
2009/04/23 15:17:30.4    -125   -394    323    414    525 197.6  41.9  34150  289.40 0854.37
2009/04/23 15:17:30.5    -309   -568    292    647    709 208.6  25.9  34146  289.32 0854.37
2009/04/23 15:17:30.6    -394   -475     34    618    619 219.6   3.2  34132  289.11 0854.37
2009/04/23 15:17:30.7    -225   -409    155    467    493 208.9  18.4  34152  289.42 0854.37
2009/04/23 15:17:30.8     -96   -276     21    293    294 199.2   4.2  34158  289.54 0854.37
2009/04/23 15:17:30.9     -50    -96    138    109    175 207.6  57.7  34166  289.69 0854.37
2009/04/23 15:17:31.0     -15   -109    168    111    201 188.0  63.4  34176  289.85 0854.37
2009/04/23 15:17:31.1       8     -8    193     12    193 136.8  90.0  34186  290.02 0854.37
2009/04/23 15:17:31.2     -73    -58    230     94    248 231.8  76.8  34196  290.18 0854.37
2009/04/23 15:17:31.3       5    -72    309     73    317 175.5  86.8  34216  290.53 0854.37
2009/04/23 15:17:31.4     155     77    146    174    227  63.4  44.1  34198  290.23 0854.37
2009/04/23 15:17:31.5    -360   -142     37    388    390 248.5   5.5  34162  289.59 0854.37
2009/04/23 15:17:31.6    -322    -85     68    334    342 255.1  11.6  34162  289.62 0854.37
2009/04/23 15:17:31.8    -190    -62     71    201    213 251.8  20.0  34174  289.80 0854.37
2009/04/23 15:17:31.8    -342    -26    111    343    361 265.6  17.9  34180  289.91 0854.37
2009/04/23 15:17:31.9    -429    -19    123    430    448 267.4  16.0  34174  289.82 0854.37
2009/04/23 15:17:32.0    -208    148    151    256    297 305.5  33.4  34202  290.29 0854.40
2009/04/23 15:17:32.1    -103     41     82    111    138 291.7  40.1  34200  290.26 0854.40
2009/04/23 15:17:32.2    -123   -145     86    191    209 220.3  25.9  34144  289.31 0854.40
2009/04/23 15:17:32.3     -78   -191     97    207    228 202.3  27.1  34136  289.18 0854.40
2009/04/23 15:17:32.4     -55    -35     71     66     96 237.6  51.6  34142  289.26 0854.40
2009/04/23 15:17:32.5    -129     14     85    130    155 276.2  35.6  34150  289.41 0854.40
2009/04/23 15:17:32.6    -268    148    131    307    333 298.9  24.6  34164  289.64 0854.40
2009/04/23 15:17:32.7      34    119     74    124    144  16.0  34.0  34160  289.58 0854.40
2009/04/23 15:17:32.8      55    155    114    165    200  19.6  37.8  34166  289.67 0854.40
2009/04/23 15:17:32.9     -70    251     98    261    278 344.4  21.3  34178  289.86 0854.40
2009/04/23 15:17:33.0      48    178    162    185    245  15.1  45.8  34208  290.40 0854.40
2009/04/23 15:17:33.1     127    165    224    209    306  37.8  52.2  34224  290.65 0854.40
2009/04/23 15:17:33.2      98    157    169    186    251  32.1  47.0  34278  291.59 0854.40
2009/04/23 15:17:33.3      15    128    170    129    213   7.1  59.0  34300  291.96 0854.40
2009/04/23 15:17:33.4     232    120    275    262    379  62.7  51.5  34298  291.90 0854.40
2009/04/23 15:17:33.5     102     98    197    142    242  46.0  60.8  34282  291.66 0854.40
2009/04/23 15:17:33.6     -24     90    194     94    215 344.9  72.7  34284  291.67 0854.40
2009/04/23 15:17:33.7      76     69    229    103    251  47.8  74.0  34224  290.67 0854.40
2009/04/23 15:17:33.9     204     55    241    212    320  74.9  54.2  34208  290.39 0854.40
2009/04/23 15:17:34.0     268     92    232    284    366  70.9  43.6  34182  289.93 0854.40
2009/04/23 15:17:34.1     458    173    241    490    546  69.2  28.2  34226  290.70 0854.42
2009/04/23 15:17:34.2     361    177    346    403    531  63.8  45.0  34218  290.57 0854.42
2009/04/23 15:17:34.3     476    123    198    492    530  75.5  23.1  34172  289.78 0854.42
2009/04/23 15:17:34.4     383    154    231    413    473  68.0  31.9  34190  290.07 0854.42
2009/04/23 15:17:34.5     236     41    297    240    381  80.1  56.9  34170  289.74 0854.42
2009/04/23 15:17:34.6     137    100    306    170    350  53.8  68.6  34194  290.15 0854.42
2009/04/23 15:17:34.7     -45     54    234     71    244 320.3  82.7  34210  290.41 0854.42
2009/04/23 15:17:34.8      46    -81    215     94    234 150.1  75.0  34208  290.40 0854.42
2009/04/23 15:17:34.9     -10    -31    219     33    221 198.7  90.0  34216  290.53 0854.42
2009/04/23 15:17:35.0    -153   -121    319    196    374 231.6  65.7  34264  291.34 0854.42
2009/04/23 15:17:35.1    -124    -25    277    127    304 258.5  73.5  34230  290.76 0854.42
2009/04/23 15:17:35.2     192     -5    294    193    351  91.7  63.7  34152  289.44 0854.42
2009/04/23 15:17:35.3     227     15    382    228    444  86.1  66.5  34182  289.96 0854.42
2009/04/23 15:17:35.4     -14     -9    280     17    280 237.6  90.0  34200  290.26 0854.42
2009/04/23 15:17:35.5     -30     34    174     46    179 317.7  84.9  34180  289.91 0854.42
2009/04/23 15:17:35.6      -1    -30     33     31     45 182.6  51.2  34202  290.28 0854.42
2009/04/23 15:17:35.7    -277   -194     73    339    348 235.0  12.3  34228  290.71 0854.42
2009/04/23 15:17:35.8    -273   -177    -99    326    340 236.9 -21.9  34206  290.35 0854.42
2009/04/23 15:17:35.9    -336     34    -51    338    342 275.9  -8.6  34204  290.33 0854.42
2009/04/23 15:17:36.0    -305    -81    123    316    339 255.0  22.4  34204  290.32 0854.42
2009/04/23 15:17:36.1    -333   -155    164    368    402 245.0  25.8  34212  290.45 0854.43
2009/04/23 15:17:36.2    -212   -210     94    299    314 225.3  17.5  34214  290.48 0854.43
2009/04/23 15:17:36.3    -223   -318     -4    389    390 215.1  -0.7  34188  290.04 0854.43
2009/04/23 15:17:36.4    -279   -431      3    514    515 213.0   0.4  34212  290.44 0854.43
2009/04/23 15:17:36.5    -193   -572     18    604    605 198.7   1.7  34220  290.58 0854.43
2009/04/23 15:17:36.6    -149   -461    -10    485    486 197.9  -1.3  34170  289.74 0854.43
2009/04/23 15:17:36.7      -4   -397     62    398    403 180.6   8.9  34228  290.71 0854.43
2009/04/23 15:17:36.8     -22   -477     53    478    481 182.7   6.4  34202  290.30 0854.43
2009/04/23 15:17:36.9      38   -341    144    344    372 173.5  23.9  34222  290.64 0854.43
2009/04/23 15:17:37.0      30   -330     85    332    343 174.8  14.5  34214  290.49 0854.43
2009/04/23 15:17:37.1     -45   -249     -5    254    255 190.2  -1.3  34194  290.14 0854.43
2009/04/23 15:17:37.2     -84   -184    -52    203    210 204.5 -14.5  34206  290.35 0854.43
2009/04/23 15:17:37.3     -51   -166     10    174    175 197.2   3.3  34212  290.47 0854.43
2009/04/23 15:17:37.4     -88   -152     29    176    179 210.1   9.3  34218  290.57 0854.43
2009/04/23 15:17:37.5      32   -120     10    125    126 164.9   4.9  34212  290.45 0854.43
2009/04/23 15:17:37.6      25    -20     94     33     99 129.5  80.7  34204  290.31 0854.43
2009/04/23 15:17:37.7      -8     52    108     53    120 351.1  72.4  34232  290.81 0854.43
2009/04/23 15:17:37.8     -66    -80    147    104    180 219.7  61.3  34234  290.84 0854.43
2009/04/23 15:17:37.9    -117     69     86    136    160 300.7  35.5  34220  290.60 0854.43
2009/04/23 15:17:38.0      49   -162    144    170    222 163.1  44.8  34210  290.43 0854.43
2009/04/23 15:17:38.1      -5   -319    160    320    357 181.0  28.6  34188  290.06 0854.44
2009/04/23 15:17:38.2      47   -353    304    357    468 172.3  44.8  34174  289.80 0854.44
2009/04/23 15:17:38.3       7   -250    271    251    369 178.2  52.5  34168  289.72 0854.44
2009/04/23 15:17:38.4     115   -237    127    264    292 154.1  27.3  34182  289.93 0854.44
2009/04/23 15:17:38.5     146   -229    -15    272    273 147.5  -3.2  34182  289.95 0854.44
2009/04/23 15:17:38.6     197   -190     18    274    275 134.0   3.8  34188  290.03 0854.44
2009/04/23 15:17:38.7     121   -171    -16    210    211 144.8  -4.6  34186  290.01 0854.44
2009/04/23 15:17:38.8     168   -147     78    224    237 131.3  20.0  34180  289.92 0854.44
2009/04/23 15:17:38.9     220   -371     44    432    435 149.3   5.9  34180  289.90 0854.44
2009/04/23 15:17:39.0     153   -335     22    369    370 155.4   3.5  34180  289.91 0854.44
2009/04/23 15:17:39.1     222   -268    120    349    370 140.4  19.1  34160  289.57 0854.44
2009/04/23 15:17:39.2     154   -321      0    357    358 154.4   0.0  34170  289.74 0854.44
2009/04/23 15:17:39.3      55   -472    -10    476    477 173.3  -1.3  34172  289.79 0854.44
2009/04/23 15:17:39.4      50   -417    123    421    439 173.1  16.4  34160  289.58 0854.44
2009/04/23 15:17:39.5      68   -595    209    599    635 173.4  19.3  34148  289.37 0854.44
2009/04/23 15:17:39.6      81   -475    203    482    523 170.3  24.2  34166  289.66 0854.44
2009/04/23 15:17:39.7      75   -345    -84    354    364 167.6 -13.4  34158  289.55 0854.44
2009/04/23 15:17:39.8      65   -240    -69    249    259 164.8 -15.5  34164  289.63 0854.44
2009/04/23 15:17:39.9     -54   -268   -107    274    294 191.6 -26.9  34164  289.64 0854.44
2009/04/23 15:17:40.0     -48   -355     47    359    363 187.8   7.5  34162  289.59 0854.44
2009/04/23 15:17:40.1     -48   -431     61    434    439 186.5   8.0  34164  289.63 0854.47
2009/04/23 15:17:40.2    -168   -388    107    423    437 203.4  14.3  34164  289.65 0854.47
2009/04/23 15:17:40.3    -274   -456    109    533    545 211.0  11.6  34170  289.75 0854.47
2009/04/23 15:17:40.4    -216   -448    116    498    512 205.8  13.1  34182  289.96 0854.47
2009/04/23 15:17:40.5     -81   -521    133    528    545 188.9  14.2  34180  289.90 0854.47
2009/04/23 15:17:40.6    -212   -511    101    554    564 202.6  10.4  34192  290.13 0854.47
2009/04/23 15:17:40.7    -306   -517   -120    601    613 210.7 -11.3  34200  290.25 0854.47
2009/04/23 15:17:40.8    -369   -347   -201    507    545 226.8 -27.3  34196  290.19 0854.47
2009/04/23 15:17:40.9    -286   -507   -137    583    599 209.4 -13.3  34178  289.86 0854.47
2009/04/23 15:17:41.0    -254   -575    -81    629    635 203.9  -7.4  34166  289.69 0854.47
2009/04/23 15:17:41.1    -237   -453    278    512    582 207.7  30.9  34156  289.50 0854.47
2009/04/23 15:17:41.2    -264   -533    235    595    639 206.4  22.7  34164  289.64 0854.47
2009/04/23 15:17:41.3    -267   -472     50    543    546 209.5   5.3  34158  289.53 0854.47
2009/04/23 15:17:41.4    -245   -397     53    467    471 211.7   6.5  34166  289.66 0854.47
2009/04/23 15:17:41.5     -57   -226    131    234    268 194.3  31.4  34164  289.63 0854.47
2009/04/23 15:17:41.6     -69    -43    217     82    231 237.6  78.6  34190  290.09 0854.47
2009/04/23 15:17:41.7     123   -161    125    203    238 142.6  34.5  34180  289.91 0854.47
2009/04/23 15:17:41.8     340    -17    195    341    392  92.9  32.3  34180  289.91 0854.47
2009/04/23 15:17:41.9     282    103    251    301    391  70.0  44.1  34178  289.87 0854.47
2009/04/23 15:17:42.0     281     43     25    285    287  81.2   5.2  34168  289.71 0854.47
2009/04/23 15:17:42.1     169     26    -38    172    177  81.0 -12.6  34166  289.69 0854.46
2009/04/23 15:17:42.2      70     -2    -22     71     75  91.7 -17.6  34172  289.77 0854.46
2009/04/23 15:17:42.3      71    -51     45     88     98 125.5  28.7  34174  289.80 0854.46
2009/04/23 15:17:42.4      -4     42     74     43     85 353.8  67.2  34192  290.13 0854.46
2009/04/23 15:17:42.5    -101    -18     25    103    107 259.9  13.7  34180  289.91 0854.46
2009/04/23 15:17:42.6     -70     62     40     94    102 311.8  24.1  34162  289.62 0854.46
2009/04/23 15:17:42.7     -61     96     31    115    120 327.5  15.3  34152  289.45 0854.46
2009/04/23 15:17:42.8     -16    106     11    108    109 351.1   5.9  34152  289.45 0854.46
2009/04/23 15:17:42.9    -102     48     -3    113    114 295.4  -1.8  34162  289.60 0854.46
2009/04/23 15:17:43.0    -120    108     17    162    163 312.0   6.1  34166  289.67 0854.46
2009/04/23 15:17:43.1     -76    107    -10    132    133 324.4  -4.6  34162  289.60 0854.46
2009/04/23 15:17:43.2    -102     -1     21    103    106 269.1  11.6  34174  289.82 0854.46
2009/04/23 15:17:43.3    -201    -31    -63    204    213 261.2 -22.3  34186  290.01 0854.46
2009/04/23 15:17:43.4    -313    -77   -111    323    342 256.2 -19.1  34174  289.82 0854.46
2009/04/23 15:17:43.5    -289   -248   -109    382    398 229.4 -15.9  34188  290.04 0854.46
2009/04/23 15:17:43.6     -26   -404   -115    405    421 183.8 -20.5  34170  289.75 0854.46
2009/04/23 15:17:43.7      55   -402   -184    406    445 172.1 -30.6  34162  289.61 0854.46
2009/04/23 15:17:43.8    -239   -142    -35    279    282 239.3  -7.2  34170  289.73 0854.46
2009/04/23 15:17:43.9    -291   -198    120    353    374 235.7  18.8  34164  289.65 0854.46
2009/04/23 15:17:44.0    -277   -177     71    330    338 237.4  12.3  34178  289.86 0854.46
2009/04/23 15:17:44.1    -258   -232    109    348    365 228.1  17.5  34178  289.86 0854.45
2009/04/23 15:17:44.2    -373   -137    -33    398    400 249.8  -4.8  34152  289.43 0854.45
2009/04/23 15:17:44.3    -187   -169    182    253    311 227.8  39.5  34164  289.64 0854.45
2009/04/23 15:17:44.4    -147   -387   -136    414    436 200.8 -18.3  34156  289.51 0854.45
2009/04/23 15:17:44.5    -209   -308     31    373    375 214.1   4.9  34162  289.62 0854.45
2009/04/23 15:17:44.6     -21   -286     22    287    288 184.2   4.6  34156  289.49 0854.45
2009/04/23 15:17:44.7      -8   -428    -74    429    436 181.2  -9.8  34154  289.48 0854.45
2009/04/23 15:17:44.8      40   -512    -74    514    520 175.5  -8.2  34154  289.47 0854.45
2009/04/23 15:17:44.9     -50   -515   -167    518    545 185.6 -17.9  34146  289.35 0854.45
2009/04/23 15:17:45.0     -71   -374     48    381    385 190.9   7.2  34146  289.32 0854.45
2009/04/23 15:17:45.1    -203   -448    100    492    503 204.4  11.6  34162  289.61 0854.45
2009/04/23 15:17:45.2    -391   -458    -58    603    606 220.5  -5.6  34178  289.88 0854.45
2009/04/23 15:17:45.3    -457   -364    -73    585    590 231.5  -7.2  34164  289.63 0854.45
2009/04/23 15:17:45.4    -392   -321     83    507    514 230.7   9.3  34166  289.66 0854.45
2009/04/23 15:17:45.5    -318   -287    154    429    455 228.0  20.6  34158  289.53 0854.45
2009/04/23 15:17:45.6    -244   -163    182    294    345 236.3  34.9  34168  289.72 0854.45
2009/04/23 15:17:45.7    -205   -187    153    278    317 227.6  31.3  34168  289.71 0854.45
2009/04/23 15:17:45.8    -241   -292    284    379    473 219.5  40.6  34174  289.82 0854.45
2009/04/23 15:17:45.9    -273   -319    337    421    539 220.6  42.8  34194  290.15 0854.45
2009/04/23 15:17:46.0     -82   -353    323    363    485 193.1  46.3  34192  290.12 0854.45
2009/04/23 15:17:46.1    -128   -500    245    517    572 194.4  27.2  34158  289.53 0854.47
2009/04/23 15:17:46.2     -53   -393    330    397    516 187.7  43.8  34174  289.81 0854.47
2009/04/23 15:17:46.3      26   -428    380    429    573 176.5  46.1  34218  290.55 0854.47
2009/04/23 15:17:46.4     140   -352    345    379    512 158.3  47.0  34238  290.90 0854.47
2009/04/23 15:17:46.5      53   -310    274    315    417 170.2  45.5  34224  290.67 0854.47
2009/04/23 15:17:46.6      16   -218    159    219    270 175.6  39.5  34218  290.54 0854.47
2009/04/23 15:17:46.7      13   -355    -16    356    357 177.9  -2.7  34200  290.25 0854.47
2009/04/23 15:17:46.8      33   -265    -87    268    281 172.9 -23.3  34190  290.09 0854.47
2009/04/23 15:17:46.9     -69   -203   -184    215    282 198.9 -49.2  34188  290.05 0854.47
2009/04/23 15:17:47.0      40    -71    -55     82     98 150.1 -41.4  34198  290.23 0854.47
2009/04/23 15:17:47.1      52      8     22     53     57  81.2  23.0  34202  290.28 0854.47
2009/04/23 15:17:47.2      78   -140    -42    161    167 151.0 -14.7  34194  290.16 0854.47
2009/04/23 15:17:47.3    -197   -362    -45    413    416 208.6  -6.2  34156  289.51 0854.47
2009/04/23 15:17:47.4     -59   -301   -104    307    325 191.1 -18.7  34172  289.78 0854.47
2009/04/23 15:17:47.5    -172   -373    -49    412    415 204.8  -6.9  34156  289.51 0854.47
2009/04/23 15:17:47.6    -129   -358    232    381    446 200.0  34.3  34172  289.77 0854.47
2009/04/23 15:17:47.7     -67   -283    268    291    395 193.4  47.5  34176  289.84 0854.47
2009/04/23 15:17:47.8      -8   -337    228    338    407 181.4  37.2  34176  289.84 0854.47
2009/04/23 15:17:47.9     202   -327    223    385    444 148.3  32.8  34174  289.82 0854.47
2009/04/23 15:17:48.0      39   -421    286    423    510 174.6  37.4  34168  289.71 0854.47
2009/04/23 15:17:48.1    -120   -444     99    461    472 195.2  12.2  34166  289.69 0854.48
2009/04/23 15:17:48.2     -96   -476     87    486    494 191.5  10.2  34176  289.83 0854.48
2009/04/23 15:17:48.3     -46   -597    139    599    615 184.5  13.1  34174  289.80 0854.48
2009/04/23 15:17:48.4     -98   -719    263    726    773 187.8  19.9  34168  289.70 0854.48
2009/04/23 15:17:48.5    -124   -736    149    747    762 189.6  11.3  34170  289.75 0854.48
2009/04/23 15:17:48.6     -73   -589    366    594    697 187.1  34.6  34170  289.75 0854.48
2009/04/23 15:17:48.7    -211   -636    292    671    731 198.4  25.1  34188  290.05 0854.48
2009/04/23 15:17:48.8    -206   -357    262    413    489 210.0  35.5  34194  290.15 0854.48
2009/04/23 15:17:48.9    -267   -522    -52    587    590 207.1  -5.1  34192  290.10 0854.48
2009/04/23 15:17:49.0    -203   -612    -14    645    646 198.4  -1.3  34190  290.09 0854.48
2009/04/23 15:17:49.1    -241   -697     68    738    742 199.1   5.3  34180  289.92 0854.48
2009/04/23 15:17:49.2    -305   -609     80    682    687 206.6   6.7  34186  290.00 0854.48
2009/04/23 15:17:49.3    -343   -479    -11    590    591 215.6  -1.2  34188  290.03 0854.48
2009/04/23 15:17:49.4    -195   -471     72    510    516 202.5   8.1  34182  289.95 0854.48
2009/04/23 15:17:49.5     -92   -512    102    521    532 190.2  11.1  34188  290.06 0854.48
2009/04/23 15:17:49.6    -136   -409     56    432    436 198.4   7.5  34194  290.14 0854.48
2009/04/23 15:17:49.7     -58   -353    -65    358    364 189.3 -10.4  34188  290.04 0854.48
2009/04/23 15:17:49.8      -4   -185   -110    186    216 181.4 -37.9  34192  290.11 0854.48
2009/04/23 15:17:49.9       9   -118    -81    119    143 175.5 -42.0  34194  290.14 0854.48
2009/04/23 15:17:50.0      10   -166    -15    167    168 176.4  -5.4  34186  290.01 0854.48
2009/04/23 15:17:50.1      45   -234    -42    239    243 169.1 -10.1  34188  290.05 0854.46
2009/04/23 15:17:50.2    -150    -40     -5    156    157 254.9  -2.1  34196  290.18 0854.46
2009/04/23 15:17:50.3    -129     47    -30    138    142 290.0 -12.4  34190  290.08 0854.46
2009/04/23 15:17:50.4    -119     61    107    134    171 297.1  43.0  34198  290.21 0854.46
2009/04/23 15:17:50.5     -82    -19     76     85    114 256.7  46.9  34202  290.28 0854.46
2009/04/23 15:17:50.6     -22     41    -15     47     49 331.9 -23.8  34198  290.23 0854.46
2009/04/23 15:17:50.7      -2    153     18    154    156 359.0   6.7  34198  290.21 0854.46
2009/04/23 15:17:50.8     -24     73     24     78     82 341.3  17.3  34196  290.18 0854.46
2009/04/23 15:17:50.9     -14     21     15     26     30 327.4  33.5  34198  290.21 0854.46
2009/04/23 15:17:51.0      18    -17     -9     26     28 133.3 -19.7  34196  290.19 0854.46
2009/04/23 15:17:51.1      45    -30    -19     55     58 124.2 -23.3  34192  290.11 0854.46
2009/04/23 15:17:51.2    -172    -11    -34    173    177 266.3 -11.3  34214  290.50 0854.46
2009/04/23 15:17:51.3    -158      2    -97    159    186 270.9 -39.2  34214  290.48 0854.46
2009/04/23 15:17:51.4       2    -29   -147     30    150 175.5 -90.0  34214  290.48 0854.46
2009/04/23 15:17:51.5     147     90   -148    173    227  58.5 -49.2  34202  290.30 0854.46
2009/04/23 15:17:51.6     161    125   -187    205    277  52.2 -51.5  34196  290.19 0854.46
2009/04/23 15:17:51.7     270    228   -231    354    422  49.8 -40.6  34188  290.03 0854.46
2009/04/23 15:17:51.8     421     72    138    428    450  80.3  17.9  34182  289.95 0854.46
2009/04/23 15:17:51.9     515    -64    292    520    596  97.1  31.9  34182  289.93 0854.46
2009/04/23 15:17:52.0     596    135    142    612    629  77.2  13.1  34188  290.03 0854.46
2009/04/23 15:17:52.1     518     64    146    523    544  82.9  15.6  34192  290.11 0854.46
2009/04/23 15:17:52.2     345   -163    346    382    515 115.4  46.9  34196  290.18 0854.46
2009/04/23 15:17:52.3     553    102    238    563    611  79.5  24.2  34190  290.07 0854.46
2009/04/23 15:17:52.4     508   -103    187    519    551 101.5  20.7  34188  290.04 0854.46
2009/04/23 15:17:52.5     437    -59    153    441    467  97.7  19.2  34184  289.99 0854.46
2009/04/23 15:17:52.6     365    -84    177    375    414 103.0  27.1  34192  290.13 0854.46
2009/04/23 15:17:52.7     251   -100    233    271    357 111.7  45.2  34192  290.13 0854.46
2009/04/23 15:17:52.8     307      4    277    308    414  89.2  46.6  34188  290.06 0854.46
2009/04/23 15:17:52.9     272     73    227    282    362  75.0  43.0  34208  290.37 0854.46
2009/04/23 15:17:53.0     160     96    295    187    349  59.1  64.7  34208  290.39 0854.46
2009/04/23 15:17:53.1     198    109    284    227    363  61.2  57.3  34226  290.68 0854.46
2009/04/23 15:17:53.2      97     33    242    103    263  70.9  76.0  34232  290.79 0854.46
2009/04/23 15:17:53.3      74    -82    176    111    208 138.1  64.7  34224  290.65 0854.46
2009/04/23 15:17:53.4     -50     82    194     97    216 328.4  71.7  34228  290.74 0854.46
2009/04/23 15:17:53.5    -142   -113    105    182    210 231.4  32.7  34208  290.40 0854.46
2009/04/23 15:17:53.6    -144   -129    129    194    232 228.0  36.5  34206  290.36 0854.46
2009/04/23 15:17:53.7    -137   -141     83    197    213 224.1  24.1  34202  290.30 0854.46
2009/04/23 15:17:53.8     -99   -135    167    168    236 216.3  50.0  34218  290.55 0854.46
2009/04/23 15:17:53.9      83    -15    142     85    165 100.6  66.2  34238  290.91 0854.46
2009/04/23 15:17:54.0      70      5     82     71    108  85.7  54.8  34230  290.77 0854.46
2009/04/23 15:17:54.1     115    -93     86    149    172 129.1  32.7  34240  290.92 0854.46
2009/04/23 15:17:54.2     -12      0    136     13    136 265.6  90.0  34242  290.98 0854.46
2009/04/23 15:17:54.3     -75    171    181    187    260 336.2  49.2  34234  290.82 0854.46
2009/04/23 15:17:54.4    -185    -11     44    186    192 266.5  13.5  34244  290.99 0854.46
2009/04/23 15:17:54.5    -131     71     12    150    151 298.4   4.9  34242  290.98 0854.46
2009/04/23 15:17:54.6    -168    113    109    203    230 304.0  30.8  34244  291.01 0854.46
2009/04/23 15:17:54.7    -301    100     86    318    330 288.4  15.1  34250  291.09 0854.46
2009/04/23 15:17:54.8    -345    106    -10    362    363 287.2  -1.7  34248  291.05 0854.46
2009/04/23 15:17:54.9    -290    181    110    342    360 302.0  17.9  34248  291.06 0854.46
2009/04/23 15:17:55.0    -111    141    161    180    241 321.7  46.6  34248  291.06 0854.46
2009/04/23 15:17:55.1    -135    161    154    211    261 319.9  39.7  34248  291.07 0854.46
2009/04/23 15:17:55.2     -98     58    166    114    201 300.7  62.6  34282  291.66 0854.46
2009/04/23 15:17:55.3      16    -18    137     25    139 138.6  90.0  34294  291.86 0854.46
2009/04/23 15:17:55.4     -54      3     97     55    111 273.5  68.3  34288  291.74 0854.46
2009/04/23 15:17:55.5    -145    122    147    190    240 310.2  41.7  34250  291.11 0854.46
2009/04/23 15:17:55.6    -215     43    173    220    279 281.4  42.0  34288  291.73 0854.46
2009/04/23 15:17:55.7    -201     72    156    214    264 289.9  39.7  34266  291.38 0854.46
2009/04/23 15:17:55.8    -249     46     87    254    269 280.6  18.9  34264  291.33 0854.46
2009/04/23 15:17:55.9    -241     25      0    243    244 276.1   0.0  34246  291.02 0854.46
2009/04/23 15:17:56.0    -256     55     61    262    270 282.2  13.2  34276  291.55 0854.46
2009/04/23 15:17:56.1    -159    -12     -5    160    161 265.6  -1.8  34216  290.53 0854.46
2009/04/23 15:17:56.2     -73    -17     41     76     86 256.7  30.8  34248  291.06 0854.46
2009/04/23 15:17:56.3     -84     30    139     90    165 290.0  64.4  34288  291.74 0854.46
2009/04/23 15:17:56.4    -291     98    178    308    355 288.6  32.8  34248  291.06 0854.46
2009/04/23 15:17:56.5    -254    122    122    283    308 295.8  24.9  34228  290.71 0854.46
2009/04/23 15:17:56.6    -257    127     24    287    289 296.4   4.9  34238  290.90 0854.46
2009/04/23 15:17:56.7    -266    140     81    301    312 297.9  15.2  34244  291.00 0854.46
2009/04/23 15:17:56.8    -414     70     90    420    430 279.6  12.1  34238  290.89 0854.46
2009/04/23 15:17:56.9    -386     -6    -36    387    389 269.1  -5.3  34230  290.76 0854.46
2009/04/23 15:17:57.0    -334    -26     21    336    337 265.5   3.7  34210  290.43 0854.45
2009/04/23 15:17:57.1    -197     54     -4    205    206 285.3  -1.2  34234  290.82 0854.45
2009/04/23 15:17:57.2    -179    119      0    216    217 303.7   0.0  34270  291.43 0854.45
2009/04/23 15:17:57.3    -327     52    -54    332    337 279.1  -9.3  34240  290.93 0854.45
2009/04/23 15:17:57.4    -294     99    -14    311    312 288.6  -2.7  34260  291.26 0854.45
2009/04/23 15:17:57.5    -237     56    -31    244    247 283.3  -7.3  34226  290.68 0854.45
2009/04/23 15:17:57.6    -266    -69    -90    275    289 255.4 -23.6  34134  289.14 0854.45
2009/04/23 15:17:57.7    -214   -128    -97    250    268 239.1 -26.7  34220  290.59 0854.45
2009/04/23 15:17:57.8    -158   -141      4    212    213 228.2   1.2  34242  290.96 0854.45
2009/04/23 15:17:57.9    -136   -140     26    196    198 224.3   7.8  34244  290.99 0854.45
2009/04/23 15:17:58.0    -111    -37     37    118    124 251.4  17.4  34232  290.81 0854.45
2009/04/23 15:17:58.1    -129      5     77    130    151 272.5  33.5  34250  291.11 0854.45
2009/04/23 15:17:58.2    -169     42    124    175    214 284.2  38.6  34276  291.54 0854.45
2009/04/23 15:17:58.3    -114     67     80    133    155 300.6  34.4  34272  291.47 0854.45
2009/04/23 15:17:58.4     -50    111     91    122    152 335.5  40.1  34276  291.55 0854.45
2009/04/23 15:17:58.5      15     74    112     76    135  11.5  62.7  34296  291.89 0854.45
2009/04/23 15:17:58.6      -4     54     73     55     91 355.5  59.0  34306  292.06 0854.45
2009/04/23 15:17:58.7     -39     25     64     47     79 303.3  60.0  34310  292.13 0854.45
2009/04/23 15:17:58.8      52    130    111    141    179  21.9  42.4  34322  292.32 0854.45
2009/04/23 15:17:58.9     -57    172    118    182    216 341.5  35.7  34316  292.23 0854.45
2009/04/23 15:17:59.0    -119    215    156    246    291 331.0  35.5  34276  291.53 0854.46
2009/04/23 15:17:59.1    -136    212    147    253    292 327.3  32.9  34294  291.84 0854.46
2009/04/23 15:17:59.2     -35    250     59    253    260 351.9  13.2  34292  291.80 0854.46
2009/04/23 15:17:59.3     -77    274     49    285    290 344.2   9.9  34304  292.02 0854.46
2009/04/23 15:17:59.4     -25    324    151    326    359 355.5  26.5  34264  291.34 0854.46
2009/04/23 15:17:59.5     -86    313     82    325    336 344.5  14.2  34258  291.25 0854.46
2009/04/23 15:17:59.6      55    251    114    258    282  12.5  25.2  34238  290.88 0854.46
2009/04/23 15:17:59.7    -200    127     30    238    240 302.4   7.2  34292  291.82 0854.46
2009/04/23 15:17:59.9    -321    204     59    381    386 302.5   8.8  34280  291.61 0854.46
2009/04/23 15:18:00.0    -260    345     34    433    435 323.0   4.6  34282  291.65 0854.46
2009/04/23 15:18:00.1     -77    343    124    352    374 347.3  19.4  34244  291.00 0854.46
2009/04/23 15:18:00.2     -31    413    183    415    453 355.6  25.2  34228  290.73 0854.46
2009/04/23 15:18:00.3       6    280    177    281    332   1.4  35.3  34244  291.00 0854.46
2009/04/23 15:18:00.4      99    307    237    323    400  17.9  40.0  34254  291.17 0854.46
2009/04/23 15:18:00.5     -15    319    205    320    380 357.3  35.6  34270  291.45 0854.46
2009/04/23 15:18:00.6    -176    199    -63    266    274 318.6 -13.4  34290  291.77 0854.46
2009/04/23 15:18:00.7    -260    214    -57    337    342 309.5  -9.7  34278  291.56 0854.46
2009/04/23 15:18:00.8    -239    211      6    319    320 311.4   1.1  34242  290.95 0854.46
2009/04/23 15:18:00.9    -258    131    -69    290    299 297.0 -13.4  34172  289.78 0854.46
2009/04/23 15:18:01.0    -281    163      1    325    326 300.1   0.2  34232  290.80 0854.46
2009/04/23 15:18:01.1    -319    101     17    335    336 287.7   2.9  34268  291.39 0854.46
2009/04/23 15:18:01.2    -344     90     18    356    357 284.7   3.0  34294  291.85 0854.46
2009/04/23 15:18:01.3    -325    119     74    347    355 290.2  12.1  34282  291.66 0854.46
2009/04/23 15:18:01.4    -317     77    140    327    355 283.8  24.6  34280  291.62 0854.46
2009/04/23 15:18:01.5    -397    181     76    437    444 294.6   9.9  34180  289.92 0854.46
2009/04/23 15:18:01.6    -375    199     86    425    434 298.0  11.4  34178  289.87 0854.46
2009/04/23 15:18:01.7    -419    159      7    449    450 290.8   1.0  34180  289.90 0854.46
2009/04/23 15:18:01.8    -420    119   -138    437    459 285.9 -17.5  34180  289.92 0854.46
2009/04/23 15:18:01.9    -435    127   -123    454    471 286.3 -15.2  34198  290.22 0854.46
2009/04/23 15:18:02.0    -402    120   -160    420    449 286.6 -26.4  34148  289.36 0854.46
2009/04/23 15:18:02.1    -411     10   -123    412    429 271.5 -21.6  34162  289.60 0854.46
2009/04/23 15:18:02.2    -399     48   -166    402    434 276.9 -28.2  34150  289.41 0854.46
2009/04/23 15:18:02.3    -499     29   -138    500    519 273.4 -15.5  34196  290.18 0854.46
2009/04/23 15:18:02.4    -449     64    -24    454    455 278.1  -3.1  34184  289.99 0854.46
2009/04/23 15:18:02.5    -390      7     -7    391    392 271.2  -1.2  34182  289.94 0854.46
2009/04/23 15:18:02.6    -333      7   -113    334    353 271.3 -18.7  34146  289.32 0854.46
2009/04/23 15:18:02.7    -406      6   -120    407    424 270.9 -21.2  34148  289.38 0854.46
2009/04/23 15:18:02.8    -330     60   -209    336    395 280.4 -39.2  34192  290.13 0854.46
2009/04/23 15:18:02.9    -355    -34   -169    357    394 264.4 -31.5  34184  289.98 0854.46
2009/04/23 15:18:03.0    -299    -48   -160    303    342 260.8 -34.5  34186  290.01 0854.46
2009/04/23 15:18:03.1    -342    -18   -187    343    390 267.0 -35.3  34164  289.64 0854.46
2009/04/23 15:18:03.2    -288    -21   -208    289    356 265.7 -43.7  34188  290.06 0854.46
2009/04/23 15:18:03.3    -224    -75   -101    237    257 251.4 -28.7  34182  289.93 0854.46
2009/04/23 15:18:03.4    -179    -83   -113    198    227 244.9 -36.5  34194  290.16 0854.46
2009/04/23 15:18:03.5    -136   -148    -79    202    216 222.5 -27.2  34188  290.04 0854.46
2009/04/23 15:18:03.6     -21   -208   -121    210    242 185.8 -37.1  34234  290.84 0854.46
2009/04/23 15:18:03.7     -38   -160   -130    165    210 193.6 -46.6  34240  290.92 0854.46
2009/04/23 15:18:03.8     -33   -141    -81    145    166 193.4 -36.3  34220  290.60 0854.46
2009/04/23 15:18:03.9      -7   -151   -117    152    191 182.7 -46.1  34224  290.67 0854.46
2009/04/23 15:18:04.0       3   -132   -114    133    175 178.6 -49.2  34210  290.41 0854.46
2009/04/23 15:18:04.1       8   -171   -102    172    199 177.3 -37.9  34226  290.70 0854.46
2009/04/23 15:18:04.2      17   -152    -84    154    175 173.3 -35.7  34226  290.70 0854.46
2009/04/23 15:18:04.3      18   -166     -9    168    169 173.5  -3.3  34218  290.57 0854.46
2009/04/23 15:18:04.4       9   -143    -92    144    170 176.4 -40.0  34214  290.50 0854.46
2009/04/23 15:18:04.5     -33   -117    -94    122    154 196.0 -46.1  34200  290.25 0854.46
2009/04/23 15:18:04.6      49   -128    -71    138    155 159.1 -33.7  34214  290.50 0854.46
2009/04/23 15:18:04.7      51   -108      1    120    121 154.7   0.7  34218  290.55 0854.46
2009/04/23 15:18:04.8      84   -131    -16    156    157 147.4  -6.0  34212  290.45 0854.46
2009/04/23 15:18:04.9     103   -131    -15    167    168 141.7  -5.2  34218  290.55 0854.46
2009/04/23 15:18:05.0     125   -122     39    175    180 134.2  12.6  34216  290.52 0854.46
2009/04/23 15:18:05.1     155    -60     71    167    181 111.1  24.3  34206  290.35 0854.46
2009/04/23 15:18:05.2     119   -127     18    175    176 136.8   5.9  34204  290.33 0854.46
2009/04/23 15:18:05.3     115    -83     69    142    157 125.9  27.8  34198  290.23 0854.46
2009/04/23 15:18:05.4     145     -6    122    146    190  92.6  43.8  34186  290.02 0854.46
2009/04/23 15:18:05.5     150    -11    138    151    204  94.4  47.7  34186  290.01 0854.46
2009/04/23 15:18:05.6     104     11    168    105    198  83.9  65.1  34208  290.38 0854.46
2009/04/23 15:18:05.7     116     42    184    124    221  70.1  62.8  34186  290.01 0854.46
2009/04/23 15:18:05.8     131     59    148    144    206  65.6  50.7  34188  290.06 0854.46
2009/04/23 15:18:05.9     117     46    151    126    196  68.3  56.1  34190  290.09 0854.46
2009/04/23 15:18:06.0      81     11    131     82    154  82.1  64.7  34206  290.35 0854.46
2009/04/23 15:18:06.1      -8     -9     88     13     88 223.4  90.0  34216  290.53 0854.46
2009/04/23 15:18:06.2      27     97    107    101    147  15.6  52.1  34198  290.21 0854.46
2009/04/23 15:18:06.3      41    105    101    113    151  21.4  46.4  34202  290.30 0854.46
2009/04/23 15:18:06.4      49     59     53     77     93  39.6  37.6  34200  290.25 0854.46
2009/04/23 15:18:06.5      61     26     26     67     71  66.5  22.0  34198  290.21 0854.46
2009/04/23 15:18:06.6     119      0     24    120    123  90.0  11.6  34196  290.19 0854.46
2009/04/23 15:18:06.7     120     10      0    121    122  84.8  -0.3  34196  290.19 0854.46
2009/04/23 15:18:06.8      81     51     -3     97     98  57.6  -2.2  34198  290.23 0854.46
2009/04/23 15:18:06.9      65     78      5    102    103  39.7   2.8  34196  290.18 0854.46
2009/04/23 15:18:07.0      48     93    -32    105    110  27.6 -17.0  34198  290.23 0854.46
2009/04/23 15:18:07.1      24    139    -23    142    144   9.8  -9.4  34202  290.30 0854.43
2009/04/23 15:18:07.2      56     95      2    111    112  30.7   1.2  34202  290.28 0854.43
2009/04/23 15:18:07.3      48    103    -34    114    119  24.9 -16.6  34202  290.30 0854.43
2009/04/23 15:18:07.4     109     80    -22    136    138  53.6  -9.3  34198  290.23 0854.43
2009/04/23 15:18:07.5      92     55     13    108    109  58.9   6.9  34200  290.25 0854.43
2009/04/23 15:18:07.6      89     64     38    110    117  54.1  19.4  34196  290.19 0854.43
2009/04/23 15:18:07.7      95     74     29    121    125  52.2  13.7  34194  290.14 0854.43
2009/04/23 15:18:07.8     118     80     42    143    150  55.9  16.3  34194  290.14 0854.43
2009/04/23 15:18:07.9     112     66     35    131    136  59.3  15.2  34204  290.31 0854.43
2009/04/23 15:18:08.0      19     30     72     36     80  32.6  71.4  34212  290.45 0854.43
2009/04/23 15:18:08.1      -3    -10     80     11     80 198.5  90.0  34232  290.81 0854.43
2009/04/23 15:18:08.2     -25    -56     80     62    101 204.5  57.9  34234  290.82 0854.43
2009/04/23 15:18:08.3     -21    -65     93     69    115 198.3  60.0  34220  290.60 0854.43
2009/04/23 15:18:08.4       0    -61     74     62     96 180.9  55.8  34214  290.50 0854.43
2009/04/23 15:18:08.5     -27    -43     90     52    103 212.5  67.2  34218  290.55 0854.43
2009/04/23 15:18:08.6     -51    -86     66    101    120 210.7  36.0  34206  290.35 0854.43
2009/04/23 15:18:08.7     -70   -132    103    150    181 208.1  37.8  34200  290.26 0854.43
2009/04/23 15:18:08.8     -97   -179    109    204    231 208.5  30.3  34210  290.43 0854.43
2009/04/23 15:18:08.9    -154    -88      8    178    179 240.2   2.8  34216  290.53 0854.43
2009/04/23 15:18:09.0    -174    -91    -22    197    199 242.2  -6.5  34218  290.55 0854.43
2009/04/23 15:18:09.1    -156   -105     38    189    194 236.0  11.6  34224  290.65 0854.35
2009/04/23 15:18:09.2    -159   -118     67    199    211 233.4  18.6  34224  290.67 0854.35
2009/04/23 15:18:09.3    -135   -111   -204    176    269 230.5 -59.4  34200  290.24 0854.35
2009/04/23 15:18:09.4     -91   -110    150    143    207 219.7  51.6  34212  290.45 0854.35
2009/04/23 15:18:09.5    -162    -59     99    173    199 249.8  32.4  34218  290.57 0854.35
2009/04/23 15:18:09.6    -190   -129    -82    230    244 235.8 -24.6  34170  289.73 0854.35
2009/04/23 15:18:09.7    -335    -35    -79    337    347 263.9 -13.3  34204  290.32 0854.35
2009/04/23 15:18:09.8    -276    -24    -75    278    289 265.0 -15.2  34172  289.78 0854.35
2009/04/23 15:18:09.9    -264     -7    -91    265    281 268.3 -18.9  34166  289.68 0854.35
2009/04/23 15:18:10.0    -241    -40    -79    245    257 260.4 -22.9  34156  289.51 0854.35
2009/04/23 15:18:10.1    -233    -21   -122    234    263 264.8 -33.9  34156  289.49 0854.35
2009/04/23 15:18:10.2    -215    -86    -78    232    246 248.2 -18.7  34158  289.53 0854.35
2009/04/23 15:18:10.3    -263    -84    -76    277    288 252.2 -15.4  34168  289.70 0854.35
2009/04/23 15:18:10.4    -271   -129    -31    301    303 244.6  -6.0  34200  290.26 0854.35
2009/04/23 15:18:10.5    -328   -158    -55    365    370 244.3  -8.6  34204  290.32 0854.35
2009/04/23 15:18:10.6    -320    -35    -94    323    336 263.6 -20.9  34190  290.08 0854.35
2009/04/23 15:18:10.7    -362   -170   -143    401    426 244.8 -19.7  34160  289.58 0854.35
2009/04/23 15:18:10.8    -274    -76    -84    285    298 254.5 -16.4  34194  290.15 0854.35
2009/04/23 15:18:10.9    -305    -17   -128    306    331 266.7 -28.3  34186  290.00 0854.35
2009/04/23 15:18:11.0    -178    -20   -154    180    236 263.4 -49.5  34180  289.91 0854.35
2009/04/23 15:18:11.1    -185      7   -131    186    227 272.4 -43.0  34184  289.99 0854.31
2009/04/23 15:18:11.2    -221   -113    -74    249    260 242.9 -16.6  34188  290.05 0854.31
2009/04/23 15:18:11.3    -195     -2     69    196    207 269.2  20.0  34188  290.06 0854.31
2009/04/23 15:18:11.4    -122    -20    106    124    163 260.4  45.4  34194  290.16 0854.31
2009/04/23 15:18:11.5     -58      0    106     59    121 270.0  68.8  34196  290.19 0854.31
2009/04/23 15:18:11.6     -37    -83     72     91    116 204.1  42.7  34200  290.26 0854.31
2009/04/23 15:18:11.7      11   -154     73    155    171 175.6  27.1  34200  290.26 0854.31
2009/04/23 15:18:11.8    -122   -174     13    213    214 215.2   3.6  34224  290.65 0854.31
2009/04/23 15:18:11.9    -220   -110     74    247    259 243.4  16.8  34240  290.93 0854.31
2009/04/23 15:18:12.0    -169    -96     -7    195    196 240.5  -2.2  34236  290.87 0854.31
2009/04/23 15:18:12.1    -146    -83     -9    169    170 240.2  -3.1  34238  290.89 0854.30
2009/04/23 15:18:12.2    -125     -9     -5    126    127 265.6  -2.6  34238  290.91 0854.30
2009/04/23 15:18:12.3    -131     -4     48    132    140 267.9  20.9  34240  290.92 0854.30
2009/04/23 15:18:12.4    -144    -39     29    150    153 254.9  11.1  34244  291.01 0854.30
2009/04/23 15:18:12.5     -89   -107     43    140    147 219.6  17.4  34252  291.13 0854.30
2009/04/23 15:18:12.6    -208   -133      6    247    248 237.4   1.6  34258  291.24 0854.30
2009/04/23 15:18:12.7    -186   -135     17    230    231 234.0   4.4  34276  291.55 0854.30
2009/04/23 15:18:12.8    -179   -116     66    214    225 237.1  17.3  34286  291.72 0854.30
2009/04/23 15:18:12.9    -212   -106     65    238    247 243.4  15.3  34286  291.72 0854.30
2009/04/23 15:18:13.0    -187    -97      9    211    212 242.5   2.5  34262  291.30 0854.30
2009/04/23 15:18:13.1    -162    -90     -1    186    187 240.9  -0.5  34270  291.45 0854.30
2009/04/23 15:18:13.2    -210   -176    115    275    298 230.0  24.1  34232  290.78 0854.30
2009/04/23 15:18:13.3    -221   -126     64    255    263 240.2  14.2  34278  291.56 0854.30
2009/04/23 15:18:13.4    -218   -117     21    248    249 241.6   5.0  34278  291.56 0854.30
2009/04/23 15:18:13.5    -184    -98     93    209    228 241.8  25.7  34270  291.45 0854.30
2009/04/23 15:18:13.6    -201    -80     10    217    218 248.2   2.8  34282  291.64 0854.30
2009/04/23 15:18:13.7    -231    -91      3    249    250 248.5   0.8  34272  291.46 0854.30
2009/04/23 15:18:13.8    -191   -129     98    231    250 235.8  24.3  34254  291.17 0854.30
2009/04/23 15:18:13.9    -151   -137     99    205    227 227.8  27.3  34204  290.33 0854.30
2009/04/23 15:18:14.0    -152    -84    114    174    208 241.1  36.3  34232  290.81 0854.30
2009/04/23 15:18:14.1    -196   -155     26    251    253 231.6   6.1  34274  291.51 0854.31
2009/04/23 15:18:14.2    -203   -150     46    253    258 233.6  10.3  34256  291.19 0854.31
2009/04/23 15:18:14.3    -214   -214     85    303    315 225.0  15.8  34214  290.48 0854.31
2009/04/23 15:18:14.4    -112   -246    156    271    312 204.5  32.6  34210  290.42 0854.31
2009/04/23 15:18:14.5     -49   -209    170    215    274 193.4  42.4  34214  290.49 0854.31
2009/04/23 15:18:14.6     -56   -200    136    208    248 195.8  36.3  34210  290.42 0854.31
2009/04/23 15:18:14.7     -90   -189    139    210    251 205.4  36.5  34212  290.46 0854.31
2009/04/23 15:18:14.8     -66   -160    144    174    225 202.3  43.8  34218  290.55 0854.31
2009/04/23 15:18:14.9     -49   -157    121    165    204 197.6  39.7  34214  290.50 0854.31
2009/04/23 15:18:15.0     -49   -145    113    154    191 198.7  39.9  34218  290.57 0854.31
2009/04/23 15:18:15.1     -64    -85    107    107    151 217.0  50.1  34220  290.58 0854.31
2009/04/23 15:18:15.2     -47    -70     97     85    128 213.8  54.3  34226  290.69 0854.31
2009/04/23 15:18:15.3     -91    -74    110    118    161 230.9  47.9  34226  290.69 0854.31
2009/04/23 15:18:15.4     -22    -35     95     42    103 212.5  75.0  34232  290.79 0854.31
2009/04/23 15:18:15.5     -25    -63    101     68    121 201.8  62.7  34232  290.79 0854.31
2009/04/23 15:18:15.6     -89    -77     99    118    154 229.1  43.8  34228  290.74 0854.31
2009/04/23 15:18:15.7    -178   -146     44    231    236 230.5  10.8  34254  291.17 0854.31
2009/04/23 15:18:15.8    -211   -115     -1    241    242 241.4  -0.3  34268  291.41 0854.31
2009/04/23 15:18:15.9    -143    -91    116    170    205 237.5  37.6  34250  291.11 0854.31
2009/04/23 15:18:16.0     -58     26    154     64    166 294.4  76.1  34266  291.37 0854.31
2009/04/23 15:18:16.1     -83    -26    123     88    151 252.3  60.6  34266  291.38 0854.32
2009/04/23 15:18:16.2    -139    -66    140    154    208 244.6  47.1  34294  291.84 0854.32
2009/04/23 15:18:16.3     -20     -8    133     22    134 246.5  90.0  34306  292.05 0854.32
2009/04/23 15:18:16.4     -50    111     67    122    139 335.5  31.3  34306  292.05 0854.32
2009/04/23 15:18:16.5     -95    146    140    175    224 326.8  42.7  34300  291.96 0854.32
2009/04/23 15:18:16.6      20    101    116    104    155  11.6  53.3  34286  291.72 0854.32
2009/04/23 15:18:16.7      54     97     89    112    143  29.0  42.7  34282  291.64 0854.32
2009/04/23 15:18:16.8      66    120     57    138    149  29.0  23.1  34272  291.47 0854.32
2009/04/23 15:18:16.9      86    117     68    146    161  36.5  26.6  34296  291.88 0854.32
2009/04/23 15:18:17.0      49    113     33    124    129  23.6  15.2  34298  291.91 0854.32
2009/04/23 15:18:17.1      84     -4     45     85     96  93.0  30.3  34308  292.08 0854.32
2009/04/23 15:18:17.2      -1     17     53     18     55 355.6  81.0  34320  292.29 0854.32
2009/04/23 15:18:17.3     -50      7     85     51     99 278.8  66.2  34318  292.25 0854.32
2009/04/23 15:18:17.4     -56     15     75     59     95 285.1  57.5  34304  292.03 0854.32
2009/04/23 15:18:17.5     -26     14     68     30     74 298.9  75.0  34302  291.98 0854.32
2009/04/23 15:18:17.6     -10     30     91     32     96 340.0  81.2  34308  292.08 0854.32
2009/04/23 15:18:17.7      37    -55     43     67     79 145.7  36.0  34282  291.64 0854.32
2009/04/23 15:18:17.8      33    -14     86     36     93 113.5  76.1  34268  291.40 0854.32
2009/04/23 15:18:17.9      24   -120     96    123    156 168.4  41.7  34268  291.40 0854.32
2009/04/23 15:18:18.0     -24   -156     69    158    172 188.9  25.1  34268  291.42 0854.32
2009/04/23 15:18:18.1       6   -145     93    146    173 177.3  35.5  34278  291.59 0854.35
2009/04/23 15:18:18.2     114    -78    100    139    171 124.6  39.3  34312  292.17 0854.35
2009/04/23 15:18:18.3      -3   -139    124    140    187 181.4  46.2  34302  292.00 0854.35
2009/04/23 15:18:18.4      22   -156    231    158    279 171.9  62.6  34320  292.28 0854.35
2009/04/23 15:18:18.5      14   -190    192    191    270 175.6  49.9  34312  292.16 0854.35
2009/04/23 15:18:18.6     -91   -301    152    315    349 197.0  27.3  34298  291.93 0854.35
2009/04/23 15:18:18.7    -107   -261    148    283    319 202.3  29.8  34294  291.85 0854.35
2009/04/23 15:18:18.8       0   -273    194    274    335 180.0  38.8  34236  290.87 0854.35
2009/04/23 15:18:18.9    -175   -400    190    437    476 203.7  25.0  34280  291.60 0854.35
2009/04/23 15:18:19.0    -141   -438    125    461    478 197.9  15.2  34276  291.53 0854.35
2009/04/23 15:18:19.1     -79   -395    208    403    453 191.4  29.3  34262  291.31 0854.35
2009/04/23 15:18:19.2    -198   -369    114    419    435 208.2  15.3  34284  291.69 0854.35
2009/04/23 15:18:19.3    -120   -315    129    338    361 201.0  21.8  34218  290.55 0854.35
2009/04/23 15:18:19.4     -67   -387    187    393    435 189.9  27.3  34186  290.02 0854.35
2009/04/23 15:18:19.5    -116   -430    222    446    498 195.2  28.2  34216  290.51 0854.35
2009/04/23 15:18:19.6    -130   -411    113    432    447 197.6  14.7  34212  290.44 0854.35
2009/04/23 15:18:19.7     -75   -369    192    377    423 191.5  29.1  34206  290.36 0854.35
2009/04/23 15:18:19.8    -150   -384    186    413    452 201.4  25.9  34202  290.28 0854.35
2009/04/23 15:18:19.9    -164   -332    197    371    420 206.4  30.3  34208  290.39 0854.35
2009/04/23 15:18:20.0    -162   -359    118    394    412 204.3  16.7  34204  290.33 0854.35
2009/04/23 15:18:20.1    -140   -330    120    359    379 203.0  18.5  34208  290.37 0854.35
2009/04/23 15:18:20.2    -102   -259    123    279    304 201.6  25.2  34206  290.36 0854.35
2009/04/23 15:18:20.3     -47   -156    111    164    198 196.9  37.4  34212  290.47 0854.35
2009/04/23 15:18:20.4     -99   -140    111    172    204 215.4  35.6  34218  290.55 0854.35
2009/04/23 15:18:20.5    -213   -241    110    322    341 221.5  18.9  34230  290.76 0854.35
2009/04/23 15:18:20.6    -245   -271    160    366    399 222.0  25.1  34232  290.79 0854.35
2009/04/23 15:18:20.7    -200   -359    169    411    444 209.1  23.7  34250  291.09 0854.35
2009/04/23 15:18:20.8    -199   -667    237    697    737 196.6  18.8  34232  290.81 0854.35
2009/04/23 15:18:20.9    -177   -632    141    657    673 195.7  12.1  34232  290.78 0854.35
2009/04/23 15:18:21.0     -51   -363    314    367    482 188.0  44.9  34208  290.39 0854.35
2009/04/23 15:18:21.1    -110   -531    296    543    618 191.8  31.0  34262  291.32 0854.35
2009/04/23 15:18:21.2    -131   -411    117    432    448 197.7  15.2  34244  291.01 0854.35
2009/04/23 15:18:21.3     -76   -281    262    292    392 195.2  46.6  34240  290.93 0854.35
2009/04/23 15:18:21.4       1   -343    275    344    440 179.7  42.7  34230  290.77 0854.35
2009/04/23 15:18:21.5      87   -495    220    503    549 170.0  25.1  34208  290.38 0854.35
2009/04/23 15:18:21.6     171   -374    214    412    464 155.4  29.5  34208  290.39 0854.35
2009/04/23 15:18:21.7     224   -403    183    462    496 151.0  22.8  34178  289.86 0854.35
2009/04/23 15:18:21.8      34   -344    153    346    378 174.2  25.3  34192  290.13 0854.35
2009/04/23 15:18:21.9     -31   -220    106    223    246 188.0  27.2  34190  290.07 0854.35
2009/04/23 15:18:22.0       3   -166     40    167    172 178.9  13.7  34190  290.08 0854.39
2009/04/23 15:18:22.1      33    -93     27     99    103 160.4  15.3  34192  290.11 0854.39
2009/04/23 15:18:22.2     -23   -113     80    116    140 191.5  38.0  34194  290.16 0854.39
2009/04/23 15:18:22.3      20     61     71     65     96  18.5  52.2  34222  290.62 0854.39
2009/04/23 15:18:22.4       5    -15     40     16     43 161.7  78.2  34208  290.38 0854.39
2009/04/23 15:18:22.5      84   -122     90    149    174 145.3  34.2  34192  290.13 0854.39
2009/04/23 15:18:22.6     -32   -234     64    237    246 188.0  15.3  34190  290.07 0854.39
2009/04/23 15:18:22.7     -97   -379    -17    392    393 194.4  -2.5  34182  289.96 0854.39
2009/04/23 15:18:22.8    -241   -474    -29    532    533 207.0  -3.1  34176  289.85 0854.39
2009/04/23 15:18:22.9    -277   -407     50    493    496 214.2   5.8  34188  290.06 0854.39
2009/04/23 15:18:23.0    -153   -246    116    290    312 211.9  22.9  34198  290.20 0854.39
2009/04/23 15:18:23.1    -112   -260    235    284    368 203.4  43.8  34208  290.37 0854.39
2009/04/23 15:18:23.2    -221   -128    125    256    284 239.8  27.8  34210  290.42 0854.39
2009/04/23 15:18:23.3    -120   -379    209    398    449 197.6  30.0  34210  290.41 0854.39
2009/04/23 15:18:23.4     -55   -347    194    352    401 189.1  31.3  34198  290.23 0854.39
2009/04/23 15:18:23.5      83   -211    176    227    287 158.4  41.7  34208  290.39 0854.39
2009/04/23 15:18:23.6       0   -268    147    269    306 179.9  31.3  34194  290.14 0854.39
2009/04/23 15:18:23.7    -110   -251    169    275    322 203.7  34.6  34198  290.22 0854.39
2009/04/23 15:18:23.8    -124   -268    167    296    339 204.9  32.0  34218  290.56 0854.39
2009/04/23 15:18:23.9      53    -84    126    100    160 147.5  57.5  34212  290.47 0854.39
2009/04/23 15:18:24.0     116    -12    157    117    195  96.1  59.4  34208  290.40 0854.41
2009/04/23 15:18:24.1     258      3    214    259    335  89.2  43.8  34224  290.65 0854.41
2009/04/23 15:18:24.2     224      0    256    225    340  90.0  54.3  34266  291.38 0854.41
2009/04/23 15:18:24.3      35    -56    171     67    183 147.5  77.6  34264  291.33 0854.41
2009/04/23 15:18:24.4     149    -71    165    166    234 115.4  50.0  34212  290.45 0854.41
2009/04/23 15:18:24.5     245   -158    327    292    438 122.9  53.9  34234  290.83 0854.41
2009/04/23 15:18:24.6     167   -230    189    285    341 143.9  36.6  34182  289.95 0854.41
2009/04/23 15:18:24.7     143   -437    316    460    558 161.9  37.8  34158  289.55 0854.41
2009/04/23 15:18:24.8     181   -480    282    514    586 159.3  31.3  34158  289.53 0854.41
2009/04/23 15:18:24.9     185   -485    263    520    582 159.1  28.9  34164  289.65 0854.41
2009/04/23 15:18:25.0     127   -606    340    620    707 168.1  31.2  34164  289.63 0854.41
2009/04/23 15:18:25.1       7   -444    266    445    518 179.0  33.6  34166  289.66 0854.41
2009/04/23 15:18:25.2    -102   -521    324    532    622 191.1  34.2  34166  289.68 0854.41
2009/04/23 15:18:25.3    -200   -517    230    555    600 201.2  23.9  34164  289.64 0854.41
2009/04/23 15:18:25.4     -65   -297    246    305    391 192.4  42.9  34170  289.74 0854.41
2009/04/23 15:18:25.5     -33      6    176     34    179 281.4  89.6  34182  289.96 0854.41
2009/04/23 15:18:25.6     144   -264    200    301    361 151.3  36.7  34172  289.76 0854.41
2009/04/23 15:18:25.7     -59   -266    297    273    403 192.5  52.7  34180  289.91 0854.41
2009/04/23 15:18:25.8      -8   -273    294    274    401 181.8  52.2  34182  289.96 0854.41
2009/04/23 15:18:25.9     -64   -301    189    308    361 192.0  34.4  34174  289.82 0854.41
2009/04/23 15:18:26.0      65   -195    144    206    251 161.5  38.4  34186  290.00 0854.44
2009/04/23 15:18:26.1    -128   -399    155    420    447 197.8  21.0  34180  289.90 0854.44
2009/04/23 15:18:26.2     -66   -206    110    217    243 197.8  29.1  34182  289.93 0854.44
2009/04/23 15:18:26.4      23    -59    232     64    240 158.2  84.4  34200  290.25 0854.44
2009/04/23 15:18:26.4     116   -305    162    327    364 159.1  28.2  34186  290.01 0854.44
2009/04/23 15:18:26.6     107   -437     70    450    456 166.2   8.9  34170  289.75 0854.44
2009/04/23 15:18:26.7       8   -268    -19    269    270 178.2  -4.1  34178  289.86 0854.44
2009/04/23 15:18:26.8      78   -283    104    294    311 164.4  20.2  34178  289.88 0854.44
2009/04/23 15:18:26.9     139   -149    140    205    248 137.0  37.6  34182  289.95 0854.44
2009/04/23 15:18:27.0     143   -170    179    223    285 139.9  43.0  34180  289.92 0854.44
2009/04/23 15:18:27.1     162   -190    150    250    291 139.5  34.0  34180  289.90 0854.44
2009/04/23 15:18:27.2     227    -24    147    229    272  96.1  35.6  34190  290.09 0854.44
2009/04/23 15:18:27.3     136    -31    162    140    214 103.2  54.8  34192  290.11 0854.44
2009/04/23 15:18:27.4      14     52     99     54    112  15.1  68.9  34206  290.35 0854.44
2009/04/23 15:18:27.5      98    -17    164    100    192 100.1  65.4  34186  290.02 0854.44
2009/04/23 15:18:27.6     -19    -52    150     56    160 200.0  78.9  34184  289.99 0854.44
2009/04/23 15:18:27.7      21     26    161     34    164  39.6  88.8  34192  290.13 0854.44
2009/04/23 15:18:27.8      69    -67    239     97    257 134.0  77.0  34186  290.02 0854.44
2009/04/23 15:18:27.9      27      9    156     29    158  70.0  90.0  34202  290.30 0854.44
2009/04/23 15:18:28.0      -5    -73    206     74    218 184.4  79.5  34232  290.79 0854.44
2009/04/23 15:18:28.1      -8   -166    254    167    303 182.9  63.9  34202  290.27 0854.41
2009/04/23 15:18:28.2    -110   -155    234    191    302 215.4  56.4  34186  290.00 0854.41
2009/04/23 15:18:28.3    -107     63     78    125    147 300.7  35.5  34214  290.48 0854.41
2009/04/23 15:18:28.4    -131     30      6    135    136 283.3   2.8  34202  290.30 0854.41
2009/04/23 15:18:28.5    -294     94      8    309    310 287.8   1.6  34204  290.31 0854.41
2009/04/23 15:18:28.6    -347     66      4    354    355 280.9   0.7  34178  289.89 0854.41
2009/04/23 15:18:28.7    -499     90     15    508    509 280.3   1.7  34176  289.83 0854.41
2009/04/23 15:18:28.8    -584    217     23    624    625 290.4   2.1  34208  290.37 0854.41
2009/04/23 15:18:28.9    -471    -82   -334    479    583 260.1 -42.8  34172  289.77 0854.41
2009/04/23 15:18:29.0    -512    164   -350    538    641 287.8 -40.6  34170  289.73 0854.41
2009/04/23 15:18:29.1    -383     59   -244    388    458 278.8 -39.9  34176  289.85 0854.41
2009/04/23 15:18:29.2    -320     24   -127    321    345 274.4 -27.3  34174  289.82 0854.41
2009/04/23 15:18:29.3    -369    -76    -42    377    380 258.3  -6.5  34198  290.23 0854.41
2009/04/23 15:18:29.4    -272    -50     35    277    280 259.5   7.2  34188  290.05 0854.41
2009/04/23 15:18:29.5    -260     50     27    265    267 281.0   6.0  34204  290.32 0854.41
2009/04/23 15:18:29.6    -267     92     55    283    289 289.1  11.1  34200  290.26 0854.41
2009/04/23 15:18:29.7    -335     77     41    344    347 283.0   6.9  34196  290.18 0854.41
2009/04/23 15:18:29.8    -190     38    111    194    223 281.5  32.4  34202  290.28 0854.41
2009/04/23 15:18:29.9     -97    -15    128     99    161 261.2  58.5  34208  290.38 0854.41
2009/04/23 15:18:30.0     -58     70     81     92    122 320.4  45.9  34198  290.23 0854.41
2009/04/23 15:18:30.1      63    -77     81    100    128 140.4  43.7  34184  289.97 0854.43
2009/04/23 15:18:30.2       4   -221     88    222    238 178.9  22.8  34176  289.85 0854.43
2009/04/23 15:18:30.3     -37   -270    -75    273    284 187.8 -15.5  34188  290.03 0854.43
2009/04/23 15:18:30.4      83   -422    -16    431    432 168.9  -2.2  34190  290.07 0854.43
2009/04/23 15:18:30.5     112   -559    -31    571    572 168.7  -3.1  34172  289.78 0854.43
2009/04/23 15:18:30.6     151   -645    167    663    684 166.8  14.2  34186  290.02 0854.43
2009/04/23 15:18:30.7     207   -616    279    650    707 161.4  24.8  34206  290.36 0854.43
2009/04/23 15:18:30.8     363   -438     14    570    571 140.4   1.5  34210  290.42 0854.43
2009/04/23 15:18:30.9     286   -420    -16    509    510 145.7  -1.9  34212  290.44 0854.43
2009/04/23 15:18:31.0     179   -479     60    512    516 159.4   6.7  34198  290.23 0854.43
2009/04/23 15:18:31.1     262   -396    167    475    503 146.5  20.0  34164  289.64 0854.43
2009/04/23 15:18:31.2      50   -492    261    495    559 174.1  30.1  34160  289.57 0854.43
2009/04/23 15:18:31.3     152   -548     43    569    571 164.4   4.4  34172  289.78 0854.43
2009/04/23 15:18:31.4      79   -394    -96    402    414 168.6 -13.4  34174  289.80 0854.43
2009/04/23 15:18:31.5      65   -521   -156    526    548 172.8 -21.2  34184  289.99 0854.43
2009/04/23 15:18:31.6      48   -452   -185    455    491 173.9 -27.9  34188  290.05 0854.43
2009/04/23 15:18:31.7      12   -529   -301    530    609 178.6 -36.4  34178  289.88 0854.43
2009/04/23 15:18:31.8     -28   -527   -328    528    621 183.1 -39.3  34170  289.75 0854.43
2009/04/23 15:18:31.9     -67   -620   -222    624    662 186.2 -25.0  34182  289.96 0854.43
2009/04/23 15:18:32.0    -152   -514    -38    537    539 196.5  -4.1  34184  289.99 0854.43
2009/04/23 15:18:32.1    -478   -562   -113    739    748 220.4  -8.7  34196  290.19 0854.42
2009/04/23 15:18:32.2    -539   -461   -211    710    740 229.5 -21.4  34198  290.20 0854.42
2009/04/23 15:18:32.3    -539   -321   -301    628    696 239.2 -31.7  34190  290.07 0854.42
2009/04/23 15:18:32.4    -446   -385   -158    590    611 229.2 -15.0  34184  289.97 0854.42
2009/04/23 15:18:32.5    -259   -242    -11    355    356 226.9  -1.8  34184  289.99 0854.42
2009/04/23 15:18:32.6    -337   -462   -258    572    627 216.1 -30.3  34156  289.52 0854.42
2009/04/23 15:18:32.7    -518   -285   -166    592    614 241.2 -20.3  34186  290.00 0854.42
2009/04/23 15:18:32.8    -616   -308   -302    689    752 243.4 -29.6  34160  289.57 0854.42
2009/04/23 15:18:32.9   -1078   -473   -355   1178   1231 246.3 -16.8  34150  289.40 0854.42
2009/04/23 15:18:33.0    -807   -444   -283    921    963 241.2 -22.1  34146  289.35 0854.42
2009/04/23 15:18:33.1    -681   -461   -191    823    845 235.9 -13.1  34174  289.82 0854.44
2009/04/23 15:18:33.2    -787   -414   -301    890    940 242.2 -18.7  34160  289.56 0854.44
2009/04/23 15:18:33.3    -715   -367   -271    804    848 242.8 -23.7  34152  289.42 0854.44
2009/04/23 15:18:33.4    -695   -278   -368    749    834 248.2 -32.5  34146  289.35 0854.44
2009/04/23 15:18:33.5    -711   -288   -467    768    898 247.9 -38.6  34168  289.71 0854.44
2009/04/23 15:18:33.6    -610   -260   -418    664    784 246.9 -39.5  34160  289.56 0854.44
2009/04/23 15:18:33.7    -136   -334   -390    361    531 202.2 -56.9  34172  289.76 0854.44
2009/04/23 15:18:33.8     -15   -264   -202    265    333 183.4 -45.6  34180  289.92 0854.44
2009/04/23 15:18:33.9    -134   -510    -48    528    531 194.8  -5.2  34186  290.01 0854.44
2009/04/23 15:18:34.0    -191   -248   -183    314    363 217.6 -37.3  34166  289.67 0854.44
2009/04/23 15:18:34.1     -68   -401    -32    407    409 189.7  -4.6  34172  289.78 0854.44
2009/04/23 15:18:34.2     -87   -452    -25    461    462 191.0  -3.2  34178  289.87 0854.44
2009/04/23 15:18:34.3    -191   -614     -6    643    644 197.3  -0.6  34172  289.76 0854.44
2009/04/23 15:18:34.4    -257   -374    -58    455    459 214.5  -7.3  34184  289.99 0854.44
2009/04/23 15:18:34.5     -72   -438     56    444    448 189.3   7.2  34174  289.80 0854.44
2009/04/23 15:18:34.6    -193   -507     26    543    544 200.9   2.8  34170  289.75 0854.44
2009/04/23 15:18:34.7    -373   -359     57    518    522 226.1   6.4  34172  289.79 0854.44
2009/04/23 15:18:34.8    -498   -437     44    663    665 228.7   3.8  34168  289.70 0854.44
2009/04/23 15:18:34.9    -326   -430     76    540    546 217.2   8.0  34164  289.65 0854.44
2009/04/23 15:18:35.0    -382   -620     90    729    735 211.6   7.1  34146  289.35 0854.44
2009/04/23 15:18:35.1    -456   -476    -12    660    661 223.8  -1.1  34174  289.80 0854.46
2009/04/23 15:18:35.2    -270   -445   -104    521    532 211.3 -11.3  34160  289.58 0854.46
2009/04/23 15:18:35.3    -588   -562   -285    814    863 226.3 -19.3  34154  289.46 0854.46
2009/04/23 15:18:35.4    -588   -301   -315    661    732 242.9 -31.7  34148  289.37 0854.46
2009/04/23 15:18:35.5    -426   -501   -203    658    688 220.4 -22.1  34172  289.77 0854.46
2009/04/23 15:18:35.6    -171   -529   -257    556    612 197.9 -31.0  34156  289.52 0854.46
2009/04/23 15:18:35.7      46   -402   -213    405    457 173.4 -34.5  34164  289.63 0854.46
2009/04/23 15:18:35.8       6   -471     25    472    473 179.2   3.1  34166  289.67 0854.46
2009/04/23 15:18:35.9    -167   -581     99    605    614 196.0   9.3  34164  289.63 0854.46
2009/04/23 15:18:36.0    -157   -619    150    639    657 194.3  13.3  34170  289.74 0854.46
2009/04/23 15:18:36.1    -606   -207   -150    641    659 251.1 -13.2  34178  289.86 0854.46
2009/04/23 15:18:36.2    -358   -604   -209    702    733 210.7 -16.6  34158  289.55 0854.46
2009/04/23 15:18:36.3    -129   -361    -65    384    390 199.7  -9.6  34156  289.52 0854.46
2009/04/23 15:18:36.4    -206   -393   -289    444    529 207.7 -40.4  34172  289.76 0854.46
2009/04/23 15:18:36.5    -188   -511   -269    545    607 200.2 -32.6  34164  289.63 0854.46
2009/04/23 15:18:36.6    -593   -376   -213    703    734 237.6 -21.7  34120  288.88 0854.46
2009/04/23 15:18:36.7    -468   -400   -329    616    698 229.5 -34.7  34166  289.66 0854.46
2009/04/23 15:18:36.8    -167   -529   -385    555    675 197.6 -42.5  34164  289.64 0854.46
2009/04/23 15:18:36.9      51   -317   -298    322    438 170.9 -52.2  34158  289.53 0854.46
2009/04/23 15:18:37.0    -254   -496   -169    558    583 207.1 -21.8  34140  289.22 0854.46
2009/04/23 15:18:37.1    -664   -291   -251    726    769 246.3 -19.1  34150  289.41 0854.48
2009/04/23 15:18:37.2    -262   -381   -303    463    553 214.5 -40.9  34158  289.55 0854.48
2009/04/23 15:18:37.3    -324   -467   -192    569    601 214.8 -18.7  34168  289.71 0854.48
2009/04/23 15:18:37.4     -81   -387   -115    396    412 191.9 -20.8  34172  289.77 0854.48
2009/04/23 15:18:37.5     -41   -266   -232    270    355 188.9 -49.6  34182  289.94 0854.48
2009/04/23 15:18:37.6     136    -55   -180    147    232 112.2 -60.8  34176  289.84 0854.48
2009/04/23 15:18:37.7      46   -428   -223    431    485 173.8 -33.9  34158  289.54 0854.48
2009/04/23 15:18:37.8    -174      0   -348    175    389 270.0 -75.9  34168  289.71 0854.48
2009/04/23 15:18:37.9     -55   -237   -272    244    365 193.1 -58.0  34172  289.76 0854.48
2009/04/23 15:18:38.0      16   -383   -217    384    441 177.5 -36.3  34164  289.65 0854.48
2009/04/23 15:18:38.1    -187   -411   -130    452    470 204.5 -20.8  34170  289.74 0854.48
2009/04/23 15:18:38.2     -13   -433   -155    434    462 181.8 -19.7  34172  289.77 0854.48
2009/04/23 15:18:38.3      94   -506   -246    515    570 169.4 -31.7  34172  289.79 0854.48
2009/04/23 15:18:38.4     197   -329   -224    384    444 149.0 -37.4  34166  289.66 0854.48
2009/04/23 15:18:38.5      72   -333   -145    341    370 167.7 -28.7  34172  289.77 0854.48
2009/04/23 15:18:38.6     -14   -292    -19    293    294 182.9  -3.7  34170  289.73 0854.48
2009/04/23 15:18:38.7      -4   -284   -167    285    330 180.9 -37.7  34170  289.73 0854.48
2009/04/23 15:18:38.8      46   -208   -163    214    269 167.3 -45.6  34174  289.81 0854.48
2009/04/23 15:18:38.9      50    -59    -86     78    116 139.5 -57.1  34170  289.74 0854.48
2009/04/23 15:18:39.0      88    -36    -25     96    100 112.6 -14.5  34174  289.82 0854.48
2009/04/23 15:18:39.1      72    -12      7     74     75  99.7   5.9  34176  289.84 0854.47
2009/04/23 15:18:39.2     174   -129     37    217    221 126.6   9.9  34172  289.79 0854.47
2009/04/23 15:18:39.3     434    -87    -71    443    449 101.4  -9.1  34172  289.77 0854.47
2009/04/23 15:18:39.4     436   -173    -45    470    473 111.7  -5.6  34170  289.74 0854.47
2009/04/23 15:18:39.5     576     26    145    577    595  87.4  14.2  34162  289.61 0854.47
2009/04/23 15:18:39.6     544     33    253    545    600  86.5  26.7  34176  289.83 0854.47
2009/04/23 15:18:39.7     336   -213    331    399    518 122.4  43.8  34180  289.91 0854.47
2009/04/23 15:18:39.8      -8   -544    405    545    679 180.9  40.4  34194  290.15 0854.47
2009/04/23 15:18:39.9      42   -505    345    507    613 175.1  37.6  34190  290.07 0854.47
2009/04/23 15:18:40.0    -222   -493    170    541    568 204.3  17.4  34198  290.21 0854.47
2009/04/23 15:18:40.1    -170   -437    102    470    482 201.3  12.3  34196  290.18 0854.47
2009/04/23 15:18:40.2    -196   -396      3    443    444 206.4   0.5  34182  289.94 0854.47
2009/04/23 15:18:40.3    -121   -492    -12    507    508 193.9  -1.4  34216  290.52 0854.47
2009/04/23 15:18:40.4    -192   -292    146    350    379 213.4  23.9  34212  290.47 0854.47
2009/04/23 15:18:40.5     -12    -97    146     98    175 187.6  63.4  34242  290.96 0854.47
2009/04/23 15:18:40.6    -148   -205     40    253    257 215.8   9.0  34212  290.46 0854.47
2009/04/23 15:18:40.7    -106    -90     49    140    149 229.6  19.4  34214  290.48 0854.47
2009/04/23 15:18:40.8    -208     44     27    213    215 282.2   7.5  34214  290.48 0854.47
2009/04/23 15:18:40.9    -193     17     39    194    199 275.2  11.6  34214  290.48 0854.47
2009/04/23 15:18:41.0     -31    135    -81    139    160 346.7 -37.3  34222  290.64 0854.47
2009/04/23 15:18:41.1     -86    111      7    141    142 322.2   2.9  34214  290.48 0854.46
2009/04/23 15:18:41.2    -140     97    -58    171    181 304.6 -18.7  34222  290.62 0854.46
2009/04/23 15:18:41.3    -196    -20    -65    198    208 263.9 -23.6  34218  290.55 0854.46
2009/04/23 15:18:41.4     -54    176    -30    185    188 342.8  -9.3  34214  290.50 0854.46
2009/04/23 15:18:41.5    -246    -62     51    254    260 255.8  11.4  34224  290.65 0854.46
2009/04/23 15:18:41.6    -152    141     40    208    212 312.7  11.0  34224  290.67 0854.46
2009/04/23 15:18:41.7    -108     78     80    134    156 306.0  34.0  34230  290.75 0854.46
2009/04/23 15:18:41.8    -180   -117    222    216    309 236.9  50.7  34226  290.68 0854.46
2009/04/23 15:18:41.9    -194    -70    165    207    264 250.0  42.8  34190  290.09 0854.46
2009/04/23 15:18:42.0    -188   -151     -5    242    243 231.1  -1.3  34194  290.15 0854.46
2009/04/23 15:18:42.1     -71    -64    -86     96    128 227.8 -51.3  34200  290.26 0854.46
2009/04/23 15:18:42.2     -42   -196     -2    201    202 192.3  -0.7  34208  290.38 0854.46
2009/04/23 15:18:42.3     -98   -171     61    198    208 209.9  17.3  34206  290.35 0854.46
2009/04/23 15:18:42.4    -379   -165    -23    414    415 246.4  -3.2  34204  290.33 0854.46
2009/04/23 15:18:42.5    -490    -18    -41    491    493 267.9  -4.9  34206  290.34 0854.46
2009/04/23 15:18:42.6    -388    -91   -126    399    419 256.8 -17.6  34188  290.05 0854.46
2009/04/23 15:18:42.7    -361     -6   -110    362    378 269.0 -21.8  34194  290.16 0854.46
2009/04/23 15:18:42.8    -413     91     42    424    427 282.5   5.7  34224  290.67 0854.46
2009/04/23 15:18:42.9    -277    -16    187    278    335 266.5  37.2  34222  290.61 0854.46
2009/04/23 15:18:43.0    -390     22    137    391    414 273.3  20.1  34230  290.75 0854.46
2009/04/23 15:18:43.1    -454   -126     10    472    473 254.5   1.2  34218  290.56 0854.49
2009/04/23 15:18:43.2    -281    -41    -11    285    286 261.6  -2.2  34230  290.76 0854.49
2009/04/23 15:18:43.3    -244   -281   -120    373    393 221.0 -17.9  34192  290.11 0854.49
2009/04/23 15:18:43.4    -285   -357   -132    457    476 218.6 -16.2  34202  290.27 0854.49
2009/04/23 15:18:43.5    -154   -372   -111    403    418 202.6 -20.1  34200  290.24 0854.49
2009/04/23 15:18:43.6    -265   -416   -103    494    505 212.5 -11.8  34188  290.03 0854.49
2009/04/23 15:18:43.7    -285   -429    -88    516    524 213.6  -9.7  34180  289.92 0854.49
2009/04/23 15:18:43.8    -304   -289   -102    420    433 226.5 -13.7  34174  289.82 0854.49
2009/04/23 15:18:43.9    -342   -136   -124    369    389 248.3 -23.3  34182  289.96 0854.49
2009/04/23 15:18:44.0    -342   -232   -147    414    440 235.8 -19.6  34186  290.00 0854.49
2009/04/23 15:18:44.1    -179   -448   -196    483    521 201.9 -27.8  34212  290.47 0854.49
2009/04/23 15:18:44.2     -29   -426   -139    427    450 183.9 -18.0  34200  290.26 0854.49
2009/04/23 15:18:44.3    -174   -283   -118    333    353 211.5 -24.8  34176  289.84 0854.49
2009/04/23 15:18:44.4    -208   -269   -102    341    356 217.7 -16.7  34198  290.21 0854.49
2009/04/23 15:18:44.5    -290   -336   -184    444    480 220.8 -28.3  34182  289.93 0854.49
2009/04/23 15:18:44.6    -137   -463    -83    483    491 196.5  -9.8  34182  289.93 0854.49
2009/04/23 15:18:44.7    -190   -339   -128    389    409 209.3 -23.6  34188  290.05 0854.49
2009/04/23 15:18:44.8     -69   -156   -153    171    229 204.1 -50.8  34184  289.99 0854.49
2009/04/23 15:18:44.9    -113   -220    -23    248    250 207.2  -5.4  34196  290.17 0854.49
2009/04/23 15:18:45.0      23   -242    -19    244    245 174.6  -4.6  34190  290.07 0854.49
2009/04/23 15:18:45.1     -13   -127     78    128    149 186.2  35.0  34184  289.99 0854.50
2009/04/23 15:18:45.2    -172    -79    117    190    223 245.2  35.0  34220  290.58 0854.50
2009/04/23 15:18:45.3    -306   -105      5    324    325 251.0   0.9  34248  291.05 0854.50
2009/04/23 15:18:45.4    -163   -255    113    303    323 212.6  21.5  34246  291.02 0854.50
2009/04/23 15:18:45.5    -217   -103     94    241    258 244.6  22.3  34238  290.88 0854.50
2009/04/23 15:18:45.6    -199    -78    -24    214    216 248.5  -6.5  34242  290.96 0854.50
2009/04/23 15:18:45.7      72    -72     43    103    111 134.9  23.6  34226  290.70 0854.50
2009/04/23 15:18:45.8     -63   -225    -73    234    246 195.8 -17.3  34210  290.42 0854.50
2009/04/23 15:18:45.9    -100   -211      4    234    235 205.3   1.0  34206  290.36 0854.50
2009/04/23 15:18:46.0    -113   -114      5    161    162 224.9   2.1  34214  290.50 0854.50
2009/04/23 15:18:46.1     -84   -100    -44    131    138 220.1 -23.6  34214  290.50 0854.50
2009/04/23 15:18:46.2     -92     -7     -1     93     94 265.2  -0.7  34210  290.43 0854.50
2009/04/23 15:18:46.3    -160    -56     26    170    173 250.5   8.8  34192  290.11 0854.50
2009/04/23 15:18:46.4    -230     46     56    235    242 281.5  13.5  34192  290.12 0854.50
2009/04/23 15:18:46.5    -156    189    123    246    275 320.4  28.5  34206  290.34 0854.50
2009/04/23 15:18:46.6     -53    154    159    164    228 340.8  49.2  34214  290.50 0854.50
2009/04/23 15:18:46.7    -105    231    110    254    276 335.5  25.1  34210  290.41 0854.50
2009/04/23 15:18:46.8      80    165    145    184    234  25.9  42.2  34216  290.53 0854.50
2009/04/23 15:18:46.9     -27     95    149     99    178 344.0  63.4  34220  290.58 0854.50
2009/04/23 15:18:47.0     -14     91    136     93    164 351.1  62.6  34216  290.53 0854.48
2009/04/23 15:18:47.1       6      0     91      7     91  90.0  90.0  34218  290.55 0854.48
2009/04/23 15:18:47.2       8    -25    108     27    111 161.3  86.4  34228  290.74 0854.48
2009/04/23 15:18:47.3      -3   -104    125    105    163 181.8  55.6  34224  290.67 0854.48
2009/04/23 15:18:47.4      -4    -39     90     40     98 187.1  74.5  34222  290.64 0854.48
2009/04/23 15:18:47.5      77    -44    121     89    150 119.8  60.5  34208  290.40 0854.48
2009/04/23 15:18:47.6       7      6    123     10    123  46.9  90.0  34216  290.52 0854.48
2009/04/23 15:18:47.7     -16    -49    162     52    170 198.3  81.2  34218  290.57 0854.48
2009/04/23 15:18:47.8      71    -32    164     79    182 114.4  72.8  34204  290.33 0854.48
2009/04/23 15:18:47.9     105   -106    103    150    181 135.5  37.8  34202  290.28 0854.48
2009/04/23 15:18:48.0       2   -163    138    164    214 179.1  44.3  34198  290.21 0854.48
2009/04/23 15:18:48.1     -21   -143    182    145    232 188.5  57.5  34198  290.23 0854.48
2009/04/23 15:18:48.2      21     25    167     33    170  39.6  89.4  34220  290.58 0854.48
2009/04/23 15:18:48.3     -34    -12    199     37    202 250.0  90.0  34214  290.50 0854.48
2009/04/23 15:18:48.4      69    -69    180     98    204 135.0  68.9  34208  290.38 0854.48
2009/04/23 15:18:48.5     125   -120    237    174    294 133.8  60.5  34208  290.37 0854.48
2009/04/23 15:18:48.6      84   -323    288    334    441 165.4  45.2  34194  290.16 0854.48
2009/04/23 15:18:48.7      59   -340    173    346    386 170.1  28.5  34192  290.10 0854.48
2009/04/23 15:18:48.8       0   -356    243    357    431 180.0  37.6  34224  290.67 0854.48
2009/04/23 15:18:48.9       4   -371    189    372    417 179.3  29.1  34238  290.89 0854.48
2009/04/23 15:18:49.0      22   -244    316    246    400 174.7  58.3  34228  290.71 0854.39
2009/04/23 15:18:49.1    -361   -237    394    432    584 236.7  47.0  34226  290.70 0854.39
2009/04/23 15:18:49.2    -470   -252    268    534    597 241.8  28.7  34248  291.07 0854.39
2009/04/23 15:18:49.3    -386   -291    239    484    539 233.0  28.2  34234  290.82 0854.39
2009/04/23 15:18:49.4    -171   -216    211    276    347 218.3  41.3  34222  290.61 0854.39
2009/04/23 15:18:49.5    -148   -387    408    415    581 200.9  49.7  34204  290.33 0854.39
2009/04/23 15:18:49.6    -170   -254    283    306    416 213.8  47.7  34200  290.25 0854.39
2009/04/23 15:18:49.7    -113   -330    279    350    447 199.0  42.7  34208  290.38 0854.39
2009/04/23 15:18:49.8    -120   -333    320    355    477 199.9  46.8  34204  290.33 0854.39
2009/04/23 15:18:49.9     -82   -291    296    303    423 195.8  49.3  34204  290.33 0854.39
2009/04/23 15:18:50.0    -100   -337    367    352    508 196.6  51.4  34190  290.09 0854.39
2009/04/23 15:18:50.1     -88   -260    385    275    473 198.7  61.1  34158  289.55 0854.39
2009/04/23 15:18:50.2    -103   -203    295    228    372 207.0  58.5  34174  289.81 0854.39
2009/04/23 15:18:50.3     -36    -27    228     46    232 233.1  89.1  34208  290.40 0854.39
2009/04/23 15:18:50.4      89    -36    203     97    224 112.2  72.8  34216  290.53 0854.39
2009/04/23 15:18:50.5      17    -43    247     47    251 158.2  89.8  34190  290.08 0854.39
2009/04/23 15:18:50.6     -48     40    219     63    227 309.5  83.5  34188  290.06 0854.39
2009/04/23 15:18:50.7      22     70    192     74    205  17.8  77.8  34198  290.21 0854.39
2009/04/23 15:18:50.8      59    184    175    194    261  17.8  46.9  34180  289.92 0854.39
2009/04/23 15:18:50.9     148    -31    232    152    277 101.9  63.6  34178  289.88 0854.39
2009/04/23 15:18:51.0     -14      0    155     15    155 270.0  90.0  34188  290.06 0854.32
2009/04/23 15:18:51.1     261    -98    213    279    351 110.6  41.3  34172  289.76 0854.32
2009/04/23 15:18:51.2     185    -26    230    187    296  98.1  56.4  34182  289.93 0854.32
2009/04/23 15:18:51.3       9     43    123     45    130  12.5  79.2  34196  290.18 0854.32
2009/04/23 15:18:51.4     -42     91    130    101    164 335.1  58.5  34220  290.60 0854.32
2009/04/23 15:18:51.5     -77    -80    117    112    161 223.7  51.2  34212  290.47 0854.32
2009/04/23 15:18:51.6       1   -127    162    128    206 179.1  57.5  34196  290.19 0854.32
2009/04/23 15:18:51.7      36   -108    188    115    220 161.3  65.7  34200  290.26 0854.32
2009/04/23 15:18:51.8      97   -207    118    229    257 154.7  29.3  34170  289.75 0854.32
2009/04/23 15:18:51.9      77   -193    105    208    233 158.2  28.7  34172  289.79 0854.32
2009/04/23 15:18:52.0      72   -160     16    176    177 155.7   5.2  34174  289.80 0854.32
2009/04/23 15:18:52.1       6   -168    -57    169    178 177.8 -23.6  34182  289.96 0854.32
2009/04/23 15:18:52.2       0    -90    -69     91    114 180.5 -45.6  34180  289.91 0854.32
2009/04/23 15:18:52.3       6    -16    -32     18     36 158.2 -71.2  34182  289.96 0854.32
2009/04/23 15:18:52.4      42    -13     36     45     57 107.7  43.7  34180  289.92 0854.32
2009/04/23 15:18:52.5      51      0     43     52     67  90.0  43.8  34186  290.01 0854.32
2009/04/23 15:18:52.6      -5     17     55     18     57 341.7  80.7  34200  290.25 0854.32
2009/04/23 15:18:52.7      -9     39     44     41     60 346.6  52.1  34208  290.38 0854.32
2009/04/23 15:18:52.8       6     81     33     82     88   4.5  23.0  34200  290.26 0854.32
2009/04/23 15:18:52.9      70     82     61    109    124  40.5  31.9  34226  290.69 0854.32
2009/04/23 15:18:53.0      76     54    119     94    151  54.5  57.5  34230  290.77 0854.33
2009/04/23 15:18:53.1      42     88    174     98    199  25.4  68.3  34228  290.74 0854.33
2009/04/23 15:18:53.2      84     88    141    122    186  43.7  55.0  34222  290.62 0854.33
2009/04/23 15:18:53.3      22    126    118    129    174  10.2  47.1  34222  290.64 0854.33
2009/04/23 15:18:53.4      39    115     97    122    155  18.7  43.3  34222  290.62 0854.33
2009/04/23 15:18:53.5     -65    101      6    121    122 327.4   2.9  34230  290.77 0854.33
2009/04/23 15:18:53.6     -93     93    -12    132    133 315.1  -5.2  34234  290.82 0854.33
2009/04/23 15:18:53.7    -152    135    -23    204    206 311.8  -6.5  34232  290.81 0854.33
2009/04/23 15:18:53.8    -152    125    -61    198    208 309.5 -17.3  34230  290.77 0854.33
2009/04/23 15:18:53.9    -133    135    -14    190    191 315.5  -4.4  34232  290.81 0854.33
2009/04/23 15:18:54.0    -152     71    -21    168    170 295.1  -7.2  34216  290.52 0854.39
2009/04/23 15:18:54.2    -101     65     42    121    129 302.9  19.4  34220  290.58 0854.39
2009/04/23 15:18:54.3     -61     86    105    106    149 324.8  50.0  34234  290.82 0854.39
2009/04/23 15:18:54.4     -54     85     74    101    125 327.4  39.7  34226  290.69 0854.39
2009/04/23 15:18:54.5    -126    108     62    167    178 310.7  21.3  34230  290.75 0854.39
2009/04/23 15:18:54.6    -123     70     -5    142    143 299.8  -2.2  34224  290.65 0854.39
2009/04/23 15:18:54.7    -200     69    -36    212    216 289.1  -9.8  34222  290.64 0854.39
2009/04/23 15:18:54.8    -169     11    -80    170    187 273.9 -31.5  34224  290.65 0854.39
2009/04/23 15:18:54.9    -160      0    -57    161    170 270.0 -24.4  34222  290.62 0854.39
2009/04/23 15:18:55.0    -102    108    -65    149    162 316.8 -29.3  34226  290.69 0854.39
2009/04/23 15:18:55.1     -98      9    -20     99    101 275.7 -11.5  34222  290.62 0854.39
2009/04/23 15:18:55.2    -103     34     36    109    115 288.2  18.4  34220  290.60 0854.39
2009/04/23 15:18:55.3     -48     60     35     77     84 321.3  26.2  34220  290.60 0854.39
2009/04/23 15:18:55.4     -70     96    -28    119    123 323.9 -13.3  34222  290.62 0854.39
2009/04/23 15:18:55.5     -70    111      2    132    133 327.9   1.2  34222  290.62 0854.39
2009/04/23 15:18:55.6     -56    167     43    177    183 341.5  13.7  34220  290.58 0854.39
2009/04/23 15:18:55.7     -53    160     32    169    173 341.5  10.8  34230  290.77 0854.39
2009/04/23 15:18:55.8     -42    196      6    201    202 347.7   1.8  34248  291.06 0854.39
2009/04/23 15:18:55.9     -50    166     11    174    175 343.1   3.6  34254  291.16 0854.39
2009/04/23 15:18:56.0     -37    123     45    129    137 343.1  19.4  34254  291.18 0854.39
2009/04/23 15:18:56.1     -31     83     60     89    107 339.1  37.0  34260  291.28 0854.44
2009/04/23 15:18:56.2     -22     55     58     60     83 338.2  50.0  34262  291.30 0854.44
2009/04/23 15:18:56.3       7     15     56     17     58  25.4  80.7  34278  291.59 0854.44
2009/04/23 15:18:56.4      46     46    100     66    119  45.1  63.2  34286  291.72 0854.44
2009/04/23 15:18:56.5     143     16     -7    144    145  83.4  -3.1  34298  291.93 0854.44
2009/04/23 15:18:56.6     114      6     31    115    120  87.0  15.3  34348  292.76 0854.44
2009/04/23 15:18:56.7     123      0     34    124    129  90.4  15.3  34360  292.98 0854.44
2009/04/23 15:18:56.8      88      4     18     89     91  87.4  11.6  34362  293.02 0854.44
2009/04/23 15:18:56.9      69     13      8     71     72  79.4   6.9  34370  293.15 0854.44
2009/04/23 15:18:57.0      58     -4    -24     59     63  94.3 -27.4  34376  293.24 0854.44
2009/04/23 15:18:57.1      40    -61     -4     74     75 146.6  -3.1  34358  292.95 0854.44
2009/04/23 15:18:57.2      25    -85     49     89    101 163.5  31.4  34360  292.98 0854.44
2009/04/23 15:18:57.3       2    -91     46     92    102 178.6  28.2  34344  292.71 0854.44
2009/04/23 15:18:57.4      78    -23     34     82     88 106.8  23.6  34374  293.22 0854.44
2009/04/23 15:18:57.5      84     73     81    112    138  48.7  39.5  34376  293.24 0854.44
2009/04/23 15:18:57.6     124     48     53    134    144  68.7  23.0  34360  292.98 0854.44
2009/04/23 15:18:57.7     163    -13    105    164    194  94.6  35.6  34408  293.79 0854.44
2009/04/23 15:18:57.8      46     -7     86     47     98  98.8  69.3  34400  293.65 0854.44
2009/04/23 15:18:57.9     -15    -44     78     47     91 198.7  66.2  34398  293.62 0854.44
2009/04/23 15:18:58.0    -106    -52     41    119    127 243.8  19.2  34374  293.22 0854.44
2009/04/23 15:18:58.1    -126    -80     70    150    165 237.5  26.6  34352  292.85 0854.46
2009/04/23 15:18:58.2     -80   -104      4    132    133 217.8   1.8  34340  292.63 0854.46
2009/04/23 15:18:58.3     -97   -198     98    221    241 206.1  25.2  34284  291.68 0854.46
2009/04/23 15:18:58.4    -133   -147     92    199    219 222.1  26.6  34364  293.04 0854.46
2009/04/23 15:18:58.5    -153   -153     11    217    218 225.1   3.1  34344  292.69 0854.46
2009/04/23 15:18:58.6     -77   -205     71    220    232 200.7  17.9  34278  291.57 0854.46
2009/04/23 15:18:58.7     -74   -230    100    242    261 198.0  23.6  34250  291.10 0854.46
2009/04/23 15:18:58.8      31   -119    146    123    190 165.3  56.1  34278  291.59 0854.46
2009/04/23 15:18:58.9    -130   -219    190    255    318 210.8  40.4  34228  290.71 0854.46
2009/04/23 15:18:59.0    -115   -208     91    238    254 209.0  22.0  34216  290.53 0854.46
2009/04/23 15:18:59.1    -101   -222     30    244    246 204.5   7.1  34222  290.63 0854.46
2009/04/23 15:18:59.2    -145   -221     99    265    282 213.4  21.3  34224  290.65 0854.46
2009/04/23 15:18:59.3    -111   -244    207    269    339 204.5  41.5  34230  290.76 0854.46
2009/04/23 15:18:59.4    -143   -214    189    258    319 213.8  39.9  34228  290.73 0854.46
2009/04/23 15:18:59.5    -162   -266    173    312    356 211.4  31.4  34228  290.72 0854.46
2009/04/23 15:18:59.6    -227   -294     81    372    381 217.7  12.4  34212  290.47 0854.46
2009/04/23 15:18:59.7     -61   -299     83    306    318 191.6  15.1  34222  290.61 0854.46
2009/04/23 15:18:59.8     -13   -298    115    299    320 182.5  22.0  34222  290.63 0854.46
2009/04/23 15:18:59.9     -24   -233     81    235    249 186.0  19.2  34220  290.58 0854.46
2009/04/23 15:19:00.0     -24   -226    125    228    260 186.2  31.3  34220  290.59 0854.46
2009/04/23 15:19:00.1     -66   -298    119    306    328 192.5  22.3  34226  290.68 0854.46
2009/04/23 15:19:00.2     -63   -363     86    369    380 189.9  13.2  34210  290.43 0854.46
2009/04/23 15:19:00.3     -94   -409     80    420    428 193.0  10.8  34204  290.33 0854.46
2009/04/23 15:19:00.4     -75   -398     72    406    413 190.7  10.1  34206  290.36 0854.46
2009/04/23 15:19:00.5     -47   -396     12    399    400 186.8   1.8  34208  290.40 0854.46
2009/04/23 15:19:00.6     -87   -427     37    437    439 191.6   4.9  34202  290.29 0854.46
2009/04/23 15:19:00.7     -52   -513     15    516    517 185.8   1.7  34206  290.34 0854.46
2009/04/23 15:19:00.8     -22   -487     39    488    490 182.7   4.6  34212  290.44 0854.46
2009/04/23 15:19:00.9     -85   -537     54    544    547 189.0   5.7  34198  290.23 0854.46
2009/04/23 15:19:01.0    -299   -469      6    557    558 212.5   0.7  34202  290.28 0854.46
2009/04/23 15:19:01.1    -357   -485   -163    603    625 216.4 -15.2  34178  289.87 0854.46
2009/04/23 15:19:01.2    -379   -528   -102    651    660 215.7  -8.9  34162  289.59 0854.46
2009/04/23 15:19:01.3       7   -349    -89    350    362 178.8 -14.3  34200  290.25 0854.46
2009/04/23 15:19:01.4    -123   -192   -177    229    289 212.6 -46.1  34164  289.63 0854.46
2009/04/23 15:19:01.5    -100   -132    -89    166    188 217.2 -35.0  34160  289.58 0854.46
2009/04/23 15:19:01.6     -59    -13    -30     61     67 257.6 -31.7  34168  289.72 0854.46
2009/04/23 15:19:01.7     -55   -180     23    189    191 196.9   7.1  34164  289.63 0854.46
2009/04/23 15:19:01.8    -276   -318     44    422    425 221.0   6.0  34210  290.43 0854.46
2009/04/23 15:19:01.9    -302   -274    -15    408    409 227.8  -2.2  34200  290.24 0854.46
2009/04/23 15:19:02.0    -518   -117   -149    532    552 257.2 -20.3  34204  290.31 0854.46
2009/04/23 15:19:02.1    -501     23      7    502    503 272.7   0.8  34198  290.22 0854.45
2009/04/23 15:19:02.2    -278   -131     29    308    310 244.8   5.4  34204  290.32 0854.45
2009/04/23 15:19:02.3    -348   -236   -149    421    447 235.8 -19.6  34206  290.36 0854.45
2009/04/23 15:19:02.4    -380   -124   -228    400    460 251.8 -36.7  34192  290.12 0854.45
2009/04/23 15:19:02.5    -636   -309   -355    708    792 244.1 -33.1  34182  289.95 0854.45
2009/04/23 15:19:02.6    -268   -272    -98    382    395 224.6 -14.5  34170  289.74 0854.45
2009/04/23 15:19:02.7    -430    -75   -128    437    455 260.0 -21.1  34198  290.21 0854.45
2009/04/23 15:19:02.8    -397   -110   -124    413    431 254.4 -21.7  34196  290.19 0854.45
2009/04/23 15:19:02.9    -347     31    -15    349    350 275.2  -2.5  34208  290.38 0854.45
2009/04/23 15:19:03.0    -454    -63     34    459    461 262.1   4.3  34188  290.05 0854.45
2009/04/23 15:19:03.1    -413   -205     30    462    464 243.6   3.8  34206  290.36 0854.45
2009/04/23 15:19:03.2    -466   -117     91    481    490 255.8  10.8  34192  290.10 0854.45
2009/04/23 15:19:03.3    -490    -64     44    495    498 262.5   5.1  34208  290.40 0854.45
2009/04/23 15:19:03.4    -329   -116   -150    350    380 250.5 -29.2  34216  290.52 0854.45
2009/04/23 15:19:03.5    -307   -210   -111    372    388 235.6 -21.6  34184  289.98 0854.45
2009/04/23 15:19:03.6     -68   -304     23    312    313 192.7   4.3  34200  290.24 0854.45
2009/04/23 15:19:03.7    -120   -307    -51    330    335 201.4  -8.9  34188  290.06 0854.45
2009/04/23 15:19:03.8     -72   -375     47    382    385 191.0   7.1  34188  290.04 0854.45
2009/04/23 15:19:03.9    -122   -308    254    332    418 201.6  41.3  34178  289.89 0854.45
2009/04/23 15:19:04.0    -162   -249    308    298    428 213.0  51.1  34182  289.96 0854.45
2009/04/23 15:19:04.1    -249   -222    228    334    404 228.2  37.6  34184  289.99 0854.51
2009/04/23 15:19:04.2    -220   -155    156    270    311 234.9  32.9  34184  289.97 0854.51
2009/04/23 15:19:04.3     -23   -196    161    198    255 186.7  43.5  34184  289.98 0854.51
2009/04/23 15:19:04.4    -103     32    138    108    175 287.3  57.9  34198  290.23 0854.51
2009/04/23 15:19:04.5      -9    -18    123     21    124 207.2  90.0  34206  290.35 0854.51
2009/04/23 15:19:04.6    -232   -233    199    329    384 224.9  34.1  34184  289.99 0854.51
2009/04/23 15:19:04.7    -110   -123    306    166    348 221.7  69.2  34182  289.93 0854.51
2009/04/23 15:19:04.8     -40   -270    407    274    490 188.5  62.8  34186  290.00 0854.51
2009/04/23 15:19:04.9     -55   -203    393    211    446 195.2  69.6  34182  289.96 0854.51
2009/04/23 15:19:05.0    -203   -171    386    266    468 229.8  62.2  34192  290.11 0854.51
2009/04/23 15:19:05.1    -118   -310    293    332    442 200.9  45.8  34180  289.92 0854.51
2009/04/23 15:19:05.2    -291   -302    286    420    508 223.9  37.6  34160  289.57 0854.51
2009/04/23 15:19:05.3    -376   -311    108    489    501 230.4  12.5  34164  289.64 0854.51
2009/04/23 15:19:05.4    -597   -279     67    660    664 244.9   5.8  34162  289.61 0854.51
2009/04/23 15:19:05.5    -533   -172   -108    561    572 252.1 -10.9  34176  289.84 0854.51
2009/04/23 15:19:05.6    -621    -38    142    623    640 266.5  12.9  34186  290.01 0854.51
2009/04/23 15:19:05.7    -582   -157    -12    603    604 254.9  -1.2  34186  290.00 0854.51
2009/04/23 15:19:05.8    -820      0   -298    821    873 270.0 -25.3  34190  290.09 0854.51
2009/04/23 15:19:05.9    -544     42   -155    546    568 274.5 -15.9  34172  289.77 0854.51
2009/04/23 15:19:06.0    -536   -216   -280    578    642 248.0 -32.2  34170  289.74 0854.51
2009/04/23 15:19:06.1    -424   -351    -33    551    552 230.4  -3.5  34174  289.82 0854.51
2009/04/23 15:19:06.2    -463   -455    230    650    689 225.5  20.3  34182  289.93 0854.51
2009/04/23 15:19:06.3    -572   -467    262    739    785 230.8  19.5  34174  289.82 0854.51
2009/04/23 15:19:06.4    -745   -353     10    825    826 244.6   0.7  34178  289.87 0854.51
2009/04/23 15:19:06.5    -749   -148    -31    764    765 258.8  -2.4  34158  289.53 0854.51
2009/04/23 15:19:06.6    -603   -300   -194    674    702 243.5 -16.1  34178  289.88 0854.51
2009/04/23 15:19:06.7    -306   -480    -22    570    571 212.5  -2.2  34176  289.83 0854.51
2009/04/23 15:19:06.8    -489   -222    -39    538    540 245.6  -4.2  34184  289.97 0854.51
2009/04/23 15:19:06.9    -611   -235      4    655    656 248.9   0.4  34174  289.82 0854.51
2009/04/23 15:19:07.0    -336   -431     22    547    548 217.9   2.3  34172  289.77 0854.51
2009/04/23 15:19:07.1    -171   -596    156    621    641 196.0  14.2  34182  289.94 0854.51
2009/04/23 15:19:07.2    -163   -510    265    536    597 197.8  28.2  34180  289.90 0854.51
2009/04/23 15:19:07.3    -238   -503    185    557    587 205.4  18.4  34182  289.95 0854.51
2009/04/23 15:19:07.4    -327   -376    121    499    514 221.0  13.7  34190  290.08 0854.51
2009/04/23 15:19:07.5    -149   -321    137    355    380 204.9  22.3  34184  289.99 0854.51
2009/04/23 15:19:07.6    -212   -323    106    387    402 213.3  15.3  34192  290.10 0854.51
2009/04/23 15:19:07.7    -251   -344     70    427    433 216.1   9.3  34192  290.11 0854.51
2009/04/23 15:19:07.8    -286   -489     79    567    573 210.3   8.0  34190  290.07 0854.51
2009/04/23 15:19:07.9    -218   -554     62    596    600 201.5   6.0  34186  290.02 0854.51
2009/04/23 15:19:08.0    -285   -405     24    496    497 215.1   2.8  34192  290.12 0854.51
2009/04/23 15:19:08.1    -145   -549    106    568    578 194.8  10.6  34188  290.05 0854.51
2009/04/23 15:19:08.2    -154   -405    155    434    460 200.9  20.3  34186  290.00 0854.51
2009/04/23 15:19:08.3    -273   -486     11    558    559 209.3   1.2  34186  290.01 0854.51
2009/04/23 15:19:08.4    -265   -387    -72    470    476 214.4  -8.7  34188  290.06 0854.51
2009/04/23 15:19:08.5    -196   -315   -143    372    398 211.9 -26.4  34188  290.06 0854.51
2009/04/23 15:19:08.6    -126   -374    -28    395    396 198.7  -4.1  34188  290.06 0854.51
2009/04/23 15:19:08.7    -149   -328     32    361    363 204.5   5.1  34192  290.10 0854.51
2009/04/23 15:19:08.8      45   -220    111    225    250 168.4  28.2  34192  290.10 0854.51
2009/04/23 15:19:08.9     121   -235    258    265    369 152.8  49.4  34198  290.20 0854.51
2009/04/23 15:19:09.0     229   -168    157    285    325 126.2  31.4  34212  290.44 0854.51
2009/04/23 15:19:09.1     316   -191    272    370    459 121.2  39.9  34216  290.53 0854.51
2009/04/23 15:19:09.2     185   -307    220    359    421 148.8  34.4  34224  290.67 0854.51
2009/04/23 15:19:09.3     275   -428    408    509    652 147.3  42.8  34188  290.05 0854.51
2009/04/23 15:19:09.4     111   -411    187    426    465 164.9  25.2  34190  290.07 0854.51
2009/04/23 15:19:09.5      77   -385    169    393    427 168.7  24.9  34190  290.09 0854.51
2009/04/23 15:19:09.6      67   -343      4    350    351 168.9   0.8  34192  290.13 0854.51
2009/04/23 15:19:09.7     223   -421     -4    477    478 152.0  -0.6  34196  290.17 0854.51
2009/04/23 15:19:09.8     202   -549     -9    586    587 159.8  -0.9  34196  290.19 0854.51
2009/04/23 15:19:09.9     261   -309    -44    405    408 139.8  -6.2  34196  290.17 0854.51
2009/04/23 15:19:10.0      39   -224     11    228    229 170.0   2.9  34202  290.28 0854.51
2009/04/23 15:19:10.1      19   -230    -73    231    242 175.1 -22.8  34198  290.22 0854.52
2009/04/23 15:19:10.2     -30   -147   -115    151    189 191.6 -45.6  34204  290.33 0854.52
2009/04/23 15:19:10.3    -130   -183   -127    225    258 215.4 -36.3  34204  290.31 0854.52
2009/04/23 15:19:10.4    -168   -225   -131    282    310 216.7 -31.4  34190  290.09 0854.52
2009/04/23 15:19:10.5       7   -459   -134    460    479 179.1 -21.1  34176  289.83 0854.52
2009/04/23 15:19:10.6    -272   -625   -218    682    715 203.5 -22.9  34176  289.83 0854.52
2009/04/23 15:19:10.7      40   -553   -166    555    579 175.8 -21.5  34154  289.46 0854.52
2009/04/23 15:19:10.8     -98   -394   -144    407    432 194.1 -19.5  34178  289.87 0854.52
2009/04/23 15:19:10.9      51   -258     27    264    266 168.7   5.9  34186  290.00 0854.52
2009/04/23 15:19:11.0    -136    -56     63    148    160 247.4  24.3  34192  290.13 0854.52
2009/04/23 15:19:11.1     -62    -21     19     66     69 250.9  16.3  34200  290.25 0854.52
2009/04/23 15:19:11.2    -154     16    -78    155    173 276.1 -33.1  34204  290.31 0854.52
2009/04/23 15:19:11.3    -219     54   -109    226    250 283.9 -31.7  34214  290.49 0854.52
2009/04/23 15:19:11.4    -238    -82   -250    252    354 251.0 -54.4  34166  289.66 0854.52
2009/04/23 15:19:11.5    -129    -81   -288    153    326 238.0 -74.3  34166  289.66 0854.52
2009/04/23 15:19:11.6    -135    -74   -315    155    351 241.1 -76.4  34162  289.59 0854.52
2009/04/23 15:19:11.7    -304     70   -349    312    468 283.0 -58.1  34158  289.53 0854.52
2009/04/23 15:19:11.8    -708    -64   -178    711    733 264.8 -14.1  34194  290.15 0854.52
2009/04/23 15:19:11.9    -478    -21   -242    479    536 267.4 -33.3  34166  289.67 0854.52
2009/04/23 15:19:12.0    -284   -201   -154    348    380 234.7 -30.0  34196  290.18 0854.52
2009/04/23 15:19:12.1     -49   -402   -152    405    432 187.0 -26.0  34196  290.17 0854.53
2009/04/23 15:19:12.2     198   -435   -128    479    496 155.5 -15.0  34180  289.91 0854.53
2009/04/23 15:19:12.3     284   -266    -77    390    398 133.2 -11.2  34178  289.87 0854.53
2009/04/23 15:19:12.4     312   -174   -113    358    376 119.2 -17.5  34182  289.96 0854.53
2009/04/23 15:19:12.5     485   -130    -96    503    513 105.1 -10.9  34158  289.54 0854.53
2009/04/23 15:19:12.6     462   -156     61    488    492 108.7   7.2  34170  289.73 0854.53
2009/04/23 15:19:12.7     275     29    -71    277    286  83.9 -14.4  34184  289.98 0854.53
2009/04/23 15:19:12.8     254   -219   -106    336    353 130.7 -17.6  34208  290.38 0854.53
2009/04/23 15:19:12.9     135   -343    -46    369    372 158.4  -7.2  34208  290.38 0854.53
2009/04/23 15:19:13.0     186   -540    -51    572    575 160.9  -5.2  34194  290.15 0854.53
2009/04/23 15:19:13.1     217   -657    107    692    701 161.7   8.8  34186  290.01 0854.53
2009/04/23 15:19:13.2     103   -627     40    636    638 170.7   3.6  34184  289.99 0854.53
2009/04/23 15:19:13.3     111   -568     94    579    587 168.9   9.2  34182  289.95 0854.53
2009/04/23 15:19:13.4     165   -411     45    444    447 158.1   5.9  34190  290.09 0854.53
2009/04/23 15:19:13.5      26   -413    -45    414    417 176.4  -6.3  34192  290.12 0854.53
2009/04/23 15:19:13.6     201   -435    -64    480    485 155.2  -7.7  34166  289.69 0854.53
2009/04/23 15:19:13.7     121   -360    -34    380    382 161.4  -5.2  34152  289.45 0854.53
2009/04/23 15:19:13.8     185   -382   -177    425    460 154.1 -28.5  34184  289.97 0854.53
2009/04/23 15:19:13.9    -131   -480   -211    498    540 195.3 -28.7  34190  290.09 0854.53
2009/04/23 15:19:14.0    -126   -786   -227    797    828 189.1 -20.7  34154  289.47 0854.52
2009/04/23 15:19:14.1    -231   -803   -169    836    853 196.1 -11.5  34146  289.32 0854.52
2009/04/23 15:19:14.2    -292   -765   -166    820    837 200.9 -11.5  34138  289.21 0854.52
2009/04/23 15:19:14.3    -316   -764   -189    827    849 202.5 -12.9  34144  289.29 0854.52
2009/04/23 15:19:14.4    -317   -832   -210    891    916 200.9 -13.3  34178  289.89 0854.52
2009/04/23 15:19:14.5    -340   -719   -261    796    838 205.3 -18.2  34178  289.87 0854.52
2009/04/23 15:19:14.6    -407   -691   -163    802    819 210.5 -11.5  34168  289.72 0854.52
2009/04/23 15:19:14.7    -172   -761    -69    781    785 192.8  -5.1  34210  290.41 0854.52
2009/04/23 15:19:14.8    -373   -748   -112    836    844 206.5  -7.7  34134  289.14 0854.52
2009/04/23 15:19:14.9    -308   -807   -111    865    873 200.9  -7.3  34154  289.47 0854.52
2009/04/23 15:19:15.0    -189   -652   -192    679    706 196.2 -15.8  34182  289.96 0854.52
2009/04/23 15:19:15.1      26   -808   -112    809    817 178.1  -7.9  34158  289.53 0854.52
2009/04/23 15:19:15.2     112   -935    -31    942    943 173.1  -1.9  34150  289.39 0854.52
2009/04/23 15:19:15.3      94   -818    -61    824    827 173.4  -4.2  34148  289.38 0854.52
2009/04/23 15:19:15.4     190   -861   -135    882    893 167.5  -8.7  34120  288.89 0854.52
2009/04/23 15:19:15.5      35   -764   -138    765    778 177.3 -10.3  34108  288.69 0854.52
2009/04/23 15:19:15.6    -104   -681   -138    689    703 188.7 -11.3  34120  288.88 0854.52
2009/04/23 15:19:15.7    -152   -659   -157    677    696 193.0 -13.1  34124  288.95 0854.52
2009/04/23 15:19:15.8    -166   -614   -173    637    661 195.2 -15.2  34126  289.01 0854.52
2009/04/23 15:19:15.9    -102   -590   -140    599    616 189.9 -13.2  34130  289.05 0854.52
2009/04/23 15:19:16.0     -99   -552    -87    561    568 190.2  -8.8  34124  288.96 0854.52
2009/04/23 15:19:16.1      56   -597   -107    600    610 174.6 -10.1  34112  288.75 0854.52
2009/04/23 15:19:16.2     -42   -570   -119    572    585 184.3 -11.8  34110  288.73 0854.52
2009/04/23 15:19:16.3       3   -554     47    555    558 179.7   4.9  34114  288.79 0854.52
2009/04/23 15:19:16.4      90   -577    -11    585    586 171.1  -1.2  34120  288.90 0854.52
2009/04/23 15:19:16.5      89   -515    -57    523    527 170.1  -6.2  34114  288.80 0854.52
2009/04/23 15:19:16.6      79   -476    -92    483    492 170.6 -10.9  34110  288.73 0854.52
2009/04/23 15:19:16.7      79   -462   -104    469    481 170.3 -12.6  34116  288.84 0854.52
2009/04/23 15:19:16.8     116   -418   -108    434    448 164.5 -14.1  34118  288.85 0854.52
2009/04/23 15:19:16.9      89   -396   -117    406    422 167.3 -20.7  34120  288.90 0854.52
2009/04/23 15:19:17.0      56   -363   -128    368    390 171.2 -19.3  34122  288.93 0854.46
2009/04/23 15:19:17.1      35   -361   -110    363    379 174.3 -21.7  34124  288.96 0854.46
2009/04/23 15:19:17.2      -5   -330    -91    331    344 181.0 -15.4  34122  288.93 0854.46
2009/04/23 15:19:17.3      22   -307    -80    308    319 175.8 -14.7  34122  288.93 0854.46
2009/04/23 15:19:17.4      29   -272    -45    274    278 173.8  -9.4  34126  288.98 0854.46
2009/04/23 15:19:17.5      76   -258     17    270    271 163.5   3.6  34128  289.03 0854.46
2009/04/23 15:19:17.6      59   -259      0    266    267 167.1   0.0  34126  288.98 0854.46
2009/04/23 15:19:17.7      90   -262    -45    278    282 161.1  -9.4  34130  289.05 0854.46
2009/04/23 15:19:17.8      89   -344    -45    356    359 165.5  -7.3  34122  288.94 0854.46
2009/04/23 15:19:17.9      33   -306    -73    308    317 173.8 -13.4  34120  288.90 0854.46
2009/04/23 15:19:18.0     117   -289    -39    312    315 157.9  -7.2  34122  288.93 0854.46
2009/04/23 15:19:18.1     107   -315    -71    333    341 161.2 -12.2  34120  288.88 0854.46
2009/04/23 15:19:18.2      92   -266    -40    282    285 160.9  -8.3  34120  288.88 0854.46
2009/04/23 15:19:18.3      34   -273   -102    276    294 172.9 -25.4  34122  288.92 0854.46
2009/04/23 15:19:18.4      71   -291    -88    300    313 166.2 -16.4  34122  288.93 0854.46
2009/04/23 15:19:18.5      27   -300    -43    302    306 174.7  -8.2  34126  289.00 0854.46
2009/04/23 15:19:18.6      44   -287    -59    291    298 171.3 -11.6  34124  288.97 0854.46
2009/04/23 15:19:18.7      29   -274    -15    276    277 173.8  -3.1  34128  289.03 0854.46
2009/04/23 15:19:18.8      62   -342    -13    348    349 169.7  -2.2  34122  288.94 0854.46
2009/04/23 15:19:18.9     124   -372    -86    393    403 161.5 -12.4  34142  289.28 0854.46
2009/04/23 15:19:19.0      76   -434     -3    441    442 170.0  -0.5  34170  289.75 0854.43
2009/04/23 15:19:19.1      71   -494     24    500    501 171.8   2.8  34162  289.62 0854.43
2009/04/23 15:19:19.2     120   -444    -82    461    469 164.9 -10.1  34158  289.54 0854.43
2009/04/23 15:19:19.3      35   -482    -27    484    485 175.8  -3.3  34166  289.66 0854.43
2009/04/23 15:19:19.4     119   -518     70    532    537 167.0   7.6  34198  290.21 0854.43
2009/04/23 15:19:19.5     141   -554    160    572    595 165.7  15.7  34202  290.29 0854.43
2009/04/23 15:19:19.6     138   -477     89    497    506 163.9  10.2  34196  290.18 0854.43
2009/04/23 15:19:19.7     147   -384    101    412    425 159.1  13.8  34202  290.28 0854.43
2009/04/23 15:19:19.8     189   -401    140    444    466 154.8  17.5  34182  289.95 0854.43
2009/04/23 15:19:19.9     281   -349    158    449    477 141.2  19.4  34172  289.78 0854.43
2009/04/23 15:19:20.0     303   -277    126    411    430 132.4  17.1  34172  289.78 0854.43
2009/04/23 15:19:20.1     319   -318    127    451    469 134.9  15.8  34166  289.66 0854.43
2009/04/23 15:19:20.2     262   -424    101    499    510 148.3  11.4  34152  289.44 0854.43
2009/04/23 15:19:20.3     182   -411     87    450    459 156.1  11.0  34162  289.61 0854.43
2009/04/23 15:19:20.4      47   -338    119    342    363 172.1  19.3  34172  289.77 0854.43
2009/04/23 15:19:20.5      -9   -341     63    342    348 181.6  10.6  34174  289.82 0854.43
2009/04/23 15:19:20.6       7   -507    -45    508    511 179.2  -5.1  34172  289.78 0854.43
2009/04/23 15:19:20.7     -22   -442    160    443    472 182.9  19.9  34186  290.00 0854.43
2009/04/23 15:19:20.8     123   -331    197    354    405 159.5  31.5  34170  289.74 0854.43
2009/04/23 15:19:20.9     -14   -304    120    305    327 182.7  22.5  34170  289.73 0854.43
2009/04/23 15:19:21.0      63   -287    256    295    390 167.5  45.5  34204  290.33 0854.44
2009/04/23 15:19:21.1     122   -309    214    333    395 158.4  35.7  34170  289.74 0854.44
2009/04/23 15:19:21.2     205   -384    120    436    453 151.9  15.4  34164  289.65 0854.44
2009/04/23 15:19:21.3     228   -235      5    328    329 135.9   1.0  34170  289.75 0854.44
2009/04/23 15:19:21.4     261   -153    -49    303    308 120.4  -9.3  34172  289.76 0854.44
2009/04/23 15:19:21.5     297   -135     89    327    340 114.4  15.3  34172  289.76 0854.44
2009/04/23 15:19:21.6     217     65    -72    227    239  73.2 -17.6  34170  289.73 0854.44
2009/04/23 15:19:21.7     219     59   -109    227    251  74.9 -31.7  34172  289.78 0854.44
2009/04/23 15:19:21.8     281     86    -70    295    304  72.9 -13.4  34186  290.00 0854.44
2009/04/23 15:19:22.0     326    172     24    369    370  62.1   3.8  34178  289.86 0854.44
2009/04/23 15:19:22.1     241    131    -64    275    283  61.4 -13.2  34188  290.05 0854.44
2009/04/23 15:19:22.2     147    114     82    187    204  52.2  25.1  34186  290.02 0854.44
2009/04/23 15:19:22.3     196     99    102    220    242  63.0  26.4  34178  289.88 0854.44
2009/04/23 15:19:22.4     196    -73     66    210    221 110.6  17.4  34178  289.89 0854.44
2009/04/23 15:19:22.5     118    -46    140    127    189 111.3  53.0  34184  289.99 0854.44
2009/04/23 15:19:22.6      61    -43    165     75    181 125.1  74.0  34202  290.30 0854.44
2009/04/23 15:19:22.7      87   -179    200    200    282 154.1  50.1  34198  290.20 0854.44
2009/04/23 15:19:22.8      -9   -298    260    299    396 181.8  45.6  34186  290.01 0854.44
2009/04/23 15:19:22.9      62    -84    162    105    193 143.5  64.6  34198  290.23 0854.44
2009/04/23 15:19:23.0     -51   -254    204    260    330 191.5  42.1  34188  290.03 0854.44
2009/04/23 15:19:23.1     -21   -283    177    284    334 184.4  35.0  34182  289.95 0854.46
2009/04/23 15:19:23.2     -13   -220    122    221    252 183.6  31.4  34186  290.00 0854.46
2009/04/23 15:19:23.3     -12   -126    109    127    167 185.8  45.1  34194  290.14 0854.46
2009/04/23 15:19:23.4      11    -55    186     57    194 168.4  82.3  34212  290.47 0854.46
2009/04/23 15:19:23.5      29    -14    168     33    171 115.2  89.4  34220  290.60 0854.46
2009/04/23 15:19:23.6     -31   -128    184    132    226 193.8  60.6  34228  290.74 0854.46
2009/04/23 15:19:23.7       8   -158    227    159    277 176.9  61.7  34244  290.99 0854.46
2009/04/23 15:19:23.8       8   -105    156    106    188 175.6  62.6  34246  291.03 0854.46
2009/04/23 15:19:23.9     -16    -55    176     58    185 196.0  80.7  34262  291.30 0854.46
2009/04/23 15:19:24.0      -8    -26    177     28    179 198.7  90.0  34272  291.49 0854.46
2009/04/23 15:19:24.1     -72    -61    199     95    220 229.6  72.8  34282  291.66 0854.46
2009/04/23 15:19:24.2     -72     -5     94     73    119 265.6  58.5  34280  291.62 0854.46
2009/04/23 15:19:24.3    -108   -101    120    149    191 226.9  43.5  34264  291.33 0854.46
2009/04/23 15:19:24.4     -83   -115    141    143    200 216.0  49.9  34194  290.16 0854.46
2009/04/23 15:19:24.5     -95   -173    210    198    288 208.7  52.0  34208  290.39 0854.46
2009/04/23 15:19:24.6    -242   -198    103    314    331 230.7  18.1  34232  290.78 0854.46
2009/04/23 15:19:24.7    -103   -385    132    399    421 195.1  18.4  34230  290.77 0854.46
2009/04/23 15:19:24.8      99   -225    130    247    279 156.2  30.1  34226  290.70 0854.46
2009/04/23 15:19:24.9      -8   -187     90    188    208 182.5  27.3  34248  291.08 0854.46
2009/04/23 15:19:25.0    -147   -403      2    430    431 200.1   0.4  34190  290.09 0854.46
2009/04/23 15:19:25.1     -98   -234    -87    254    269 202.7 -19.1  34184  289.97 0854.48
2009/04/23 15:19:25.2      75    -65    -50    100    111 130.9 -32.6  34192  290.11 0854.48
2009/04/23 15:19:25.3     -25    -26    106     37    112 223.4  81.2  34210  290.41 0854.48
2009/04/23 15:19:25.4    -181   -183    157    258    302 224.8  34.4  34206  290.36 0854.48
2009/04/23 15:19:25.5    -270    -58     97    277    294 257.8  19.4  34270  291.44 0854.48
2009/04/23 15:19:25.6    -243   -110    132    267    297 245.6  28.2  34276  291.53 0854.48
2009/04/23 15:19:25.7    -182    -58    131    191    231 252.3  37.6  34292  291.81 0854.48
2009/04/23 15:19:25.8    -170    -97     75    196    209 240.2  21.7  34286  291.72 0854.48
2009/04/23 15:19:25.9    -147   -138    -28    202    205 226.9  -8.0  34234  290.82 0854.48
2009/04/23 15:19:26.0    -249    -70     -3    259    260 254.1  -0.7  34228  290.73 0854.48
2009/04/23 15:19:26.1    -300   -153     -5    338    339 242.9  -0.9  34202  290.30 0854.48
2009/04/23 15:19:26.2    -336     40   -131    339    363 276.9 -26.7  34188  290.03 0854.48
2009/04/23 15:19:26.3    -523   -123   -160    538    562 256.7 -16.6  34172  289.79 0854.48
2009/04/23 15:19:26.4    -358   -213     54    417    421 239.2   7.5  34192  290.11 0854.48
2009/04/23 15:19:26.5    -382   -167     61    417    422 246.4   8.3  34208  290.39 0854.48
2009/04/23 15:19:26.6    -401    -94    -70    412    418 256.8  -9.7  34218  290.56 0854.48
2009/04/23 15:19:26.7    -485     40    -97    487    497 274.8 -11.3  34228  290.74 0854.48
2009/04/23 15:19:26.8    -503     29    -27    504    505 273.4  -3.1  34208  290.40 0854.48
2009/04/23 15:19:26.9    -332    -68    -19    340    341 258.4  -3.3  34194  290.15 0854.48
2009/04/23 15:19:27.0    -282   -161     33    326    328 240.2   5.9  34204  290.32 0854.48
2009/04/23 15:19:27.1    -270   -117      4    295    296 246.5   0.8  34216  290.51 0854.47
2009/04/23 15:19:27.2    -471    -15   -164    472    499 268.1 -24.3  34206  290.35 0854.47
2009/04/23 15:19:27.3    -450    119   -169    466    495 284.9 -25.2  34206  290.34 0854.47
2009/04/23 15:19:27.4    -471    137    -45    491    494 286.3  -5.3  34242  290.98 0854.47
2009/04/23 15:19:27.5    -525    -25   -184    526    557 267.2 -24.4  34184  289.97 0854.47
2009/04/23 15:19:27.6    -496    -68   -197    501    538 262.2 -27.2  34194  290.14 0854.47
2009/04/23 15:19:27.7    -630    -71   -248    635    681 263.5 -26.8  34160  289.56 0854.47
2009/04/23 15:19:27.8    -624   -116   -121    635    647 259.4 -10.8  34156  289.52 0854.47
2009/04/23 15:19:27.9    -565    140    -11    583    584 283.9  -1.2  34180  289.91 0854.47
2009/04/23 15:19:28.0    -623     31   -201    624    655 272.9 -23.0  34162  289.62 0854.47
2009/04/23 15:19:28.1    -684    -54   -189    687    713 265.4 -15.4  34192  290.13 0854.47
2009/04/23 15:19:28.2    -565     15   -162    566    589 271.6 -16.0  34212  290.47 0854.47
2009/04/23 15:19:28.3    -500    197      3    538    539 291.6   0.3  34256  291.21 0854.47
2009/04/23 15:19:28.4    -510     91   -185    519    552 280.1 -19.7  34226  290.70 0854.47
2009/04/23 15:19:28.5    -634    -15   -191    635    664 268.6 -16.8  34216  290.52 0854.47
2009/04/23 15:19:28.6    -535    -44   -239    537    587 265.2 -30.0  34192  290.10 0854.47
2009/04/23 15:19:28.7    -375     87   -237    386    452 283.2 -38.8  34208  290.38 0854.47
2009/04/23 15:19:28.8    -645     29   -216    646    681 272.6 -23.5  34198  290.21 0854.47
2009/04/23 15:19:28.9    -660    -82    -24    666    667 262.9  -2.1  34220  290.58 0854.47
2009/04/23 15:19:29.0    -503    167   -177    531    559 288.4 -23.6  34196  290.19 0854.47
2009/04/23 15:19:29.1    -348   -237    -60    422    427 235.7  -8.1  34214  290.50 0854.49
2009/04/23 15:19:29.2    -166   -288    -75    333    342 209.9 -12.7  34216  290.52 0854.49
2009/04/23 15:19:29.3    -182   -439   -215    476    522 202.5 -30.4  34198  290.23 0854.49
2009/04/23 15:19:29.4      66   -283   -224    291    367 166.9 -45.9  34210  290.43 0854.49
2009/04/23 15:19:29.5     195   -401    -89    447    456 154.0 -11.3  34200  290.24 0854.49
2009/04/23 15:19:29.6     327   -358    -76    485    492 137.6  -9.0  34192  290.12 0854.49
2009/04/23 15:19:29.7     231   -162   -152    283    321 125.1 -35.0  34200  290.24 0854.49
2009/04/23 15:19:29.8     397    -95   -125    409    427 103.5 -22.1  34186  290.00 0854.49
2009/04/23 15:19:29.9     224   -232    -55    323    328 136.1  -9.7  34196  290.17 0854.49
2009/04/23 15:19:30.0      77   -211   -140    225    265 160.0 -39.6  34190  290.09 0854.49
2009/04/23 15:19:30.1     346   -170   -128    386    406 116.3 -23.7  34194  290.15 0854.49
2009/04/23 15:19:30.2     -44   -179   -216    185    284 193.8 -59.8  34180  289.90 0854.49
2009/04/23 15:19:30.3       0   -258   -291    259    389 180.0 -58.3  34208  290.40 0854.49
2009/04/23 15:19:30.4     109   -327   -292    345    451 161.5 -48.9  34194  290.14 0854.49
2009/04/23 15:19:30.5     200   -359   -245    412    479 150.9 -37.9  34194  290.14 0854.49
2009/04/23 15:19:30.6     185   -306   -213    358    416 148.9 -37.9  34178  289.89 0854.49
2009/04/23 15:19:30.7     150   -125    217    196    292 129.6  53.2  34174  289.80 0854.49
2009/04/23 15:19:30.8      62   -600     52    604    607 174.1   5.0  34180  289.90 0854.49
2009/04/23 15:19:30.9     244   -525    158    579    601 155.1  15.3  34180  289.91 0854.49
2009/04/23 15:19:31.0     310   -330    280    453    532 136.8  34.8  34182  289.96 0854.49
2009/04/23 15:19:31.1     215   -381    282    438    520 150.5  35.7  34188  290.06 0854.50
2009/04/23 15:19:31.2     416   -399    198    577    611 133.8  18.9  34186  290.00 0854.50
2009/04/23 15:19:31.3     455   -496     87    674    680 137.5   7.4  34194  290.14 0854.50
2009/04/23 15:19:31.4     308   -515    228    601    642 149.1  21.8  34184  289.99 0854.50
2009/04/23 15:19:31.5     180   -380     59    421    426 154.7   8.0  34196  290.19 0854.50
2009/04/23 15:19:31.6     101   -316    236    332    407 162.2  38.8  34194  290.15 0854.50
2009/04/23 15:19:31.7     -22   -368    333    369    497 183.5  46.9  34198  290.21 0854.50
2009/04/23 15:19:31.8    -245   -539     40    593    595 204.5   3.9  34196  290.17 0854.50
2009/04/23 15:19:31.9    -202   -519     47    558    561 201.3   4.9  34212  290.46 0854.50
2009/04/23 15:19:32.0     157   -625     20    645    646 165.8   1.8  34204  290.32 0854.50
2009/04/23 15:19:32.1      26   -426   -100    427    439 176.4 -13.2  34214  290.48 0854.50
2009/04/23 15:19:32.2      43   -364   -196    367    416 173.2 -34.7  34206  290.35 0854.50
2009/04/23 15:19:32.3     -51   -199   -107    206    232 194.5 -33.9  34208  290.38 0854.50
2009/04/23 15:19:32.4     -80   -148   -118    169    206 208.5 -42.8  34216  290.53 0854.50
2009/04/23 15:19:32.5       2   -161    -24    162    164 179.3  -8.6  34210  290.43 0854.50
2009/04/23 15:19:32.6    -173   -196    -52    262    268 221.4 -11.3  34208  290.39 0854.50
2009/04/23 15:19:32.7    -361   -116     67    380    386 252.2  10.0  34210  290.43 0854.50
2009/04/23 15:19:32.8    -541     29   -120    542    556 273.1 -12.5  34212  290.46 0854.50
2009/04/23 15:19:32.9    -251   -194     46    318    322 232.3   8.2  34200  290.24 0854.50
2009/04/23 15:19:33.0    -273   -622    184    680    705 203.7  15.2  34198  290.22 0854.50
2009/04/23 15:19:33.1    -321   -502   -212    596    633 212.6 -19.6  34166  289.69 0854.50
2009/04/23 15:19:33.2    -352   -508   -125    619    632 214.7 -11.5  34154  289.48 0854.50
2009/04/23 15:19:33.3    -290   -355    -87    459    468 219.3 -10.8  34202  290.29 0854.50
2009/04/23 15:19:33.4    -422   -250   -132    491    509 239.4 -15.1  34218  290.56 0854.50
2009/04/23 15:19:33.5    -292   -445   -102    533    543 213.3 -10.9  34190  290.09 0854.50
2009/04/23 15:19:33.6    -200   -422     38    468    470 205.4   4.7  34184  289.98 0854.50
2009/04/23 15:19:33.7    -101   -353     73    368    376 196.1  11.3  34222  290.64 0854.50
2009/04/23 15:19:33.8     -10   -605     24    606    607 181.0   2.3  34218  290.54 0854.50
2009/04/23 15:19:33.9      43   -598     59    600    603 175.9   5.7  34188  290.05 0854.50
2009/04/23 15:19:34.0     158   -651    156    670    688 166.3  13.1  34194  290.16 0854.50
2009/04/23 15:19:34.1      42   -541    162    543    567 175.5  16.7  34194  290.16 0854.50
2009/04/23 15:19:34.2      38   -629    247    631    677 176.5  22.5  34200  290.26 0854.50
2009/04/23 15:19:34.3     176   -672    135    695    708 165.3  11.0  34204  290.32 0854.50
2009/04/23 15:19:34.4     220   -691    124    726    737 162.3   9.7  34214  290.49 0854.50
2009/04/23 15:19:34.5     142   -762    206    776    803 169.4  14.9  34218  290.54 0854.50
2009/04/23 15:19:34.6     -38   -668     32    670    671 183.3   2.8  34216  290.51 0854.50
2009/04/23 15:19:34.7      71   -802    121    806    816 174.9   8.6  34178  289.89 0854.50
2009/04/23 15:19:34.8     101   -648    -96    657    665 171.1  -8.4  34162  289.60 0854.50
2009/04/23 15:19:34.9     -25   -692    -82    693    698 182.1  -6.8  34162  289.59 0854.50
2009/04/23 15:19:35.0    -197   -624    -59    655    658 197.5  -5.2  34210  290.43 0854.50
2009/04/23 15:19:35.1    -284   -649   -101    709    717 203.6  -8.1  34186  290.01 0854.49
2009/04/23 15:19:35.2    -388   -844    -89    930    935 204.7  -5.5  34152  289.44 0854.49
2009/04/23 15:19:35.3    -217   -873    196    900    922 194.0  12.3  34180  289.92 0854.49
2009/04/23 15:19:35.4     -79  -1035    371   1038   1102 184.4  20.4  34144  289.30 0854.49
2009/04/23 15:19:35.5     187   -882    112    902    909 168.0   7.1  34162  289.61 0854.49
2009/04/23 15:19:35.6     364   -986     14   1052   1053 159.7   0.8  34154  289.48 0854.49
2009/04/23 15:19:35.7     215   -983     76   1007   1010 167.6   4.3  34158  289.53 0854.49
2009/04/23 15:19:35.8      60  -1056   -101   1058   1064 176.7  -5.5  34170  289.75 0854.49
2009/04/23 15:19:35.9    -113  -1219   -209   1225   1243 185.3  -9.7  34170  289.73 0854.49
2009/04/23 15:19:36.0    -277  -1164   -173   1197   1210 193.4  -8.3  34146  289.35 0854.49
2009/04/23 15:19:36.1    -394  -1032   -202   1105   1124 200.9 -10.4  34130  289.07 0854.47
2009/04/23 15:19:36.2    -315   -877    -83    933    937 199.8  -5.1  34172  289.79 0854.47
2009/04/23 15:19:36.3    -282   -813   -222    861    890 199.2 -14.5  34148  289.38 0854.47
2009/04/23 15:19:36.4    -162   -949   -207    963    986 189.7 -12.2  34126  289.01 0854.47
2009/04/23 15:19:36.5      41   -993   -134    994   1003 177.6  -7.7  34130  289.07 0854.47
2009/04/23 15:19:36.6      76   -877   -115    881    889 175.0  -7.5  34146  289.35 0854.47
2009/04/23 15:19:36.7    -172   -922   -173    938    954 190.6 -10.5  34130  289.08 0854.47
2009/04/23 15:19:36.8     -36   -927   -191    928    948 182.3 -11.7  34126  289.00 0854.47
2009/04/23 15:19:36.9     -96   -986   -282    991   1031 185.6 -15.9  34130  289.05 0854.47
2009/04/23 15:19:37.0      98   -949   -250    954    987 174.1 -14.7  34120  288.89 0854.47
2009/04/23 15:19:37.1     374   -921     15    995    996 157.9   0.9  34116  288.83 0854.47
2009/04/23 15:19:37.2      46   -668      9    670    671 176.0   0.8  34122  288.92 0854.47
2009/04/23 15:19:37.3    -129   -920     45    930    932 188.0   2.8  34144  289.29 0854.47
2009/04/23 15:19:37.4    -330   -971    -16   1026   1027 198.8  -0.9  34130  289.05 0854.47
2009/04/23 15:19:37.5    -451   -946    -32   1048   1049 205.5  -1.8  34132  289.11 0854.47
2009/04/23 15:19:37.6    -329   -973   -112   1028   1035 198.7  -6.3  34152  289.45 0854.47
2009/04/23 15:19:37.7    -349  -1236   -238   1285   1307 195.8 -10.5  34148  289.37 0854.47
2009/04/23 15:19:37.8    -352  -1238   -382   1288   1344 195.9 -16.5  34140  289.23 0854.47
2009/04/23 15:19:37.9    -229   -992   -310   1019   1065 193.0 -21.8  34126  289.00 0854.47
2009/04/23 15:19:38.0    -161  -1030   -191   1043   1061 188.9 -10.4  34142  289.28 0854.47
2009/04/23 15:19:38.1      72   -854     93    858    864 175.1   6.2  34130  289.05 0854.46
2009/04/23 15:19:38.2    -209   -712    184    743    766 196.4  13.9  34128  289.04 0854.46
2009/04/23 15:19:38.3    -235   -867     95    899    905 195.2   6.1  34130  289.06 0854.46
2009/04/23 15:19:38.4     196   -771    -31    796    797 165.7  -2.2  34138  289.20 0854.46
2009/04/23 15:19:38.5     203   -863    -72    887    891 166.7  -4.7  34138  289.20 0854.46
2009/04/23 15:19:38.6     412   -769    -19    873    874 151.8  -1.3  34144  289.30 0854.46
2009/04/23 15:19:38.7     144   -913    130    925    935 171.0   8.0  34140  289.24 0854.46
2009/04/23 15:19:38.8     254   -940    294    974   1018 164.9  16.8  34146  289.34 0854.46
2009/04/23 15:19:38.9     421   -834    255    935    970 153.2  15.3  34152  289.43 0854.46
2009/04/23 15:19:39.0     289   -701    317    759    822 157.6  24.1  34148  289.37 0854.46
2009/04/23 15:19:39.1     376   -617    387    723    820 148.6  30.5  34148  289.37 0854.46
2009/04/23 15:19:39.2     230   -692    291    730    785 161.6  23.0  34148  289.36 0854.46
2009/04/23 15:19:39.3     246   -631    490    678    836 158.7  39.5  34150  289.41 0854.46
2009/04/23 15:19:39.4     601   -786    267    990   1026 142.6  15.1  34126  288.98 0854.46
2009/04/23 15:19:39.5     581   -414    501    714    872 125.5  38.5  34146  289.33 0854.46
2009/04/23 15:19:39.6     215   -316    273    383    470 145.8  39.1  34126  288.99 0854.46
2009/04/23 15:19:39.7     123      0   -131    124    180  90.4 -56.4  34154  289.46 0854.46
2009/04/23 15:19:39.8    -276   -131    -68    306    314 244.5 -12.7  34154  289.46 0854.46
2009/04/23 15:19:39.9    -343    -79   -160    353    387 257.0 -30.6  34152  289.42 0854.46
2009/04/23 15:19:40.0    -351   -182     75    396    404 242.5  10.8  34150  289.40 0854.46
2009/04/23 15:19:40.1    -701     23   -230    702    738 271.9 -23.3  34178  289.89 0854.44
2009/04/23 15:19:40.2    -390    261   -480    470    671 303.9 -55.0  34190  290.08 0854.44
2009/04/23 15:19:40.3     -97    152   -187    181    260 327.5 -55.3  34170  289.75 0854.44
2009/04/23 15:19:40.4     101    -86     -6    133    134 130.4  -2.6  34186  290.01 0854.44
2009/04/23 15:19:40.5     251    -42     90    255    271  99.6  19.6  34174  289.80 0854.44
2009/04/23 15:19:40.6     335   -192     98    387    400 119.8  14.3  34180  289.91 0854.44
2009/04/23 15:19:40.7     292   -241     60    379    384 129.5   9.0  34180  289.91 0854.44
2009/04/23 15:19:40.8     105   -290    199    309    367 160.0  35.7  34160  289.57 0854.44
2009/04/23 15:19:40.9     207   -493    183    535    566 157.2  18.9  34164  289.63 0854.44
2009/04/23 15:19:41.0     206   -340    155    398    427 148.7  22.4  34164  289.65 0854.44
2009/04/23 15:19:41.1     126   -288    136    315    343 156.3  24.8  34170  289.74 0854.44
2009/04/23 15:19:41.2      46   -207     90    213    231 167.5  24.1  34170  289.74 0854.44
2009/04/23 15:19:41.3    -143   -344    119    373    392 202.6  17.8  34162  289.59 0854.44
2009/04/23 15:19:41.4    -169   -265    140    315    344 212.5  25.7  34172  289.79 0854.44
2009/04/23 15:19:41.5     -43   -211     83    216    231 191.6  22.0  34174  289.80 0854.44
2009/04/23 15:19:41.6       6   -186    122    187    223 178.0  35.7  34172  289.79 0854.44
2009/04/23 15:19:41.7       7   -181     59    182    192 177.5  17.9  34172  289.79 0854.44
2009/04/23 15:19:41.8      90    -65    108    112    155 126.0  49.4  34184  289.99 0854.44
2009/04/23 15:19:41.9     198     -3    205    199    285  91.0  50.9  34182  289.93 0854.44
2009/04/23 15:19:42.0     318   -203    154    378    408 122.6  23.4  34178  289.86 0854.44
2009/04/23 15:19:42.1     278    -74    -26    288    290 105.0  -5.2  34180  289.92 0854.44
2009/04/23 15:19:42.2     141    -97    197    172    261 124.4  54.3  34188  290.05 0854.44
2009/04/23 15:19:42.3      62     80    175    102    202  37.8  67.0  34196  290.18 0854.44
2009/04/23 15:19:42.4       2    -18    174     19    175 172.0  90.0  34196  290.19 0854.44
2009/04/23 15:19:42.5     -34    -62    105     71    126 208.9  62.7  34192  290.11 0854.44
2009/04/23 15:19:42.6     -27   -192    235    194    304 188.1  56.4  34170  289.75 0854.44
2009/04/23 15:19:42.7     -80   -253    293    266    395 197.6  53.3  34178  289.86 0854.44
2009/04/23 15:19:42.8     -70   -263    187    273    330 195.1  37.8  34170  289.75 0854.44
2009/04/23 15:19:42.9     -53   -381    119    385    404 188.0  17.2  34174  289.81 0854.44
2009/04/23 15:19:43.0       0   -267    266    268    377 180.0  50.0  34174  289.82 0854.44
2009/04/23 15:19:43.1      97     28    333    102    348  73.6  82.5  34166  289.66 0854.44
2009/04/23 15:19:43.2     275   -646    510    703    868 157.0  39.5  34150  289.40 0854.44
2009/04/23 15:19:43.3     210   -273    237    345    418 142.5  37.7  34158  289.55 0854.44
2009/04/23 15:19:43.4     302   -503    133    587    602 149.0  12.8  34158  289.54 0854.44
2009/04/23 15:19:43.5     215   -518    -12    561    562 157.4  -1.3  34160  289.58 0854.44
2009/04/23 15:19:43.6      37   -659    165    661    682 176.8  14.0  34148  289.38 0854.44
2009/04/23 15:19:43.7     235   -554    341    603    692 157.0  32.0  34140  289.24 0854.44
2009/04/23 15:19:43.8      47   -447    202    450    493 173.9  25.8  34136  289.18 0854.44
2009/04/23 15:19:43.9     -75   -435    175    442    475 189.9  22.8  34150  289.39 0854.44
2009/04/23 15:19:44.0     151   -307    255    343    427 153.8  40.4  34180  289.91 0854.46
2009/04/23 15:19:44.1     244   -258     30    356    358 136.6   4.9  34152  289.42 0854.46
2009/04/23 15:19:44.2     416   -159    189    446    484 110.9  24.5  34154  289.47 0854.46
2009/04/23 15:19:44.3     436    -53    188    440    478  97.0  24.6  34160  289.57 0854.46
2009/04/23 15:19:44.4     371   -234    -49    439    442 122.2  -6.5  34158  289.55 0854.46
2009/04/23 15:19:44.5     382   -142     68    408    414 110.4   9.5  34162  289.61 0854.46
2009/04/23 15:19:44.6     299    -50    126    304    329  99.5  23.9  34152  289.42 0854.46
2009/04/23 15:19:44.7     182     32    189    185    264  79.9  50.7  34168  289.70 0854.46
2009/04/23 15:19:44.8      38     36    159     53    167  46.9  81.0  34176  289.84 0854.46
2009/04/23 15:19:44.9      55      4    136     56    147  85.6  77.0  34168  289.72 0854.46
2009/04/23 15:19:45.0     156    -11    131    157    204  94.4  44.1  34158  289.55 0854.46
2009/04/23 15:19:45.1     -69   -445    353    451    572 188.9  42.0  34146  289.33 0854.46
2009/04/23 15:19:45.2     146    -80    239    167    291 118.9  61.8  34154  289.47 0854.46
2009/04/23 15:19:45.3     181   -113    187    214    284 122.0  45.8  34156  289.51 0854.46
2009/04/23 15:19:45.4     136    115    285    179    336  49.8  64.9  34152  289.44 0854.46
2009/04/23 15:19:45.5     268     97    181    286    338  70.1  35.5  34164  289.63 0854.46
2009/04/23 15:19:45.6     200    127    170    237    291  57.6  39.1  34166  289.68 0854.46
2009/04/23 15:19:45.7     228    121    190    259    321  62.0  39.9  34174  289.80 0854.46
2009/04/23 15:19:45.8      71     97    216    121    247  36.5  68.5  34184  289.97 0854.46
2009/04/23 15:19:45.9     -13     28    180     32    182 334.5  90.0  34190  290.08 0854.46
2009/04/23 15:19:46.0    -152     41    140    158    211 285.1  46.2  34180  289.91 0854.45
2009/04/23 15:19:46.1    -321   -234    229    398    459 233.9  32.6  34158  289.53 0854.45
2009/04/23 15:19:46.2    -114   -537    164    550    574 192.1  16.6  34156  289.51 0854.45
2009/04/23 15:19:46.3      93   -541      7    550    551 170.2   0.8  34150  289.41 0854.45
2009/04/23 15:19:46.4      -7   -435     74    436    443 181.0   9.7  34154  289.48 0854.45
2009/04/23 15:19:46.5      -8   -477    -18    478    479 181.0  -2.2  34154  289.47 0854.45
2009/04/23 15:19:46.6      91   -250     -7    267    268 160.0  -1.6  34148  289.37 0854.45
2009/04/23 15:19:46.7     -38   -231     44    235    240 189.3  10.6  34152  289.44 0854.45
2009/04/23 15:19:46.8    -137   -117     82    181    198 229.6  25.9  34156  289.50 0854.45
2009/04/23 15:19:46.9    -152    -24    125    155    199 260.8  43.3  34162  289.60 0854.45
2009/04/23 15:19:47.0    -146    101    141    178    227 304.6  42.7  34176  289.84 0854.45
2009/04/23 15:19:47.1      91    -58    176    108    206 122.5  65.4  34170  289.74 0854.45
2009/04/23 15:19:47.2    -148   -345    252    376    452 203.2  37.2  34160  289.58 0854.45
2009/04/23 15:19:47.3    -280   -513    106    585    595 208.6  10.3  34148  289.37 0854.45
2009/04/23 15:19:47.4    -306   -540    137    621    637 209.5  12.5  34152  289.42 0854.45
2009/04/23 15:19:47.5      49   -491    158    494    519 174.2  17.8  34156  289.50 0854.45
2009/04/23 15:19:47.6     262   -243    243    358    432 132.9  37.4  34164  289.65 0854.45
2009/04/23 15:19:47.7       0   -473   -198    474    513 180.0 -28.5  34150  289.40 0854.45
2009/04/23 15:19:47.8     104   -390    -82    404    413 165.0 -11.5  34146  289.34 0854.45
2009/04/23 15:19:47.9      77   -317    -78    327    337 166.2 -13.4  34146  289.33 0854.45
2009/04/23 15:19:48.0     -14   -394    184    395    435 182.1  26.6  34140  289.22 0854.45
2009/04/23 15:19:48.1     -52   -405    176    409    445 187.3  24.9  34154  289.48 0854.45
2009/04/23 15:19:48.2    -217   -498    223    544    587 203.6  23.6  34164  289.64 0854.45
2009/04/23 15:19:48.3    -273   -511    -58    580    584 208.1  -5.8  34164  289.64 0854.45
2009/04/23 15:19:48.4    -193   -441     -5    482    483 203.6  -0.7  34174  289.81 0854.45
2009/04/23 15:19:48.5    -302   -218   -172    373    410 234.1 -30.8  34168  289.71 0854.45
2009/04/23 15:19:48.6    -257   -169    -90    308    320 236.7 -21.2  34140  289.24 0854.45
2009/04/23 15:19:48.7    -337     -2   -152    338    370 269.5 -30.3  34152  289.43 0854.45
2009/04/23 15:19:48.8    -468      0   -166    469    498 270.0 -19.6  34162  289.62 0854.45
2009/04/23 15:19:48.9    -544     -7   -272    545    609 269.2 -32.9  34170  289.75 0854.45
2009/04/23 15:19:49.0    -227     45   -231    232    327 281.4 -54.5  34154  289.46 0854.45
2009/04/23 15:19:49.1     -60    -94   -123    112    166 212.5 -57.4  34178  289.89 0854.45
2009/04/23 15:19:49.2     -66   -104    -78    124    146 212.5 -39.9  34176  289.85 0854.45
2009/04/23 15:19:49.3       0    -90    250     91    266 180.4  79.5  34192  290.13 0854.45
2009/04/23 15:19:49.4    -117   -354    282    373    467 198.3  40.8  34148  289.38 0854.45
2009/04/23 15:19:49.5    -218   -411    182    466    500 208.0  22.5  34156  289.52 0854.45
2009/04/23 15:19:49.6    -193   -362     53    411    415 208.1   7.4  34154  289.46 0854.45
2009/04/23 15:19:49.8    -283   -331   -102    436    448 220.6 -13.3  34164  289.63 0854.45
2009/04/23 15:19:49.9    -305   -241    -31    389    391 231.7  -4.6  34158  289.54 0854.45
2009/04/23 15:19:50.0    -188     26    129    190    229 277.9  37.4  34152  289.45 0854.45
2009/04/23 15:19:50.1    -131    157    238    205    314 320.1  54.9  34168  289.70 0854.45
2009/04/23 15:19:50.2      82     64    201    105    226  51.8  70.4  34178  289.89 0854.45
2009/04/23 15:19:50.3     263     64    239    271    361  76.3  45.9  34170  289.74 0854.45
2009/04/23 15:19:50.4     409    -72    362    416    551 100.0  45.5  34184  289.98 0854.45
2009/04/23 15:19:50.5     388     41    236    391    456  83.9  33.8  34178  289.88 0854.45
2009/04/23 15:19:50.6     449    155     31    476    477  71.0   3.7  34224  290.66 0854.45
2009/04/23 15:19:50.7     221     60     98    230    250  74.9  24.6  34196  290.17 0854.45
2009/04/23 15:19:50.8     514    160    216    539    580  72.7  23.0  34192  290.13 0854.45
2009/04/23 15:19:50.9     447   -107    -65    460    465 103.6  -8.1  34160  289.56 0854.45
2009/04/23 15:19:51.0      57   -305    299    311    431 169.3  48.8  34144  289.30 0854.45
2009/04/23 15:19:51.1    -152   -305    240    341    416 206.5  38.6  34166  289.69 0854.45
2009/04/23 15:19:51.2    -156   -189    156    246    291 219.6  35.5  34164  289.64 0854.45
2009/04/23 15:19:51.3    -163   -173    182    238    299 223.3  41.4  34170  289.75 0854.45
2009/04/23 15:19:51.4     -96   -218    203    239    313 203.7  44.7  34154  289.47 0854.45
2009/04/23 15:19:51.5    -522   -412    344    666    749 231.7  29.5  34176  289.84 0854.45
2009/04/23 15:19:51.6    -391      6    101    392    405 271.0  14.5  34174  289.82 0854.45
2009/04/23 15:19:51.7    -527     86    -39    535    537 279.3  -4.2  34190  290.07 0854.45
2009/04/23 15:19:51.8    -545   -267    265    607    662 243.9  25.1  34152  289.45 0854.45
2009/04/23 15:19:51.9     267     85    327    281    431  72.2  54.9  34178  289.86 0854.45
2009/04/23 15:19:52.0    -341    393    341    521    622 319.0  36.3  34174  289.81 0854.45
2009/04/23 15:19:52.1    -346    275    113    443    458 308.5  14.4  34176  289.85 0854.47
2009/04/23 15:19:52.2    -178     91    231    201    306 297.1  54.3  34196  290.17 0854.47
2009/04/23 15:19:52.3      36     37    108     52    119  44.2  72.8  34196  290.18 0854.47
2009/04/23 15:19:52.4    -111     46     91    121    151 292.6  41.2  34218  290.55 0854.47
2009/04/23 15:19:52.5     -74   -126    181    147    233 210.7  56.4  34192  290.11 0854.47
2009/04/23 15:19:52.6      48     75    139     90    165  33.0  64.4  34170  289.75 0854.47
2009/04/23 15:19:52.7      68    -97    185    119    219 144.8  64.6  34174  289.80 0854.47
2009/04/23 15:19:52.8     -66    -65    216     93    235 225.6  75.3  34172  289.79 0854.47
2009/04/23 15:19:52.9      24    -14    102     29    106 120.7  84.4  34186  290.02 0854.47
2009/04/23 15:19:53.0     108     -4     -6    109    110  92.1  -3.1  34188  290.06 0854.47
2009/04/23 15:19:53.1      94    -42     18    104    106 114.4  10.1  34188  290.04 0854.47
2009/04/23 15:19:53.2     -64    -46     28     80     85 234.1  19.4  34190  290.09 0854.47
2009/04/23 15:19:53.3       9    -10      9     14     16 136.8  35.5  34190  290.09 0854.47
2009/04/23 15:19:53.4      46      9     93     47    104  78.5  70.8  34198  290.23 0854.47
2009/04/23 15:19:53.5     -13    -22    137     26    139 210.7  90.0  34196  290.18 0854.47
2009/04/23 15:19:53.6      18    106     65    108    126   9.8  34.0  34192  290.13 0854.47
2009/04/23 15:19:53.7      82     71    124    109    165  49.1  54.3  34210  290.41 0854.47
2009/04/23 15:19:53.8     169    232     96    288    304  36.1  18.4  34208  290.37 0854.47
2009/04/23 15:19:53.9     151    223    146    270    306  34.1  31.0  34220  290.59 0854.47
2009/04/23 15:19:54.0      70   -110    360    131    383 147.4  79.2  34208  290.39 0854.47
2009/04/23 15:19:54.1     115   -294    308    316    441 158.6  49.2  34170  289.73 0854.48
2009/04/23 15:19:54.2     242   -148    236    285    370 121.5  43.8  34166  289.69 0854.48
2009/04/23 15:19:54.3     329   -250    270    414    494 127.3  36.2  34164  289.64 0854.48
2009/04/23 15:19:54.4     152   -397    304    426    523 159.0  39.1  34162  289.59 0854.48
2009/04/23 15:19:54.5     122   -447    335    464    572 164.7  39.5  34156  289.50 0854.48
2009/04/23 15:19:54.6       7   -454    376    455    590 179.0  43.7  34158  289.55 0854.48
2009/04/23 15:19:54.7      93   -427    309    438    536 167.6  38.6  34166  289.69 0854.48
2009/04/23 15:19:54.8     169   -356    123    395    414 154.6  17.3  34158  289.55 0854.48
2009/04/23 15:19:54.9      51   -349     91    353    365 171.7  14.5  34154  289.47 0854.48
2009/04/23 15:19:55.0       3   -400    197    401    446 179.5  28.1  34160  289.56 0854.48
2009/04/23 15:19:55.1      52   -350    253    354    435 171.5  39.1  34160  289.58 0854.48
2009/04/23 15:19:55.2     -15   -552    162    553    577 181.6  16.4  34164  289.64 0854.48
2009/04/23 15:19:55.3     -79   -557     99    563    572 188.1  10.0  34156  289.52 0854.48
2009/04/23 15:19:55.4     -38   -504    176    506    536 184.4  19.2  34162  289.62 0854.48
2009/04/23 15:19:55.5     -15   -463    114    464    478 181.9  13.8  34152  289.42 0854.48
2009/04/23 15:19:55.6    -100   -509    396    519    652 191.1  41.1  34170  289.73 0854.48
2009/04/23 15:19:55.7      32   -389    354    391    527 175.2  46.9  34170  289.74 0854.48
2009/04/23 15:19:55.8     263   -534    171    596    621 153.7  16.0  34162  289.61 0854.48
2009/04/23 15:19:55.9     275   -557     49    622    625 153.7   4.6  34164  289.65 0854.48
2009/04/23 15:19:56.0     134   -531     -8    548    549 165.8  -0.9  34164  289.65 0854.48
2009/04/23 15:19:56.1     187   -443    283    482    558 157.1  33.0  34160  289.57 0854.47
2009/04/23 15:19:56.2     136   -608    333    624    707 167.4  30.3  34158  289.54 0854.47
2009/04/23 15:19:56.3     195   -705    184    732    755 164.5  14.2  34160  289.58 0854.47
2009/04/23 15:19:56.4     213   -656    213    690    723 162.0  17.2  34160  289.57 0854.47
2009/04/23 15:19:56.5     199   -608     65    640    644 161.9   5.8  34162  289.59 0854.47
2009/04/23 15:19:56.6     182   -586     46    614    616 162.7   4.3  34162  289.60 0854.47
2009/04/23 15:19:56.7     287   -380    -83    477    485 143.0  -9.9  34166  289.66 0854.47
2009/04/23 15:19:56.8     123   -234    -17    265    266 152.1  -3.7  34164  289.63 0854.47
2009/04/23 15:19:56.9      26   -242     29    244    246 173.8   6.9  34172  289.76 0854.47
2009/04/23 15:19:57.0    -184   -272     -6    329    330 214.1  -1.1  34166  289.69 0854.47
2009/04/23 15:19:57.1    -191   -359     42    407    410 208.1   5.9  34164  289.63 0854.47
2009/04/23 15:19:57.2    -186   -278     72    335    343 213.9  12.3  34172  289.77 0854.47
2009/04/23 15:19:57.3    -157   -196     62    252    260 218.7  13.9  34174  289.80 0854.47
2009/04/23 15:19:57.4    -292    -98    -89    309    322 251.4 -16.2  34162  289.59 0854.47
2009/04/23 15:19:57.5    -344    -18    101    345    360 267.0  16.3  34220  290.60 0854.47
2009/04/23 15:19:57.6    -224    209      6    307    308 313.1   1.2  34206  290.36 0854.47
2009/04/23 15:19:57.7    -160    262    121    307    329 328.6  22.7  34194  290.14 0854.47
2009/04/23 15:19:57.8    -320    -11    -21    321    322 267.9  -3.8  34162  289.61 0854.47
2009/04/23 15:19:57.9    -270   -151    -81    310    321 240.7 -14.7  34172  289.78 0854.47
2009/04/23 15:19:58.0    -161   -212     30    267    269 217.2   6.5  34186  290.02 0854.47
2009/04/23 15:19:58.1    -503   -407     20    648    649 231.0   1.8  34170  289.74 0854.47
2009/04/23 15:19:58.2    -472     58    -18    476    477 277.1  -2.2  34178  289.88 0854.47
2009/04/23 15:19:58.3    -625    -72   -184    630    656 263.4 -21.1  34142  289.26 0854.47
2009/04/23 15:19:58.4    -641   -298   -234    707    745 245.1 -18.3  34162  289.61 0854.47
2009/04/23 15:19:58.5    -571   -427   -211    714    745 233.2 -16.5  34158  289.55 0854.47
2009/04/23 15:19:58.6    -545   -575   -283    793    843 223.5 -19.7  34160  289.57 0854.47
2009/04/23 15:19:58.7    -590   -325   -189    674    701 241.1 -15.7  34150  289.41 0854.47
2009/04/23 15:19:58.8    -315   -254   -272    405    487 231.1 -41.5  34156  289.49 0854.47
2009/04/23 15:19:58.9    -205   -320   -245    381    452 212.6 -40.0  34148  289.38 0854.47
2009/04/23 15:19:59.0    -545   -207    -11    584    585 249.2  -1.2  34164  289.64 0854.47
2009/04/23 15:19:59.1    -346   -590   -121    684    695 210.4 -10.1  34150  289.41 0854.49
2009/04/23 15:19:59.2    -426   -509   -237    664    706 219.9 -19.7  34136  289.16 0854.49
2009/04/23 15:19:59.3    -387   -343   -277    518    587 228.4 -34.7  34144  289.29 0854.49
2009/04/23 15:19:59.4    -424    -33   -287    426    513 265.5 -41.7  34156  289.52 0854.49
2009/04/23 15:19:59.5    -437   -190    171    477    506 246.5  20.6  34186  290.01 0854.49
2009/04/23 15:19:59.6    -474   -249     26    536    537 242.3   2.8  34196  290.19 0854.49
2009/04/23 15:19:59.7    -547   -137   -210    564    601 255.9 -25.8  34144  289.29 0854.49
2009/04/23 15:19:59.8    -574   -188   -183    605    632 251.9 -21.7  34146  289.35 0854.49
2009/04/23 15:19:59.9    -512   -124   -226    527    573 256.3 -29.0  34150  289.40 0854.49
2009/04/23 15:20:00.0    -458    -35   -280    460    538 265.6 -38.7  34150  289.40 0854.49
2009/04/23 15:20:00.1    -514    -27   -180    515    545 267.0 -24.4  34152  289.43 0854.49
2009/04/23 15:20:00.2    -600    -29   -259    601    654 267.2 -29.3  34146  289.35 0854.49
2009/04/23 15:20:00.3    -524     81   -235    531    580 278.8 -30.0  34150  289.41 0854.49
2009/04/23 15:20:00.4    -449    143   -256    472    536 287.7 -35.3  34150  289.40 0854.49
2009/04/23 15:20:00.5    -424     31   -200    426    470 274.3 -31.5  34150  289.39 0854.49
2009/04/23 15:20:00.6    -345     38   -192    348    397 276.4 -35.8  34146  289.35 0854.49
2009/04/23 15:20:00.7    -350     45   -120    353    372 277.5 -23.6  34150  289.40 0854.49
2009/04/23 15:20:00.8    -374    206   -141    428    450 298.9 -23.6  34150  289.41 0854.49
2009/04/23 15:20:00.9    -420    -27   -129    421    440 266.3 -22.1  34158  289.55 0854.49
2009/04/23 15:20:01.0    -354    141   -107    382    396 291.7 -20.3  34156  289.50 0854.49
2009/04/23 15:20:01.1    -330     24     -8    331    332 274.3  -1.4  34152  289.42 0854.47
2009/04/23 15:20:01.2    -235    -95      7    254    255 247.8   1.8  34166  289.68 0854.47
2009/04/23 15:20:01.3    -148   -102    -74    180    194 235.4 -28.0  34162  289.60 0854.47
2009/04/23 15:20:01.4    -195     47   -115    201    231 283.7 -37.1  34164  289.65 0854.47
2009/04/23 15:20:01.5    -310    -38    -95    313    328 262.9 -16.9  34172  289.76 0854.47
2009/04/23 15:20:01.6    -236     -5   -130    237    270 268.7 -35.7  34178  289.86 0854.47
2009/04/23 15:20:01.7    -119     39    -59    126    139 288.2 -31.5  34180  289.91 0854.47
2009/04/23 15:20:01.8    -105     14    -46    106    115 277.9 -29.5  34184  289.97 0854.47
2009/04/23 15:20:01.9    -100     63   -151    119    192 302.5 -61.9  34172  289.77 0854.47
2009/04/23 15:20:02.0    -140     28    -88    143    167 281.5 -39.2  34170  289.74 0854.47
2009/04/23 15:20:02.1    -112    -87    -79    142    162 232.2 -35.8  34174  289.80 0854.47
2009/04/23 15:20:02.2     -50      5     39     51     64 276.1  40.7  34168  289.72 0854.47
2009/04/23 15:20:02.3      40    247     67    251    260   9.3  15.0  34168  289.71 0854.47
2009/04/23 15:20:02.4      47    186     27    192    194  14.3   8.0  34170  289.74 0854.47
2009/04/23 15:20:02.5      50    231    -26    237    239  12.3  -6.5  34168  289.70 0854.47
2009/04/23 15:20:02.6      64    214     -8    224    225  16.7  -2.2  34164  289.65 0854.47
2009/04/23 15:20:02.7      96    307    -15    322    323  17.4  -2.8  34170  289.75 0854.47
2009/04/23 15:20:02.8     -45    172    120    178    214 345.3  37.4  34172  289.77 0854.47
2009/04/23 15:20:02.9     -82     -3    114     83    141 267.4  60.5  34184  289.97 0854.47
2009/04/23 15:20:03.0     -12    -19    144     23    145 212.5  90.0  34188  290.06 0854.47
2009/04/23 15:20:03.1      24     65     23     70     74  20.9  18.4  34192  290.13 0854.46
2009/04/23 15:20:03.2     -49   -258     13    263    264 190.9   2.9  34176  289.83 0854.46
2009/04/23 15:20:03.3    -107   -351     53    368    372 196.9   8.2  34172  289.76 0854.46
2009/04/23 15:20:03.4    -144   -367     79    395    403 201.4  11.3  34192  290.10 0854.46
2009/04/23 15:20:03.5    -240   -329    -22    408    409 216.1  -3.2  34190  290.09 0854.46
2009/04/23 15:20:03.6    -205   -254    -64    327    334 219.0 -11.2  34190  290.08 0854.46
2009/04/23 15:20:03.7    -203   -121    -67    237    246 239.1 -20.7  34194  290.15 0854.46
2009/04/23 15:20:03.8     -47   -230    -26    235    237 191.6  -6.5  34186  290.02 0854.46
2009/04/23 15:20:03.9     -94   -275     -6    291    292 198.9  -1.3  34180  289.90 0854.46
2009/04/23 15:20:04.0    -115   -347    -35    366    368 198.5  -5.6  34174  289.81 0854.46
2009/04/23 15:20:04.1     -87   -473     45    482    485 190.5   5.4  34170  289.74 0854.46
2009/04/23 15:20:04.2    -125   -455     17    472    473 195.4   2.1  34172  289.79 0854.46
2009/04/23 15:20:04.3    -170   -526     -2    553    554 197.9  -0.3  34176  289.85 0854.46
2009/04/23 15:20:04.4    -163   -526     42    551    553 197.3   4.4  34204  290.33 0854.46
2009/04/23 15:20:04.5     -78   -578    -69    584    589 187.7  -6.8  34186  290.00 0854.46
2009/04/23 15:20:04.6      -8   -437     -2    438    439 181.2  -0.3  34176  289.85 0854.46
2009/04/23 15:20:04.7      -5   -461    179    462    495 180.7  22.3  34202  290.27 0854.46
2009/04/23 15:20:04.8      60   -416    123    421    439 171.8  16.3  34186  290.00 0854.46
2009/04/23 15:20:04.9     128   -337     67    361    368 159.1  10.6  34188  290.06 0854.46
2009/04/23 15:20:05.0     189   -259    202    321    379 143.9  35.5  34192  290.13 0854.46
2009/04/23 15:20:05.1     203   -286    152    351    382 144.6  25.0  34210  290.42 0854.46
2009/04/23 15:20:05.2     229   -317     24    392    393 144.1   3.6  34178  289.89 0854.46
2009/04/23 15:20:05.3     -13   -336    -31    337    339 182.2  -5.3  34182  289.96 0854.46
2009/04/23 15:20:05.4    -176    -97   -130    202    240 241.1 -40.1  34184  289.97 0854.46
2009/04/23 15:20:05.5    -126   -114   -122    171    210 227.8 -43.5  34174  289.80 0854.46
2009/04/23 15:20:05.6     -14   -160      9    161    162 185.3   3.3  34178  289.87 0854.46
2009/04/23 15:20:05.7     -35   -249    -69    252    262 188.0 -15.4  34170  289.75 0854.46
2009/04/23 15:20:05.8    -249   -163     -6    298    299 236.7  -1.3  34180  289.92 0854.46
2009/04/23 15:20:05.9    -271     -8    -64    272    280 268.3 -13.4  34184  289.97 0854.46
2009/04/23 15:20:06.0    -256   -163    139    304    334 237.4  26.3  34182  289.95 0854.46
2009/04/23 15:20:06.1    -279   -402     95    490    500 214.7  11.0  34182  289.95 0854.46
2009/04/23 15:20:06.2    -348   -349    121    494    509 224.9  13.8  34188  290.05 0854.46
2009/04/23 15:20:06.3    -196   -402     83    448    456 206.0  10.6  34174  289.80 0854.46
2009/04/23 15:20:06.4    -179   -458   -103    492    503 201.4 -11.9  34162  289.61 0854.46
2009/04/23 15:20:06.5    -326   -456   -152    561    582 215.6 -15.2  34180  289.91 0854.46
2009/04/23 15:20:06.6    -227   -442   -101    497    508 207.2 -11.6  34182  289.96 0854.46
2009/04/23 15:20:06.7    -302   -307    -23    431    432 224.5  -3.2  34174  289.80 0854.46
2009/04/23 15:20:06.8    -161   -509    -55    534    537 197.6  -6.0  34154  289.48 0854.46
2009/04/23 15:20:06.9    -137   -502   -147    521    542 195.3 -15.8  34166  289.68 0854.46
2009/04/23 15:20:07.0    -245    -15   -124    246    275 266.5 -33.5  34172  289.78 0854.46
2009/04/23 15:20:07.1    -391   -117   -202    409    456 253.3 -32.6  34166  289.66 0854.39
2009/04/23 15:20:07.2    -187   -208    -66    280    288 221.9 -13.4  34184  289.98 0854.39
2009/04/23 15:20:07.3     -40   -259   -125    263    291 188.9 -31.6  34188  290.05 0854.39
2009/04/23 15:20:07.4      16    -92     59     94    110 169.8  35.5  34178  289.87 0854.39
2009/04/23 15:20:07.5     -55    -18     28     58     64 251.6  27.3  34186  290.01 0854.39
2009/04/23 15:20:07.6      10     31     17     33     37  18.7  29.3  34182  289.94 0854.39
2009/04/23 15:20:07.7      11     -1   -137     12    137  97.9 -90.0  34190  290.08 0854.39
2009/04/23 15:20:07.8      18     10    -90     21     92  59.3 -90.0  34182  289.94 0854.39
2009/04/23 15:20:07.9       9    -32     60     34     68 163.1  67.7  34190  290.08 0854.39
2009/04/23 15:20:08.0     -32   -133    152    137    204 193.8  53.5  34190  290.08 0854.39
2009/04/23 15:20:08.1     -94   -300     94    315    329 197.4  16.7  34182  289.93 0854.39
2009/04/23 15:20:08.2    -256   -319     12    410    411 218.8   1.7  34188  290.05 0854.39
2009/04/23 15:20:08.3    -311   -330    -33    454    456 223.3  -4.2  34176  289.85 0854.39
2009/04/23 15:20:08.4    -245   -468     28    529    530 207.7   3.1  34178  289.89 0854.39
2009/04/23 15:20:08.5      16   -429    184    430    467 177.8  24.6  34180  289.90 0854.39
2009/04/23 15:20:08.6     -44   -454     43    457    460 185.6   5.5  34174  289.80 0854.39
2009/04/23 15:20:08.7    -150   -523     -6    545    546 196.1  -0.7  34180  289.90 0854.39
2009/04/23 15:20:08.8    -397   -598   -128    719    731 213.6 -10.1  34174  289.81 0854.39
2009/04/23 15:20:08.9    -225   -645     38    684    686 199.3   3.2  34176  289.85 0854.39
2009/04/23 15:20:09.0    -330   -557   -100    648    656 210.7  -8.8  34182  289.94 0854.39
2009/04/23 15:20:09.1    -447   -433    -28    623    624 225.9  -2.6  34208  290.37 0854.32
2009/04/23 15:20:09.2    -367   -457   -101    587    596 218.8  -9.8  34202  290.29 0854.32
2009/04/23 15:20:09.3    -309   -532   -161    616    637 210.1 -14.7  34202  290.30 0854.32
2009/04/23 15:20:09.4    -155   -458   -173    484    513 198.7 -24.8  34202  290.29 0854.32
2009/04/23 15:20:09.5      21   -540      2    541    542 177.8   0.2  34182  289.94 0854.32
2009/04/23 15:20:09.6    -118   -426   -119    443    459 195.5 -15.1  34214  290.50 0854.32
2009/04/23 15:20:09.7     -50   -601    115    604    615 184.8  10.8  34154  289.47 0854.32
2009/04/23 15:20:09.8    -120   -534    193    548    582 192.7  19.4  34172  289.78 0854.32
2009/04/23 15:20:09.9     -71   -623    225    628    667 186.6  20.7  34166  289.67 0854.32
2009/04/23 15:20:10.0    -126   -531    117    546    559 193.4  12.2  34172  289.77 0854.32
2009/04/23 15:20:10.1    -228   -583     46    627    629 201.4   4.2  34186  290.01 0854.32
2009/04/23 15:20:10.2    -251   -499     -5    559    560 206.7  -0.6  34182  289.96 0854.32
2009/04/23 15:20:10.3    -250   -479    106    541    552 207.6  11.1  34188  290.04 0854.32
2009/04/23 15:20:10.4    -109   -540    261    551    609 191.5  27.2  34208  290.39 0854.32
2009/04/23 15:20:10.5     -56   -403    354    408    540 188.0  45.4  34180  289.91 0854.32
2009/04/23 15:20:10.6     -67   -472    354    477    594 188.1  40.2  34184  289.97 0854.32
2009/04/23 15:20:10.7    -149   -539    300    560    635 195.5  30.5  34184  289.98 0854.32
2009/04/23 15:20:10.8    -202   -438    217    483    529 204.8  25.8  34176  289.84 0854.32
2009/04/23 15:20:10.9     -94   -602    111    610    621 188.9  10.4  34166  289.67 0854.32
2009/04/23 15:20:11.0     -59   -633    113    636    647 185.4  10.1  34174  289.81 0854.28
2009/04/23 15:20:11.1    -179   -529    208    559    596 198.7  21.3  34190  290.07 0854.28
2009/04/23 15:20:11.2    -148   -363    137    393    417 202.2  19.3  34198  290.21 0854.28
2009/04/23 15:20:11.3     -51   -260    200    266    332 191.1  40.8  34178  289.86 0854.28
2009/04/23 15:20:11.4     -60   -198    266    208    337 196.9  58.0  34176  289.85 0854.28
2009/04/23 15:20:11.5       3   -236    279    237    366 179.1  55.5  34202  290.30 0854.28
2009/04/23 15:20:11.6     122   -124    220    174    280 135.5  57.7  34210  290.42 0854.28
2009/04/23 15:20:11.7      82   -171    206    190    280 154.4  52.5  34220  290.58 0854.28
2009/04/23 15:20:11.8      57   -214    178    222    284 164.9  43.0  34238  290.88 0854.28
2009/04/23 15:20:11.9     149    -82    278    171    326 118.9  65.6  34234  290.83 0854.28
2009/04/23 15:20:12.0      38    -96    250    104    270 158.1  76.1  34238  290.89 0854.28
2009/04/23 15:20:12.1      94   -162    136    188    232 149.9  39.5  34220  290.60 0854.28
2009/04/23 15:20:12.2     218     -3    106    219    243  90.8  27.8  34238  290.90 0854.28
2009/04/23 15:20:12.3      50     48    106     70    127  45.9  63.6  34246  291.03 0854.28
2009/04/23 15:20:12.4     166    -81    157    185    242 116.0  44.8  34196  290.19 0854.28
2009/04/23 15:20:12.5      -8     26    109     28    112 341.7  85.4  34210  290.43 0854.28
2009/04/23 15:20:12.6       8      3    104      9    104  64.7  90.0  34214  290.48 0854.28
2009/04/23 15:20:12.7     -82    -38    150     91    175 244.7  65.7  34206  290.36 0854.28
2009/04/23 15:20:12.8     -11    -97    226     98    246 186.7  75.0  34192  290.13 0854.28
2009/04/23 15:20:12.9       7   -100    236    101    256 175.5  75.9  34190  290.09 0854.28
2009/04/23 15:20:13.0     -30    -18    223     36    225 239.3  90.0  34190  290.09 0854.22
2009/04/23 15:20:13.1      29   -181    237    184    300 170.7  58.4  34180  289.92 0854.22
2009/04/23 15:20:13.2     138   -135    106    194    221 134.4  31.3  34180  289.91 0854.22
2009/04/23 15:20:13.3     117    -91    140    149    204 127.8  48.2  34192  290.11 0854.22
2009/04/23 15:20:13.4      55   -157    123    167    207 160.6  39.9  34198  290.23 0854.22
2009/04/23 15:20:13.5    -238   -217    -12    323    324 227.6  -2.2  34176  289.85 0854.22
2009/04/23 15:20:13.6    -249    -83    -11    263    264 251.6  -2.6  34162  289.59 0854.22
2009/04/23 15:20:13.7    -196    -39    -13    200    201 258.5  -3.7  34156  289.50 0854.22
2009/04/23 15:20:13.8     -99    -57     42    115    122 239.8  20.9  34158  289.55 0854.22
2009/04/23 15:20:13.9     -45    -24     29     52     59 242.0  31.4  34152  289.45 0854.22
2009/04/23 15:20:14.0     -78      7     36     79     86 275.2  25.7  34156  289.52 0854.22
2009/04/23 15:20:14.1     -56     63     47     85     97 318.1  31.9  34168  289.70 0854.22
2009/04/23 15:20:14.2     -55     57     33     80     86 315.8  23.0  34174  289.80 0854.22
2009/04/23 15:20:14.3     -18     92     72     94    118 348.4  41.6  34190  290.08 0854.22
2009/04/23 15:20:14.4     -59    151     63    163    174 338.6  21.7  34186  290.02 0854.22
2009/04/23 15:20:14.5     -59    124     48    138    147 334.5  19.4  34220  290.58 0854.22
2009/04/23 15:20:14.6     -93     68     43    116    123 306.4  21.0  34232  290.81 0854.22
2009/04/23 15:20:14.7     -82      6     28     83     88 274.3  19.2  34218  290.57 0854.22
2009/04/23 15:20:14.8    -126     51   -107    137    173 292.2 -46.6  34212  290.47 0854.22
2009/04/23 15:20:14.9     -68     80    -90    106    139 319.5 -48.7  34190  290.08 0854.22
2009/04/23 15:20:15.0      32    131     15    135    136  13.8   6.5  34200  290.26 0854.27
2009/04/23 15:20:15.1      74     62    106     97    143  50.0  52.2  34206  290.36 0854.27
2009/04/23 15:20:15.2      46    -19    102     50    113 112.6  72.4  34210  290.41 0854.27
2009/04/23 15:20:15.3     -52    -33     96     62    114 237.6  64.6  34216  290.53 0854.27
2009/04/23 15:20:15.4     -92    -73    103    118    156 231.8  45.8  34206  290.36 0854.27
2009/04/23 15:20:15.5     -92     61     47    111    120 303.7  24.6  34204  290.31 0854.27
2009/04/23 15:20:15.6     -49      9     99     50    110 281.5  71.9  34202  290.28 0854.27
2009/04/23 15:20:15.7      16    -92     96     94    134 169.8  50.1  34190  290.09 0854.27
2009/04/23 15:20:15.8       5   -174     11    175    176 178.2   3.6  34190  290.08 0854.27
2009/04/23 15:20:16.0     155    -79    115    175    209 117.1  36.3  34206  290.35 0854.27
2009/04/23 15:20:16.1      28    -44    119     53    130 147.5  74.5  34234  290.82 0854.27
2009/04/23 15:20:16.2      -1    -96    100     97    139 180.9  50.7  34230  290.77 0854.27
2009/04/23 15:20:16.2      24     -4     68     25     72  99.7  80.2  34236  290.87 0854.27
2009/04/23 15:20:16.4     -58    -23     40     63     74 248.3  35.5  34232  290.81 0854.27
2009/04/23 15:20:16.4     -41     -5     25     42     48 263.0  34.4  34218  290.55 0854.27
2009/04/23 15:20:16.6    -107      0     64    108    125 270.4  33.5  34216  290.53 0854.27
2009/04/23 15:20:16.7    -173    -35    113    177    209 258.5  35.6  34224  290.65 0854.27
2009/04/23 15:20:16.8    -184    -50    110    191    220 254.7  32.4  34206  290.35 0854.27
2009/04/23 15:20:16.9     -55   -106     10    120    121 207.6   4.9  34214  290.48 0854.27
2009/04/23 15:20:17.0       7   -154    167    155    227 177.4  52.2  34210  290.41 0854.27
2009/04/23 15:20:17.1    -147   -197    114    246    271 216.7  27.0  34184  289.97 0854.30
2009/04/23 15:20:17.2    -227   -176     67    288    296 232.2  13.2  34180  289.92 0854.30
2009/04/23 15:20:17.3    -177   -188    102    259    278 223.2  22.8  34178  289.86 0854.30
2009/04/23 15:20:17.4    -216   -168     84    274    287 232.2  17.1  34176  289.85 0854.30
2009/04/23 15:20:17.5    -165   -138    116    216    245 230.0  30.3  34188  290.03 0854.30
2009/04/23 15:20:17.6    -125   -117     98    172    197 226.7  32.4  34198  290.23 0854.30
2009/04/23 15:20:17.7    -113   -134     94    176    199 220.3  30.6  34202  290.28 0854.30
2009/04/23 15:20:17.8    -170   -123     76    211    224 234.0  20.4  34194  290.16 0854.30
2009/04/23 15:20:17.9    -113   -106     90    156    180 226.9  32.7  34194  290.16 0854.30
2009/04/23 15:20:18.0    -112   -219     77    247    259 207.2  17.3  34190  290.07 0854.30
2009/04/23 15:20:18.1      42   -169    150    175    230 166.0  44.8  34168  289.72 0854.29
2009/04/23 15:20:18.2    -125   -338    172    361    399 200.4  27.3  34172  289.77 0854.29
2009/04/23 15:20:18.3     -38   -365     -1    368    369 186.1  -0.3  34172  289.79 0854.29
2009/04/23 15:20:18.4       0   -264     77    265    277 179.9  16.3  34172  289.78 0854.29
2009/04/23 15:20:18.5     -26   -186     16    188    189 188.0   4.9  34174  289.80 0854.29
2009/04/23 15:20:18.6    -107   -189    -43    218    223 209.6 -11.3  34172  289.77 0854.29
2009/04/23 15:20:18.7     -59   -178   -112    188    218 198.3 -37.9  34176  289.85 0854.29
2009/04/23 15:20:18.8      65   -168    -86    181    200 158.8 -31.6  34178  289.89 0854.29
2009/04/23 15:20:18.9      98   -127    -19    161    163 142.2  -6.9  34172  289.77 0854.29
2009/04/23 15:20:19.0     -69   -117     41    137    144 210.7  16.8  34172  289.79 0854.29
2009/04/23 15:20:19.1    -185   -134     11    229    230 234.1   2.8  34180  289.92 0854.29
2009/04/23 15:20:19.2    -331     15     41    332    335 272.6   7.1  34180  289.91 0854.29
2009/04/23 15:20:19.3    -351    102      0    366    367 286.2   0.1  34198  290.21 0854.29
2009/04/23 15:20:19.4    -355    125     59    377    382 289.5   9.0  34204  290.33 0854.29
2009/04/23 15:20:19.5    -378     28      1    379    380 274.3   0.2  34204  290.32 0854.29
2009/04/23 15:20:19.6    -277     18    122    278    303 273.9  25.2  34196  290.19 0854.29
2009/04/23 15:20:19.7    -240     45     89    245    260 280.6  20.7  34178  289.88 0854.29
2009/04/23 15:20:19.8     -32   -213    212    216    302 188.7  49.9  34174  289.81 0854.29
2009/04/23 15:20:19.9      55    -77    179     95    202 144.4  69.8  34182  289.94 0854.29
2009/04/23 15:20:20.0      16   -165    248    166    298 174.4  62.8  34172  289.76 0854.29
2009/04/23 15:20:20.1     -21   -417    312    418    521 182.9  40.6  34178  289.89 0854.31
2009/04/23 15:20:20.2      42   -450    240    453    512 174.6  30.2  34178  289.86 0854.31
2009/04/23 15:20:20.3       5   -347    176    348    389 179.1  29.2  34188  290.06 0854.31
2009/04/23 15:20:20.4     120   -278    254    303    395 156.6  44.3  34184  289.98 0854.31
2009/04/23 15:20:20.5      93   -187    157    209    261 153.5  40.6  34186  290.00 0854.31
2009/04/23 15:20:20.6      29   -316    178    318    364 174.7  31.7  34198  290.23 0854.31
2009/04/23 15:20:20.7      69   -265    133    274    304 165.3  27.3  34180  289.92 0854.31
2009/04/23 15:20:20.8      48    -68    162     84    182 144.8  70.4  34200  290.26 0854.31
2009/04/23 15:20:20.9      -4    -97     90     98    133 182.7  47.9  34192  290.11 0854.31
2009/04/23 15:20:21.0     -19   -152    158    154    220 187.1  50.7  34188  290.06 0854.31
2009/04/23 15:20:21.1     -16   -323    239    324    402 182.9  40.1  34182  289.94 0854.31
2009/04/23 15:20:21.2      63   -372    282    378    471 170.3  40.6  34186  290.02 0854.31
2009/04/23 15:20:21.3      47   -414    289    417    507 173.4  38.0  34182  289.95 0854.31
2009/04/23 15:20:21.4     -13   -506    194    507    542 181.5  22.0  34184  289.99 0854.31
2009/04/23 15:20:21.5     213   -532    -26    574    575 158.2  -2.6  34166  289.69 0854.31
2009/04/23 15:20:21.6     154   -595    -33    615    616 165.5  -3.1  34178  289.89 0854.31
2009/04/23 15:20:21.7     197   -587     52    620    623 161.4   4.9  34182  289.96 0854.31
2009/04/23 15:20:21.8     116   -575     88    587    594 168.5   8.6  34188  290.05 0854.31
2009/04/23 15:20:21.9     159   -654     87    673    679 166.3   7.4  34184  289.99 0854.31
2009/04/23 15:20:22.0       0   -552    119    553    566 180.0  12.2  34184  289.97 0854.31
2009/04/23 15:20:22.1       8   -464    102    465    477 179.0  12.4  34178  289.89 0854.32
2009/04/23 15:20:22.2      59   -420     32    425    427 171.9   4.3  34190  290.09 0854.32
2009/04/23 15:20:22.3      65   -378     10    384    385 170.2   1.5  34178  289.89 0854.32
2009/04/23 15:20:22.4     106   -447    139    460    481 166.6  16.8  34184  289.98 0854.32
2009/04/23 15:20:22.5      11   -351    148    352    381 178.1  24.2  34182  289.96 0854.32
2009/04/23 15:20:22.6     -52   -316    111    321    340 189.3  19.1  34182  289.94 0854.32
2009/04/23 15:20:22.7    -119   -468    209    484    527 194.3  24.9  34180  289.91 0854.32
2009/04/23 15:20:22.8     -51   -524    206    527    565 185.6  22.5  34178  289.89 0854.32
2009/04/23 15:20:22.9     -21   -435    224    436    490 182.8  29.3  34182  289.95 0854.32
2009/04/23 15:20:23.0       0   -515    225    516    562 180.0  25.1  34176  289.84 0854.32
2009/04/23 15:20:23.1      41   -608    248    610    658 176.1  23.4  34168  289.70 0854.32
2009/04/23 15:20:23.2      64   -404    -38    410    412 170.9  -5.3  34176  289.85 0854.32
2009/04/23 15:20:23.3     219   -524    -87    569    576 157.3  -8.7  34172  289.76 0854.32
2009/04/23 15:20:23.4     269   -718   -129    768    779 159.4  -9.6  34164  289.64 0854.32
2009/04/23 15:20:23.5     150   -514   -114    536    549 163.7 -12.0  34164  289.65 0854.32
2009/04/23 15:20:23.6     164   -521   -191    547    579 162.5 -24.4  34152  289.44 0854.32
2009/04/23 15:20:23.7     201   -539   -140    576    593 159.5 -13.7  34160  289.58 0854.32
2009/04/23 15:20:23.8     243   -497    -80    554    560 153.9  -8.3  34162  289.60 0854.32
2009/04/23 15:20:23.9     199   -422   -115    467    482 154.7 -13.9  34160  289.56 0854.32
2009/04/23 15:20:24.0     248   -474     -2    535    536 152.4  -0.3  34172  289.79 0854.32
2009/04/23 15:20:24.1     315   -527    -22    615    616 149.1  -2.1  34172  289.76 0854.25
2009/04/23 15:20:24.2     310   -462    -21    557    558 146.1  -2.2  34160  289.58 0854.25
2009/04/23 15:20:24.3     327   -448     28    555    556 143.9   2.9  34166  289.67 0854.25
2009/04/23 15:20:24.4     383   -389      7    547    548 135.5   0.8  34162  289.60 0854.25
2009/04/23 15:20:24.5     308   -349     69    466    472 138.6   8.5  34164  289.64 0854.25
2009/04/23 15:20:24.6     310   -327    108    451    464 136.6  13.5  34164  289.65 0854.25
2009/04/23 15:20:24.7     251   -352     21    433    434 144.5   2.8  34160  289.56 0854.25
2009/04/23 15:20:24.8     180   -346    -59    391    396 152.5  -8.6  34152  289.43 0854.25
2009/04/23 15:20:24.9     234   -268      4    357    358 138.9   0.7  34160  289.57 0854.25
2009/04/23 15:20:25.0     132   -396     39    418    420 161.5   5.5  34170  289.75 0854.25
2009/04/23 15:20:25.1     165   -234     34    287    290 144.8   6.9  34172  289.76 0854.25
2009/04/23 15:20:25.2     153   -218     57    267    274 144.9  12.2  34172  289.78 0854.25
2009/04/23 15:20:25.3     248   -249    109    352    369 135.2  17.3  34168  289.71 0854.25
2009/04/23 15:20:25.4     219   -154     94    268    285 125.1  19.4  34168  289.71 0854.25
2009/04/23 15:20:25.5     274   -208     -4    345    346 127.2  -0.7  34168  289.71 0854.25
2009/04/23 15:20:25.6     250   -240    -16    347    348 133.8  -2.7  34168  289.71 0854.25
2009/04/23 15:20:25.7     242   -292    -20    380    381 140.4  -3.1  34178  289.89 0854.25
2009/04/23 15:20:25.8     200   -335     -7    391    392 149.1  -1.2  34166  289.69 0854.25
2009/04/23 15:20:25.9     148   -303    169    338    377 153.9  28.6  34168  289.71 0854.25
2009/04/23 15:20:26.0     157   -357     69    391    398 156.3  10.1  34162  289.59 0854.25
2009/04/23 15:20:26.1     208   -429     47    477    480 154.1   5.7  34162  289.62 0854.30
2009/04/23 15:20:26.2     179   -448    100    483    494 158.2  11.8  34164  289.64 0854.30
2009/04/23 15:20:26.3     155   -293    120    332    353 152.0  20.9  34164  289.64 0854.30
2009/04/23 15:20:26.4     259   -354    173    440    472 143.8  22.5  34164  289.65 0854.30
2009/04/23 15:20:26.5     324   -313     84    451    459 134.0  10.6  34172  289.78 0854.30
2009/04/23 15:20:26.6     290   -264     12    393    394 132.3   1.8  34188  290.03 0854.30
2009/04/23 15:20:26.7     286   -252     82    382    391 131.4  12.2  34172  289.79 0854.30
2009/04/23 15:20:26.8     239   -227     51    330    335 133.5   8.9  34172  289.76 0854.30
2009/04/23 15:20:26.9     210   -267      5    341    342 141.8   1.0  34172  289.79 0854.30
2009/04/23 15:20:27.0     242   -320    -28    402    403 142.9  -4.1  34182  289.94 0854.30
2009/04/23 15:20:27.1     148   -372    -15    401    402 158.3  -2.2  34168  289.72 0854.30
2009/04/23 15:20:27.2      43   -468    161    471    498 174.7  18.9  34174  289.81 0854.30
2009/04/23 15:20:27.3     194   -269     63    332    339 144.2  10.8  34172  289.79 0854.30
2009/04/23 15:20:27.4     114   -159     81    196    212 144.4  23.6  34174  289.80 0854.30
2009/04/23 15:20:27.5      91   -228     53    246    252 158.2  12.2  34172  289.76 0854.30
2009/04/23 15:20:27.6     150   -471    113    495    508 162.3  12.9  34180  289.91 0854.30
2009/04/23 15:20:27.7     116   -416    156    432    459 164.4  20.8  34180  289.92 0854.30
2009/04/23 15:20:27.8     127   -418    131    438    458 163.1  16.7  34174  289.82 0854.30
2009/04/23 15:20:27.9     278   -434    191    516    550 147.3  21.3  34166  289.68 0854.30
2009/04/23 15:20:28.0     284   -446     94    529    538 147.5  10.1  34172  289.79 0854.30
2009/04/23 15:20:28.1     128   -117    -71    174    187 132.4 -27.5  34182  289.96 0854.33
2009/04/23 15:20:28.2     182   -194    -73    267    278 136.8 -15.4  34184  289.97 0854.33
2009/04/23 15:20:28.3     168   -247    -83    299    311 145.7 -15.5  34182  289.95 0854.33
2009/04/23 15:20:28.4     152   -235    -64    281    289 147.0 -12.9  34176  289.83 0854.33
2009/04/23 15:20:28.5      85   -186   -102    205    228 155.3 -32.6  34184  289.97 0854.33
2009/04/23 15:20:28.6     126   -344     -2    367    368 159.8  -0.4  34180  289.91 0854.33
2009/04/23 15:20:28.7      54   -314    -90    319    332 170.1 -15.9  34182  289.93 0854.33
2009/04/23 15:20:28.8     127   -259    -83    289    300 153.7 -20.7  34190  290.07 0854.33
2009/04/23 15:20:28.9     107   -192    -46    220    225 150.8 -11.9  34184  289.97 0854.33
2009/04/23 15:20:29.0     189   -210    -25    283    285 138.1  -5.2  34190  290.07 0854.33
2009/04/23 15:20:29.1     178   -207    -37    274    277 139.4  -7.7  34188  290.05 0854.33
2009/04/23 15:20:29.2     110   -323    -40    342    345 161.2  -6.8  34180  289.91 0854.33
2009/04/23 15:20:29.3      83   -236     -9    251    252 160.6  -2.2  34184  289.97 0854.33
2009/04/23 15:20:29.4      33   -217    -75    220    232 171.3 -23.3  34188  290.04 0854.33
2009/04/23 15:20:29.5      39   -313    -17    316    317 172.9  -3.2  34196  290.19 0854.33
2009/04/23 15:20:29.6     -34   -314    -15    316    317 186.2  -2.8  34214  290.49 0854.33
2009/04/23 15:20:29.7     -48   -307     32    311    313 188.9   5.9  34204  290.32 0854.33
2009/04/23 15:20:29.8     -25   -235     20    237    238 186.3   4.9  34196  290.19 0854.33
2009/04/23 15:20:29.9     145   -204    -72    251    262 144.6 -16.0  34210  290.41 0854.33
2009/04/23 15:20:30.0     103    -97   -104    142    176 133.1 -44.3  34214  290.48 0854.33
2009/04/23 15:20:30.1      41    -57    -78     71    105 144.0 -57.1  34218  290.55 0854.36
2009/04/23 15:20:30.2      61    -84    -63    104    121 143.9 -38.4  34216  290.52 0854.36
2009/04/23 15:20:30.3      74    -75    -72    106    128 135.5 -42.0  34216  290.52 0854.36
2009/04/23 15:20:30.4      59   -105   -116    121    167 150.6 -53.4  34204  290.31 0854.36
2009/04/23 15:20:30.5     -28    -27   -107     40    114 226.0 -84.1  34214  290.48 0854.36
2009/04/23 15:20:30.6     -45    -55    -91     72    116 219.6 -61.9  34216  290.52 0854.36
2009/04/23 15:20:30.7     -42   -105    -79    114    138 201.9 -42.4  34208  290.40 0854.36
2009/04/23 15:20:30.8     -46    -64    -59     80     99 216.0 -44.1  34210  290.43 0854.36
2009/04/23 15:20:30.9       0    -43    -56     44     71 180.9 -60.8  34208  290.40 0854.36
2009/04/23 15:20:31.0      16    -36    -68     40     78 156.4 -71.2  34214  290.48 0854.36
2009/04/23 15:20:31.1      29    -43    -72     53     89 145.7 -64.4  34210  290.43 0854.36
2009/04/23 15:20:31.2      78     -6    -46     79     91  94.4 -37.3  34204  290.31 0854.36
2009/04/23 15:20:31.3     110     -1    -55    111    123  90.9 -33.1  34198  290.23 0854.36
2009/04/23 15:20:31.4     157      0    -14    158    159  90.0  -5.4  34196  290.18 0854.36
2009/04/23 15:20:31.5     164     20    -16    166    167  82.8  -5.6  34194  290.14 0854.36
2009/04/23 15:20:31.6     121      9     43    122    130  85.7  19.4  34202  290.30 0854.36
2009/04/23 15:20:31.7      87    -34    -50     94    106 111.7 -35.2  34202  290.30 0854.36
2009/04/23 15:20:31.8      86     -7    -91     87    125  95.2 -55.6  34200  290.26 0854.36
2009/04/23 15:20:31.9      88    -17    -36     90     96 101.0 -26.9  34202  290.30 0854.36
2009/04/23 15:20:32.0      74    -69    -43    102    110 133.1 -28.5  34204  290.31 0854.36
2009/04/23 15:20:32.1      38    -95    -64    103    121 158.1 -39.4  34204  290.31 0854.37
2009/04/23 15:20:32.2      47   -120    -42    129    135 158.6 -23.8  34202  290.30 0854.37
2009/04/23 15:20:32.3      67   -133    -99    150    179 153.3 -40.9  34202  290.28 0854.37
2009/04/23 15:20:32.4      95    -79   -107    124    163 129.6 -50.0  34204  290.33 0854.37
2009/04/23 15:20:32.5      84    -86    -69    121    139 135.5 -36.3  34204  290.31 0854.37
2009/04/23 15:20:32.6      94    -59    -57    112    125 122.0 -33.6  34208  290.38 0854.37
2009/04/23 15:20:32.7      86    -38    -49     95    106 114.0 -34.2  34206  290.36 0854.37
2009/04/23 15:20:32.8      72    -25    -31     77     83 109.1 -27.4  34200  290.26 0854.37
2009/04/23 15:20:32.9      59    -50     -8     78     79 130.4  -6.2  34200  290.26 0854.37
2009/04/23 15:20:33.0      47    -59    -18     76     79 141.3 -13.4  34202  290.30 0854.37
2009/04/23 15:20:33.1      46    -70    -14     85     87 146.6  -9.3  34200  290.25 0854.37
2009/04/23 15:20:33.2      51    -76    -25     92     96 145.7 -15.5  34198  290.23 0854.37
2009/04/23 15:20:33.3      64    -93    -22    114    117 145.3 -11.3  34196  290.19 0854.37
2009/04/23 15:20:33.4      49   -157     -6    165    166 162.6  -2.2  34200  290.25 0854.37
2009/04/23 15:20:33.5      65   -152    -47    166    173 156.8 -16.0  34198  290.21 0854.37
2009/04/23 15:20:33.6      64   -135    -19    150    152 154.5  -7.2  34200  290.25 0854.37
2009/04/23 15:20:33.7     -14   -115    -36    116    121 187.1 -22.3  34204  290.31 0854.37
2009/04/23 15:20:33.8     -10   -119    -41    120    127 184.9 -19.1  34204  290.31 0854.37
2009/04/23 15:20:33.9     -20   -113    -17    115    117 190.2  -8.8  34200  290.26 0854.37
2009/04/23 15:20:34.0      25    -75    -24     80     84 161.7 -16.6  34208  290.40 0854.37
2009/04/23 15:20:34.1      58    -54      9     80     81 133.3   6.5  34204  290.33 0854.42
2009/04/23 15:20:34.2      77    -53     44     94    103 124.6  27.1  34210  290.43 0854.42
2009/04/23 15:20:34.3      96     -7     55     97    111  94.4  31.9  34214  290.48 0854.42
2009/04/23 15:20:34.4     105     -8    119    106    159  94.4  53.5  34202  290.28 0854.42
2009/04/23 15:20:34.5      31     -5    113     32    117  99.7  83.9  34228  290.72 0854.42
2009/04/23 15:20:34.6     -51     -3     89     52    103 265.6  67.2  34242  290.98 0854.42
2009/04/23 15:20:34.7     -53    -34     87     64    108 237.5  60.0  34226  290.69 0854.42
2009/04/23 15:20:34.8     -65    -47     96     81    125 234.0  55.8  34218  290.55 0854.42
2009/04/23 15:20:34.9     -16    -25    117     30    120 212.5  85.9  34228  290.72 0854.42
2009/04/23 15:20:35.0     -67    -18    101     70    122 254.9  62.1  34222  290.64 0854.42
2009/04/23 15:20:35.1     -75     79    117    110    160 316.3  52.0  34224  290.65 0854.42
2009/04/23 15:20:35.2     -66     63     72     92    116 314.0  42.7  34226  290.70 0854.42
2009/04/23 15:20:35.3     -65     64     76     92    119 314.6  43.7  34226  290.70 0854.42
2009/04/23 15:20:35.4     -50     22     52     55     75 294.4  48.0  34224  290.65 0854.42
2009/04/23 15:20:35.5    -105     32     22    110    113 287.3  11.6  34212  290.47 0854.42
2009/04/23 15:20:35.6    -172     29      5    175    176 279.7   1.8  34216  290.53 0854.42
2009/04/23 15:20:35.7    -224    -53     71    231    242 256.5  17.1  34222  290.63 0854.42
2009/04/23 15:20:35.8    -162    -31     78    166    183 259.0  27.1  34242  290.96 0854.42
2009/04/23 15:20:35.9    -193     -7    130    194    233 267.9  36.7  34250  291.09 0854.42
2009/04/23 15:20:36.0    -184    -36    138    188    233 258.8  39.7  34224  290.65 0854.42
2009/04/23 15:20:36.1    -164     -8    114    165    200 267.2  37.8  34224  290.67 0854.50
2009/04/23 15:20:36.2    -165     -1     77    166    182 269.4  26.6  34226  290.70 0854.50
2009/04/23 15:20:36.3    -224     32     21    227    229 278.1   5.4  34224  290.67 0854.50
2009/04/23 15:20:36.4    -241    -45    110    246    269 259.4  25.9  34212  290.46 0854.50
2009/04/23 15:20:36.5    -229    -61    107    238    260 255.0  25.9  34208  290.39 0854.50
2009/04/23 15:20:36.6    -161   -142    133    216    253 228.6  34.8  34202  290.29 0854.50
2009/04/23 15:20:36.7    -151    -60     66    163    175 248.2  23.0  34204  290.31 0854.50
2009/04/23 15:20:36.8    -149    -48     55    157    166 251.8  20.0  34206  290.36 0854.50
2009/04/23 15:20:36.9    -115    -54     44    128    136 244.7  19.2  34206  290.35 0854.50
2009/04/23 15:20:37.0     -89    -26     -3     93     94 253.6  -2.2  34200  290.25 0854.50
2009/04/23 15:20:37.1     -65    -41     29     78     83 237.5  21.0  34200  290.26 0854.50
2009/04/23 15:20:37.2     -54    -44     63     70     94 230.5  46.9  34206  290.36 0854.50
2009/04/23 15:20:37.3     -31    -34     72     47     85 222.3  64.1  34220  290.58 0854.50
2009/04/23 15:20:37.4     -70    -66     87     97    130 226.9  46.4  34228  290.72 0854.50
2009/04/23 15:20:37.5     -49   -150     78    158    176 198.3  28.0  34236  290.86 0854.50
2009/04/23 15:20:37.6     -12    -97    103     98    142 187.6  51.6  34234  290.84 0854.50
2009/04/23 15:20:37.7       4    -40     46     41     61 173.8  53.3  34226  290.70 0854.50
2009/04/23 15:20:37.8     -13      8      5     16     18 302.4  19.2  34228  290.72 0854.50
2009/04/23 15:20:37.9       4     12    -16     13     20  18.7 -60.8  34220  290.60 0854.50
2009/04/23 15:20:38.0     -17     52    -57     55     79 341.3 -55.1  34228  290.72 0854.50
2009/04/23 15:20:38.1     -17    100      0    102    103 350.2  -0.3  34226  290.69 0854.46
2009/04/23 15:20:38.2     -41    140     -6    147    148 343.5  -2.6  34228  290.74 0854.46
2009/04/23 15:20:38.3     -61    170      5    181    182 340.2   1.6  34226  290.70 0854.46
2009/04/23 15:20:38.4      -9    140      6    141    142 356.0   2.8  34220  290.58 0854.46
2009/04/23 15:20:38.5      45    149    -20    156    158  17.0  -7.3  34216  290.53 0854.46
2009/04/23 15:20:38.6      47    142    -13    150    151  18.3  -5.1  34218  290.57 0854.46
2009/04/23 15:20:38.7      54    116      0    129    130  24.9  -0.3  34220  290.60 0854.46
2009/04/23 15:20:38.8      -9    118     65    119    135 355.5  31.4  34222  290.62 0854.46
2009/04/23 15:20:38.9     -44     60     45     75     87 323.9  34.4  34232  290.79 0854.46
2009/04/23 15:20:39.0      21     40     34     46     57  27.2  40.7  34234  290.82 0854.38
2009/04/23 15:20:39.1      57     19    -25     61     65  71.6 -27.4  34234  290.84 0854.38
2009/04/23 15:20:39.2      57     22    -25     62     66  68.3 -27.4  34240  290.92 0854.38
2009/04/23 15:20:39.3      33      1     37     34     50  87.4  53.3  34252  291.13 0854.38
2009/04/23 15:20:39.4      -8    -55     59     56     81 188.9  51.6  34252  291.13 0854.38
2009/04/23 15:20:39.5     -10    -31     73     33     80 198.7  74.0  34256  291.20 0854.38
2009/04/23 15:20:39.6      -4     -5     81      7     81 219.6  90.0  34252  291.15 0854.38
2009/04/23 15:20:39.7     -26    -66    123     72    142 201.8  67.2  34246  291.03 0854.38
2009/04/23 15:20:39.8    -165   -103     86    195    213 238.0  25.2  34256  291.20 0854.38
2009/04/23 15:20:39.9    -100   -152     88    183    203 213.4  27.4  34256  291.21 0854.38
2009/04/23 15:20:40.0    -102   -162    114    192    223 212.1  33.5  34258  291.23 0854.38
2009/04/23 15:20:40.1    -179   -165     90    244    260 227.3  21.0  34250  291.10 0854.38
2009/04/23 15:20:40.2    -165   -192    109    254    276 220.8  24.9  34250  291.10 0854.38
2009/04/23 15:20:40.3    -191   -294     63    351    357 213.0  10.2  34228  290.72 0854.38
2009/04/23 15:20:40.4    -265   -277    -61    384    389 223.7  -9.1  34260  291.27 0854.38
2009/04/23 15:20:40.5    -276   -278    -20    393    394 224.8  -3.0  34254  291.17 0854.38
2009/04/23 15:20:40.6    -260   -235    -89    351    363 227.8 -14.3  34226  290.69 0854.38
2009/04/23 15:20:40.7    -320   -288    -46    431    434 228.0  -6.2  34248  291.07 0854.38
2009/04/23 15:20:40.8    -367   -153    -98    398    411 247.3 -13.9  34268  291.41 0854.38
2009/04/23 15:20:40.9    -374   -136    -73    399    406 250.0 -10.4  34274  291.52 0854.38
2009/04/23 15:20:41.0    -375   -237   -114    444    459 237.7 -14.4  34246  291.04 0854.29
2009/04/23 15:20:41.2    -360   -145   -252    389    463 248.0 -40.1  34232  290.78 0854.29
2009/04/23 15:20:41.2    -389   -184   -170    431    463 244.6 -27.3  34238  290.90 0854.29
2009/04/23 15:20:41.3    -356   -155   -166    389    422 246.5 -28.9  34246  291.02 0854.29
2009/04/23 15:20:41.4    -302   -191   -100    358    371 237.6 -20.1  34258  291.23 0854.29
2009/04/23 15:20:41.5    -352   -109    -60    369    375 252.8  -9.3  34270  291.45 0854.29
2009/04/23 15:20:41.6    -408    -85   -182    417    454 258.1 -29.5  34228  290.72 0854.29
2009/04/23 15:20:41.7    -416   -229   -130    475    493 241.2 -15.4  34248  291.08 0854.29
2009/04/23 15:20:41.8    -662   -146   -192    679    705 257.5 -20.5  34232  290.78 0854.29
2009/04/23 15:20:41.9    -549   -206   -116    587    599 249.4 -11.2  34252  291.14 0854.29
2009/04/23 15:20:42.0    -379   -277   -148    470    493 233.8 -17.5  34272  291.47 0854.29
2009/04/23 15:20:42.1    -391   -162   -143    424    448 247.4 -18.7  34266  291.36 0854.29
2009/04/23 15:20:42.3    -360   -199    -78    412    420 241.1 -10.8  34252  291.12 0854.29
2009/04/23 15:20:42.4    -271   -112    -81    294    306 247.4 -15.5  34260  291.27 0854.29
2009/04/23 15:20:42.5    -254   -100   -135    274    305 248.5 -32.4  34262  291.29 0854.29
2009/04/23 15:20:42.6    -419     13   -266    420    497 271.9 -39.9  34254  291.17 0854.29
2009/04/23 15:20:42.7    -345   -439    -40    559    561 218.1  -4.1  34244  291.01 0854.29
2009/04/23 15:20:42.8    -348   -301   -114    461    475 229.1 -13.9  34242  290.98 0854.29
2009/04/23 15:20:42.9    -207   -215    -35    299    302 223.9  -6.7  34220  290.59 0854.29
2009/04/23 15:20:43.0    -266   -145   -106    303    322 241.4 -19.4  34234  290.83 0854.29
2009/04/23 15:20:43.1    -131   -220     96    257    274 210.8  21.0  34224  290.66 0854.35
2009/04/23 15:20:43.2     -50   -231     27    237    239 192.3   6.7  34242  290.97 0854.35
2009/04/23 15:20:43.3    -102   -366     15    380    381 195.6   2.4  34192  290.11 0854.35
2009/04/23 15:20:43.4     -35   -408    -79    410    418 185.0 -11.0  34198  290.22 0854.35
2009/04/23 15:20:43.5       6   -392     55    393    397 179.0   8.0  34208  290.37 0854.35
2009/04/23 15:20:43.6      41   -395     41    398    401 174.0   5.9  34206  290.35 0854.35
2009/04/23 15:20:43.7      17   -373     60    374    379 177.3   9.2  34204  290.33 0854.35
2009/04/23 15:20:43.8     166   -309     17    351    352 151.7   2.9  34218  290.55 0854.35
2009/04/23 15:20:43.9     198   -270     24    336    337 143.7   4.2  34220  290.59 0854.35
2009/04/23 15:20:44.0     240   -167    -58    293    299 124.9 -11.3  34216  290.53 0854.35
2009/04/23 15:20:44.1     218   -145     51    263    268 123.7  11.0  34218  290.56 0854.35
2009/04/23 15:20:44.2     106   -161    116    193    225 146.6  34.0  34216  290.53 0854.35
2009/04/23 15:20:44.3      42    -60    102     74    126 144.8  60.5  34226  290.69 0854.35
2009/04/23 15:20:44.4      39    -87     75     96    121 155.5  41.7  34224  290.67 0854.35
2009/04/23 15:20:44.5       6    -70     90     71    114 174.7  57.5  34230  290.75 0854.35
2009/04/23 15:20:44.6     -30      3     41     31     51 276.1  58.5  34240  290.94 0854.35
2009/04/23 15:20:44.7      95     32    122    101    158  71.4  56.1  34234  290.84 0854.35
2009/04/23 15:20:44.8      80    -62    117    102    155 127.8  54.3  34232  290.79 0854.35
2009/04/23 15:20:44.9      20   -259    171    260    311 175.5  36.3  34222  290.61 0854.35
2009/04/23 15:20:45.0       0   -209    274    210    345 180.2  58.9  34216  290.53 0854.35
2009/04/23 15:20:45.1      41   -344    197    347    399 173.1  32.3  34220  290.59 0854.39
2009/04/23 15:20:45.2     -46   -499     41    502    504 185.4   4.7  34208  290.39 0854.39
2009/04/23 15:20:45.3     159   -438    -15    467    468 160.0  -1.9  34212  290.44 0854.39
2009/04/23 15:20:45.4    -115   -498     -4    512    513 193.0  -0.5  34202  290.30 0854.39
2009/04/23 15:20:45.5     -44   -575     -2    577    578 184.4  -0.2  34234  290.83 0854.39
2009/04/23 15:20:45.6     192   -675    -54    702    705 164.1  -4.5  34232  290.81 0854.39
2009/04/23 15:20:45.7     276   -785     13    833    834 160.6   0.9  34220  290.60 0854.39
2009/04/23 15:20:45.8     334   -716    169    791    810 155.0  12.1  34176  289.85 0854.39
2009/04/23 15:20:45.9     342   -569    -62    664    668 149.0  -5.4  34202  290.27 0854.39
2009/04/23 15:20:46.0      83   -478    -27    486    487 170.1  -3.2  34198  290.22 0854.39
2009/04/23 15:20:46.1     139   -508   -174    527    554 164.6 -23.5  34224  290.67 0854.39
2009/04/23 15:20:46.2     132   -572   -167    588    612 167.0 -15.9  34228  290.73 0854.39
2009/04/23 15:20:46.3     -89   -840    -67    845    848 186.1  -4.6  34204  290.32 0854.39
2009/04/23 15:20:46.4    -172   -779    -34    798    799 192.5  -2.5  34238  290.88 0854.39
2009/04/23 15:20:46.5     -76   -701   -215    706    739 186.3 -16.9  34198  290.20 0854.39
2009/04/23 15:20:46.6    -454   -427    -58    624    627 226.8  -5.3  34200  290.25 0854.39
2009/04/23 15:20:46.7    -410   -252   -235    482    536 238.4 -32.2  34198  290.23 0854.39
2009/04/23 15:20:46.8    -139   -179   -359    227    424 217.8 -69.1  34188  290.06 0854.39
2009/04/23 15:20:46.9      23   -307   -192    308    362 175.6 -39.5  34188  290.04 0854.39
2009/04/23 15:20:47.0     251    -42    -88    255    270  99.5 -19.1  34196  290.19 0854.39
2009/04/23 15:20:47.1     229   -413    -72    473    479 151.0  -8.7  34188  290.05 0854.36
2009/04/23 15:20:47.2     128   -269     93    298    313 154.5  17.3  34198  290.22 0854.36
2009/04/23 15:20:47.3     233   -135    251    270    368 120.2  47.9  34198  290.21 0854.36
2009/04/23 15:20:47.4     323   -191    259    376    456 120.7  37.8  34196  290.17 0854.36
2009/04/23 15:20:47.5     346   -277    329    444    552 128.7  40.2  34172  289.78 0854.36
2009/04/23 15:20:47.6     424   -246    280    491    565 120.1  32.3  34170  289.74 0854.36
2009/04/23 15:20:47.7     386   -289    385    483    617 126.8  42.7  34176  289.83 0854.36
2009/04/23 15:20:47.8     307   -307    222    435    488 135.0  29.2  34172  289.76 0854.36
2009/04/23 15:20:47.9     354   -284    332    454    562 128.7  39.8  34160  289.57 0854.36
2009/04/23 15:20:48.0     377   -300    359    483    601 128.5  40.2  34176  289.84 0854.36
2009/04/23 15:20:48.1     184   -175    -42    255    259 133.6  -9.3  34190  290.07 0854.36
2009/04/23 15:20:48.2      93   -132     79    162    180 144.8  27.8  34184  289.97 0854.36
2009/04/23 15:20:48.3     280   -132    249    310    397 115.2  42.8  34180  289.91 0854.36
2009/04/23 15:20:48.4     430    -86    406    439    597 101.4  47.6  34172  289.79 0854.36
2009/04/23 15:20:48.5     121     -9    332    122    353  94.3  79.0  34172  289.76 0854.36
2009/04/23 15:20:48.6     290     16    429    291    518  86.7  62.7  34202  290.28 0854.36
2009/04/23 15:20:48.7     497    101    406    508    650  78.5  42.7  34186  290.00 0854.36
2009/04/23 15:20:48.8     374    -58    126    379    400  98.9  18.5  34178  289.89 0854.36
2009/04/23 15:20:48.9       7   -130    240    131    273 176.9  68.9  34174  289.81 0854.36
2009/04/23 15:20:49.0     -46   -207    222    213    307 192.7  51.2  34178  289.86 0854.36
2009/04/23 15:20:49.1     -58      0    146     59    157 270.0  77.1  34182  289.94 0854.34
2009/04/23 15:20:49.2     122    -40    182    129    223 108.2  61.3  34178  289.87 0854.34
2009/04/23 15:20:49.3     -44   -216    155    221    269 191.5  38.6  34178  289.86 0854.34
2009/04/23 15:20:49.4    -201    -47    103    207    231 256.7  28.2  34178  289.89 0854.34
2009/04/23 15:20:49.5     144    -20    204    146    250  98.0  61.1  34184  289.99 0854.34
2009/04/23 15:20:49.6      67    181     61    194    204  20.3  17.7  34186  290.02 0854.34
2009/04/23 15:20:49.7    -101    250     95    270    287 337.9  19.4  34184  289.98 0854.34
2009/04/23 15:20:49.8    -273   -114    218    296    367 247.3  40.0  34178  289.86 0854.34
2009/04/23 15:20:49.9    -408   -225    131    466    485 241.1  15.7  34172  289.76 0854.34
2009/04/23 15:20:50.0    -292    168      2    337    338 299.9   0.4  34182  289.96 0854.34
2009/04/23 15:20:50.1     -99    289    122    306    329 341.1  22.8  34174  289.80 0854.34
2009/04/23 15:20:50.2      66    485    187    490    524   7.8  21.8  34212  290.45 0854.34
2009/04/23 15:20:50.3     -58    537    192    541    575 353.8  19.6  34212  290.45 0854.34
2009/04/23 15:20:50.4      88    462    338    471    579  10.9  39.3  34192  290.11 0854.34
2009/04/23 15:20:50.5     131    503    313    520    606  14.7  33.8  34196  290.17 0854.34
2009/04/23 15:20:50.6      84    -21    322     87    333 104.6  84.9  34226  290.68 0854.34
2009/04/23 15:20:50.7      56    102    184    117    218  29.0  64.7  34238  290.89 0854.34
2009/04/23 15:20:50.8     -70    217    124    229    260 342.0  30.8  34282  291.65 0854.34
2009/04/23 15:20:50.9     -80    199    250    215    329 337.9  55.0  34244  290.99 0854.34
2009/04/23 15:20:51.0    -133    167    208    214    298 321.5  49.2  34242  290.97 0854.34
2009/04/23 15:20:51.1     -25    198    196    200    280 352.7  49.9  34262  291.29 0854.38
2009/04/23 15:20:51.2     -10    276    199    277    341 357.8  39.3  34262  291.31 0854.38
2009/04/23 15:20:51.3    -146    222    130    266    296 326.6  27.8  34244  291.00 0854.38
2009/04/23 15:20:51.4    -169     96    107    195    222 299.5  31.4  34258  291.23 0854.38
2009/04/23 15:20:51.5    -118    199    226    232    323 329.3  49.3  34262  291.29 0854.38
2009/04/23 15:20:51.6      -9    248    145    249    288 357.8  33.1  34258  291.24 0854.38
2009/04/23 15:20:51.7     164     97    240    191    306  59.3  57.5  34278  291.58 0854.38
2009/04/23 15:20:51.8     -58    103    212    119    243 330.6  68.3  34296  291.88 0854.38
2009/04/23 15:20:51.9    -126     97     55    160    170 307.5  18.9  34318  292.25 0854.38
2009/04/23 15:20:52.0    -122     11    -76    123    144 275.2 -39.9  34248  291.08 0854.38
2009/04/23 15:20:52.1    -102   -237     16    259    260 203.4   3.6  34204  290.32 0854.38
2009/04/23 15:20:52.2       8   -186     -7    187    188 177.3  -2.2  34192  290.13 0854.38
2009/04/23 15:20:52.3      35   -174    -57    178    188 168.4 -17.9  34192  290.13 0854.38
2009/04/23 15:20:52.4     142   -204   -149    249    290 145.0 -38.1  34204  290.32 0854.38
2009/04/23 15:20:52.5     304   -180   -105    354    369 120.7 -21.5  34202  290.30 0854.38
2009/04/23 15:20:52.6     211   -214     58    301    307 135.5  11.0  34202  290.29 0854.38
2009/04/23 15:20:52.7      61   -301     43    308    312 168.4   8.0  34210  290.41 0854.38
2009/04/23 15:20:52.8     141   -180    -54    230    237 141.9 -13.4  34216  290.51 0854.38
2009/04/23 15:20:52.9     105   -177    -59    206    214 149.3 -21.0  34218  290.57 0854.38
2009/04/23 15:20:53.0      19   -259     22    260    262 175.6   4.9  34210  290.41 0854.38
2009/04/23 15:20:53.1     -87   -317     49    329    333 195.5   8.5  34202  290.27 0854.36
2009/04/23 15:20:53.2     126   -181     88    221    237 145.0  23.0  34204  290.32 0854.36
2009/04/23 15:20:53.3     170   -121     42    209    214 125.5  11.6  34208  290.38 0854.36
2009/04/23 15:20:53.4     109   -177     84    208    224 148.4  23.0  34204  290.31 0854.36
2009/04/23 15:20:53.5      12   -266     19    267    268 177.4   4.2  34200  290.26 0854.36
2009/04/23 15:20:53.6      45   -295     52    299    304 171.3  10.0  34196  290.19 0854.36
2009/04/23 15:20:53.7     -77   -253    150    265    304 197.0  31.6  34190  290.09 0854.36
2009/04/23 15:20:53.8     -79   -250     12    263    264 197.6   2.8  34190  290.09 0854.36
2009/04/23 15:20:53.9     -45   -226    -59    231    239 191.3 -14.4  34194  290.15 0854.36
2009/04/23 15:20:54.0     -58   -290   -100    296    312 191.3 -23.7  34190  290.09 0854.36
2009/04/23 15:20:54.1      37   -355    -41    357    360 174.0  -6.6  34188  290.03 0854.36
2009/04/23 15:20:54.2      77   -439     19    446    447 170.0   2.5  34192  290.12 0854.36
2009/04/23 15:20:54.3       8   -531    187    532    565 179.1  19.4  34194  290.14 0854.36
2009/04/23 15:20:54.4      23   -415    258    416    489 176.8  34.9  34180  289.91 0854.36
2009/04/23 15:20:54.5       0   -438     97    439    450 180.0  12.5  34188  290.04 0854.36
2009/04/23 15:20:54.6     158   -583    147    605    623 164.9  13.7  34184  289.98 0854.36
2009/04/23 15:20:54.7     146   -542    203    562    598 164.9  19.9  34182  289.95 0854.36
2009/04/23 15:20:54.8     179   -791    191    812    835 167.2  13.3  34196  290.18 0854.36
2009/04/23 15:20:54.9     -82   -758      4    763    764 186.2   0.3  34192  290.11 0854.36
2009/04/23 15:20:55.0    -190   -669   -139    696    710 195.9 -11.3  34190  290.08 0854.36
2009/04/23 15:20:55.1     -57   -621    -83    624    630 185.3  -7.6  34180  289.91 0854.36
2009/04/23 15:20:55.2     -31   -681   -123    682    694 182.7 -10.3  34182  289.93 0854.36
2009/04/23 15:20:55.3     257   -619      8    671    672 157.4   0.7  34186  290.02 0854.36
2009/04/23 15:20:55.4     305   -412     61    513    517 143.5   6.9  34186  290.00 0854.36
2009/04/23 15:20:55.5     116   -420    238    436    496 164.5  31.0  34176  289.83 0854.36
2009/04/23 15:20:55.6    -102   -241    242    262    356 202.9  47.7  34188  290.03 0854.36
2009/04/23 15:20:55.7      91   -330    220    343    407 164.5  35.6  34184  289.99 0854.36
2009/04/23 15:20:55.8     -20   -222    227    224    318 185.3  50.4  34196  290.19 0854.36
2009/04/23 15:20:55.9       9   -106    -53    107    119 174.7 -33.1  34196  290.18 0854.36
2009/04/23 15:20:56.0    -159    -71   -185    175    254 246.0 -56.4  34178  289.87 0854.36
2009/04/23 15:20:56.1    -108   -324   -152    342    374 198.5 -30.0  34182  289.94 0854.36
2009/04/23 15:20:56.2     -41   -164    164    170    236 194.3  49.0  34184  289.97 0854.36
2009/04/23 15:20:56.3    -116      6    198    117    229 273.0  66.8  34206  290.36 0854.36
2009/04/23 15:20:56.4     -41     57    157     71    172 324.0  74.0  34194  290.14 0854.36
2009/04/23 15:20:56.5     -99   -210    188    233    299 205.3  43.3  34182  289.95 0854.36
2009/04/23 15:20:56.6    -231   -326    154    400    428 215.4  22.1  34184  289.99 0854.36
2009/04/23 15:20:56.7    -113   -653    112    663    673 189.9   9.6  34178  289.88 0854.36
2009/04/23 15:20:56.8    -127   -428     38    447    449 196.6   4.9  34172  289.77 0854.36
2009/04/23 15:20:56.9    -202   -145      3    249    250 234.3   0.7  34180  289.90 0854.36
2009/04/23 15:20:57.0    -226    154   -203    274    341 304.2 -44.4  34184  289.97 0854.36
2009/04/23 15:20:57.1    -229    404   -157    465    491 330.5 -18.7  34186  290.00 0854.35
2009/04/23 15:20:57.2    -357    597    -83    696    702 329.1  -6.9  34188  290.03 0854.35
2009/04/23 15:20:57.3    -461    170   -221    492    539 290.3 -30.2  34186  290.02 0854.35
2009/04/23 15:20:57.4    -482    115   -285    496    572 283.5 -36.8  34188  290.04 0854.35
2009/04/23 15:20:57.5    -488    203   -222    529    573 292.6 -28.5  34178  289.87 0854.35
2009/04/23 15:20:57.6    -360    571   -189    675    700 327.8 -20.3  34180  289.90 0854.35
2009/04/23 15:20:57.7      41    495     32    497    498   4.8   3.7  34182  289.95 0854.35
2009/04/23 15:20:57.8     293    412    -64    506    511  35.4  -7.2  34190  290.08 0854.35
2009/04/23 15:20:57.9     297      7   -285    298    412  88.5 -53.0  34180  289.91 0854.35
2009/04/23 15:20:58.0     210     49   -261    216    338  76.7 -60.7  34184  289.97 0854.35
2009/04/23 15:20:58.1     460    -92   -214    470    516 101.4 -30.6  34160  289.56 0854.35
2009/04/23 15:20:58.2     208   -228     11    309    310 137.6   2.1  34148  289.37 0854.35
2009/04/23 15:20:58.3     150   -472    218    496    541 162.3  25.2  34158  289.55 0854.35
2009/04/23 15:20:58.4     -29   -370    285    372    468 184.5  41.2  34168  289.72 0854.35
2009/04/23 15:20:58.5      19   -288    143    289    322 176.2  28.2  34172  289.78 0854.35
2009/04/23 15:20:58.6     103   -363    258    378    457 164.1  37.6  34170  289.73 0854.35
2009/04/23 15:20:58.7     -39   -868    257    869    907 182.6  16.5  34156  289.52 0854.35
2009/04/23 15:20:58.8     -61   -659    121    663    674 185.4  10.4  34172  289.78 0854.35
2009/04/23 15:20:58.9    -120   -608     19    620    621 191.2   1.8  34188  290.03 0854.35
2009/04/23 15:20:59.0    -129   -866     35    876    877 188.5   2.3  34166  289.67 0854.35
2009/04/23 15:20:59.1    -158   -872    166    887    903 190.3  10.6  34188  290.03 0854.36
2009/04/23 15:20:59.2    -274   -756     -3    805    806 199.9  -0.2  34182  289.96 0854.36
2009/04/23 15:20:59.3    -429   -687    -35    811    812 212.0  -2.5  34170  289.75 0854.36
2009/04/23 15:20:59.4    -310   -488     -7    579    580 212.4  -0.7  34192  290.10 0854.36
2009/04/23 15:20:59.5     -19   -320    -61    321    327 183.5 -10.8  34172  289.78 0854.36
2009/04/23 15:20:59.6     -47   -130     75    139    157 200.0  30.8  34184  289.99 0854.36
2009/04/23 15:20:59.7      45    -95     24    106    109 154.7  13.2  34180  289.92 0854.36
2009/04/23 15:20:59.8     -69   -172    177    186    256 202.1  48.5  34184  289.98 0854.36
2009/04/23 15:20:59.9     -71   -176    -63    191    201 202.1 -23.8  34178  289.89 0854.36
2009/04/23 15:21:00.0     -17   -237   -121    238    266 184.2 -33.5  34182  289.93 0854.36
2009/04/23 15:21:00.1     111   -316   -125    336    358 160.6 -25.7  34172  289.77 0854.35
2009/04/23 15:21:00.2     -30   -307   -177    309    356 185.6 -36.8  34162  289.60 0854.35
2009/04/23 15:21:00.3    -207   -323   -185    384    426 212.7 -31.7  34164  289.63 0854.35
2009/04/23 15:21:00.4    -138   -345    -47    372    376 201.8  -7.3  34166  289.69 0854.35
2009/04/23 15:21:00.5     -95   -348    146    361    389 195.4  23.1  34174  289.82 0854.35
2009/04/23 15:21:00.6      67   -665    190    669    696 174.2  15.9  34188  290.04 0854.35
2009/04/23 15:21:00.7     106   -357    161    373    406 163.5  24.9  34178  289.89 0854.35
2009/04/23 15:21:00.8     368   -333     86    497    505 132.2   9.9  34182  289.96 0854.35
2009/04/23 15:21:00.9     442   -606    147    751    766 143.9  11.1  34172  289.79 0854.35
2009/04/23 15:21:01.0     313   -670      1    740    741 155.0   0.1  34182  289.95 0854.35
2009/04/23 15:21:01.1     235   -588    -54    634    637 158.2  -4.9  34178  289.89 0854.35
2009/04/23 15:21:01.2     420   -426     72    599    604 135.5   6.9  34178  289.86 0854.35
2009/04/23 15:21:01.3     363   -411     91    549    557 138.6   9.4  34176  289.85 0854.35
2009/04/23 15:21:01.4     461   -308    107    555    566 123.8  11.0  34180  289.90 0854.35
2009/04/23 15:21:01.5     549   -485     70    733    737 131.5   5.5  34182  289.94 0854.35
2009/04/23 15:21:01.6     453   -486    127    665    677 137.0  10.8  34170  289.75 0854.35
2009/04/23 15:21:01.7     286   -451    286    535    606 147.6  30.3  34174  289.81 0854.35
2009/04/23 15:21:01.8      56   -514    184    518    550 173.8  19.6  34176  289.85 0854.35
2009/04/23 15:21:01.9     120   -138    -85    183    201 139.0 -31.0  34184  289.99 0854.35
2009/04/23 15:21:02.0      49   -393      5    397    398 172.9   0.8  34182  289.96 0854.35
2009/04/23 15:21:02.1     230   -495    197    546    581 155.1  19.9  34176  289.83 0854.34
2009/04/23 15:21:02.2     456   -475    318    659    731 136.2  27.5  34176  289.84 0854.34
2009/04/23 15:21:02.3     403   -622    211    742    772 147.0  15.9  34178  289.87 0854.34
2009/04/23 15:21:02.4     280   -646    114    705    715 156.6   9.2  34186  290.01 0854.34
2009/04/23 15:21:02.5     458   -614    205    767    794 143.3  15.0  34176  289.83 0854.34
2009/04/23 15:21:02.6     361   -531    104    643    652 145.8   9.2  34186  290.01 0854.34
2009/04/23 15:21:02.7     361   -587      5    690    691 148.4   0.5  34180  289.90 0854.34
2009/04/23 15:21:02.8     463   -613     81    769    774 142.9   6.1  34174  289.81 0854.34
2009/04/23 15:21:02.9     477   -576     32    748    749 140.4   2.5  34168  289.70 0854.34
2009/04/23 15:21:03.0     432   -505    -20    665    666 139.5  -1.8  34168  289.71 0854.34
2009/04/23 15:21:03.1     373   -477     30    606    607 142.0   2.9  34172  289.76 0854.34
2009/04/23 15:21:03.2     458   -515     28    690    691 138.3   2.3  34172  289.78 0854.34
2009/04/23 15:21:03.3     425   -539     97    687    695 141.8   8.1  34164  289.65 0854.34
2009/04/23 15:21:03.4     431   -542     28    693    694 141.5   2.3  34164  289.65 0854.34
2009/04/23 15:21:03.5     503   -568    108    760    768 138.5   8.1  34156  289.50 0854.34
2009/04/23 15:21:03.6     488   -480    137    685    699 134.5  11.3  34146  289.34 0854.34
2009/04/23 15:21:03.7     470   -378    117    604    616 128.8  11.0  34148  289.37 0854.34
2009/04/23 15:21:03.8     447   -289     94    533    542 122.9  10.0  34154  289.48 0854.34
2009/04/23 15:21:03.9     433   -391    -73    584    589 132.1  -7.2  34164  289.63 0854.34
2009/04/23 15:21:04.0     369   -539   -234    654    695 145.6 -19.7  34162  289.61 0854.34
2009/04/23 15:21:04.1     521   -474    -27    705    706 132.3  -2.2  34172  289.76 0854.34
2009/04/23 15:21:04.2     317   -449    -59    550    554 144.8  -6.2  34168  289.72 0854.34
2009/04/23 15:21:04.3     202   -587      3    621    622 161.0   0.4  34172  289.79 0854.34
2009/04/23 15:21:04.4     211   -670     71    703    707 162.5   5.8  34172  289.79 0854.34
2009/04/23 15:21:04.5     311   -672     45    741    743 155.2   3.5  34174  289.80 0854.34
2009/04/23 15:21:04.6     168   -702     86    722    728 166.5   6.8  34172  289.78 0854.34
2009/04/23 15:21:04.7      46   -567     17    569    570 175.3   1.8  34158  289.54 0854.34
2009/04/23 15:21:04.8      74   -534    190    540    573 172.1  19.4  34176  289.85 0854.34
2009/04/23 15:21:04.9     124   -395    268    415    494 162.5  35.9  34170  289.73 0854.34
2009/04/23 15:21:05.0     139   -193    144    239    279 144.2  33.7  34182  289.95 0854.34
2009/04/23 15:21:05.1     107   -377     19    393    394 164.1   2.9  34182  289.93 0854.34
2009/04/23 15:21:05.2      -6   -410    -71    411    418 180.9  -9.8  34186  290.02 0854.34
2009/04/23 15:21:05.3     297   -329    -53    444    448 138.0  -6.9  34176  289.85 0854.34
2009/04/23 15:21:05.4     306   -402     70    506    511 142.8   7.9  34156  289.50 0854.34
2009/04/23 15:21:05.5     159   -356    193    390    435 155.9  28.2  34176  289.83 0854.34
2009/04/23 15:21:05.6      87   -321    137    333    360 164.7  23.6  34182  289.96 0854.34
2009/04/23 15:21:05.7      -4   -250     10    251    252 181.1   2.3  34186  290.02 0854.34
2009/04/23 15:21:05.8     140   -376     68    402    408 159.5   9.7  34178  289.88 0854.34
2009/04/23 15:21:05.9     387   -402    121    559    573 136.1  12.3  34180  289.90 0854.34
2009/04/23 15:21:06.0     411   -340     75    534    540 129.6   8.0  34184  289.99 0854.35
2009/04/23 15:21:06.1     455   -318    -66    556    560 125.0  -6.8  34186  290.01 0854.35
2009/04/23 15:21:06.2     470   -313     59    565    569 123.7   6.0  34178  289.87 0854.35
2009/04/23 15:21:06.3     103   -246    247    267    363 157.3  47.7  34182  289.93 0854.35
2009/04/23 15:21:06.4     -77   -213    132    227    262 200.1  32.9  34184  289.97 0854.35
2009/04/23 15:21:06.5       2   -114     61    115    130 179.0  30.3  34188  290.04 0854.35
2009/04/23 15:21:06.6      63   -132      1    147    148 154.6   0.7  34188  290.06 0854.35
2009/04/23 15:21:06.7     130   -220     19    256    257 149.3   4.4  34188  290.05 0854.35
2009/04/23 15:21:06.8     210   -404    -17    456    457 152.5  -2.2  34188  290.05 0854.35
2009/04/23 15:21:06.9     250   -535     21    591    592 155.0   2.1  34178  289.88 0854.35
2009/04/23 15:21:07.0     292   -417     96    510    520 145.0  10.7  34184  289.98 0854.35
2009/04/23 15:21:07.1     232   -437    100    495    505 152.0  11.5  34182  289.93 0854.35
2009/04/23 15:21:07.2     208   -358    150    415    441 149.9  20.8  34180  289.90 0854.35
2009/04/23 15:21:07.3     216   -579    271    619    675 159.5  25.2  34182  289.93 0854.35
2009/04/23 15:21:07.4     142   -665    318    681    751 167.9  26.9  34178  289.88 0854.35
2009/04/23 15:21:07.5     315   -669    331    740    810 154.8  25.8  34176  289.83 0854.35
2009/04/23 15:21:07.6     199   -287     49    350    354 145.3   8.1  34174  289.82 0854.35
2009/04/23 15:21:07.7    -105   -491    143    503    523 192.1  15.9  34182  289.95 0854.35
2009/04/23 15:21:07.8     -48   -632    293    634    698 184.4  26.6  34164  289.65 0854.35
2009/04/23 15:21:07.9    -310   -655    282    725    777 205.3  22.4  34168  289.72 0854.35
2009/04/23 15:21:08.0    -251   -407    264    479    546 211.7  31.3  34186  290.01 0854.42
2009/04/23 15:21:08.1    -271   -387    -86    473    481 215.0 -10.4  34188  290.03 0854.42
2009/04/23 15:21:08.2    -267   -488   -187    557    588 208.7 -18.6  34188  290.05 0854.42
2009/04/23 15:21:08.3    -149   -755   -154    770    786 191.2 -11.3  34176  289.83 0854.42
2009/04/23 15:21:08.4    -239   -598   -210    645    679 201.8 -18.0  34172  289.78 0854.42
2009/04/23 15:21:08.6     -46   -599   -198    601    633 184.5 -18.3  34172  289.76 0854.42
2009/04/23 15:21:08.7      28   -378    180    379    419 175.6  27.2  34174  289.82 0854.42
2009/04/23 15:21:08.7     -98   -207    240    230    332 205.5  51.4  34184  289.98 0854.42
2009/04/23 15:21:08.9     -22    -65    119     69    137 199.2  67.2  34186  290.01 0854.42
2009/04/23 15:21:09.0     181   -115     46    215    220 122.5  12.2  34184  289.97 0854.42
2009/04/23 15:21:09.1     393     43     55    396    400  83.6   8.0  34184  289.98 0854.42
2009/04/23 15:21:09.2     207    -90     65    226    236 113.5  16.0  34174  289.80 0854.42
2009/04/23 15:21:09.3     406    -92    152    417    443 102.8  20.9  34164  289.65 0854.42
2009/04/23 15:21:09.4     387     43    -36    390    392  83.5  -5.3  34176  289.84 0854.42
2009/04/23 15:21:09.5     336    -66     -4    343    344 101.2  -0.7  34178  289.87 0854.42
2009/04/23 15:21:09.6     254    -94     96    272    288 110.4  20.0  34178  289.86 0854.42
2009/04/23 15:21:09.7     148    -59    123    160    201 111.7  41.6  34182  289.96 0854.42
2009/04/23 15:21:09.8      99     99    -23    141    143  44.9  -9.3  34178  289.89 0854.42
2009/04/23 15:21:09.9      43    198    -80    203    218  12.5 -27.2  34182  289.96 0854.42
2009/04/23 15:21:10.0     100    158    -38    188    192  32.5 -11.5  34180  289.92 0854.42
2009/04/23 15:21:10.1     100    250     -2    270    271  21.8  -0.5  34180  289.90 0854.41
2009/04/23 15:21:10.2      90    166    136    189    232  28.5  39.5  34184  289.97 0854.41
2009/04/23 15:21:10.3      27     37    143     47    150  36.1  80.7  34188  290.06 0854.41
2009/04/23 15:21:10.4      -6    -39     98     40    105 189.8  77.0  34196  290.18 0854.41
2009/04/23 15:21:10.5     -18   -238    267    239    358 184.5  53.7  34186  290.00 0854.41
2009/04/23 15:21:10.6    -280   -337    326    439    546 219.7  40.2  34182  289.95 0854.41
2009/04/23 15:21:10.7    -348   -286    108    451    464 230.6  13.5  34190  290.07 0854.41
2009/04/23 15:21:10.8    -219   -118    171    250    302 241.6  37.6  34228  290.71 0854.41
2009/04/23 15:21:10.9     -76    -10     42     77     87 262.1  30.8  34226  290.69 0854.41
2009/04/23 15:21:11.0    -135   -256    -11    290    291 207.9  -2.2  34198  290.20 0854.41
2009/04/23 15:21:11.1    -207   -543    -22    582    583 200.9  -2.2  34166  289.68 0854.41
2009/04/23 15:21:11.2    -234   -484     80    538    544 205.9   8.5  34164  289.63 0854.41
2009/04/23 15:21:11.3    -143   -569    144    587    605 194.2  13.8  34166  289.68 0854.41
2009/04/23 15:21:11.4    -250   -429    204    497    537 210.3  23.6  34166  289.68 0854.41
2009/04/23 15:21:11.5    -229   -215    243    315    397 226.9  41.6  34176  289.84 0854.41
2009/04/23 15:21:11.6    -219   -379    263    438    510 210.0  33.6  34174  289.81 0854.41
2009/04/23 15:21:11.7     -61   -338    370    344    505 190.2  52.2  34200  290.24 0854.41
2009/04/23 15:21:11.8     -12   -330    394    331    514 182.2  55.8  34214  290.50 0854.41
2009/04/23 15:21:11.9      67   -279    329    287    436 166.4  54.3  34248  291.05 0854.41
2009/04/23 15:21:12.0     127   -268    220    297    369 154.5  40.1  34222  290.62 0854.41
2009/04/23 15:21:12.1    -117   -496     22    510    511 193.3   2.5  34172  289.79 0854.39
2009/04/23 15:21:12.2     248   -335    270    417    496 143.5  35.9  34208  290.40 0854.39
2009/04/23 15:21:12.3      69   -240    135    250    284 164.0  30.6  34192  290.10 0854.39
2009/04/23 15:21:12.4     203   -183    164    274    319 132.0  33.8  34184  289.98 0854.39
2009/04/23 15:21:12.5     252     29    153    254    296  83.4  33.7  34174  289.80 0854.39
2009/04/23 15:21:12.6     372    -19    142    373    399  93.0  21.8  34174  289.82 0854.39
2009/04/23 15:21:12.7     385   -109    137    401    424 105.8  18.9  34168  289.72 0854.39
2009/04/23 15:21:12.8     260   -143     40    297    300 118.9   7.8  34178  289.86 0854.39
2009/04/23 15:21:12.9     273    -83    -18    286    287 106.9  -3.7  34174  289.81 0854.39
2009/04/23 15:21:13.0     220   -166     43    276    280 127.1   9.0  34164  289.64 0854.39
2009/04/23 15:21:13.1     224   -185     46    291    295 129.5   9.0  34164  289.64 0854.39
2009/04/23 15:21:13.2     252   -254     41    358    361 135.2   6.6  34172  289.77 0854.39
2009/04/23 15:21:13.3     160   -337    131    374    396 154.5  20.0  34178  289.87 0854.39
2009/04/23 15:21:13.4     167   -320    134    362    386 152.4  21.1  34176  289.84 0854.39
2009/04/23 15:21:13.5      88   -315    196    328    382 164.4  33.6  34148  289.38 0854.39
2009/04/23 15:21:13.6     -43   -294     27    298    300 188.5   5.2  34170  289.75 0854.39
2009/04/23 15:21:13.7     -65   -275     44    283    287 193.4   8.9  34166  289.66 0854.39
2009/04/23 15:21:13.8     -88   -266     -3    281    282 198.3  -0.7  34158  289.54 0854.39
2009/04/23 15:21:13.9    -297   -400     27    499    500 216.6   3.1  34156  289.49 0854.39
2009/04/23 15:21:14.0     -50   -443    -95    446    457 186.5 -12.0  34158  289.55 0854.39
2009/04/23 15:21:14.1     -26   -423     80    424    432 183.6  10.7  34170  289.73 0854.36
2009/04/23 15:21:14.2      48   -446    126    449    467 173.8  15.7  34174  289.80 0854.36
2009/04/23 15:21:14.3     111   -378    180    394    433 163.6  26.2  34180  289.92 0854.36
2009/04/23 15:21:14.4     145   -374    179    402    440 158.8  25.6  34168  289.70 0854.36
2009/04/23 15:21:14.5     181   -364     12    407    408 153.5   1.7  34160  289.58 0854.36
2009/04/23 15:21:14.6     280   -520     11    591    592 151.7   1.1  34152  289.42 0854.36
2009/04/23 15:21:14.7     210   -429     75    478    485 153.9   9.0  34152  289.45 0854.36
2009/04/23 15:21:14.8     215   -506     33    550    551 156.9   3.5  34144  289.29 0854.36
2009/04/23 15:21:14.9     139   -482    175    502    532 163.9  19.3  34154  289.46 0854.36
2009/04/23 15:21:15.0      54   -459    203    463    505 173.2  25.2  34162  289.61 0854.36
2009/04/23 15:21:15.1     222   -665     97    702    709 161.5   7.9  34168  289.72 0854.36
2009/04/23 15:21:15.2       1   -572     32    573    574 179.9   3.3  34168  289.71 0854.36
2009/04/23 15:21:15.3     -85   -324    -13    336    337 194.8  -2.2  34168  289.72 0854.36
2009/04/23 15:21:15.4     -93   -389    -77    401    409 193.5 -11.0  34168  289.70 0854.36
2009/04/23 15:21:15.5      48   -394   -144    397    422 173.0 -25.2  34164  289.65 0854.36
2009/04/23 15:21:15.6     126   -497    -66    513    518 165.7  -7.4  34164  289.64 0854.36
2009/04/23 15:21:15.7     -52   -576    -78    579    585 185.2  -7.7  34158  289.54 0854.36
2009/04/23 15:21:15.8      93   -523   -101    532    542 169.9 -10.8  34164  289.65 0854.36
2009/04/23 15:21:15.9      26   -433    -46    434    437 176.5  -6.1  34162  289.61 0854.36
2009/04/23 15:21:16.0      -6   -381     20    382    383 181.0   3.1  34162  289.60 0854.36
2009/04/23 15:21:16.1      76   -480    202    487    527 171.0  23.7  34162  289.61 0854.34
2009/04/23 15:21:16.2     155   -520    -93    543    552 163.4  -9.8  34158  289.53 0854.34
2009/04/23 15:21:16.3     133   -607    -24    622    623 167.6  -2.3  34154  289.48 0854.34
2009/04/23 15:21:16.4    -145   -374   -211    402    454 201.2 -34.4  34152  289.44 0854.34
2009/04/23 15:21:16.5    -138   -177   -196    225    298 218.1 -50.2  34154  289.46 0854.34
2009/04/23 15:21:16.6    -231    -43   -260    235    350 259.4 -57.7  34158  289.53 0854.34
2009/04/23 15:21:16.7    -119   -161   -210    201    290 216.5 -55.6  34160  289.58 0854.34
2009/04/23 15:21:16.8    -136   -334   -221    361    423 202.2 -38.8  34172  289.77 0854.34
2009/04/23 15:21:16.9     -13   -428   -193    429    470 181.8 -30.2  34168  289.72 0854.34
2009/04/23 15:21:17.0      79   -261   -109    273    293 163.1 -27.4  34158  289.54 0854.34
2009/04/23 15:21:17.1    -116   -305   -197    327    381 200.9 -38.4  34164  289.65 0854.34
2009/04/23 15:21:17.2      25   -361     51    362    366 176.0   8.1  34148  289.38 0854.34
2009/04/23 15:21:17.3    -171   -267   -126    318    342 212.6 -27.3  34172  289.77 0854.34
2009/04/23 15:21:17.4    -106   -190   -119    218    248 209.2 -35.4  34166  289.68 0854.34
2009/04/23 15:21:17.5    -151    -31   -111    155    190 258.1 -43.7  34170  289.75 0854.34
2009/04/23 15:21:17.6    -184   -222    -98    289    306 219.6 -18.7  34162  289.59 0854.34
2009/04/23 15:21:17.7    -262   -119    -88    288    302 245.6 -17.0  34170  289.73 0854.34
2009/04/23 15:21:17.8    -130   -108     -7    170    171 230.2  -2.6  34166  289.69 0854.34
2009/04/23 15:21:17.9      95   -136    -98    167    193 145.0 -37.9  34166  289.67 0854.34
2009/04/23 15:21:18.0      52   -102    -34    115    121 152.8 -16.6  34164  289.65 0854.34
2009/04/23 15:21:18.1      39    -40     12     56     58 135.8  12.2  34166  289.69 0854.28
2009/04/23 15:21:18.2      13   -103    -34    104    109 172.4 -23.8  34168  289.70 0854.28
2009/04/23 15:21:18.3     120    -93    -51    152    160 127.8 -23.6  34166  289.67 0854.28
2009/04/23 15:21:18.4      63    -20   -119     67    136 108.2 -72.7  34172  289.79 0854.28
2009/04/23 15:21:18.5     121     17    -87    123    150  82.0 -43.5  34174  289.80 0854.28
2009/04/23 15:21:18.6     104    154   -132    186    228  34.1 -43.5  34180  289.91 0854.28
2009/04/23 15:21:18.7      91     67   -114    114    161  53.6 -54.5  34150  289.41 0854.28
2009/04/23 15:21:18.8     149   -106   -210    183    278 125.5 -58.7  34172  289.78 0854.28
2009/04/23 15:21:18.9     198    -33   -175    201    266  99.7 -50.0  34170  289.75 0854.28
2009/04/23 15:21:19.0     188    124   -111    226    251  56.7 -32.4  34172  289.78 0854.28
2009/04/23 15:21:19.1     272     75   -145    283    317  74.5 -33.7  34164  289.64 0854.28
2009/04/23 15:21:19.2      92   -187    -42    209    214 153.7 -11.5  34166  289.67 0854.28
2009/04/23 15:21:19.3      37   -268     15    271    272 172.0   3.3  34160  289.56 0854.28
2009/04/23 15:21:19.4     198   -405     63    452    457 153.9   8.0  34154  289.46 0854.28
2009/04/23 15:21:19.5     103   -384    113    398    414 164.9  15.9  34154  289.46 0854.28
2009/04/23 15:21:19.6      77   -486    148    493    515 171.0  16.8  34156  289.49 0854.28
2009/04/23 15:21:19.7     102   -503    106    514    525 168.5  11.7  34156  289.51 0854.28
2009/04/23 15:21:19.8      66   -394    161    400    431 170.4  23.1  34150  289.41 0854.28
2009/04/23 15:21:19.9      96   -357    121    370    390 164.9  18.1  34158  289.54 0854.28
2009/04/23 15:21:20.0     116   -546    164    559    583 168.0  16.4  34150  289.41 0854.28
2009/04/23 15:21:20.1      27   -629    190    630    658 177.5  16.8  34156  289.52 0854.26
2009/04/23 15:21:20.2     129   -621    252    635    683 168.2  22.9  34162  289.60 0854.26
2009/04/23 15:21:20.3     132   -562    209    578    615 166.7  19.9  34152  289.44 0854.26
2009/04/23 15:21:20.4       7   -502    189    503    537 179.1  21.5  34148  289.38 0854.26
2009/04/23 15:21:20.5     -42   -629    189    631    659 183.9  16.7  34162  289.60 0854.26
2009/04/23 15:21:20.6      11   -684     52    685    687 179.0   4.4  34166  289.68 0854.26
2009/04/23 15:21:20.7      -3   -561    288    562    631 180.4  29.4  34154  289.47 0854.26
2009/04/23 15:21:20.8    -105   -598    275    608    667 190.0  25.9  34156  289.50 0854.26
2009/04/23 15:21:20.9    -192   -668    306    696    760 196.0  25.2  34152  289.43 0854.26
2009/04/23 15:21:21.0     212   -611    475    648    803 160.8  39.8  34162  289.60 0854.26
2009/04/23 15:21:21.1     156   -395    258    425    497 158.4  34.2  34152  289.45 0854.33
2009/04/23 15:21:21.2      28   -343    130    345    368 175.3  21.5  34170  289.74 0854.33
2009/04/23 15:21:21.3     -70   -397     98    404    416 190.0  13.7  34166  289.68 0854.33
2009/04/23 15:21:21.4    -109   -459    166    472    500 193.4  20.2  34170  289.73 0854.33
2009/04/23 15:21:21.5     -78   -714    181    719    742 186.3  14.2  34160  289.58 0854.33
2009/04/23 15:21:21.6      67   -723    196    727    754 174.7  15.1  34160  289.58 0854.33
2009/04/23 15:21:21.7      96   -726    351    733    812 172.4  27.4  34158  289.54 0854.33
2009/04/23 15:21:21.8     205   -694    444    724    849 163.5  34.4  34136  289.18 0854.33
2009/04/23 15:21:21.9     252   -574    344    627    715 156.3  31.2  34144  289.29 0854.33
2009/04/23 15:21:22.0     190   -309    331    364    491 148.4  47.0  34160  289.56 0854.33
2009/04/23 15:21:22.1     340   -339    241    481    537 134.9  28.7  34164  289.63 0854.33
2009/04/23 15:21:22.2     275   -293    269    403    484 136.8  37.0  34162  289.61 0854.33
2009/04/23 15:21:22.3     273   -159    141    316    346 120.2  25.7  34166  289.67 0854.33
2009/04/23 15:21:22.4     102   -182    132    209    247 150.6  35.5  34162  289.59 0854.33
2009/04/23 15:21:22.5      19     54    156     58    166  19.2  78.6  34176  289.84 0854.33
2009/04/23 15:21:22.6      76     49    224     91    241  56.7  77.0  34168  289.72 0854.33
2009/04/23 15:21:22.7      32     16    221     37    224  62.9  90.0  34176  289.84 0854.33
2009/04/23 15:21:22.8     143     47    228    151    273  71.8  63.6  34168  289.70 0854.33
2009/04/23 15:21:22.9       3    -47    182     48    188 175.5  84.9  34172  289.79 0854.33
2009/04/23 15:21:23.0      94    -78     33    123    128 129.5  15.2  34160  289.58 0854.33
2009/04/23 15:21:23.1      81     39     -8     91     92  64.2  -5.6  34162  289.60 0854.34
2009/04/23 15:21:23.2      24    111     57    114    127  12.5  28.2  34162  289.60 0854.34
2009/04/23 15:21:23.3     169   -101     99    198    221 120.9  28.5  34162  289.62 0854.34
2009/04/23 15:21:23.4     245    -48     65    250    259 101.2  14.7  34162  289.59 0854.34
2009/04/23 15:21:23.5     169     75     24    185    187  66.0   7.5  34164  289.65 0854.34
2009/04/23 15:21:23.6     121    -39    -94    128    158 108.2 -44.5  34168  289.72 0854.34
2009/04/23 15:21:23.7     163   -202     -2    260    261 141.2  -0.5  34164  289.64 0854.34
2009/04/23 15:21:23.8     162   -184     66    246    255 138.6  15.0  34168  289.70 0854.34
2009/04/23 15:21:23.9     121   -254    124    282    308 154.5  25.2  34166  289.68 0854.34
2009/04/23 15:21:24.0      27   -447    122    448    465 176.5  15.3  34172  289.77 0854.34
2009/04/23 15:21:24.1      62   -359    128    365    387 170.2  19.4  34170  289.74 0854.34
2009/04/23 15:21:24.2     -12   -430    134    431    452 181.6  17.3  34180  289.90 0854.34
2009/04/23 15:21:24.3     -96   -406     78    418    426 193.4  10.6  34178  289.88 0854.34
2009/04/23 15:21:24.4    -207   -251     46    326    330 219.5   8.1  34176  289.83 0854.34
2009/04/23 15:21:24.5    -222   -208    107    305    323 226.9  20.1  34182  289.95 0854.34
2009/04/23 15:21:24.6    -198   -125     81    235    249 237.6  19.2  34182  289.95 0854.34
2009/04/23 15:21:24.7     -25   -180    160    182    242 188.0  45.9  34178  289.87 0854.34
2009/04/23 15:21:24.8     -42   -207    130    212    248 191.6  34.5  34166  289.68 0854.34
2009/04/23 15:21:24.9    -113   -340     83    359    369 198.4  13.1  34156  289.52 0854.34
2009/04/23 15:21:25.0    -161   -355    -15    390    391 204.4  -2.2  34172  289.77 0854.34
2009/04/23 15:21:25.1     -61   -344     53    350    355 190.1   8.7  34174  289.82 0854.33
2009/04/23 15:21:25.2      31   -226     92    229    246 172.0  23.0  34176  289.83 0854.33
2009/04/23 15:21:25.3      40   -261     25    265    267 171.3   5.4  34176  289.85 0854.33
2009/04/23 15:21:25.4     115   -158    -46    196    202 143.9 -13.2  34166  289.67 0854.33
2009/04/23 15:21:25.5     234   -164    137    286    317 125.1  27.4  34172  289.76 0854.33
2009/04/23 15:21:25.6     177   -146    136    230    267 129.5  33.5  34176  289.83 0854.33
2009/04/23 15:21:25.7     128   -115    109    173    204 131.8  35.5  34174  289.82 0854.33
2009/04/23 15:21:25.8      87    -32     98     93    135 110.4  51.2  34180  289.92 0854.33
2009/04/23 15:21:25.9      76     -5     52     77     92  94.3  37.0  34180  289.92 0854.33
2009/04/23 15:21:26.0      68     22     81     72    108  71.8  53.7  34178  289.87 0854.33
2009/04/23 15:21:26.1     -34   -103     46    109    118 198.7  24.1  34178  289.87 0854.33
2009/04/23 15:21:26.2    -149   -235    170    279    326 212.5  34.3  34166  289.68 0854.33
2009/04/23 15:21:26.3      24   -364    172    365    403 176.1  27.1  34166  289.69 0854.33
2009/04/23 15:21:26.4    -158   -354     19    388    389 204.1   2.9  34164  289.64 0854.33
2009/04/23 15:21:26.5    -127   -469    -51    487    490 195.2  -6.1  34156  289.52 0854.33
2009/04/23 15:21:26.6     -94   -604     -3    612    613 188.9  -0.4  34172  289.76 0854.33
2009/04/23 15:21:26.7    -196   -426   -222    469    518 204.7 -31.5  34172  289.79 0854.33
2009/04/23 15:21:26.8    -189   -385    -55    430    434 206.2  -7.4  34168  289.70 0854.33
2009/04/23 15:21:26.9     -11   -460     14    461    462 181.5   1.8  34162  289.60 0854.33
2009/04/23 15:21:27.0      90   -411     75    421    428 167.6  10.1  34164  289.63 0854.33
2009/04/23 15:21:27.1     119   -389    164    407    438 163.0  23.0  34172  289.78 0854.34
2009/04/23 15:21:27.2     177   -346    187    389    431 152.8  27.4  34174  289.80 0854.34
2009/04/23 15:21:27.3     374   -513    104    636    645 143.9   9.3  34164  289.64 0854.34
2009/04/23 15:21:27.4     442   -427    105    615    624 134.0   9.7  34164  289.64 0854.34
2009/04/23 15:21:27.5     326   -560     -2    648    649 149.8  -0.2  34162  289.62 0854.34
2009/04/23 15:21:27.6     314   -598    117    676    687 152.3   9.9  34162  289.60 0854.34
2009/04/23 15:21:27.7     -31   -430   -290    432    520 184.1 -41.6  34166  289.67 0854.34
2009/04/23 15:21:27.8      24   -529   -148    530    550 177.3 -20.3  34154  289.48 0854.34
2009/04/23 15:21:27.9    -238   -576     42    624    626 202.5   3.9  34160  289.57 0854.34
2009/04/23 15:21:28.0    -402   -389    -79    560    566 226.0  -8.1  34168  289.72 0854.34
2009/04/23 15:21:28.1    -242   -503     97    559    568 205.8   9.9  34158  289.55 0854.34
2009/04/23 15:21:28.2     -12   -429    306    430    527 181.6  39.1  34154  289.47 0854.34
2009/04/23 15:21:28.3       5   -359    164    360    395 179.2  26.2  34156  289.50 0854.34
2009/04/23 15:21:28.4      32   -353    127    355    377 174.7  20.4  34158  289.55 0854.34
2009/04/23 15:21:28.5       4   -470    227    471    522 179.5  27.4  34160  289.57 0854.34
2009/04/23 15:21:28.6     -19   -288     45    289    293 183.8   8.9  34158  289.53 0854.34
2009/04/23 15:21:28.7      -9   -297     18    298    299 181.8   3.6  34154  289.46 0854.34
2009/04/23 15:21:28.8     -51   -277    -51    282    287 190.5 -10.3  34162  289.61 0854.34
2009/04/23 15:21:28.9    -161   -402     -9    434    435 201.9  -1.3  34166  289.66 0854.34
2009/04/23 15:21:29.0     -86   -505    -46    513    516 189.7  -5.2  34160  289.57 0854.34
2009/04/23 15:21:29.1    -140   -431   -141    454    476 198.1 -17.3  34172  289.78 0854.37
2009/04/23 15:21:29.2    -166   -294    -93    338    351 209.4 -15.4  34170  289.74 0854.37
2009/04/23 15:21:29.3     -74   -224    -56    236    243 198.3 -13.4  34176  289.83 0854.37
2009/04/23 15:21:29.4     -68   -386   -115    393    409 190.0 -21.1  34166  289.68 0854.37
2009/04/23 15:21:29.5    -177   -296   -137    345    371 210.9 -27.4  34170  289.74 0854.37
2009/04/23 15:21:29.6    -201   -337    -38    393    395 210.8  -5.6  34166  289.67 0854.37
2009/04/23 15:21:29.7    -209   -236     61    316    322 221.4  11.0  34170  289.75 0854.37
2009/04/23 15:21:29.8    -123   -332    -86    355    366 200.3 -13.7  34174  289.81 0854.37
2009/04/23 15:21:29.9    -156   -389   -122    420    437 201.9 -21.0  34166  289.68 0854.37
2009/04/23 15:21:30.0    -182   -578   -167    607    630 197.5 -15.4  34174  289.82 0854.37
2009/04/23 15:21:30.1    -135   -559   -159    576    598 193.6 -15.5  34162  289.61 0854.37
2009/04/23 15:21:30.2     238   -595    -29    642    643 158.2  -2.6  34164  289.64 0854.37
2009/04/23 15:21:30.3     330   -547    -66    640    644 148.9  -6.0  34164  289.65 0854.37
2009/04/23 15:21:30.4     315   -724    153    790    805 156.5  11.0  34176  289.85 0854.37
2009/04/23 15:21:30.5     188   -555    187    587    617 161.3  17.7  34184  289.98 0854.37
2009/04/23 15:21:30.6     404   -488    443    634    773 140.4  38.4  34168  289.71 0854.37
2009/04/23 15:21:30.7     389   -542    419    668    788 144.3  35.0  34170  289.75 0854.37
2009/04/23 15:21:30.8     261   -594    238    649    691 156.3  21.0  34166  289.68 0854.37
2009/04/23 15:21:30.9     281   -522    257    593    646 151.7  25.0  34164  289.64 0854.37
2009/04/23 15:21:31.0     271   -329    183    427    464 140.5  24.8  34184  289.99 0854.37
2009/04/23 15:21:31.1     241   -321    -37    402    404 143.0  -5.4  34178  289.87 0854.41
2009/04/23 15:21:31.2     161   -491    -17    517    518 161.8  -1.9  34178  289.86 0854.41
2009/04/23 15:21:31.3     306   -333     70    453    459 137.5   8.8  34194  290.14 0854.41
2009/04/23 15:21:31.4     449   -379     43    588    590 130.2   4.2  34174  289.81 0854.41
2009/04/23 15:21:31.5     404   -328     27    521    522 129.1   3.0  34182  289.94 0854.41
2009/04/23 15:21:31.6     359   -355     47    505    508 134.7   5.3  34182  289.93 0854.41
2009/04/23 15:21:31.7     321   -261    -29    414    415 129.1  -4.1  34174  289.80 0854.41
2009/04/23 15:21:31.8     415   -259    -19    490    491 122.0  -2.2  34166  289.69 0854.41
2009/04/23 15:21:31.9     344   -186     99    392    405 118.4  14.2  34170  289.74 0854.41
2009/04/23 15:21:32.0     237    -88    234    253    344 110.4  47.6  34176  289.83 0854.41
2009/04/23 15:21:32.1     198    -15    249    199    318  94.4  57.5  34176  289.85 0854.41
2009/04/23 15:21:32.2     156   -156    205    221    301 135.0  47.9  34184  289.98 0854.41
2009/04/23 15:21:32.3      61   -112     91    128    157 151.5  39.1  34170  289.75 0854.41
2009/04/23 15:21:32.4      47   -197    173    203    266 166.6  44.8  34176  289.85 0854.41
2009/04/23 15:21:32.5     -13   -137    109    138    175 185.8  42.4  34178  289.87 0854.41
2009/04/23 15:21:32.6     -55   -171    190    180    261 197.8  51.6  34174  289.80 0854.41
2009/04/23 15:21:32.7    -104   -164    111    195    224 212.3  32.1  34194  290.14 0854.41
2009/04/23 15:21:32.8    -115   -170     46    206    212 214.3  12.6  34194  290.16 0854.41
2009/04/23 15:21:32.9    -102    -26     94    106    141 255.4  46.4  34204  290.33 0854.41
2009/04/23 15:21:33.0     -72   -168    133    183    226 203.2  39.7  34186  290.02 0854.41
2009/04/23 15:21:33.1     -34   -170    209    174    271 191.5  56.3  34182  289.95 0854.42
2009/04/23 15:21:33.2      16   -210    225    211    308 175.6  52.1  34184  289.98 0854.42
2009/04/23 15:21:33.3     -30   -150    202    154    254 191.5  59.0  34186  290.02 0854.42
2009/04/23 15:21:33.4       2   -199    206    200    287 179.3  50.9  34188  290.05 0854.42
2009/04/23 15:21:33.5      13   -288    207    289    355 177.4  39.2  34188  290.06 0854.42
2009/04/23 15:21:33.6    -108   -299    186    319    369 200.0  33.1  34180  289.91 0854.42
2009/04/23 15:21:33.7      32   -231    221    234    321 171.9  48.4  34190  290.09 0854.42
2009/04/23 15:21:33.8       5   -312    288    313    425 179.0  47.5  34182  289.96 0854.42
2009/04/23 15:21:33.9      31   -255    269    257    372 172.9  51.6  34184  289.98 0854.42
2009/04/23 15:21:34.0     -31   -208    123    211    244 188.5  33.1  34174  289.81 0854.42
2009/04/23 15:21:34.1      35   -161    177    165    241 167.5  52.2  34174  289.82 0854.42
2009/04/23 15:21:34.2      -6   -227    273    228    355 181.6  56.0  34174  289.81 0854.42
2009/04/23 15:21:34.3     -47    -88    203    100    226 208.1  72.4  34172  289.79 0854.42
2009/04/23 15:21:34.4     -98   -264    238    282    369 200.5  44.4  34176  289.84 0854.42
2009/04/23 15:21:34.5    -130    -38    135    136    191 253.6  50.2  34166  289.69 0854.42
2009/04/23 15:21:34.6     203     17    286    204    351  85.0  61.1  34196  290.19 0854.42
2009/04/23 15:21:34.7     109     40    177    117    212  69.6  63.9  34208  290.38 0854.42
2009/04/23 15:21:34.8     136     75    175    156    234  61.2  54.0  34190  290.09 0854.42
2009/04/23 15:21:35.0     208     99     98    231    250  64.5  24.3  34204  290.32 0854.42
2009/04/23 15:21:35.1     259    144     25    297    299  60.9   4.9  34194  290.15 0854.43
2009/04/23 15:21:35.2     444    189    104    483    495  66.9  12.2  34210  290.42 0854.43
2009/04/23 15:21:35.3     430    101    231    442    498  76.8  29.8  34206  290.35 0854.43
2009/04/23 15:21:35.4     232    -39    196    236    306  99.6  43.8  34208  290.37 0854.43
2009/04/23 15:21:35.5     -31   -211    213    214    301 188.5  50.0  34170  289.75 0854.43
2009/04/23 15:21:35.6      99    -12    256    100    274  97.0  77.6  34194  290.16 0854.43
2009/04/23 15:21:35.7      14   -133    179    134    223 173.7  59.8  34188  290.06 0854.43
2009/04/23 15:21:35.8     -73   -249     92    260    277 196.5  19.6  34190  290.09 0854.43
2009/04/23 15:21:35.9     -45   -221    -55    226    233 191.6 -13.9  34192  290.11 0854.43
2009/04/23 15:21:36.0      68    -69     41     98    106 135.3  23.6  34194  290.14 0854.43
2009/04/23 15:21:36.1     113     59     40    128    135  62.5  17.4  34198  290.21 0854.43
2009/04/23 15:21:36.2     160     72     67    176    188  65.6  21.7  34188  290.04 0854.43
2009/04/23 15:21:36.3     186    147      5    238    239  51.6   1.2  34224  290.65 0854.43
2009/04/23 15:21:36.4     111    -26    102    115    153 103.3  46.4  34198  290.21 0854.43
2009/04/23 15:21:36.5     -59   -220    242    228    332 195.2  52.1  34162  289.61 0854.43
2009/04/23 15:21:36.6    -136   -237    288    274    397 209.8  51.5  34168  289.72 0854.43
2009/04/23 15:21:36.7    -283   -252     81    380    389 228.3  12.1  34164  289.64 0854.43
2009/04/23 15:21:36.8    -300   -231   -130    379    401 232.4 -19.0  34166  289.69 0854.43
2009/04/23 15:21:36.9    -189   -322   -121    374    394 210.5 -18.0  34168  289.71 0854.43
2009/04/23 15:21:37.0     -56   -235    -80    242    254 193.6 -23.8  34170  289.73 0854.43
2009/04/23 15:21:37.1    -180   -229   -131    292    320 218.1 -30.2  34176  289.83 0854.40
2009/04/23 15:21:37.2    -123   -348    -74    370    378 199.5 -11.3  34174  289.82 0854.40
2009/04/23 15:21:37.3    -151   -197    -91    249    265 217.4 -25.4  34176  289.83 0854.40
2009/04/23 15:21:37.4     -23   -103     44    106    114 192.9  23.6  34174  289.80 0854.40
2009/04/23 15:21:37.5    -108   -159    131    193    233 214.1  37.4  34180  289.92 0854.40
2009/04/23 15:21:37.6    -131   -202    149    241    283 213.0  34.8  34184  289.97 0854.40
2009/04/23 15:21:37.7    -150   -214    196    262    327 215.0  40.7  34200  290.24 0854.40
2009/04/23 15:21:37.8     -83   -273     56    286    292 197.0  11.1  34206  290.34 0854.40
2009/04/23 15:21:37.9     -28   -164     78    167    184 189.8  27.0  34202  290.30 0854.40
2009/04/23 15:21:38.0      14    -22     77     27     81 147.4  80.2  34214  290.48 0854.40
2009/04/23 15:21:38.1      34   -146    124    150    194 166.7  43.8  34210  290.41 0854.40
2009/04/23 15:21:38.2     -48      0     99     49    110 269.2  72.4  34220  290.60 0854.40
2009/04/23 15:21:38.3    -138     76     90    158    181 298.9  32.4  34216  290.53 0854.40
2009/04/23 15:21:38.4     -54     44     -6     70     71 309.5  -5.2  34218  290.55 0854.40
2009/04/23 15:21:38.5    -114     84     22    142    144 306.4   9.0  34210  290.43 0854.40
2009/04/23 15:21:38.6       5    178      9    179    180   1.8   2.9  34226  290.70 0854.40
2009/04/23 15:21:38.7     -20    138     58    140    151 351.5  23.6  34242  290.96 0854.40
2009/04/23 15:21:38.8     -54    101     43    115    122 331.5  21.0  34238  290.91 0854.40
2009/04/23 15:21:38.9      82     29     30     88     94  70.5  18.9  34244  290.99 0854.40
2009/04/23 15:21:39.0      67    136    201    152    252  26.3  59.4  34252  291.13 0854.40
2009/04/23 15:21:39.1     259     86    112    273    295  71.6  23.4  34248  291.07 0854.42
2009/04/23 15:21:39.2     392    141    156    417    445  70.2  21.4  34282  291.65 0854.42
2009/04/23 15:21:39.3     452    120    162    468    496  75.1  19.2  34282  291.66 0854.42
2009/04/23 15:21:39.4     330     25    168    332    372  85.5  29.1  34278  291.59 0854.42
2009/04/23 15:21:39.5     326    -55    137    331    358  99.6  23.7  34270  291.44 0854.42
2009/04/23 15:21:39.6     387     12    188    388    431  88.1  27.8  34264  291.35 0854.42
2009/04/23 15:21:39.7     268   -291    189    396    438 137.4  27.3  34252  291.14 0854.42
2009/04/23 15:21:39.8     250   -345     66    427    433 144.0   8.9  34178  289.87 0854.42
2009/04/23 15:21:39.9     279   -469     37    546    548 149.3   3.9  34154  289.46 0854.42
2009/04/23 15:21:40.0     276   -378    222    469    518 143.9  27.1  34170  289.74 0854.42
2009/04/23 15:21:40.1     311   -417    283    521    592 143.3  30.9  34184  289.97 0854.42
2009/04/23 15:21:40.2     123   -573    255    587    639 167.9  25.0  34162  289.59 0854.42
2009/04/23 15:21:40.3     257   -706    265    752    798 160.0  19.4  34166  289.66 0854.42
2009/04/23 15:21:40.4     197   -727    183    754    776 164.8  13.7  34168  289.70 0854.42
2009/04/23 15:21:40.5     135   -598    140    614    630 167.2  12.9  34168  289.70 0854.42
2009/04/23 15:21:40.6      58   -662    125    665    677 174.9  10.7  34164  289.63 0854.42
2009/04/23 15:21:40.7    -192   -674    186    701    726 195.9  14.9  34182  289.96 0854.42
2009/04/23 15:21:40.8    -219   -679    138    714    728 197.9  11.0  34206  290.35 0854.42
2009/04/23 15:21:40.9    -194   -551   -231    585    628 199.4 -27.1  34202  290.28 0854.42
2009/04/23 15:21:41.0       0   -419   -283    420    506 180.0 -41.5  34178  289.86 0854.42
2009/04/23 15:21:41.1     -19   -258   -224    259    342 184.4 -49.6  34172  289.78 0854.37
2009/04/23 15:21:41.2     -11   -254   -164    255    303 182.7 -40.0  34168  289.71 0854.37
2009/04/23 15:21:41.3    -212   -250     16    329    330 220.3   2.9  34174  289.82 0854.37
2009/04/23 15:21:41.4     -42   -293    142    297    329 188.2  27.3  34194  290.14 0854.37
2009/04/23 15:21:41.5     -33   -318    173    320    363 186.0  30.7  34186  290.01 0854.37
2009/04/23 15:21:41.6     -26   -404    321    405    516 183.8  42.3  34176  289.83 0854.37
2009/04/23 15:21:41.7     -94   -414     67    425    431 192.8   9.0  34174  289.82 0854.37
2009/04/23 15:21:41.8      27   -495    241    496    551 176.9  27.8  34164  289.63 0854.37
2009/04/23 15:21:41.9     122   -780    341    790    860 171.1  24.9  34170  289.73 0854.37
2009/04/23 15:21:42.0     205   -757    204    785    812 164.8  14.6  34164  289.63 0854.37
2009/04/23 15:21:42.1     170   -685    251    706    750 166.0  19.6  34162  289.62 0854.31
2009/04/23 15:21:42.2      69   -673    113    677    687 174.1   9.5  34162  289.61 0854.31
2009/04/23 15:21:42.3      73   -753     71    757    761 174.4   5.4  34158  289.53 0854.31
2009/04/23 15:21:42.4      76   -653    116    658    669 173.3  10.0  34160  289.56 0854.31
2009/04/23 15:21:42.5     205   -684    149    715    731 163.3  11.8  34160  289.57 0854.31
2009/04/23 15:21:42.6     308   -681     11    748    749 155.7   0.9  34164  289.63 0854.31
2009/04/23 15:21:42.7     167   -619    120    642    653 164.9  10.6  34154  289.48 0854.31
2009/04/23 15:21:42.8     204   -558     71    595    600 159.9   6.9  34166  289.66 0854.31
2009/04/23 15:21:42.9     283   -613    120    676    687 155.2  10.1  34162  289.60 0854.31
2009/04/23 15:21:43.0      12   -432    162    433    462 178.3  21.5  34158  289.53 0854.31
2009/04/23 15:21:43.1    -166   -465    181    495    527 199.7  21.0  34162  289.62 0854.31
2009/04/23 15:21:43.2    -279   -393     58    483    487 215.4   6.9  34168  289.71 0854.31
2009/04/23 15:21:43.3    -224   -239     16    328    329 223.1   2.9  34172  289.76 0854.31
2009/04/23 15:21:43.4     -60   -370    194    375    422 189.2  29.4  34166  289.68 0854.31
2009/04/23 15:21:43.5    -127   -397    120    417    435 197.8  16.1  34176  289.83 0854.31
2009/04/23 15:21:43.6     -71   -352     83    360    370 191.5  13.1  34188  290.04 0854.31
2009/04/23 15:21:43.7    -148   -338   -131    370    393 203.7 -19.5  34146  289.33 0854.31
2009/04/23 15:21:43.8    -150   -321   -127    355    377 205.0 -24.8  34140  289.23 0854.31
2009/04/23 15:21:43.9    -155   -357    -91    390    401 203.5 -13.2  34146  289.33 0854.31
2009/04/23 15:21:44.0    -311   -283    -76    421    428 227.7 -10.3  34170  289.75 0854.31
2009/04/23 15:21:44.1    -363   -319   -119    484    499 228.7 -13.9  34188  290.05 0854.28
2009/04/23 15:21:44.2    -346   -248   -118    426    443 234.4 -15.5  34198  290.21 0854.28
2009/04/23 15:21:44.3    -188   -523    149    556    576 199.8  15.0  34172  289.78 0854.28
2009/04/23 15:21:44.4    -237   -638    172    681    703 200.4  14.2  34166  289.68 0854.28
2009/04/23 15:21:44.5    -347   -728     64    807    810 205.5   4.6  34166  289.67 0854.28
2009/04/23 15:21:44.6    -332   -784    292    852    901 202.9  18.9  34164  289.64 0854.28
2009/04/23 15:21:44.7      23   -763    255    764    806 178.2  18.5  34156  289.52 0854.28
2009/04/23 15:21:44.8      47   -835    104    837    844 176.8   7.1  34162  289.59 0854.28
2009/04/23 15:21:44.9     263   -784    115    828    836 161.4   7.9  34166  289.69 0854.28
2009/04/23 15:21:45.0     166   -888     14    904    905 169.4   0.9  34168  289.72 0854.28
2009/04/23 15:21:45.1     236   -723     75    761    765 161.9   5.7  34172  289.79 0854.28
2009/04/23 15:21:45.2     109   -638     64    648    652 170.3   5.7  34166  289.69 0854.28
2009/04/23 15:21:45.3     105   -516    -37    527    529 168.4  -4.1  34168  289.72 0854.28
2009/04/23 15:21:45.4    -237   -779    -53    815    817 196.9  -3.7  34174  289.81 0854.28
2009/04/23 15:21:45.5    -322   -803    -49    866    868 201.9  -3.3  34174  289.82 0854.28
2009/04/23 15:21:45.6    -258   -714    -83    760    765 199.9  -6.3  34148  289.38 0854.28
2009/04/23 15:21:45.7    -408   -590   -246    718    760 214.7 -18.9  34152  289.43 0854.28
2009/04/23 15:21:45.8    -254   -585     -6    638    639 203.5  -0.6  34152  289.43 0854.28
2009/04/23 15:21:45.9    -411   -451     -6    611    612 222.3  -0.6  34158  289.54 0854.28
2009/04/23 15:21:46.0    -299   -350     13    461    462 220.6   1.7  34160  289.58 0854.28
2009/04/23 15:21:46.1     -58   -430     76    434    441 187.7  10.0  34162  289.60 0854.26
2009/04/23 15:21:46.2      17   -371     54    372    376 177.3   8.3  34156  289.50 0854.26
2009/04/23 15:21:46.3     -33   -397     12    399    400 184.9   1.8  34156  289.50 0854.26
2009/04/23 15:21:46.4      16   -540     29    541    542 178.2   3.1  34162  289.62 0854.26
2009/04/23 15:21:46.5     -11   -453    -24    454    455 181.5  -3.1  34164  289.63 0854.26
2009/04/23 15:21:46.6      68   -556     62    561    565 173.0   6.4  34156  289.50 0854.26
2009/04/23 15:21:46.7      76   -564     28    570    571 172.3   2.9  34154  289.46 0854.26
2009/04/23 15:21:46.8     136   -491      4    510    511 164.4   0.5  34158  289.54 0854.26
2009/04/23 15:21:46.9     172   -504     40    533    535 161.1   4.4  34156  289.50 0854.26
2009/04/23 15:21:47.0      10   -491     25    492    493 178.7   3.0  34160  289.57 0854.26
2009/04/23 15:21:47.1      49   -485    -27    488    489 174.2  -3.2  34162  289.61 0854.26
2009/04/23 15:21:47.2     113   -513    -30    526    527 167.5  -3.3  34162  289.60 0854.26
2009/04/23 15:21:47.3      10   -560     93    561    569 178.9   9.5  34156  289.50 0854.26
2009/04/23 15:21:47.4      57   -559    179    562    590 174.1  17.7  34148  289.36 0854.26
2009/04/23 15:21:47.5     -72   -503    207    509    549 188.2  23.5  34158  289.55 0854.26
2009/04/23 15:21:47.6       1   -456    179    457    490 179.8  22.7  34162  289.61 0854.26
2009/04/23 15:21:47.7      26   -399    124    400    419 176.2  17.3  34158  289.55 0854.26
2009/04/23 15:21:47.8      36   -332    -51    335    339 173.8  -8.7  34158  289.55 0854.26
2009/04/23 15:21:47.9       8   -282   -201    283    347 178.2 -43.4  34156  289.49 0854.26
2009/04/23 15:21:48.0     -91   -110   -166    144    219 219.6 -59.0  34164  289.65 0854.26
2009/04/23 15:21:48.1    -180    -26   -274    182    328 261.6 -67.9  34170  289.73 0854.30
2009/04/23 15:21:48.2      20   -287   -325    288    434 176.0 -58.6  34172  289.77 0854.30
2009/04/23 15:21:48.3     215   -316   -360    383    525 145.8 -52.4  34164  289.64 0854.30
2009/04/23 15:21:48.4     272   -347   -136    442    462 141.9 -22.1  34168  289.70 0854.30
2009/04/23 15:21:48.5     208   -304   -164    369    403 145.6 -30.1  34172  289.76 0854.30
2009/04/23 15:21:48.6     294   -160    132    335    360 118.6  22.5  34174  289.81 0854.30
2009/04/23 15:21:48.7      65    -87    275    109    295 143.0  77.1  34178  289.86 0854.30
2009/04/23 15:21:48.8    -203    -61    339    213    400 253.2  64.8  34182  289.96 0854.30
2009/04/23 15:21:48.9    -377   -164    181    412    450 246.5  25.2  34170  289.75 0854.30
2009/04/23 15:21:49.0    -275     42    141    279    312 278.8  28.9  34190  290.07 0854.30
2009/04/23 15:21:49.1    -371   -197     52    421    425 242.0   7.1  34162  289.61 0854.30
2009/04/23 15:21:49.2    -233   -133    152    269    308 240.2  31.9  34176  289.83 0854.30
2009/04/23 15:21:49.3    -319   -264    204    415    462 230.4  28.0  34176  289.85 0854.30
2009/04/23 15:21:49.4    -590   -157    218    611    650 255.1  19.7  34172  289.77 0854.30
2009/04/23 15:21:49.5    -511   -274    230    580    623 241.8  22.8  34184  289.97 0854.30
2009/04/23 15:21:49.6    -453   -278    305    532    613 238.5  32.4  34180  289.91 0854.30
2009/04/23 15:21:49.7    -293   -195    201    353    406 236.3  32.3  34188  290.06 0854.30
2009/04/23 15:21:49.8    -442   -147    237    466    522 251.6  29.1  34238  290.90 0854.30
2009/04/23 15:21:49.9    -474   -351    254    591    643 233.5  24.6  34230  290.77 0854.30
2009/04/23 15:21:50.0    -311   -520    222    607    646 210.9  21.0  34222  290.62 0854.30
2009/04/23 15:21:50.1    -210   -497    300    540    617 202.9  31.4  34212  290.46 0854.34
2009/04/23 15:21:50.2      23   -208    277    210    347 173.5  59.2  34242  290.95 0854.34
2009/04/23 15:21:50.3    -387   -262    146    468    491 235.9  17.4  34228  290.74 0854.34
2009/04/23 15:21:50.4    -454   -177    172    488    517 248.7  20.2  34222  290.62 0854.34
2009/04/23 15:21:50.5    -264   -299    269    400    482 221.5  37.1  34224  290.65 0854.34
2009/04/23 15:21:50.6     -82   -353    386    363    529 193.1  52.1  34228  290.74 0854.34
2009/04/23 15:21:50.7     -49   -658    204    660    691 184.3  17.2  34198  290.21 0854.34
2009/04/23 15:21:50.8     -81   -511    147    518    539 189.0  15.9  34182  289.94 0854.34
2009/04/23 15:21:50.9    -111   -446    272    460    534 194.1  33.4  34196  290.18 0854.34
2009/04/23 15:21:51.0      17   -256    355    257    438 176.0  60.6  34220  290.59 0854.34
2009/04/23 15:21:51.1      -3   -197    297    198    356 180.9  63.3  34226  290.70 0854.34
2009/04/23 15:21:51.2      90   -266    314    281    421 161.3  53.6  34228  290.72 0854.34
2009/04/23 15:21:51.3     242   -173    363    298    469 125.7  56.5  34204  290.33 0854.34
2009/04/23 15:21:51.4      21    -89    233     92    250 166.6  77.4  34208  290.38 0854.34
2009/04/23 15:21:51.5    -124    -79    184    148    236 237.5  57.1  34206  290.36 0854.34
2009/04/23 15:21:51.6     -36    -81    159     89    182 204.1  68.3  34212  290.45 0854.34
2009/04/23 15:21:51.7    -192   -295    285    353    453 213.1  43.1  34186  290.00 0854.34
2009/04/23 15:21:51.8       7   -106    257    107    278 176.0  76.1  34194  290.15 0854.34
2009/04/23 15:21:51.9     275   -230    259    359    442 129.9  39.5  34196  290.19 0854.34
2009/04/23 15:21:52.0     136   -520    301    538    616 165.3  31.5  34188  290.03 0854.34
2009/04/23 15:21:52.1     114   -738    433    747    863 171.2  32.7  34180  289.91 0854.37
2009/04/23 15:21:52.2     272   -741    306    790    847 159.8  22.4  34188  290.03 0854.37
2009/04/23 15:21:52.3     417   -468    327    628    708 138.3  29.6  34178  289.88 0854.37
2009/04/23 15:21:52.4     165   -352    273    389    475 154.8  38.5  34184  289.97 0854.37
2009/04/23 15:21:52.5     439   -282    209    523    563 122.8  23.0  34192  290.13 0854.37
2009/04/23 15:21:52.6     334   -442    262    555    613 142.9  27.1  34184  289.98 0854.37
2009/04/23 15:21:52.7     157   -296    227    336    405 152.1  37.3  34180  289.91 0854.37
2009/04/23 15:21:52.8     132   -112     92    174    196 130.2  30.1  34184  289.97 0854.37
2009/04/23 15:21:52.9     185    -97    -64    210    220 117.8 -17.0  34186  290.02 0854.37
2009/04/23 15:21:53.0      52   -299     26    304    306 170.0   5.0  34172  289.76 0854.37
2009/04/23 15:21:53.1     347     51    166    351    388  81.6  27.1  34178  289.89 0854.37
2009/04/23 15:21:53.2     232     25    274    234    360  83.8  55.3  34180  289.90 0854.37
2009/04/23 15:21:53.3     283     30    303    285    415  83.9  52.1  34172  289.77 0854.37
2009/04/23 15:21:53.4     316    -54    317    321    451  99.7  49.9  34180  289.92 0854.37
2009/04/23 15:21:53.5      24   -262     70    264    274 174.7  15.0  34182  289.93 0854.37
2009/04/23 15:21:53.6      33   -216     10    219    220 171.3   2.8  34180  289.91 0854.37
2009/04/23 15:21:53.7     268     28     60    270    277  83.9  12.6  34184  289.97 0854.37
2009/04/23 15:21:53.8     412     85     95    421    432  78.3  12.8  34188  290.04 0854.37
2009/04/23 15:21:53.9     278    127    192    306    361  65.4  35.3  34174  289.81 0854.37
2009/04/23 15:21:54.0     326     66    205    333    391  78.6  34.5  34180  289.91 0854.37
2009/04/23 15:21:54.1     334    111    274    352    446  71.6  41.7  34186  290.00 0854.37
2009/04/23 15:21:54.2     101     40    164    109    196  68.3  63.4  34180  289.92 0854.37
2009/04/23 15:21:54.3      90    -37    164     98    191 112.6  66.2  34188  290.04 0854.37
2009/04/23 15:21:54.4      25   -179    207    181    274 171.8  54.3  34180  289.92 0854.37
2009/04/23 15:21:54.5     -43   -431    171    434    466 185.8  22.8  34178  289.87 0854.37
2009/04/23 15:21:54.6     -12   -484    156    485    510 181.5  17.8  34174  289.81 0854.37
2009/04/23 15:21:54.7      67   -286    117    294    316 166.7  22.9  34176  289.85 0854.37
2009/04/23 15:21:54.8      92   -102      1    138    139 137.7   0.8  34176  289.85 0854.37
2009/04/23 15:21:54.9      59    -32     51     68     85 118.8  40.7  34180  289.92 0854.37
2009/04/23 15:21:55.0      35     48    -20     60     64  36.1 -18.7  34176  289.85 0854.37
2009/04/23 15:21:55.1      80     24    -74     84    111  72.7 -50.8  34184  289.97 0854.37
2009/04/23 15:21:55.2       0     11    -70     12     71 357.3 -90.0  34186  290.02 0854.37
2009/04/23 15:21:55.3     -26     -8    -47     28     54 251.4 -70.1  34180  289.91 0854.37
2009/04/23 15:21:55.4     -65      0     -6     66     67 269.2  -5.2  34182  289.94 0854.37
2009/04/23 15:21:55.5     -86     11      8     87     88 277.9   5.4  34176  289.84 0854.37
2009/04/23 15:21:55.6     -85     28     27     90     95 288.6  16.8  34176  289.85 0854.37
2009/04/23 15:21:55.7      -4    103     57    104    118 357.3  31.3  34188  290.06 0854.37
2009/04/23 15:21:55.8      27    -80    101     85    132 160.8  55.8  34198  290.23 0854.37
2009/04/23 15:21:55.9     130    -91     56    159    169 125.1  19.6  34184  289.97 0854.37
2009/04/23 15:21:56.0     165   -155     -6    227    228 133.2  -1.6  34180  289.91 0854.37
2009/04/23 15:21:56.1     203   -203     25    288    290 135.1   5.0  34178  289.88 0854.34
2009/04/23 15:21:56.2     231   -174    123    290    315 127.1  24.3  34182  289.93 0854.34
2009/04/23 15:21:56.3      57   -166    205    176    270 161.1  55.3  34184  289.98 0854.34
2009/04/23 15:21:56.4      33    -32    195     46    200 134.1  87.0  34194  290.16 0854.34
2009/04/23 15:21:56.5    -228   -483    136    535    553 205.3  14.3  34160  289.58 0854.34
2009/04/23 15:21:56.6    -191   -695    240    721    760 195.4  18.4  34162  289.62 0854.34
2009/04/23 15:21:56.7    -380   -538    116    659    670 215.2  10.0  34170  289.75 0854.34
2009/04/23 15:21:56.8    -308   -426     82    526    533 215.9   8.9  34178  289.87 0854.34
2009/04/23 15:21:56.9    -215   -323     31    389    391 213.6   4.7  34174  289.82 0854.34
2009/04/23 15:21:57.0     -59   -343    -98    349    363 189.9 -15.7  34170  289.74 0854.34
2009/04/23 15:21:57.1     -80   -371   -160    380    412 192.3 -28.6  34168  289.71 0854.34
2009/04/23 15:21:57.2    -229   -405    -14    466    467 209.5  -1.8  34166  289.69 0854.34
2009/04/23 15:21:57.3     -77   -413     86    421    430 190.6  11.6  34166  289.68 0854.34
2009/04/23 15:21:57.4      45   -224     38    229    233 168.5   9.5  34152  289.43 0854.34
2009/04/23 15:21:57.5     134   -184    347    228    415 143.9  63.6  34178  289.89 0854.34
2009/04/23 15:21:57.6     -72   -402    169    409    442 190.3  23.8  34172  289.78 0854.34
2009/04/23 15:21:57.7    -131   -288     24    317    318 204.5   4.4  34170  289.75 0854.34
2009/04/23 15:21:57.8     -99    -63     73    118    138 237.6  35.0  34176  289.85 0854.34
2009/04/23 15:21:57.9    -117    104     42    157    163 311.6  15.0  34176  289.84 0854.34
2009/04/23 15:21:58.0     -82    187     53    205    212 336.4  14.7  34174  289.82 0854.34
2009/04/23 15:21:58.1    -242    193    -17    310    311 308.6  -3.1  34176  289.83 0854.34
2009/04/23 15:21:58.2    -205    121    -37    239    242 300.6  -8.8  34176  289.85 0854.34
2009/04/23 15:21:58.3    -210    160    -75    265    276 307.3 -15.8  34180  289.90 0854.34
2009/04/23 15:21:58.4     -75    195    -22    210    212 338.8  -6.0  34174  289.82 0854.34
2009/04/23 15:21:58.5    -126    109    -62    168    179 310.9 -25.7  34180  289.92 0854.34
2009/04/23 15:21:58.6    -215     67    -10    226    227 287.3  -2.6  34178  289.89 0854.34
2009/04/23 15:21:58.7    -284     65     46    292    296 283.0   9.0  34182  289.93 0854.34
2009/04/23 15:21:58.8    -266   -168     35    315    317 237.6   6.4  34192  290.12 0854.34
2009/04/23 15:21:58.9    -249   -155    -11    294    295 238.0  -2.2  34176  289.83 0854.34
2009/04/23 15:21:59.0    -254   -373    118    452    468 214.2  14.7  34172  289.77 0854.34
2009/04/23 15:21:59.1    -197   -256    158    324    360 217.6  27.9  34162  289.60 0854.34
2009/04/23 15:21:59.2    -390   -148     30    418    420 249.2   4.2  34194  290.14 0854.34
2009/04/23 15:21:59.3    -271   -298    213    403    455 222.3  30.2  34176  289.83 0854.34
2009/04/23 15:21:59.4    -404   -225    111    463    477 240.8  13.6  34180  289.91 0854.34
2009/04/23 15:21:59.5    -492    -24     92    493    502 267.2  10.6  34182  289.96 0854.34
2009/04/23 15:21:59.6    -147     35    230    152    275 283.7  63.6  34200  290.26 0854.34
2009/04/23 15:21:59.7       0    -44    214     45    218 180.0  89.0  34204  290.31 0854.34
2009/04/23 15:21:59.8      -2   -102    204    103    228 181.4  71.4  34210  290.41 0854.34
2009/04/23 15:21:59.9     -25      0    272     26    273 270.0  90.0  34208  290.40 0854.34
2009/04/23 15:22:00.0      29   -108    283    112    304 164.9  77.1  34218  290.56 0854.34
2009/04/23 15:22:00.1       4     19    253     20    253  11.6  90.0  34224  290.65 0854.34
2009/04/23 15:22:00.2     108     32    197    113    227  73.2  67.7  34226  290.70 0854.34
2009/04/23 15:22:00.3     188   -184    257    264    368 134.4  49.3  34212  290.45 0854.34
2009/04/23 15:22:00.4     -51    -12    219     53    225 255.8  86.9  34218  290.55 0854.34
2009/04/23 15:22:00.5     -87    -63    191    108    219 234.1  68.5  34224  290.67 0854.34
2009/04/23 15:22:00.6    -144   -107     54    180    189 233.4  16.8  34194  290.16 0854.34
2009/04/23 15:22:00.7    -164   -144    146    219    263 228.6  36.5  34184  289.98 0854.34
2009/04/23 15:22:00.8    -128     14    163    129    207 276.6  57.7  34196  290.19 0854.34
2009/04/23 15:22:00.9    -236   -144    219    277    353 238.5  42.3  34198  290.20 0854.34
2009/04/23 15:22:01.0    -192    -24    186    194    268 262.8  49.0  34208  290.37 0854.34
2009/04/23 15:22:01.1    -122    -49    156    132    204 248.2  55.6  34222  290.62 0854.34
2009/04/23 15:22:01.2    -153   -101     37    184    188 236.7  11.6  34202  290.30 0854.34
2009/04/23 15:22:01.3    -148   -241     90    284    299 211.6  17.7  34214  290.49 0854.34
2009/04/23 15:22:01.4     -57   -275     65    281    289 191.8  13.1  34212  290.46 0854.34
2009/04/23 15:22:01.5    -180   -307    115    356    375 210.4  17.9  34204  290.32 0854.34
2009/04/23 15:22:01.6    -103   -450    191    462    499 192.9  23.7  34198  290.22 0854.34
2009/04/23 15:22:01.7    -114   -262    197    287    348 203.6  37.8  34208  290.38 0854.34
2009/04/23 15:22:01.8      33   -121    223    126    256 164.8  68.3  34216  290.53 0854.34
2009/04/23 15:22:02.0     -44   -170    127    176    217 194.7  39.5  34190  290.08 0854.34
2009/04/23 15:22:02.1     -24   -230    173    232    289 186.0  40.6  34182  289.93 0854.35
2009/04/23 15:22:02.2     -62   -223    200    232    306 195.6  45.1  34190  290.07 0854.35
2009/04/23 15:22:02.3    -102   -186    209    213    298 208.7  49.8  34202  290.29 0854.35
2009/04/23 15:22:02.4    -156   -231    187    279    335 214.1  37.0  34204  290.31 0854.35
2009/04/23 15:22:02.5    -183   -243    236    305    385 217.0  41.7  34194  290.15 0854.35
2009/04/23 15:22:02.6    -258   -243    202    355    408 226.8  32.3  34202  290.30 0854.35
2009/04/23 15:22:02.7    -331   -155    124    366    387 244.8  18.8  34218  290.55 0854.35
2009/04/23 15:22:02.8    -288   -150    126    325    348 242.5  22.3  34236  290.86 0854.35
2009/04/23 15:22:02.9    -231    -92    142    249    286 248.2  32.3  34214  290.49 0854.35
2009/04/23 15:22:03.0    -209   -135    195    249    316 237.1  42.1  34200  290.24 0854.35
2009/04/23 15:22:03.1    -158   -233    158    282    323 214.3  31.7  34194  290.15 0854.37
2009/04/23 15:22:03.2    -244   -143     81    283    295 239.6  16.0  34238  290.88 0854.37
2009/04/23 15:22:03.3    -233   -120    142    263    298 242.7  30.8  34212  290.44 0854.37
2009/04/23 15:22:03.4    -192   -111    166    222    277 240.0  40.6  34220  290.59 0854.37
2009/04/23 15:22:03.5    -173   -152     28    231    233 228.7   7.1  34204  290.31 0854.37
2009/04/23 15:22:03.6    -213   -166    101    271    289 232.0  21.0  34200  290.26 0854.37
2009/04/23 15:22:03.7    -246    -90     71    263    273 249.8  15.2  34202  290.27 0854.37
2009/04/23 15:22:03.8    -254   -175    131    309    335 235.4  24.3  34204  290.31 0854.37
2009/04/23 15:22:03.9    -372    -75    132    380    403 258.5  19.2  34238  290.89 0854.37
2009/04/23 15:22:04.0    -381   -129    143    403    427 251.3  20.1  34230  290.77 0854.37
2009/04/23 15:22:04.1    -271   -130    143    301    333 244.2  27.3  34226  290.68 0854.37
2009/04/23 15:22:04.2    -201    -95    138    223    262 244.7  35.0  34232  290.80 0854.37
2009/04/23 15:22:04.3    -259    -65     83    268    281 255.8  17.3  34228  290.71 0854.37
2009/04/23 15:22:04.4    -119    -37    230    125    261 252.3  68.9  34240  290.92 0854.37
2009/04/23 15:22:04.5    -158    -91    146    183    234 240.0  43.0  34236  290.87 0854.37
2009/04/23 15:22:04.6    -140   -131    157    193    248 226.9  43.5  34250  291.09 0854.37
2009/04/23 15:22:04.7    -253   -171    196    306    363 235.9  35.6  34250  291.10 0854.37
2009/04/23 15:22:04.8    -287   -219    150    362    391 232.7  23.9  34242  290.96 0854.37
2009/04/23 15:22:04.9    -222   -108     87    247    262 244.0  19.4  34240  290.92 0854.37
2009/04/23 15:22:05.0    -156   -124    263    200    330 231.6  59.1  34258  291.22 0854.37
2009/04/23 15:22:05.1    -199    -46    219    205    299 257.0  52.1  34250  291.09 0854.37
2009/04/23 15:22:05.2    -310   -132    233    337    409 246.9  38.0  34250  291.11 0854.37
2009/04/23 15:22:05.3    -270    -71     82    280    292 255.2  16.4  34240  290.93 0854.37
2009/04/23 15:22:05.4    -203    -96    172    225    283 244.7  41.6  34250  291.09 0854.37
2009/04/23 15:22:05.5    -197   -168    256    260    364 229.6  49.9  34216  290.52 0854.37
2009/04/23 15:22:05.6    -122   -185    240    222    326 213.4  52.5  34240  290.92 0854.37
2009/04/23 15:22:05.7     -84    -61    167    105    197 234.0  64.7  34220  290.58 0854.37
2009/04/23 15:22:05.8      56     -6    123     57    135  97.0  73.1  34230  290.75 0854.37
2009/04/23 15:22:05.9       5      4    136      7    136  50.5  90.0  34232  290.79 0854.37
2009/04/23 15:22:06.0      54    -18    143     58    154 108.6  77.1  34222  290.64 0854.37
2009/04/23 15:22:06.1     125    -79    180    149    233 122.4  56.4  34210  290.43 0854.37
2009/04/23 15:22:06.2     148    -75    180    167    245 117.0  52.5  34214  290.50 0854.37
2009/04/23 15:22:06.3     131    -95    121    162    202 126.0  40.4  34208  290.38 0854.37
2009/04/23 15:22:06.4     -22     66    103     70    124 341.3  62.7  34230  290.77 0854.37
2009/04/23 15:22:06.5      12     12    106     18    107  45.0  90.0  34242  290.98 0854.37
2009/04/23 15:22:06.6      55    -22    108     60    123 111.7  68.8  34248  291.06 0854.37
2009/04/23 15:22:06.7      -4     14    110     15    111 341.5  90.0  34254  291.16 0854.37
2009/04/23 15:22:06.8     -37     40     86     55    102 316.8  64.7  34252  291.13 0854.37
2009/04/23 15:22:06.9      21    -20     66     30     72 133.1  73.1  34264  291.35 0854.37
2009/04/23 15:22:07.0     -26   -130    119    133    178 191.5  46.9  34228  290.72 0854.37
2009/04/23 15:22:07.1      81    -47    107     94    142 120.2  54.2  34228  290.74 0854.37
2009/04/23 15:22:07.2      25   -127    135    130    187 168.9  51.2  34240  290.94 0854.37
2009/04/23 15:22:07.3     -55   -121    110    133    172 204.5  43.8  34214  290.48 0854.37
2009/04/23 15:22:07.4     -31   -114     64    119    135 195.6  30.8  34212  290.47 0854.37
2009/04/23 15:22:07.5     -26   -140      7    143    144 190.7   2.8  34216  290.52 0854.37
2009/04/23 15:22:07.6      -9   -131    -59    132    144 184.0 -30.1  34204  290.31 0854.37
2009/04/23 15:22:07.7     -52    -82    -53     98    111 212.5 -35.2  34208  290.38 0854.37
2009/04/23 15:22:07.8     -42    -81      2     92     93 207.6   1.8  34214  290.48 0854.37
2009/04/23 15:22:07.9       2     -8     59      9     59 161.7  90.0  34216  290.52 0854.37
2009/04/23 15:22:08.0      27     24     46     37     59  48.7  56.4  34220  290.58 0854.37
2009/04/23 15:22:08.1      22    -41     44     47     64 151.9  48.0  34210  290.43 0854.37
2009/04/23 15:22:08.2      71    -87     40    113    119 140.8  20.0  34208  290.40 0854.37
2009/04/23 15:22:08.3      50    -10    107     52    118 101.5  72.4  34220  290.58 0854.37
2009/04/23 15:22:08.4      58    -15    105     61    121 105.0  67.2  34226  290.69 0854.37
2009/04/23 15:22:08.5      37    -50     84     63    105 143.0  60.0  34226  290.70 0854.37
2009/04/23 15:22:08.6       4    -57     32     58     66 175.5  31.4  34222  290.64 0854.37
2009/04/23 15:22:08.7     -52    -82     26     98    102 212.6  15.3  34210  290.43 0854.37
2009/04/23 15:22:08.8    -110   -122    105    165    195 222.1  35.5  34204  290.33 0854.37
2009/04/23 15:22:08.9    -134   -184    127    228    260 216.1  31.4  34196  290.19 0854.37
2009/04/23 15:22:09.0    -203   -398     90    447    456 207.1  11.4  34192  290.12 0854.37
2009/04/23 15:22:09.1    -223    -82    -72    238    249 249.6 -17.0  34202  290.27 0854.37
2009/04/23 15:22:09.2    -199   -142     -7    245    246 234.5  -1.8  34198  290.20 0854.37
2009/04/23 15:22:09.3     -94   -169    -91    194    214 209.2 -31.5  34202  290.28 0854.37
2009/04/23 15:22:09.4     -58   -268    -73    275    285 192.3 -15.0  34200  290.24 0854.37
2009/04/23 15:22:09.5     -62   -332    -33    338    340 190.6  -5.6  34192  290.11 0854.37
2009/04/23 15:22:09.6     -68   -351     56    358    363 191.1   9.0  34194  290.15 0854.37
2009/04/23 15:22:09.7    -106   -272     16    293    294 201.4   3.3  34190  290.07 0854.37
2009/04/23 15:22:09.8     -50   -248    -51    254    260 191.5 -11.3  34196  290.17 0854.37
2009/04/23 15:22:09.9      58   -198    -42    207    212 163.5 -11.5  34200  290.25 0854.37
2009/04/23 15:22:10.0      38   -170      8    175    176 167.3   2.9  34202  290.28 0854.37
2009/04/23 15:22:10.1      53   -119    -11    131    132 155.9  -5.1  34204  290.31 0854.37
2009/04/23 15:22:10.2      70   -109    -16    130    132 147.4  -7.3  34202  290.30 0854.37
2009/04/23 15:22:10.3      95   -139    -28    169    172 145.7  -9.6  34198  290.23 0854.37
2009/04/23 15:22:10.4      96   -117     -5    152    153 140.4  -2.2  34202  290.28 0854.37
2009/04/23 15:22:10.5      43   -206    -58    211    219 168.0 -15.5  34200  290.26 0854.37
2009/04/23 15:22:10.6      17   -223     -8    224    225 175.6  -2.2  34198  290.23 0854.37
2009/04/23 15:22:10.7      30   -227     45    230    235 172.4  11.1  34196  290.19 0854.37
2009/04/23 15:22:10.8      76   -181     60    197    207 157.3  17.1  34194  290.16 0854.37
2009/04/23 15:22:10.9      71   -138     50    156    164 152.8  17.9  34192  290.11 0854.37
2009/04/23 15:22:11.0     229   -191    226    299    374 129.8  40.8  34192  290.13 0854.37
2009/04/23 15:22:11.1     208   -200    254    289    384 133.8  45.8  34196  290.18 0854.38
2009/04/23 15:22:11.2     188   -153    257    243    353 129.1  51.9  34198  290.20 0854.38
2009/04/23 15:22:11.3      36    -11    172     38    176 108.2  88.0  34212  290.47 0854.38
2009/04/23 15:22:11.4     182   -189    173    263    314 136.1  36.5  34194  290.15 0854.38
2009/04/23 15:22:11.5     244   -278    240    371    441 138.7  35.7  34198  290.22 0854.38
2009/04/23 15:22:11.6     105   -294    213    313    378 160.2  37.4  34196  290.18 0854.38
2009/04/23 15:22:11.7      57   -184    245    193    311 162.6  57.9  34200  290.24 0854.38
2009/04/23 15:22:11.8     -14   -190    223    191    293 184.5  55.3  34202  290.27 0854.38
2009/04/23 15:22:11.9      30   -245    213    247    326 172.9  45.2  34198  290.22 0854.38
2009/04/23 15:22:12.0      82   -226     74    241    253 160.0  17.1  34196  290.19 0854.38
2009/04/23 15:22:12.1     116   -126    148    172    226 137.5  45.1  34202  290.28 0854.38
2009/04/23 15:22:12.2     152   -304    168    341    380 153.4  28.1  34190  290.08 0854.38
2009/04/23 15:22:12.3     183   -286    294    340    449 147.4  45.4  34186  290.00 0854.38
2009/04/23 15:22:12.4     152   -207    247    257    356 143.7  48.8  34194  290.15 0854.38
2009/04/23 15:22:12.5      92   -321    128    334    357 164.0  22.0  34194  290.16 0854.38
2009/04/23 15:22:12.6       0   -287    135    288    318 180.0  27.0  34192  290.12 0854.38
2009/04/23 15:22:12.7     150   -417     95    444    455 160.2  12.2  34186  290.02 0854.38
2009/04/23 15:22:12.8     132   -482     34    500    502 164.6   3.9  34190  290.08 0854.38
2009/04/23 15:22:12.9      98   -365     32    379    381 164.9   5.0  34190  290.08 0854.38
2009/04/23 15:22:13.0     154   -343     89    377    388 155.8  13.3  34182  289.96 0854.38
2009/04/23 15:22:13.1     198   -399     95    446    457 153.6  12.1  34186  290.00 0854.41
2009/04/23 15:22:13.2     175   -384     63    422    427 155.5   8.5  34184  289.97 0854.41
2009/04/23 15:22:13.3      64   -364    -13    370    371 170.0  -2.1  34182  289.96 0854.41
2009/04/23 15:22:13.4     190   -320    -44    373    376 149.3  -6.8  34172  289.77 0854.41
2009/04/23 15:22:13.5     214   -245    -35    326    328 138.9  -6.3  34168  289.71 0854.41
2009/04/23 15:22:13.6     200   -298      9    360    361 146.1   1.5  34178  289.89 0854.41
2009/04/23 15:22:13.7      76   -238    100    250    269 162.2  23.0  34180  289.92 0854.41
2009/04/23 15:22:13.8     144   -212    130    257    288 145.9  29.1  34184  289.97 0854.41
2009/04/23 15:22:13.9     175   -164    123    240    269 133.1  29.2  34180  289.90 0854.41
2009/04/23 15:22:14.0     131   -229     98    264    281 150.2  21.0  34184  289.97 0854.41
2009/04/23 15:22:14.1     101   -145     86    177    196 145.0  27.4  34188  290.04 0854.41
2009/04/23 15:22:14.2      81   -101    105    130    167 141.3  43.5  34192  290.13 0854.41
2009/04/23 15:22:14.3      57      0     97     58    113  90.0  66.2  34194  290.16 0854.41
2009/04/23 15:22:14.4     -19     31     71     37     80 327.5  70.4  34208  290.38 0854.41
2009/04/23 15:22:14.5      23     40     80     47     92  29.9  66.8  34206  290.35 0854.41
2009/04/23 15:22:14.6       8     77     88     78    117   6.2  53.7  34208  290.38 0854.41
2009/04/23 15:22:14.7     -96    188    107    212    237 332.8  29.1  34198  290.21 0854.41
2009/04/23 15:22:14.8    -140    156     37    210    214 318.1  10.1  34194  290.16 0854.41
2009/04/23 15:22:14.9    -137    162     59    213    222 319.9  15.6  34192  290.13 0854.41
2009/04/23 15:22:15.0    -196    142     67    243    253 306.0  15.6  34194  290.15 0854.41
2009/04/23 15:22:15.1    -197    117     45    230    235 300.7  11.1  34198  290.22 0854.42
2009/04/23 15:22:15.2    -170     29     90    173    195 279.9  29.5  34210  290.43 0854.42
2009/04/23 15:22:15.3    -133      7     21    134    136 273.0   9.0  34208  290.38 0854.42
2009/04/23 15:22:15.4    -112     63     30    129    133 299.3  13.1  34208  290.38 0854.42
2009/04/23 15:22:15.5    -123     18    -97    125    158 278.4 -46.1  34228  290.74 0854.42
2009/04/23 15:22:15.6    -218     58    -41    226    230 285.0 -10.5  34224  290.67 0854.42
2009/04/23 15:22:15.7    -194     92    -65    215    225 295.4 -16.8  34218  290.55 0854.42
2009/04/23 15:22:15.8    -236    140    -10    275    276 300.7  -2.2  34230  290.76 0854.42
2009/04/23 15:22:15.9    -350    101     20    365    366 286.1   3.1  34242  290.98 0854.42
2009/04/23 15:22:16.0    -365    113    -61    383    388 287.2  -9.1  34234  290.84 0854.42
2009/04/23 15:22:16.1    -248    158    -85    295    307 302.5 -20.8  34238  290.88 0854.42
2009/04/23 15:22:16.2    -348    160    -89    384    395 294.7 -13.1  34254  291.17 0854.42
2009/04/23 15:22:16.3    -253    242     80    351    361 313.7  12.9  34256  291.20 0854.42
2009/04/23 15:22:16.4    -302    103    -13    320    321 289.0  -2.5  34256  291.19 0854.42
2009/04/23 15:22:16.5    -247   -218      5    330    331 228.5   0.9  34262  291.32 0854.42
2009/04/23 15:22:16.6    -184   -133     59    228    236 234.0  14.5  34264  291.33 0854.42
2009/04/23 15:22:16.7    -142    -12    120    143    186 264.8  44.1  34270  291.43 0854.42
2009/04/23 15:22:16.8    -283   -124     15    310    311 246.3   2.8  34276  291.55 0854.42
2009/04/23 15:22:16.9    -212    138     40    254    258 303.1   9.0  34268  291.39 0854.42
2009/04/23 15:22:17.0    -214    -16     -4    215    216 265.6  -1.3  34272  291.47 0854.42
2009/04/23 15:22:17.1    -272      8     13    273    274 271.7   2.9  34266  291.38 0854.41
2009/04/23 15:22:17.2    -322     14    105    323    340 272.6  18.0  34256  291.20 0854.41
2009/04/23 15:22:17.3    -316    -15    -62    317    324 267.2 -11.1  34262  291.29 0854.41
2009/04/23 15:22:17.4    -367    -35    -25    369    370 264.4  -3.9  34264  291.35 0854.41
2009/04/23 15:22:17.5    -441    -23    -27    442    443 267.0  -3.5  34254  291.16 0854.41
2009/04/23 15:22:17.6    -505    -73   -114    511    524 261.7 -12.6  34254  291.16 0854.41
2009/04/23 15:22:17.7    -448     -7    -74    449    456 269.0  -9.4  34260  291.26 0854.41
2009/04/23 15:22:17.8    -386     70    -72    393    400 280.3 -10.4  34240  290.93 0854.41
2009/04/23 15:22:17.9    -333     87   -121    345    366 284.6 -19.4  34238  290.91 0854.41
2009/04/23 15:22:18.0    -351    -58     53    356    360 260.5   8.5  34244  291.01 0854.41
2009/04/23 15:22:18.1    -258      0    120    259    285 270.0  26.6  34272  291.48 0854.41
2009/04/23 15:22:18.2    -228     74    113    240    265 288.2  27.1  34302  291.99 0854.41
2009/04/23 15:22:18.3     -46     94     77    105    130 333.7  39.7  34272  291.47 0854.41
2009/04/23 15:22:18.4     -24    328    133    329    354 355.8  23.2  34276  291.54 0854.41
2009/04/23 15:22:18.5     -94    358    113    371    389 345.2  17.0  34288  291.76 0854.41
2009/04/23 15:22:18.6    -155    333    113    368    385 335.0  17.1  34298  291.91 0854.41
2009/04/23 15:22:18.7    -444    359    -35    572    574 309.0  -3.5  34204  290.31 0854.41
2009/04/23 15:22:18.8    -320    289     18    432    433 312.1   2.5  34226  290.68 0854.41
2009/04/23 15:22:18.9    -333    263    -49    425    428 308.4  -6.7  34172  289.78 0854.41
2009/04/23 15:22:19.0    -315    269   -101    415    428 310.5 -13.7  34154  289.48 0854.41
2009/04/23 15:22:19.1    -268    265   -163    377    410 314.7 -29.4  34152  289.45 0854.41
2009/04/23 15:22:19.2    -328    211   -173    391    427 302.8 -30.0  34182  289.95 0854.41
2009/04/23 15:22:19.3    -368    166    -44    404    407 294.3  -6.2  34206  290.34 0854.41
2009/04/23 15:22:19.4    -194    165     46    255    260 310.4  10.3  34196  290.17 0854.41
2009/04/23 15:22:19.5    -462     41     54    464    468 275.2   6.7  34228  290.74 0854.41
2009/04/23 15:22:19.6    -587      8     40    588    590 270.8   3.9  34216  290.53 0854.41
2009/04/23 15:22:19.7    -346      0     32    347    349 270.0   5.3  34208  290.38 0854.41
2009/04/23 15:22:19.8    -421    140    120    444    461 288.4  15.1  34280  291.60 0854.41
2009/04/23 15:22:19.9    -451    201     80    494    501 294.1   9.2  34256  291.19 0854.41
2009/04/23 15:22:20.0    -500     58     70    504    510 276.7   8.0  34258  291.22 0854.41
2009/04/23 15:22:20.1    -600     54    -56    603    606 275.2  -5.4  34166  289.69 0854.41
2009/04/23 15:22:20.2    -577     19   -126    578    592 271.9 -12.4  34166  289.66 0854.41
2009/04/23 15:22:20.3    -603    149   -186    622    650 283.9 -16.7  34244  291.01 0854.41
2009/04/23 15:22:20.4    -672    215   -230    706    743 287.8 -18.1  34196  290.18 0854.41
2009/04/23 15:22:20.5    -646    171   -220    669    704 284.9 -23.3  34168  289.71 0854.41
2009/04/23 15:22:20.6    -704    233   -232    742    778 288.3 -17.4  34168  289.70 0854.41
2009/04/23 15:22:20.7    -713    283   -250    768    808 291.7 -18.1  34168  289.71 0854.41
2009/04/23 15:22:20.8    -719    171   -241    740    779 283.4 -18.1  34170  289.75 0854.41
2009/04/23 15:22:20.9    -664    188   -158    691    709 285.8 -12.9  34176  289.83 0854.41
2009/04/23 15:22:21.0    -678    105   -209    686    718 278.8 -16.9  34190  290.08 0854.41
2009/04/23 15:22:21.1    -640    187   -167    667    688 286.3 -14.1  34166  289.66 0854.41
2009/04/23 15:22:21.2    -711    177   -215    733    764 284.0 -16.4  34190  290.09 0854.41
2009/04/23 15:22:21.3    -664      8   -210    665    697 270.7 -22.5  34178  289.88 0854.41
2009/04/23 15:22:21.4    -614     26   -185    615    643 272.5 -16.8  34182  289.96 0854.41
2009/04/23 15:22:21.5    -625    -13   -140    626    642 268.7 -12.7  34176  289.84 0854.41
2009/04/23 15:22:21.6    -605      6    -96    606    614 270.6  -9.0  34194  290.14 0854.41
2009/04/23 15:22:21.7    -487    -35    -62    489    494 265.9  -7.3  34198  290.22 0854.41
2009/04/23 15:22:21.8    -239    292    -97    378    391 320.7 -14.4  34204  290.32 0854.41
2009/04/23 15:22:21.9    -407    191    -32    450    452 295.2  -4.1  34208  290.39 0854.41
2009/04/23 15:22:22.0    -407    254    -20    480    481 302.0  -2.5  34216  290.52 0854.41
2009/04/23 15:22:22.1    -496    252     42    557    559 297.0   4.4  34218  290.57 0854.41
2009/04/23 15:22:22.2    -578     89    -78    585    591 278.8  -7.6  34184  289.97 0854.41
2009/04/23 15:22:22.3    -478    169     52    508    511 289.5   5.9  34190  290.08 0854.41
2009/04/23 15:22:22.4    -461    232     54    517    520 296.7   6.0  34212  290.45 0854.41
2009/04/23 15:22:22.5    -360     79     82    369    379 282.4  12.6  34218  290.57 0854.41
2009/04/23 15:22:22.6    -184      0    -54    185    193 270.0 -16.4  34198  290.21 0854.41
2009/04/23 15:22:22.7     -81      5     -1     82     83 273.9  -1.3  34200  290.26 0854.41
2009/04/23 15:22:22.8      53    141     -8    151    152  20.9  -3.1  34204  290.33 0854.41
2009/04/23 15:22:22.9     188     70     46    201    207  69.6  13.1  34206  290.35 0854.41
2009/04/23 15:22:23.0     154    149    129    215    250  45.8  34.2  34204  290.31 0854.41
2009/04/23 15:22:23.1     178    230    203    292    355  37.8  38.3  34204  290.32 0854.44
2009/04/23 15:22:23.2      79    256    255    269    370  17.2  48.4  34206  290.35 0854.44
2009/04/23 15:22:23.3      -5    275    199    276    340 358.9  39.3  34204  290.31 0854.44
2009/04/23 15:22:23.4     -98    359    165    373    407 344.7  25.6  34212  290.47 0854.44
2009/04/23 15:22:23.5     -93    299     22    314    315 342.6   4.0  34226  290.70 0854.44
2009/04/23 15:22:23.6     196    229     42    302    306  40.5   8.0  34208  290.37 0854.44
2009/04/23 15:22:23.7      45    431    150    434    460   6.1  19.1  34214  290.48 0854.44
2009/04/23 15:22:23.8      34    442    178    444    478   4.5  23.0  34232  290.78 0854.44
2009/04/23 15:22:23.9      -2    476    130    477    495 359.7  15.3  34232  290.81 0854.44
2009/04/23 15:22:24.0    -235    467    -63    523    527 333.3  -6.9  34186  290.02 0854.44
2009/04/23 15:22:24.1    -281    386   -145    478    500 323.9 -17.0  34182  289.96 0854.44
2009/04/23 15:22:24.2    -192    401   -124    445    461 334.4 -20.1  34182  289.94 0854.44
2009/04/23 15:22:24.3    -121    381    -86    400    410 342.3 -12.2  34198  290.21 0854.44
2009/04/23 15:22:24.4      14    391    -81    392    401   2.1 -11.8  34198  290.21 0854.44
2009/04/23 15:22:24.5     138    240    122    277    302  29.9  25.2  34222  290.61 0854.44
2009/04/23 15:22:24.6     178    321    176    368    407  29.0  27.3  34218  290.54 0854.44
2009/04/23 15:22:24.7     279    398    222    487    535  35.0  26.2  34220  290.60 0854.44
2009/04/23 15:22:24.8     194    364    148    413    438  28.1  20.6  34232  290.80 0854.44
2009/04/23 15:22:24.9     211    292    132    361    384  35.9  21.0  34230  290.76 0854.44
2009/04/23 15:22:25.0     158    295    198    335    389  28.3  33.5  34240  290.93 0854.44
2009/04/23 15:22:25.1     186    265    176    325    369  35.1  30.9  34246  291.03 0854.44
2009/04/23 15:22:25.2     -18    451    187    452    489 357.7  23.8  34246  291.03 0854.44
2009/04/23 15:22:25.3     132    263    194    295    353  26.7  36.5  34242  290.96 0854.44
2009/04/23 15:22:25.4      85    265    179    279    331  17.8  35.6  34238  290.88 0854.44
2009/04/23 15:22:25.5      91    360    192    372    418  14.3  29.4  34246  291.04 0854.44
2009/04/23 15:22:25.6      57    339    197    344    396   9.6  32.4  34270  291.45 0854.44
2009/04/23 15:22:25.7     -27    304    193    306    361 354.9  35.5  34276  291.54 0854.44
2009/04/23 15:22:25.8     -16    283    182    284    337 356.6  35.6  34274  291.50 0854.44
2009/04/23 15:22:25.9      -9    306    148    307    340 358.2  27.4  34262  291.30 0854.44
2009/04/23 15:22:26.0     184    277    205    333    391  33.7  34.5  34254  291.17 0854.44
2009/04/23 15:22:26.1     186    321    176    372    411  30.1  27.2  34264  291.34 0854.49
2009/04/23 15:22:26.2      41    362    133    365    388   6.6  20.9  34264  291.35 0854.49
2009/04/23 15:22:26.3     -31    470     95    472    482 356.2  11.4  34258  291.25 0854.49
2009/04/23 15:22:26.4      19    371     65    372    378   3.0  10.0  34266  291.37 0854.49
2009/04/23 15:22:26.5      69    286    178    295    344  13.6  34.1  34268  291.39 0854.49
2009/04/23 15:22:26.6      29    376    172    378    415   4.5  26.2  34266  291.36 0854.49
2009/04/23 15:22:26.7     143    383    106    409    423  20.5  14.6  34238  290.89 0854.49
2009/04/23 15:22:26.8      56    359     51    364    368   8.9   8.0  34248  291.05 0854.49
2009/04/23 15:22:26.9      50    387     -1    391    392   7.4  -0.3  34250  291.10 0854.49
2009/04/23 15:22:27.0     100    281     18    299    300  19.6   3.6  34262  291.29 0854.49
2009/04/23 15:22:27.1      14    313     80    314    325   2.7  14.4  34270  291.43 0854.49
2009/04/23 15:22:27.2     108    248     84    271    284  23.6  17.3  34254  291.16 0854.49
2009/04/23 15:22:27.3     290    264     -9    393    394  47.7  -1.4  34250  291.11 0854.49
2009/04/23 15:22:27.4     194    336   -107    388    402  30.0 -20.0  34258  291.22 0854.49
2009/04/23 15:22:27.5     114    210    -85    239    254  28.5 -19.7  34248  291.07 0854.49
2009/04/23 15:22:27.6     200    263   -190    331    381  37.2 -37.0  34248  291.08 0854.49
2009/04/23 15:22:27.7     287    273   -181    397    436  46.4 -30.6  34240  290.92 0854.49
2009/04/23 15:22:27.8     379    251    -41    455    457  56.5  -5.2  34230  290.77 0854.49
2009/04/23 15:22:27.9     516    277    -96    586    594  61.7  -9.3  34236  290.87 0854.49
2009/04/23 15:22:28.0     542     26     42    543    545  87.2   4.5  34236  290.87 0854.52
2009/04/23 15:22:28.1     359    -28    -59    361    366  94.6  -9.3  34234  290.84 0854.52
2009/04/23 15:22:28.2     297     41   -121    300    323  82.1 -27.6  34232  290.78 0854.52
2009/04/23 15:22:28.3     468     86    225    476    526  79.5  27.1  34262  291.29 0854.52
2009/04/23 15:22:28.4     376     -3    206    377    429  90.5  31.3  34270  291.43 0854.52
2009/04/23 15:22:28.5     253     73    275    264    381  73.8  51.4  34270  291.44 0854.52
2009/04/23 15:22:28.6     294    -82    218    306    375 105.7  39.1  34286  291.71 0854.52
2009/04/23 15:22:28.7     373    -43    242    376    447  96.6  35.6  34250  291.09 0854.52
2009/04/23 15:22:28.8     100    -88    288    134    317 131.3  73.4  34260  291.27 0854.52
2009/04/23 15:22:28.9       0    -10    233     11    233 182.7  90.0  34270  291.45 0854.52
2009/04/23 15:22:29.0     -99    -92    194    136    236 226.9  61.5  34266  291.38 0854.52
2009/04/23 15:22:29.1      71    -39    212     82    227 118.9  77.6  34260  291.26 0854.52
2009/04/23 15:22:29.2     422    236    169    484    512  60.7  20.0  34238  290.88 0854.52
2009/04/23 15:22:29.3     190    190    256    269    371  45.0  48.5  34240  290.93 0854.52
2009/04/23 15:22:29.4     201    151    212    252    329  53.1  44.3  34234  290.82 0854.52
2009/04/23 15:22:29.5     279    -56    364    285    462 101.4  58.2  34232  290.80 0854.52
2009/04/23 15:22:29.6       7   -129    322    130    347 176.9  77.0  34256  291.19 0854.52
2009/04/23 15:22:29.8     -19     71    184     74    198 344.8  77.1  34250  291.09 0854.52
2009/04/23 15:22:29.9      68    145    188    161    247  25.3  55.3  34226  290.70 0854.52
2009/04/23 15:22:30.0     262    103    236    282    367  68.5  44.1  34220  290.59 0854.52
2009/04/23 15:22:30.1     245    155    293    291    412  57.6  50.2  34222  290.62 0854.50
2009/04/23 15:22:30.2     169    122    191    209    283  54.0  47.1  34220  290.58 0854.50
2009/04/23 15:22:30.3     259      3    148    260    299  89.2  32.1  34222  290.63 0854.50
2009/04/23 15:22:30.4     292     -8    105    293    311  91.7  20.2  34238  290.90 0854.50
2009/04/23 15:22:30.5     459     13    -52    460    463  88.3  -6.5  34246  291.02 0854.50
2009/04/23 15:22:30.6     366     63    -50    372    376  80.1  -7.7  34248  291.08 0854.50
2009/04/23 15:22:30.7     325      0     16    326    327  89.9   2.9  34252  291.14 0854.50
2009/04/23 15:22:30.8     292    -61     60    299    306 101.9  11.5  34250  291.10 0854.50
2009/04/23 15:22:30.9     176   -176    271    250    368 135.0  52.5  34274  291.51 0854.50
2009/04/23 15:22:31.0       0    -53    200     54    207 180.9  84.9  34270  291.45 0854.50
2009/04/23 15:22:31.1      33   -153    232    157    280 167.5  62.7  34260  291.26 0854.50
2009/04/23 15:22:31.2     145    120    165    189    250  50.2  45.8  34216  290.53 0854.50
2009/04/23 15:22:31.3     221     89    207    239    316  68.0  45.5  34210  290.42 0854.50
2009/04/23 15:22:31.4      95     93    282    134    312  45.6  72.8  34234  290.82 0854.50
2009/04/23 15:22:31.5      26     17    187     32    189  57.5  90.0  34244  291.01 0854.50
2009/04/23 15:22:31.6     138     -6    254    139    289  92.6  68.9  34244  290.99 0854.50
2009/04/23 15:22:31.7     180    -98    293    206    358 118.6  61.5  34236  290.87 0854.50
2009/04/23 15:22:31.8      30    -33    155     45    161 137.7  83.5  34248  291.06 0854.50
2009/04/23 15:22:31.9      -7      8    143     11    143 320.4  90.0  34254  291.18 0854.50
2009/04/23 15:22:32.0     -17    -53    159     56    168 198.7  80.2  34242  290.98 0854.50
2009/04/23 15:22:32.1     -14   -177    185    178    256 184.7  51.2  34238  290.88 0854.34
2009/04/23 15:22:32.2    -127   -178    186    219    287 215.6  44.8  34250  291.09 0854.34
2009/04/23 15:22:32.3     -33   -132     73    137    155 194.3  30.8  34250  291.11 0854.34
2009/04/23 15:22:32.4     -67   -120     26    138    141 209.4  11.0  34246  291.03 0854.34
2009/04/23 15:22:32.5     -80     44   -147     92    173 298.9 -69.1  34240  290.94 0854.34
2009/04/23 15:22:32.6    -143     47    -89    151    175 288.2 -38.1  34218  290.57 0854.34
2009/04/23 15:22:32.7     -29    -34    -15     46     48 220.5 -23.8  34224  290.65 0854.34
2009/04/23 15:22:32.8     -30    -42    -16     52     54 216.1 -23.8  34226  290.69 0854.34
2009/04/23 15:22:32.9     -23    -70     -9     74     75 198.5  -7.2  34220  290.58 0854.34
2009/04/23 15:22:33.0     -46   -138     58    146    157 198.7  22.8  34220  290.60 0854.34
2009/04/23 15:22:33.1     -18   -154     48    156    164 186.7  17.3  34220  290.58 0854.34
2009/04/23 15:22:33.2      67    -65     63     94    113 134.4  36.5  34236  290.87 0854.34
2009/04/23 15:22:33.3      86     89    104    124    161  44.1  44.5  34274  291.52 0854.34
2009/04/23 15:22:33.4     -22     52    107     57    121 336.4  69.8  34290  291.77 0854.34
2009/04/23 15:22:33.5       3     34     49     35     60   6.2  60.5  34286  291.71 0854.34
2009/04/23 15:22:33.6      34     74     54     82     98  24.9  36.5  34292  291.83 0854.34
2009/04/23 15:22:33.7      18     47     10     51     53  20.9  11.1  34294  291.86 0854.34
2009/04/23 15:22:33.8      -3     21     10     22     24 352.0  25.1  34292  291.83 0854.34
2009/04/23 15:22:33.9     -32     20     -6     39     40 302.4  -9.3  34294  291.86 0854.34
2009/04/23 15:22:34.0     -21      3     13     22     25 277.9  35.5  34284  291.67 0854.34
2009/04/23 15:22:34.1     -23    -23     44     33     55 225.0  59.4  34276  291.54 0854.31
2009/04/23 15:22:34.2      -4     14     76     15     77 341.5  89.1  34290  291.79 0854.31
2009/04/23 15:22:34.3      31      0     45     32     55  90.0  61.5  34288  291.74 0854.31
2009/04/23 15:22:34.4      16      6     32     18     36  68.3  66.8  34286  291.71 0854.31
2009/04/23 15:22:34.5      16     27      8     32     34  30.7  15.3  34280  291.62 0854.31
2009/04/23 15:22:34.6     100    131    -70    166    180  37.4 -28.5  34248  291.06 0854.31
2009/04/23 15:22:34.7     116    115    -16    164    165  45.3  -5.6  34266  291.37 0854.31
2009/04/23 15:22:34.8     145    239    -56    280    286  31.2 -11.3  34266  291.36 0854.31
2009/04/23 15:22:34.9     171    103     33    200    203  58.9   9.5  34268  291.40 0854.31
2009/04/23 15:22:35.0     172     50    -10    180    181  73.6  -3.2  34264  291.35 0854.31
2009/04/23 15:22:35.1     191     31     23    194    196  80.5   6.9  34236  290.87 0854.31
2009/04/23 15:22:35.2     170     21     55    172    181  82.8  17.9  34240  290.92 0854.31
2009/04/23 15:22:35.3     201    -35    142    205    249 100.1  38.0  34236  290.85 0854.31
2009/04/23 15:22:35.4     238    -40    135    242    277  99.6  31.4  34232  290.80 0854.31
2009/04/23 15:22:35.5     192     43    140    197    241  77.2  38.6  34232  290.81 0854.31
2009/04/23 15:22:35.6     139     34     66    144    158  76.3  26.2  34246  291.03 0854.31
2009/04/23 15:22:35.7      96      8     38     97    104  84.8  22.0  34246  291.04 0854.31
2009/04/23 15:22:35.8      12     -4      0     13     14 108.4  -2.2  34240  290.94 0854.31
2009/04/23 15:22:35.9      17    -11    -17     21     27 122.5 -48.1  34244  290.99 0854.31
2009/04/23 15:22:36.0     -31      2    -59     32     67 274.4 -73.3  34240  290.92 0854.31
2009/04/23 15:22:36.1      18     61   -106     64    123  16.9 -70.1  34234  290.82 0854.33
2009/04/23 15:22:36.2      80     46    -53     93    107  59.8 -36.8  34232  290.79 0854.33
2009/04/23 15:22:36.3     113     22    -39    116    122  79.0 -23.6  34234  290.82 0854.33
2009/04/23 15:22:36.4     136     -4     13    137    138  91.7   5.4  34238  290.91 0854.33
2009/04/23 15:22:36.5     102     13     20    103    105  82.5  11.1  34232  290.79 0854.33
2009/04/23 15:22:36.6      61     -4     -3     62     63  94.4  -3.1  34232  290.81 0854.33
2009/04/23 15:22:36.7      44    -36    -45     58     73 129.5 -47.1  34232  290.81 0854.33
2009/04/23 15:22:36.8      68    -37    -22     78     82 118.9 -16.0  34230  290.77 0854.33
2009/04/23 15:22:36.9     107    -51    -10    119    120 115.8  -5.2  34224  290.65 0854.33
2009/04/23 15:22:37.0     146    -55     20    157    159 110.8   7.5  34218  290.57 0854.33
2009/04/23 15:22:37.1     145    -51     15    154    155 109.5   5.9  34224  290.65 0854.33
2009/04/23 15:22:37.2     108    -81     42    136    143 126.9  17.3  34220  290.60 0854.33
2009/04/23 15:22:37.3     121   -177     10    215    216 145.7   2.9  34206  290.36 0854.33
2009/04/23 15:22:37.4     141   -221     49    263    268 147.5  10.6  34208  290.39 0854.33
2009/04/23 15:22:37.5      81   -242    -62    256    264 161.5 -13.7  34212  290.44 0854.33
2009/04/23 15:22:37.6     -70   -332   -121    340    360 192.0 -24.7  34218  290.55 0854.33
2009/04/23 15:22:37.7      62   -377   -123    383    402 170.6 -22.9  34208  290.38 0854.33
2009/04/23 15:22:37.8     172   -173    -82    245    259 135.1 -18.6  34214  290.48 0854.33
2009/04/23 15:22:37.9       2   -158     66    159    172 179.1  23.8  34256  291.20 0854.33
2009/04/23 15:22:38.0      41    -83    109     93    143 153.7  54.8  34256  291.20 0854.33
2009/04/23 15:22:38.1      -8     26    110     28    113 341.5  85.4  34270  291.45 0854.36
2009/04/23 15:22:38.2     -63     63    128     90    156 314.9  61.5  34264  291.35 0854.36
2009/04/23 15:22:38.3     -67     98    102    119    156 325.7  45.1  34250  291.09 0854.36
2009/04/23 15:22:38.4    -109    230     90    255    270 334.7  20.0  34216  290.51 0854.36
2009/04/23 15:22:38.5    -102    196     73    222    234 332.4  18.4  34214  290.50 0854.36
2009/04/23 15:22:38.6     -87    224    -41    241    245 338.6  -9.8  34212  290.44 0854.36
2009/04/23 15:22:38.7     -79    262    -45    274    278 343.1  -9.4  34236  290.85 0854.36
2009/04/23 15:22:38.8    -170    483   -184    513    545 340.6 -24.8  34222  290.63 0854.36
2009/04/23 15:22:38.9    -190    354   -300    402    501 331.8 -45.0  34202  290.29 0854.36
2009/04/23 15:22:39.0    -150    251      2    293    294 329.2   0.5  34240  290.93 0854.36
2009/04/23 15:22:39.1    -180    159    106    241    263 311.6  25.1  34254  291.16 0854.36
2009/04/23 15:22:39.2     -94     11    104     95    140 277.0  52.2  34250  291.11 0854.36
2009/04/23 15:22:39.3     -72    131    224    150    269 331.0  63.2  34242  290.97 0854.36
2009/04/23 15:22:39.4      51     49    207     71    218  46.0  80.7  34246  291.03 0854.36
2009/04/23 15:22:39.5      25     40    169     48    175  32.6  84.1  34248  291.06 0854.36
2009/04/23 15:22:39.6    -170     87    188    192    268 297.1  49.8  34240  290.92 0854.36
2009/04/23 15:22:39.7    -324    153    147    359    387 295.3  23.4  34262  291.32 0854.36
2009/04/23 15:22:39.8    -310    161     10    350    351 297.4   1.8  34242  290.96 0854.36
2009/04/23 15:22:39.9    -303    206     -8    367    368 304.3  -1.3  34248  291.06 0854.36
2009/04/23 15:22:40.0    -270    211     -7    343    344 308.0  -1.3  34244  291.01 0854.36
2009/04/23 15:22:40.1    -275    189     86    334    345 304.5  14.5  34244  291.00 0854.37
2009/04/23 15:22:40.2    -207    115     82    237    252 299.1  19.2  34250  291.10 0854.37
2009/04/23 15:22:40.3    -198    110     53    227    234 299.1  13.2  34252  291.13 0854.37
2009/04/23 15:22:40.4     -78    158     67    177    189 333.5  21.7  34258  291.23 0854.37
2009/04/23 15:22:40.5     -84    339     68    350    357 346.0  11.0  34258  291.22 0854.37
2009/04/23 15:22:40.6    -161    367    140    401    425 336.3  19.3  34272  291.46 0854.37
2009/04/23 15:22:40.7    -155    261     24    304    306 329.2   4.6  34312  292.16 0854.37
2009/04/23 15:22:40.8    -182    287    163    340    377 327.6  27.3  34280  291.61 0854.37
2009/04/23 15:22:40.9     -88    151    119    176    212 329.7  37.3  34278  291.59 0854.37
2009/04/23 15:22:41.0     -58    149    197    161    254 338.6  56.4  34298  291.91 0854.37
2009/04/23 15:22:41.1      18    244    152    245    288   4.2  35.0  34268  291.41 0854.37
2009/04/23 15:22:41.2     -67    228    170    238    292 343.5  39.3  34252  291.12 0854.37
2009/04/23 15:22:41.3    -188    207    162    280    323 317.7  32.7  34296  291.87 0854.37
2009/04/23 15:22:41.4    -239    239    108    339    356 315.0  17.7  34298  291.90 0854.37
2009/04/23 15:22:41.5    -250    261     60    362    367 316.2   9.4  34290  291.78 0854.37
2009/04/23 15:22:41.6    -238    238    -10    337    338 315.0  -1.8  34208  290.40 0854.37
2009/04/23 15:22:41.7    -246    114    -12    272    273 294.8  -2.6  34202  290.27 0854.37
2009/04/23 15:22:41.8    -313     -9    -17    314    315 268.3  -3.1  34186  290.00 0854.37
2009/04/23 15:22:41.9    -404    -68      0    410    411 260.4   0.0  34200  290.24 0854.37
2009/04/23 15:22:42.0    -289   -255   -124    386    405 228.6 -22.9  34208  290.38 0854.37
2009/04/23 15:22:42.1    -281    -81   -105    293    312 253.8 -19.7  34200  290.24 0854.39
2009/04/23 15:22:42.2    -263    -67    -82    272    285 255.6 -16.8  34198  290.20 0854.39
2009/04/23 15:22:42.3    -349    -31   -109    351    367 264.9 -22.3  34202  290.28 0854.39
2009/04/23 15:22:42.4    -293     -8   -135    294    323 268.3 -30.8  34204  290.31 0854.39
2009/04/23 15:22:42.5    -261     70    -55    271    277 285.0 -11.6  34204  290.31 0854.39
2009/04/23 15:22:42.6    -201    128     37    239    242 302.4   8.9  34222  290.61 0854.39
2009/04/23 15:22:42.7    -226    154    -90    274    288 304.2 -23.8  34202  290.27 0854.39
2009/04/23 15:22:42.8    -262    200   -114    330    350 307.3 -19.1  34228  290.72 0854.39
2009/04/23 15:22:42.9    -310    133   -150    338    369 293.2 -30.0  34202  290.30 0854.39
2009/04/23 15:22:43.0    -387    262   -154    468    492 304.1 -23.3  34238  290.88 0854.39
2009/04/23 15:22:43.1    -309    391    -44    499    502 321.7  -5.1  34234  290.83 0854.39
2009/04/23 15:22:43.2    -318    279   -133    424    444 311.3 -22.4  34198  290.21 0854.39
2009/04/23 15:22:43.3    -539    117   -150    552    573 282.3 -15.2  34196  290.19 0854.39
2009/04/23 15:22:43.4    -523    149   -188    544    576 285.9 -19.1  34204  290.31 0854.39
2009/04/23 15:22:43.5    -518    149   -196    540    574 286.0 -25.3  34198  290.23 0854.39
2009/04/23 15:22:43.6    -497    225   -195    546    579 294.4 -24.8  34200  290.24 0854.39
2009/04/23 15:22:43.7    -432    251   -217    500    545 300.2 -29.5  34200  290.26 0854.39
2009/04/23 15:22:43.8    -321    200   -191    379    424 302.0 -33.1  34198  290.21 0854.39
2009/04/23 15:22:43.9    -278    142   -274    313    415 297.0 -50.2  34202  290.30 0854.39
2009/04/23 15:22:44.0    -222    119   -255    252    358 298.2 -54.6  34202  290.29 0854.39
2009/04/23 15:22:44.1    -346     87   -392    357    530 284.2 -57.6  34226  290.68 0854.36
2009/04/23 15:22:44.2    -384    140   -348    410    537 290.1 -48.9  34236  290.85 0854.36
2009/04/23 15:22:44.3    -205    110   -187    233    298 298.4 -47.4  34226  290.68 0854.36
2009/04/23 15:22:44.4     -38    220    -62    224    233 350.0 -15.5  34230  290.75 0854.36
2009/04/23 15:22:44.5      77    218    132    232    266  19.6  32.3  34214  290.48 0854.36
2009/04/23 15:22:44.6     119    376     -9    395    396  17.6  -1.4  34238  290.91 0854.36
2009/04/23 15:22:44.7      45    204     74    209    221  12.5  20.0  34228  290.74 0854.36
2009/04/23 15:22:44.8       8    186    157    187    244   2.7  44.3  34212  290.47 0854.36
2009/04/23 15:22:44.9      26     78    170     83    189  18.5  72.7  34216  290.52 0854.36
2009/04/23 15:22:45.0     177    -36    260    181    316 101.5  62.0  34214  290.48 0854.36
2009/04/23 15:22:45.1     -41     96    185    105    212 336.8  67.7  34228  290.72 0854.36
2009/04/23 15:22:45.2      17    -22    160     28    162 142.2  90.0  34230  290.75 0854.36
2009/04/23 15:22:45.3      78   -172    215    190    286 155.5  54.2  34230  290.75 0854.36
2009/04/23 15:22:45.4     -19   -152    155    154    218 187.1  50.1  34230  290.77 0854.36
2009/04/23 15:22:45.5    -125   -208     31    243    246 211.0   7.5  34234  290.83 0854.36
2009/04/23 15:22:45.6     -58   -198     74    207    219 196.3  20.4  34238  290.91 0854.36
2009/04/23 15:22:45.7    -248   -299   -115    389    405 219.7 -21.5  34214  290.49 0854.36
2009/04/23 15:22:45.8    -520   -213   -267    563    623 247.7 -31.6  34216  290.53 0854.36
2009/04/23 15:22:45.9    -357   -341     27    495    496 226.3   3.1  34214  290.49 0854.36
2009/04/23 15:22:46.0    -115   -191    195    224    296 211.0  45.8  34238  290.88 0854.36
2009/04/23 15:22:46.1     -50     16    138     53    147 288.2  78.2  34260  291.26 0854.36
2009/04/23 15:22:46.2    -123   -106     87    163    184 229.1  30.6  34250  291.11 0854.36
2009/04/23 15:22:46.3      13   -173     59    174    184 175.5  18.9  34248  291.06 0854.36
2009/04/23 15:22:46.4     -12   -208     98    209    230 183.4  27.1  34250  291.11 0854.36
2009/04/23 15:22:46.5       0   -254    113    255    278 180.0  25.3  34254  291.16 0854.36
2009/04/23 15:22:46.6      45   -391     91    394    405 173.3  13.1  34242  290.98 0854.36
2009/04/23 15:22:46.7      51   -378    224    382    442 172.3  33.3  34242  290.95 0854.36
2009/04/23 15:22:46.8      15   -450    159    451    479 178.0  19.5  34238  290.88 0854.36
2009/04/23 15:22:46.9      34   -444    127    446    464 175.6  15.9  34238  290.90 0854.36
2009/04/23 15:22:47.0     -33   -426    153    428    454 184.5  20.6  34240  290.94 0854.36
2009/04/23 15:22:47.1     -78   -480    132    487    505 189.2  15.2  34240  290.93 0854.38
2009/04/23 15:22:47.2    -134   -496    115    515    528 195.2  12.6  34242  290.97 0854.38
2009/04/23 15:22:47.3    -119   -560     59    573    577 192.1   5.9  34232  290.80 0854.38
2009/04/23 15:22:47.4     -71   -398    106    405    419 190.2  14.7  34238  290.90 0854.38
2009/04/23 15:22:47.5    -155   -341     46    375    378 204.4   7.1  34238  290.89 0854.38
2009/04/23 15:22:47.6    -137   -370     85    395    405 200.3  12.2  34238  290.91 0854.38
2009/04/23 15:22:47.7     -77   -475    139    482    502 189.2  16.1  34252  291.15 0854.38
2009/04/23 15:22:47.8    -106   -486    125    498    514 192.4  14.2  34246  291.02 0854.38
2009/04/23 15:22:47.9    -103   -713    105    721    729 188.2   8.3  34240  290.93 0854.38
2009/04/23 15:22:48.0     -90   -648     66    655    659 187.9   5.8  34236  290.85 0854.38
2009/04/23 15:22:48.1     -89   -548    244    556    607 189.2  25.2  34278  291.56 0854.38
2009/04/23 15:22:48.2      37   -613    181    615    642 176.5  16.4  34240  290.94 0854.38
2009/04/23 15:22:48.3     132   -658    239    672    714 168.7  19.6  34226  290.69 0854.38
2009/04/23 15:22:48.4      49   -576    284    579    644 175.1  28.0  34228  290.72 0854.38
2009/04/23 15:22:48.5     160   -594    124    616    629 164.9  11.4  34222  290.62 0854.38
2009/04/23 15:22:48.6     201   -700     69    729    733 164.0   5.4  34196  290.18 0854.38
2009/04/23 15:22:48.7     163   -760     97    778    785 167.9   7.1  34166  289.69 0854.38
2009/04/23 15:22:48.8      68   -732    263    736    781 174.7  20.6  34152  289.43 0854.38
2009/04/23 15:22:48.9      -2   -686    304    687    751 180.2  25.5  34152  289.42 0854.38
2009/04/23 15:22:49.0      96   -722    113    729    738 172.4   8.8  34198  290.21 0854.38
2009/04/23 15:22:49.1     199   -705     37    733    734 164.2   2.9  34202  290.29 0854.40
2009/04/23 15:22:49.2      99   -596     31    605    606 170.6   3.0  34208  290.37 0854.40
2009/04/23 15:22:49.3     -56   -570     21    573    574 185.7   2.1  34222  290.64 0854.40
2009/04/23 15:22:49.4     -73   -574     37    579    581 187.3   3.7  34246  291.02 0854.40
2009/04/23 15:22:49.5     -78   -448    -32    455    457 189.9  -4.1  34260  291.28 0854.40
2009/04/23 15:22:49.6     130   -664    -61    677    680 168.9  -5.2  34216  290.51 0854.40
2009/04/23 15:22:49.7     -39   -466    126    468    485 184.8  15.1  34212  290.45 0854.40
2009/04/23 15:22:49.8     297   -508     33    589    590 149.7   3.2  34186  290.02 0854.40
2009/04/23 15:22:49.9     166   -604      2    627    628 164.6   0.2  34188  290.03 0854.40
2009/04/23 15:22:50.0      28   -704    152    705    722 177.7  12.2  34172  289.76 0854.40
2009/04/23 15:22:50.1     -61   -682    142    685    700 185.2  11.8  34180  289.90 0854.40
2009/04/23 15:22:50.2       1   -576     72    577    582 179.9   7.2  34190  290.07 0854.40
2009/04/23 15:22:50.3     -82   -524    -63    531    535 188.9  -6.8  34206  290.36 0854.40
2009/04/23 15:22:50.4      71   -566   -119    571    584 172.8 -11.8  34208  290.39 0854.40
2009/04/23 15:22:50.5      54   -479   -126    483    500 173.5 -14.7  34202  290.29 0854.40
2009/04/23 15:22:50.6      97   -331     66    346    353 163.6  10.8  34194  290.16 0854.40
2009/04/23 15:22:50.7       9   -171    166    172    239 176.9  49.0  34184  289.97 0854.40
2009/04/23 15:22:50.8       9   -233     11    234    235 177.8   2.9  34206  290.34 0854.40
2009/04/23 15:22:50.9     -45   -223     -5    228    229 191.6  -1.3  34198  290.23 0854.40
2009/04/23 15:22:51.0     -18   -286    -15    287    288 183.8  -3.1  34182  289.95 0854.40
2009/04/23 15:22:51.1      -7   -254      0    255    256 181.8   0.2  34182  289.93 0854.36
2009/04/23 15:22:51.2     -96   -299     -1    315    316 197.8  -0.3  34178  289.88 0854.36
2009/04/23 15:22:51.3     -40   -257    -71    261    271 188.9 -15.4  34176  289.83 0854.36
2009/04/23 15:22:51.4    -154   -387    -23    417    418 201.8  -3.2  34178  289.87 0854.36
2009/04/23 15:22:51.5     -51   -365    -27    369    370 188.0  -4.2  34172  289.77 0854.36
2009/04/23 15:22:51.6     -60   -387   -101    392    405 188.9 -14.5  34160  289.57 0854.36
2009/04/23 15:22:51.7     -33   -394     37    396    398 184.9   5.4  34178  289.87 0854.36
2009/04/23 15:22:51.8       0   -475     74    476    482 180.1   8.9  34166  289.67 0854.36
2009/04/23 15:22:51.9     -19   -451     56    452    456 182.5   7.1  34160  289.58 0854.36
2009/04/23 15:22:52.0      26   -416    202    417    463 176.4  27.4  34166  289.66 0854.36
2009/04/23 15:22:52.1    -111   -387    140    403    427 196.0  19.2  34156  289.51 0854.36
2009/04/23 15:22:52.2    -114   -242    197    268    332 205.2  39.9  34160  289.58 0854.36
2009/04/23 15:22:52.3      -3   -111    190    112    220 181.8  66.8  34172  289.79 0854.36
2009/04/23 15:22:52.4      14      0    169     15    169  90.0  90.0  34170  289.75 0854.36
2009/04/23 15:22:52.5       0   -227    280    228    361 179.8  56.6  34154  289.47 0854.36
2009/04/23 15:22:52.6     -40   -247    273    251    370 189.3  52.6  34168  289.71 0854.36
2009/04/23 15:22:52.7    -130   -313    268    340    432 202.6  42.2  34156  289.51 0854.36
2009/04/23 15:22:52.8    -215   -304    257    373    452 215.2  37.8  34158  289.53 0854.36
2009/04/23 15:22:52.9    -317   -359    186    480    514 221.5  22.3  34154  289.47 0854.36
2009/04/23 15:22:53.0    -341   -357    161    494    520 223.7  18.1  34156  289.49 0854.36
2009/04/23 15:22:53.1    -275   -307     97    413    425 221.9  13.2  34156  289.51 0854.32
2009/04/23 15:22:53.2    -187   -280    228    337    406 213.7  37.4  34168  289.72 0854.32
2009/04/23 15:22:53.3    -228   -395    215    457    505 210.0  27.1  34176  289.84 0854.32
2009/04/23 15:22:53.4    -291    -99    -30    308    310 251.2  -5.6  34174  289.80 0854.32
2009/04/23 15:22:53.5    -494   -155     73    518    524 252.6   8.1  34192  290.11 0854.32
2009/04/23 15:22:53.6    -487    -98     93    497    506 258.6  10.6  34186  290.01 0854.32
2009/04/23 15:22:53.7    -394   -119     27    412    413 253.2   3.8  34198  290.21 0854.32
2009/04/23 15:22:53.8    -481   -265   -186    550    581 241.1 -18.7  34196  290.17 0854.32
2009/04/23 15:22:53.9    -502   -236   -132    555    571 244.8 -13.4  34186  290.02 0854.32
2009/04/23 15:22:54.0    -408   -238   -104    473    485 239.7 -12.5  34160  289.57 0854.32
2009/04/23 15:22:54.1    -280   -208     -7    349    350 233.4  -1.2  34182  289.96 0854.32
2009/04/23 15:22:54.2      58   -257    -93    264    279 167.1 -24.4  34176  289.83 0854.32
2009/04/23 15:22:54.3      63   -305    173    312    356 168.2  31.4  34172  289.76 0854.32
2009/04/23 15:22:54.4      33   -252    217    255    334 172.4  44.8  34196  290.17 0854.32
2009/04/23 15:22:54.5      59   -220    133    228    263 164.8  32.9  34190  290.07 0854.32
2009/04/23 15:22:54.6      -9   -209    103    210    233 182.6  27.8  34176  289.85 0854.32
2009/04/23 15:22:54.7     -48   -170    141    177    226 195.8  43.0  34170  289.74 0854.32
2009/04/23 15:22:54.8     -45   -101    120    111    163 204.1  52.2  34178  289.89 0854.32
2009/04/23 15:22:54.9     -20   -122    151    124    195 189.3  56.4  34182  289.94 0854.32
2009/04/23 15:22:55.0      19   -230    171    231    287 175.1  40.1  34158  289.54 0854.32
2009/04/23 15:22:55.1      43   -286    178    290    340 171.3  34.6  34144  289.29 0854.30
2009/04/23 15:22:55.2      66   -198     41    209    214 161.5  11.1  34144  289.31 0854.30
2009/04/23 15:22:55.3     157   -134    -68    207    219 130.4 -18.3  34150  289.40 0854.30
2009/04/23 15:22:55.4      90   -234    -76    251    262 158.8 -21.7  34148  289.36 0854.30
2009/04/23 15:22:55.5      19   -267     -9    268    269 175.8  -2.1  34166  289.68 0854.30
2009/04/23 15:22:55.6     -97   -324     42    339    342 196.6   7.1  34176  289.84 0854.30
2009/04/23 15:22:55.7    -183   -298     73    350    358 211.6  11.8  34160  289.57 0854.30
2009/04/23 15:22:55.8    -190   -255    -21    319    320 216.7  -3.9  34148  289.36 0854.30
2009/04/23 15:22:55.9    -190    -96     66    214    225 243.1  17.3  34146  289.33 0854.30
2009/04/23 15:22:56.0     -88    -80     50    120    130 227.8  24.1  34156  289.52 0854.30
2009/04/23 15:22:56.1    -128   -127    175    181    251 225.3  49.2  34182  289.94 0854.30
2009/04/23 15:22:56.2    -197   -163     17    256    257 230.4   3.9  34178  289.88 0854.30
2009/04/23 15:22:56.3    -197   -126    -74    235    246 237.4 -22.8  34170  289.73 0854.30
2009/04/23 15:22:56.4    -335    106      3    352    353 287.6   0.5  34152  289.45 0854.30
2009/04/23 15:22:56.5    -214    -22     90    216    234 263.9  23.8  34182  289.94 0854.30
2009/04/23 15:22:56.6    -308   -173    288    354    456 240.6  43.5  34190  290.09 0854.30
2009/04/23 15:22:56.7    -222      3    177    223    284 271.0  42.7  34194  290.14 0854.30
2009/04/23 15:22:56.8    -457   -103    170    469    498 257.2  20.7  34182  289.96 0854.30
2009/04/23 15:22:56.9    -459    -64    111    464    478 262.0  13.5  34202  290.29 0854.30
2009/04/23 15:22:57.0    -109   -328    107    346    363 198.4  17.3  34166  289.69 0854.31
2009/04/23 15:22:57.1    -169   -358    171    397    432 205.3  24.9  34164  289.63 0854.31
2009/04/23 15:22:57.2     -76   -325    219    334    399 193.2  36.4  34156  289.52 0854.31
2009/04/23 15:22:57.3    -161   -236    192    286    344 214.3  37.0  34190  290.07 0854.31
2009/04/23 15:22:57.4    -585   -353    183    684    709 238.9  15.0  34212  290.45 0854.31
2009/04/23 15:22:57.6    -190   -438    256    478    542 203.5  30.6  34150  289.40 0854.31
2009/04/23 15:22:57.7      53   -533    178    536    565 174.3  18.4  34144  289.31 0854.31
2009/04/23 15:22:57.8      60   -635    173    638    662 174.6  15.2  34146  289.33 0854.31
2009/04/23 15:22:57.9      34   -686     85    687    693 177.1   7.1  34142  289.27 0854.31
2009/04/23 15:22:58.0      42   -531    205    533    571 175.4  22.2  34156  289.51 0854.31
2009/04/23 15:22:58.1     159   -493    267    519    583 162.1  29.3  34156  289.50 0854.31
2009/04/23 15:22:58.2     121   -452    263    468    536 165.0  31.9  34188  290.06 0854.31
2009/04/23 15:22:58.3     141   -588    231    605    647 166.4  22.1  34154  289.47 0854.31
2009/04/23 15:22:58.4      89   -655    315    662    733 172.2  27.3  34174  289.81 0854.31
2009/04/23 15:22:58.5     -53   -594    357    597    695 185.2  33.6  34158  289.54 0854.31
2009/04/23 15:22:58.6     -41   -530    324    532    622 184.5  34.2  34154  289.46 0854.31
2009/04/23 15:22:58.7    -184   -492    279    526    595 200.6  30.2  34150  289.41 0854.31
2009/04/23 15:22:58.8     200   -575    348    609    701 160.8  32.3  34148  289.38 0854.31
2009/04/23 15:22:58.9     217   -625    340    662    744 160.8  29.3  34150  289.40 0854.31
2009/04/23 15:22:59.0     129   -619    296    633    698 168.2  27.0  34142  289.26 0854.31
2009/04/23 15:22:59.1     389   -365    124    534    549 133.1  13.1  34150  289.41 0854.31
2009/04/23 15:22:59.2      89   -546     65    554    558 170.7   6.7  34154  289.46 0854.31
2009/04/23 15:22:59.3    -298   -503     25    585    586 210.7   2.5  34154  289.46 0854.31
2009/04/23 15:22:59.4    -354   -665    183    754    776 208.0  13.7  34134  289.12 0854.31
2009/04/23 15:22:59.5    -420   -699    190    816    838 211.0  13.1  34144  289.31 0854.31
2009/04/23 15:22:59.6    -642   -638     41    906    907 225.2   2.6  34160  289.56 0854.31
2009/04/23 15:22:59.7    -486   -611   -142    781    794 218.5 -10.4  34156  289.49 0854.31
2009/04/23 15:22:59.8    -445   -400     37    599    601 228.1   3.6  34152  289.42 0854.31
2009/04/23 15:22:59.9    -517   -370     32    636    637 234.4   2.9  34144  289.31 0854.31
2009/04/23 15:23:00.0    -457   -256   -151    524    545 240.7 -20.8  34144  289.31 0854.31
2009/04/23 15:23:00.1    -241   -218   -219    326    392 227.9 -41.7  34142  289.26 0854.31
2009/04/23 15:23:00.2    -163   -136   -209    213    298 230.0 -54.2  34138  289.19 0854.31
2009/04/23 15:23:00.3     -22   -210   -175    212    274 186.2 -48.1  34128  289.02 0854.31
2009/04/23 15:23:00.4      90    -79   -138    120    182 131.3 -58.7  34122  288.94 0854.31
2009/04/23 15:23:00.5     104   -228    -69    251    261 155.3 -15.5  34124  288.95 0854.31
2009/04/23 15:23:00.6     247   -352    123    431    449 144.9  15.9  34124  288.95 0854.31
2009/04/23 15:23:00.7      10   -490     -2    491    492 178.7  -0.3  34128  289.03 0854.31
2009/04/23 15:23:00.8      58   -561     27    565    566 174.0   2.8  34128  289.04 0854.31
2009/04/23 15:23:00.9      41   -527    -94    529    538 175.5 -10.1  34108  288.70 0854.31
2009/04/23 15:23:01.0      42   -555    -70    557    562 175.6  -7.2  34112  288.75 0854.31
2009/04/23 15:23:01.1     -80   -515    -56    522    526 188.9  -6.2  34114  288.79 0854.29
2009/04/23 15:23:01.2     -60   -532    -34    536    538 186.5  -3.7  34128  289.04 0854.29
2009/04/23 15:23:01.3       6   -522    -41    523    525 179.3  -4.6  34126  289.01 0854.29
2009/04/23 15:23:01.4     -50   -541   -160    544    568 185.4 -16.4  34130  289.06 0854.29
2009/04/23 15:23:01.5     -93   -516   -173    525    553 190.3 -18.3  34130  289.07 0854.29
2009/04/23 15:23:01.6     -20   -461   -157    462    487 182.6 -23.8  34136  289.15 0854.29
2009/04/23 15:23:01.7      41   -437   -214    440    489 174.6 -32.3  34136  289.17 0854.29
2009/04/23 15:23:01.8      17   -251   -230    252    341 176.0 -51.7  34132  289.10 0854.29
2009/04/23 15:23:01.9    -129    -42   -174    136    220 251.8 -62.6  34140  289.24 0854.29
2009/04/23 15:23:02.0       3   -143    -77    144    163 178.6 -35.0  34140  289.24 0854.29
2009/04/23 15:23:02.1      34   -203    -33    206    209 170.3  -9.3  34138  289.19 0854.29
2009/04/23 15:23:02.2      87   -164     70    186    198 151.9  21.5  34140  289.23 0854.29
2009/04/23 15:23:02.3     228   -121    135    259    292 117.9  29.8  34140  289.24 0854.29
2009/04/23 15:23:02.4      23   -219    185    221    288 173.8  43.8  34138  289.20 0854.29
2009/04/23 15:23:02.5     189   -231    241    299    384 140.8  43.3  34148  289.37 0854.29
2009/04/23 15:23:02.6     160   -160    216    227    313 134.9  48.5  34148  289.36 0854.29
2009/04/23 15:23:02.7      32   -412    -33    414    416 175.5  -4.6  34140  289.22 0854.29
2009/04/23 15:23:02.8     -93   -342   -110    355    372 195.3 -17.3  34138  289.21 0854.29
2009/04/23 15:23:02.9    -188   -322   -121    373    392 210.3 -23.2  34138  289.21 0854.29
2009/04/23 15:23:03.0    -208   -312    -84    376    386 213.7 -12.7  34138  289.20 0854.29
2009/04/23 15:23:03.1    -112   -383   -104    400    414 196.3 -14.6  34140  289.24 0854.31
2009/04/23 15:23:03.2    -138   -345    -48    372    376 201.8  -7.4  34112  288.77 0854.31
2009/04/23 15:23:03.3     -67   -589    -42    593    595 186.6  -4.1  34134  289.14 0854.31
2009/04/23 15:23:03.4     -68   -625   -115    629    640 186.3 -10.4  34132  289.11 0854.31
2009/04/23 15:23:03.5     -27   -586   -107    587    597 182.7 -10.4  34130  289.08 0854.31
2009/04/23 15:23:03.6    -195   -720    -62    747    750 195.2  -4.8  34142  289.26 0854.31
2009/04/23 15:23:03.7    -146   -597     85    615    621 193.8   7.9  34142  289.25 0854.31
2009/04/23 15:23:03.8    -304   -652    -28    720    721 205.0  -2.3  34136  289.15 0854.31
2009/04/23 15:23:03.9    -221   -578    -19    619    620 201.0  -1.8  34144  289.30 0854.31
2009/04/23 15:23:04.0    -337   -398   -155    522    545 220.3 -16.6  34150  289.41 0854.31
2009/04/23 15:23:04.1    -416   -408   -204    583    618 225.6 -19.3  34138  289.19 0854.31
2009/04/23 15:23:04.2    -204   -534   -109    572    583 200.9 -10.8  34148  289.37 0854.31
2009/04/23 15:23:04.3    -236   -399    -59    464    468 210.7  -7.3  34120  288.91 0854.31
2009/04/23 15:23:04.4    -363   -477   -203    600    634 217.3 -18.7  34146  289.35 0854.31
2009/04/23 15:23:04.5    -280   -408   -187    496    530 214.5 -26.0  34158  289.54 0854.31
2009/04/23 15:23:04.6    -423   -298   -154    518    540 234.8 -21.5  34138  289.21 0854.31
2009/04/23 15:23:04.7    -443   -237   -181    503    534 241.9 -25.1  34152  289.43 0854.31
2009/04/23 15:23:04.8    -337   -140   -245    365    439 247.4 -41.6  34150  289.39 0854.31
2009/04/23 15:23:04.9    -132   -156   -218    205    299 220.3 -56.5  34154  289.47 0854.31
2009/04/23 15:23:05.0    -396   -241    -67    464    469 238.7  -8.2  34156  289.49 0854.31
2009/04/23 15:23:05.1    -370   -235    -31    439    441 237.5  -4.1  34162  289.60 0854.30
2009/04/23 15:23:05.2    -348   -171   -159    388    419 243.8 -27.9  34168  289.70 0854.30
2009/04/23 15:23:05.3    -382   -126   -143    403    427 251.7 -24.5  34168  289.72 0854.30
2009/04/23 15:23:05.4    -396   -201   -123    445    462 243.0 -15.5  34156  289.51 0854.30
2009/04/23 15:23:05.5    -400   -159    -56    431    435 248.3  -7.5  34160  289.58 0854.30
2009/04/23 15:23:05.6    -289   -222   -100    365    379 232.4 -15.4  34162  289.59 0854.30
2009/04/23 15:23:05.7    -272   -108   -160    293    333 248.3 -35.4  34166  289.68 0854.30
2009/04/23 15:23:05.8    -313    -31   -132    315    341 264.3 -28.3  34178  289.86 0854.30
2009/04/23 15:23:05.9    -174     30    -85    177    196 279.9 -31.7  34182  289.94 0854.30
2009/04/23 15:23:06.0     -66    -18    -47     69     83 254.9 -42.0  34174  289.82 0854.30
2009/04/23 15:23:06.1     -21   -149    -47    151    159 188.1 -17.3  34172  289.77 0854.30
2009/04/23 15:23:06.2     104   -194    -37    221    225 151.7  -9.6  34158  289.55 0854.30
2009/04/23 15:23:06.3     127   -248    -78    279    290 152.8 -15.8  34158  289.54 0854.30
2009/04/23 15:23:06.4     167   -298   -100    342    357 150.7 -16.4  34154  289.47 0854.30
2009/04/23 15:23:06.5     205   -319   -127    380    400 147.2 -23.6  34156  289.52 0854.30
2009/04/23 15:23:06.6     237   -295   -135    379    403 141.3 -19.7  34156  289.52 0854.30
2009/04/23 15:23:06.7     223   -220   -110    314    333 134.7 -19.3  34154  289.46 0854.30
2009/04/23 15:23:06.8     112   -201   -136    231    268 150.8 -37.8  34170  289.73 0854.30
2009/04/23 15:23:06.9     181   -153   -139    238    275 130.2 -37.5  34162  289.61 0854.30
2009/04/23 15:23:07.0     239   -224   -112    328    347 133.1 -19.0  34152  289.45 0854.30
2009/04/23 15:23:07.1     277   -164    -33    323    325 120.7  -5.9  34162  289.61 0854.32
2009/04/23 15:23:07.2     249   -245     -6    350    351 134.6  -1.1  34158  289.55 0854.32
2009/04/23 15:23:07.3     231   -224    -40    323    326 134.1  -7.2  34162  289.59 0854.32
2009/04/23 15:23:07.4     182   -227      1    291    292 141.3   0.2  34156  289.51 0854.32
2009/04/23 15:23:07.5     293   -173    -39    341    344 120.6  -6.6  34160  289.57 0854.32
2009/04/23 15:23:07.6     239   -194      3    308    309 129.1   0.7  34164  289.64 0854.32
2009/04/23 15:23:07.7     149   -164     51    222    228 137.7  13.1  34160  289.58 0854.32
2009/04/23 15:23:07.8     270   -183     25    327    329 124.2   4.5  34164  289.63 0854.32
2009/04/23 15:23:07.9     309    -89    -21    322    323 106.2  -3.8  34174  289.80 0854.32
2009/04/23 15:23:08.0     223   -209    -27    306    308 133.2  -5.2  34164  289.63 0854.32
2009/04/23 15:23:08.1     220   -213    -12    307    308 134.0  -2.3  34162  289.59 0854.34
2009/04/23 15:23:08.2     140   -173     20    223    224 141.0   5.2  34162  289.60 0854.34
2009/04/23 15:23:08.3     130   -203     17    242    243 147.4   4.2  34162  289.61 0854.34
2009/04/23 15:23:08.4     104   -152     21    185    187 145.5   6.7  34162  289.60 0854.34
2009/04/23 15:23:08.5     209   -112     -2    238    239 118.2  -0.7  34162  289.59 0854.34
2009/04/23 15:23:08.6     206    -72     41    219    223 109.3  10.6  34168  289.72 0854.34
2009/04/23 15:23:08.7     211    -93     45    231    236 114.0  11.1  34166  289.66 0854.34
2009/04/23 15:23:08.8     252   -172    185    306    357 124.4  34.0  34180  289.91 0854.34
2009/04/23 15:23:08.9     101   -175    250    203    322 150.1  57.0  34178  289.88 0854.34
2009/04/23 15:23:09.0      83   -273    154    286    324 163.1  30.7  34174  289.80 0854.34
2009/04/23 15:23:09.1      33   -266    200    269    335 172.9  40.2  34172  289.76 0854.34
2009/04/23 15:23:09.2      71   -211    124    223    255 161.3  31.4  34170  289.73 0854.34
2009/04/23 15:23:09.3     219   -329     57    396    401 146.3   8.2  34172  289.76 0854.34
2009/04/23 15:23:09.4     102   -232    109    254    276 156.3  24.9  34172  289.76 0854.34
2009/04/23 15:23:09.5      15   -252     94    253    269 176.4  21.0  34172  289.76 0854.34
2009/04/23 15:23:09.6     140   -305    178    336    380 155.3  30.3  34172  289.77 0854.34
2009/04/23 15:23:09.7     280   -411    217    498    543 145.7  25.1  34174  289.82 0854.34
2009/04/23 15:23:09.8     128   -387    243    408    474 161.7  33.5  34170  289.73 0854.34
2009/04/23 15:23:09.9     -14   -309    221    310    380 182.7  39.1  34170  289.74 0854.34
2009/04/23 15:23:10.0     -76   -301    134    311    338 194.3  24.8  34178  289.86 0854.34
2009/04/23 15:23:10.1     -80   -305     39    316    319 194.7   7.1  34174  289.81 0854.36
2009/04/23 15:23:10.2     -60   -297     80    304    315 191.6  14.9  34174  289.81 0854.36
2009/04/23 15:23:10.3     134   -336     93    363    375 158.2  14.4  34172  289.77 0854.36
2009/04/23 15:23:10.4      95   -312      0    327    328 163.1   0.1  34170  289.75 0854.36
2009/04/23 15:23:10.5     -35   -421    103    423    436 184.9  13.8  34174  289.82 0854.36
2009/04/23 15:23:10.6    -216   -404    176    459    491 208.1  22.1  34182  289.93 0854.36
2009/04/23 15:23:10.7     -65   -382    311    388    497 189.8  42.9  34190  290.07 0854.36
2009/04/23 15:23:10.8      -3   -283    305    284    416 180.7  52.2  34188  290.03 0854.36
2009/04/23 15:23:10.9      77   -380    229    389    451 168.4  33.3  34180  289.90 0854.36
2009/04/23 15:23:11.0     155   -374    171    406    440 157.4  24.2  34178  289.88 0854.36
2009/04/23 15:23:11.1     195   -452    209    493    535 156.6  24.3  34190  290.07 0854.36
2009/04/23 15:23:11.2     112   -280    181    302    352 158.2  33.7  34192  290.10 0854.36
2009/04/23 15:23:11.3     161   -271    158    316    353 149.3  28.6  34202  290.28 0854.36
2009/04/23 15:23:11.4     -37   -156    130    161    206 193.4  43.5  34206  290.36 0854.36
2009/04/23 15:23:11.5      85    117     42    145    152  36.1  16.3  34204  290.31 0854.36
2009/04/23 15:23:11.6     149    -40     31    155    159 105.1  11.4  34198  290.23 0854.36
2009/04/23 15:23:11.7     183    -79     10    200    201 113.3   2.9  34198  290.21 0854.36
2009/04/23 15:23:11.8     253   -101     34    273    276 111.8   7.2  34212  290.46 0854.36
2009/04/23 15:23:11.9     249    -79     41    262    266 107.7   9.0  34206  290.34 0854.36
2009/04/23 15:23:12.0     296    -88     37    309    312 106.6   6.9  34194  290.15 0854.36
2009/04/23 15:23:12.1     277   -104     63    296    303 110.6  12.1  34190  290.07 0854.41
2009/04/23 15:23:12.2     235   -147    -62    278    285 122.0 -12.6  34186  290.02 0854.41
2009/04/23 15:23:12.3     344   -146    103    374    388 113.1  15.4  34188  290.06 0854.41
2009/04/23 15:23:12.4     344   -129    161    368    401 110.6  25.1  34188  290.03 0854.41
2009/04/23 15:23:12.5     310   -165    211    352    410 118.1  33.7  34184  289.98 0854.41
2009/04/23 15:23:12.6     407    -79    181    415    452 101.1  25.1  34196  290.19 0854.41
2009/04/23 15:23:12.7     221   -104    237    245    340 115.2  49.1  34182  289.93 0854.41
2009/04/23 15:23:12.8      99    -14    140    101    172  98.4  61.1  34202  290.30 0854.41
2009/04/23 15:23:12.9     215    -72    100    227    248 108.6  25.2  34190  290.07 0854.41
2009/04/23 15:23:13.0     286    -43    159    290    330  98.6  31.3  34188  290.03 0854.41
2009/04/23 15:23:13.1     233   -109    189    258    319 115.1  39.9  34198  290.20 0854.41
2009/04/23 15:23:13.2     169   -194    121    258    284 138.8  27.1  34196  290.19 0854.41
2009/04/23 15:23:13.3     200   -139     60    244    252 124.9  13.9  34192  290.12 0854.41
2009/04/23 15:23:13.4     147   -139     11    203    204 133.6   3.3  34196  290.18 0854.41
2009/04/23 15:23:13.5       9   -133    152    134    202 176.0  54.0  34192  290.11 0854.41
2009/04/23 15:23:13.6      96   -213    154    234    280 155.7  36.5  34194  290.14 0854.41
2009/04/23 15:23:13.7     180   -216     88    282    296 140.3  17.3  34188  290.03 0854.41
2009/04/23 15:23:13.8      65   -257    124    266    293 165.8  27.1  34188  290.05 0854.41
2009/04/23 15:23:13.9      93   -276     85    292    305 161.3  16.3  34192  290.10 0854.41
2009/04/23 15:23:14.0     192   -317     35    371    373 148.8   5.4  34186  290.01 0854.41
2009/04/23 15:23:14.1       0   -311     19    312    313 179.9   3.6  34182  289.93 0854.40
2009/04/23 15:23:14.2      88   -338    134    350    374 165.3  22.0  34170  289.74 0854.40
2009/04/23 15:23:14.3      49   -300    176    305    352 170.7  32.7  34172  289.77 0854.40
2009/04/23 15:23:14.4      79   -387    213    396    449 168.4  30.6  34182  289.95 0854.40
2009/04/23 15:23:14.5     128   -312    211    338    398 157.7  35.0  34192  290.13 0854.40
2009/04/23 15:23:14.6     170   -380     50    417    421 155.8   6.9  34188  290.05 0854.40
2009/04/23 15:23:14.7     134   -396    120    419    436 161.3  16.0  34194  290.14 0854.40
2009/04/23 15:23:14.8      42   -397     30    400    402 173.9   4.4  34190  290.08 0854.40
2009/04/23 15:23:14.9      12   -275    -15    276    277 177.3  -3.1  34204  290.31 0854.40
2009/04/23 15:23:15.0       7   -253    -21    254    255 178.2  -4.9  34198  290.20 0854.40
2009/04/23 15:23:15.1      74   -240      5    252    253 162.8   1.2  34196  290.19 0854.40
2009/04/23 15:23:15.2     104   -221    126    245    275 154.7  29.3  34192  290.12 0854.40
2009/04/23 15:23:15.3      53   -234    115    241    267 167.1  27.3  34192  290.10 0854.40
2009/04/23 15:23:15.4     125   -151    157    197    251 140.4  42.7  34200  290.26 0854.40
2009/04/23 15:23:15.5     148   -209     57    257    264 144.6  12.6  34196  290.19 0854.40
2009/04/23 15:23:15.6     231   -149     -1    276    277 122.9  -0.3  34196  290.19 0854.40
2009/04/23 15:23:15.7     268   -171    119    319    340 122.6  21.4  34198  290.20 0854.40
2009/04/23 15:23:15.8     198    -76     75    213    226 111.1  19.4  34198  290.23 0854.40
2009/04/23 15:23:15.9     141    -77    127    161    205 118.9  42.4  34198  290.23 0854.40
2009/04/23 15:23:16.0     157   -120    105    198    224 127.5  30.3  34202  290.28 0854.40
2009/04/23 15:23:16.1      72   -131     29    150    153 151.0  11.1  34200  290.25 0854.43
2009/04/23 15:23:16.2      11   -151    -19    152    154 175.6  -7.3  34190  290.09 0854.43
2009/04/23 15:23:16.3     118   -179     13    215    216 146.4   3.6  34190  290.09 0854.43
2009/04/23 15:23:16.4     133   -214    -50    253    259 148.1 -11.3  34194  290.14 0854.43
2009/04/23 15:23:16.5     106   -342     43    359    362 162.7   6.9  34178  289.87 0854.43
2009/04/23 15:23:16.6     187   -240    -29    305    307 142.2  -5.6  34190  290.07 0854.43
2009/04/23 15:23:16.7     159   -290    -54    331    336 151.2  -9.3  34178  289.89 0854.43
2009/04/23 15:23:16.8      75   -241    123    253    281 162.6  27.8  34176  289.85 0854.43
2009/04/23 15:23:16.9     242   -222    135    329    355 132.6  23.6  34178  289.87 0854.43
2009/04/23 15:23:17.0     278   -281    276    396    482 135.4  38.3  34182  289.94 0854.43
2009/04/23 15:23:17.1     346   -201    195    401    445 120.1  27.9  34184  289.99 0854.43
2009/04/23 15:23:17.2     284   -134    275    315    418 115.3  45.7  34190  290.08 0854.43
2009/04/23 15:23:17.3     192    -32    238    195    307  99.7  56.4  34194  290.15 0854.43
2009/04/23 15:23:17.4     235   -122    153    265    305 117.5  32.7  34202  290.27 0854.43
2009/04/23 15:23:17.5     220    -59     59    228    236 105.1  14.7  34200  290.26 0854.43
2009/04/23 15:23:17.6     154    -20     45    156    163  97.7  16.3  34198  290.21 0854.43
2009/04/23 15:23:17.7     145    -49     21    154    156 108.6   7.8  34202  290.28 0854.43
2009/04/23 15:23:17.8     169     35   -125    173    213  78.1 -43.9  34198  290.23 0854.43
2009/04/23 15:23:17.9     122   -101    -87    159    181 129.5 -35.7  34194  290.14 0854.43
2009/04/23 15:23:18.0      65   -121      2    138    139 151.5   1.2  34198  290.21 0854.43
2009/04/23 15:23:18.1     109   -171     24    203    205 147.5   6.9  34190  290.08 0854.44
2009/04/23 15:23:18.2     176   -187     78    258    270 136.7  16.8  34188  290.05 0854.44
2009/04/23 15:23:18.3     240    -99     61    260    268 112.6  13.2  34196  290.17 0854.44
2009/04/23 15:23:18.4     241   -231     39    334    337 133.8   6.8  34192  290.13 0854.44
2009/04/23 15:23:18.5     222   -340    172    407    441 146.9  24.2  34194  290.14 0854.44
2009/04/23 15:23:18.6      70   -259    189    269    328 164.8  38.6  34210  290.42 0854.44
2009/04/23 15:23:18.7     113   -344    267    363    450 161.9  39.9  34198  290.21 0854.44
2009/04/23 15:23:18.8     -66   -166    106    179    208 201.8  33.5  34194  290.14 0854.44
2009/04/23 15:23:18.9      77    -69    100    104    144 132.2  49.4  34200  290.26 0854.44
2009/04/23 15:23:19.0     -18    -67    131     70    148 195.1  69.3  34198  290.23 0854.44
2009/04/23 15:23:19.1    -136   -191    111    235    259 215.6  27.1  34192  290.10 0854.44
2009/04/23 15:23:19.2     -51   -141    106    150    183 200.0  38.8  34194  290.14 0854.44
2009/04/23 15:23:19.3      42    -88     94     98    135 154.5  49.4  34202  290.30 0854.44
2009/04/23 15:23:19.4      58   -121    -29    135    139 154.5 -12.4  34200  290.25 0854.44
2009/04/23 15:23:19.5      26   -125    -31    128    132 168.0 -13.9  34202  290.30 0854.44
2009/04/23 15:23:19.6      15   -201     77    202    216 175.6  22.0  34200  290.26 0854.44
2009/04/23 15:23:19.7     -33   -191      2    194    195 190.0   0.8  34200  290.26 0854.44
2009/04/23 15:23:19.8       6     16     27     18     32  21.8  64.6  34194  290.14 0854.44
2009/04/23 15:23:19.9      26     27     18     38     42  43.2  27.2  34196  290.19 0854.44
2009/04/23 15:23:20.0       2   -127     -2    128    129 179.0  -1.2  34194  290.16 0854.44
2009/04/23 15:23:20.1     224   -268     66    350    357 140.1  10.7  34168  289.71 0854.45
2009/04/23 15:23:20.2     220   -344     83    409    418 147.3  11.5  34176  289.85 0854.45
2009/04/23 15:23:20.3     200   -292    109    355    372 145.6  17.2  34178  289.86 0854.45
2009/04/23 15:23:20.4      80   -214    139    229    267 159.5  34.4  34170  289.73 0854.45
2009/04/23 15:23:20.5      39   -241    223    245    331 170.7  47.3  34186  290.00 0854.45
2009/04/23 15:23:20.6      45   -294    196    298    356 171.3  36.5  34180  289.91 0854.45
2009/04/23 15:23:20.7      73   -227    251    239    346 162.2  51.6  34184  289.97 0854.45
2009/04/23 15:23:20.8      -4   -230    232    231    327 181.1  50.0  34184  289.98 0854.45
2009/04/23 15:23:20.9      58   -297    266    303    403 168.9  45.8  34186  290.01 0854.45
2009/04/23 15:23:21.0      26   -188    214    190    286 172.0  54.2  34188  290.03 0854.45
2009/04/23 15:23:21.1     -25    -75    181     80    197 198.3  74.9  34190  290.08 0854.45
2009/04/23 15:23:21.2     -72   -260    176    270    322 195.6  36.2  34188  290.05 0854.45
2009/04/23 15:23:21.3     132   -363    225    387    447 160.0  33.0  34180  289.92 0854.45
2009/04/23 15:23:21.4       0   -291    344    292    451 180.0  55.5  34186  290.00 0854.45
2009/04/23 15:23:21.5      81   -368      4    377    378 167.5   0.7  34178  289.87 0854.45
2009/04/23 15:23:21.6     279   -443     44    524    527 147.8   4.9  34188  290.04 0854.45
2009/04/23 15:23:21.7     336   -303     97    453    464 132.1  12.1  34192  290.11 0854.45
2009/04/23 15:23:21.8     316   -240      5    397    398 127.2   0.8  34196  290.18 0854.45
2009/04/23 15:23:21.9     299   -313    -86    433    442 136.3 -11.3  34184  289.99 0854.45
2009/04/23 15:23:22.0     108   -228     21    253    254 154.5   4.9  34182  289.95 0854.45
2009/04/23 15:23:22.1      56   -105     87    120    148 151.9  39.7  34200  290.26 0854.43
2009/04/23 15:23:22.2    -182   -147    166    235    287 231.1  38.6  34208  290.39 0854.43
2009/04/23 15:23:22.3    -121   -257    184    285    339 205.3  35.7  34190  290.07 0854.43
2009/04/23 15:23:22.4      30   -361     63    363    369 175.1   9.9  34188  290.06 0854.43
2009/04/23 15:23:22.5     128   -221     17    256    257 149.9   3.8  34192  290.12 0854.43
2009/04/23 15:23:22.6      47   -197     80    203    218 166.4  22.8  34192  290.11 0854.43
2009/04/23 15:23:22.7      -2   -148     50    149    158 180.9  18.6  34194  290.14 0854.43
2009/04/23 15:23:22.8     -68   -195     40    207    211 199.4  11.1  34204  290.31 0854.43
2009/04/23 15:23:22.9     -92   -180     48    203    209 207.0  13.5  34196  290.19 0854.43
2009/04/23 15:23:23.0     -32   -168     63    172    183 190.9  20.7  34200  290.26 0854.43
2009/04/23 15:23:23.1      -1   -141     73    142    159 180.5  29.3  34198  290.21 0854.43
2009/04/23 15:23:23.2      10   -240     45    241    246 177.5  10.6  34192  290.12 0854.43
2009/04/23 15:23:23.3       0   -316     62    317    324 180.1  11.1  34192  290.10 0854.43
2009/04/23 15:23:23.4      19   -301     24    302    304 176.4   4.6  34188  290.03 0854.43
2009/04/23 15:23:23.5      37   -266     44    269    273 171.9   9.5  34184  289.97 0854.43
2009/04/23 15:23:23.6      18   -223    -12    224    225 175.3  -3.1  34190  290.08 0854.43
2009/04/23 15:23:23.7      12   -259     41    260    264 177.3   9.0  34182  289.95 0854.43
2009/04/23 15:23:23.8      94   -260     34    277    280 160.0   7.1  34180  289.90 0854.43
2009/04/23 15:23:23.9     138   -303    127    333    356 155.5  22.0  34192  290.11 0854.43
2009/04/23 15:23:24.0      91   -300    108    314    333 163.0  19.1  34188  290.05 0854.36
2009/04/23 15:23:24.1      74   -285    132    295    323 165.3  25.8  34184  289.98 0854.36
2009/04/23 15:23:24.2      64   -339     63    346    352 169.2  10.3  34180  289.91 0854.36
2009/04/23 15:23:24.3      74   -366     80    374    383 168.6  12.2  34194  290.15 0854.36
2009/04/23 15:23:24.5     124   -344    113    366    384 160.1  17.2  34192  290.11 0854.36
2009/04/23 15:23:24.5      71   -281    206    290    355 165.7  39.0  34200  290.25 0854.36
2009/04/23 15:23:24.6      72   -304    176    313    359 166.6  31.7  34184  289.99 0854.36
2009/04/23 15:23:24.7      59   -335    121    341    363 170.0  19.6  34180  289.91 0854.36
2009/04/23 15:23:24.9      86   -294     70    307    315 163.7  12.9  34182  289.93 0854.36
2009/04/23 15:23:25.0     119   -193    123    227    258 148.4  31.0  34178  289.86 0854.36
2009/04/23 15:23:25.1       4   -267    120    268    293 179.1  25.9  34176  289.85 0854.36
2009/04/23 15:23:25.1      45   -246     81    251    264 169.5  17.9  34184  289.97 0854.36
2009/04/23 15:23:25.3      42   -219    122    224    255 169.1  31.0  34192  290.10 0854.36
2009/04/23 15:23:25.4      -2   -154     92    155    180 181.0  33.5  34190  290.08 0854.36
2009/04/23 15:23:25.5     -15   -113    114    114    161 187.6  50.1  34186  290.02 0854.36
2009/04/23 15:23:25.6     -57    -79     94     98    135 215.6  49.4  34188  290.06 0854.36
2009/04/23 15:23:25.7     -60    -74     79     96    124 218.7  43.7  34196  290.18 0854.36
2009/04/23 15:23:25.8     -42    -68     75     81    110 211.6  47.9  34210  290.41 0854.36
2009/04/23 15:23:25.9     -43    -92    131    102    166 204.9  58.2  34220  290.60 0854.36
2009/04/23 15:23:26.0     -84   -142    138    166    215 210.7  43.8  34226  290.69 0854.36
2009/04/23 15:23:26.1     -93   -132    129    162    207 215.2  43.0  34226  290.69 0854.31
2009/04/23 15:23:26.2     -77   -104     91    130    158 216.5  38.4  34230  290.77 0854.31
2009/04/23 15:23:26.3     -52     26    104     59    119 297.1  68.3  34244  291.01 0854.31
2009/04/23 15:23:26.4    -137     64     19    152    154 295.2   7.1  34234  290.82 0854.31
2009/04/23 15:23:26.5    -163     80      1    182    183 296.4   0.5  34236  290.86 0854.31
2009/04/23 15:23:26.6    -209     28    -34    211    214 277.7  -9.3  34216  290.52 0854.31
2009/04/23 15:23:26.7    -359    119    -90    379    390 288.4 -13.4  34188  290.03 0854.31
2009/04/23 15:23:26.8    -294    128   -102    321    337 293.5 -17.7  34194  290.15 0854.31
2009/04/23 15:23:26.9    -303    146   -152    337    369 295.8 -30.3  34188  290.03 0854.31
2009/04/23 15:23:27.0    -386    142    -98    412    424 290.3 -13.4  34184  289.99 0854.31
2009/04/23 15:23:27.1    -418    146   -144    443    466 289.3 -18.0  34192  290.11 0854.31
2009/04/23 15:23:27.2    -341    114   -166    360    396 288.5 -30.9  34198  290.23 0854.31
2009/04/23 15:23:27.3    -238    139   -115    276    299 300.4 -28.2  34222  290.61 0854.31
2009/04/23 15:23:27.4    -347     82   -216    357    417 283.4 -38.5  34212  290.47 0854.31
2009/04/23 15:23:27.5    -158     40   -176    164    240 284.4 -56.6  34208  290.40 0854.31
2009/04/23 15:23:27.6    -266   -141    -84    302    313 242.1 -20.2  34218  290.54 0854.31
2009/04/23 15:23:27.7    -240    -69    -93    250    266 254.0 -25.7  34212  290.44 0854.31
2009/04/23 15:23:27.8    -260    -65    -37    269    272 255.8  -8.0  34226  290.70 0854.31
2009/04/23 15:23:27.9    -244    -11      2    245    246 267.2   0.5  34266  291.36 0854.31
2009/04/23 15:23:28.0    -271    -46      0    275    276 260.3   0.0  34292  291.80 0854.31
2009/04/23 15:23:28.1    -319    -41    -53    322    327 262.6  -9.3  34292  291.82 0854.28
2009/04/23 15:23:28.2    -240     78    -50    253    259 288.2 -11.3  34314  292.19 0854.28
2009/04/23 15:23:28.3    -244    239   -102    342    357 314.4 -16.6  34308  292.08 0854.28
2009/04/23 15:23:28.4    -279    296    -91    407    418 316.7 -12.7  34284  291.69 0854.28
2009/04/23 15:23:28.5    -347    352   -106    495    507 315.4 -12.2  34254  291.17 0854.28
2009/04/23 15:23:28.6    -245    299     19    387    388 320.7   2.9  34238  290.89 0854.28
2009/04/23 15:23:28.7    -172    321    133    365    388 331.9  20.9  34268  291.42 0854.28
2009/04/23 15:23:28.8    -109    327     78    345    354 341.5  12.8  34242  290.96 0854.28
2009/04/23 15:23:28.9     -85    195    129    213    249 336.4  34.2  34238  290.88 0854.28
2009/04/23 15:23:29.0     -81    161    147    181    233 333.3  43.7  34232  290.79 0854.28
2009/04/23 15:23:29.1     -37    181    148    185    236 348.4  42.8  34238  290.91 0854.28
2009/04/23 15:23:29.2    -141    257    118    294    316 331.3  23.0  34248  291.05 0854.28
2009/04/23 15:23:29.3      -3    214    149    215    261 359.0  38.0  34254  291.16 0854.28
2009/04/23 15:23:29.4      39    179    141    184    231  12.5  41.6  34254  291.16 0854.28
2009/04/23 15:23:29.5     -82    225    115    240    266 339.9  27.3  34252  291.12 0854.28
2009/04/23 15:23:29.6    -212    212     53    300    305 315.0  10.1  34268  291.39 0854.28
2009/04/23 15:23:29.7    -263    125   -102    292    310 295.4 -19.3  34244  291.00 0854.28
2009/04/23 15:23:29.8    -175     23    -98    177    202 277.5 -35.8  34252  291.15 0854.28
2009/04/23 15:23:29.9    -138    -29    119    142    185 258.1  44.1  34258  291.25 0854.28
2009/04/23 15:23:30.0     -96    -55    110    111    156 240.2  50.0  34276  291.55 0854.28
2009/04/23 15:23:30.1     -41   -153    187    159    245 195.1  55.4  34262  291.32 0854.24
2009/04/23 15:23:30.2     -35   -107    164    113    199 198.3  62.4  34268  291.40 0854.24
2009/04/23 15:23:30.3     -17     48    111     52    122 340.0  73.5  34284  291.69 0854.24
2009/04/23 15:23:30.4     -66    112    102    131    166 329.3  42.0  34274  291.52 0854.24
2009/04/23 15:23:30.5     -91     22     85     94    126 283.7  47.5  34278  291.59 0854.24
2009/04/23 15:23:30.6    -179     57     86    188    206 287.7  26.4  34278  291.59 0854.24
2009/04/23 15:23:30.7      80     11    147     81    167  82.1  68.8  34254  291.18 0854.24
2009/04/23 15:23:30.8      -7     17    133     19    134 338.2  90.0  34262  291.30 0854.24
2009/04/23 15:23:30.9      -4     12    115     13    115 341.3  90.0  34260  291.28 0854.24
2009/04/23 15:23:31.0      51      3    155     52    163  85.6  81.0  34262  291.30 0854.24
2009/04/23 15:23:31.1      60     49    147     78    166  50.4  69.8  34250  291.11 0854.28
2009/04/23 15:23:31.2      32     92    159     98    186  19.6  65.1  34266  291.38 0854.28
2009/04/23 15:23:31.3     -20    197    134    199    239 354.2  37.3  34278  291.59 0854.28
2009/04/23 15:23:31.4      -6    129    199    130    237 357.3  63.6  34278  291.57 0854.28
2009/04/23 15:23:31.5      -2      8    187      9    187 341.5  90.0  34272  291.47 0854.28
2009/04/23 15:23:31.6      30      6    123     31    126  78.5  85.4  34270  291.45 0854.28
2009/04/23 15:23:31.7     -94      8    168     95    193 275.2  68.1  34272  291.49 0854.28
2009/04/23 15:23:31.8    -122     17    131    124    180 278.0  52.0  34244  291.01 0854.28
2009/04/23 15:23:31.9    -114      0    186    115    218 270.0  65.4  34240  290.92 0854.28
2009/04/23 15:23:32.0     -87     12    121     88    149 278.4  60.5  34228  290.72 0854.28
2009/04/23 15:23:32.1       1     47    148     48    155   1.8  80.7  34238  290.89 0854.28
2009/04/23 15:23:32.2     -61     61    118     87    146 314.6  60.5  34234  290.82 0854.28
2009/04/23 15:23:32.3    -196     35     64    200    211 280.1  17.9  34230  290.75 0854.28
2009/04/23 15:23:32.4    -118    111    171    163    236 313.3  51.4  34238  290.89 0854.28
2009/04/23 15:23:32.5    -141    213    244    256    353 326.4  48.6  34240  290.92 0854.28
2009/04/23 15:23:32.6    -178    229    185    291    344 322.1  35.5  34238  290.88 0854.28
2009/04/23 15:23:32.7    -150    239    221    283    359 327.9  42.0  34238  290.91 0854.28
2009/04/23 15:23:32.8    -126    185    153    224    271 325.7  37.4  34234  290.83 0854.28
2009/04/23 15:23:32.9    -153    254    186    297    350 329.0  35.3  34222  290.64 0854.28
2009/04/23 15:23:33.0    -119    308     67    331    338 338.8  11.6  34232  290.79 0854.28
2009/04/23 15:23:33.1     -13    303    111    304    323 357.4  21.0  34236  290.87 0854.27
2009/04/23 15:23:33.2      13    297     57    298    304   2.7  11.0  34242  290.95 0854.27
2009/04/23 15:23:33.3      25    182    167    184    248   8.0  47.0  34238  290.91 0854.27
2009/04/23 15:23:33.4      -4    247    296    248    386 359.0  56.2  34232  290.79 0854.27
2009/04/23 15:23:33.5     -37    366    294    368    471 354.2  42.7  34226  290.68 0854.27
2009/04/23 15:23:33.6    -206    383    141    436    459 331.7  17.9  34230  290.75 0854.27
2009/04/23 15:23:33.7    -142    436    160    459    487 342.0  19.3  34202  290.30 0854.27
2009/04/23 15:23:33.8    -130    347    130    371    394 339.4  19.4  34194  290.15 0854.27
2009/04/23 15:23:33.9      29    329     94    331    345   5.1  15.9  34240  290.93 0854.27
2009/04/23 15:23:34.0      15    279     48    280    285   3.1   9.9  34228  290.71 0854.27
2009/04/23 15:23:34.1      11    372      5    373    374   1.7   0.8  34216  290.52 0854.27
2009/04/23 15:23:34.2     -30    323     -7    325    326 354.7  -1.4  34222  290.61 0854.27
2009/04/23 15:23:34.3    -102    245    -19    266    267 337.3  -4.1  34216  290.51 0854.27
2009/04/23 15:23:34.4    -207    130    -63    245    254 302.2 -14.5  34218  290.54 0854.27
2009/04/23 15:23:34.5     -11    146     28    147    150 355.5  11.0  34218  290.57 0854.27
2009/04/23 15:23:34.6     -64    133     52    148    157 334.1  19.4  34226  290.70 0854.27
2009/04/23 15:23:34.7    -175    143     32    227    230 309.3   8.2  34218  290.55 0854.27
2009/04/23 15:23:34.8    -434    -18     95    435    446 267.5  12.4  34212  290.46 0854.27
2009/04/23 15:23:34.9    -238   -173    195    295    353 234.0  36.6  34208  290.40 0854.27
2009/04/23 15:23:35.0      69   -120    242    139    279 150.1  67.7  34226  290.70 0854.27
2009/04/23 15:23:35.1    -130    168    284    213    355 322.1  59.7  34228  290.73 0854.32
2009/04/23 15:23:35.2    -266    165    139    314    343 301.8  25.6  34224  290.67 0854.32
2009/04/23 15:23:35.3    -172     36     65    176    187 281.9  21.0  34230  290.77 0854.32
2009/04/23 15:23:35.4    -236     63     34    245    248 285.0   8.0  34224  290.66 0854.32
2009/04/23 15:23:35.5    -268    -19      1    269    270 265.9   0.2  34220  290.58 0854.32
2009/04/23 15:23:35.6    -185   -118    140    220    260 237.4  35.5  34224  290.66 0854.32
2009/04/23 15:23:35.7       0   -122    184    123    221 180.0  63.4  34226  290.70 0854.32
2009/04/23 15:23:35.8     -16    -83    147     85    169 191.1  67.2  34226  290.70 0854.32
2009/04/23 15:23:35.9      11    -83    149     84    171 172.0  68.3  34228  290.72 0854.32
2009/04/23 15:23:36.0      12    -74    210     76    223 170.2  79.5  34228  290.72 0854.32
2009/04/23 15:23:36.1     -10   -154    204    155    256 184.0  59.0  34222  290.64 0854.32
2009/04/23 15:23:36.2      95   -242    204    261    331 158.6  42.0  34210  290.41 0854.32
2009/04/23 15:23:36.3     108    -32    214    113    242 106.8  69.9  34214  290.50 0854.32
2009/04/23 15:23:36.4      -2     -1    114      3    114 237.6  90.0  34228  290.72 0854.32
2009/04/23 15:23:36.5      24     -4    128     25    130 101.5  89.1  34226  290.70 0854.32
2009/04/23 15:23:36.6      61      1    120     62    135  88.3  70.8  34228  290.74 0854.32
2009/04/23 15:23:36.7      47   -195    154    201    253 166.4  41.4  34218  290.54 0854.32
2009/04/23 15:23:36.8     168   -110    146    202    249 123.3  39.5  34216  290.53 0854.32
2009/04/23 15:23:36.9     161   -101    164    191    251 122.0  44.9  34218  290.56 0854.32
2009/04/23 15:23:37.0      25    -82    128     86    154 163.1  63.2  34230  290.75 0854.32
2009/04/23 15:23:37.1      70    -74    148    103    180 136.7  61.8  34224  290.67 0854.35
2009/04/23 15:23:37.2      12     58    120     60    134  11.6  71.4  34228  290.74 0854.35
2009/04/23 15:23:37.3     -55     61     99     83    129 317.7  56.3  34236  290.87 0854.35
2009/04/23 15:23:37.4       0     97    120     98    154 359.6  56.4  34238  290.89 0854.35
2009/04/23 15:23:37.5      33     50     82     61    102  33.4  60.0  34238  290.91 0854.35
2009/04/23 15:23:37.6       8    -26    110     28    113 161.5  85.4  34236  290.86 0854.35
2009/04/23 15:23:37.7      24      4     98     25    101  80.3  85.9  34240  290.92 0854.35
2009/04/23 15:23:37.8      16    -21    105     27    108 142.2  85.4  34246  291.03 0854.35
2009/04/23 15:23:37.9       4    -39    118     40    124 172.9  81.2  34252  291.15 0854.35
2009/04/23 15:23:38.0       8     26    124     28    127  18.7  87.5  34260  291.28 0854.35
2009/04/23 15:23:38.1     -23     15    147     28    149 302.4  89.6  34266  291.38 0854.35
2009/04/23 15:23:38.2     -68    -84    158    109    191 219.2  62.4  34250  291.11 0854.35
2009/04/23 15:23:38.3      10   -108    211    109    237 174.7  70.6  34250  291.11 0854.35
2009/04/23 15:23:38.4      73    -46    172     87    192 122.0  71.4  34264  291.33 0854.35
2009/04/23 15:23:38.5       9     -1    140     10    140 101.5  90.0  34252  291.13 0854.35
2009/04/23 15:23:38.6      -4     -8    138     10    138 209.0  90.0  34250  291.09 0854.35
2009/04/23 15:23:38.7     -70   -199    235    212    316 199.4  53.4  34234  290.83 0854.35
2009/04/23 15:23:38.8      -2   -159    196    160    253 180.9  56.4  34240  290.92 0854.35
2009/04/23 15:23:38.9     -33   -211    196    214    290 189.1  47.5  34240  290.93 0854.35
2009/04/23 15:23:39.0     -57   -230    204    238    313 194.0  45.1  34238  290.88 0854.35
2009/04/23 15:23:39.1    -119   -175    179    212    277 214.3  44.8  34248  291.05 0854.36
2009/04/23 15:23:39.2    -105   -181    174    210    272 210.1  43.8  34232  290.80 0854.36
2009/04/23 15:23:39.3     -57   -138    176    150    231 202.7  55.4  34238  290.91 0854.36
2009/04/23 15:23:39.4     -40   -127    161    134    209 197.4  56.3  34240  290.94 0854.36
2009/04/23 15:23:39.5     -58   -143    193    155    247 202.3  57.1  34232  290.79 0854.36
2009/04/23 15:23:39.6     -52   -174    182    182    257 196.9  50.1  34232  290.78 0854.36
2009/04/23 15:23:39.7     -78   -180    208    197    286 203.4  52.0  34224  290.66 0854.36
2009/04/23 15:23:39.8     -76   -160    200    178    267 205.3  53.7  34224  290.66 0854.36
2009/04/23 15:23:39.9    -124    -57    165    137    214 245.2  56.3  34242  290.98 0854.36
2009/04/23 15:23:40.0    -131   -213    151    251    292 211.6  33.7  34238  290.90 0854.36
2009/04/23 15:23:40.1    -247   -126    100    278    295 242.9  20.9  34308  292.09 0854.36
2009/04/23 15:23:40.2    -158    -66     84    172    191 247.4  27.4  34296  291.89 0854.36
2009/04/23 15:23:40.3       0   -111    148    112    185 180.4  59.0  34250  291.11 0854.36
2009/04/23 15:23:40.4     -64   -301    195    308    364 192.0  35.5  34234  290.84 0854.36
2009/04/23 15:23:40.5    -210   -139     74    252    263 236.5  16.4  34302  291.97 0854.36
2009/04/23 15:23:40.6     -71   -226    157    238    285 197.6  36.5  34238  290.90 0854.36
2009/04/23 15:23:40.7     -19   -226    191    227    296 184.9  44.3  34236  290.85 0854.36
2009/04/23 15:23:40.8     -69   -221    208    232    311 197.4  46.6  34238  290.88 0854.36
2009/04/23 15:23:40.9      23   -204    147    206    253 173.5  38.8  34240  290.93 0854.36
2009/04/23 15:23:41.0     -13   -186    137    187    231 184.0  39.7  34234  290.84 0854.36
2009/04/23 15:23:41.1     -16   -155     99    156    184 186.2  35.5  34238  290.89 0854.36
2009/04/23 15:23:41.2      46   -138     71    146    162 161.3  27.8  34236  290.86 0854.36
2009/04/23 15:23:41.3      47   -159     50    167    175 163.3  16.6  34234  290.84 0854.36
2009/04/23 15:23:41.4     165    -88      9    188    189 118.2   2.9  34232  290.81 0854.36
2009/04/23 15:23:41.5     167    -23     -6    169    170  98.1  -2.2  34230  290.77 0854.36
2009/04/23 15:23:41.6     150    -11     37    151    156  94.4  13.9  34224  290.65 0854.36
2009/04/23 15:23:41.7     154    -52     -6    163    164 108.8  -2.2  34222  290.62 0854.36
2009/04/23 15:23:41.8     138    -55     34    149    153 111.8  13.1  34214  290.48 0854.36
2009/04/23 15:23:41.9      95    -42     21    104    107 114.0  11.6  34214  290.50 0854.36
2009/04/23 15:23:42.0      15    -33     67     37     76 154.6  68.8  34224  290.65 0854.36
2009/04/23 15:23:42.1     -38    -60     97     72    120 212.6  60.0  34232  290.81 0854.36
2009/04/23 15:23:42.2     -12    -47    100     49    111 195.1  72.8  34224  290.67 0854.36
2009/04/23 15:23:42.3     -28   -162    177    165    241 189.8  52.2  34216  290.53 0854.36
2009/04/23 15:23:42.4     -33   -159    196    163    254 191.8  56.3  34214  290.50 0854.36
2009/04/23 15:23:42.5      -1   -123    185    124    222 180.5  63.2  34222  290.62 0854.36
2009/04/23 15:23:42.6       0    -88    153     89    177 180.4  67.2  34214  290.50 0854.36
2009/04/23 15:23:42.7      -3   -122    153    123    196 181.8  56.9  34214  290.48 0854.36
2009/04/23 15:23:42.8      65    -21    123     69    141 108.2  68.8  34222  290.62 0854.36
2009/04/23 15:23:42.9     111     -8    167    112    201  94.4  62.8  34222  290.64 0854.36
2009/04/23 15:23:43.0      83     -7    127     84    152  95.2  64.1  34228  290.72 0854.36
2009/04/23 15:23:43.1      84     28    135     89    161  71.4  63.4  34230  290.75 0854.38
2009/04/23 15:23:43.2      37      7    119     38    124  78.6  81.2  34252  291.13 0854.38
2009/04/23 15:23:43.3     -13      4    104     14    104 288.4  90.0  34248  291.06 0854.38
2009/04/23 15:23:43.4      69   -114    127    134    184 148.8  48.5  34230  290.77 0854.38
2009/04/23 15:23:43.5      88    -73    124    115    169 130.0  52.2  34226  290.69 0854.38
2009/04/23 15:23:43.6      52    -59    119     80    143 138.6  63.2  34232  290.79 0854.38
2009/04/23 15:23:43.7      18    -26     86     32     91 145.7  79.2  34244  290.99 0854.38
2009/04/23 15:23:43.8      19     21    100     29    104  41.4  83.3  34242  290.96 0854.38
2009/04/23 15:23:43.9      52      0    109     53    121  90.0  72.4  34242  290.96 0854.38
2009/04/23 15:23:44.0      48    -37     94     61    112 127.8  64.6  34240  290.94 0854.38
2009/04/23 15:23:44.1      61     12    115     63    131  78.5  68.9  34236  290.87 0854.38
2009/04/23 15:23:44.2      76     49    148     91    173  56.7  65.1  34236  290.87 0854.38
2009/04/23 15:23:44.3     108     25    129    111    170  76.7  55.0  34272  291.47 0854.38
2009/04/23 15:23:44.4      58     46    119     75    140  51.4  64.7  34254  291.18 0854.38
2009/04/23 15:23:44.5      66     68    186     95    208  44.1  71.0  34244  290.99 0854.38
2009/04/23 15:23:44.6      98     35    137    105    172  70.5  58.7  34260  291.28 0854.38
2009/04/23 15:23:44.7     117    111    123    162    203  46.4  40.9  34288  291.76 0854.38
2009/04/23 15:23:44.8     217    127    171    252    304  59.6  37.6  34378  293.27 0854.38
2009/04/23 15:23:44.9      75    164    179    181    254  24.7  49.9  34374  293.20 0854.38
2009/04/23 15:23:45.0     169    114    112    204    232  56.0  31.4  34394  293.56 0854.38
2009/04/23 15:23:45.1      76    204     98    218    239  20.5  25.9  34380  293.32 0854.39
2009/04/23 15:23:45.2      68    156     73    171    185  23.6  24.6  34380  293.33 0854.39
2009/04/23 15:23:45.3     106    166     -7    198    199  32.5  -2.3  34374  293.22 0854.39
2009/04/23 15:23:45.4      52    158    -90    167    189  18.3 -35.2  34248  291.08 0854.39
2009/04/23 15:23:45.5     -89    -64    -65    110    127 234.0 -37.9  34238  290.91 0854.39
2009/04/23 15:23:45.6    -135    -99     50    168    176 233.8  16.6  34254  291.18 0854.39
2009/04/23 15:23:45.7    -106    -89     53    139    148 230.0  22.0  34268  291.40 0854.39
2009/04/23 15:23:45.8    -133     27     77    136    156 281.5  31.9  34310  292.12 0854.39
2009/04/23 15:23:45.9      45     50     87     68    110  42.3  57.9  34266  291.38 0854.39
2009/04/23 15:23:46.0     198     94    186    220    288  64.6  44.5  34244  290.99 0854.39
2009/04/23 15:23:46.1     294     72     49    303    308  76.1   9.3  34292  291.80 0854.39
2009/04/23 15:23:46.2     211     76    -43    225    230  70.1 -10.9  34306  292.06 0854.39
2009/04/23 15:23:46.3     130     76    125    151    196  59.8  43.8  34308  292.08 0854.39
2009/04/23 15:23:46.4     159     12    116    160    197  85.7  39.7  34306  292.05 0854.39
2009/04/23 15:23:46.5      25    -21    128     33    132 129.6  85.4  34300  291.95 0854.39
2009/04/23 15:23:46.6      13    100     37    101    107   7.6  20.4  34308  292.08 0854.39
2009/04/23 15:23:46.7     253    162    192    301    357  57.4  35.6  34334  292.54 0854.39
2009/04/23 15:23:46.8     199    152    218    251    332  52.7  45.5  34388  293.44 0854.39
2009/04/23 15:23:46.9     261    117    269    287    393  65.8  48.0  34386  293.41 0854.39
2009/04/23 15:23:47.0     256     75    201    267    334  73.6  40.8  34396  293.59 0854.39
2009/04/23 15:23:47.1     299      4    176    300    347  89.2  33.1  34380  293.31 0854.37
2009/04/23 15:23:47.2     433    137    197    455    495  72.5  24.9  34354  292.87 0854.37
2009/04/23 15:23:47.3     511    281    104    584    594  61.2  10.1  34320  292.28 0854.37
2009/04/23 15:23:47.4     437    254    157    506    530  59.8  17.3  34322  292.32 0854.37
2009/04/23 15:23:47.5     320    382    176    499    530  40.0  19.4  34312  292.15 0854.37
2009/04/23 15:23:47.6     465    197    124    506    522  67.0  13.8  34312  292.16 0854.37
2009/04/23 15:23:47.7     252    154     46    296    300  58.5   9.0  34302  291.97 0854.37
2009/04/23 15:23:47.8     342    116     85    362    372  71.2  13.3  34350  292.80 0854.37
2009/04/23 15:23:47.9     365    289    117    466    481  51.6  14.2  34300  291.95 0854.37
2009/04/23 15:23:48.0     352    271     35    445    447  52.4   4.6  34202  290.29 0854.37
2009/04/23 15:23:48.1     428    266     41    505    507  58.1   4.7  34226  290.69 0854.37
2009/04/23 15:23:48.2     455    279    -24    534    535  58.5  -2.6  34202  290.28 0854.37
2009/04/23 15:23:48.3     554    163    -69    578    583  73.6  -6.9  34210  290.41 0854.37
2009/04/23 15:23:48.4     583    147    -65    602    606  75.8  -6.2  34234  290.83 0854.37
2009/04/23 15:23:48.5     598    132    -86    613    620  77.5  -8.0  34258  291.23 0854.37
2009/04/23 15:23:48.6     495    214    130    540    556  66.6  13.6  34294  291.84 0854.37
2009/04/23 15:23:48.7     623    244    108    670    679  68.6   9.2  34318  292.26 0854.37
2009/04/23 15:23:48.8     495    180    168    528    555  70.0  17.7  34278  291.59 0854.37
2009/04/23 15:23:48.9     546    183     50    577    580  71.4   5.0  34208  290.39 0854.37
2009/04/23 15:23:49.0     546    217    126    588    602  68.3  12.2  34238  290.88 0854.38
2009/04/23 15:23:49.1     582    229    154    626    645  68.5  13.9  34198  290.21 0854.38
2009/04/23 15:23:49.2     661    248    237    707    747  69.4  18.6  34308  292.07 0854.38
2009/04/23 15:23:49.3     643    108    252    653    699  80.4  22.2  34318  292.25 0854.38
2009/04/23 15:23:49.4     456   -122     72    473    479 105.1   8.7  34288  291.73 0854.38
2009/04/23 15:23:49.5     439   -181     84    475    483 112.4  10.1  34258  291.24 0854.38
2009/04/23 15:23:49.6     406   -161    157    437    464 111.7  20.7  34280  291.60 0854.38
2009/04/23 15:23:49.7     378   -196    108    426    440 117.4  14.3  34302  291.98 0854.38
2009/04/23 15:23:49.8     325      3     26    326    328  89.4   4.6  34230  290.75 0854.38
2009/04/23 15:23:49.9     525    108     84    537    544  78.3   8.9  34208  290.40 0854.38
2009/04/23 15:23:50.0     560    283    218    628    666  63.2  19.2  34204  290.32 0854.38
2009/04/23 15:23:50.1     313    304    158    437    465  45.8  19.9  34210  290.43 0854.38
2009/04/23 15:23:50.2     411    243     47    478    481  59.4   5.7  34210  290.42 0854.38
2009/04/23 15:23:50.4     240    185     36    304    307  52.3   6.9  34218  290.56 0854.38
2009/04/23 15:23:50.4     357     46      7    360    361  82.5   1.2  34238  290.88 0854.38
2009/04/23 15:23:50.5     319      4    134    320    346  89.1  24.1  34218  290.55 0854.38
2009/04/23 15:23:50.6     118    116    141    166    217  45.3  44.8  34218  290.57 0854.38
2009/04/23 15:23:50.7      61     85    166    105    196  35.6  64.7  34220  290.58 0854.38
2009/04/23 15:23:50.8     -15    144    107    145    180 353.8  40.1  34218  290.57 0854.38
2009/04/23 15:23:50.9     -17    270     -5    271    272 356.4  -1.3  34220  290.58 0854.38
2009/04/23 15:23:51.0      73    316    -15    325    326  13.1  -2.8  34208  290.37 0854.36
2009/04/23 15:23:51.2     233    237     51    333    337  44.4   8.8  34204  290.33 0854.36
2009/04/23 15:23:51.3     139    272     43    306    310  27.1   8.0  34198  290.22 0854.36
2009/04/23 15:23:51.4      77    316   -103    326    341  13.8 -22.8  34188  290.06 0854.36
2009/04/23 15:23:51.4      97    316   -159    331    367  17.2 -31.7  34196  290.18 0854.36
2009/04/23 15:23:51.6     115    251   -100    277    294  24.7 -25.3  34180  289.90 0854.36
2009/04/23 15:23:51.7     271    269    -74    383    391  45.2 -11.0  34178  289.87 0854.36
2009/04/23 15:23:51.8     392    115    -22    409    410  73.6  -3.2  34186  290.00 0854.36
2009/04/23 15:23:51.9     421    141    -94    445    456  71.4 -12.0  34178  289.87 0854.36
2009/04/23 15:23:52.0     409    144    -68    434    440  70.5  -9.0  34178  289.88 0854.36
2009/04/23 15:23:52.1     522    206     36    562    564  68.4   3.7  34174  289.80 0854.39
2009/04/23 15:23:52.2     547    164     18    572    573  73.3   1.9  34188  290.03 0854.39
2009/04/23 15:23:52.3     558    -95     89    567    575  99.7   9.0  34270  291.43 0854.39
2009/04/23 15:23:52.4     628     63    223    632    670  84.2  20.2  34168  289.71 0854.39
2009/04/23 15:23:52.5     501    147    -86    523    531  73.6  -9.3  34194  290.16 0854.39
2009/04/23 15:23:52.6     503    141    -24    523    524  74.3  -2.7  34208  290.40 0854.39
2009/04/23 15:23:52.7     412    160     72    443    450  68.7   9.3  34220  290.60 0854.39
2009/04/23 15:23:52.8     424     85     84    433    442  78.6  11.0  34228  290.72 0854.39
2009/04/23 15:23:52.9     421    200    198    467    507  64.6  24.3  34216  290.52 0854.39
2009/04/23 15:23:53.0     351    156    197    385    432  66.0  29.2  34212  290.46 0854.39
2009/04/23 15:23:53.1     277     33    166    279    324  83.2  33.6  34216  290.53 0854.39
2009/04/23 15:23:53.2     152     68    107    167    198  65.8  35.6  34212  290.47 0854.39
2009/04/23 15:23:53.3     420    139   -139    443    464  71.6 -22.5  34212  290.44 0854.39
2009/04/23 15:23:53.4     368    135      7    393    394  69.8   1.1  34202  290.27 0854.39
2009/04/23 15:23:53.5     306     78     12    316    317  75.6   2.3  34212  290.44 0854.39
2009/04/23 15:23:53.6     275     77     47    286    290  74.3   9.5  34198  290.20 0854.39
2009/04/23 15:23:53.7     274      8      0    275    276  88.3   0.0  34208  290.39 0854.39
2009/04/23 15:23:53.8     307     54    103    312    329  80.0  18.4  34196  290.17 0854.39
2009/04/23 15:23:53.9     330     22    121    331    352  86.1  21.0  34182  289.94 0854.39
2009/04/23 15:23:54.0     309    -15     16    310    311  92.8   3.0  34196  290.17 0854.39
2009/04/23 15:23:54.1     357     52     42    361    364  81.6   6.7  34204  290.33 0854.39
2009/04/23 15:23:54.2     332     65     50    339    343  78.8   8.5  34214  290.50 0854.39
2009/04/23 15:23:54.3     294     47     78    298    309  80.8  14.7  34200  290.26 0854.39
2009/04/23 15:23:54.4     271     54     32    277    279  78.6   6.7  34196  290.19 0854.39
2009/04/23 15:23:54.5     234     42     64    238    247  79.6  15.2  34226  290.68 0854.39
2009/04/23 15:23:54.6     260     99    100    279    296  69.1  20.4  34206  290.34 0854.39
2009/04/23 15:23:54.7     281     95     96    297    313  71.2  17.9  34230  290.75 0854.39
2009/04/23 15:23:54.8     280     87     97    294    310  72.7  18.4  34278  291.58 0854.39
2009/04/23 15:23:54.9     208    114    108    238    261  61.1  26.2  34294  291.84 0854.39
2009/04/23 15:23:55.0     184    113    146    217    261  58.5  37.0  34280  291.60 0854.39
2009/04/23 15:23:55.1     116    108    146    159    215  46.9  47.7  34340  292.64 0854.39
2009/04/23 15:23:55.2      73     -8    115     74    136  97.0  64.6  34344  292.71 0854.39
2009/04/23 15:23:55.3     139    -20    113    141    180  98.4  43.0  34342  292.66 0854.39
2009/04/23 15:23:55.4      63    -63     62     90    109 135.3  38.0  34332  292.49 0854.39
2009/04/23 15:23:55.5    -105   -204     98    230    250 207.4  24.6  34310  292.11 0854.39
2009/04/23 15:23:55.6     -80   -178    115    196    227 204.1  33.4  34300  291.96 0854.39
2009/04/23 15:23:55.7     -54   -174    106    183    211 197.4  32.9  34292  291.83 0854.39
2009/04/23 15:23:55.8     -62   -188    119    199    231 198.3  34.0  34302  292.00 0854.39
2009/04/23 15:23:55.9     -23   -164    128    166    209 188.2  41.7  34312  292.17 0854.39
2009/04/23 15:23:56.0      -6   -147     94    148    175 182.6  35.5  34302  292.00 0854.39
2009/04/23 15:23:56.1      46   -194    161    200    256 166.6  43.0  34298  291.92 0854.38
2009/04/23 15:23:56.2       6   -217    150    218    264 178.2  38.0  34294  291.84 0854.38
2009/04/23 15:23:56.3     -38   -220     98    224    244 190.0  25.2  34324  292.36 0854.38
2009/04/23 15:23:56.4     -17   -269    217    270    346 183.8  43.0  34324  292.36 0854.38
2009/04/23 15:23:56.5       3   -229    183    230    293 179.1  42.7  34308  292.09 0854.38
2009/04/23 15:23:56.6     -44   -250    177    254    309 190.0  38.4  34306  292.06 0854.38
2009/04/23 15:23:56.7     -46   -193    155    199    252 193.4  41.7  34306  292.06 0854.38
2009/04/23 15:23:56.8     -47   -206    202    212    292 192.9  48.7  34302  291.99 0854.38
2009/04/23 15:23:56.9      32    -59    157     68    171 151.9  75.3  34300  291.96 0854.38
2009/04/23 15:23:57.0     -37   -111    152    118    192 198.7  58.2  34284  291.69 0854.38
2009/04/23 15:23:57.1     -20   -171    148    173    227 186.9  44.8  34266  291.38 0854.38
2009/04/23 15:23:57.2     -70   -330    123    338    359 192.0  20.8  34268  291.40 0854.38
2009/04/23 15:23:57.3     -24   -269    136    271    303 185.1  28.5  34260  291.27 0854.38
2009/04/23 15:23:57.4     -59   -294    107    300    318 191.5  20.4  34262  291.29 0854.38
2009/04/23 15:23:57.5     -31   -287     67    289    297 186.3  13.2  34262  291.29 0854.38
2009/04/23 15:23:57.6     -39   -287     45    290    294 187.8   8.9  34264  291.33 0854.38
2009/04/23 15:23:57.7     -33   -278     39    281    284 186.9   8.0  34264  291.34 0854.38
2009/04/23 15:23:57.8     -32   -290     52    292    297 186.5  10.1  34266  291.36 0854.38
2009/04/23 15:23:57.9     -52   -272     60    278    285 190.9  12.2  34262  291.31 0854.38
2009/04/23 15:23:58.0       0   -322    125    323    346 180.1  22.4  34272  291.49 0854.38
2009/04/23 15:23:58.1     -42   -294    140    298    329 188.1  27.1  34270  291.44 0854.38
2009/04/23 15:23:58.2     -74   -249     91    260    276 196.7  19.4  34270  291.43 0854.38
2009/04/23 15:23:58.3     -71   -209     71    222    234 198.9  17.7  34262  291.32 0854.38
2009/04/23 15:23:58.4     -99   -189     31    214    217 207.6   8.2  34274  291.50 0854.38
2009/04/23 15:23:58.5    -114   -193     -2    225    226 210.5  -0.7  34276  291.55 0854.38
2009/04/23 15:23:58.6     -59   -235     20    243    244 194.2   4.9  34266  291.36 0854.38
2009/04/23 15:23:58.7     -42   -233     20    237    238 190.2   5.0  34260  291.26 0854.38
2009/04/23 15:23:58.8     -10   -235     22    236    238 182.5   5.4  34254  291.16 0854.38
2009/04/23 15:23:58.9     -60   -235     85    243    258 194.5  19.4  34270  291.44 0854.38
2009/04/23 15:23:59.0    -170   -234     55    290    296 216.1  10.8  34282  291.65 0854.38
2009/04/23 15:23:59.1    -157   -230     60    279    286 214.3  12.2  34266  291.36 0854.38
2009/04/23 15:23:59.2    -131   -197     64    237    246 213.6  15.2  34268  291.39 0854.38
2009/04/23 15:23:59.3    -191   -197     85    275    289 224.1  17.3  34274  291.50 0854.38
2009/04/23 15:23:59.4    -202   -198     72    284    294 225.6  14.3  34276  291.53 0854.38
2009/04/23 15:23:59.5    -283   -156      6    324    325 241.1   1.2  34262  291.31 0854.38
2009/04/23 15:23:59.6    -218   -138    -14    259    260 237.6  -3.2  34246  291.04 0854.38
2009/04/23 15:23:59.7    -188   -122     23    225    227 237.1   5.9  34264  291.33 0854.38
2009/04/23 15:23:59.8    -260    -27      3    262    263 263.9   0.8  34228  290.71 0854.38
2009/04/23 15:23:59.9    -258    -23    -90    260    275 264.8 -24.4  34180  289.92 0854.38
2009/04/23 15:24:00.0    -259     22    -84    261    274 275.0 -22.9  34176  289.85 0854.38
2009/04/23 15:24:00.1    -247     38    -72    250    261 278.8 -16.0  34176  289.83 0854.39
2009/04/23 15:24:00.2    -259     -4    -56    260    267 269.1 -12.2  34198  290.22 0854.39
2009/04/23 15:24:00.3    -181    -25    -66    183    194 262.1 -24.6  34232  290.79 0854.39
2009/04/23 15:24:00.4    -138    -23     -7    140    141 260.3  -3.2  34204  290.33 0854.39
2009/04/23 15:24:00.5     -93    -71    -33    118    122 232.7 -20.2  34216  290.52 0854.39
2009/04/23 15:24:00.6     -96    -77     88    124    152 231.4  39.5  34218  290.57 0854.39
2009/04/23 15:24:00.7    -161      0     84    162    182 270.0  29.8  34222  290.64 0854.39
2009/04/23 15:24:00.8    -216    -69    -25    227    229 252.1  -6.5  34284  291.69 0854.39
2009/04/23 15:24:00.9    -157     31     -6    161    162 281.4  -2.2  34288  291.74 0854.39
2009/04/23 15:24:01.0    -132     82    -16    156    157 302.0  -6.2  34276  291.55 0854.39
2009/04/23 15:24:01.1    -131     52     29    142    146 291.8  11.6  34284  291.67 0854.39
2009/04/23 15:24:01.2    -127     55     58    139    150 293.5  23.6  34332  292.49 0854.39
2009/04/23 15:24:01.3    -121     32     78    126    148 285.1  35.5  34344  292.69 0854.39
2009/04/23 15:24:01.4    -161     12     40    162    167 274.3  13.9  34318  292.25 0854.39
2009/04/23 15:24:01.5    -160    -37     56    165    175 256.8  18.9  34318  292.25 0854.39
2009/04/23 15:24:01.6    -183    -49     76    190    204 254.9  23.0  34324  292.37 0854.39
2009/04/23 15:24:01.7    -214   -100    -23    237    239 244.8  -5.6  34324  292.35 0854.39
2009/04/23 15:24:01.8    -196    -29    -17    199    200 261.4  -5.1  34320  292.30 0854.39
2009/04/23 15:24:01.9    -169    -17    -21    170    172 264.1  -7.3  34312  292.17 0854.39
2009/04/23 15:24:02.0    -342    -63   -102    348    362 259.5 -21.2  34230  290.77 0854.39
2009/04/23 15:24:02.1    -216    -79    -99    231    251 250.0 -29.0  34248  291.07 0854.42
2009/04/23 15:24:02.2    -165   -136    -18    214    215 230.5  -4.9  34266  291.38 0854.42
2009/04/23 15:24:02.3     -90   -145     -9    171    172 211.9  -3.3  34294  291.84 0854.42
2009/04/23 15:24:02.4     -99   -120     32    156    160 219.6  11.6  34276  291.55 0854.42
2009/04/23 15:24:02.5    -103   -126     26    163    166 219.2   9.3  34290  291.79 0854.42
2009/04/23 15:24:02.6     -90   -142     -6    169    170 212.5  -2.2  34304  292.03 0854.42
2009/04/23 15:24:02.7    -154   -109    -57    189    198 234.7 -16.8  34268  291.40 0854.42
2009/04/23 15:24:02.8     -40   -119    -20    126    128 198.7  -9.4  34282  291.66 0854.42
2009/04/23 15:24:02.9     -31    -78     21     85     88 201.8  14.3  34278  291.57 0854.42
2009/04/23 15:24:03.0      -5    -47     68     48     83 186.2  61.1  34290  291.79 0854.42
2009/04/23 15:24:03.1       5    -44     74     45     86 172.9  65.7  34296  291.89 0854.42
2009/04/23 15:24:03.2     -24    -50     68     56     88 205.4  56.3  34314  292.18 0854.42
2009/04/23 15:24:03.3    -100    -82     48    130    138 230.5  21.0  34302  291.98 0854.42
2009/04/23 15:24:03.4    -135   -130    -17    188    189 226.0  -5.2  34300  291.95 0854.42
2009/04/23 15:24:03.5    -125   -141    -68    189    200 221.4 -24.8  34258  291.23 0854.42
2009/04/23 15:24:03.6    -267    -97   -123    285    310 250.0 -29.5  34212  290.44 0854.42
2009/04/23 15:24:03.7    -211    -74   -196    224    297 250.7 -50.2  34182  289.93 0854.42
2009/04/23 15:24:03.8    -248     26   -169    250    301 276.1 -41.8  34222  290.61 0854.42
2009/04/23 15:24:03.9    -298     97   -187    314    365 288.2 -37.9  34242  290.98 0854.42
2009/04/23 15:24:04.0    -279    131     76    309    319 295.2  13.9  34252  291.14 0854.42
2009/04/23 15:24:04.1    -275    134     24    306    308 296.0   4.6  34290  291.78 0854.42
2009/04/23 15:24:04.2    -210     70    -28    222    224 288.4  -7.3  34302  291.98 0854.42
2009/04/23 15:24:04.3    -196     59    -90    205    223 286.8 -29.5  34316  292.22 0854.42
2009/04/23 15:24:04.4    -222    114   -118    250    276 297.3 -31.5  34302  291.99 0854.42
2009/04/23 15:24:04.5    -238     78    -84    251    264 288.2 -23.6  34272  291.46 0854.42
2009/04/23 15:24:04.6    -190    -27      9    192    193 261.9   2.8  34264  291.33 0854.42
2009/04/23 15:24:04.7    -226   -111    -50    252    258 243.8 -11.3  34284  291.67 0854.42
2009/04/23 15:24:04.8     -87   -157    -86    180    199 209.0 -31.7  34278  291.59 0854.42
2009/04/23 15:24:04.9    -112      5     89    113    143 272.6  42.2  34264  291.35 0854.42
2009/04/23 15:24:05.0     -51     17    115     54    127 288.4  73.1  34268  291.42 0854.42
2009/04/23 15:24:05.1     -41    -67     44     79     90 211.6  31.4  34266  291.38 0854.42
2009/04/23 15:24:05.2       7   -210    -34    211    214 178.0  -9.3  34270  291.43 0854.42
2009/04/23 15:24:05.3      43   -142      7    149    150 163.0   2.9  34266  291.37 0854.42
2009/04/23 15:24:05.4     -10   -117     72    118    138 184.9  34.4  34260  291.26 0854.42
2009/04/23 15:24:05.5      85   -179     18    199    200 154.5   5.4  34276  291.54 0854.42
2009/04/23 15:24:05.6     105    -62    -58    123    135 120.7 -31.5  34278  291.57 0854.42
2009/04/23 15:24:05.7      -3   -201    -19    202    203 181.0  -5.6  34272  291.47 0854.42
2009/04/23 15:24:05.8     -83   -240      3    255    256 199.2   0.8  34250  291.09 0854.42
2009/04/23 15:24:05.9     -85   -127    -50    153    162 213.8 -18.3  34252  291.13 0854.42
2009/04/23 15:24:06.0      -7    -35    -98     36    104 191.6 -84.1  34264  291.35 0854.42
2009/04/23 15:24:06.1      -7    -77    -40     78     87 185.3 -33.7  34260  291.28 0854.43
2009/04/23 15:24:06.2     -42   -187     46    192    198 192.9  13.7  34250  291.09 0854.43
2009/04/23 15:24:06.3     -63   -187     27    198    201 198.7   8.0  34242  290.98 0854.43
2009/04/23 15:24:06.4     -79   -194     -4    210    211 202.3  -1.3  34236  290.87 0854.43
2009/04/23 15:24:06.5     -83   -183    -11    202    203 204.5  -3.3  34232  290.81 0854.43
2009/04/23 15:24:06.6     -80   -238     26    252    254 198.7   5.9  34228  290.71 0854.43
2009/04/23 15:24:06.7     -23   -251     30    253    255 185.3   6.9  34230  290.76 0854.43
2009/04/23 15:24:06.8     -75   -239    -31    251    254 197.6  -7.2  34230  290.75 0854.43
2009/04/23 15:24:06.9     -41   -280     51    284    289 188.5  10.3  34228  290.71 0854.43
2009/04/23 15:24:07.0     -61   -302     70    309    318 191.5  12.9  34226  290.70 0854.43
2009/04/23 15:24:07.1     -57   -378     63    383    389 188.7   9.4  34228  290.72 0854.43
2009/04/23 15:24:07.2     -59   -309     38    315    318 190.9   6.9  34222  290.63 0854.43
2009/04/23 15:24:07.3     -68   -248     31    258    260 195.4   6.9  34226  290.70 0854.43
2009/04/23 15:24:07.4     -57   -284     79    290    301 191.5  15.3  34232  290.78 0854.43
2009/04/23 15:24:07.5     -63   -285     85    292    305 192.5  16.3  34230  290.76 0854.43
2009/04/23 15:24:07.6     -59   -336     75    342    351 190.0  12.4  34248  291.05 0854.43
2009/04/23 15:24:07.7     -32   -297     14    299    300 186.3   2.8  34232  290.80 0854.43
2009/04/23 15:24:07.8     -56   -257     49    264    269 192.3  10.6  34234  290.83 0854.43
2009/04/23 15:24:07.9     -50   -247      0    253    254 191.6   0.0  34232  290.78 0854.43
2009/04/23 15:24:08.0     -18   -238      2    239    240 184.4   0.7  34228  290.71 0854.43
2009/04/23 15:24:08.1      78   -166    153    184    239 154.7  43.8  34216  290.53 0854.46
2009/04/23 15:24:08.2     188    -79    128    205    241 112.8  35.2  34222  290.62 0854.46
2009/04/23 15:24:08.3     179   -114    122    213    245 122.4  32.3  34230  290.76 0854.46
2009/04/23 15:24:08.4     112   -134    104    175    203 140.1  33.5  34228  290.72 0854.46
2009/04/23 15:24:08.5      49   -135    153    144    210 160.0  52.0  34234  290.82 0854.46
2009/04/23 15:24:08.6     143   -217    205    261    331 146.6  42.2  34224  290.66 0854.46
2009/04/23 15:24:08.7      75   -226    211    239    318 161.5  46.1  34226  290.70 0854.46
2009/04/23 15:24:08.8      50   -222    199    228    302 167.3  45.8  34224  290.66 0854.46
2009/04/23 15:24:08.9       4   -283    176    284    334 179.0  34.9  34226  290.68 0854.46
2009/04/23 15:24:09.0      50   -270    211    275    346 169.5  41.4  34222  290.63 0854.46
2009/04/23 15:24:09.1      44   -252    238    256    349 170.0  47.9  34238  290.88 0854.46
2009/04/23 15:24:09.2      95   -242    228    261    346 158.6  45.6  34248  291.07 0854.46
2009/04/23 15:24:09.3      -5   -277    208    278    347 181.1  40.6  34246  291.04 0854.46
2009/04/23 15:24:09.4     -36   -287    247    290    380 187.3  44.7  34240  290.94 0854.46
2009/04/23 15:24:09.5     -20   -304    219    305    375 183.8  39.5  34240  290.94 0854.46
2009/04/23 15:24:09.6     -67   -265    208    274    344 194.3  41.2  34240  290.92 0854.46
2009/04/23 15:24:09.7     -70   -254    192    264    326 195.4  39.7  34242  290.97 0854.46
2009/04/23 15:24:09.8     -76   -251    181    263    319 196.9  37.8  34228  290.73 0854.46
2009/04/23 15:24:09.9      35   -130    197    135    238 164.8  62.4  34252  291.13 0854.46
2009/04/23 15:24:10.0      15   -111    184    113    215 171.9  65.7  34270  291.45 0854.46
2009/04/23 15:24:10.1       0    -35    165     36    168 180.9  88.5  34272  291.47 0854.49
2009/04/23 15:24:10.2      51    -22    164     56    173 113.5  81.0  34282  291.66 0854.49
2009/04/23 15:24:10.3      -4      8    166     10    166 331.0  90.0  34278  291.57 0854.49
2009/04/23 15:24:10.4      15    -41    125     44    132 160.0  80.7  34284  291.67 0854.49
2009/04/23 15:24:10.5     122    -18    187    124    224  98.4  63.6  34264  291.33 0854.49
2009/04/23 15:24:10.6      -5    -76    127     77    148 184.4  65.7  34250  291.09 0854.49
2009/04/23 15:24:10.7      54    -91    197    107    224 149.3  68.9  34222  290.64 0854.49
2009/04/23 15:24:10.8     154   -132    204    204    288 130.7  50.1  34228  290.73 0854.49
2009/04/23 15:24:10.9     128   -115    154    173    231 131.8  46.2  34220  290.60 0854.49
2009/04/23 15:24:11.0      -9   -209    189    210    282 182.7  46.9  34218  290.56 0854.49
2009/04/23 15:24:11.1      13   -135    188    136    232 174.2  60.6  34222  290.62 0854.49
2009/04/23 15:24:11.2     149   -184    220    238    324 141.0  47.7  34212  290.44 0854.49
2009/04/23 15:24:11.3      40   -133    218    140    259 163.1  64.6  34206  290.36 0854.49
2009/04/23 15:24:11.4       0    -42    123     43    130 180.9  80.7  34220  290.58 0854.49
2009/04/23 15:24:11.5       0    -81    140     82    162 180.0  66.8  34218  290.55 0854.49
2009/04/23 15:24:11.6      97   -145    148    175    229 146.2  44.1  34218  290.57 0854.49
2009/04/23 15:24:11.7      61   -155    141    167    218 158.4  44.3  34218  290.55 0854.49
2009/04/23 15:24:11.8      10   -136    126    137    186 175.5  47.5  34238  290.91 0854.49
2009/04/23 15:24:11.9     -89   -179     77    201    215 206.5  21.7  34224  290.67 0854.49
2009/04/23 15:24:12.0    -105   -169    213    200    292 211.9  52.1  34222  290.61 0854.49
2009/04/23 15:24:12.1    -174   -232    271    291    397 216.9  47.9  34242  290.98 0854.48
2009/04/23 15:24:12.2     -31   -121    243    126    273 194.7  70.6  34266  291.38 0854.48
2009/04/23 15:24:12.3    -169   -131    179    215    279 232.2  43.8  34244  291.00 0854.48
2009/04/23 15:24:12.4    -116   -191    160    224    275 211.2  39.1  34244  291.00 0854.48
2009/04/23 15:24:12.5     130    -43    153    138    206 108.6  53.5  34236  290.86 0854.48
2009/04/23 15:24:12.6       7    -45     85     46     96 170.2  69.3  34240  290.92 0854.48
2009/04/23 15:24:12.7      55     20    112     59    126  70.0  70.4  34250  291.09 0854.48
2009/04/23 15:24:12.8      -3    -46    120     47    128 184.5  77.6  34252  291.13 0854.48
2009/04/23 15:24:12.9      -8    -61    168     62    179 188.0  78.9  34254  291.18 0854.48
2009/04/23 15:24:13.0       0     -9    169     10    169 180.9  90.0  34262  291.32 0854.48
2009/04/23 15:24:13.1       0    -42    124     43    131 180.0  81.2  34262  291.30 0854.50
2009/04/23 15:24:13.2     -72   -199     99    212    233 200.1  27.1  34232  290.81 0854.50
2009/04/23 15:24:13.3     -37   -192    107    196    223 190.9  31.3  34236  290.86 0854.50
2009/04/23 15:24:13.4     -39   -174     77    179    194 192.9  24.9  34242  290.98 0854.50
2009/04/23 15:24:13.5      23   -147     98    149    178 171.1  36.3  34248  291.06 0854.50
2009/04/23 15:24:13.6     -54   -125    118    137    180 203.6  45.1  34248  291.08 0854.50
2009/04/23 15:24:13.7     -39   -109     40    117    124 200.0  19.2  34244  290.99 0854.50
2009/04/23 15:24:13.8     -14    -94     39     96    103 188.9  23.0  34244  290.99 0854.50
2009/04/23 15:24:13.9     -28    -78      2     83     84 200.0   1.8  34246  291.04 0854.50
2009/04/23 15:24:14.0     -31    -32    -17     45     48 224.2 -24.4  34242  290.98 0854.50
2009/04/23 15:24:14.1     -50      0    -17     51     53 269.2 -23.6  34252  291.15 0854.50
2009/04/23 15:24:14.2     -71     23     -9     75     76 288.2  -7.2  34252  291.15 0854.50
2009/04/23 15:24:14.3    -206   -133    -69    246    255 237.1 -20.0  34270  291.43 0854.50
2009/04/23 15:24:14.4    -184    -27   -118    186    220 261.6 -39.9  34264  291.33 0854.50
2009/04/23 15:24:14.5    -119    -16    -41    121    127 262.0 -23.3  34266  291.38 0854.50
2009/04/23 15:24:14.6     -59     79    -13     99    100 323.0  -7.7  34268  291.40 0854.50
2009/04/23 15:24:14.7    -186     29   -115    189    221 279.0 -38.8  34270  291.43 0854.50
2009/04/23 15:24:14.8    -118    250   -188    277    334 334.8 -41.8  34264  291.34 0854.50
2009/04/23 15:24:14.9    -131    277   -207    307    370 334.7 -41.7  34264  291.34 0854.50
2009/04/23 15:24:15.0     -93    275   -220    291    364 341.3 -45.3  34272  291.49 0854.50
2009/04/23 15:24:15.1     -84    163   -179    184    256 332.8 -53.4  34264  291.34 0854.50
2009/04/23 15:24:15.2    -245     55    -67    252    261 282.8 -15.0  34272  291.46 0854.50
2009/04/23 15:24:15.3    -187    122     86    224    239 303.3  22.0  34286  291.72 0854.50
2009/04/23 15:24:15.4    -218   -153     50    267    272 234.9  10.6  34264  291.34 0854.50
2009/04/23 15:24:15.5    -363   -216     39    423    426 239.3   5.3  34206  290.36 0854.50
2009/04/23 15:24:15.6    -358    -74    -70    366    373 258.3 -10.8  34180  289.91 0854.50
2009/04/23 15:24:15.7    -139   -233    -35    272    275 210.8  -7.5  34210  290.42 0854.50
2009/04/23 15:24:15.8     -31   -287    -91    289    304 186.3 -17.6  34204  290.32 0854.50
2009/04/23 15:24:15.9      53   -197   -105    205    230 164.9 -33.6  34166  289.69 0854.50
2009/04/23 15:24:16.0      33   -157    -71    161    175 168.0 -29.7  34150  289.40 0854.50
2009/04/23 15:24:16.1     -14   -182    -80    183    199 184.5 -29.5  34162  289.60 0854.50
2009/04/23 15:24:16.2     -24   -172    -65    174    185 188.0 -25.4  34164  289.65 0854.50
2009/04/23 15:24:16.3     -57   -104    -42    119    126 208.9 -23.8  34180  289.91 0854.50
2009/04/23 15:24:16.4     -30   -127     34    131    136 193.4  14.7  34226  290.70 0854.50
2009/04/23 15:24:16.5     -17      4     27     18     32 285.1  64.6  34226  290.69 0854.50
2009/04/23 15:24:16.6      60     63     99     88    132  43.7  54.2  34246  291.04 0854.50
2009/04/23 15:24:16.7      99     30     96    104    141  73.2  47.9  34242  290.98 0854.50
2009/04/23 15:24:16.8      51     10     98     53    111  78.5  69.3  34238  290.89 0854.50
2009/04/23 15:24:17.0      -8    -12     57     15     58 212.6  84.9  34254  291.16 0854.50
2009/04/23 15:24:17.0    -117    -23    113    120    164 258.5  48.5  34264  291.33 0854.50
2009/04/23 15:24:17.1    -105     13    180    106    208 277.5  66.8  34254  291.16 0854.50
2009/04/23 15:24:17.2     -82     31    118     88    147 290.8  59.4  34258  291.25 0854.50
2009/04/23 15:24:17.3    -143    -45     61    151    162 252.3  23.0  34250  291.11 0854.50
2009/04/23 15:24:17.4     -63    -34    106     72    128 241.2  62.6  34270  291.45 0854.50
2009/04/23 15:24:17.6     161      0    128    162    206  90.0  42.7  34256  291.20 0854.50
2009/04/23 15:24:17.7      58    -94     85    111    139 148.4  41.6  34252  291.13 0854.50
2009/04/23 15:24:17.8      94    -59    127    112    169 122.0  54.3  34274  291.52 0854.50
2009/04/23 15:24:17.9     -72     87    139    114    179 320.3  56.4  34268  291.40 0854.50
2009/04/23 15:24:18.0     -25    233    150    235    278 353.8  35.6  34252  291.14 0854.50
2009/04/23 15:24:18.1    -155    146     27    214    216 313.3   7.2  34244  291.01 0854.50
2009/04/23 15:24:18.2     -52     59     40     80     89 318.6  28.2  34236  290.86 0854.50
2009/04/23 15:24:18.3    -128     48     70    137    153 290.8  29.2  34266  291.38 0854.50
2009/04/23 15:24:18.4    -247    -52    142    253    290 258.1  31.6  34274  291.51 0854.50
2009/04/23 15:24:18.5    -275   -124    138    302    332 245.6  26.4  34256  291.21 0854.50
2009/04/23 15:24:18.6    -181   -180    241    256    351 225.3  48.0  34254  291.17 0854.50
2009/04/23 15:24:18.7    -100    -49    177    112    209 243.8  64.7  34236  290.86 0854.50
2009/04/23 15:24:18.8      -5    -72    218     73    229 184.5  81.0  34256  291.21 0854.50
2009/04/23 15:24:18.9      21   -122    251    124    279 170.2  71.9  34242  290.95 0854.50
2009/04/23 15:24:19.0      -8   -263    341    264    431 181.8  58.5  34230  290.76 0854.50
2009/04/23 15:24:19.1      -2   -188    290    189    346 180.9  64.1  34240  290.92 0854.45
2009/04/23 15:24:19.2      19   -374    347    375    510 177.0  47.6  34228  290.71 0854.45
2009/04/23 15:24:19.3       4   -415    349    416    543 179.4  44.2  34242  290.98 0854.45
2009/04/23 15:24:19.4      -6   -383    384    384    543 181.0  50.1  34232  290.78 0854.45
2009/04/23 15:24:19.5     -51   -400    375    404    551 187.4  47.7  34268  291.39 0854.45
2009/04/23 15:24:19.6     -72   -345    368    353    509 191.8  51.4  34260  291.28 0854.45
2009/04/23 15:24:19.7    -117   -378    332    396    516 197.2  44.2  34236  290.85 0854.45
2009/04/23 15:24:19.8    -198   -416    330    461    566 205.5  39.2  34238  290.91 0854.45
2009/04/23 15:24:19.9    -273   -412    291    495    574 213.5  33.1  34220  290.60 0854.45
2009/04/23 15:24:20.0    -235   -322    273    399    483 216.1  37.7  34208  290.39 0854.45
2009/04/23 15:24:20.1    -186   -442    193    480    517 202.8  23.0  34188  290.06 0854.45
2009/04/23 15:24:20.2    -213   -371    267    429    505 209.9  35.0  34198  290.20 0854.45
2009/04/23 15:24:20.3    -469   -235    137    525    543 243.4  14.7  34220  290.58 0854.45
2009/04/23 15:24:20.4    -441   -165     73    472    478 249.4   8.9  34246  291.02 0854.45
2009/04/23 15:24:20.5    -436     13    208    437    483 271.7  27.3  34252  291.15 0854.45
2009/04/23 15:24:20.6    -492    -94    133    502    520 259.1  14.9  34236  290.85 0854.45
2009/04/23 15:24:20.7    -328    -22    203    329    386 266.1  34.9  34218  290.55 0854.45
2009/04/23 15:24:20.8    -275    -32     23    277    279 263.2   4.9  34228  290.71 0854.45
2009/04/23 15:24:20.9     -79   -138    185    160    244 209.9  55.0  34222  290.62 0854.45
2009/04/23 15:24:21.0    -152   -223    145    271    307 214.3  30.6  34210  290.42 0854.45
2009/04/23 15:24:21.1     -83   -235    107    250    271 199.4  24.3  34216  290.51 0854.42
2009/04/23 15:24:21.2     -77   -280    152    291    328 195.4  29.6  34222  290.63 0854.42
2009/04/23 15:24:21.3    -197   -125    118    234    262 237.6  29.1  34214  290.48 0854.42
2009/04/23 15:24:21.4    -108   -101    102    148    179 226.9  38.0  34224  290.65 0854.42
2009/04/23 15:24:21.5    -194    -20    -58    196    204 264.1 -21.7  34256  291.20 0854.42
2009/04/23 15:24:21.6    -143     -8    -20    144    146 266.5  -8.2  34240  290.94 0854.42
2009/04/23 15:24:21.7    -115    -83    -52    142    151 234.1 -25.4  34236  290.86 0854.42
2009/04/23 15:24:21.8    -130    -73    130    150    198 240.7  45.6  34230  290.75 0854.42
2009/04/23 15:24:21.9    -328    -64    -11    335    336 258.9  -1.9  34260  291.27 0854.42
2009/04/23 15:24:22.0    -289     30    -53    291    296 276.1 -10.4  34272  291.48 0854.42
2009/04/23 15:24:22.1    -536     45    -84    539    546 274.9  -8.9  34262  291.30 0854.42
2009/04/23 15:24:22.2    -411    -50   -273    415    496 263.0 -40.9  34242  290.95 0854.42
2009/04/23 15:24:22.3    -438      0   -173    439    471 270.0 -27.1  34234  290.82 0854.42
2009/04/23 15:24:22.4    -258    -40    -92    262    277 261.2 -24.6  34244  290.99 0854.42
2009/04/23 15:24:22.5    -134   -117    -35    179    183 228.9 -11.3  34262  291.32 0854.42
2009/04/23 15:24:22.6     -33   -147     75    151    168 192.9  28.2  34262  291.32 0854.42
2009/04/23 15:24:22.7    -192   -163    172    253    305 229.6  37.4  34250  291.09 0854.42
2009/04/23 15:24:22.8    -116   -242    119    269    294 205.6  25.3  34252  291.12 0854.42
2009/04/23 15:24:22.9      40   -218    156    222    271 169.5  38.6  34242  290.97 0854.42
2009/04/23 15:24:23.0      67   -196    188    208    280 161.1  46.9  34234  290.82 0854.42
2009/04/23 15:24:23.1    -164   -281    173    326    369 210.3  30.2  34204  290.33 0854.43
2009/04/23 15:24:23.2    -128   -305    194    331    383 202.8  33.1  34202  290.28 0854.43
2009/04/23 15:24:23.3     -86   -215    205    232    309 201.9  45.9  34200  290.24 0854.43
2009/04/23 15:24:23.4     -30   -119    216    123    248 194.3  67.8  34204  290.31 0854.43
2009/04/23 15:24:23.5     -46   -425    391    428    579 186.2  47.0  34196  290.19 0854.43
2009/04/23 15:24:23.6     -14   -568    316    569    650 181.5  31.5  34204  290.33 0854.43
2009/04/23 15:24:23.7     -41   -491    142    493    514 184.9  16.1  34202  290.27 0854.43
2009/04/23 15:24:23.8      68   -514     82    519    526 172.4   9.0  34206  290.35 0854.43
2009/04/23 15:24:23.9     207   -427    138    475    495 154.1  16.3  34206  290.35 0854.43
2009/04/23 15:24:24.0     -30   -390    294    392    490 184.5  40.7  34242  290.95 0854.43
2009/04/23 15:24:24.1      -4   -267    226    268    350 181.0  44.4  34250  291.09 0854.43
2009/04/23 15:24:24.2      -9   -206    335    207    393 182.7  65.6  34232  290.79 0854.43
2009/04/23 15:24:24.3     -91   -164    243    188    307 209.0  58.5  34222  290.63 0854.43
2009/04/23 15:24:24.4     -74     33    -41     82     91 294.4 -32.6  34210  290.41 0854.43
2009/04/23 15:24:24.5       2    -25   -109     26    112 175.5 -90.0  34200  290.26 0854.43
2009/04/23 15:24:24.6     -41    -64    -26     77     82 212.6 -18.7  34188  290.06 0854.43
2009/04/23 15:24:24.7     -65    -25    123     70    141 248.3  68.3  34220  290.60 0854.43
2009/04/23 15:24:24.8      -8   -151    118    152    192 183.1  42.0  34212  290.45 0854.43
2009/04/23 15:24:24.9     -52   -404    191    408    450 187.4  27.1  34192  290.11 0854.43
2009/04/23 15:24:25.0     -80   -350     97    360    374 192.9  15.2  34194  290.16 0854.43
2009/04/23 15:24:25.1    -160   -264    155    309    345 211.2  28.6  34194  290.16 0854.45
2009/04/23 15:24:25.2    -177   -414    153    451    477 203.2  18.8  34198  290.23 0854.45
2009/04/23 15:24:25.3      57   -368    349    373    510 171.2  47.9  34202  290.30 0854.45
2009/04/23 15:24:25.4     157   -303    300    342    454 152.6  45.8  34184  289.97 0854.45
2009/04/23 15:24:25.5      86   -621    239    627    671 172.1  21.8  34168  289.70 0854.45
2009/04/23 15:24:25.6     -33   -603    519    604    796 183.1  45.0  34166  289.67 0854.45
2009/04/23 15:24:25.7     -45   -645    424    647    773 184.0  36.3  34122  288.92 0854.45
2009/04/23 15:24:25.8     156   -688    354    706    789 167.2  28.7  34156  289.50 0854.45
2009/04/23 15:24:25.9     147   -626    -65    644    648 166.8  -5.8  34150  289.40 0854.45
2009/04/23 15:24:26.0     308   -170    274    352    446 118.9  41.7  34200  290.26 0854.45
2009/04/23 15:24:26.1      30   -215    137    218    257 171.9  35.5  34174  289.80 0854.45
2009/04/23 15:24:26.2      89   -120    164    150    222 143.5  52.5  34164  289.63 0854.45
2009/04/23 15:24:26.3     208   -375    292    430    519 151.0  37.6  34156  289.50 0854.45
2009/04/23 15:24:26.4     125   -411    308    430    528 163.1  39.3  34148  289.37 0854.45
2009/04/23 15:24:26.5     -27   -277    237    279    366 185.6  44.7  34162  289.62 0854.45
2009/04/23 15:24:26.6      56   -487    124    491    507 173.4  14.2  34146  289.35 0854.45
2009/04/23 15:24:26.7     163   -514    -70    540    545 162.4  -7.5  34142  289.28 0854.45
2009/04/23 15:24:26.8     300   -340      5    454    455 138.6   0.7  34134  289.12 0854.45
2009/04/23 15:24:26.9     288   -207      4    355    356 125.7   0.7  34112  288.77 0854.45
2009/04/23 15:24:27.0     115   -111    255    160    301 134.0  64.7  34150  289.39 0854.45
2009/04/23 15:24:27.1     -40    -64    134     76    154 212.5  67.7  34132  289.11 0854.43
2009/04/23 15:24:27.2    -156   -543    211    566    604 196.0  21.5  34132  289.10 0854.43
2009/04/23 15:24:27.3    -205   -575    340    611    699 199.7  31.5  34130  289.07 0854.43
2009/04/23 15:24:27.4    -147   -894    289    907    952 189.3  17.7  34146  289.35 0854.43
2009/04/23 15:24:27.5      54   -433    442    437    621 172.9  50.2  34130  289.07 0854.43
2009/04/23 15:24:27.6      22   -474    377    475    606 177.3  42.6  34134  289.14 0854.43
2009/04/23 15:24:27.7     -39   -705    331    707    780 183.2  26.9  34124  288.96 0854.43
2009/04/23 15:24:27.8    -169   -765    320    784    846 192.5  23.5  34136  289.16 0854.43
2009/04/23 15:24:27.9      61   -554    489    558    741 173.7  45.8  34138  289.21 0854.43
2009/04/23 15:24:28.0     340   -485    308    593    668 144.9  29.6  34130  289.08 0854.43
2009/04/23 15:24:28.1     297   -539    228    616    656 151.1  21.3  34130  289.08 0854.43
2009/04/23 15:24:28.2     486   -616    129    785    796 141.7   9.3  34128  289.03 0854.43
2009/04/23 15:24:28.3     379   -758     33    848    849 153.4   2.2  34116  288.83 0854.43
2009/04/23 15:24:28.4     368   -647    165    745    764 150.4  12.5  34116  288.82 0854.43
2009/04/23 15:24:28.5     442   -611     94    755    761 144.1   7.1  34114  288.79 0854.43
2009/04/23 15:24:28.6     215   -701    -28    734    735 162.9  -2.2  34112  288.75 0854.43
2009/04/23 15:24:28.7     121   -729    -81    740    745 170.6  -6.3  34100  288.57 0854.43
2009/04/23 15:24:28.8     206   -712    -23    742    743 163.9  -1.8  34106  288.67 0854.43
2009/04/23 15:24:28.9     311   -582     57    660    663 151.9   5.0  34108  288.70 0854.43
2009/04/23 15:24:29.0      89   -572    -69    580    585 171.1  -6.8  34110  288.71 0854.43
2009/04/23 15:24:29.1      78   -710     56    715    718 173.7   4.5  34110  288.71 0854.38
2009/04/23 15:24:29.2    -207   -785    -46    812    814 194.8  -3.3  34130  289.06 0854.38
2009/04/23 15:24:29.3    -187   -427   -189    467    503 203.7 -27.6  34126  289.01 0854.38
2009/04/23 15:24:29.4    -308   -397    -97    503    513 217.8 -11.0  34140  289.22 0854.38
2009/04/23 15:24:29.5    -497   -433   -140    660    675 229.0 -12.0  34126  288.99 0854.38
2009/04/23 15:24:29.6    -454   -184   -147    490    511 247.9 -21.7  34136  289.18 0854.38
2009/04/23 15:24:29.7    -340    121   -115    362    380 289.7 -17.7  34146  289.32 0854.38
2009/04/23 15:24:29.8    -147   -390    214    418    469 200.7  29.3  34126  289.00 0854.38
2009/04/23 15:24:29.9    -188   -456    329    494    593 202.4  36.9  34112  288.77 0854.38
2009/04/23 15:24:30.0    -459   -466    357    655    745 224.5  31.0  34142  289.27 0854.38
2009/04/23 15:24:30.1    -563      2    177    564    592 270.3  17.4  34118  288.86 0854.38
2009/04/23 15:24:30.2    -645     60    107    649    658 275.3   9.4  34132  289.11 0854.38
2009/04/23 15:24:30.3    -772   -133   -157    784    800 260.2 -11.3  34130  289.08 0854.38
2009/04/23 15:24:30.4    -828    110     30    836    837 277.6   2.1  34142  289.28 0854.38
2009/04/23 15:24:30.5    -773    184    -83    795    800 283.4  -6.0  34116  288.83 0854.38
2009/04/23 15:24:30.6    -804   -166     23    822    823 258.3   1.6  34140  289.23 0854.38
2009/04/23 15:24:30.7    -496    -15   -334    497    598 268.2 -41.6  34160  289.58 0854.38
2009/04/23 15:24:30.8    -670     32   -129    671    684 272.8 -10.9  34152  289.43 0854.38
2009/04/23 15:24:30.9    -513    -98    112    523    536 259.1  12.1  34140  289.24 0854.38
2009/04/23 15:24:31.0    -589    -46    153    591    611 265.5  14.5  34140  289.22 0854.38
2009/04/23 15:24:31.1    -621   -320   -329    699    772 242.7 -31.5  34154  289.46 0854.37
2009/04/23 15:24:31.2    -604   -346     74    697    702 240.2   6.1  34146  289.32 0854.37
2009/04/23 15:24:31.3    -787   -345   -164    860    876 246.3 -10.8  34144  289.30 0854.37
2009/04/23 15:24:31.4    -977   -564   -342   1129   1179 240.0 -21.7  34126  289.00 0854.37
2009/04/23 15:24:31.5    -964   -541   -581   1106   1249 240.7 -34.4  34124  288.96 0854.37
2009/04/23 15:24:31.6    -266   -349    -64    440    445 217.3  -8.4  34156  289.49 0854.37
2009/04/23 15:24:31.7    -393   -197    124    440    458 243.4  15.8  34162  289.60 0854.37
2009/04/23 15:24:31.8    -330   -404    135    522    540 219.2  14.5  34164  289.63 0854.37
2009/04/23 15:24:31.9    -100   -111    101    150    180 221.9  37.3  34158  289.53 0854.37
2009/04/23 15:24:32.0    -334     89     13    346    347 285.1   2.2  34156  289.50 0854.37
2009/04/23 15:24:32.1    -363     97   -193    376    422 285.1 -33.6  34156  289.51 0854.37
2009/04/23 15:24:32.2    -252   -135     14    286    287 241.8   2.9  34164  289.64 0854.37
2009/04/23 15:24:32.3    -152   -173     52    231    237 221.4  12.9  34166  289.68 0854.37
2009/04/23 15:24:32.4    -113    -45     57    122    134 248.3  27.1  34168  289.70 0854.37
2009/04/23 15:24:32.5    -284     69    114    293    314 283.7  22.3  34170  289.73 0854.37
2009/04/23 15:24:32.6    -378    151    -15    408    409 291.9  -2.1  34160  289.58 0854.37
2009/04/23 15:24:32.7    -481     80    -16    488    489 279.5  -1.9  34166  289.69 0854.37
2009/04/23 15:24:32.8    -409   -191   -118    452    468 244.9 -14.7  34174  289.80 0854.37
2009/04/23 15:24:32.9    -308    -28   -182    310    359 264.8 -37.7  34174  289.82 0854.37
2009/04/23 15:24:33.0    -344     25   -179    345    388 274.3 -33.9  34178  289.86 0854.37
2009/04/23 15:24:33.1    -463    -28   -129    464    481 266.5 -20.2  34178  289.86 0854.39
2009/04/23 15:24:33.2    -420   -138   -130    443    461 251.8 -21.2  34174  289.80 0854.39
2009/04/23 15:24:33.3    -296    -32   -192    298    354 263.8 -40.3  34174  289.82 0854.39
2009/04/23 15:24:33.4    -181   -312    -13    361    362 210.1  -2.1  34174  289.81 0854.39
2009/04/23 15:24:33.5    -445    -51   -153    448    473 263.4 -23.9  34152  289.45 0854.39
2009/04/23 15:24:33.6    -370    151    104    400    414 292.2  14.7  34170  289.75 0854.39
2009/04/23 15:24:33.7    -294    -16    151    295    331 266.7  29.4  34184  289.97 0854.39
2009/04/23 15:24:33.8    -271     28    115    273    296 276.1  24.2  34168  289.71 0854.39
2009/04/23 15:24:33.9    -537     15   -304    538    617 271.6 -36.4  34138  289.20 0854.39
2009/04/23 15:24:34.0    -563   -583   -189    811    833 224.0 -13.2  34168  289.70 0854.39
2009/04/23 15:24:34.1     -94   -521    -89    530    538 190.2  -9.6  34178  289.87 0854.40
2009/04/23 15:24:34.2    -404   -339   -305    528    609 230.0 -37.0  34166  289.66 0854.40
2009/04/23 15:24:34.3    -122   -368   -174    388    425 198.4 -30.3  34164  289.65 0854.40
2009/04/23 15:24:34.4    -195   -523   -147    559    579 200.5 -14.8  34182  289.93 0854.40
2009/04/23 15:24:34.5    -311   -395   -150    504    526 218.2 -16.6  34166  289.69 0854.40
2009/04/23 15:24:34.6    -818   -187   -245    840    875 257.1 -21.0  34152  289.43 0854.40
2009/04/23 15:24:34.7    -885    -38   -232    886    916 267.5 -14.7  34156  289.51 0854.40
2009/04/23 15:24:34.8    -568    148    -26    587    588 284.6  -2.6  34156  289.49 0854.40
2009/04/23 15:24:34.9    -399   -203     24    448    449 243.0   3.1  34164  289.65 0854.40
2009/04/23 15:24:35.0    -355   -588   -113    688    698 211.1  -9.4  34200  290.24 0854.40
2009/04/23 15:24:35.1    -264   -734   -237    781    817 199.8 -16.9  34168  289.70 0854.40
2009/04/23 15:24:35.2     -77   -727   -140    732    746 186.1 -10.8  34188  290.06 0854.40
2009/04/23 15:24:35.3      51   -637   -173    640    664 175.4 -15.2  34174  289.82 0854.40
2009/04/23 15:24:35.4      14   -813    -33    814    815 179.0  -2.4  34170  289.75 0854.40
2009/04/23 15:24:35.5    -204   -841   -278    866    909 193.7 -22.9  34140  289.23 0854.40
2009/04/23 15:24:35.6    -121   -644    -40    656    658 190.7  -3.5  34170  289.75 0854.40
2009/04/23 15:24:35.7    -120   -509     -6    523    524 193.3  -0.7  34184  289.97 0854.40
2009/04/23 15:24:35.8      93   -779    -30    785    786 173.1  -2.2  34160  289.56 0854.40
2009/04/23 15:24:35.9     107   -840    -16    847    848 172.7  -1.1  34158  289.53 0854.40
2009/04/23 15:24:36.0     394   -865    -37    951    952 155.5  -2.2  34174  289.81 0854.40
2009/04/23 15:24:36.1     -34   -244    380    247    453 188.1  64.1  34172  289.77 0854.40
2009/04/23 15:24:36.2    -266   -276    487    384    620 223.9  57.9  34182  289.96 0854.40
2009/04/23 15:24:36.3      -9   -115    268    116    292 184.5  75.3  34178  289.86 0854.40
2009/04/23 15:24:36.4      90   -208    178    227    288 156.6  42.0  34160  289.58 0854.40
2009/04/23 15:24:36.5     162   -638    199    659    689 165.7  16.8  34184  289.97 0854.40
2009/04/23 15:24:36.6     185   -660    225    686    723 164.3  18.2  34156  289.49 0854.40
2009/04/23 15:24:36.7     -11   -369    371    370    523 181.7  50.1  34160  289.56 0854.40
2009/04/23 15:24:36.8    -127   -162    150    207    255 218.1  39.7  34162  289.59 0854.40
2009/04/23 15:24:36.9    -115   -347      3    366    367 198.5   0.5  34158  289.54 0854.40
2009/04/23 15:24:37.0    -132   -351    141    376    401 200.6  21.4  34158  289.54 0854.40
2009/04/23 15:24:37.1    -135   -590    230    606    648 192.9  21.8  34162  289.60 0854.40
2009/04/23 15:24:37.2     -71   -655    -12    659    660 186.2  -1.1  34166  289.66 0854.40
2009/04/23 15:24:37.3      89   -593    117    600    612 171.4  11.1  34174  289.80 0854.40
2009/04/23 15:24:37.4      37   -483     41    485    487 175.6   4.9  34178  289.88 0854.40
2009/04/23 15:24:37.5     105   -388     75    402    409 164.9  10.6  34176  289.85 0854.40
2009/04/23 15:24:37.6     -13   -429     21    430    431 181.8   2.9  34168  289.72 0854.40
2009/04/23 15:24:37.7     -49   -411     42    414    417 186.8   5.9  34170  289.73 0854.40
2009/04/23 15:24:37.8    -139   -340    195    368    416 202.3  30.2  34186  290.01 0854.40
2009/04/23 15:24:37.9    -150   -412    165    439    468 200.1  21.5  34186  290.00 0854.40
2009/04/23 15:24:38.0    -135   -455    -18    475    476 196.6  -2.2  34186  290.01 0854.40
2009/04/23 15:24:38.1    -483   -281   -184    559    588 239.8 -23.3  34188  290.03 0854.37
2009/04/23 15:24:38.2    -638   -351    -11    729    730 241.2  -0.9  34182  289.96 0854.37
2009/04/23 15:24:38.3    -488   -354    -33    603    604 234.0  -3.1  34178  289.88 0854.37
2009/04/23 15:24:38.4    -726   -122   -220    737    770 260.4 -16.6  34186  290.01 0854.37
2009/04/23 15:24:38.5    -509   -222     98    556    565 246.4  10.0  34172  289.79 0854.37
2009/04/23 15:24:38.6    -341   -174     85    383    393 242.9  12.6  34184  289.99 0854.37
2009/04/23 15:24:38.7     -36   -179      8    183    184 191.6   2.8  34190  290.09 0854.37
2009/04/23 15:24:38.8      57   -158    131    169    213 160.0  41.7  34184  289.99 0854.37
2009/04/23 15:24:38.9     232   -147     54    275    281 122.4  11.1  34184  289.97 0854.37
2009/04/23 15:24:39.0     132   -290    -96    319    333 155.5 -21.5  34180  289.91 0854.37
2009/04/23 15:24:39.1     -40   -282    -79    285    296 188.1 -15.5  34172  289.78 0854.37
2009/04/23 15:24:39.2     -15   -388     84    389    399 182.3  12.3  34168  289.72 0854.37
2009/04/23 15:24:39.3     -54   -314    134    319    346 189.8  24.1  34172  289.79 0854.37
2009/04/23 15:24:39.4     -93   -255     93    272    288 200.1  18.9  34174  289.80 0854.37
2009/04/23 15:24:39.5    -300   -319     93    439    449 223.2  12.0  34174  289.80 0854.37
2009/04/23 15:24:39.6    -351   -308     -2    468    469 228.7  -0.3  34172  289.76 0854.37
2009/04/23 15:24:39.7    -301   -394     14    497    498 217.4   1.7  34160  289.56 0854.37
2009/04/23 15:24:39.8     -65   -355    -59    362    367 190.5  -9.3  34156  289.52 0854.37
2009/04/23 15:24:39.9     -80   -515     82    522    529 188.9   9.0  34144  289.29 0854.37
2009/04/23 15:24:40.0     -26   -715    297    716    775 182.1  23.9  34136  289.18 0854.37
2009/04/23 15:24:40.1     -60   -769    154    772    788 184.5  11.3  34144  289.30 0854.37
2009/04/23 15:24:40.2      97   -617    272    625    681 171.0  25.1  34160  289.58 0854.37
2009/04/23 15:24:40.3      32   -676     51    677    679 177.2   4.4  34156  289.51 0854.37
2009/04/23 15:24:40.4      24   -500    214    501    544 177.2  24.6  34144  289.29 0854.37
2009/04/23 15:24:40.5     158   -378    195    410    454 157.3  27.2  34154  289.46 0854.37
2009/04/23 15:24:40.6     306   -335    305    454    546 137.6  37.1  34156  289.49 0854.37
2009/04/23 15:24:40.7     123    -89    270    153    310 126.0  68.1  34168  289.70 0854.37
2009/04/23 15:24:40.8       3   -224    181    225    288 179.1  43.0  34172  289.76 0854.37
2009/04/23 15:24:40.9     -30   -146    214    150    261 191.6  61.7  34154  289.46 0854.37
2009/04/23 15:24:41.0     144   -446    280    469    546 162.1  33.6  34150  289.41 0854.37
2009/04/23 15:24:41.1     173   -361    439    401    594 154.4  53.0  34162  289.60 0854.37
2009/04/23 15:24:41.2      32   -302    256    304    397 173.8  44.4  34152  289.42 0854.37
2009/04/23 15:24:41.3     322   -525    368    616    717 148.5  33.6  34158  289.53 0854.37
2009/04/23 15:24:41.4    -128   -632    301    645    711 191.5  26.9  34164  289.63 0854.37
2009/04/23 15:24:41.5     -28   -525     87    526    534 183.1   9.4  34170  289.74 0854.37
2009/04/23 15:24:41.6     331   -468    144    574    592 144.7  14.2  34174  289.80 0854.37
2009/04/23 15:24:41.7     296   -189    168    352    390 122.6  27.3  34170  289.74 0854.37
2009/04/23 15:24:41.8      70   -588     36    593    595 173.2   3.5  34166  289.66 0854.37
2009/04/23 15:24:41.9     -95   -480     73    490    496 191.2   8.5  34172  289.78 0854.37
2009/04/23 15:24:42.0    -219   -354     69    417    423 211.7   9.5  34174  289.80 0854.37
2009/04/23 15:24:42.1    -184   -351    189    397    439 207.6  27.3  34178  289.87 0854.37
2009/04/23 15:24:42.2    -173   -263    232    316    392 213.4  40.0  34178  289.89 0854.37
2009/04/23 15:24:42.3    -413    -11    164    414    445 268.4  23.0  34180  289.92 0854.37
2009/04/23 15:24:42.4    -244    -21    196    245    313 265.0  42.7  34198  290.22 0854.37
2009/04/23 15:24:42.5     -84   -275    249    288    380 197.0  45.2  34194  290.15 0854.37
2009/04/23 15:24:42.6      33    -54    203     64    212 148.4  81.8  34206  290.36 0854.37
2009/04/23 15:24:42.7     -61   -215    252    224    337 196.0  53.7  34200  290.26 0854.37
2009/04/23 15:24:42.8     -58   -270    288    277    399 192.3  51.2  34192  290.13 0854.37
2009/04/23 15:24:42.9      -5   -190    208    191    282 181.6  52.5  34194  290.14 0854.37
2009/04/23 15:24:43.0     -84   -293    123    305    328 196.0  23.2  34188  290.05 0854.37
2009/04/23 15:24:43.1    -130   -236     96    270    287 208.9  19.6  34188  290.03 0854.37
2009/04/23 15:24:43.3    -185   -355    198    401    447 207.5  28.2  34180  289.90 0854.37
2009/04/23 15:24:43.3    -121   -325    197    347    399 200.5  32.3  34178  289.89 0854.37
2009/04/23 15:24:43.4     -21   -209    258    211    333 185.8  56.6  34190  290.07 0854.37
2009/04/23 15:24:43.5      66   -110    186    129    226 149.2  62.1  34194  290.14 0854.37
2009/04/23 15:24:43.6      37   -138    162    143    216 164.9  54.2  34196  290.19 0854.37
2009/04/23 15:24:43.8     -62   -226     81    235    249 195.4  19.2  34228  290.71 0854.37
2009/04/23 15:24:43.9     -83     68    157    108    190 309.5  62.4  34224  290.67 0854.37
2009/04/23 15:24:44.0     -27     37     92     47    103 323.9  71.4  34224  290.65 0854.37
2009/04/23 15:24:44.0     -44    -60    165     75    181 216.1  74.0  34220  290.58 0854.39
2009/04/23 15:24:44.2      34   -364     52    366    370 174.6   8.1  34186  290.01 0854.39
2009/04/23 15:24:44.3     -56   -294    156    300    338 190.9  29.6  34184  289.98 0854.39
2009/04/23 15:24:44.4      55   -270    201    276    341 168.4  39.7  34208  290.39 0854.39
2009/04/23 15:24:44.5    -259   -205    164    331    369 231.6  28.2  34182  289.94 0854.39
2009/04/23 15:24:44.6    -205   -190    197    280    342 227.1  38.6  34190  290.09 0854.39
2009/04/23 15:24:44.7    -171   -307    275    352    446 209.2  41.9  34214  290.50 0854.39
2009/04/23 15:24:44.8    -270   -138     93    304    318 242.9  17.0  34202  290.27 0854.39
2009/04/23 15:24:44.9    -164   -112     76    199    213 235.6  21.5  34216  290.53 0854.39
2009/04/23 15:24:45.0    -343    -58    -41    348    351 260.4  -6.8  34220  290.60 0854.39
2009/04/23 15:24:45.1    -412     78     55    420    424 280.7   7.6  34202  290.28 0854.39
2009/04/23 15:24:45.2    -172   -206    120    269    294 219.9  25.7  34208  290.39 0854.39
2009/04/23 15:24:45.3    -100   -218    164    241    291 204.7  37.4  34200  290.24 0854.39
2009/04/23 15:24:45.4    -145    -92    164    172    237 237.6  48.7  34198  290.23 0854.39
2009/04/23 15:24:45.5    -160    -97    216    188    286 238.9  54.3  34198  290.22 0854.39
2009/04/23 15:24:45.6    -417   -115     12    433    434 254.5   1.6  34220  290.60 0854.39
2009/04/23 15:24:45.7    -383   -145    145    410    434 249.2  20.3  34214  290.50 0854.39
2009/04/23 15:24:45.8    -245   -131    176    278    329 241.8  35.5  34210  290.42 0854.39
2009/04/23 15:24:45.9    -242    -35    197    245    314 261.6  43.0  34210  290.41 0854.39
2009/04/23 15:24:46.0    -273   -124    112    300    320 245.6  21.4  34216  290.53 0854.39
2009/04/23 15:24:46.1    -263    -46    136    268    300 260.1  29.2  34214  290.48 0854.40
2009/04/23 15:24:46.2    -228   -140    196    268    332 238.5  39.8  34214  290.49 0854.40
2009/04/23 15:24:46.3    -121   -166    117    206    236 216.1  32.3  34202  290.28 0854.40
2009/04/23 15:24:46.4     -60   -162    155    174    233 200.5  46.4  34182  289.96 0854.40
2009/04/23 15:24:46.5       8    -26    170     28    172 161.3  90.0  34200  290.26 0854.40
2009/04/23 15:24:46.6      16     49    177     52    184  18.3  83.3  34228  290.74 0854.40
2009/04/23 15:24:46.7     -25   -168    258    170    308 188.7  63.6  34246  291.04 0854.40
2009/04/23 15:24:46.8    -169   -227    267    284    389 216.7  48.0  34226  290.69 0854.40
2009/04/23 15:24:46.9    -117   -247    216    274    348 205.3  42.4  34212  290.44 0854.40
2009/04/23 15:24:47.0    -167   -183    289    249    381 222.4  54.9  34234  290.83 0854.40
2009/04/23 15:24:47.1    -312   -299    144    433    457 226.2  18.5  34244  290.99 0854.40
2009/04/23 15:24:47.2     -88   -202    154    221    269 203.6  38.4  34188  290.05 0854.40
2009/04/23 15:24:47.3     -23   -294    256    295    390 184.5  45.5  34192  290.11 0854.40
2009/04/23 15:24:47.4     -78   -212    241    227    331 200.3  52.0  34186  290.00 0854.40
2009/04/23 15:24:47.5     -34   -108    213    114    241 197.4  69.8  34196  290.18 0854.40
2009/04/23 15:24:47.6     -65   -140    219    155    268 204.9  61.3  34202  290.29 0854.40
2009/04/23 15:24:47.7      -5    -72    153     73    169 184.5  72.8  34210  290.41 0854.40
2009/04/23 15:24:47.8     -53    -10     76     55     93 258.6  61.1  34208  290.38 0854.40
2009/04/23 15:24:47.9    -102   -116     81    155    174 221.4  29.8  34196  290.18 0854.40
2009/04/23 15:24:48.0    -226    -13    -68    227    236 266.5 -21.5  34220  290.58 0854.40
2009/04/23 15:24:48.1    -204    -84    -12    221    222 247.4  -3.1  34222  290.62 0854.41
2009/04/23 15:24:48.2    -169   -135     -8    217    218 231.4  -2.2  34210  290.43 0854.41
2009/04/23 15:24:48.3    -214   -336    -35    399    401 212.6  -5.1  34194  290.15 0854.41
2009/04/23 15:24:48.4    -211   -382    -24    437    438 208.9  -3.2  34192  290.11 0854.41
2009/04/23 15:24:48.5    -136   -357     90    383    394 200.9  13.2  34208  290.38 0854.41
2009/04/23 15:24:48.6    -169   -371     57    408    413 204.5   8.0  34184  289.99 0854.41
2009/04/23 15:24:48.7     -16   -347    183    348    393 182.7  30.0  34178  289.89 0854.41
2009/04/23 15:24:48.8       0   -268    135    269    300 179.9  29.1  34174  289.80 0854.41
2009/04/23 15:24:48.9      21   -262    131    263    293 175.3  28.2  34184  289.97 0854.41
2009/04/23 15:24:49.0      26   -241    175    243    299 173.8  39.5  34184  289.97 0854.41
2009/04/23 15:24:49.1     -41   -199    165    204    262 191.8  43.0  34184  289.97 0854.41
2009/04/23 15:24:49.2    -196   -142    116    243    269 234.0  27.3  34210  290.41 0854.41
2009/04/23 15:24:49.3    -150    -83     86    172    192 241.1  28.2  34220  290.60 0854.41
2009/04/23 15:24:49.4     -34    -63     96     72    120 208.9  59.4  34198  290.23 0854.41
2009/04/23 15:24:49.5     -70     13     95     72    119 280.6  59.0  34198  290.21 0854.41
2009/04/23 15:24:49.6    -219    304    214    375    431 324.2  32.3  34250  291.09 0854.41
2009/04/23 15:24:49.7    -180    138    146    227    269 307.5  35.6  34242  290.97 0854.41
2009/04/23 15:24:49.8     -96    199     91    222    239 334.1  23.6  34236  290.85 0854.41
2009/04/23 15:24:49.9    -201    210    107    291    310 316.3  21.0  34232  290.78 0854.41
2009/04/23 15:24:50.0    -156    177     75    237    249 318.6  17.7  34236  290.85 0854.41
2009/04/23 15:24:50.1     -91    201    -27    221    223 335.7  -7.2  34228  290.74 0854.42
2009/04/23 15:24:50.2       3      2    107      4    107  57.6  90.0  34226  290.69 0854.42
2009/04/23 15:24:50.3     -63    106     35    124    129 329.2  15.8  34214  290.50 0854.42
2009/04/23 15:24:50.4     256    -10     98    257    275  92.4  22.0  34220  290.59 0854.42
2009/04/23 15:24:50.5     274     -1    102    275    293  90.4  21.0  34212  290.46 0854.42
2009/04/23 15:24:50.6     209     55    134    217    255  75.2  34.5  34190  290.07 0854.42
2009/04/23 15:24:50.7     195     51     70    202    214  75.2  19.2  34188  290.06 0854.42
2009/04/23 15:24:50.8     183    -60    -15    193    194 108.4  -4.6  34186  290.01 0854.42
2009/04/23 15:24:50.9     161    -78    -19    180    182 116.0  -6.2  34182  289.96 0854.42
2009/04/23 15:24:51.0     110    -70     30    131    135 122.4  13.2  34194  290.16 0854.42
2009/04/23 15:24:51.1     126    -81     41    151    157 122.9  15.3  34192  290.13 0854.42
2009/04/23 15:24:51.2      89    -57    -32    106    111 122.9 -17.0  34192  290.13 0854.42
2009/04/23 15:24:51.3      38    -48     -5     62     63 142.2  -5.2  34204  290.31 0854.42
2009/04/23 15:24:51.4      10    -45     25     47     53 166.6  30.3  34216  290.52 0854.42
2009/04/23 15:24:51.5       1    -21     60     22     63 175.5  80.2  34232  290.79 0854.42
2009/04/23 15:24:51.6     -88     49     71    101    123 299.3  38.6  34208  290.38 0854.42
2009/04/23 15:24:51.7    -142     72     39    160    165 296.9  13.7  34192  290.13 0854.42
2009/04/23 15:24:51.8     -96     53     40    110    117 298.9  20.9  34184  289.97 0854.42
2009/04/23 15:24:51.9     -93    -82    134    125    183 228.7  52.1  34174  289.80 0854.42
2009/04/23 15:24:52.0     -63    -18     41     66     77 254.1  35.5  34174  289.82 0854.42
2009/04/23 15:24:52.1      63     -4     34     64     72  94.3  30.3  34176  289.84 0854.45
2009/04/23 15:24:52.2      83    -18     50     85     98 102.4  32.9  34176  289.84 0854.45
2009/04/23 15:24:52.3      33     42     95     54    109  38.7  68.3  34202  290.30 0854.45
2009/04/23 15:24:52.4     -53     38     66     66     93 306.0  50.1  34198  290.23 0854.45
2009/04/23 15:24:52.5     -69     14     66     71     96 281.5  48.5  34202  290.30 0854.45
2009/04/23 15:24:52.6     -11     -2     45     12     46 258.5  84.9  34214  290.48 0854.45
2009/04/23 15:24:52.7       5    -13     23     15     27 158.2  64.6  34218  290.57 0854.45
2009/04/23 15:24:52.8      21     32      5     39     40  32.6   8.0  34210  290.43 0854.45
2009/04/23 15:24:52.9       0     10     11     11     15   0.9  50.1  34212  290.47 0854.45
2009/04/23 15:24:53.0     -29    -51     57     59     82 209.9  49.4  34212  290.47 0854.45
2009/04/23 15:24:53.1     -46   -111     -2    121    122 202.7  -1.3  34170  289.74 0854.45
2009/04/23 15:24:53.2     -51    -88     12    102    103 210.3   7.1  34164  289.65 0854.45
2009/04/23 15:24:53.3     -71    -91     41    116    124 217.9  19.4  34170  289.75 0854.45
2009/04/23 15:24:53.4     -94    -60     -3    112    113 237.6  -1.8  34174  289.80 0854.45
2009/04/23 15:24:53.5    -183    -15    -23    184    186 265.0  -7.3  34172  289.77 0854.45
2009/04/23 15:24:53.6    -190    -33    -66    193    203 260.1 -23.6  34180  289.92 0854.45
2009/04/23 15:24:53.7     -77     -5    105     78    130 265.6  60.0  34182  289.94 0854.45
2009/04/23 15:24:53.8     -31    -92    117     98    152 198.7  56.3  34178  289.87 0854.45
2009/04/23 15:24:53.9     -46   -119    147    128    194 201.4  54.8  34190  290.09 0854.45
2009/04/23 15:24:54.0     -53   -221    174    228    286 193.6  41.4  34190  290.09 0854.45
2009/04/23 15:24:54.1       2   -150    214    151    261 179.1  61.5  34194  290.16 0854.47
2009/04/23 15:24:54.2       1   -177    270    178    323 179.5  63.5  34200  290.24 0854.47
2009/04/23 15:24:54.3    -108   -251    205    274    342 203.4  40.6  34200  290.24 0854.47
2009/04/23 15:24:54.4     -78   -272    200    284    347 196.0  38.7  34198  290.22 0854.47
2009/04/23 15:24:54.5     -86   -214     63    231    240 202.1  15.3  34184  289.98 0854.47
2009/04/23 15:24:54.6      94   -197    112    219    245 154.5  29.1  34194  290.15 0854.47
2009/04/23 15:24:54.7     143   -261     91    298    312 151.1  17.1  34178  289.88 0854.47
2009/04/23 15:24:54.8      59   -257     48    264    269 166.9  10.3  34184  289.98 0854.47
2009/04/23 15:24:54.9     -49   -353     44    357    360 188.0   7.1  34174  289.81 0854.47
2009/04/23 15:24:55.0     -44   -287    -38    291    294 188.9  -7.5  34170  289.75 0854.47
2009/04/23 15:24:55.1     -62   -263    -69    271    280 193.4 -14.3  34172  289.76 0854.47
2009/04/23 15:24:55.2     -36   -259    -18    262    263 188.1  -4.1  34170  289.75 0854.47
2009/04/23 15:24:55.3     -76   -250     27    262    264 196.9   5.9  34172  289.78 0854.47
2009/04/23 15:24:55.4     -41   -250    -69    254    264 189.3 -15.2  34172  289.78 0854.47
2009/04/23 15:24:55.5     -47   -276    -79    280    290 189.7 -20.4  34170  289.73 0854.47
2009/04/23 15:24:55.6     -63   -218    -28    228    230 196.3  -7.2  34172  289.77 0854.47
2009/04/23 15:24:55.7    -244   -187    -82    308    319 232.5 -15.0  34176  289.85 0854.47
2009/04/23 15:24:55.8    -211   -333    -72    395    402 212.4 -10.4  34184  289.98 0854.47
2009/04/23 15:24:55.9    -188   -253    -89    316    329 216.5 -15.8  34188  290.03 0854.47
2009/04/23 15:24:56.0     -94    -96   -111    135    174 224.5 -48.1  34192  290.13 0854.47
2009/04/23 15:24:56.1      57    -74     54     94    108 142.6  32.4  34180  289.91 0854.47
2009/04/23 15:24:56.2     -34   -146    166    151    224 193.3  52.7  34194  290.16 0854.47
2009/04/23 15:24:56.3     -13    -96    121     97    155 188.0  56.4  34192  290.11 0854.47
2009/04/23 15:24:56.4      -5    -25    158     26    160 191.6  90.0  34202  290.30 0854.47
2009/04/23 15:24:56.5     -52    -77    101     94    137 214.3  52.2  34184  289.97 0854.47
2009/04/23 15:24:56.6     100   -144    140    176    224 145.0  43.0  34166  289.67 0854.47
2009/04/23 15:24:56.7     101   -201    121    226    256 153.3  30.6  34174  289.80 0854.47
2009/04/23 15:24:56.8      93   -451    194    461    500 168.3  24.2  34166  289.67 0854.47
2009/04/23 15:24:56.9     131   -569    128    584    598 167.0  12.4  34152  289.44 0854.47
2009/04/23 15:24:57.0      36   -668    112    670    680 176.9   9.5  34162  289.60 0854.47
2009/04/23 15:24:57.1     144   -770    114    784    793 169.4   8.3  34162  289.61 0854.48
2009/04/23 15:24:57.2     -34   -625    289    627    690 183.2  26.5  34186  290.00 0854.48
2009/04/23 15:24:57.3      77   -516    -20    522    523 171.4  -2.2  34164  289.65 0854.48
2009/04/23 15:24:57.4     -28   -617     78    618    623 182.6   7.2  34158  289.53 0854.48
2009/04/23 15:24:57.5      27   -538     55    539    542 177.1   5.9  34172  289.77 0854.48
2009/04/23 15:24:57.6     100   -536    -39    546    548 169.4  -4.1  34174  289.82 0854.48
2009/04/23 15:24:57.7     263   -514    -31    578    579 152.9  -3.1  34176  289.85 0854.48
2009/04/23 15:24:57.8     271   -367    -42    457    460 143.6  -5.4  34178  289.88 0854.48
2009/04/23 15:24:57.9     188   -239    -84    305    317 141.9 -15.4  34178  289.86 0854.48
2009/04/23 15:24:58.0     178   -172   -138    248    283 134.0 -35.8  34186  290.02 0854.48
2009/04/23 15:24:58.1     393   -428     35    582    584 137.5   3.5  34182  289.93 0854.48
2009/04/23 15:24:58.2     253   -189    256    317    407 126.8  43.1  34186  290.01 0854.48
2009/04/23 15:24:58.3     110   -198    187    227    294 151.0  43.7  34200  290.26 0854.48
2009/04/23 15:24:58.4     269    -93    263    285    387 109.1  47.8  34198  290.23 0854.48
2009/04/23 15:24:58.5     374    -47    329    377    500  97.2  45.6  34212  290.44 0854.48
2009/04/23 15:24:58.6      57   -155    311    166    352 159.7  69.8  34212  290.44 0854.48
2009/04/23 15:24:58.7      61    -59    353     86    363 134.0  86.7  34200  290.26 0854.48
2009/04/23 15:24:58.8     158    -63    382    171    418 112.0  74.3  34200  290.25 0854.48
2009/04/23 15:24:58.9     -42   -300    413    304    512 188.0  60.1  34200  290.26 0854.48
2009/04/23 15:24:59.0     -43   -207    343    212    403 191.8  65.6  34198  290.21 0854.48
2009/04/23 15:24:59.1    -107   -259    279    281    395 202.5  50.0  34202  290.28 0854.50
2009/04/23 15:24:59.2    -142   -206    252    251    355 214.5  50.1  34194  290.15 0854.50
2009/04/23 15:24:59.3    -148   -284    316    321    450 207.6  49.8  34196  290.19 0854.50
2009/04/23 15:24:59.4    -319   -139     89    349    361 246.4  14.3  34202  290.30 0854.50
2009/04/23 15:24:59.5    -460    -20    -12    461    462 267.4  -1.6  34212  290.46 0854.50
2009/04/23 15:24:59.6    -472    138    -91    492    501 286.3 -10.5  34198  290.22 0854.50
2009/04/23 15:24:59.7    -511     67    -10    516    517 277.5  -1.2  34218  290.56 0854.50
2009/04/23 15:24:59.8    -458    -79    -90    465    474 260.1 -11.0  34202  290.29 0854.50
2009/04/23 15:24:59.9    -505     38    164    507    533 274.4  17.9  34208  290.40 0854.50
2009/04/23 15:25:00.0    -391     58    127    396    416 278.5  17.8  34234  290.82 0854.50
2009/04/23 15:25:00.1    -413    129    194    433    474 287.4  25.7  34242  290.95 0854.50
2009/04/23 15:25:00.2    -409    170    162    444    472 292.6  21.0  34266  291.36 0854.50
2009/04/23 15:25:00.3    -301    299    212    425    474 314.8  28.6  34248  291.07 0854.50
2009/04/23 15:25:00.4    -205    383    175    435    468 331.9  23.1  34242  290.95 0854.50
2009/04/23 15:25:00.5    -172    287    308    335    455 329.1  47.5  34224  290.65 0854.50
2009/04/23 15:25:00.6     -28    295    184    297    349 354.6  35.0  34222  290.62 0854.50
2009/04/23 15:25:00.7      82    229    190    244    309  19.8  41.7  34244  291.00 0854.50
2009/04/23 15:25:00.8     -97    362    191    375    420 345.0  29.2  34266  291.38 0854.50
2009/04/23 15:25:00.9      -9    347    221    348    412 358.4  35.5  34270  291.44 0854.50
2009/04/23 15:25:01.0       0    313    110    314    332   0.1  20.1  34264  291.33 0854.50
2009/04/23 15:25:01.1     -16    112    230    114    256 351.9  71.9  34246  291.03 0854.53
2009/04/23 15:25:01.2    -208    -56    115    216    244 254.7  30.2  34226  290.68 0854.53
2009/04/23 15:25:01.3    -318   -192     42    372    375 238.8   6.5  34214  290.49 0854.53
2009/04/23 15:25:01.4    -169   -122    168    209    268 234.0  43.0  34198  290.20 0854.53
2009/04/23 15:25:01.5     -22   -146    222    148    266 188.9  63.4  34192  290.12 0854.53
2009/04/23 15:25:01.6     -43   -215    108    220    245 191.3  28.0  34178  289.88 0854.53
2009/04/23 15:25:01.7     -16   -319     79    320    330 182.9  13.9  34182  289.93 0854.53
2009/04/23 15:25:01.8     -75   -174     52    190    198 203.4  15.3  34178  289.87 0854.53
2009/04/23 15:25:01.9     -66   -140    121    155    196 205.3  42.0  34192  290.11 0854.53
2009/04/23 15:25:02.0    -156    -95     70    183    195 238.7  22.0  34214  290.48 0854.53
2009/04/23 15:25:02.1     -75     48    109     90    141 302.9  56.4  34214  290.50 0854.53
2009/04/23 15:25:02.2     -71     98    171    122    210 324.0  61.1  34222  290.64 0854.53
2009/04/23 15:25:02.3     -78     66    138    103    172 310.4  59.4  34222  290.64 0854.53
2009/04/23 15:25:02.4     -46     56    158     73    174 320.3  73.5  34226  290.69 0854.53
2009/04/23 15:25:02.5     -94    186     57    209    217 333.0  15.3  34216  290.53 0854.53
2009/04/23 15:25:02.6     -50    116     19    127    129 336.8   8.5  34228  290.74 0854.53
2009/04/23 15:25:02.7       6    142    -48    143    151   2.7 -18.7  34230  290.77 0854.53
2009/04/23 15:25:02.8      70    129      1    147    148  28.5   0.7  34224  290.67 0854.53
2009/04/23 15:25:02.9      17     67     88     70    112  14.3  56.4  34222  290.64 0854.53
2009/04/23 15:25:03.0     -37     23     65     44     78 302.4  63.6  34224  290.67 0854.53
2009/04/23 15:25:03.1      -6     11     57     13     58 331.0  86.9  34230  290.75 0854.51
2009/04/23 15:25:03.2      42    -15     33     45     55 110.8  39.7  34222  290.62 0854.51
2009/04/23 15:25:03.3      70    -86     46    112    121 140.8  23.6  34234  290.82 0854.51
2009/04/23 15:25:03.4      79   -217     62    232    241 160.0  15.0  34218  290.56 0854.51
2009/04/23 15:25:03.5     -13   -283    123    284    309 182.7  25.1  34198  290.20 0854.51
2009/04/23 15:25:03.6     -75   -264    130    275    304 196.0  27.1  34194  290.14 0854.51
2009/04/23 15:25:03.7     -88   -314    160    327    364 195.7  27.9  34198  290.23 0854.51
2009/04/23 15:25:03.8    -156   -330    138    366    391 205.3  21.8  34186  290.01 0854.51
2009/04/23 15:25:03.9    -160   -253    123    300    324 212.3  23.6  34190  290.07 0854.51
2009/04/23 15:25:04.0    -118   -182     54    218    225 213.0  13.9  34196  290.18 0854.51
2009/04/23 15:25:04.1     -15   -178    106    179    208 184.9  33.5  34192  290.11 0854.51
2009/04/23 15:25:04.2       0   -167     66    168    180 180.0  22.8  34190  290.09 0854.51
2009/04/23 15:25:04.3     184    -46    205    190    279 104.2  52.2  34188  290.03 0854.51
2009/04/23 15:25:04.4     155    -21    222    157    271  98.0  61.5  34202  290.27 0854.51
2009/04/23 15:25:04.5     231    -20    159    232    281  95.2  37.6  34200  290.26 0854.51
2009/04/23 15:25:04.6     206     14    148    207    254  85.9  39.1  34196  290.19 0854.51
2009/04/23 15:25:04.7     207     62     92    217    235  73.2  24.3  34198  290.23 0854.51
2009/04/23 15:25:04.8     169     58    110    179    210  70.9  34.8  34198  290.23 0854.51
2009/04/23 15:25:04.9     131     95    167    162    232  54.0  50.7  34202  290.30 0854.51
2009/04/23 15:25:05.0       7     94    239     95    257   4.5  77.1  34206  290.35 0854.51
2009/04/23 15:25:05.1      81    -22    189     85    207 105.5  74.2  34194  290.16 0854.50
2009/04/23 15:25:05.2     221    -63    233    230    327 105.9  50.4  34194  290.15 0854.50
2009/04/23 15:25:05.3      65   -120    203    137    244 151.5  62.7  34202  290.28 0854.50
2009/04/23 15:25:05.4      24   -211    222    213    307 173.5  51.2  34192  290.12 0854.50
2009/04/23 15:25:05.5     -21   -257    221    258    339 184.7  45.0  34188  290.05 0854.50
2009/04/23 15:25:05.6      24   -252    247    254    354 174.4  49.2  34194  290.15 0854.50
2009/04/23 15:25:05.7      82   -498    202    505    543 170.6  23.0  34190  290.09 0854.50
2009/04/23 15:25:05.8       2   -461    161    462    490 179.7  19.3  34182  289.96 0854.50
2009/04/23 15:25:05.9    -241   -371    -33    443    445 213.0  -4.4  34188  290.04 0854.50
2009/04/23 15:25:06.0    -307   -325     59    448    452 223.3   7.6  34190  290.09 0854.50
2009/04/23 15:25:06.1    -213   -193     71    288    297 227.8  13.9  34186  290.00 0854.50
2009/04/23 15:25:06.2     -91   -162    219    187    287 209.4  55.4  34188  290.03 0854.50
2009/04/23 15:25:06.3    -156     49    215    164    270 287.7  59.0  34220  290.59 0854.50
2009/04/23 15:25:06.4     -75   -438    155    445    472 189.8  19.2  34184  289.99 0854.50
2009/04/23 15:25:06.5    -351   -615    -13    709    710 209.7  -1.1  34190  290.08 0854.50
2009/04/23 15:25:06.6    -419   -645      1    770    771 213.0   0.1  34188  290.03 0854.50
2009/04/23 15:25:06.7    -367   -521     26    638    639 215.2   2.3  34178  289.87 0854.50
2009/04/23 15:25:06.8    -126   -472    132    489    507 195.0  15.2  34188  290.05 0854.50
2009/04/23 15:25:06.9    -200   -453     82    496    503 203.9   9.5  34188  290.03 0854.50
2009/04/23 15:25:07.0    -349   -452     59    572    575 217.7   5.9  34190  290.07 0854.50
2009/04/23 15:25:07.1    -270   -462    -88    536    544 210.3  -9.4  34188  290.04 0854.50
2009/04/23 15:25:07.2    -309   -355    -74    471    477 221.0  -9.0  34176  289.83 0854.50
2009/04/23 15:25:07.3    -196   -521    -40    557    559 200.7  -4.1  34192  290.11 0854.50
2009/04/23 15:25:07.4    -153   -609     10    628    629 194.2   1.0  34182  289.96 0854.50
2009/04/23 15:25:07.5    -328   -318     65    458    463 225.9   8.1  34176  289.83 0854.50
2009/04/23 15:25:07.6    -276   -579    -46    642    644 205.5  -4.1  34184  289.98 0854.50
2009/04/23 15:25:07.7    -296   -496    -62    578    582 210.8  -6.2  34182  289.95 0854.50
2009/04/23 15:25:07.8    -318   -453    -78    554    560 215.1  -8.1  34182  289.96 0854.50
2009/04/23 15:25:07.9    -433   -518   -147    676    692 219.9 -12.3  34174  289.82 0854.50
2009/04/23 15:25:08.0    -262   -510    -65    574    578 207.2  -6.5  34182  289.93 0854.50
2009/04/23 15:25:08.1    -272   -494     23    564    565 208.9   2.4  34186  290.01 0854.50
2009/04/23 15:25:08.2    -389   -321    -32    505    507 230.5  -3.7  34186  290.01 0854.50
2009/04/23 15:25:08.3    -287   -273   -106    397    412 226.5 -15.1  34188  290.04 0854.50
2009/04/23 15:25:08.4     -88   -266   -136    281    312 198.3 -31.7  34184  289.98 0854.50
2009/04/23 15:25:08.5     -79   -324   -135    334    360 193.8 -27.5  34190  290.08 0854.50
2009/04/23 15:25:08.6     -84   -349    -68    359    366 193.6 -10.8  34188  290.04 0854.50
2009/04/23 15:25:08.7     -84   -361    -34    371    373 193.1  -5.4  34188  290.03 0854.50
2009/04/23 15:25:08.8    -174   -456    -37    489    491 201.0  -4.4  34188  290.06 0854.50
2009/04/23 15:25:08.9     -89   -520    -29    528    529 189.7  -3.2  34184  289.99 0854.50
2009/04/23 15:25:09.0    -203   -508    -35    548    550 201.8  -3.7  34192  290.11 0854.50
2009/04/23 15:25:09.1    -142   -512    -11    532    533 195.5  -1.3  34200  290.26 0854.48
2009/04/23 15:25:09.2    -140   -446     32    468    470 197.5   4.0  34216  290.51 0854.48
2009/04/23 15:25:09.3    -194   -341     17    393    394 209.7   2.5  34220  290.59 0854.48
2009/04/23 15:25:09.4    -384   -546     -2    668    669 215.1  -0.2  34200  290.26 0854.48
2009/04/23 15:25:09.5    -449   -542   -111    705    714 219.6  -9.0  34176  289.83 0854.48
2009/04/23 15:25:09.6    -408   -470    -38    623    625 221.0  -3.5  34162  289.62 0854.48
2009/04/23 15:25:09.7    -366   -464    -90    592    599 218.3  -8.7  34166  289.68 0854.48
2009/04/23 15:25:09.8    -424   -507    -72    662    666 219.9  -6.3  34146  289.34 0854.48
2009/04/23 15:25:10.0    -435   -303   -184    531    561 235.1 -24.3  34136  289.16 0854.48
2009/04/23 15:25:10.1    -466   -468   -217    661    696 224.9 -18.2  34150  289.41 0854.48
2009/04/23 15:25:10.2    -451   -503    -71    676    680 221.9  -6.1  34166  289.66 0854.48
2009/04/23 15:25:10.3    -425   -445   -190    616    645 223.7 -17.2  34138  289.20 0854.48
2009/04/23 15:25:10.4    -465   -456   -187    652    679 225.6 -16.0  34150  289.41 0854.48
2009/04/23 15:25:10.5    -283   -492    -61    568    572 209.9  -6.2  34190  290.07 0854.48
2009/04/23 15:25:10.6    -187   -475   -117    511    525 201.5 -12.9  34188  290.04 0854.48
2009/04/23 15:25:10.7    -157   -318     18    355    356 206.4   3.0  34192  290.10 0854.48
2009/04/23 15:25:10.8    -391   -318    -45    505    508 230.9  -5.2  34142  289.25 0854.48
2009/04/23 15:25:10.9    -414   -364   -141    552    570 228.7 -14.4  34130  289.07 0854.48
2009/04/23 15:25:11.0    -353   -341   -140    492    512 226.0 -15.9  34130  289.05 0854.48
2009/04/23 15:25:11.1    -312   -308   -103    439    451 225.4 -13.3  34130  289.05 0854.47
2009/04/23 15:25:11.2    -331   -276    -71    432    438 230.2  -9.3  34138  289.19 0854.47
2009/04/23 15:25:11.3    -261   -337   -134    427    448 217.8 -17.5  34132  289.11 0854.47
2009/04/23 15:25:11.4    -359   -349   -141    501    521 225.8 -15.8  34136  289.18 0854.47
2009/04/23 15:25:11.5    -300   -299   -204    424    470 225.1 -32.1  34142  289.27 0854.47
2009/04/23 15:25:11.6    -181   -270   -215    326    390 213.8 -40.9  34154  289.47 0854.47
2009/04/23 15:25:11.7     -95   -382   -121    394    412 194.0 -21.9  34154  289.48 0854.47
2009/04/23 15:25:11.8     -93   -383    -20    395    396 193.7  -3.0  34164  289.64 0854.47
2009/04/23 15:25:11.9    -121   -374     26    394    395 197.9   3.8  34168  289.71 0854.47
2009/04/23 15:25:12.0     -89   -409     17    419    420 192.3   2.4  34168  289.72 0854.47
2009/04/23 15:25:12.1    -175   -510     27    540    541 199.0   2.9  34186  290.01 0854.47
2009/04/23 15:25:12.2    -288   -281     22    403    404 225.8   3.2  34188  290.04 0854.47
2009/04/23 15:25:12.3    -316   -190   -112    369    386 239.0 -17.0  34142  289.26 0854.47
2009/04/23 15:25:12.4    -464   -223   -277    516    585 244.3 -34.9  34152  289.43 0854.47
2009/04/23 15:25:12.5    -437   -210   -358    486    603 244.3 -44.3  34152  289.45 0854.47
2009/04/23 15:25:12.6    -445   -215   -297    495    577 244.2 -38.4  34168  289.72 0854.47
2009/04/23 15:25:12.7    -447   -220   -200    499    537 243.8 -27.4  34176  289.84 0854.47
2009/04/23 15:25:12.8    -514   -299    -54    595    598 239.8  -5.2  34150  289.41 0854.47
2009/04/23 15:25:12.9    -583    -62   -161    587    609 263.9 -15.4  34166  289.66 0854.47
2009/04/23 15:25:13.0    -349   -308   -107    466    479 228.6 -13.0  34196  290.17 0854.47
2009/04/23 15:25:13.1    -473   -126     39    490    492 255.0   4.6  34212  290.44 0854.47
2009/04/23 15:25:13.2    -174   -147    -29    228    230 229.8  -7.3  34204  290.31 0854.47
2009/04/23 15:25:13.3    -154   -176    -77    234    246 221.2 -23.6  34166  289.68 0854.47
2009/04/23 15:25:13.4    -173   -334   -115    377    394 207.4 -21.8  34178  289.89 0854.47
2009/04/23 15:25:13.5     -58   -508    -60    512    516 186.6  -6.7  34182  289.96 0854.47
2009/04/23 15:25:13.6      21   -410   -129    411    431 177.0 -17.5  34166  289.66 0854.47
2009/04/23 15:25:13.7     -90   -483    -35    492    494 190.6  -4.1  34186  290.00 0854.47
2009/04/23 15:25:13.8     -51   -548   -134    551    567 185.4 -13.7  34178  289.87 0854.47
2009/04/23 15:25:13.9    -162   -508    -87    534    542 197.7  -9.3  34182  289.96 0854.47
2009/04/23 15:25:14.0    -182   -576    -87    605    612 197.6  -8.2  34156  289.51 0854.47
2009/04/23 15:25:14.1    -236   -689    -79    729    734 198.9  -6.2  34142  289.27 0854.47
2009/04/23 15:25:14.2    -274   -709   -125    761    772 201.2  -9.3  34144  289.29 0854.47
2009/04/23 15:25:14.3    -235   -733   -183    770    792 197.8 -13.4  34142  289.25 0854.47
2009/04/23 15:25:14.4    -136   -662   -221    677    713 191.7 -18.1  34142  289.27 0854.47
2009/04/23 15:25:14.5    -139   -698   -203    712    741 191.3 -15.9  34140  289.22 0854.47
2009/04/23 15:25:14.6    -140   -691   -117    705    715 191.5  -9.5  34142  289.28 0854.47
2009/04/23 15:25:14.7    -104   -617   -109    626    636 189.6  -9.9  34142  289.28 0854.47
2009/04/23 15:25:14.8    -208   -623   -161    657    677 198.5 -13.8  34144  289.31 0854.47
2009/04/23 15:25:14.9    -100   -591    -77    600    605 189.6  -7.3  34144  289.30 0854.47
2009/04/23 15:25:15.0     -83   -505    -55    512    516 189.3  -6.2  34142  289.25 0854.47
2009/04/23 15:25:15.1      52   -433    -56    437    441 173.1  -7.3  34144  289.29 0854.48
2009/04/23 15:25:15.2      14   -459    -60    460    464 178.2  -7.5  34156  289.51 0854.48
2009/04/23 15:25:15.3     -15   -416   -121    417    435 182.1 -16.2  34164  289.63 0854.48
2009/04/23 15:25:15.4      -1   -386   -132    387    410 180.2 -18.9  34178  289.86 0854.48
2009/04/23 15:25:15.5       0   -400   -185    401    441 180.1 -31.0  34158  289.53 0854.48
2009/04/23 15:25:15.6       6   -404   -189    405    446 179.1 -31.5  34206  290.34 0854.48
2009/04/23 15:25:15.7     161   -402   -136    434    454 158.2 -22.4  34178  289.88 0854.48
2009/04/23 15:25:15.8      97   -275   -242    292    379 160.4 -48.2  34162  289.60 0854.48
2009/04/23 15:25:15.9      21   -243   -179    245    303 174.9 -44.1  34150  289.41 0854.48
2009/04/23 15:25:16.0    -138   -322   -121    351    372 203.3 -19.1  34144  289.30 0854.48
2009/04/23 15:25:16.1    -128   -293   -101    320    335 203.6 -22.5  34142  289.26 0854.48
2009/04/23 15:25:16.2    -293   -293    -84    415    424 225.0 -11.5  34146  289.34 0854.48
2009/04/23 15:25:16.3    -244   -250    -63    350    356 224.4 -10.2  34146  289.33 0854.48
2009/04/23 15:25:16.4    -141   -176    -87    226    242 218.7 -26.4  34150  289.41 0854.48
2009/04/23 15:25:16.5       8   -170     41    171    176 177.1  13.7  34154  289.48 0854.48
2009/04/23 15:25:16.6     -90   -206     53    226    233 203.7  13.2  34156  289.50 0854.48
2009/04/23 15:25:16.7    -209   -270    -16    342    343 217.8  -2.7  34152  289.45 0854.48
2009/04/23 15:25:16.8    -288   -134    -78    318    328 244.9 -13.9  34140  289.22 0854.48
2009/04/23 15:25:16.9    -329   -137   -106    357    373 247.3 -16.6  34154  289.47 0854.48
2009/04/23 15:25:17.0    -293   -173   -110    341    358 239.4 -23.0  34156  289.50 0854.48
2009/04/23 15:25:17.1    -282   -134    -94    313    326 244.5 -21.6  34156  289.49 0854.49
2009/04/23 15:25:17.2    -277    -63    -36    285    288 257.2  -7.3  34150  289.41 0854.49
2009/04/23 15:25:17.3    -317    -24    -90    318    331 265.6 -15.8  34156  289.49 0854.49
2009/04/23 15:25:17.4    -278    -34    -87    281    295 262.9 -17.3  34160  289.56 0854.49
2009/04/23 15:25:17.5    -235    -33    -66    238    248 261.9 -15.5  34156  289.51 0854.49
2009/04/23 15:25:17.6    -193    -20   -152    195    247 263.9 -46.1  34156  289.52 0854.49
2009/04/23 15:25:17.7    -208    -21   -125    210    244 264.1 -37.9  34160  289.56 0854.49
2009/04/23 15:25:17.8    -176     -1   -162    177    239 269.6 -51.5  34158  289.55 0854.49
2009/04/23 15:25:17.9    -188     35   -189    192    269 280.6 -54.3  34160  289.56 0854.49
2009/04/23 15:25:18.0    -254    145   -145    293    326 299.7 -32.6  34158  289.54 0854.49
2009/04/23 15:25:18.1    -299    221    -84    373    383 306.5 -12.7  34154  289.48 0854.50
2009/04/23 15:25:18.2    -281    263   -137    386    410 313.1 -19.6  34154  289.48 0854.50
2009/04/23 15:25:18.3    -293    241   -128    380    402 309.5 -18.7  34186  290.01 0854.50
2009/04/23 15:25:18.4    -258    250    -45    360    363 314.0  -7.2  34202  290.27 0854.50
2009/04/23 15:25:18.5    -215    216    -27    305    307 315.1  -5.2  34202  290.29 0854.50
2009/04/23 15:25:18.6    -169    257    -16    308    309 326.6  -3.1  34202  290.27 0854.50
2009/04/23 15:25:18.7    -123    230     27    261    263 331.9   6.1  34200  290.24 0854.50
2009/04/23 15:25:18.8    -166    326     11    366    367 333.0   1.8  34182  289.96 0854.50
2009/04/23 15:25:18.9    -108    248    -59    271    278 336.3 -12.4  34178  289.86 0854.50
2009/04/23 15:25:19.0    -100    113    -69    151    166 318.5 -30.8  34186  290.01 0854.50
2009/04/23 15:25:19.1     -98     46   -106    109    152 295.4 -53.8  34214  290.50 0854.50
2009/04/23 15:25:19.2     -66    -73    -88     99    132 222.3 -50.3  34214  290.50 0854.50
2009/04/23 15:25:19.3     -50    -60    -79     79    111 219.6 -54.5  34216  290.52 0854.50
2009/04/23 15:25:19.4       8    -71    -85     72    111 172.9 -60.2  34210  290.43 0854.50
2009/04/23 15:25:19.5      48    -36    -56     60     82 126.9 -52.9  34198  290.23 0854.50
2009/04/23 15:25:19.6      10    -62    -33     63     71 170.2 -34.7  34200  290.26 0854.50
2009/04/23 15:25:19.7    -116     46    -45    126    134 291.8 -19.7  34194  290.16 0854.50
2009/04/23 15:25:19.8     -16     85   -153     87    176 348.9 -72.5  34200  290.25 0854.50
2009/04/23 15:25:19.9      48    -80    -42     94    102 149.3 -30.1  34208  290.38 0854.50
2009/04/23 15:25:20.0     -73   -152     77    169    185 205.6  26.4  34216  290.52 0854.50
2009/04/23 15:25:20.1      57   -203     96    211    231 164.2  26.2  34212  290.45 0854.53
2009/04/23 15:25:20.2     -10   -364     82    365    375 181.7  12.8  34244  291.00 0854.53
2009/04/23 15:25:20.3      -6   -284    104    285    303 181.4  20.9  34224  290.66 0854.53
2009/04/23 15:25:20.4    -206   -311    153    374    404 213.5  23.5  34252  291.15 0854.53
2009/04/23 15:25:20.5    -259   -266     18    372    373 224.2   2.9  34244  291.01 0854.53
2009/04/23 15:25:20.6    -198   -293     -3    354    355 214.1  -0.6  34208  290.38 0854.53
2009/04/23 15:25:20.7     -86   -332     76    344    353 194.6  12.5  34214  290.49 0854.53
2009/04/23 15:25:20.8     -58   -323     92    329    342 190.2  15.7  34216  290.52 0854.53
2009/04/23 15:25:20.9     -57   -294    121    300    323 191.1  23.2  34212  290.46 0854.53
2009/04/23 15:25:21.0     -62   -363    128    369    391 189.8  19.2  34192  290.13 0854.53
2009/04/23 15:25:21.1     -90   -444     22    453    454 191.5   2.8  34186  290.00 0854.53
2009/04/23 15:25:21.2    -125   -466     29    483    484 195.1   3.5  34182  289.96 0854.53
2009/04/23 15:25:21.3     -52   -575    104    578    588 185.2  10.2  34166  289.68 0854.53
2009/04/23 15:25:21.4     -52   -432    155    436    463 186.9  19.6  34184  289.99 0854.53
2009/04/23 15:25:21.5      89   -464    235    473    528 169.1  28.5  34188  290.05 0854.53
2009/04/23 15:25:21.6    -120   -714    338    725    799 189.6  26.7  34182  289.95 0854.53
2009/04/23 15:25:21.7     -71   -607    261    612    665 186.7  24.5  34178  289.86 0854.53
2009/04/23 15:25:21.8     193   -603    283    634    694 162.2  25.7  34176  289.85 0854.53
2009/04/23 15:25:21.9     346   -614     73    705    709 150.6   6.0  34182  289.93 0854.53
2009/04/23 15:25:22.0      96   -542   -106    551    562 169.9 -10.9  34180  289.90 0854.53
2009/04/23 15:25:22.1     -83   -578     49    585    588 188.2   4.9  34194  290.14 0854.53
2009/04/23 15:25:22.2      82   -579     44    585    587 171.9   4.4  34204  290.32 0854.53
2009/04/23 15:25:22.3      66   -705    -54    709    711 174.6  -4.4  34192  290.13 0854.53
2009/04/23 15:25:22.4     219   -841     24    869    870 165.4   1.6  34188  290.05 0854.53
2009/04/23 15:25:22.5     176   -594   -159    620    641 163.5 -14.4  34198  290.20 0854.53
2009/04/23 15:25:22.6     162   -435    -22    465    466 159.6  -2.8  34188  290.05 0854.53
2009/04/23 15:25:22.7     108   -453     91    466    475 166.6  11.1  34178  289.89 0854.53
2009/04/23 15:25:22.8     171   -449    299    481    566 159.1  34.9  34172  289.79 0854.53
2009/04/23 15:25:22.9     240   -442    178    504    534 151.5  20.3  34168  289.72 0854.53
2009/04/23 15:25:23.0      84   -547     98    554    563 171.2  10.1  34184  289.99 0854.53
2009/04/23 15:25:23.1     283   -467    131    547    563 148.8  13.5  34176  289.85 0854.53
2009/04/23 15:25:23.2     185   -307     93    359    371 148.8  14.6  34186  290.01 0854.53
2009/04/23 15:25:23.3      16   -463   -112    464    478 178.0 -13.6  34188  290.06 0854.53
2009/04/23 15:25:23.4     -44   -480    -18    483    484 185.3  -2.2  34170  289.73 0854.53
2009/04/23 15:25:23.5     -46   -153    -14    161    162 197.0  -5.2  34170  289.75 0854.53
2009/04/23 15:25:23.6      72   -200    117    213    243 160.2  31.4  34178  289.88 0854.53
2009/04/23 15:25:23.7     119   -152     60    194    204 141.9  17.3  34178  289.89 0854.53
2009/04/23 15:25:23.8     125    -74    113    146    184 120.7  41.7  34178  289.89 0854.53
2009/04/23 15:25:23.9     249   -114    201    274    339 114.6  39.8  34178  289.86 0854.53
2009/04/23 15:25:24.0     180    114   -104    214    237  57.6 -32.4  34176  289.84 0854.53
2009/04/23 15:25:24.1      95    -42     -6    104    105 114.0  -3.7  34180  289.91 0854.53
2009/04/23 15:25:24.2       9    -73    -25     74     79 172.9 -18.7  34176  289.85 0854.53
2009/04/23 15:25:24.3    -208   -112    -42    237    241 241.6 -10.3  34178  289.86 0854.53
2009/04/23 15:25:24.4     -34   -244    -17    247    248 188.1  -4.1  34168  289.71 0854.53
2009/04/23 15:25:24.5    -122   -214    -89    247    262 209.8 -25.1  34178  289.88 0854.53
2009/04/23 15:25:24.6       0   -187    -85    188    206 180.0 -30.3  34182  289.96 0854.53
2009/04/23 15:25:24.7     -38   -188   -126    192    229 191.5 -40.7  34178  289.89 0854.53
2009/04/23 15:25:24.8    -197   -339   -129    393    414 210.1 -18.2  34162  289.61 0854.53
2009/04/23 15:25:24.9      77   -364     72    373    380 168.0  11.0  34154  289.48 0854.53
2009/04/23 15:25:25.0     125   -322    190    346    394 158.8  31.3  34166  289.69 0854.53
2009/04/23 15:25:25.1     146   -855    125    868    878 170.3   8.2  34180  289.91 0854.53
2009/04/23 15:25:25.2     404  -1010    467   1089   1184 158.2  24.8  34158  289.54 0854.53
2009/04/23 15:25:25.3     269   -992    262   1029   1062 164.8  14.3  34160  289.56 0854.53
2009/04/23 15:25:25.4     430   -958    179   1051   1067 155.8   9.7  34152  289.44 0854.53
2009/04/23 15:25:25.5     297   -400    -11    499    500 143.4  -1.3  34166  289.66 0854.53
2009/04/23 15:25:25.6     454   -393    -86    601    608 130.9  -8.2  34160  289.56 0854.53
2009/04/23 15:25:25.7     325   -337    302    469    557 136.0  35.7  34168  289.72 0854.53
2009/04/23 15:25:25.8      43   -638    278    640    697 176.1  25.1  34168  289.71 0854.53
2009/04/23 15:25:25.9      93   -534    235    543    591 170.1  25.1  34162  289.61 0854.53
2009/04/23 15:25:26.0      -2   -682    147    683    699 180.2  12.2  34164  289.65 0854.53
2009/04/23 15:25:26.1     197   -396    103    443    455 153.5  13.1  34170  289.73 0854.52
2009/04/23 15:25:26.2     122   -352    -74    373    381 160.8 -11.3  34166  289.69 0854.52
2009/04/23 15:25:26.3      66   -525     -8    530    531 172.8  -0.9  34166  289.67 0854.52
2009/04/23 15:25:26.4      95   -469    192    479    516 168.5  23.0  34162  289.62 0854.52
2009/04/23 15:25:26.5      44   -309    137    313    341 171.9  25.2  34170  289.74 0854.52
2009/04/23 15:25:26.6       0   -440    -39    441    443 180.0  -5.1  34168  289.70 0854.52
2009/04/23 15:25:26.7      27   -605    214    606    643 177.4  19.5  34156  289.50 0854.52
2009/04/23 15:25:26.8     -86   -587    -27    594    595 188.4  -2.6  34166  289.69 0854.52
2009/04/23 15:25:26.9      47   -250   -163    255    302 169.3 -40.0  34170  289.75 0854.52
2009/04/23 15:25:27.0     154   -287     24    326    327 151.7   4.2  34170  289.75 0854.52
2009/04/23 15:25:27.1     221   -301     78    374    383 143.6  11.8  34168  289.71 0854.52
2009/04/23 15:25:27.2     214   -414     59    467    471 152.6   7.2  34178  289.89 0854.52
2009/04/23 15:25:27.3     -50   -493     93    496    505 185.8  10.7  34188  290.06 0854.52
2009/04/23 15:25:27.4    -102   -265   -126    285    311 201.2 -29.6  34182  289.95 0854.52
2009/04/23 15:25:27.5     163   -111    191    198    275 124.2  49.0  34178  289.88 0854.52
2009/04/23 15:25:27.6     116   -318    278    339    438 160.0  43.7  34190  290.07 0854.52
2009/04/23 15:25:27.7     214   -207   -119    298    320 134.0 -27.3  34174  289.80 0854.52
2009/04/23 15:25:27.8     255   -168     83    306    318 123.5  15.1  34180  289.92 0854.52
2009/04/23 15:25:27.9     456    -87    161    465    493 100.8  19.2  34170  289.74 0854.52
2009/04/23 15:25:28.0     516   -294    207    594    629 119.7  20.0  34160  289.57 0854.52
2009/04/23 15:25:28.1     -40   -431    431    434    611 185.4  49.9  34164  289.65 0854.50
2009/04/23 15:25:28.2      48      0     95     49    106  90.0  70.4  34164  289.63 0854.50
2009/04/23 15:25:28.3      30   -111    132    116    175 164.9  54.3  34176  289.85 0854.50
2009/04/23 15:25:28.4      20    -77    129     80    151 164.9  64.7  34166  289.69 0854.50
2009/04/23 15:25:28.5     -61   -486    379    490    619 187.2  41.6  34166  289.68 0854.50
2009/04/23 15:25:28.6      26   -679    115    680    690 177.8   9.6  34160  289.58 0854.50
2009/04/23 15:25:28.7     -18   -533    174    534    562 182.0  18.1  34160  289.58 0854.50
2009/04/23 15:25:28.8     -52   -563    197    566    600 185.4  19.2  34146  289.34 0854.50
2009/04/23 15:25:28.9     -56   -302    207    308    371 190.5  37.2  34164  289.64 0854.50
2009/04/23 15:25:29.0    -169   -588    319    612    690 196.0  29.8  34154  289.48 0854.50
2009/04/23 15:25:29.1     -19   -444    260    445    515 182.5  32.9  34152  289.42 0854.50
2009/04/23 15:25:29.2    -190   -652    275    680    733 196.3  23.2  34162  289.59 0854.50
2009/04/23 15:25:29.3    -251   -833    145    870    883 196.8   9.5  34142  289.25 0854.50
2009/04/23 15:25:29.4      79   -540    417    546    687 171.7  41.3  34142  289.25 0854.50
2009/04/23 15:25:29.5     171   -136    291    219    364 128.6  59.2  34164  289.64 0854.50
2009/04/23 15:25:29.6     195    -22    383    197    430  96.6  70.8  34176  289.84 0854.50
2009/04/23 15:25:29.7     142   -211    343    255    427 145.9  59.8  34162  289.60 0854.50
2009/04/23 15:25:29.8    -108   -297    242    317    398 200.1  41.2  34164  289.64 0854.50
2009/04/23 15:25:29.9     -99   -120    164    156    226 219.7  52.0  34164  289.65 0854.50
2009/04/23 15:25:30.0     -85    154    -58    177    187 331.0 -18.3  34152  289.45 0854.50
2009/04/23 15:25:30.1    -240    133     38    275    278 299.1   8.0  34168  289.70 0854.50
2009/04/23 15:25:30.2    -483     66     23    488    489 277.8   2.8  34156  289.52 0854.50
2009/04/23 15:25:30.3    -237     60    -33    245    248 284.4  -7.7  34164  289.63 0854.50
2009/04/23 15:25:30.4      -7   -302    287    303    417 181.4  48.4  34162  289.60 0854.50
2009/04/23 15:25:30.5    -134   -746    653    759   1001 190.2  45.1  34172  289.78 0854.50
2009/04/23 15:25:30.6     118   -718    639    728    968 170.7  45.8  34160  289.57 0854.50
2009/04/23 15:25:30.7      76   -445    634    452    778 170.2  61.1  34198  290.22 0854.50
2009/04/23 15:25:30.8     633   -217    392    670    776 108.9  33.1  34162  289.62 0854.50
2009/04/23 15:25:30.9     462   -342    464    576    739 126.5  43.0  34178  289.87 0854.50
2009/04/23 15:25:31.0     417   -710    547    824    989 149.6  36.7  34160  289.57 0854.50
2009/04/23 15:25:31.1     516   -596    496    789    931 139.1  35.3  34192  290.13 0854.50
2009/04/23 15:25:31.2     503   -425    370    659    755 130.2  31.7  34194  290.15 0854.50
2009/04/23 15:25:31.3     420   -446    173    613    638 136.7  15.8  34162  289.60 0854.50
2009/04/23 15:25:31.4     441   -630    262    770    814 145.0  18.8  34160  289.56 0854.50
2009/04/23 15:25:31.5     192   -447    288    487    565 156.7  33.4  34154  289.46 0854.50
2009/04/23 15:25:31.6     153   -278    302    318    438 151.1  48.5  34168  289.70 0854.50
2009/04/23 15:25:31.7      36   -310    263    313    408 173.3  44.3  34166  289.67 0854.50
2009/04/23 15:25:31.8     -66   -327    228    334    404 191.6  37.6  34172  289.77 0854.50
2009/04/23 15:25:31.9    -157   -340    189    375    419 204.8  28.7  34170  289.73 0854.50
2009/04/23 15:25:32.0     -56   -203    160    211    264 195.4  40.9  34172  289.78 0854.50
2009/04/23 15:25:32.1     -81    170    102    189    214 334.5  31.0  34184  289.97 0854.53
2009/04/23 15:25:32.2      80   -211     41    226    230 159.1  10.3  34180  289.92 0854.53
2009/04/23 15:25:32.3     101   -372    157    386    416 164.7  23.2  34168  289.70 0854.53
2009/04/23 15:25:32.4     -14     82    -10     84     85 349.8  -7.3  34172  289.79 0854.53
2009/04/23 15:25:32.5     -16     27   -120     32    124 329.3 -89.2  34180  289.92 0854.53
2009/04/23 15:25:32.6      76    -66    -69    101    122 130.9 -42.0  34182  289.96 0854.53
2009/04/23 15:25:32.7     167   -180     16    246    247 137.2   3.8  34172  289.78 0854.53
2009/04/23 15:25:32.8     388   -201     38    438    440 117.4   5.0  34158  289.53 0854.53
2009/04/23 15:25:32.9     584   -304    311    659    728 117.5  27.1  34162  289.61 0854.53
2009/04/23 15:25:33.0     493   -454   -203    671    701 132.7 -21.8  34186  290.02 0854.53
2009/04/23 15:25:33.1     450   -510    -99    681    689 138.6  -8.3  34178  289.88 0854.53
2009/04/23 15:25:33.2     443   -416   -142    608    625 133.2 -13.2  34178  289.87 0854.53
2009/04/23 15:25:33.3     505   -419    158    657    676 129.6  13.6  34174  289.80 0854.53
2009/04/23 15:25:33.4     765   -129    375    776    861  99.6  27.8  34162  289.62 0854.53
2009/04/23 15:25:33.5     696    -60    418    699    814  95.0  33.6  34164  289.64 0854.53
2009/04/23 15:25:33.6     261   -191    527    324    618 126.2  65.7  34156  289.50 0854.53
2009/04/23 15:25:33.7      74    -25    410     79    417 108.6  89.8  34198  290.20 0854.53
2009/04/23 15:25:33.8      90    166    404    190    446  28.5  73.1  34190  290.08 0854.53
2009/04/23 15:25:33.9      19    255    351    256    434   4.5  60.5  34192  290.13 0854.53
2009/04/23 15:25:34.0    -110    213    261    240    354 332.6  52.7  34190  290.09 0854.53
2009/04/23 15:25:34.1     -47   -167    152    174    231 195.8  45.8  34192  290.13 0854.57
2009/04/23 15:25:34.2    -253    -84    114    267    290 251.6  24.6  34190  290.07 0854.57
2009/04/23 15:25:34.3    -428   -108    255    442    510 255.8  32.6  34188  290.05 0854.57
2009/04/23 15:25:34.4    -485   -229    321    537    625 244.7  33.7  34184  289.98 0854.57
2009/04/23 15:25:34.5    -435   -217    301    487    572 243.5  34.6  34192  290.11 0854.57
2009/04/23 15:25:34.6    -411   -456    287    614    677 222.0  26.9  34196  290.17 0854.57
2009/04/23 15:25:34.7    -447   -194    212    488    532 246.5  25.1  34212  290.44 0854.57
2009/04/23 15:25:34.8    -560   -503    110    753    762 228.1   8.3  34206  290.36 0854.57
2009/04/23 15:25:34.9    -398   -496    550    637    841 218.7  45.2  34216  290.51 0854.57
2009/04/23 15:25:35.0    -248   -428    485    495    693 210.1  49.4  34212  290.47 0854.57
2009/04/23 15:25:35.1      72   -353    413    361    548 168.3  54.4  34248  291.08 0854.57
2009/04/23 15:25:35.2      76   -742    482    746    888 174.1  35.9  34228  290.71 0854.57
2009/04/23 15:25:35.3     118   -732    468    742    877 170.8  35.3  34216  290.52 0854.57
2009/04/23 15:25:35.4     243   -326    474    407    624 143.3  55.0  34198  290.21 0854.57
2009/04/23 15:25:35.5     -19    -30    319     36    321 212.5  90.0  34226  290.68 0854.57
2009/04/23 15:25:35.6      66   -158    280    172    328 157.3  65.6  34168  289.70 0854.57
2009/04/23 15:25:35.7     -72   -342    233    350    420 191.9  36.6  34198  290.21 0854.57
2009/04/23 15:25:35.8      63   -308    144    315    346 168.4  26.3  34196  290.18 0854.57
2009/04/23 15:25:35.9     232   -306    201    385    434 142.8  29.8  34196  290.17 0854.57
2009/04/23 15:25:36.0      33   -470    132    472    491 176.0  15.7  34172  289.76 0854.57
2009/04/23 15:25:36.1     103   -437    -76    449    456 166.7  -9.6  34186  290.02 0854.58
2009/04/23 15:25:36.2      94   -298    -85    313    325 162.5 -15.2  34180  289.90 0854.58
2009/04/23 15:25:36.3     243    -84   -109    258    280 109.1 -28.6  34190  290.07 0854.58
2009/04/23 15:25:36.4      77   -233    156    246    291 161.5  35.5  34180  289.92 0854.58
2009/04/23 15:25:36.5       7   -329    -71    330    338 178.6 -12.2  34182  289.96 0854.58
2009/04/23 15:25:36.6      68   -167      0    181    182 157.7   0.2  34198  290.21 0854.58
2009/04/23 15:25:36.7     -12    -36    -14     39     41 198.7 -24.4  34194  290.16 0854.58
2009/04/23 15:25:36.8    -121   -358     45    379    382 198.7   6.9  34172  289.76 0854.58
2009/04/23 15:25:36.9    -284   -415    -79    504    511 214.4  -9.0  34194  290.15 0854.58
2009/04/23 15:25:37.0    -145   -434    -49    458    461 198.6  -6.2  34182  289.95 0854.58
2009/04/23 15:25:37.1     -94   -432    -56    443    447 192.3  -7.2  34172  289.77 0854.58
2009/04/23 15:25:37.2    -175   -527    109    556    567 198.4  11.1  34174  289.80 0854.58
2009/04/23 15:25:37.3      -6   -392     76    393    401 181.0  11.0  34182  289.93 0854.58
2009/04/23 15:25:37.4     169   -372     36    409    411 155.5   5.1  34176  289.83 0854.58
2009/04/23 15:25:37.6     178   -295     43    345    348 148.8   7.1  34174  289.81 0854.58
2009/04/23 15:25:37.7     215   -229    132    315    341 136.8  23.9  34168  289.72 0854.58
2009/04/23 15:25:37.8      77   -285    173    296    342 164.9  33.0  34164  289.64 0854.58
2009/04/23 15:25:37.9     144   -401    224    427    482 160.2  29.8  34162  289.61 0854.58
2009/04/23 15:25:38.0      55   -396    280    400    488 172.0  38.5  34164  289.65 0854.58
2009/04/23 15:25:38.1     116   -347     64    367    373 161.4   9.9  34162  289.60 0854.58
2009/04/23 15:25:38.2     452   -315    -30    552    553 124.9  -3.1  34158  289.53 0854.60
2009/04/23 15:25:38.3     481   -160     38    507    509 108.4   4.3  34152  289.44 0854.60
2009/04/23 15:25:38.4     385   -145    133    412    434 110.7  17.9  34162  289.61 0854.60
2009/04/23 15:25:38.5     418   -174    157    453    480 112.6  19.2  34162  289.61 0854.60
2009/04/23 15:25:38.6     175   -231    232    291    372 142.8  42.6  34168  289.71 0854.60
2009/04/23 15:25:38.7     104   -259    110    280    300 158.2  23.0  34166  289.66 0854.60
2009/04/23 15:25:38.8      54   -202    -75    210    224 164.9 -19.7  34164  289.65 0854.60
2009/04/23 15:25:38.9     -62   -396   -180    401    439 189.0 -30.3  34164  289.65 0854.60
2009/04/23 15:25:39.0     -55   -458    -59    462    466 186.9  -7.3  34164  289.64 0854.60
2009/04/23 15:25:39.1    -102   -174     17    202    203 210.5   4.9  34166  289.67 0854.56
2009/04/23 15:25:39.2     119   -213     88    245    260 150.8  20.4  34166  289.66 0854.56
2009/04/23 15:25:39.3     265   -293    157    396    425 137.8  22.9  34172  289.77 0854.56
2009/04/23 15:25:39.4     365   -282    180    462    495 127.8  22.5  34170  289.74 0854.56
2009/04/23 15:25:39.5     263   -395    210    475    519 146.3  25.3  34186  290.00 0854.56
2009/04/23 15:25:39.6     239   -518    231    571    615 155.2  23.1  34170  289.73 0854.56
2009/04/23 15:25:39.7     228   -546    258    592    645 157.3  25.0  34162  289.62 0854.56
2009/04/23 15:25:39.8     103   -519    123    530    545 168.8  13.1  34168  289.70 0854.56
2009/04/23 15:25:39.9      82   -478    119    486    501 170.2  13.8  34172  289.78 0854.56
2009/04/23 15:25:40.0     -50   -463    173    466    497 186.2  21.3  34162  289.62 0854.56
2009/04/23 15:25:40.1    -201   -365    156    417    445 208.9  21.4  34164  289.63 0854.56
2009/04/23 15:25:40.2    -124   -206     52    241    247 211.0  12.2  34172  289.78 0854.56
2009/04/23 15:25:40.3     120   -298    205    322    381 158.1  35.5  34168  289.72 0854.56
2009/04/23 15:25:40.4     175   -394    266    432    507 156.1  34.5  34178  289.88 0854.56
2009/04/23 15:25:40.5      65   -517   -140    522    541 172.8 -15.1  34172  289.79 0854.56
2009/04/23 15:25:40.6     -76   -446     -2    453    454 189.7  -0.3  34168  289.70 0854.56
2009/04/23 15:25:40.7    -151   -562    157    582    603 195.1  15.1  34176  289.83 0854.56
2009/04/23 15:25:40.8    -241   -827    121    862    871 196.3   8.0  34176  289.85 0854.56
2009/04/23 15:25:40.9    -456   -941   -220   1046   1070 205.9 -11.9  34194  290.14 0854.56
2009/04/23 15:25:41.0    -383   -598    194    711    738 212.6  15.3  34178  289.89 0854.56
2009/04/23 15:25:41.1    -375   -866    348    944   1006 203.4  21.1  34192  290.10 0854.56
2009/04/23 15:25:41.2    -232   -808    286    841    889 196.1  18.8  34178  289.89 0854.56
2009/04/23 15:25:41.3    -271   -669    261    723    768 202.1  20.8  34196  290.18 0854.56
2009/04/23 15:25:41.4    -402   -636    173    753    773 212.3  13.0  34190  290.07 0854.56
2009/04/23 15:25:41.5    -182   -767     60    789    792 193.4   4.4  34188  290.03 0854.56
2009/04/23 15:25:41.6    -206   -672    159    704    722 197.1  12.8  34190  290.08 0854.56
2009/04/23 15:25:41.7    -114   -593     45    604    606 190.9   4.3  34184  289.98 0854.56
2009/04/23 15:25:41.8      75   -696    250    701    745 173.8  19.7  34188  290.03 0854.56
2009/04/23 15:25:41.9      27   -500    212    501    544 176.9  24.3  34182  289.94 0854.56
2009/04/23 15:25:42.0     -26   -433    131    434    454 183.5  16.8  34188  290.05 0854.56
2009/04/23 15:25:42.1      96   -475     27    485    486 168.5   3.3  34184  289.98 0854.56
2009/04/23 15:25:42.2     102   -597     53    606    609 170.2   5.1  34178  289.88 0854.56
2009/04/23 15:25:42.3      24   -408    235    409    471 176.5  32.6  34180  289.90 0854.56
2009/04/23 15:25:42.4      24   -289    247    291    381 175.1  44.4  34182  289.96 0854.56
2009/04/23 15:25:42.5     -28   -168    223    171    281 189.6  58.7  34176  289.83 0854.56
2009/04/23 15:25:42.6     101   -458    199    470    510 167.5  24.3  34180  289.91 0854.56
2009/04/23 15:25:42.7     185   -455    215    492    536 157.8  25.2  34162  289.62 0854.56
2009/04/23 15:25:42.8     222   -349    297    414    509 147.5  39.2  34168  289.71 0854.56
2009/04/23 15:25:42.9       8   -528    321    529    618 179.1  34.2  34166  289.66 0854.56
2009/04/23 15:25:43.0     -76   -469    373    476    604 189.2  42.0  34176  289.85 0854.56
2009/04/23 15:25:43.1      -3   -337    363    338    495 180.6  52.2  34166  289.68 0854.55
2009/04/23 15:25:43.2     133   -435    449    456    639 163.0  49.7  34182  289.95 0854.55
2009/04/23 15:25:43.3     103   -435    475    448    652 166.6  52.0  34176  289.85 0854.55
2009/04/23 15:25:43.4      56   -278    445    284    527 168.4  64.6  34182  289.95 0854.55
2009/04/23 15:25:43.5      40   -174    367    179    408 166.9  72.2  34188  290.06 0854.55
2009/04/23 15:25:43.6     126   -326    434    350    557 158.8  57.0  34188  290.05 0854.55
2009/04/23 15:25:43.7     251   -365    435    444    621 145.5  49.5  34202  290.30 0854.55
2009/04/23 15:25:43.8     197   -541    406    577    705 160.0  38.6  34178  289.87 0854.55
2009/04/23 15:25:43.9     196   -537    380    572    686 159.9  36.9  34190  290.08 0854.55
2009/04/23 15:25:44.0      38   -532    370    534    649 175.9  38.1  34186  290.00 0854.55
2009/04/23 15:25:44.1     158   -528    270    552    614 163.3  28.0  34180  289.91 0854.55
2009/04/23 15:25:44.2     184   -601    254    629    678 163.0  23.2  34186  290.02 0854.55
2009/04/23 15:25:44.3      86   -517    271    525    590 170.6  29.3  34186  290.00 0854.55
2009/04/23 15:25:44.4     457   -496    155    675    693 137.3  13.0  34168  289.71 0854.55
2009/04/23 15:25:44.5     264   -555    164    615    637 154.5  15.0  34162  289.60 0854.55
2009/04/23 15:25:44.6     355   -288    129    458    477 129.0  15.8  34180  289.91 0854.55
2009/04/23 15:25:44.7     544   -393    123    672    684 125.9  10.4  34178  289.87 0854.55
2009/04/23 15:25:44.8     391   -409    274    567    629 136.3  27.8  34174  289.80 0854.55
2009/04/23 15:25:44.9     441   -347    176    562    590 128.2  17.4  34174  289.81 0854.55
2009/04/23 15:25:45.0     544   -328    289    636    698 121.1  26.2  34170  289.73 0854.55
2009/04/23 15:25:45.1     467   -527     67    705    709 138.5   5.5  34182  289.96 0854.56
2009/04/23 15:25:45.2     396   -351     55    530    533 131.6   6.0  34174  289.80 0854.56
2009/04/23 15:25:45.3     103   -283    223    302    375 159.9  39.9  34184  289.98 0854.56
2009/04/23 15:25:45.4      85   -337    121    348    369 165.7  19.2  34172  289.79 0854.56
2009/04/23 15:25:45.5     247   -182    157    307    344 126.4  29.2  34178  289.87 0854.56
2009/04/23 15:25:45.6     281    -69    230    290    370 103.9  42.4  34180  289.91 0854.56
2009/04/23 15:25:45.7     318      0    230    319    393  90.0  39.5  34182  289.96 0854.56
2009/04/23 15:25:45.8       0     66    190     67    201   0.0  80.2  34194  290.14 0854.56
2009/04/23 15:25:45.9     107     -8    131    108    169  94.4  56.4  34194  290.16 0854.56
2009/04/23 15:25:46.0    -203    -27    128    205    241 262.3  35.2  34188  290.04 0854.56
2009/04/23 15:25:46.1    -241     73    105    253    273 286.9  23.8  34192  290.12 0854.56
2009/04/23 15:25:46.2     -36     22    117     43    124 301.5  79.2  34200  290.25 0854.56
2009/04/23 15:25:46.3    -200   -199    114    283    305 225.2  23.1  34182  289.95 0854.56
2009/04/23 15:25:46.4    -108   -226    -69    251    261 205.5 -15.4  34188  290.05 0854.56
2009/04/23 15:25:46.5    -130   -517    139    534    552 194.2  14.6  34174  289.80 0854.56
2009/04/23 15:25:46.6     -95   -434    187    445    482 192.4  24.2  34186  290.00 0854.56
2009/04/23 15:25:46.7    -230   -384     92    448    458 210.9  11.7  34188  290.04 0854.56
2009/04/23 15:25:46.8    -508   -211    -57    551    555 247.4  -6.0  34200  290.26 0854.56
2009/04/23 15:25:46.9    -549   -228    -76    595    600 247.4  -7.3  34192  290.12 0854.56
2009/04/23 15:25:47.0    -548   -398   -142    678    693 234.0 -11.9  34166  289.68 0854.56
2009/04/23 15:25:47.1    -508   -368   -219    628    665 234.0 -24.4  34158  289.53 0854.57
2009/04/23 15:25:47.2    -493   -306   -197    581    613 238.2 -23.8  34162  289.59 0854.57
2009/04/23 15:25:47.3    -490   -308   -200    579    613 237.9 -19.1  34178  289.86 0854.57
2009/04/23 15:25:47.4    -532   -180   -232    562    608 251.3 -28.1  34168  289.71 0854.57
2009/04/23 15:25:47.5    -575   -160   -282    597    660 254.4 -31.5  34166  289.69 0854.57
2009/04/23 15:25:47.6    -578    -35   -190    580    610 266.5 -23.3  34168  289.71 0854.57
2009/04/23 15:25:47.7    -476     36   -250    478    539 274.4 -34.2  34178  289.87 0854.57
2009/04/23 15:25:47.8     -93   -360    -44    372    375 194.6  -6.8  34190  290.08 0854.57
2009/04/23 15:25:47.9      36   -321   -102    324    339 173.5 -22.6  34172  289.76 0854.57
2009/04/23 15:25:48.0      44   -114   -109    123    164 158.6 -50.8  34184  289.99 0854.57
2009/04/23 15:25:48.1      79   -359   -224    368    430 167.5 -38.6  34184  289.99 0854.57
2009/04/23 15:25:48.2       3   -245   -146    246    286 179.3 -37.9  34186  290.02 0854.57
2009/04/23 15:25:48.3      26    -96   -174    100    200 164.4 -71.9  34190  290.08 0854.57
2009/04/23 15:25:48.4     -14   -191   -240    192    307 184.5 -61.7  34184  289.98 0854.57
2009/04/23 15:25:48.5     -21   -137   -182    139    229 188.9 -63.1  34188  290.06 0854.57
2009/04/23 15:25:48.6      64   -272   -142    280    313 166.6 -33.5  34176  289.83 0854.57
2009/04/23 15:25:48.7     144   -300    -51    333    337 154.3  -8.8  34184  289.99 0854.57
2009/04/23 15:25:48.8      49   -381     -8    385    386 172.6  -1.3  34182  289.93 0854.57
2009/04/23 15:25:48.9     -36   -406    -96    408    420 185.2 -13.3  34176  289.83 0854.57
2009/04/23 15:25:49.0      51   -516    -23    519    520 174.3  -2.6  34182  289.94 0854.57
2009/04/23 15:25:49.1      -6   -437     89    438    448 180.9  11.6  34182  289.94 0854.60
2009/04/23 15:25:49.2     -95   -405     89    417    427 193.3  12.1  34182  289.94 0854.60
2009/04/23 15:25:49.3     -63   -370    144    376    402 189.7  22.0  34182  289.94 0854.60
2009/04/23 15:25:49.4      32   -323    122    325    347 174.2  21.5  34184  289.99 0854.60
2009/04/23 15:25:49.5      17   -379    139    380    404 177.3  21.0  34188  290.06 0854.60
2009/04/23 15:25:49.6     -30   -361    126    363    385 184.8  19.2  34192  290.13 0854.60
2009/04/23 15:25:49.7     -35   -378    127    380    401 185.3  18.6  34188  290.03 0854.60
2009/04/23 15:25:49.8     -63   -490    115    495    509 187.3  13.1  34192  290.12 0854.60
2009/04/23 15:25:49.9     -92   -452    126    462    479 191.6  15.3  34184  289.98 0854.60
2009/04/23 15:25:50.0    -126   -307     72    332    340 202.3  12.4  34186  290.01 0854.60
2009/04/23 15:25:50.1     -97   -249     57    268    275 201.4  12.1  34192  290.10 0854.60
2009/04/23 15:25:50.2     -97   -231     47    251    256 202.8  10.6  34188  290.03 0854.60
2009/04/23 15:25:50.3     -83   -301    123    313    336 195.4  22.8  34184  289.99 0854.60
2009/04/23 15:25:50.4    -102   -230    125    252    281 204.1  28.2  34188  290.05 0854.60
2009/04/23 15:25:50.5    -196   -143     84    243    258 233.8  19.2  34188  290.05 0854.60
2009/04/23 15:25:50.6    -143   -142     10    202    203 225.1   2.9  34190  290.08 0854.60
2009/04/23 15:25:50.7    -108   -186     -4    216    217 210.3  -1.3  34190  290.09 0854.60
2009/04/23 15:25:50.8     -31   -297     18    299    300 186.0   3.6  34188  290.03 0854.60
2009/04/23 15:25:50.9      15   -339     12    340    341 177.3   2.1  34188  290.06 0854.60
2009/04/23 15:25:51.0     -55   -344      0    349    350 189.1   0.1  34190  290.08 0854.60
2009/04/23 15:25:51.1     -65   -397     96    403    415 189.3  13.5  34188  290.04 0854.60
2009/04/23 15:25:51.2     -21   -409     91    410    421 183.0  12.5  34192  290.11 0854.60
2009/04/23 15:25:51.3     -22   -423     52    424    428 183.0   7.1  34194  290.16 0854.60
2009/04/23 15:25:51.4     -67   -433     54    439    443 188.9   7.1  34192  290.11 0854.60
2009/04/23 15:25:51.5     -40   -439     92    442    452 185.3  11.8  34186  290.00 0854.60
2009/04/23 15:25:51.6     -49   -433    157    436    464 186.6  19.9  34184  289.99 0854.60
2009/04/23 15:25:51.7     -26   -419    207    420    468 183.6  28.2  34186  290.02 0854.60
2009/04/23 15:25:51.8     -23   -439    172    440    472 183.0  22.5  34188  290.04 0854.60
2009/04/23 15:25:51.9       0   -398    136    399    422 180.0  18.9  34194  290.16 0854.60
2009/04/23 15:25:52.0     -12   -374    185    375    418 181.9  28.2  34194  290.16 0854.60
2009/04/23 15:25:52.1      63   -290    300    297    422 167.7  50.2  34206  290.35 0854.60
2009/04/23 15:25:52.2      32   -181    250    184    310 169.8  60.5  34212  290.46 0854.60
2009/04/23 15:25:52.3      23   -300    366    301    473 175.5  56.4  34206  290.34 0854.60
2009/04/23 15:25:52.4      63   -402    369    408    550 171.0  46.9  34214  290.49 0854.60
2009/04/23 15:25:52.5      59   -456    280    460    538 172.6  34.3  34194  290.15 0854.60
2009/04/23 15:25:52.6      65   -395    273    401    485 170.7  37.6  34194  290.16 0854.60
2009/04/23 15:25:52.7     152   -468    316    493    585 162.0  35.6  34202  290.28 0854.60
2009/04/23 15:25:52.8     222   -274    228    353    420 141.0  35.7  34198  290.21 0854.60
2009/04/23 15:25:52.9     187   -231    207    298    362 141.0  38.3  34208  290.38 0854.60
2009/04/23 15:25:53.0     186   -236    202    301    362 141.7  37.0  34208  290.37 0854.60
2009/04/23 15:25:53.1     238   -233    149    334    365 134.4  25.7  34202  290.30 0854.60
2009/04/23 15:25:53.2      77   -222    148    236    278 160.8  35.2  34202  290.29 0854.60
2009/04/23 15:25:53.3     137   -268    238    302    384 152.9  42.3  34188  290.03 0854.60
2009/04/23 15:25:53.4     -15   -305    201    306    366 182.9  36.4  34192  290.13 0854.60
2009/04/23 15:25:53.5      16   -283    230    284    365 176.6  43.4  34186  290.01 0854.60
2009/04/23 15:25:53.6     111   -199    155    229    276 150.8  37.4  34200  290.24 0854.60
2009/04/23 15:25:53.7     137   -230    111    268    290 149.2  23.8  34200  290.26 0854.60
2009/04/23 15:25:53.8     174   -272    103    324    341 147.4  17.7  34196  290.18 0854.60
2009/04/23 15:25:53.9     171   -239    177    295    344 144.4  34.0  34196  290.19 0854.60
2009/04/23 15:25:54.0     168   -247    158    299    338 145.7  30.2  34196  290.17 0854.60
2009/04/23 15:25:54.1     256   -314     72    406    413 140.8  10.1  34184  289.97 0854.60
2009/04/23 15:25:54.2     178   -325    210    371    426 151.3  32.0  34186  290.02 0854.60
2009/04/23 15:25:54.3     144   -121    225    189    293 130.0  56.1  34196  290.19 0854.60
2009/04/23 15:25:54.4      26    -59    128     65    143 155.5  71.0  34202  290.30 0854.60
2009/04/23 15:25:54.5     165    -26    203    168    263  99.0  56.4  34202  290.29 0854.60
2009/04/23 15:25:54.6      79    -63    223    102    245 128.6  74.0  34198  290.23 0854.60
2009/04/23 15:25:54.7     183   -156    241    241    340 130.4  50.1  34220  290.58 0854.60
2009/04/23 15:25:54.8     264    -73    237    275    363 105.5  45.2  34212  290.45 0854.60
2009/04/23 15:25:54.9     117    -63    223    133    259 118.4  66.7  34228  290.72 0854.60
2009/04/23 15:25:55.0      76   -148    275    167    321 152.8  66.0  34208  290.37 0854.60
2009/04/23 15:25:55.1     -17   -274    243    275    366 183.6  46.1  34198  290.23 0854.60
2009/04/23 15:25:55.2    -175   -326    246    371    445 208.3  36.6  34202  290.28 0854.60
2009/04/23 15:25:55.3    -125   -249    281    279    395 206.7  50.1  34204  290.33 0854.60
2009/04/23 15:25:55.4     -43   -252    294    256    389 189.8  54.4  34202  290.30 0854.60
2009/04/23 15:25:55.5    -113   -149    314    188    365 217.2  66.4  34212  290.44 0854.60
2009/04/23 15:25:55.6     -38   -215    302    219    373 190.0  60.5  34208  290.37 0854.60
2009/04/23 15:25:55.7     -64    -88    213    109    239 216.1  70.8  34216  290.53 0854.60
2009/04/23 15:25:55.8     -28    -23    204     37    207 230.5  90.0  34232  290.79 0854.60
2009/04/23 15:25:55.9    -119   -176    164    213    268 214.3  41.6  34222  290.63 0854.60
2009/04/23 15:25:56.0      16   -149    242    150    284 173.7  65.1  34212  290.44 0854.60
2009/04/23 15:25:56.1      90    -41    203    100    226 114.8  72.4  34218  290.57 0854.60
2009/04/23 15:25:56.2     231   -117    305    260    400 116.9  55.4  34204  290.32 0854.60
2009/04/23 15:25:56.3      15   -161    225    162    277 174.4  60.6  34202  290.29 0854.60
2009/04/23 15:25:56.4     189   -364    257    411    484 152.6  35.0  34192  290.11 0854.60
2009/04/23 15:25:56.5     -10   -560    272    561    623 181.1  27.7  34186  290.02 0854.60
2009/04/23 15:25:56.6     -32   -531    277    532    599 183.5  29.5  34196  290.17 0854.60
2009/04/23 15:25:56.7      41   -557     85    559    566 175.8   8.7  34190  290.07 0854.60
2009/04/23 15:25:56.8     162   -480     48    507    510 161.3   5.4  34198  290.23 0854.60
2009/04/23 15:25:56.9     145   -325    158    356    389 155.9  25.6  34200  290.25 0854.60
2009/04/23 15:25:57.0     -55   -442     -9    446    447 187.2  -1.3  34192  290.12 0854.60
2009/04/23 15:25:57.1     -70   -396     63    403    409 190.1   9.0  34188  290.04 0854.55
2009/04/23 15:25:57.2     104   -296    141    314    344 160.6  25.9  34206  290.35 0854.55
2009/04/23 15:25:57.3     254   -538    163    596    618 154.7  15.3  34198  290.20 0854.55
2009/04/23 15:25:57.4      52   -674    242    677    718 175.5  20.4  34188  290.03 0854.55
2009/04/23 15:25:57.5     127   -627    281    640    698 168.5  25.2  34184  289.97 0854.55
2009/04/23 15:25:57.6      -6   -633    120    634    646 180.6  10.7  34186  290.01 0854.55
2009/04/23 15:25:57.7     569   -686    144    892    904 140.3   9.2  34174  289.80 0854.55
2009/04/23 15:25:57.8     433   -442    149    619    637 135.6  13.6  34162  289.60 0854.55
2009/04/23 15:25:57.9     -60   -553    157    557    579 186.2  15.8  34172  289.76 0854.55
2009/04/23 15:25:58.0      31   -359     34    361    363 175.0   5.4  34178  289.86 0854.55
2009/04/23 15:25:58.1      39   -364    202    367    418 173.8  31.4  34186  290.00 0854.55
2009/04/23 15:25:58.2     -40   -244    178    248    305 189.3  39.5  34182  289.93 0854.55
2009/04/23 15:25:58.3     -49   -155     50    163    171 197.8  17.1  34194  290.14 0854.55
2009/04/23 15:25:58.4     -32   -134    -52    138    147 193.8 -25.9  34198  290.21 0854.55
2009/04/23 15:25:58.5     -52   -110   -116    122    168 205.3 -53.1  34200  290.25 0854.55
2009/04/23 15:25:58.6      58   -142   -153    154    217 157.7 -54.4  34192  290.11 0854.55
2009/04/23 15:25:58.7      69    -34     14     78     80 116.2  10.6  34192  290.11 0854.55
2009/04/23 15:25:58.8     140    -90     -2    167    168 122.9  -0.7  34186  290.02 0854.55
2009/04/23 15:25:58.9     232   -166    -15    286    287 125.5  -3.1  34196  290.19 0854.55
2009/04/23 15:25:59.0     350   -290    106    455    468 129.6  13.1  34176  289.83 0854.55
2009/04/23 15:25:59.1     474   -613     37    776    778 142.3   2.8  34122  288.93 0854.58
2009/04/23 15:25:59.2     430   -655    157    784    800 146.7  11.3  34166  289.68 0854.58
2009/04/23 15:25:59.3     188   -574    232    605    647 161.8  22.2  34164  289.65 0854.58
2009/04/23 15:25:59.4    -138   -604     87    620    627 192.9   8.0  34154  289.47 0854.58
2009/04/23 15:25:59.5    -207   -605   -171    640    663 199.0 -15.0  34174  289.82 0854.58
2009/04/23 15:25:59.6     -67   -508   -100    513    523 187.6 -11.1  34194  290.14 0854.58
2009/04/23 15:25:59.7      77   -551     -2    557    558 172.0  -0.3  34194  290.16 0854.58
2009/04/23 15:25:59.8      89   -556    -31    564    565 170.9  -3.2  34194  290.16 0854.58
2009/04/23 15:25:59.9      52   -507    -64    510    515 174.1  -7.2  34192  290.10 0854.58
2009/04/23 15:26:00.0      22   -562   -158    563    584 177.7 -20.3  34176  289.83 0854.58
2009/04/23 15:26:00.1     -29   -671   -191    672    698 182.5 -20.5  34176  289.83 0854.58
2009/04/23 15:26:00.2    -193   -509   -124    545    560 200.8 -12.9  34192  290.11 0854.58
2009/04/23 15:26:00.3    -304   -447    -69    541    546 214.2  -7.3  34190  290.07 0854.58
2009/04/23 15:26:00.4    -294   -449   -162    537    560 213.2 -21.7  34172  289.79 0854.58
2009/04/23 15:26:00.5    -330   -428   -171    541    567 217.7 -22.8  34168  289.70 0854.58
2009/04/23 15:26:00.6    -179   -349     -7    393    394 207.1  -1.2  34174  289.81 0854.58
2009/04/23 15:26:00.7    -135   -315    -98    343    356 203.2 -20.5  34162  289.60 0854.58
2009/04/23 15:26:00.8    -257   -193   -243    322    403 233.1 -45.2  34178  289.87 0854.58
2009/04/23 15:26:00.9    -249    -58   -114    256    280 256.7 -29.7  34178  289.88 0854.58
2009/04/23 15:26:01.0    -166   -364   -176    401    437 204.6 -29.6  34172  289.77 0854.58
2009/04/23 15:26:01.1    -131   -149   -162    199    256 221.4 -48.1  34176  289.83 0854.58
2009/04/23 15:26:01.2    -246    -85   -173    261    313 250.9 -41.1  34182  289.95 0854.58
2009/04/23 15:26:01.3    -274   -162   -187    319    369 239.4 -37.7  34166  289.67 0854.58
2009/04/23 15:26:01.4    -273    -64   -100    281    298 256.7 -24.8  34174  289.80 0854.58
2009/04/23 15:26:01.5    -428   -141    -33    451    453 251.7  -4.2  34172  289.78 0854.58
2009/04/23 15:26:01.6    -283   -316   -109    425    439 221.8 -14.4  34156  289.51 0854.58
2009/04/23 15:26:01.7    -428   -394   -161    582    603 227.4 -20.1  34150  289.39 0854.58
2009/04/23 15:26:01.8    -516   -622   -206    809    835 219.7 -14.3  34152  289.43 0854.58
2009/04/23 15:26:01.9    -312   -464    -77    560    566 213.9  -7.9  34150  289.40 0854.58
2009/04/23 15:26:02.0    -291   -507   -128    585    600 209.9 -12.4  34144  289.29 0854.58
2009/04/23 15:26:02.1    -195   -653    -99    682    690 196.6  -8.3  34130  289.05 0854.61
2009/04/23 15:26:02.2    -248   -625    117    673    684 201.7   9.9  34112  288.77 0854.61
2009/04/23 15:26:02.3    -212   -580     64    618    622 200.1   6.0  34126  288.99 0854.61
2009/04/23 15:26:02.4     -67   -595    -77    599    604 186.5  -7.4  34124  288.95 0854.61
2009/04/23 15:26:02.5    -184   -324     52    373    377 209.7   8.0  34152  289.42 0854.61
2009/04/23 15:26:02.6    -180   -471   -141    505    525 200.9 -15.7  34126  288.98 0854.61
2009/04/23 15:26:02.7    -283   -690   -134    746    759 202.3 -10.2  34134  289.12 0854.61
2009/04/23 15:26:02.8    -173   -521   -115    549    562 198.4 -11.9  34114  288.79 0854.61
2009/04/23 15:26:02.9    -130   -750    -42    762    764 189.9  -3.2  34126  289.01 0854.61
2009/04/23 15:26:03.0     -55   -655    -77    658    663 184.9  -6.7  34132  289.10 0854.61
2009/04/23 15:26:03.1     -60   -786     19    789    790 184.4   1.4  34124  288.97 0854.61
2009/04/23 15:26:03.2    -136   -522    203    540    576 194.7  21.5  34138  289.19 0854.61
2009/04/23 15:26:03.3    -154   -326    145    361    389 205.3  23.0  34138  289.21 0854.61
2009/04/23 15:26:03.4    -319   -326    140    457    479 224.4  17.0  34126  288.98 0854.61
2009/04/23 15:26:03.5    -332   -201    144    389    414 238.8  21.3  34138  289.21 0854.61
2009/04/23 15:26:03.6    -164    -38    -21    169    171 257.0  -7.3  34142  289.26 0854.61
2009/04/23 15:26:03.7    -173   -110    -50    206    212 237.6 -13.7  34134  289.14 0854.61
2009/04/23 15:26:03.8    -222   -117    -75    252    262 242.2 -21.5  34144  289.29 0854.61
2009/04/23 15:26:03.9    -143    -73    -23    161    163 242.9  -8.2  34138  289.21 0854.61
2009/04/23 15:26:04.0    -139    -51    -52    149    159 250.0 -19.4  34142  289.28 0854.61
2009/04/23 15:26:04.1    -196     24    -38    198    202 277.0 -10.9  34142  289.28 0854.62
2009/04/23 15:26:04.2    -270   -195   -177    334    378 234.1 -34.6  34162  289.60 0854.62
2009/04/23 15:26:04.3    -372   -123   -122    392    410 251.6 -22.4  34158  289.55 0854.62
2009/04/23 15:26:04.4    -163      8   -258    164    305 273.0 -69.1  34142  289.25 0854.62
2009/04/23 15:26:04.5     -88   -286    -26    300    302 197.2  -5.1  34152  289.44 0854.62
2009/04/23 15:26:04.6     160   -114   -182    197    268 125.5 -52.3  34146  289.34 0854.62
2009/04/23 15:26:04.7    -302   -459   -282    550    618 213.4 -33.7  34140  289.22 0854.62
2009/04/23 15:26:04.8    -238   -558   -155    607    627 203.1 -14.4  34142  289.25 0854.62
2009/04/23 15:26:04.9     -96   -403   -193    415    457 193.5 -31.4  34134  289.12 0854.62
2009/04/23 15:26:05.0    -192   -582   -164    613    635 198.3 -15.1  34150  289.40 0854.62
2009/04/23 15:26:05.1     -92   -491    107    500    512 190.7  12.2  34144  289.30 0854.62
2009/04/23 15:26:05.2    -131   -572     -7    587    588 192.9  -0.7  34154  289.47 0854.62
2009/04/23 15:26:05.4    -105   -582      2    592    593 190.3   0.2  34176  289.83 0854.62
2009/04/23 15:26:05.5     -10   -500    136    501    520 181.2  15.2  34162  289.59 0854.62
2009/04/23 15:26:05.6     -24   -448    224    449    501 183.1  28.4  34142  289.27 0854.62
2009/04/23 15:26:05.7     -54   -388    139    392    415 188.0  20.2  34140  289.22 0854.62
2009/04/23 15:26:05.8     174   -290    -25    339    340 149.1  -4.2  34144  289.30 0854.62
2009/04/23 15:26:05.9      26   -243     98    245    263 173.8  23.0  34146  289.32 0854.62
2009/04/23 15:26:06.0     -69   -289    -16    298    299 193.4  -3.1  34142  289.25 0854.62
2009/04/23 15:26:06.1     -87   -272    110    286    306 197.8  22.1  34146  289.34 0854.46
2009/04/23 15:26:06.2      51   -171    172    179    248 163.3  49.0  34154  289.48 0854.46
2009/04/23 15:26:06.3     -86   -151    173    174    245 209.6  50.0  34148  289.36 0854.46
2009/04/23 15:26:06.4     -67   -249     73    259    270 195.2  15.8  34140  289.22 0854.46
2009/04/23 15:26:06.5    -218   -187    119    288    311 229.3  23.6  34146  289.34 0854.46
2009/04/23 15:26:06.6    -243   -326     12    408    409 216.7   1.7  34152  289.43 0854.46
2009/04/23 15:26:06.7    -233   -423   -147    483    506 208.9 -17.0  34150  289.39 0854.46
2009/04/23 15:26:06.8    -110   -418    -69    433    439 194.8  -9.1  34156  289.49 0854.46
2009/04/23 15:26:06.9    -121   -331   -113    353    370 200.2 -22.9  34148  289.37 0854.46
2009/04/23 15:26:07.0    -158   -423    -65    452    457 200.5  -8.2  34150  289.41 0854.46
2009/04/23 15:26:07.1    -101   -422     89    435    445 193.5  11.6  34152  289.43 0854.46
2009/04/23 15:26:07.2    -246   -322    -13    406    407 217.3  -1.9  34154  289.48 0854.46
2009/04/23 15:26:07.3    -315   -302     35    437    439 226.2   4.6  34160  289.56 0854.46
2009/04/23 15:26:07.4    -216   -435     10    486    487 206.4   1.2  34164  289.64 0854.46
2009/04/23 15:26:07.5    -247   -192     15    313    314 232.2   2.8  34168  289.71 0854.46
2009/04/23 15:26:07.6     -70   -390    169    397    431 190.3  24.5  34156  289.51 0854.46
2009/04/23 15:26:07.7    -191   -439    -18    479    480 203.5  -2.2  34162  289.59 0854.46
2009/04/23 15:26:07.8     -51   -550   -106    553    564 185.3 -10.9  34170  289.75 0854.46
2009/04/23 15:26:07.9    -132   -434    -92    454    464 196.9 -11.5  34162  289.61 0854.46
2009/04/23 15:26:08.0     -90   -508    -71    517    522 190.1  -7.9  34164  289.63 0854.46
2009/04/23 15:26:08.1     -36   -463   -138    465    486 184.5 -16.5  34162  289.61 0854.34
2009/04/23 15:26:08.2     -21   -461    -88    462    471 182.7 -10.9  34162  289.61 0854.34
2009/04/23 15:26:08.3    -105   -445    -25    458    459 193.3  -3.1  34162  289.60 0854.34
2009/04/23 15:26:08.4     -88   -399     48    409    412 192.5   6.8  34164  289.65 0854.34
2009/04/23 15:26:08.5    -171   -375    -45    413    416 204.5  -6.2  34166  289.66 0854.34
2009/04/23 15:26:08.6    -123   -309      0    333    334 201.8   0.1  34162  289.62 0854.34
2009/04/23 15:26:08.7     -92   -343     52    356    360 195.1   8.3  34160  289.57 0854.34
2009/04/23 15:26:08.8     -53   -428   -113    432    447 187.1 -14.7  34180  289.92 0854.34
2009/04/23 15:26:08.9      68   -388    -99    395    408 170.0 -14.1  34176  289.83 0854.34
2009/04/23 15:26:09.0     202   -494    154    534    556 157.7  16.1  34166  289.67 0854.34
2009/04/23 15:26:09.1     418   -525     59    672    675 141.5   5.1  34166  289.68 0854.34
2009/04/23 15:26:09.2     429   -617     11    752    753 145.2   0.9  34164  289.63 0854.34
2009/04/23 15:26:09.3     509   -422     46    662    664 129.6   4.0  34156  289.49 0854.34
2009/04/23 15:26:09.4     453   -453     95    641    649 135.0   8.5  34152  289.42 0854.34
2009/04/23 15:26:09.5     234   -401    202    465    506 149.7  25.0  34144  289.30 0854.34
2009/04/23 15:26:09.6      56   -440    161    444    472 172.7  20.8  34152  289.44 0854.34
2009/04/23 15:26:09.7       8   -476    166    477    506 179.0  19.2  34152  289.44 0854.34
2009/04/23 15:26:09.8      57   -452      5    456    457 172.8   0.7  34158  289.55 0854.34
2009/04/23 15:26:09.9      86   -246   -141    261    296 160.6 -35.4  34164  289.63 0854.34
2009/04/23 15:26:10.0      57   -158   -151    169    226 160.0 -50.8  34166  289.69 0854.34
2009/04/23 15:26:10.1       9    -70    -89     71    113 172.0 -61.3  34170  289.75 0854.32
2009/04/23 15:26:10.2      33     52    -87     62    106  32.6 -65.5  34186  290.01 0854.32
2009/04/23 15:26:10.3     198   -171    -33    262    265 130.9  -7.2  34172  289.78 0854.32
2009/04/23 15:26:10.4     153   -397    137    426    448 158.8  17.8  34172  289.78 0854.32
2009/04/23 15:26:10.5      95   -450     76    461    468 168.0   9.4  34154  289.47 0854.32
2009/04/23 15:26:10.6     -96   -454    -95    465    475 192.0 -11.6  34142  289.28 0854.32
2009/04/23 15:26:10.7     -16   -296   -115    297    318 183.1 -26.7  34160  289.56 0854.32
2009/04/23 15:26:10.8    -143   -445     23    468    469 197.8   2.9  34146  289.35 0854.32
2009/04/23 15:26:10.9    -249   -380    -13    455    456 213.2  -1.7  34154  289.46 0854.32
2009/04/23 15:26:11.0    -100   -249    144    269    305 201.9  30.3  34164  289.63 0854.32
2009/04/23 15:26:11.1      51   -261     13    267    268 168.9   2.9  34162  289.61 0854.32
2009/04/23 15:26:11.2      69   -209    -63    221    230 161.7 -16.0  34166  289.69 0854.32
2009/04/23 15:26:11.3      53   -209   -193    216    289 165.7 -50.6  34170  289.73 0854.32
2009/04/23 15:26:11.4      69   -311    -24    319    320 167.5  -4.4  34160  289.56 0854.32
2009/04/23 15:26:11.5      14   -285    -90    286    300 177.1 -17.5  34164  289.64 0854.32
2009/04/23 15:26:11.6     -31   -420     84    422    431 184.3  11.3  34142  289.26 0854.32
2009/04/23 15:26:11.7     -57   -283   -258    289    387 191.6 -50.8  34168  289.72 0854.32
2009/04/23 15:26:11.8      -5   -233   -201    234    308 181.4 -49.3  34162  289.61 0854.32
2009/04/23 15:26:11.9      15   -344   -104    345    361 177.5 -16.8  34162  289.62 0854.32
2009/04/23 15:26:12.0     -43   -303    -71    307    316 188.2 -13.1  34160  289.58 0854.32
2009/04/23 15:26:12.1      11   -451   -150    452    476 178.5 -23.6  34152  289.42 0854.27
2009/04/23 15:26:12.2       0   -530   -213    531    572 180.0 -27.5  34152  289.43 0854.27
2009/04/23 15:26:12.3    -107   -171   -132    202    241 212.1 -40.7  34156  289.50 0854.27
2009/04/23 15:26:12.4    -128     -9    -98    129    162 265.7 -45.6  34162  289.60 0854.27
2009/04/23 15:26:12.5     -65      4   -128     66    144 273.5 -75.2  34170  289.74 0854.27
2009/04/23 15:26:12.6     -43     -7      2     44     45 260.3   3.8  34166  289.69 0854.27
2009/04/23 15:26:12.7     -99   -113    133    151    201 221.0  45.9  34164  289.65 0854.27
2009/04/23 15:26:12.8    -140   -245     60    283    290 209.8  12.0  34164  289.64 0854.27
2009/04/23 15:26:12.9     283   -289    417    405    581 135.6  51.1  34154  289.46 0854.27
2009/04/23 15:26:13.0      35   -450    148    452    476 175.5  18.2  34160  289.56 0854.27
2009/04/23 15:26:13.1     379   -603    246    713    755 147.9  19.1  34164  289.65 0854.27
2009/04/23 15:26:13.2     451   -544    180    707    730 140.3  14.3  34156  289.49 0854.27
2009/04/23 15:26:13.3     252   -690    144    735    750 159.9  11.1  34172  289.79 0854.27
2009/04/23 15:26:13.4     452   -710    175    842    861 147.5  11.8  34156  289.49 0854.27
2009/04/23 15:26:13.5     522   -693    145    869    881 143.0   9.5  34142  289.28 0854.27
2009/04/23 15:26:13.6     524   -613    105    807    814 139.5   7.5  34148  289.38 0854.27
2009/04/23 15:26:13.7      -9   -564    173    565    591 181.0  17.0  34166  289.68 0854.27
2009/04/23 15:26:13.8     247   -679     -4    724    725 160.0  -0.4  34168  289.72 0854.27
2009/04/23 15:26:13.9     169   -649    218    671    706 165.4  18.0  34164  289.63 0854.27
2009/04/23 15:26:14.0     -61   -589    194    593    624 186.0  18.1  34166  289.66 0854.27
2009/04/23 15:26:14.1     101   -734     56    741    743 172.1   4.4  34166  289.68 0854.20
2009/04/23 15:26:14.2     189   -595    125    625    638 162.3  11.3  34168  289.72 0854.20
2009/04/23 15:26:14.3    -168   -714    296    734    791 193.3  23.2  34150  289.41 0854.20
2009/04/23 15:26:14.4    -469   -832    -68    956    959 209.4  -4.1  34160  289.58 0854.20
2009/04/23 15:26:14.5    -396   -907     -8    991    992 203.6  -0.5  34158  289.53 0854.20
2009/04/23 15:26:14.6    -259   -981    -12   1015   1016 194.8  -0.7  34162  289.62 0854.20
2009/04/23 15:26:14.7    -207   -858    -96    883    889 193.6  -6.2  34174  289.81 0854.20
2009/04/23 15:26:14.8    -496   -637   -243    808    844 217.9 -16.8  34154  289.48 0854.20
2009/04/23 15:26:14.9    -532   -534   -144    754    768 224.9 -10.8  34174  289.80 0854.20
2009/04/23 15:26:15.0    -464   -436   -177    638    663 226.8 -15.5  34170  289.74 0854.20
2009/04/23 15:26:15.1    -248   -546   -185    600    629 204.5 -17.2  34148  289.37 0854.20
2009/04/23 15:26:15.2    -181   -442   -145    478    500 202.3 -17.0  34148  289.37 0854.20
2009/04/23 15:26:15.3     -72   -321    -38    330    333 192.8  -6.7  34156  289.50 0854.20
2009/04/23 15:26:15.4     -22   -419    -92    420    431 183.0 -12.4  34158  289.55 0854.20
2009/04/23 15:26:15.5     -84   -561   -175    568    595 188.6 -17.2  34154  289.47 0854.20
2009/04/23 15:26:15.6     -57   -657   -112    660    670 185.0  -9.7  34150  289.39 0854.20
2009/04/23 15:26:15.7    -172   -661    -60    683    686 194.6  -5.1  34144  289.29 0854.20
2009/04/23 15:26:15.8    -136   -616     -5    632    633 192.5  -0.5  34156  289.52 0854.20
2009/04/23 15:26:15.9    -241   -622    -43    668    670 201.2  -3.7  34150  289.39 0854.20
2009/04/23 15:26:16.0    -163   -603    -95    625    633 195.2  -8.7  34160  289.57 0854.20
2009/04/23 15:26:16.1    -127   -586    -54    600    603 192.3  -5.2  34164  289.64 0854.21
2009/04/23 15:26:16.2      32   -647   -127    648    661 177.1 -11.1  34160  289.58 0854.21
2009/04/23 15:26:16.3     -78   -538   -176    544    572 188.3 -17.9  34152  289.43 0854.21
2009/04/23 15:26:16.4      -8   -560   -137    561    578 180.9 -13.8  34162  289.61 0854.21
2009/04/23 15:26:16.5     138   -529    -79    547    553 165.3  -8.2  34162  289.62 0854.21
2009/04/23 15:26:16.6     218   -487    -52    534    537 155.8  -5.6  34158  289.55 0854.21
2009/04/23 15:26:16.7     186   -498     79    532    538 159.5   8.5  34162  289.62 0854.21
2009/04/23 15:26:16.8     186   -552    181    583    611 161.3  17.3  34158  289.54 0854.21
2009/04/23 15:26:16.9     212   -569     75    608    613 159.5   7.1  34166  289.68 0854.21
2009/04/23 15:26:17.0     228   -546    234    592    636 157.3  22.8  34158  289.53 0854.21
2009/04/23 15:26:17.1     232   -595    227    639    679 158.7  19.6  34178  289.88 0854.21
2009/04/23 15:26:17.2     372   -639     68    740    744 149.8   5.3  34162  289.60 0854.21
2009/04/23 15:26:17.3     370   -543    106    658    667 145.7   9.2  34168  289.71 0854.21
2009/04/23 15:26:17.4     257   -639    -26    689    690 158.1  -2.2  34154  289.46 0854.21
2009/04/23 15:26:17.5     280   -641    -65    700    704 156.4  -5.4  34142  289.25 0854.21
2009/04/23 15:26:17.6     221   -596    127    636    649 159.6  11.3  34158  289.53 0854.21
2009/04/23 15:26:17.7      96   -569    -11    578    579 170.4  -1.2  34168  289.71 0854.21
2009/04/23 15:26:17.8     188   -516     -8    550    551 160.0  -0.9  34158  289.55 0854.21
2009/04/23 15:26:17.9     136   -390    149    414    439 160.7  20.7  34156  289.51 0854.21
2009/04/23 15:26:18.0     105   -384    162    399    430 164.6  23.4  34164  289.63 0854.21
2009/04/23 15:26:18.1     -13   -467    159    468    495 181.7  18.8  34166  289.69 0854.23
2009/04/23 15:26:18.2      -7   -433    105    434    447 181.0  13.7  34170  289.73 0854.23
2009/04/23 15:26:18.3     129   -465    182    483    516 164.4  21.5  34168  289.71 0854.23
2009/04/23 15:26:18.4     208   -483    190    526    560 156.7  19.9  34166  289.68 0854.23
2009/04/23 15:26:18.5      32   -422    216    424    475 175.7  29.2  34170  289.75 0854.23
2009/04/23 15:26:18.6      -2   -509    144    510    531 180.3  15.8  34172  289.77 0854.23
2009/04/23 15:26:18.7      45   -537     22    540    541 175.1   2.3  34174  289.80 0854.23
2009/04/23 15:26:18.8      72   -425     92    432    442 170.3  12.1  34170  289.75 0854.23
2009/04/23 15:26:18.9     -69   -402    168    409    442 189.8  23.6  34178  289.88 0854.23
2009/04/23 15:26:19.0     -62   -245    169    253    304 194.3  37.0  34180  289.92 0854.23
2009/04/23 15:26:19.1     -19   -162     90    164    187 186.7  31.4  34178  289.87 0854.23
2009/04/23 15:26:19.2     -77   -230    131    243    276 198.7  30.8  34174  289.81 0854.23
2009/04/23 15:26:19.3    -129   -312     87    338    350 202.5  14.5  34172  289.77 0854.23
2009/04/23 15:26:19.4    -178   -309     22    357    358 210.0   3.6  34168  289.72 0854.23
2009/04/23 15:26:19.5    -150    -42     70    156    170 254.1  25.9  34176  289.84 0854.23
2009/04/23 15:26:19.6    -147    157     64    216    226 316.8  16.6  34178  289.87 0854.23
2009/04/23 15:26:19.7    -218    139    236    259    350 302.5  47.1  34180  289.90 0854.23
2009/04/23 15:26:19.8     -97    175    210    201    290 331.0  51.2  34188  290.05 0854.23
2009/04/23 15:26:19.9    -425     18     82    426    434 272.5  11.0  34178  289.87 0854.23
2009/04/23 15:26:20.0    -362     67     57    369    374 280.6   8.9  34182  289.96 0854.23
2009/04/23 15:26:20.1    -303     47     95    307    322 278.8  17.3  34184  289.98 0854.21
2009/04/23 15:26:20.2     -91    -72     77    117    140 231.8  36.5  34192  290.11 0854.21
2009/04/23 15:26:20.3     -24   -269    104    271    290 185.1  22.0  34178  289.86 0854.21
2009/04/23 15:26:20.4       4   -266    152    267    307 179.0  32.1  34174  289.81 0854.21
2009/04/23 15:26:20.5     -82   -146    190    168    253 209.4  54.2  34186  290.02 0854.21
2009/04/23 15:26:20.6    -112   -287    104    309    327 201.4  18.6  34178  289.88 0854.21
2009/04/23 15:26:20.7     -99   -297    159    314    351 198.5  29.1  34178  289.87 0854.21
2009/04/23 15:26:20.8    -156   -402    192    432    472 201.3  25.6  34176  289.85 0854.21
2009/04/23 15:26:20.9     -11   -484    172    485    515 181.4  19.6  34182  289.93 0854.21
2009/04/23 15:26:21.0     -22   -452    224    453    505 182.8  28.2  34176  289.83 0854.21
2009/04/23 15:26:21.1      22   -476    196    477    515 177.3  23.6  34182  289.93 0854.19
2009/04/23 15:26:21.2      31   -490    288    491    569 176.4  32.9  34180  289.92 0854.19
2009/04/23 15:26:21.3     174   -555    222    582    622 162.6  22.0  34184  289.97 0854.19
2009/04/23 15:26:21.4     222   -594    189    635    663 159.5  16.6  34178  289.89 0854.19
2009/04/23 15:26:21.5     317   -371    154    489    513 139.5  17.5  34182  289.93 0854.19
2009/04/23 15:26:21.6     284   -454     93    536    545 148.0   9.9  34180  289.92 0854.19
2009/04/23 15:26:21.7     264   -636    188    689    715 157.4  15.3  34182  289.94 0854.19
2009/04/23 15:26:21.8     307   -649     45    718    720 154.7   3.6  34188  290.06 0854.19
2009/04/23 15:26:21.9     229   -619     33    661    662 159.7   2.9  34180  289.90 0854.19
2009/04/23 15:26:22.0     210   -533    125    573    587 158.5  12.4  34180  289.90 0854.19
2009/04/23 15:26:22.1     152   -587    124    607    620 165.5  11.6  34176  289.84 0854.19
2009/04/23 15:26:22.2     216   -553     11    594    595 158.6   1.1  34180  289.90 0854.19
2009/04/23 15:26:22.3     223   -665    123    702    713 161.4  10.0  34170  289.74 0854.19
2009/04/23 15:26:22.4     204   -590    210    625    660 160.9  18.6  34182  289.96 0854.19
2009/04/23 15:26:22.5     149   -489    260    512    574 163.1  29.2  34184  289.97 0854.19
2009/04/23 15:26:22.6      81   -358    164    368    402 167.2  25.8  34180  289.91 0854.19
2009/04/23 15:26:22.7     129   -406     28    427    428 162.3   3.8  34180  289.90 0854.19
2009/04/23 15:26:22.8     124   -444    158    462    489 164.4  18.9  34182  289.93 0854.19
2009/04/23 15:26:22.9     130   -317    135    343    368 157.6  22.7  34188  290.03 0854.19
2009/04/23 15:26:23.0      22   -282    214    283    354 175.5  41.1  34188  290.03 0854.19
2009/04/23 15:26:23.1     -31   -290    323    292    435 186.2  53.3  34196  290.18 0854.21
2009/04/23 15:26:23.2     -98   -333    274    348    442 196.4  42.3  34194  290.16 0854.21
2009/04/23 15:26:23.3     -56   -402    244    407    474 188.0  33.7  34196  290.19 0854.21
2009/04/23 15:26:23.4     -89   -406    227    416    473 192.4  30.9  34196  290.19 0854.21
2009/04/23 15:26:23.5    -237   -497     78    551    557 205.5   8.1  34192  290.13 0854.21
2009/04/23 15:26:23.6    -216   -476    101    523    533 204.4  11.0  34196  290.19 0854.21
2009/04/23 15:26:23.7    -221   -553     99    596    605 201.8   9.4  34200  290.25 0854.21
2009/04/23 15:26:23.8    -211   -561    -31    600    601 200.7  -3.0  34192  290.10 0854.21
2009/04/23 15:26:23.9       6   -437    -39    438    440 179.2  -5.2  34194  290.14 0854.21
2009/04/23 15:26:24.0     -23   -504    -93    505    514 182.7 -10.5  34202  290.30 0854.21
2009/04/23 15:26:24.1      89   -439     38    448    450 168.5   4.9  34198  290.22 0854.21
2009/04/23 15:26:24.2      66   -384    -33    390    392 170.2  -4.9  34202  290.28 0854.21
2009/04/23 15:26:24.3     161   -385     75    418    425 157.3  10.2  34198  290.22 0854.21
2009/04/23 15:26:24.4     460   -250    318    524    612 118.5  34.1  34194  290.15 0854.21
2009/04/23 15:26:24.5     473   -138    141    493    513 106.3  16.0  34198  290.20 0854.21
2009/04/23 15:26:24.6     380   -232    -48    446    449 121.4  -6.2  34218  290.56 0854.21
2009/04/23 15:26:24.7     330   -327    -55    465    469 134.7  -6.8  34208  290.40 0854.21
2009/04/23 15:26:24.8     297   -361    -33    468    470 140.6  -4.1  34208  290.39 0854.21
2009/04/23 15:26:24.9     239   -376      3    446    447 147.5   0.5  34200  290.24 0854.21
2009/04/23 15:26:25.0     117   -387     33    405    407 163.2   4.7  34194  290.14 0854.21
2009/04/23 15:26:25.1     222   -293     15    368    369 142.8   2.4  34194  290.15 0854.27
2009/04/23 15:26:25.2     179   -256    -59    313    319 145.0 -10.8  34198  290.22 0854.27
2009/04/23 15:26:25.3     215   -283     50    356    360 142.7   8.0  34198  290.20 0854.27
2009/04/23 15:26:25.4     242   -301    114    387    404 141.2  16.5  34182  289.96 0854.27
2009/04/23 15:26:25.5     102   -244    187    265    324 157.3  38.7  34176  289.83 0854.27
2009/04/23 15:26:25.6      89   -299    167    313    354 163.3  30.5  34174  289.82 0854.27
2009/04/23 15:26:25.7     220   -247     64    331    338 138.3  11.0  34186  290.01 0854.27
2009/04/23 15:26:25.8      94   -221     90    241    257 156.8  21.5  34186  290.02 0854.27
2009/04/23 15:26:25.9     101   -149     63    181    192 145.7  19.4  34186  290.01 0854.27
2009/04/23 15:26:26.0     169    -98     43    196    201 120.2  12.4  34186  290.02 0854.27
2009/04/23 15:26:26.1     189   -135      4    233    234 125.5   1.0  34186  290.02 0854.27
2009/04/23 15:26:26.2     174   -129    -25    217    219 126.6  -6.7  34184  289.99 0854.27
2009/04/23 15:26:26.3      -9   -222    243    223    329 182.5  52.9  34188  290.05 0854.27
2009/04/23 15:26:26.4     142   -279    292    314    428 153.0  47.9  34188  290.03 0854.27
2009/04/23 15:26:26.5     241   -321    245    402    470 143.0  34.2  34188  290.05 0854.27
2009/04/23 15:26:26.6     150   -199    123    250    278 143.0  28.2  34180  289.92 0854.27
2009/04/23 15:26:26.7      96   -288     -1    304    305 161.5  -0.3  34184  289.97 0854.27
2009/04/23 15:26:26.8      41   -310    114    313    333 172.4  20.8  34188  290.03 0854.27
2009/04/23 15:26:26.9      79   -221     69    235    245 160.2  16.4  34192  290.12 0854.27
2009/04/23 15:26:27.0      69   -174     36    188    192 158.4  11.1  34186  290.02 0854.27
2009/04/23 15:26:27.1     -12   -356    -70    357    364 182.0 -11.1  34184  289.98 0854.28
2009/04/23 15:26:27.2      83   -411    -85    420    429 168.5 -11.5  34196  290.19 0854.28
2009/04/23 15:26:27.3     139   -409    116    433    449 161.2  15.0  34194  290.14 0854.28
2009/04/23 15:26:27.4     167   -281    206    327    386 149.3  35.5  34188  290.06 0854.28
2009/04/23 15:26:27.5      33    -40    206     52    212 140.4  85.9  34202  290.30 0854.28
2009/04/23 15:26:27.6     252    -13    119    253    279  93.0  27.1  34192  290.12 0854.28
2009/04/23 15:26:27.7     188    -32     85    191    209  99.7  25.7  34190  290.09 0854.28
2009/04/23 15:26:27.8      43    -80    117     92    148 151.5  57.9  34208  290.38 0854.28
2009/04/23 15:26:27.9      18     28     66     34     74  32.6  70.8  34214  290.50 0854.28
2009/04/23 15:26:28.0     101    -14    105    103    147  98.0  50.2  34208  290.40 0854.28
2009/04/23 15:26:28.1      85    -13    141     86    165  98.8  65.7  34202  290.28 0854.28
2009/04/23 15:26:28.2     179    109    173    210    272  58.7  43.7  34208  290.39 0854.28
2009/04/23 15:26:28.3      48     50    148     70    163  44.2  72.9  34216  290.53 0854.28
2009/04/23 15:26:28.4      70     44    127     83    151  58.0  64.6  34212  290.45 0854.28
2009/04/23 15:26:28.5      71     41     83     83    117  59.8  50.1  34206  290.36 0854.28
2009/04/23 15:26:28.6      55     51    110     76    133  46.9  62.6  34208  290.40 0854.28
2009/04/23 15:26:28.7     204     34    131    207    244  80.3  35.5  34198  290.22 0854.28
2009/04/23 15:26:28.8     194    161    128    253    283  50.4  29.1  34192  290.12 0854.28
2009/04/23 15:26:28.9     147    177     51    231    237  39.6  12.6  34200  290.24 0854.28
2009/04/23 15:26:29.0     353     47     31    357    359  82.3   5.1  34198  290.20 0854.28
2009/04/23 15:26:29.1     354   -128     59    377    382 109.9   8.9  34198  290.21 0854.32
2009/04/23 15:26:29.2     339   -113     96    358    371 108.4  15.1  34202  290.27 0854.32
2009/04/23 15:26:29.3     121   -146     95    190    212 140.4  28.2  34200  290.26 0854.32
2009/04/23 15:26:29.4     -37   -137    140    142    199 195.2  50.0  34210  290.43 0854.32
2009/04/23 15:26:29.5     -11   -111    117    112    161 185.8  51.2  34208  290.38 0854.32
2009/04/23 15:26:29.6      63    -94    126    114    169 146.2  53.3  34210  290.41 0854.32
2009/04/23 15:26:29.7     219      6    214    220    306  88.3  49.2  34208  290.37 0854.32
2009/04/23 15:26:29.8     277   -170    273    326    425 121.5  44.1  34210  290.42 0854.32
2009/04/23 15:26:29.9     186   -163    237    248    343 131.3  48.6  34212  290.46 0854.32
2009/04/23 15:26:30.0     205   -148    271    254    371 125.9  52.2  34230  290.76 0854.32
2009/04/23 15:26:30.1      72    -15    200     74    213 102.4  79.2  34226  290.70 0854.32
2009/04/23 15:26:30.2     218    -16    196    219    293  94.4  46.4  34232  290.80 0854.32
2009/04/23 15:26:30.3     156     27    104    159    189  79.9  36.0  34228  290.72 0854.32
2009/04/23 15:26:30.4     106     88    124    138    185  50.4  46.6  34254  291.16 0854.32
2009/04/23 15:26:30.5     -21    186     13    188    189 353.3   4.2  34226  290.69 0854.32
2009/04/23 15:26:30.6      15    195    -13    196    197   4.5  -3.9  34224  290.65 0854.32
2009/04/23 15:26:30.7      20    109     75    111    133  10.7  37.0  34236  290.87 0854.32
2009/04/23 15:26:30.8     -53     53     83     76    112 314.9  52.2  34248  291.08 0854.32
2009/04/23 15:26:30.9     -74     19    102     77    127 285.1  58.5  34232  290.81 0854.32
2009/04/23 15:26:31.0    -136      0     53    137    146 270.4  22.0  34222  290.64 0854.32
2009/04/23 15:26:31.1    -115   -104    155    156    219 227.8  50.0  34236  290.86 0854.31
2009/04/23 15:26:31.2    -207     41    101    212    234 281.2  27.2  34246  291.03 0854.31
2009/04/23 15:26:31.3    -158   -130     58    205    214 230.5  15.8  34246  291.04 0854.31
2009/04/23 15:26:31.4    -174   -197    192    263    325 221.4  39.8  34240  290.92 0854.31
2009/04/23 15:26:31.5    -449      3    -82    450    458 270.5 -10.4  34206  290.36 0854.31
2009/04/23 15:26:31.6    -340    135   -126    366    388 291.7 -19.0  34194  290.16 0854.31
2009/04/23 15:26:31.7    -243    124      3    274    275 297.1   0.8  34206  290.34 0854.31
2009/04/23 15:26:31.8    -266     12    188    267    326 272.6  38.6  34230  290.76 0854.31
2009/04/23 15:26:31.9    -165    126     53    208    215 307.3  14.5  34232  290.79 0854.31
2009/04/23 15:26:32.0    -109    170     73    203    215 327.4  20.7  34234  290.84 0854.31
2009/04/23 15:26:32.1       9    171    145    172    224   3.1  44.1  34248  291.06 0854.31
2009/04/23 15:26:32.2      27    145    156    148    215  10.7  52.1  34244  290.99 0854.31
2009/04/23 15:26:32.3      28    111    173    115    207  14.3  63.4  34244  291.01 0854.31
2009/04/23 15:26:32.4      58    190     96    199    220  17.2  27.3  34232  290.81 0854.31
2009/04/23 15:26:32.5     184     98    160    209    263  62.0  41.2  34234  290.82 0854.31
2009/04/23 15:26:32.6      35    169    147    173    227  11.8  44.5  34270  291.43 0854.31
2009/04/23 15:26:32.7     -77    213    189    227    295 339.9  43.8  34270  291.43 0854.31
2009/04/23 15:26:32.8     -42    247    177    251    307 350.2  38.6  34274  291.51 0854.31
2009/04/23 15:26:32.9       6    218    235    219    321   1.6  52.2  34296  291.87 0854.31
2009/04/23 15:26:33.0     -26    336    195    338    390 355.5  32.6  34312  292.15 0854.31
2009/04/23 15:26:33.2     -71    319    156    328    363 347.3  27.3  34290  291.79 0854.34
2009/04/23 15:26:33.3     -87    319    209    331    391 344.7  35.3  34284  291.68 0854.34
2009/04/23 15:26:33.4      -2    342    152    343    375 359.5  25.3  34260  291.28 0854.34
2009/04/23 15:26:33.5     -59    246    185    254    314 346.4  39.8  34266  291.38 0854.34
2009/04/23 15:26:33.6     -20    187    210    189    282 353.8  53.3  34264  291.33 0854.34
2009/04/23 15:26:33.7     140    205    170    249    301  34.3  37.6  34234  290.82 0854.34
2009/04/23 15:26:33.8     155    214    171    265    315  35.8  36.0  34232  290.78 0854.34
2009/04/23 15:26:33.9      94    264    106    281    300  19.6  21.5  34236  290.87 0854.34
2009/04/23 15:26:34.0      62    187    117    198    229  18.5  33.5  34230  290.77 0854.34
2009/04/23 15:26:34.1       0    124     67    125    141   0.0  30.8  34230  290.77 0854.34
2009/04/23 15:26:34.2    -140    116     49    182    189 309.6  15.3  34242  290.96 0854.34
2009/04/23 15:26:34.3    -100     87     62    133    146 310.9  27.1  34246  291.03 0854.34
2009/04/23 15:26:34.4    -109     54    -10    122    123 296.6  -5.1  34242  290.96 0854.34
2009/04/23 15:26:34.5    -118    109     45    161    168 312.7  15.6  34238  290.89 0854.34
2009/04/23 15:26:34.6    -154   -124     80    199    214 231.1  23.0  34244  291.01 0854.34
2009/04/23 15:26:34.7    -172   -202    156    266    308 220.5  33.4  34268  291.41 0854.34
2009/04/23 15:26:34.8    -181   -115    135    215    253 237.4  35.5  34282  291.63 0854.34
2009/04/23 15:26:34.9    -312      8     25    313    315 271.5   4.6  34272  291.46 0854.34
2009/04/23 15:26:35.0    -242     11    -51    243    249 272.6 -11.9  34260  291.27 0854.34
2009/04/23 15:26:35.1    -200    -45     10    206    207 257.2   2.9  34246  291.04 0854.34
2009/04/23 15:26:35.2    -131    131     72    186    199 315.0  22.3  34250  291.11 0854.34
2009/04/23 15:26:35.3    -140    150     53    206    213 317.0  14.7  34244  290.99 0854.34
2009/04/23 15:26:35.4    -143    187     33    236    239 322.6   8.0  34242  290.97 0854.34
2009/04/23 15:26:35.5     -41    151    -54    157    167 344.8 -19.1  34256  291.21 0854.34
2009/04/23 15:26:35.6      97     41    -31    106    110  66.9 -21.2  34258  291.23 0854.34
2009/04/23 15:26:35.7     144    -29     70    147    162 101.5  27.2  34256  291.20 0854.34
2009/04/23 15:26:35.8     148    -37     68    153    167 104.2  25.7  34250  291.11 0854.34
2009/04/23 15:26:35.9     189     26     82    191    207  81.9  24.9  34250  291.11 0854.34
2009/04/23 15:26:36.0     243     18    140    244    281  85.7  32.4  34244  290.99 0854.34
2009/04/23 15:26:36.1     144     13    136    145    198  84.8  48.0  34250  291.11 0854.34
2009/04/23 15:26:36.2      94     30    132     99    165  71.8  59.4  34262  291.32 0854.34
2009/04/23 15:26:36.3      41    -35     98     55    112 130.4  68.8  34270  291.43 0854.34
2009/04/23 15:26:36.4     -17   -105     65    107    125 189.3  34.4  34262  291.32 0854.34
2009/04/23 15:26:36.5     -76   -142     28    162    165 208.3   9.9  34262  291.32 0854.34
2009/04/23 15:26:36.6    -156   -157      3    222    223 224.9   1.0  34252  291.15 0854.34
2009/04/23 15:26:36.7    -226   -297     68    374    381 217.3  10.4  34268  291.39 0854.34
2009/04/23 15:26:36.8    -238   -327     62    405    410 216.1   8.8  34264  291.33 0854.34
2009/04/23 15:26:36.9    -230   -287    197    369    418 218.7  30.3  34278  291.56 0854.34
2009/04/23 15:26:37.0    -252   -320    306    408    510 218.3  40.7  34268  291.42 0854.34
2009/04/23 15:26:37.1    -144   -348    163    377    410 202.6  25.0  34258  291.23 0854.37
2009/04/23 15:26:37.2    -191   -297    103    354    369 212.7  16.3  34244  291.01 0854.37
2009/04/23 15:26:37.3    -240   -259    118    354    374 222.8  18.4  34268  291.39 0854.37
2009/04/23 15:26:37.4    -164   -153     72    225    237 226.9  17.7  34280  291.60 0854.37
2009/04/23 15:26:37.5    -132   -194     61    235    243 214.2  14.7  34262  291.31 0854.37
2009/04/23 15:26:37.6    -178   -183     11    256    257 224.1   2.5  34272  291.48 0854.37
2009/04/23 15:26:37.7    -103   -175     88    204    222 210.5  24.9  34264  291.33 0854.37
2009/04/23 15:26:37.8    -106   -113     75    156    173 223.2  27.3  34254  291.16 0854.37
2009/04/23 15:26:37.9    -208   -107    -34    235    238 242.7  -8.2  34290  291.78 0854.37
2009/04/23 15:26:38.0    -171   -179    -45    248    253 223.7 -10.3  34256  291.21 0854.37
2009/04/23 15:26:38.1    -129   -209     24    246    248 211.7   5.7  34256  291.19 0854.37
2009/04/23 15:26:38.2    -169   -137     82    218    232 230.9  21.3  34272  291.47 0854.37
2009/04/23 15:26:38.3     -96    -99    214    138    254 224.1  64.4  34280  291.60 0854.37
2009/04/23 15:26:38.4    -124    -90    124    154    197 234.1  43.0  34286  291.71 0854.37
2009/04/23 15:26:38.5    -114   -141    109    182    212 219.0  34.0  34298  291.93 0854.37
2009/04/23 15:26:38.6    -240   -109    141    264    299 245.6  30.3  34292  291.82 0854.37
2009/04/23 15:26:38.7    -257    -52    166    263    311 258.5  35.5  34294  291.84 0854.37
2009/04/23 15:26:38.8    -302     -7    156    303    340 268.5  29.4  34292  291.81 0854.37
2009/04/23 15:26:38.9    -222    -11    116    223    251 267.0  29.3  34302  291.97 0854.37
2009/04/23 15:26:39.0    -116    -44      0    125    126 249.2   0.2  34294  291.86 0854.37
2009/04/23 15:26:39.1     -35     78      0     86     87 335.9   0.2  34298  291.91 0854.36
2009/04/23 15:26:39.2      46    171    -49    178    184  15.1 -20.0  34310  292.12 0854.36
2009/04/23 15:26:39.3     185    217     61    286    293  40.5  12.2  34302  291.99 0854.36
2009/04/23 15:26:39.4     -11    151    147    152    211 355.5  49.2  34318  292.25 0854.36
2009/04/23 15:26:39.5     -23    244     34    246    249 354.4   8.0  34330  292.45 0854.36
2009/04/23 15:26:39.6     132    253   -125    286    312  27.6 -29.4  34316  292.23 0854.36
2009/04/23 15:26:39.7       3    195   -183    196    268   1.1 -52.3  34228  290.71 0854.36
2009/04/23 15:26:39.8      -2     28   -132     29    135 355.6 -90.0  34274  291.50 0854.36
2009/04/23 15:26:39.9      92     34   -126     99    160  69.6 -62.3  34292  291.81 0854.36
2009/04/23 15:26:40.0     127     25    -36    130    135  78.5 -15.5  34282  291.64 0854.36
2009/04/23 15:26:40.1     168    -44   -104    174    202 104.8 -38.1  34276  291.55 0854.36
2009/04/23 15:26:40.2       7    -19     17     21     27 160.0  43.7  34288  291.74 0854.36
2009/04/23 15:26:40.3     -39     13   -142     42    148 289.1 -87.2  34280  291.60 0854.36
2009/04/23 15:26:40.4     122     -8    -93    123    154  93.9 -45.6  34278  291.57 0854.36
2009/04/23 15:26:40.5     186     59    -62    196    206  72.3 -17.5  34276  291.55 0854.36
2009/04/23 15:26:40.6     189     45    -44    195    201  76.5 -12.9  34276  291.55 0854.36
2009/04/23 15:26:40.7     152     64    -15    165    166  67.2  -5.4  34280  291.62 0854.36
2009/04/23 15:26:40.8     168     47     14    175    176  74.3   4.6  34292  291.81 0854.36
2009/04/23 15:26:40.9     202    -22    171    204    266  96.2  44.1  34294  291.85 0854.36
2009/04/23 15:26:41.0     248    189     89    312    325  52.7  16.0  34280  291.61 0854.36
2009/04/23 15:26:41.1      92     98    -53    135    145  43.2 -27.4  34274  291.52 0854.38
2009/04/23 15:26:41.2      27    124      4    128    129  12.5   1.8  34276  291.55 0854.38
2009/04/23 15:26:41.3     -33    109    112    114    159 343.1  50.0  34292  291.81 0854.38
2009/04/23 15:26:41.4     -30     78     68     84    108 338.6  43.7  34296  291.88 0854.38
2009/04/23 15:26:41.5    -113    106     42    156    162 313.2  15.3  34304  292.01 0854.38
2009/04/23 15:26:41.6     -59    136     52    149    159 336.3  19.4  34292  291.81 0854.38
2009/04/23 15:26:41.7     113    205     32    235    238  29.0   7.8  34270  291.44 0854.38
2009/04/23 15:26:41.8     198     42     94    203    223  77.8  27.0  34284  291.69 0854.38
2009/04/23 15:26:41.9      99    -77     89    126    154 127.8  38.6  34300  291.96 0854.38
2009/04/23 15:26:42.0      11    -43    106     45    115 165.7  76.1  34304  292.03 0854.38
2009/04/23 15:26:42.1     -63    -40     50     75     90 237.6  36.5  34270  291.45 0854.39
2009/04/23 15:26:42.2     -19   -128     23    130    133 188.5  10.1  34258  291.25 0854.39
2009/04/23 15:26:42.3     -53    -86    140    102    173 211.6  60.5  34262  291.30 0854.39
2009/04/23 15:26:42.4      -5   -100    119    101    156 183.1  55.4  34258  291.25 0854.39
2009/04/23 15:26:42.5      99      7    165    100    192  85.6  65.7  34252  291.13 0854.39
2009/04/23 15:26:42.6     152    119    322    194    375  52.0  66.3  34238  290.90 0854.39
2009/04/23 15:26:42.7     107     89    179    140    227  50.4  58.2  34242  290.96 0854.39
2009/04/23 15:26:42.8     237    -71    152    248    290 106.8  34.5  34256  291.19 0854.39
2009/04/23 15:26:42.9     234    -36    166    237    289  98.8  38.5  34256  291.19 0854.39
2009/04/23 15:26:43.0     185     -2    168    186    250  90.8  46.9  34250  291.09 0854.39
2009/04/23 15:26:43.1     240    -47    187    245    308 101.2  41.4  34222  290.63 0854.39
2009/04/23 15:26:43.2     255    -67     20    264    265 104.8   4.4  34224  290.66 0854.39
2009/04/23 15:26:43.3     245    -37    173    248    302  98.8  38.4  34204  290.32 0854.39
2009/04/23 15:26:43.4     197     39    100    201    224  78.6  28.5  34216  290.53 0854.39
2009/04/23 15:26:43.5     225     26    124    227    258  83.2  31.3  34222  290.63 0854.39
2009/04/23 15:26:43.6     177     78    -18    194    195  66.3  -5.6  34228  290.72 0854.39
2009/04/23 15:26:43.7     153    113     -7    191    192  53.4  -2.2  34232  290.79 0854.39
2009/04/23 15:26:43.8     388    215      8    444    445  61.0   1.1  34198  290.22 0854.39
2009/04/23 15:26:43.9     414    222    -33    470    472  61.8  -4.1  34206  290.35 0854.39
2009/04/23 15:26:44.0     312    201     66    372    378  57.1  10.1  34230  290.76 0854.39
2009/04/23 15:26:44.1     309    373    225    485    534  39.6  26.6  34276  291.53 0854.42
2009/04/23 15:26:44.2     135    386    288    410    501  19.3  38.6  34278  291.58 0854.42
2009/04/23 15:26:44.3    -139    402     53    426    430 340.8   7.2  34252  291.12 0854.42
2009/04/23 15:26:44.4      18    363    -88    364    375   2.9 -13.6  34266  291.37 0854.42
2009/04/23 15:26:44.5     154    371     62    402    407  22.6   8.8  34282  291.65 0854.42
2009/04/23 15:26:44.6      86    410     87    420    430  11.9  11.8  34278  291.57 0854.42
2009/04/23 15:26:44.7      64    461     34    466    468   7.9   4.2  34266  291.37 0854.42
2009/04/23 15:26:44.8     -18    407    -12    408    409 357.4  -1.7  34274  291.50 0854.42
2009/04/23 15:26:44.9     -36    181   -114    185    217 348.7 -39.2  34278  291.57 0854.42
2009/04/23 15:26:45.0      80    194    -74    210    222  22.5 -24.4  34272  291.47 0854.42
2009/04/23 15:26:45.1     -99    209     24    232    234 334.7   6.0  34256  291.21 0854.42
2009/04/23 15:26:45.2    -174    136    -28    222    224 308.0  -7.2  34242  290.96 0854.42
2009/04/23 15:26:45.3     -64     23    124     69    141 290.0  68.8  34264  291.33 0854.42
2009/04/23 15:26:45.4    -141    182     77    231    244 322.2  18.5  34278  291.56 0854.42
2009/04/23 15:26:45.5    -179     78    -15    196    197 293.7  -4.6  34248  291.06 0854.42
2009/04/23 15:26:45.6      10     52    133     54    143  11.6  77.1  34264  291.33 0854.42
2009/04/23 15:26:45.7    -150    269     15    309    310 330.8   2.9  34246  291.04 0854.42
2009/04/23 15:26:45.8    -136    382      5    406    407 340.4   0.8  34252  291.12 0854.42
2009/04/23 15:26:45.9    -195    456    -77    497    503 336.8  -8.8  34194  290.15 0854.42
2009/04/23 15:26:46.0    -169    465    126    496    512 340.0  14.3  34242  290.98 0854.42
2009/04/23 15:26:46.1     -51    551    108    554    565 354.7  11.1  34232  290.80 0854.43
2009/04/23 15:26:46.2      -4    406      0    407    408 359.4   0.0  34218  290.55 0854.43
2009/04/23 15:26:46.3    -482    371   -101    609    618 307.6  -9.5  34238  290.88 0854.43
2009/04/23 15:26:46.4    -446    419     -2    613    614 313.2  -0.3  34212  290.47 0854.43
2009/04/23 15:26:46.5    -449    315   -173    549    576 305.1 -17.5  34170  289.75 0854.43
2009/04/23 15:26:46.6    -453    231   -173    509    538 297.1 -18.8  34178  289.89 0854.43
2009/04/23 15:26:46.7    -337    182   -138    383    407 298.4 -25.0  34196  290.18 0854.43
2009/04/23 15:26:46.8    -317    143   -210    348    406 294.3 -38.5  34198  290.20 0854.43
2009/04/23 15:26:46.9    -243    119    -85    271    284 296.2 -22.5  34210  290.41 0854.43
2009/04/23 15:26:47.0    -119     86    102    148    179 306.0  38.0  34204  290.33 0854.43
2009/04/23 15:26:47.1     -82      0     25     83     87 270.0  17.3  34214  290.50 0854.43
2009/04/23 15:26:47.2      52    -15   -131     55    142 105.9 -81.0  34218  290.57 0854.43
2009/04/23 15:26:47.3     -18   -157    -49    159    166 186.7 -22.3  34220  290.58 0854.43
2009/04/23 15:26:47.4     102    -59   -121    119    169 120.2 -54.5  34186  290.02 0854.43
2009/04/23 15:26:47.5     134     41   -119    141    184  73.1 -48.9  34170  289.75 0854.43
2009/04/23 15:26:47.6     237    234   -182    334    380  45.3 -35.7  34228  290.72 0854.43
2009/04/23 15:26:47.7     293    245   -199    382    430  50.1 -33.9  34230  290.77 0854.43
2009/04/23 15:26:47.8     307    287   -145    421    446  47.0 -19.1  34222  290.61 0854.43
2009/04/23 15:26:47.9     116    209   -115    240    266  29.0 -31.7  34214  290.48 0854.43
2009/04/23 15:26:48.0      53    172   -141    181    229  17.2 -46.4  34240  290.92 0854.43
2009/04/23 15:26:48.1     179    112    -19    212    213  58.0  -5.2  34206  290.35 0854.41
2009/04/23 15:26:48.2     265     96     34    283    286  70.0   6.9  34192  290.10 0854.41
2009/04/23 15:26:48.3     233     -8     97    234    253  92.1  23.8  34176  289.85 0854.41
2009/04/23 15:26:48.4     143    -91     30    170    173 122.4  10.1  34206  290.36 0854.41
2009/04/23 15:26:48.5     143   -240    -77    280    291 149.3 -15.5  34218  290.54 0854.41
2009/04/23 15:26:48.6     106   -350   -111    366    383 163.1 -17.0  34232  290.79 0854.41
2009/04/23 15:26:48.7     130   -442   -188    461    497 163.6 -27.8  34238  290.88 0854.41
2009/04/23 15:26:48.8     277   -410   -153    495    518 145.9 -22.2  34212  290.44 0854.41
2009/04/23 15:26:48.9     287   -396   -106    490    502 144.1 -12.3  34218  290.57 0854.41
2009/04/23 15:26:49.0     349   -196    -50    401    405 119.3  -7.2  34232  290.80 0854.41
2009/04/23 15:26:49.1     254    173     88    308    321  55.8  16.0  34180  289.90 0854.41
2009/04/23 15:26:49.2     199    199    -73    282    292  45.0 -14.5  34196  290.19 0854.41
2009/04/23 15:26:49.3     146    337   -188    368    413  23.5 -33.6  34212  290.45 0854.41
2009/04/23 15:26:49.4      99    389   -117    402    418  14.4 -21.0  34212  290.46 0854.41
2009/04/23 15:26:49.5     305    210   -112    371    388  55.4 -16.9  34210  290.42 0854.41
2009/04/23 15:26:49.6     382    331   -165    506    533  49.1 -18.1  34182  289.96 0854.41
2009/04/23 15:26:49.7     476    382    -35    611    612  51.3  -3.3  34186  290.00 0854.41
2009/04/23 15:26:49.8     490    331    -85    592    599  55.9  -8.2  34198  290.22 0854.41
2009/04/23 15:26:49.9     540    326   -189    631    658  58.9 -21.6  34194  290.16 0854.41
2009/04/23 15:26:50.0     484    192   -146    521    541  68.3 -20.2  34180  289.92 0854.41
2009/04/23 15:26:50.1     435    336    -98    550    559  52.3 -10.1  34192  290.13 0854.42
2009/04/23 15:26:50.2     335    135   -296    362    467  68.1 -47.9  34206  290.34 0854.42
2009/04/23 15:26:50.3     314    100   -261    330    420  72.2 -46.8  34208  290.38 0854.42
2009/04/23 15:26:50.4     234     36   -157    237    284  81.2 -41.1  34212  290.44 0854.42
2009/04/23 15:26:50.5     207    -22    -92    209    228  96.1 -29.6  34200  290.25 0854.42
2009/04/23 15:26:50.6     216   -106    -94    241    258 116.2 -26.7  34204  290.32 0854.42
2009/04/23 15:26:50.7     206     32    133    209    247  81.2  35.5  34182  289.95 0854.42
2009/04/23 15:26:50.8     313     86    -10    325    326  74.5  -1.9  34188  290.05 0854.42
2009/04/23 15:26:50.9     516     25    141    517    537  87.2  15.3  34146  289.35 0854.42
2009/04/23 15:26:51.0     528     -3     73    529    534  90.4   7.9  34180  289.92 0854.42
2009/04/23 15:26:51.1     622     -9     -2    623    624  90.9  -0.2  34172  289.76 0854.42
2009/04/23 15:26:51.2     684    -20    176    685    708  91.7  14.4  34172  289.79 0854.42
2009/04/23 15:26:51.3     542    -61    135    546    563  96.5  13.9  34176  289.84 0854.42
2009/04/23 15:26:51.4     614    289     72    679    683  64.8   6.1  34168  289.70 0854.42
2009/04/23 15:26:51.5     585    198    186    618    646  71.3  16.8  34164  289.65 0854.42
2009/04/23 15:26:51.6     555    277     35    621    622  63.5   3.3  34186  290.01 0854.42
2009/04/23 15:26:51.7     584    230     71    628    633  68.5   6.5  34182  289.96 0854.42
2009/04/23 15:26:51.8     511    170    270    539    602  71.6  28.7  34180  289.91 0854.42
2009/04/23 15:26:51.9     424    -85    101    433    445 101.4  13.1  34188  290.04 0854.42
2009/04/23 15:26:52.0     189    -80    -70    206    218 113.1 -18.9  34188  290.06 0854.42
2009/04/23 15:26:52.1     378   -119    -88    397    407 107.5 -12.5  34196  290.17 0854.44
2009/04/23 15:26:52.2     393   -172     68    430    436 113.7   9.0  34200  290.24 0854.44
2009/04/23 15:26:52.3     491     34    187    493    527  86.0  21.8  34178  289.89 0854.44
2009/04/23 15:26:52.4     468    174    239    500    554  69.6  27.3  34170  289.75 0854.44
2009/04/23 15:26:52.5     649    242    271    693    744  69.5  22.5  34190  290.08 0854.44
2009/04/23 15:26:52.6     642    162    134    663    677  75.8  11.5  34190  290.07 0854.44
2009/04/23 15:26:52.7     561    152    136    582    598  74.9  13.2  34190  290.08 0854.44
2009/04/23 15:26:52.8     464    106    142    476    497  77.1  16.7  34190  290.08 0854.44
2009/04/23 15:26:52.9     553    301    123    630    643  61.4  11.1  34172  289.77 0854.44
2009/04/23 15:26:53.0     483    255    218    547    588  62.1  23.0  34186  290.00 0854.44
2009/04/23 15:26:53.1     373    271    254    462    527  54.0  31.3  34192  290.13 0854.44
2009/04/23 15:26:53.2     227    391    207    453    498  30.1  26.4  34162  289.62 0854.44
2009/04/23 15:26:53.3     225    260     93    344    357  40.9  15.2  34172  289.76 0854.44
2009/04/23 15:26:53.4     307    340    124    459    476  42.0  15.2  34170  289.73 0854.44
2009/04/23 15:26:53.5     242    305     19    390    391  38.5   2.8  34172  289.77 0854.44
2009/04/23 15:26:53.6     109    171    116    203    233  32.5  32.4  34178  289.87 0854.44
2009/04/23 15:26:53.7     -11    151    118    152    192 355.6  42.0  34182  289.94 0854.44
2009/04/23 15:26:53.8      27    100      8    104    105  15.1   4.4  34180  289.92 0854.44
2009/04/23 15:26:53.9     105    192      3    220    221  28.7   1.0  34182  289.96 0854.44
2009/04/23 15:26:54.0     209    245     46    323    327  40.5   8.1  34174  289.80 0854.44
2009/04/23 15:26:54.1     174    275    115    326    345  32.3  20.1  34184  289.98 0854.39
2009/04/23 15:26:54.2     206    304     64    368    374  34.2   9.9  34182  289.96 0854.39
2009/04/23 15:26:54.3     220    252     43    335    338  41.1   7.4  34178  289.86 0854.39
2009/04/23 15:26:54.4     229    371     55    437    441  31.7   7.2  34186  290.00 0854.39
2009/04/23 15:26:54.5      88    375    -34    386    388  13.3  -5.1  34216  290.52 0854.39
2009/04/23 15:26:54.6    -108    327     46    345    349 341.7   7.6  34270  291.45 0854.39
2009/04/23 15:26:54.7    -152    311    112    347    365 334.0  17.9  34288  291.74 0854.39
2009/04/23 15:26:54.8    -126    329    147    353    382 339.0  23.9  34310  292.12 0854.39
2009/04/23 15:26:54.9    -128    331    142    355    382 338.8  23.0  34334  292.53 0854.39
2009/04/23 15:26:55.0    -159    379    112    412    428 337.3  15.3  34286  291.70 0854.39
2009/04/23 15:26:55.1    -320    520    247    611    659 328.4  23.2  34230  290.77 0854.39
2009/04/23 15:26:55.2    -437    397    -68    591    595 312.3  -6.6  34194  290.14 0854.39
2009/04/23 15:26:55.3    -307    579    191    656    684 332.0  16.3  34224  290.66 0854.39
2009/04/23 15:26:55.4     -45    371    131    374    396 353.0  20.0  34294  291.86 0854.39
2009/04/23 15:26:55.5       6    391     54    392    396   0.9   7.9  34320  292.29 0854.39
2009/04/23 15:26:55.6     -41    270     59    274    281 351.3  12.2  34310  292.13 0854.39
2009/04/23 15:26:55.7     200    223    -66    300    308  41.9 -12.4  34276  291.53 0854.39
2009/04/23 15:26:55.8     158    223    -45    274    278  35.4  -9.3  34242  290.97 0854.39
2009/04/23 15:26:55.9     414    326    230    527    575  51.8  25.1  34238  290.91 0854.39
2009/04/23 15:26:56.0     656    258     94    706    713  68.5   7.6  34208  290.37 0854.39
2009/04/23 15:26:56.1     615    205     94    649    656  71.6   8.3  34216  290.52 0854.38
2009/04/23 15:26:56.2     173    289    151    337    369  30.9  25.8  34234  290.83 0854.38
2009/04/23 15:26:56.3     349    253     18    432    433  54.0   2.4  34190  290.09 0854.38
2009/04/23 15:26:56.4     303    180    -38    353    356  59.2  -6.2  34182  289.94 0854.38
2009/04/23 15:26:56.5     307    230     99    384    397  53.1  14.5  34216  290.52 0854.38
2009/04/23 15:26:56.6     480     20    308    481    571  87.6  35.6  34234  290.82 0854.38
2009/04/23 15:26:56.7     479    -36    282    481    557  94.4  33.1  34270  291.43 0854.38
2009/04/23 15:26:56.8     404     14    327    405    520  88.0  43.1  34258  291.22 0854.38
2009/04/23 15:26:56.9     416    275    296    500    581  56.5  33.5  34260  291.26 0854.38
2009/04/23 15:26:57.0     443    135    162    464    491  73.1  20.0  34268  291.41 0854.38
2009/04/23 15:26:57.1     328    124    238    351    424  69.2  37.4  34266  291.37 0854.38
2009/04/23 15:26:57.2     373    162    172    407    441  66.5  24.2  34232  290.80 0854.38
2009/04/23 15:26:57.3     182     73    149    197    247  68.0  40.9  34230  290.75 0854.38
2009/04/23 15:26:57.4     198     55    160    206    260  74.3  41.7  34256  291.21 0854.38
2009/04/23 15:26:57.5     162     77    223    180    286  64.5  56.9  34286  291.70 0854.38
2009/04/23 15:26:57.6     241      1    200    242    313  89.6  44.0  34272  291.48 0854.38
2009/04/23 15:26:57.7     195    -50    246    202    318 104.6  56.5  34264  291.33 0854.38
2009/04/23 15:26:57.8     213     41    273    217    348  79.0  57.5  34230  290.75 0854.38
2009/04/23 15:26:57.9     304     89    269    317    415  73.6  44.8  34230  290.77 0854.38
2009/04/23 15:26:58.0     347    168    216    386    442  64.1  31.6  34226  290.68 0854.38
2009/04/23 15:26:58.1     266    209    166    339    377  51.8  28.0  34222  290.62 0854.34
2009/04/23 15:26:58.2     327    214    137    392    416  56.8  19.3  34196  290.19 0854.34
2009/04/23 15:26:58.3     317    201    133    376    398  57.5  20.2  34206  290.35 0854.34
2009/04/23 15:26:58.4     234    249    141    343    370  43.2  23.6  34224  290.66 0854.34
2009/04/23 15:26:58.5     354    265    133    443    463  53.1  16.8  34200  290.26 0854.34
2009/04/23 15:26:58.6     339    271    165    435    465  51.4  21.8  34234  290.82 0854.34
2009/04/23 15:26:58.7     304    355    258    468    534  40.6  31.4  34296  291.88 0854.34
2009/04/23 15:26:58.8     256    329    202    417    463  37.9  27.4  34200  290.26 0854.34
2009/04/23 15:26:58.9     199    320    250    377    452  31.9  36.6  34282  291.65 0854.34
2009/04/23 15:26:59.0     307    207    183    371    413  56.0  28.2  34224  290.67 0854.34
2009/04/23 15:26:59.1     263    262    204    372    424  45.2  31.3  34214  290.50 0854.34
2009/04/23 15:26:59.2     241    257    137    353    378  43.2  22.4  34198  290.21 0854.34
2009/04/23 15:26:59.3     223    203    105    302    320  47.7  19.2  34184  289.98 0854.34
2009/04/23 15:26:59.4     297    186    133    351    375  58.0  21.7  34208  290.37 0854.34
2009/04/23 15:26:59.6     286    230    189    368    413  51.1  29.3  34282  291.64 0854.34
2009/04/23 15:26:59.6     112    142    205    181    273  38.3  54.2  34280  291.61 0854.34
2009/04/23 15:26:59.7     210    136    215    251    330  57.1  45.0  34278  291.56 0854.34
2009/04/23 15:26:59.9     189     82    199    207    287  66.5  49.0  34288  291.75 0854.34
2009/04/23 15:26:59.9      49     83    172     97    197  30.7  68.3  34308  292.08 0854.34
2009/04/23 15:27:00.0      40     84    128     94    158  25.5  60.0  34310  292.13 0854.34
2009/04/23 15:27:00.2      66     13    143     68    158  78.5  73.2  34308  292.10 0854.25
2009/04/23 15:27:00.3      17    -11    133     21    134 122.5  90.0  34312  292.15 0854.25
2009/04/23 15:27:00.4     106    -72    146    129    194 124.1  54.0  34304  292.01 0854.25
2009/04/23 15:27:00.5     181    -51    152    189    242 105.7  42.8  34310  292.12 0854.25
2009/04/23 15:27:00.6     215    114    121    244    272  62.0  28.2  34366  293.08 0854.25
2009/04/23 15:27:00.7     210    -11    160    211    264  93.0  40.9  34358  292.94 0854.25
2009/04/23 15:27:00.8      74    -15    151     76    169 101.5  71.7  34338  292.61 0854.25
2009/04/23 15:27:00.9     137    100    246    170    299  53.8  62.1  34272  291.48 0854.25
2009/04/23 15:27:01.0     -41     -7    208     42    212 259.4  89.0  34306  292.05 0854.25
2009/04/23 15:27:01.1      -1    -53    129     54    139 181.8  76.6  34308  292.08 0854.25
2009/04/23 15:27:01.2      16   -105    187    107    215 171.1  68.1  34296  291.89 0854.25
2009/04/23 15:27:01.3      43     27    140     52    149  57.6  79.2  34280  291.60 0854.25
2009/04/23 15:27:01.4     210    -22    202    212    292  96.1  48.7  34284  291.67 0854.25
2009/04/23 15:27:01.5     -50   -106    105    118    157 205.3  46.4  34310  292.12 0854.25
2009/04/23 15:27:01.6     -66   -169    185    182    259 201.4  50.4  34292  291.82 0854.25
2009/04/23 15:27:01.7      -3   -264    247    265    362 180.7  47.9  34264  291.35 0854.25
2009/04/23 15:27:01.8      11   -220    194    221    294 177.1  45.8  34270  291.43 0854.25
2009/04/23 15:27:01.9      47   -142    176    150    231 161.7  55.4  34264  291.33 0854.25
2009/04/23 15:27:02.0      61   -200    154    210    260 163.0  39.7  34264  291.34 0854.25
2009/04/23 15:27:02.1      42   -294    239    298    382 171.9  43.0  34272  291.49 0854.18
2009/04/23 15:27:02.2      41   -266    208    270    340 171.1  41.4  34300  291.96 0854.18
2009/04/23 15:27:02.3     111   -163    184    198    270 145.7  47.9  34260  291.27 0854.18
2009/04/23 15:27:02.4     148   -191    168    242    294 142.2  38.5  34258  291.22 0854.18
2009/04/23 15:27:02.5      48   -329    162    333    370 171.7  27.7  34264  291.34 0854.18
2009/04/23 15:27:02.6      55   -319    184    324    372 170.2  32.0  34270  291.44 0854.18
2009/04/23 15:27:02.7      44   -317    266    321    416 172.0  43.8  34272  291.47 0854.18
2009/04/23 15:27:02.8      43   -305    212    309    374 171.9  37.7  34276  291.54 0854.18
2009/04/23 15:27:02.9     118   -316    182    338    383 159.5  30.8  34268  291.42 0854.18
2009/04/23 15:27:03.0      55   -326    115    331    351 170.3  19.3  34268  291.39 0854.18
2009/04/23 15:27:03.1      88   -302    140    315    344 163.7  25.7  34258  291.23 0854.15
2009/04/23 15:27:03.2      88   -434    230    444    500 168.4  29.5  34248  291.05 0854.15
2009/04/23 15:27:03.3     -81   -551    240    557    606 188.4  24.9  34248  291.07 0854.15
2009/04/23 15:27:03.4      82   -417    175    426    460 168.8  23.6  34244  291.01 0854.15
2009/04/23 15:27:03.5      56   -344    214    349    409 170.7  34.5  34244  291.00 0854.15
2009/04/23 15:27:03.6    -166   -467    145    496    517 199.6  16.3  34250  291.10 0854.15
2009/04/23 15:27:03.7    -208   -543    194    582    614 201.0  18.5  34264  291.34 0854.15
2009/04/23 15:27:03.8    -250   -405     14    477    478 211.7   1.8  34236  290.86 0854.15
2009/04/23 15:27:03.9     -97   -314    285    329    435 197.3  45.5  34254  291.16 0854.15
2009/04/23 15:27:04.0     -92   -266    310    282    419 199.2  53.2  34248  291.08 0854.15
2009/04/23 15:27:04.1    -128   -289    124    317    340 203.8  22.4  34244  291.00 0854.15
2009/04/23 15:27:04.2     -83   -302     67    314    322 195.4  12.2  34228  290.71 0854.15
2009/04/23 15:27:04.3    -105   -314     39    332    335 198.5   6.8  34230  290.76 0854.15
2009/04/23 15:27:04.4     -82   -490    -46    497    500 189.6  -5.4  34242  290.95 0854.15
2009/04/23 15:27:04.5    -263   -352   -151    440    466 216.7 -19.0  34230  290.75 0854.15
2009/04/23 15:27:04.6    -198   -393   -148    441    465 206.7 -23.3  34236  290.85 0854.15
2009/04/23 15:27:04.7     -46   -604    -76    606    611 184.4  -7.2  34226  290.70 0854.15
2009/04/23 15:27:04.8     174   -424    166    459    488 157.7  20.7  34228  290.74 0854.15
2009/04/23 15:27:04.9     323   -456     -6    559    560 144.7  -0.7  34232  290.79 0854.15
2009/04/23 15:27:05.0     391   -422    -42    576    578 137.2  -4.2  34220  290.58 0854.15
2009/04/23 15:27:05.1     220   -424   -132    478    497 152.5 -15.5  34212  290.45 0854.10
2009/04/23 15:27:05.2     183   -208   -104    278    296 138.6 -25.9  34212  290.46 0854.10
2009/04/23 15:27:05.3     109   -283    -92    304    318 159.0 -16.9  34222  290.63 0854.10
2009/04/23 15:27:05.4     178   -291     14    342    343 148.6   2.5  34214  290.50 0854.10
2009/04/23 15:27:05.5      81   -337     26    347    348 166.5   4.4  34220  290.59 0854.10
2009/04/23 15:27:05.6     193   -481    -28    519    520 158.1  -3.1  34194  290.16 0854.10
2009/04/23 15:27:05.7     198   -424    141    469    490 155.0  16.8  34162  289.61 0854.10
2009/04/23 15:27:05.8     258   -404     -2    480    481 147.4  -0.3  34188  290.06 0854.10
2009/04/23 15:27:05.9     338   -394     41    520    522 139.4   4.6  34190  290.09 0854.10
2009/04/23 15:27:06.0     264   -487    -47    555    558 151.5  -4.9  34216  290.52 0854.10
2009/04/23 15:27:06.1      42   -298   -122    302    325 172.0 -27.8  34202  290.29 0854.10
2009/04/23 15:27:06.2      56   -333   -139    338    365 170.3 -28.0  34218  290.54 0854.10
2009/04/23 15:27:06.3      93   -358   -145    370    397 165.4 -26.9  34228  290.74 0854.10
2009/04/23 15:27:06.4     110   -309   -113    329    347 160.4 -23.8  34228  290.74 0854.10
2009/04/23 15:27:06.5     -36   -160    -56    165    175 192.7 -18.7  34224  290.67 0854.10
2009/04/23 15:27:06.6       8   -107   -170    108    201 175.6 -69.1  34226  290.70 0854.10
2009/04/23 15:27:06.7     -27   -390   -262    391    470 184.0 -41.5  34214  290.50 0854.10
2009/04/23 15:27:06.8     114   -459    -68    474    479 166.0  -8.2  34202  290.29 0854.10
2009/04/23 15:27:06.9     107   -396   -129    411    431 164.8 -17.5  34198  290.21 0854.10
2009/04/23 15:27:07.0     138   -345   -180    372    413 158.2 -32.1  34198  290.21 0854.10
2009/04/23 15:27:07.1      29   -320   -189    322    373 174.7 -37.4  34208  290.40 0854.02
2009/04/23 15:27:07.2      65   -225    -74    235    246 163.7 -22.8  34218  290.54 0854.02
2009/04/23 15:27:07.3      78   -388   -198    396    442 168.5 -32.9  34206  290.34 0854.02
2009/04/23 15:27:07.4     342   -387   -185    517    550 138.6 -19.7  34180  289.90 0854.02
2009/04/23 15:27:07.5     331   -363     45    492    495 137.6   5.3  34192  290.13 0854.02
2009/04/23 15:27:07.6     302   -430    155    526    549 144.9  16.4  34198  290.23 0854.02
2009/04/23 15:27:07.7      24   -353    -32    354    356 176.1  -5.2  34188  290.06 0854.02
2009/04/23 15:27:07.8      93   -282   -188    297    351 161.7 -39.9  34190  290.08 0854.02
2009/04/23 15:27:07.9     192   -282     16    342    343 145.7   2.8  34192  290.13 0854.02
2009/04/23 15:27:08.0     229   -563     30    608    609 157.8   2.9  34156  289.49 0854.02
2009/04/23 15:27:08.1     293   -545     -5    619    620 151.7  -0.5  34162  289.60 0854.02
2009/04/23 15:27:08.2     235   -529     72    579    584 156.0   7.1  34164  289.63 0854.02
2009/04/23 15:27:08.3     -18   -533    -19    534    535 182.0  -2.1  34170  289.74 0854.02
2009/04/23 15:27:08.4      -1   -405      0    406    407 180.3   0.1  34162  289.61 0854.02
2009/04/23 15:27:08.5      26   -422    -54    423    427 176.4  -7.3  34154  289.48 0854.02
2009/04/23 15:27:08.6    -167   -389   -125    424    442 203.2 -21.2  34164  289.65 0854.02
2009/04/23 15:27:08.7    -208   -366    -83    422    431 209.6 -11.2  34146  289.33 0854.02
2009/04/23 15:27:08.8    -355   -470    -75    590    595 217.1  -7.3  34130  289.05 0854.02
2009/04/23 15:27:08.9    -321   -556    -89    643    650 210.0  -7.9  34128  289.04 0854.02
2009/04/23 15:27:09.0    -292   -504    -73    583    588 210.1  -7.2  34130  289.05 0854.02
2009/04/23 15:27:09.1    -315   -618     28    694    695 207.0   2.4  34142  289.27 0854.08
2009/04/23 15:27:09.2    -429   -542     28    692    693 218.4   2.4  34140  289.24 0854.08
2009/04/23 15:27:09.3    -386   -481    -57    617    620 218.7  -5.3  34132  289.09 0854.08
2009/04/23 15:27:09.4    -243   -484    -79    542    548 206.7  -8.4  34124  288.96 0854.08
2009/04/23 15:27:09.5    -249   -485   -104    546    556 207.2 -10.8  34118  288.85 0854.08
2009/04/23 15:27:09.6    -138   -497    -66    517    522 195.6  -7.3  34134  289.14 0854.08
2009/04/23 15:27:09.7     -60   -527     -2    531    532 186.6  -0.2  34144  289.31 0854.08
2009/04/23 15:27:09.8     -42   -498     24    500    501 184.9   2.8  34138  289.20 0854.08
2009/04/23 15:27:09.9       0   -474     78    475    482 180.1   9.3  34136  289.15 0854.08
2009/04/23 15:27:10.0     -21   -399     93    400    411 183.1  13.1  34138  289.21 0854.08
2009/04/23 15:27:10.1     -57   -399    -54    404    408 188.2  -7.7  34128  289.02 0854.08
2009/04/23 15:27:10.2     -65   -355    -46    361    364 190.5  -7.3  34122  288.94 0854.08
2009/04/23 15:27:10.3     -88   -401     17    411    412 192.5   2.4  34120  288.89 0854.08
2009/04/23 15:27:10.4     -79   -383    -28    392    393 191.7  -4.1  34124  288.96 0854.08
2009/04/23 15:27:10.5    -114   -342    -19    361    362 198.5  -3.1  34134  289.13 0854.08
2009/04/23 15:27:10.6    -147   -297    -60    332    338 206.4 -10.4  34118  288.86 0854.08
2009/04/23 15:27:10.7    -148   -338    -84    370    380 203.7 -12.9  34082  288.25 0854.08
2009/04/23 15:27:10.8    -149   -353    -84    384    394 203.0 -12.4  34084  288.27 0854.08
2009/04/23 15:27:10.9    -183   -355   -102    400    413 207.3 -14.4  34096  288.48 0854.08
2009/04/23 15:27:11.0    -221   -404    -76    461    468 208.7  -9.4  34120  288.91 0854.08
2009/04/23 15:27:11.1    -233   -389    -88    454    463 210.9 -11.0  34102  288.60 0854.16
2009/04/23 15:27:11.2    -214   -391    -41    446    449 208.8  -5.3  34122  288.92 0854.16
2009/04/23 15:27:11.3    -124   -511    -20    526    527 193.7  -2.2  34142  289.26 0854.16
2009/04/23 15:27:11.4    -103   -437    -75    449    456 193.3  -9.5  34152  289.44 0854.16
2009/04/23 15:27:11.5    -188   -480    -41    516    518 201.4  -4.6  34152  289.44 0854.16
2009/04/23 15:27:11.6     -14   -457    -10    458    459 181.8  -1.3  34146  289.34 0854.16
2009/04/23 15:27:11.7     -95   -364    -62    377    383 194.6  -9.4  34146  289.35 0854.16
2009/04/23 15:27:11.8    -210   -474    -46    519    522 204.0  -5.1  34150  289.40 0854.16
2009/04/23 15:27:11.9      47   -450    -63    453    458 174.0  -8.0  34156  289.49 0854.16
2009/04/23 15:27:12.0      -1   -346   -124    347    369 180.2 -19.7  34156  289.52 0854.16
2009/04/23 15:27:12.1    -136   -330   -195    357    406 202.4 -35.4  34158  289.54 0854.16
2009/04/23 15:27:12.2    -169   -288    -51    334    338 210.4  -8.8  34156  289.52 0854.16
2009/04/23 15:27:12.3    -210   -202    -88    292    306 226.0 -16.8  34166  289.66 0854.16
2009/04/23 15:27:12.4    -142   -317     76    348    357 204.1  12.4  34164  289.65 0854.16
2009/04/23 15:27:12.5    -268   -328     -3    424    425 219.3  -0.5  34154  289.46 0854.16
2009/04/23 15:27:12.6    -224   -386     77    447    454 210.1   9.9  34152  289.44 0854.16
2009/04/23 15:27:12.7    -123   -141    119    188    222 221.2  35.5  34154  289.48 0854.16
2009/04/23 15:27:12.8     -16   -172     77    173    189 185.3  25.9  34156  289.50 0854.16
2009/04/23 15:27:12.9     -92   -379     67    390    396 193.7   9.9  34154  289.47 0854.16
2009/04/23 15:27:13.0     -88   -306     41    319    322 196.0   7.5  34158  289.53 0854.16
2009/04/23 15:27:13.1     -73   -259     90    270    285 195.8  18.4  34160  289.58 0854.20
2009/04/23 15:27:13.2    -138   -241     -3    278    279 209.8  -0.7  34160  289.56 0854.20
2009/04/23 15:27:13.3    -118   -369     11    388    389 197.8   1.7  34156  289.52 0854.20
2009/04/23 15:27:13.4    -239   -452    -59    512    516 207.9  -6.6  34152  289.45 0854.20
2009/04/23 15:27:13.5    -250   -487     31    548    549 207.2   3.3  34160  289.58 0854.20
2009/04/23 15:27:13.6     -60   -584     52    588    591 185.9   5.1  34162  289.61 0854.20
2009/04/23 15:27:13.7    -136   -641     19    656    657 192.0   1.7  34148  289.38 0854.20
2009/04/23 15:27:13.8    -311   -500    -75    590    595 211.9  -7.3  34152  289.42 0854.20
2009/04/23 15:27:13.9    -310   -559    -39    640    642 209.0  -3.5  34174  289.82 0854.20
2009/04/23 15:27:14.0    -327   -650     15    728    729 206.7   1.2  34172  289.76 0854.20
2009/04/23 15:27:14.1    -585   -638   -210    866    892 222.5 -13.7  34156  289.50 0854.20
2009/04/23 15:27:14.2    -551   -457   -252    717    761 230.3 -19.4  34160  289.58 0854.20
2009/04/23 15:27:14.3    -475   -551   -105    728    736 220.8  -8.2  34154  289.47 0854.20
2009/04/23 15:27:14.4    -344   -530   -200    633    665 213.0 -17.6  34160  289.57 0854.20
2009/04/23 15:27:14.5    -323   -549   -201    638    669 210.5 -17.5  34158  289.53 0854.20
2009/04/23 15:27:14.6    -233   -528   -136    578    594 203.8 -13.3  34172  289.78 0854.20
2009/04/23 15:27:14.7    -309   -486   -170    577    601 212.5 -21.2  34174  289.81 0854.20
2009/04/23 15:27:14.8    -366   -441   -182    574    603 219.7 -17.6  34166  289.68 0854.20
2009/04/23 15:27:14.9    -296   -427   -134    520    538 214.7 -14.5  34160  289.57 0854.20
2009/04/23 15:27:15.0    -222   -427   -129    482    500 207.5 -15.1  34168  289.71 0854.20
2009/04/23 15:27:15.1    -274   -378   -131    468    487 216.0 -15.7  34172  289.78 0854.22
2009/04/23 15:27:15.2    -269   -335   -115    430    446 218.8 -15.1  34186  290.02 0854.22
2009/04/23 15:27:15.3    -261   -370   -128    454    471 215.2 -20.4  34160  289.57 0854.22
2009/04/23 15:27:15.4    -133   -391   -131    414    434 198.8 -22.5  34160  289.58 0854.22
2009/04/23 15:27:15.5    -143   -349     44    378    381 202.3   6.7  34166  289.67 0854.22
2009/04/23 15:27:15.6    -173   -432     65    466    471 201.9   8.0  34172  289.78 0854.22
2009/04/23 15:27:15.7    -250   -460     26    524    525 208.5   2.9  34224  290.67 0854.22
2009/04/23 15:27:15.8    -333   -380      7    506    507 221.3   0.8  34188  290.03 0854.22
2009/04/23 15:27:15.9    -286   -519     -2    593    594 208.9  -0.3  34182  289.95 0854.22
2009/04/23 15:27:16.0    -274   -391    116    478    492 215.0  13.7  34158  289.54 0854.22
2009/04/23 15:27:16.1    -291   -374     55    475    479 217.9   6.7  34166  289.67 0854.22
2009/04/23 15:27:16.2    -232   -378     68    444    450 211.5   8.7  34170  289.73 0854.22
2009/04/23 15:27:16.3    -271   -382     65    469    474 215.4   8.0  34158  289.54 0854.22
2009/04/23 15:27:16.4    -330   -411    -47    528    531 218.7  -5.1  34164  289.65 0854.22
2009/04/23 15:27:16.5    -309   -208      1    373    374 236.0   0.2  34172  289.76 0854.22
2009/04/23 15:27:16.6    -153   -381     45    411    414 201.9   6.4  34164  289.63 0854.22
2009/04/23 15:27:16.7     -98   -352     79    366    375 195.7  12.3  34162  289.62 0854.22
2009/04/23 15:27:16.8    -151   -345     66    377    383 203.7  10.0  34162  289.62 0854.22
2009/04/23 15:27:16.9    -130   -359     56    382    387 200.0   8.3  34154  289.47 0854.22
2009/04/23 15:27:17.0    -108   -324    161    342    378 198.5  27.1  34156  289.50 0854.22
2009/04/23 15:27:17.1    -122   -269    120    296    319 204.5  23.4  34156  289.49 0854.22
2009/04/23 15:27:17.2     -29   -318     25    320    322 185.3   4.5  34156  289.49 0854.22
2009/04/23 15:27:17.3       6   -333     31    334    336 178.9   5.3  34164  289.65 0854.22
2009/04/23 15:27:17.4       5   -322     13    323    324 179.1   2.3  34160  289.58 0854.22
2009/04/23 15:27:17.5     -20   -219    108    221    245 185.3  27.8  34162  289.61 0854.22
2009/04/23 15:27:17.6      37    -36    126     52    136 134.0  76.6  34160  289.58 0854.22
2009/04/23 15:27:17.7      93     12    104     94    140  82.1  52.7  34172  289.77 0854.22
2009/04/23 15:27:17.8     -28     49    157     57    167 330.1  79.5  34228  290.72 0854.22
2009/04/23 15:27:17.9     129     -5    187    130    227  92.6  62.1  34190  290.09 0854.22
2009/04/23 15:27:18.0     400   -133    229    422    480 108.4  30.8  34186  290.02 0854.22
2009/04/23 15:27:18.1     357   -116    315    376    490 108.1  44.2  34176  289.83 0854.22
2009/04/23 15:27:18.2     270    -54    178    276    328 101.5  35.9  34184  289.97 0854.22
2009/04/23 15:27:18.3     161    -98    228    189    296 121.3  56.3  34172  289.78 0854.22
2009/04/23 15:27:18.4      53    -53    140     75    158 135.0  69.6  34168  289.70 0854.22
2009/04/23 15:27:18.5     140    -66    192    156    247 115.4  56.6  34172  289.77 0854.22
2009/04/23 15:27:18.6      71   -104    193    127    231 145.7  64.1  34174  289.80 0854.22
2009/04/23 15:27:18.7     -12    -59    171     61    181 191.5  79.7  34178  289.89 0854.22
2009/04/23 15:27:18.8      85    -68    249    110    272 128.6  74.9  34174  289.80 0854.22
2009/04/23 15:27:18.9      49   -235    182    241    302 168.2  40.7  34178  289.88 0854.22
2009/04/23 15:27:19.0     -17   -167    179    168    245 186.0  52.2  34176  289.84 0854.22
2009/04/23 15:27:19.1    -181   -300    147    351    380 211.1  24.1  34188  290.04 0854.26
2009/04/23 15:27:19.2    -196   -240    119    310    332 219.2  22.0  34196  290.19 0854.26
2009/04/23 15:27:19.3    -347   -177     56    390    395 242.9   8.2  34222  290.62 0854.26
2009/04/23 15:27:19.4    -292   -167      0    337    338 240.2   0.1  34232  290.81 0854.26
2009/04/23 15:27:19.5    -260   -100     56    279    285 248.9  11.4  34240  290.92 0854.26
2009/04/23 15:27:19.6    -197   -159     35    254    257 231.1   8.0  34238  290.90 0854.26
2009/04/23 15:27:19.7    -175   -110    100    208    230 237.8  27.3  34232  290.81 0854.26
2009/04/23 15:27:19.8    -243   -302     -8    388    389 218.8  -1.3  34198  290.21 0854.26
2009/04/23 15:27:19.9    -223   -184     14    290    291 230.5   2.8  34192  290.12 0854.26
2009/04/23 15:27:20.0    -416      8     44    417    420 271.2   6.1  34242  290.95 0854.26
2009/04/23 15:27:20.1    -335    -76   -106    344    359 257.2 -22.2  34228  290.72 0854.26
2009/04/23 15:27:20.2    -281   -113    157    303    341 248.0  29.5  34222  290.62 0854.26
2009/04/23 15:27:20.3    -355   -296    108    463    476 230.2  13.1  34232  290.79 0854.26
2009/04/23 15:27:20.4    -316     84    222    327    395 284.9  37.4  34250  291.10 0854.26
2009/04/23 15:27:20.5    -276    -86    162    290    332 252.7  31.6  34214  290.49 0854.26
2009/04/23 15:27:20.6    -482    -27   -129    483    500 266.8 -15.0  34208  290.37 0854.26
2009/04/23 15:27:20.7    -575   -209   -212    613    649 250.0 -19.1  34164  289.64 0854.26
2009/04/23 15:27:20.8    -453   -179   -128    488    505 248.4 -14.8  34190  290.08 0854.26
2009/04/23 15:27:20.9    -453   -280    -80    533    540 238.3  -8.6  34194  290.14 0854.26
2009/04/23 15:27:21.0    -226   -392     23    453    454 210.0   2.9  34200  290.26 0854.26
2009/04/23 15:27:21.1    -500   -514   -119    718    728 224.2  -9.5  34176  289.84 0854.28
2009/04/23 15:27:21.2    -321   -387    137    504    523 219.7  15.2  34200  290.25 0854.28
2009/04/23 15:27:21.3    -449   -346    -66    567    571 232.4  -6.7  34200  290.24 0854.28
2009/04/23 15:27:21.4    -490   -393   -121    629    641 231.3 -10.9  34142  289.28 0854.28
2009/04/23 15:27:21.5    -587   -233   -188    632    660 248.3 -16.6  34118  288.86 0854.28
2009/04/23 15:27:21.6    -413   -251    -61    484    488 238.7  -7.2  34156  289.52 0854.28
2009/04/23 15:27:21.7    -373   -379    -37    532    534 224.5  -4.0  34174  289.82 0854.28
2009/04/23 15:27:21.8    -455   -377   -184    592    619 230.4 -22.3  34172  289.76 0854.28
2009/04/23 15:27:21.9    -346   -107   -114    363    381 252.7 -17.5  34178  289.89 0854.28
2009/04/23 15:27:22.0    -333    -66   -121    340    360 258.8 -24.7  34182  289.93 0854.28
2009/04/23 15:27:22.1    -217    -58    -64    225    233 254.9 -20.7  34194  290.16 0854.28
2009/04/23 15:27:22.2    -146     92   -124    173    212 302.2 -43.5  34198  290.21 0854.28
2009/04/23 15:27:22.3    -301     70    -85    310    321 283.2 -20.0  34202  290.27 0854.28
2009/04/23 15:27:22.4    -349    -78   -107    358    374 257.4 -16.7  34210  290.43 0854.28
2009/04/23 15:27:22.5    -330    -74   -128    339    362 257.2 -26.0  34210  290.42 0854.28
2009/04/23 15:27:22.6     -70     86   -197    112    226 320.8 -72.5  34210  290.43 0854.28
2009/04/23 15:27:22.7      21    393     41    394    397   3.2   6.0  34210  290.43 0854.28
2009/04/23 15:27:22.8    -200    377     18    427    428 332.0   2.5  34214  290.48 0854.28
2009/04/23 15:27:22.9    -280    379    -96    472    482 323.5 -11.6  34190  290.08 0854.28
2009/04/23 15:27:23.0    -217    123   -145    250    289 299.7 -37.3  34184  289.97 0854.28
2009/04/23 15:27:23.1      83    495    -86    503    511   9.6  -9.8  34218  290.56 0854.27
2009/04/23 15:27:23.2     -28    350   -197    352    403 355.4 -36.0  34178  289.87 0854.27
2009/04/23 15:27:23.3    -204    537   -134    575    591 339.2 -13.1  34180  289.90 0854.27
2009/04/23 15:27:23.4     -67    673     18    677    678 354.3   1.6  34198  290.22 0854.27
2009/04/23 15:27:23.5    -171    592    -44    617    619 343.9  -4.1  34202  290.30 0854.27
2009/04/23 15:27:23.6    -164    408    -91    440    450 338.1 -11.8  34202  290.29 0854.27
2009/04/23 15:27:23.7      20    314     -4    315    316   3.8  -0.9  34200  290.24 0854.27
2009/04/23 15:27:23.8     -23    323    -12    324    325 355.8  -2.3  34200  290.26 0854.27
2009/04/23 15:27:23.9       9    324     47    325    329   1.6   8.2  34200  290.26 0854.27
2009/04/23 15:27:24.0      66    223     68    233    243  16.5  16.4  34204  290.31 0854.27
2009/04/23 15:27:24.1     137    276     15    309    310  26.5   2.9  34184  289.98 0854.28
2009/04/23 15:27:24.2     -10    216    -67    217    227 357.3 -22.1  34198  290.23 0854.28
2009/04/23 15:27:24.3     -13    247    -63    248    256 356.9 -14.3  34196  290.17 0854.28
2009/04/23 15:27:24.4     123    281    102    307    324  23.7  18.4  34190  290.09 0854.28
2009/04/23 15:27:24.5     234    270    107    358    374  41.0  16.6  34194  290.15 0854.28
2009/04/23 15:27:24.6     141    219    134    261    293  32.7  29.3  34192  290.12 0854.28
2009/04/23 15:27:24.7     191    140    263    237    354  53.8  53.5  34196  290.19 0854.28
2009/04/23 15:27:24.8       4    107    214    108    239   2.2  71.1  34196  290.19 0854.28
2009/04/23 15:27:24.9     174    210    -39    273    276  39.7  -8.3  34194  290.15 0854.28
2009/04/23 15:27:25.1     276    439    -22    519    520  32.2  -2.5  34192  290.13 0854.28
2009/04/23 15:27:25.1     335    410     29    530    531  39.2   3.1  34192  290.13 0854.28
2009/04/23 15:27:25.2     441    441    119    624    636  45.0  10.8  34194  290.15 0854.28
2009/04/23 15:27:25.3     357    391     -3    530    531  42.4  -0.4  34192  290.13 0854.28
2009/04/23 15:27:25.4     242    345     -9    422    423  35.1  -1.3  34192  290.11 0854.28
2009/04/23 15:27:25.5      91    226    -30    244    246  22.1  -7.2  34198  290.20 0854.28
2009/04/23 15:27:25.7      45    178    -25    184    186  14.3  -8.0  34194  290.14 0854.28
2009/04/23 15:27:25.7      -7    166    -58    167    176 357.4 -23.8  34188  290.06 0854.28
2009/04/23 15:27:25.8      65    373    -75    379    387   9.9 -11.2  34190  290.08 0854.28
2009/04/23 15:27:26.0      66    462   -166    467    496   8.2 -19.6  34198  290.22 0854.28
2009/04/23 15:27:26.1      97    351    -93    365    377  15.5 -14.4  34194  290.16 0854.28
2009/04/23 15:27:26.2     175    180     39    252    256  44.1   8.9  34190  290.07 0854.33
2009/04/23 15:27:26.3     363    194   -180    412    449  61.9 -29.5  34186  290.00 0854.33
2009/04/23 15:27:26.4     191    191    -97    271    287  45.0 -25.1  34156  289.51 0854.33
2009/04/23 15:27:26.5     515     98     54    525    528  79.2   6.0  34176  289.84 0854.33
2009/04/23 15:27:26.6     447    212    165    495    522  64.6  18.5  34192  290.12 0854.33
2009/04/23 15:27:26.7     410    193    109    454    468  64.8  13.6  34186  290.00 0854.33
2009/04/23 15:27:26.8     355     39     56    358    363  83.6   9.0  34178  289.89 0854.33
2009/04/23 15:27:26.9     244    110     83    268    281  65.6  17.3  34184  289.98 0854.33
2009/04/23 15:27:27.0     199     55     25    207    209  74.5   7.1  34184  289.97 0854.33
2009/04/23 15:27:27.1     273      0     38    274    277  89.9   8.0  34188  290.05 0854.33
2009/04/23 15:27:27.2     307     23    111    308    327  85.6  20.6  34186  290.02 0854.33
2009/04/23 15:27:27.3     251     91    151    268    307  70.0  31.6  34218  290.54 0854.33
2009/04/23 15:27:27.4      60    216    214    225    310  15.6  48.2  34264  291.34 0854.33
2009/04/23 15:27:27.5     184    165    197    248    316  48.2  42.4  34188  290.03 0854.33
2009/04/23 15:27:27.6      76     40    158     87    180  62.0  68.9  34194  290.16 0854.33
2009/04/23 15:27:27.7     133     10    104    134    169  85.6  42.0  34182  289.94 0854.33
2009/04/23 15:27:27.8     173    -40    147    178    230 103.3  43.7  34196  290.19 0854.33
2009/04/23 15:27:27.9     257     52    206    263    334  78.6  42.1  34188  290.03 0854.33
2009/04/23 15:27:28.0     226    -45    235    231    329 101.5  50.4  34188  290.05 0854.33
2009/04/23 15:27:28.1     265    -80     75    277    288 106.8  15.2  34196  290.17 0854.39
2009/04/23 15:27:28.2     311    -44     -6    315    316  98.1  -1.1  34192  290.12 0854.39
2009/04/23 15:27:28.3     306     98    163    322    360  72.2  29.1  34170  289.74 0854.39
2009/04/23 15:27:28.4     391     -6     70    392    399  90.9  10.1  34176  289.84 0854.39
2009/04/23 15:27:28.5     426    -14    -40    427    430  92.0  -5.4  34196  290.17 0854.39
2009/04/23 15:27:28.6     451    109    -21    465    466  76.3  -2.6  34142  289.27 0854.39
2009/04/23 15:27:28.7     634    178      1    659    660  74.3   0.1  34146  289.34 0854.39
2009/04/23 15:27:28.8     561    244    181    612    639  66.5  16.5  34164  289.64 0854.39
2009/04/23 15:27:28.9     436    300    -29    530    531  55.5  -3.2  34182  289.94 0854.39
2009/04/23 15:27:29.0     325    306     38    447    449  46.7   4.9  34178  289.88 0854.39
2009/04/23 15:27:29.1     228    310    -15    386    387  36.4  -2.2  34192  290.10 0854.39
2009/04/23 15:27:29.2     262    374     92    457    467  35.0  11.5  34210  290.43 0854.39
2009/04/23 15:27:29.3     387    263     79    468    475  55.8   9.6  34166  289.67 0854.39
2009/04/23 15:27:29.4     533    339     60    633    636  57.5   5.4  34200  290.26 0854.39
2009/04/23 15:27:29.5     575    286     35    643    645  63.5   3.1  34204  290.32 0854.39
2009/04/23 15:27:29.6     677    308      0    744    745  65.5   0.0  34178  289.87 0854.39
2009/04/23 15:27:29.7     755    285     97    808    814  69.3   6.9  34188  290.04 0854.39
2009/04/23 15:27:29.8     661    244    235    705    744  69.7  18.5  34180  289.91 0854.39
2009/04/23 15:27:29.9     617    -22    -85    618    624  92.1  -7.9  34150  289.40 0854.39
2009/04/23 15:27:30.0     515      4    -60    516    520  89.5  -6.7  34166  289.69 0854.39
2009/04/23 15:27:30.1     362   -268     96    451    462 126.5  12.1  34220  290.60 0854.41
2009/04/23 15:27:30.2     342   -153    122    375    395 114.1  18.1  34210  290.43 0854.41
2009/04/23 15:27:30.3     288   -183      5    342    343 122.4   1.0  34210  290.43 0854.41
2009/04/23 15:27:30.4     206   -340   -110    398    414 148.8 -15.5  34184  289.99 0854.41
2009/04/23 15:27:30.5     148   -257    -62    297    304 150.1 -11.8  34182  289.93 0854.41
2009/04/23 15:27:30.6     111   -188   -167    219    275 149.3 -45.8  34218  290.54 0854.41
2009/04/23 15:27:30.7      97   -255    -82    274    287 159.1 -16.8  34216  290.53 0854.41
2009/04/23 15:27:30.8     128   -269    -85    299    311 154.5 -15.9  34220  290.58 0854.41
2009/04/23 15:27:30.9     175   -194    -84    262    276 137.9 -17.9  34214  290.48 0854.41
2009/04/23 15:27:31.0      75   -226    -69    239    248 161.7 -21.0  34190  290.09 0854.41
2009/04/23 15:27:31.1       4     12     19     13     23  18.3  60.5  34184  289.97 0854.41
2009/04/23 15:27:31.2    -107    312     67    331    338 341.0  11.5  34196  290.18 0854.41
2009/04/23 15:27:31.3      52    391    199    395    442   7.6  28.7  34254  291.16 0854.41
2009/04/23 15:27:31.4     207    390     17    442    443  28.0   2.2  34276  291.53 0854.41
2009/04/23 15:27:31.5     231    239    138    333    360  44.1  23.7  34256  291.20 0854.41
2009/04/23 15:27:31.6     220    104    183    244    305  64.7  40.7  34236  290.87 0854.41
2009/04/23 15:27:31.7     313    194    226    369    432  58.3  34.4  34226  290.68 0854.41
2009/04/23 15:27:31.8      67     23    189     71    201  70.9  78.6  34246  291.03 0854.41
2009/04/23 15:27:31.9     138    182    159    229    278  37.2  38.4  34238  290.88 0854.41
2009/04/23 15:27:32.0      10    132    159    133    207   4.4  56.1  34238  290.89 0854.41
2009/04/23 15:27:32.1     -94    201    216    223    310 334.8  49.2  34180  289.90 0854.42
2009/04/23 15:27:32.2     -66    199    239    210    318 341.5  54.2  34216  290.53 0854.42
2009/04/23 15:27:32.3     -28    210    204    212    294 352.2  49.0  34252  291.12 0854.42
2009/04/23 15:27:32.4     -74    232    114    244    269 342.2  27.1  34262  291.29 0854.42
2009/04/23 15:27:32.5     -22    284    190    285    342 355.5  36.7  34280  291.60 0854.42
2009/04/23 15:27:32.6       1    292    134    293    322   0.2  26.3  34282  291.65 0854.42
2009/04/23 15:27:32.7    -146    286    122    322    344 333.0  21.7  34220  290.60 0854.42
2009/04/23 15:27:32.8    -141    227    180    268    322 328.3  37.0  34238  290.90 0854.42
2009/04/23 15:27:32.9     177    211     94    276    292  40.1  18.9  34250  291.09 0854.42
2009/04/23 15:27:33.0     170    134     67    217    228  51.6  17.3  34248  291.08 0854.42
2009/04/23 15:27:33.1     125    120     90    174    195  46.2  29.3  34264  291.33 0854.42
2009/04/23 15:27:33.2     176    145     71    229    240  50.5  17.3  34274  291.50 0854.42
2009/04/23 15:27:33.3      12    161    121    162    202   4.5  40.4  34260  291.26 0854.42
2009/04/23 15:27:33.4       6    130    123    131    179   2.7  48.2  34282  291.66 0854.42
2009/04/23 15:27:33.5     113    220    123    248    276  27.2  28.2  34280  291.61 0854.42
2009/04/23 15:27:33.6      90    268    102    283    302  18.7  19.9  34290  291.78 0854.42
2009/04/23 15:27:33.7      34    319     87    321    333   6.2  15.3  34294  291.86 0854.42
2009/04/23 15:27:33.8     -89    244     32    260    263 339.9   7.1  34288  291.75 0854.42
2009/04/23 15:27:33.9     -94    211     86    232    247 335.9  21.3  34300  291.94 0854.42
2009/04/23 15:27:34.0      -4    254    105    255    275 359.0  23.8  34288  291.73 0854.42
2009/04/23 15:27:34.1      73    362    174    370    408  11.4  27.1  34218  290.57 0854.41
2009/04/23 15:27:34.2     193    387    237    433    493  26.6  31.3  34258  291.22 0854.41
2009/04/23 15:27:34.3     345    356    339    496    600  44.1  37.6  34256  291.21 0854.41
2009/04/23 15:27:34.4     339    181    356    385    524  61.9  47.6  34296  291.87 0854.41
2009/04/23 15:27:34.5     310    355    320    472    570  41.2  37.4  34286  291.72 0854.41
2009/04/23 15:27:34.6     269    449    204    524    562  30.9  22.4  34174  289.82 0854.41
2009/04/23 15:27:34.7     151    450    196    475    513  18.6  23.7  34172  289.79 0854.41
2009/04/23 15:27:34.8     167    437    162    468    496  21.0  19.1  34198  290.20 0854.41
2009/04/23 15:27:34.9     103    347    153    363    393  16.6  24.2  34228  290.74 0854.41
2009/04/23 15:27:35.0     166    124    201    208    289  53.1  49.0  34262  291.31 0854.41
2009/04/23 15:27:35.1     186    220     79    289    300  40.3  15.3  34228  290.73 0854.41
2009/04/23 15:27:35.2     251    170    190    304    358  55.9  35.2  34218  290.54 0854.41
2009/04/23 15:27:35.3     271    129    164    301    342  64.6  30.9  34206  290.35 0854.41
2009/04/23 15:27:35.4     152    115    131    191    231  52.9  37.6  34252  291.15 0854.41
2009/04/23 15:27:35.5      83    235     68    250    260  19.6  15.3  34258  291.22 0854.41
2009/04/23 15:27:35.6     -51    354     62    358    364 351.8   9.9  34244  291.00 0854.41
2009/04/23 15:27:35.7     -59    312     55    318    323 349.3   9.9  34240  290.93 0854.41
2009/04/23 15:27:35.8      34    279     11    282    283   7.1   2.3  34196  290.19 0854.41
2009/04/23 15:27:35.9      48    270    210    275    346  10.2  41.2  34234  290.82 0854.41
2009/04/23 15:27:36.0     172    237     92    294    309  36.0  17.4  34216  290.53 0854.41
2009/04/23 15:27:36.1     278     80    156    290    329  74.0  30.6  34214  290.49 0854.33
2009/04/23 15:27:36.2     207    112    206    236    313  61.6  45.6  34216  290.53 0854.33
2009/04/23 15:27:36.3     158    128    200    204    285  50.9  49.9  34220  290.59 0854.33
2009/04/23 15:27:36.4     211     63    202    221    299  73.2  47.1  34192  290.12 0854.33
2009/04/23 15:27:36.5     190     43    202    195    280  77.0  51.2  34200  290.24 0854.33
2009/04/23 15:27:36.6     226     27    224    228    319  83.0  49.8  34188  290.05 0854.33
2009/04/23 15:27:36.7     204     53    222    211    306  75.4  52.0  34212  290.44 0854.33
2009/04/23 15:27:36.8     144     81    183    166    247  60.5  53.3  34230  290.75 0854.33
2009/04/23 15:27:36.9     119    139    175    184    253  40.5  48.7  34218  290.56 0854.33
2009/04/23 15:27:37.0     -41    -58    167     72    181 215.2  75.5  34224  290.67 0854.33
2009/04/23 15:27:37.1      95   -161    207    188    279 149.5  53.3  34230  290.75 0854.33
2009/04/23 15:27:37.2     -22     79    182     83    200 344.0  74.0  34232  290.81 0854.33
2009/04/23 15:27:37.3     -49     59     96     77    123 320.3  56.9  34222  290.62 0854.33
2009/04/23 15:27:37.4     -15   -112    156    114    193 188.0  60.5  34248  291.08 0854.33
2009/04/23 15:27:37.5      -7    -91    114     92    146 184.5  56.4  34256  291.21 0854.33
2009/04/23 15:27:37.6     177    -82    126    196    233 114.8  35.6  34234  290.84 0854.33
2009/04/23 15:27:37.7     142    -72    128    160    204 117.1  43.0  34238  290.91 0854.33
2009/04/23 15:27:37.8      50   -166     98    174    199 163.1  31.9  34236  290.86 0854.33
2009/04/23 15:27:37.9      -1   -191    156    192    247 180.5  43.5  34260  291.28 0854.33
2009/04/23 15:27:38.0      -1   -135    158    136    208 180.8  55.0  34280  291.60 0854.33
2009/04/23 15:27:38.1     -64   -146    191    160    249 203.6  56.1  34258  291.25 0854.31
2009/04/23 15:27:38.2    -166   -129     -2    211    212 232.2  -0.7  34250  291.11 0854.31
2009/04/23 15:27:38.3     -54     34    129     65    144 302.4  71.0  34262  291.30 0854.31
2009/04/23 15:27:38.4       0    -90    184     91    205 180.4  72.1  34256  291.21 0854.31
2009/04/23 15:27:38.5     -29   -197    343    200    397 188.5  67.2  34248  291.05 0854.31
2009/04/23 15:27:38.6       8    -12    210     15    210 147.5  90.0  34250  291.09 0854.31
2009/04/23 15:27:38.7      51     36    140     63    153  54.9  74.5  34232  290.79 0854.31
2009/04/23 15:27:38.8     -24    -24    131     34    135 225.0  85.4  34248  291.06 0854.31
2009/04/23 15:27:38.9     -64     67    155     93    180 316.3  66.2  34252  291.13 0854.31
2009/04/23 15:27:39.0    -177    -78    193    194    273 246.0  50.0  34220  290.58 0854.31
2009/04/23 15:27:39.1      27   -128    254    131    285 168.0  70.8  34258  291.24 0854.31
2009/04/23 15:27:39.2     -61   -183    292    194    350 198.5  63.5  34242  290.95 0854.31
2009/04/23 15:27:39.3      47   -144    161    152    221 161.7  52.1  34216  290.52 0854.31
2009/04/23 15:27:39.4     142   -124    190    189    267 131.1  50.1  34212  290.44 0854.31
2009/04/23 15:27:39.5     183   -107    214    213    301 120.4  50.1  34208  290.37 0854.31
2009/04/23 15:27:39.6     111    -49    181    122    218 114.0  62.8  34206  290.36 0854.31
2009/04/23 15:27:39.7      85   -189    179    208    274 155.7  45.1  34218  290.54 0854.31
2009/04/23 15:27:39.8     156    -84    148    178    231 118.2  43.8  34210  290.41 0854.31
2009/04/23 15:27:39.9     193      8    173    194    259  87.6  46.4  34194  290.15 0854.31
2009/04/23 15:27:40.0     235     45    199    240    311  79.0  43.8  34206  290.34 0854.31
2009/04/23 15:27:40.1     262     54    189    268    327  78.3  38.6  34208  290.39 0854.29
2009/04/23 15:27:40.2     275     36    134    278    308  82.5  27.3  34208  290.37 0854.29
2009/04/23 15:27:40.3     300     61    214    307    374  78.5  38.4  34226  290.69 0854.29
2009/04/23 15:27:40.4     240    -17    127    241    272  94.3  30.2  34214  290.49 0854.29
2009/04/23 15:27:40.5     238    160    224    288    364  56.0  41.7  34334  292.53 0854.29
2009/04/23 15:27:40.6     334    199    181    389    429  59.2  26.9  34336  292.57 0854.29
2009/04/23 15:27:40.7     339    142    133    368    391  67.2  20.7  34328  292.44 0854.29
2009/04/23 15:27:40.8     274    186    139    332    359  55.7  24.1  34336  292.56 0854.29
2009/04/23 15:27:40.9     326    191    154    378    408  59.6  23.4  34350  292.80 0854.29
2009/04/23 15:27:41.0     194    167    162    257    303  49.3  35.5  34344  292.70 0854.29
2009/04/23 15:27:41.1     242     99    198    262    328  67.6  40.9  34356  292.89 0854.29
2009/04/23 15:27:41.2     248    180    101    307    324  54.1  18.2  34342  292.65 0854.29
2009/04/23 15:27:41.3     398     73    136    405    428  79.5  18.6  34298  291.92 0854.29
2009/04/23 15:27:41.4     386    128    201    407    453  71.6  28.2  34318  292.25 0854.29
2009/04/23 15:27:41.5     355     89    164    367    401  75.8  25.7  34308  292.08 0854.29
2009/04/23 15:27:41.6     373    227    136    437    458  58.7  17.3  34278  291.58 0854.29
2009/04/23 15:27:41.7     350    133     54    375    379  69.2   8.2  34286  291.71 0854.29
2009/04/23 15:27:41.8     288    125    130    315    340  66.5  23.6  34298  291.91 0854.29
2009/04/23 15:27:41.9     316     56    274    322    422  79.9  44.7  34314  292.20 0854.29
2009/04/23 15:27:42.0     322      8    183    323    371  88.5  32.0  34304  292.03 0854.29
2009/04/23 15:27:42.1     355     93    100    367    381  75.3  15.3  34332  292.51 0854.28
2009/04/23 15:27:42.2     302     32    167    304    346  83.9  31.3  34328  292.44 0854.28
2009/04/23 15:27:42.3     287     44    183    291    343  81.2  35.3  34310  292.11 0854.28
2009/04/23 15:27:42.4     266     54    183    272    327  78.5  37.2  34318  292.26 0854.28
2009/04/23 15:27:42.5     427     17    208    428    475  87.6  27.9  34302  291.99 0854.28
2009/04/23 15:27:42.6     485    238    112    541    553  63.9  11.8  34276  291.55 0854.28
2009/04/23 15:27:42.7     436    145    197    460    500  71.6  24.6  34322  292.34 0854.28
2009/04/23 15:27:42.8     317    150    171    351    390  64.6  28.0  34342  292.68 0854.28
2009/04/23 15:27:42.9     324    128    133    349    373  68.4  22.0  34288  291.76 0854.28
2009/04/23 15:27:43.0     263     57    197    270    334  77.6  39.8  34322  292.33 0854.28
2009/04/23 15:27:43.1     384    133     95    407    419  70.8  13.2  34250  291.09 0854.28
2009/04/23 15:27:43.2     421    133    128    442    461  72.4  16.1  34264  291.33 0854.28
2009/04/23 15:27:43.3     416     98    151    428    453  76.7  20.2  34300  291.94 0854.28
2009/04/23 15:27:43.4     428     81    159    436    464  79.3  20.9  34246  291.04 0854.28
2009/04/23 15:27:43.5     310     13     23    311    312  87.5   4.4  34254  291.16 0854.28
2009/04/23 15:27:43.6     377     66     34    383    385  80.0   5.2  34234  290.83 0854.28
2009/04/23 15:27:43.7     493     14     90    494    503  88.3  10.3  34248  291.08 0854.28
2009/04/23 15:27:43.8     420    -19     98    421    433  92.6  13.1  34244  290.99 0854.28
2009/04/23 15:27:43.9     378     76     -3    386    387  78.5  -0.5  34220  290.60 0854.28
2009/04/23 15:27:44.0     422     58      0    426    427  82.1   0.0  34196  290.19 0854.28
2009/04/23 15:27:44.1     357    128     49    380    384  70.2   7.4  34188  290.04 0854.30
2009/04/23 15:27:44.2     323    147     55    356    361  65.5   8.8  34188  290.03 0854.30
2009/04/23 15:27:44.3     352     71     72    360    368  78.6  11.3  34202  290.27 0854.30
2009/04/23 15:27:44.4     302      4     73    303    312  89.2  13.7  34230  290.76 0854.30
2009/04/23 15:27:44.5     216    -30    119    219    249  98.1  30.8  34236  290.85 0854.30
2009/04/23 15:27:44.6     214    -48    150    220    266 102.6  37.6  34230  290.75 0854.30
2009/04/23 15:27:44.7     144      6     73    145    162  87.4  28.7  34232  290.79 0854.30
2009/04/23 15:27:44.8      69   -135    127    152    198 152.9  44.3  34234  290.82 0854.30
2009/04/23 15:27:44.9     123   -149    161    194    252 140.6  43.8  34238  290.88 0854.30
2009/04/23 15:27:45.0     143   -165    141    219    260 139.0  35.6  34240  290.93 0854.30
2009/04/23 15:27:45.1     140   -153    134    208    247 137.7  35.7  34250  291.09 0854.29
2009/04/23 15:27:45.2     115    -57    124    129    178 116.6  49.0  34256  291.20 0854.29
2009/04/23 15:27:45.3      67    -96    130    118    175 145.3  53.0  34262  291.32 0854.29
2009/04/23 15:27:45.4      47    -39     84     62    104 129.5  60.5  34258  291.23 0854.29
2009/04/23 15:27:45.5      35    -64     82     74    110 151.1  53.3  34246  291.04 0854.29
2009/04/23 15:27:45.6      32      8     71     34     78  74.9  72.9  34252  291.13 0854.29
2009/04/23 15:27:45.7      15    -15     59     22     62 135.0  79.2  34260  291.28 0854.29
2009/04/23 15:27:45.8      51      0     56     52     76  90.0  52.1  34262  291.32 0854.29
2009/04/23 15:27:45.9      22    -67     71     71    100 161.7  50.1  34274  291.50 0854.29
2009/04/23 15:27:46.0      17     44     69     48     84  20.9  62.1  34282  291.64 0854.29
2009/04/23 15:27:46.1      37     34     61     51     79  47.8  55.8  34256  291.20 0854.29
2009/04/23 15:27:46.2     -52      8     18     53     57 278.8  18.9  34272  291.47 0854.29
2009/04/23 15:27:46.3       0    -39     34     40     52 180.9  44.8  34268  291.42 0854.29
2009/04/23 15:27:46.4      94    -56     48    110    120 121.1  25.1  34234  290.82 0854.29
2009/04/23 15:27:46.5      93    -66    104    115    155 125.5  46.9  34236  290.86 0854.29
2009/04/23 15:27:46.6     118    -33     24    123    126 105.9  11.0  34224  290.65 0854.29
2009/04/23 15:27:46.7     105    -41    -37    113    118 111.3 -23.8  34220  290.58 0854.29
2009/04/23 15:27:46.8     107    -47    -57    118    131 114.0 -31.7  34218  290.55 0854.29
2009/04/23 15:27:46.9      96    -24    -53    100    113 104.2 -34.2  34222  290.64 0854.29
2009/04/23 15:27:47.0      69   -100    -84    122    148 145.3 -42.0  34220  290.60 0854.29
2009/04/23 15:27:47.1      99      7    -20    100    102  85.6 -11.3  34226  290.70 0854.29
2009/04/23 15:27:47.2     110   -100    -84    149    171 132.2 -36.3  34210  290.43 0854.29
2009/04/23 15:27:47.3      69   -152   -101    168    196 155.5 -38.1  34210  290.43 0854.29
2009/04/23 15:27:47.4      76   -156    -83    174    192 153.9 -31.6  34212  290.45 0854.29
2009/04/23 15:27:47.5      26    -64     33     70     77 158.1  27.1  34216  290.53 0854.29
2009/04/23 15:27:47.6      64    -40    120     76    142 122.4  64.7  34240  290.94 0854.29
2009/04/23 15:27:47.7       7    -38    110     39    116 168.4  81.2  34268  291.42 0854.29
2009/04/23 15:27:47.8      32     33     83     47     95  44.1  67.7  34272  291.47 0854.29
2009/04/23 15:27:47.9     -15    -57    125     60    138 195.1  72.9  34272  291.49 0854.29
2009/04/23 15:27:48.0     -25   -119    128    122    176 192.0  51.6  34260  291.28 0854.29
2009/04/23 15:27:48.1     -37   -123    107    129    167 196.9  44.1  34250  291.09 0854.29
2009/04/23 15:27:48.2      -7   -142    129    143    192 183.1  47.1  34264  291.35 0854.29
2009/04/23 15:27:48.3      -7   -154    128    155    201 182.7  43.7  34266  291.38 0854.29
2009/04/23 15:27:48.4     -30   -169    115    172    206 190.2  37.0  34264  291.35 0854.29
2009/04/23 15:27:48.5       0   -181    143    182    231 180.2  42.2  34264  291.35 0854.29
2009/04/23 15:27:48.6      11   -273    170    274    322 177.5  34.9  34268  291.41 0854.29
2009/04/23 15:27:48.7      69   -190    123    203    237 160.0  34.2  34254  291.16 0854.29
2009/04/23 15:27:48.8     -15   -183    177    184    255 184.7  49.0  34308  292.09 0854.29
2009/04/23 15:27:48.9     -83   -206    170    223    280 202.1  41.4  34338  292.59 0854.29
2009/04/23 15:27:49.0     -95   -152    146    180    231 212.1  43.7  34332  292.49 0854.29
2009/04/23 15:27:49.1    -110   -112    121    158    199 224.5  41.4  34328  292.42 0854.32
2009/04/23 15:27:49.2    -117   -148    132    189    230 218.3  38.4  34334  292.54 0854.32
2009/04/23 15:27:49.3     -22   -165    155    167    227 187.6  47.9  34316  292.23 0854.32
2009/04/23 15:27:49.4     -51   -158    143    167    219 198.0  45.1  34320  292.30 0854.32
2009/04/23 15:27:49.5     -44   -157    141    164    216 195.8  45.1  34326  292.40 0854.32
2009/04/23 15:27:49.6     -40   -143    149    149    210 195.6  50.1  34334  292.54 0854.32
2009/04/23 15:27:49.7      -9   -154    148    155    214 183.6  49.0  34332  292.49 0854.32
2009/04/23 15:27:49.8     -74    -96    165    122    205 217.9  60.3  34342  292.66 0854.32
2009/04/23 15:27:49.9     -12   -110    142    111    180 186.2  58.2  34308  292.08 0854.32
2009/04/23 15:27:50.0       9   -108    133    109    171 175.1  56.4  34256  291.21 0854.32
2009/04/23 15:27:50.1     -68   -134    118    151    191 207.2  42.2  34240  290.92 0854.32
2009/04/23 15:27:50.2    -122   -141     95    187    209 220.8  29.1  34248  291.08 0854.32
2009/04/23 15:27:50.3    -115   -172     68    208    219 213.8  18.1  34234  290.84 0854.32
2009/04/23 15:27:50.4     -85   -189    113    208    236 204.3  30.8  34252  291.13 0854.32
2009/04/23 15:27:50.5     -79   -193     56    209    217 202.5  15.2  34230  290.75 0854.32
2009/04/23 15:27:50.6    -114   -195     33    227    230 210.3   8.5  34230  290.77 0854.32
2009/04/23 15:27:50.7     -85   -166     65    187    199 207.2  19.2  34232  290.81 0854.32
2009/04/23 15:27:50.8     -78   -142     63    163    174 208.9  21.7  34222  290.64 0854.32
2009/04/23 15:27:50.9     -69   -102     38    124    130 214.3  17.3  34234  290.84 0854.32
2009/04/23 15:27:51.0     -82    -60     84    102    132 233.6  43.8  34266  291.37 0854.32
2009/04/23 15:27:51.1    -153    -77    131    172    216 243.4  41.4  34302  292.00 0854.35
2009/04/23 15:27:51.2    -185    -62     35    196    200 251.4  10.1  34312  292.15 0854.35
2009/04/23 15:27:51.3     -85   -158    196    180    266 208.3  52.7  34272  291.48 0854.35
2009/04/23 15:27:51.4    -107    -74    155    131    202 235.4  55.4  34278  291.57 0854.35
2009/04/23 15:27:51.5     -33    -60    150     69    165 209.0  73.8  34282  291.64 0854.35
2009/04/23 15:27:51.6     -30    -98    158    103    188 197.4  64.4  34256  291.21 0854.35
2009/04/23 15:27:51.7       7    -35    121     36    126 168.4  82.8  34278  291.57 0854.35
2009/04/23 15:27:51.8     -56      8    108     57    122 278.8  70.4  34310  292.13 0854.35
2009/04/23 15:27:51.9     -97    -57    109    113    157 239.3  49.0  34274  291.50 0854.35
2009/04/23 15:27:52.0     -62    -62    131     89    158 225.0  62.6  34260  291.28 0854.35
2009/04/23 15:27:52.1     -79    -84    103    116    155 223.3  45.9  34288  291.74 0854.35
2009/04/23 15:27:52.2    -190     56     70    199    212 286.4  19.4  34300  291.96 0854.35
2009/04/23 15:27:52.4    -209     30     76    212    225 278.4  20.4  34310  292.13 0854.35
2009/04/23 15:27:52.4    -196     47    109    202    229 283.5  30.8  34292  291.81 0854.35
2009/04/23 15:27:52.5    -146     15    102    147    178 276.1  38.4  34262  291.30 0854.35
2009/04/23 15:27:52.7    -121     86     41    149    155 305.5  15.6  34316  292.22 0854.35
2009/04/23 15:27:52.8    -109    102     -8    150    151 313.2  -3.2  34308  292.10 0854.35
2009/04/23 15:27:52.9     -95    146    -31    175    178 327.0 -10.3  34328  292.42 0854.35
2009/04/23 15:27:53.0     -48    182    -21    189    191 345.1  -6.5  34326  292.39 0854.35
2009/04/23 15:27:53.1     -75    140     39    160    165 331.7  13.7  34310  292.12 0854.35
2009/04/23 15:27:53.2     -98     75     74    124    144 307.8  34.0  34288  291.76 0854.36
2009/04/23 15:27:53.3      40     44     79     60     99  42.3  59.4  34306  292.06 0854.36
2009/04/23 15:27:53.4      82     54    -19     99    101  56.7 -10.9  34324  292.37 0854.36
2009/04/23 15:27:53.5      59     38     44     71     83  56.7  34.4  34316  292.23 0854.36
2009/04/23 15:27:53.6     -19    -26     62     33     70 216.1  69.8  34314  292.18 0854.36
2009/04/23 15:27:53.7     -14     17     67     23     70 320.4  81.2  34310  292.12 0854.36
2009/04/23 15:27:53.8     -20     14    108     25    110 306.0  88.0  34314  292.20 0854.36
2009/04/23 15:27:53.9       3     34     76     35     83   6.2  74.0  34310  292.12 0854.36
2009/04/23 15:27:54.0      22     40     57     46     73  29.0  56.4  34306  292.05 0854.36
2009/04/23 15:27:54.1     -58     20      7     62     63 289.1   7.1  34310  292.13 0854.36
2009/04/23 15:27:54.2     -23      0      0     24     25 270.0  -2.2  34306  292.05 0854.36
2009/04/23 15:27:54.3      33     -2      4     34     35  94.4   6.9  34298  291.93 0854.36
2009/04/23 15:27:54.4      64     30      3     71     72  64.7   2.9  34296  291.89 0854.36
2009/04/23 15:27:54.5     108     35     -1    114    115  71.8  -0.7  34330  292.46 0854.36
2009/04/23 15:27:54.6      74     29     39     80     89  68.7  27.3  34334  292.52 0854.36
2009/04/23 15:27:54.7      99     14     86    101    132  81.6  44.8  34308  292.10 0854.36
2009/04/23 15:27:54.8      78     -5    110     79    135  94.3  61.1  34258  291.25 0854.36
2009/04/23 15:27:54.9     116     23    106    119    159  78.5  46.6  34256  291.21 0854.36
2009/04/23 15:27:55.0      88     20    112     91    144  76.7  56.4  34260  291.28 0854.36
2009/04/23 15:27:55.1      97      2     20     98    101  88.3  11.6  34280  291.62 0854.32
2009/04/23 15:27:55.2      75      0     51     76     91  90.0  37.0  34272  291.49 0854.32
2009/04/23 15:27:55.3      26      0     54     27     60  90.0  71.9  34280  291.62 0854.32
2009/04/23 15:27:55.4      46     34     19     58     62  53.1  18.4  34292  291.81 0854.32
2009/04/23 15:27:55.5      36     51     22     63     67  35.2  19.2  34270  291.45 0854.32
2009/04/23 15:27:55.6       3      0     45      4     45  90.0  90.0  34284  291.67 0854.32
2009/04/23 15:27:55.7       8      0     57      9     57  94.4  90.0  34284  291.69 0854.32
2009/04/23 15:27:55.8     -43     64     66     78    102 325.7  44.8  34304  292.01 0854.32
2009/04/23 15:27:55.9     -90     75    108    118    159 309.6  47.5  34324  292.37 0854.32
2009/04/23 15:27:56.0    -129    106     58    168    178 309.5  19.2  34320  292.29 0854.32
2009/04/23 15:27:56.1    -108     73    102    131    166 304.2  42.0  34356  292.92 0854.32
2009/04/23 15:27:56.2    -147     54    152    157    218 290.4  49.2  34336  292.58 0854.32
2009/04/23 15:27:56.3     -83     -8     75     84    112 263.9  46.9  34298  291.91 0854.32
2009/04/23 15:27:56.4     -31    -49     74     59     94 212.6  57.5  34232  290.81 0854.32
2009/04/23 15:27:56.5      59     16     90     62    109  74.9  62.1  34258  291.23 0854.32
2009/04/23 15:27:56.6     153     -8    151    154    215  93.0  49.8  34230  290.77 0854.32
2009/04/23 15:27:56.7      31     27     90     42     99  49.6  73.1  34254  291.16 0854.32
2009/04/23 15:27:56.8     -21    -11     68     24     72 241.1  81.2  34274  291.50 0854.32
2009/04/23 15:27:56.9     -13    -14     81     20     83 223.2  86.4  34298  291.93 0854.32
2009/04/23 15:27:57.0     -50      0     46     51     68 269.2  47.9  34296  291.89 0854.32
2009/04/23 15:27:57.1     -37     58     37     70     79 327.4  30.3  34282  291.64 0854.34
2009/04/23 15:27:57.2      15     58     80     61    100  15.1  59.0  34286  291.72 0854.34
2009/04/23 15:27:57.3      40     38     82     56     99  45.9  62.1  34298  291.93 0854.34
2009/04/23 15:27:57.4      11     55     66     57     87  11.6  54.3  34308  292.10 0854.34
2009/04/23 15:27:57.5      -1     24     68     25     72 357.3  80.2  34344  292.71 0854.34
2009/04/23 15:27:57.6       0      2     57      3     57  18.5  90.0  34354  292.86 0854.34
2009/04/23 15:27:57.7      13     -8     47     16     49 122.4  81.0  34346  292.75 0854.34
2009/04/23 15:27:57.8      52      4     48     53     71  85.7  47.9  34322  292.34 0854.34
2009/04/23 15:27:57.9      77     15     50     79     93  78.5  35.5  34288  291.74 0854.34
2009/04/23 15:27:58.0      61     20     47     65     80  71.4  39.7  34272  291.49 0854.34
2009/04/23 15:27:58.1      75     25     36     80     87  71.4  25.7  34270  291.45 0854.34
2009/04/23 15:27:58.2      59     23     44     64     77  68.3  37.6  34278  291.57 0854.34
2009/04/23 15:27:58.3      75     22     19     79     82  73.2  13.7  34272  291.49 0854.34
2009/04/23 15:27:58.4      40    -10      1     42     43 105.1   1.8  34298  291.91 0854.34
2009/04/23 15:27:58.5     135     21     55    137    147  80.8  23.0  34286  291.71 0854.34
2009/04/23 15:27:58.6     157     10     69    158    172  86.1  25.1  34310  292.13 0854.34
2009/04/23 15:27:58.7     194     75     58    209    218  68.7  15.6  34346  292.75 0854.34
2009/04/23 15:27:58.8     180     60     90    190    210  71.6  27.2  34336  292.56 0854.34
2009/04/23 15:27:58.9     216     84    109    232    256  68.7  27.1  34332  292.50 0854.34
2009/04/23 15:27:59.0     288     67     37    296    299  76.8   7.2  34302  291.97 0854.34
2009/04/23 15:27:59.1     265     99     14    284    285  69.4   2.9  34288  291.75 0854.34
2009/04/23 15:27:59.2     267     92     32    283    285  70.9   6.5  34286  291.72 0854.34
2009/04/23 15:27:59.3     316    140     45    346    349  66.0   7.4  34288  291.76 0854.34
2009/04/23 15:27:59.4     196    105    108    223    247  61.8  27.4  34312  292.16 0854.34
2009/04/23 15:27:59.5     284     79    102    295    313  74.3  19.2  34304  292.01 0854.34
2009/04/23 15:27:59.6     342     96    110    356    373  74.2  17.3  34322  292.32 0854.34
2009/04/23 15:27:59.7     264     81    101    277    294  72.9  21.0  34302  291.99 0854.34
2009/04/23 15:27:59.8     289     83     24    301    302  74.0   4.6  34270  291.43 0854.34
2009/04/23 15:27:59.9     213     40     30    217    220  79.2   8.0  34318  292.27 0854.34
2009/04/23 15:28:00.0     218    -49     80    224    237 102.8  20.4  34342  292.65 0854.34
2009/04/23 15:28:00.1     236      5    151    237    281  88.7  35.6  34314  292.18 0854.34
2009/04/23 15:28:00.2     165     43    151    171    228  75.4  45.9  34262  291.32 0854.34
2009/04/23 15:28:00.3     166   -105     79    197    212 122.4  23.0  34324  292.37 0854.34
2009/04/23 15:28:00.4     200    -56     36    208    212 105.9   9.9  34344  292.71 0854.34
2009/04/23 15:28:00.5     207     60    -33    216    219  73.6  -8.8  34292  291.83 0854.34
2009/04/23 15:28:00.6     155    -48     -6    163    164 107.3  -2.1  34296  291.88 0854.34
2009/04/23 15:28:00.7     166     67     68    180    192  68.0  21.5  34262  291.30 0854.34
2009/04/23 15:28:00.8     136    -54    109    147    183 111.8  40.1  34298  291.93 0854.34
2009/04/23 15:28:00.9     136    -75     64    156    168 118.8  23.6  34306  292.06 0854.34
2009/04/23 15:28:01.0     190    -73     94    204    224 111.1  27.0  34308  292.08 0854.34
2009/04/23 15:28:01.1     178   -138    118    226    254 127.8  29.8  34304  292.01 0854.32
2009/04/23 15:28:01.2     175    -35    155    179    236 101.4  45.6  34278  291.59 0854.32
2009/04/23 15:28:01.3     184     16     -3    185    186  85.0  -1.1  34270  291.45 0854.32
2009/04/23 15:28:01.4     294     50    -95    299    313  80.3 -22.8  34270  291.44 0854.32
2009/04/23 15:28:01.5      66      5   -103     67    122  85.6 -69.0  34274  291.52 0854.32
2009/04/23 15:28:01.6     120    201    -66    235    245  30.8 -15.8  34276  291.53 0854.32
2009/04/23 15:28:01.7      41    216     22    221    223  10.9   5.9  34278  291.59 0854.32
2009/04/23 15:28:01.8      97    202     93    225    243  25.6  23.6  34256  291.21 0854.32
2009/04/23 15:28:01.9     192    263    118    326    346  36.1  20.6  34252  291.13 0854.32
2009/04/23 15:28:02.0      85    335     99    346    361  14.3  16.0  34270  291.45 0854.32
2009/04/23 15:28:02.1     206    402     22    452    453  27.2   2.8  34276  291.53 0854.32
2009/04/23 15:28:02.2     169    367     67    405    411  24.7   9.5  34296  291.87 0854.32
2009/04/23 15:28:02.3     253    404     24    477    478  32.1   2.9  34312  292.17 0854.32
2009/04/23 15:28:02.4     251    233    -18    343    344  47.2  -3.1  34314  292.19 0854.32
2009/04/23 15:28:02.5     152    323    126    358    379  25.2  20.1  34352  292.83 0854.32
2009/04/23 15:28:02.6     197    288     52    350    354  34.4   8.5  34354  292.88 0854.32
2009/04/23 15:28:02.7      91    304     96    318    333  16.7  16.8  34344  292.70 0854.32
2009/04/23 15:28:02.8     249    217    176    331    374  48.9  30.3  34356  292.92 0854.32
2009/04/23 15:28:02.9     215    291    274    363    454  36.5  40.7  34396  293.59 0854.32
2009/04/23 15:28:03.0     238    375    107    445    458  32.4  13.5  34376  293.24 0854.32
2009/04/23 15:28:03.1     188    396     45    439    442  25.5   5.9  34292  291.82 0854.31
2009/04/23 15:28:03.2     128    474     75    492    498  15.2   8.7  34288  291.76 0854.31
2009/04/23 15:28:03.3     163    461     37    490    492  19.5   4.4  34262  291.30 0854.31
2009/04/23 15:28:03.4      87    469     95    478    488  10.6  11.3  34270  291.44 0854.31
2009/04/23 15:28:03.5     306    268      0    407    408  48.8   0.0  34326  292.38 0854.31
2009/04/23 15:28:03.6     140    193     68    239    249  36.1  16.0  34350  292.81 0854.31
2009/04/23 15:28:03.7       3    358    220    359    421   0.6  34.4  34348  292.78 0854.31
2009/04/23 15:28:03.8     344    355    276    495    566  44.1  31.5  34370  293.15 0854.31
2009/04/23 15:28:03.9     366    247    225    442    495  55.9  29.2  34312  292.14 0854.31
2009/04/23 15:28:04.0     202    445    314    489    581  24.5  35.6  34282  291.65 0854.31
2009/04/23 15:28:04.1     235    369    139    438    460  32.5  17.7  34280  291.62 0854.31
2009/04/23 15:28:04.2     443    258    161    513    538  59.8  17.5  34252  291.14 0854.31
2009/04/23 15:28:04.3     545    258     -2    604    605  64.6  -0.3  34228  290.73 0854.31
2009/04/23 15:28:04.4     868    295    116    918    926  71.2   7.2  34160  289.58 0854.31
2009/04/23 15:28:04.5     845    436    171    951    967  62.7  10.2  34168  289.72 0854.31
2009/04/23 15:28:04.6     789    307   -103    847    854  68.7  -7.0  34240  290.92 0854.31
2009/04/23 15:28:04.7     774    258     -5    817    818  71.5  -0.4  34250  291.10 0854.31
2009/04/23 15:28:04.8     663    314     91    734    740  64.6   7.1  34220  290.60 0854.31
2009/04/23 15:28:04.9     743    385    132    837    848  62.6   9.0  34126  288.99 0854.31
2009/04/23 15:28:05.0     694    364    283    784    834  62.3  19.9  34116  288.82 0854.31
2009/04/23 15:28:05.1     671    378    370    771    855  60.6  27.3  34194  290.14 0854.33
2009/04/23 15:28:05.2     608    136    264    624    677  77.3  24.4  34208  290.39 0854.33
2009/04/23 15:28:05.3     683    141    294    698    757  78.3  24.3  34164  289.65 0854.33
2009/04/23 15:28:05.4     590     79    301    596    667  82.3  28.9  34214  290.48 0854.33
2009/04/23 15:28:05.5     746    214    145    777    791  74.0  10.6  34186  290.02 0854.33
2009/04/23 15:28:05.6     701    233    110    739    748  71.6   8.5  34144  289.29 0854.33
2009/04/23 15:28:05.7     679    350     77    764    768  62.7   5.8  34148  289.36 0854.33
2009/04/23 15:28:05.8     668    338    108    749    757  63.2   8.2  34156  289.50 0854.33
2009/04/23 15:28:05.9     575    342     73    670    675  59.3   6.2  34130  289.07 0854.33
2009/04/23 15:28:06.0     584    423    113    722    731  54.1   8.9  34166  289.69 0854.33
2009/04/23 15:28:06.1     747    287    142    801    814  68.9  10.1  34180  289.92 0854.34
2009/04/23 15:28:06.2     674    343    221    757    789  63.0  16.3  34198  290.22 0854.34
2009/04/23 15:28:06.3     457    320    202    558    593  55.0  20.9  34220  290.58 0854.34
2009/04/23 15:28:06.4     584    394     97    705    712  56.0   7.9  34260  291.27 0854.34
2009/04/23 15:28:06.5     131    488    196    506    542  15.1  22.4  34294  291.86 0854.34
2009/04/23 15:28:06.6     341    280     -8    442    443  50.7  -1.1  34256  291.21 0854.34
2009/04/23 15:28:06.7     116    361    161    380    412  17.9  24.2  34310  292.12 0854.34
2009/04/23 15:28:06.8     252    221     50    336    340  48.8   8.5  34270  291.45 0854.34
2009/04/23 15:28:06.9     323    289    274    434    513  48.2  35.3  34292  291.80 0854.34
2009/04/23 15:28:07.0     423    166    119    455    471  68.5  14.7  34286  291.70 0854.34
2009/04/23 15:28:07.1     536    254    255    594    646  64.6  24.6  34298  291.90 0854.34
2009/04/23 15:28:07.2     458    217    353    507    617  64.6  38.4  34310  292.12 0854.34
2009/04/23 15:28:07.3     724    264    259    771    814  70.0  18.6  34316  292.21 0854.34
2009/04/23 15:28:07.4     703    337    329    780    846  64.4  24.2  34316  292.22 0854.34
2009/04/23 15:28:07.5     588    227    206    631    664  68.8  18.1  34260  291.28 0854.34
2009/04/23 15:28:07.6     569    321     12    654    655  60.6   1.1  34228  290.71 0854.34
2009/04/23 15:28:07.7     532    377   -113    653    663  54.7  -9.9  34242  290.97 0854.34
2009/04/23 15:28:07.8     602    303   -125    675    687  63.3 -10.5  34278  291.57 0854.34
2009/04/23 15:28:07.9     738    343     19    814    815  65.1   1.4  34226  290.70 0854.34
2009/04/23 15:28:08.0     686    116    203    696    726  80.4  16.3  34258  291.25 0854.34
2009/04/23 15:28:08.1     709    -11     70    710    714  90.9   5.7  34248  291.08 0854.36
2009/04/23 15:28:08.2     532   -235     -2    582    583 113.9  -0.3  34282  291.65 0854.36
2009/04/23 15:28:08.3     653   -315    -79    725    730 115.8  -6.3  34278  291.56 0854.36
2009/04/23 15:28:08.4     665   -160    -13    685    686 103.6  -1.2  34236  290.85 0854.36
2009/04/23 15:28:08.5     761    -91    414    767    871  96.9  30.7  34244  290.99 0854.36
2009/04/23 15:28:08.6     484   -319    361    580    683 123.4  34.9  34244  290.99 0854.36
2009/04/23 15:28:08.7     574    -66    367    578    684  96.6  35.5  34204  290.33 0854.36
2009/04/23 15:28:08.8     487     80    106    494    506  80.7  12.2  34216  290.51 0854.36
2009/04/23 15:28:08.9     698    107     28    707    708  81.3   2.3  34212  290.47 0854.36
2009/04/23 15:28:09.0     331    332    266    470    540  44.9  32.0  34198  290.22 0854.36
2009/04/23 15:28:09.1      74    560    225    565    608   7.6  23.0  34206  290.36 0854.36
2009/04/23 15:28:09.2     178    355     -7    398    399  26.7  -1.1  34198  290.21 0854.36
2009/04/23 15:28:09.3     302    339    -87    455    464  41.7 -10.8  34190  290.09 0854.36
2009/04/23 15:28:09.4     502    247    -81    560    566  63.8  -8.3  34188  290.04 0854.36
2009/04/23 15:28:09.5     494    131     91    512    521  75.1  10.1  34202  290.27 0854.36
2009/04/23 15:28:09.6      57    230    230    238    330  14.0  49.1  34198  290.22 0854.36
2009/04/23 15:28:09.7      54    159     58    169    179  18.9  19.2  34196  290.19 0854.36
2009/04/23 15:28:09.8      51    142     85    152    174  20.0  31.9  34198  290.21 0854.36
2009/04/23 15:28:09.9     -94    125     59    157    167 323.0  21.5  34198  290.23 0854.36
2009/04/23 15:28:10.0     -13    116     92    117    148 353.3  42.2  34202  290.30 0854.36
2009/04/23 15:28:10.1      55    129    141    141    199  23.2  50.1  34194  290.16 0854.39
2009/04/23 15:28:10.2      55    133    105    145    179  22.7  39.7  34192  290.13 0854.39
2009/04/23 15:28:10.3      95    158     92    185    206  31.2  28.2  34194  290.16 0854.39
2009/04/23 15:28:10.4      56    277     61    283    290  11.6  12.2  34230  290.76 0854.39
2009/04/23 15:28:10.5      10    205     47    206    212   2.9  12.9  34262  291.32 0854.39
2009/04/23 15:28:10.6      96    242     71    261    271  21.8  15.2  34272  291.46 0854.39
2009/04/23 15:28:10.7      18    135     -5    137    138   7.6  -2.2  34278  291.57 0854.39
2009/04/23 15:28:10.8      38     53     64     66     91  36.0  50.0  34260  291.26 0854.39
2009/04/23 15:28:10.9     -30   -150      7    154    155 191.6   2.8  34224  290.67 0854.39
2009/04/23 15:28:11.0       0   -247    -31    248    251 180.0  -7.3  34146  289.32 0854.39
2009/04/23 15:28:11.1      76   -299      6    309    310 165.7   1.2  34148  289.36 0854.39
2009/04/23 15:28:11.2     114   -284     38    307    310 158.2   7.1  34152  289.42 0854.39
2009/04/23 15:28:11.3      55   -199    138    207    248 164.4  36.7  34184  289.97 0854.39
2009/04/23 15:28:11.4      89   -179    117    201    232 153.5  33.1  34198  290.23 0854.39
2009/04/23 15:28:11.5      -1     31    171     32    173 357.3  90.0  34224  290.67 0854.39
2009/04/23 15:28:11.6     -58     17    161     61    172 286.8  78.6  34244  290.99 0854.39
2009/04/23 15:28:11.7     -46     38    164     60    174 309.6  79.7  34250  291.11 0854.39
2009/04/23 15:28:11.8     -76     19    162     79    180 284.2  72.4  34254  291.18 0854.39
2009/04/23 15:28:11.9     -68     41    114     80    139 301.5  61.1  34252  291.15 0854.39
2009/04/23 15:28:12.0     -96    -27     81    100    128 254.1  43.7  34244  290.99 0854.39
2009/04/23 15:28:12.1    -197    134     83    239    254 304.2  19.2  34236  290.85 0854.43
2009/04/23 15:28:12.2    -113    -52    124    125    176 245.2  50.5  34262  291.30 0854.43
2009/04/23 15:28:12.3    -137   -142    169    198    260 223.9  44.8  34288  291.73 0854.43
2009/04/23 15:28:12.4     -65   -127    192    143    239 207.1  59.6  34282  291.66 0854.43
2009/04/23 15:28:12.5    -118   -188    194    223    295 212.1  45.8  34282  291.63 0854.43
2009/04/23 15:28:12.6     -68   -225    180    236    296 196.9  41.2  34282  291.63 0854.43
2009/04/23 15:28:12.7     -89   -185    181    206    274 205.6  45.8  34284  291.67 0854.43
2009/04/23 15:28:12.8     -77   -123    221    146    264 212.1  63.6  34286  291.72 0854.43
2009/04/23 15:28:12.9      -3    -38    202     39    205 184.5  89.6  34252  291.15 0854.43
2009/04/23 15:28:13.0     -16    -47    148     50    156 199.2  81.2  34224  290.67 0854.43
2009/04/23 15:28:13.1     -21     67    160     71    175 342.2  74.5  34230  290.75 0854.43
2009/04/23 15:28:13.2      17    221    229    222    318   4.5  50.9  34212  290.46 0854.43
2009/04/23 15:28:13.3      24    239    123    241    270   5.8  29.2  34198  290.20 0854.43
2009/04/23 15:28:13.4      81    184    166    202    261  23.8  43.7  34210  290.41 0854.43
2009/04/23 15:28:13.5     185    106    247    214    326  60.2  54.8  34196  290.17 0854.43
2009/04/23 15:28:13.6     162    161    186    229    295  45.3  43.5  34194  290.15 0854.43
2009/04/23 15:28:13.7     139    147    181    203    271  43.3  46.6  34198  290.22 0854.43
2009/04/23 15:28:13.8     134    207    148    248    288  33.0  33.5  34214  290.49 0854.43
2009/04/23 15:28:13.9     -27    353     69    354    361 355.6  11.1  34294  291.85 0854.43
2009/04/23 15:28:14.0      26    342    132    344    368   4.5  22.0  34324  292.36 0854.43
2009/04/23 15:28:14.1       4    285    151    286    323   0.9  30.0  34312  292.14 0854.47
2009/04/23 15:28:14.2      40    288    127    291    317   8.0  25.0  34332  292.50 0854.47
2009/04/23 15:28:14.3     213    311    151    378    407  34.4  23.0  34312  292.15 0854.47
2009/04/23 15:28:14.4     253    333     57    419    423  37.2   7.8  34288  291.74 0854.47
2009/04/23 15:28:14.5     123    214     83    248    262  29.9  18.6  34296  291.89 0854.47
2009/04/23 15:28:14.6     141    214     42    257    261  33.4   9.3  34300  291.94 0854.47
2009/04/23 15:28:14.7     135    283    154    314    349  25.5  27.9  34318  292.24 0854.47
2009/04/23 15:28:14.8     284    230    100    366    380  50.9  15.3  34346  292.73 0854.47
2009/04/23 15:28:14.9     327    258   -111    417    432  51.7 -15.0  34296  291.89 0854.47
2009/04/23 15:28:15.0     237     25      8    239    240  83.9   2.1  34306  292.04 0854.47
2009/04/23 15:28:15.1     227     32     92    230    247  82.0  23.0  34346  292.74 0854.47
2009/04/23 15:28:15.2     283    154    169    323    364  61.5  29.8  34292  291.83 0854.47
2009/04/23 15:28:15.3     334    287    137    441    462  49.3  17.3  34210  290.41 0854.47
2009/04/23 15:28:15.4     333    149     95    365    378  65.9  14.6  34218  290.54 0854.47
2009/04/23 15:28:15.5     277    169     13    325    326  58.6   2.3  34236  290.85 0854.47
2009/04/23 15:28:15.6     439    174    -61    473    477  68.3  -7.4  34262  291.29 0854.47
2009/04/23 15:28:15.7     529    255     36    588    590  64.3   3.5  34268  291.41 0854.47
2009/04/23 15:28:15.8     645    310    216    716    748  64.3  16.8  34274  291.52 0854.47
2009/04/23 15:28:15.9     653    307    207    722    752  64.8  16.0  34284  291.69 0854.47
2009/04/23 15:28:16.0     662    246    269    707    756  69.6  22.0  34272  291.48 0854.47
2009/04/23 15:28:16.1     731    220    226    764    797  73.2  16.5  34270  291.44 0854.52
2009/04/23 15:28:16.2     706    209    103    737    745  73.5   8.0  34218  290.55 0854.52
2009/04/23 15:28:16.3     720    197    190    747    771  74.7  14.3  34256  291.21 0854.52
2009/04/23 15:28:16.4     738    176    172    759    779  76.6  12.8  34280  291.61 0854.52
2009/04/23 15:28:16.5     698    166    167    718    738  76.6  13.1  34262  291.29 0854.52
2009/04/23 15:28:16.6     549     52     73    552    557  84.6   7.6  34266  291.38 0854.52
2009/04/23 15:28:16.7     369    117    105    388    402  72.3  15.1  34258  291.23 0854.52
2009/04/23 15:28:16.8     294    121    168    318    359  67.6  30.2  34278  291.59 0854.52
2009/04/23 15:28:16.9     526     27     93    527    536  87.0  10.0  34266  291.37 0854.52
2009/04/23 15:28:17.0     246    168     -6    299    300  55.6  -1.2  34254  291.17 0854.52
2009/04/23 15:28:17.1     135    188     94    232    250  35.8  23.4  34218  290.54 0854.52
2009/04/23 15:28:17.2     242     96     41    261    265  68.3   9.0  34250  291.09 0854.52
2009/04/23 15:28:17.3     261    210     97    336    350  51.1  16.1  34248  291.06 0854.52
2009/04/23 15:28:17.4     300    159     49    340    344  62.0   8.2  34254  291.18 0854.52
2009/04/23 15:28:17.5     324    125     60    348    354  68.8   9.9  34294  291.86 0854.52
2009/04/23 15:28:17.6     384    107     68    399    405  74.4   9.7  34270  291.43 0854.52
2009/04/23 15:28:17.7     362     91    142    374    400  75.8  21.7  34296  291.88 0854.52
2009/04/23 15:28:17.8     411     37    176    413    448  84.8  24.5  34302  291.98 0854.52
2009/04/23 15:28:17.9     371     56    173    376    413  81.4  26.4  34264  291.35 0854.52
2009/04/23 15:28:18.0     252    113    157    277    318  65.8  32.1  34248  291.05 0854.52
2009/04/23 15:28:18.1     384     78    146    392    418  78.5  21.4  34244  291.01 0854.51
2009/04/23 15:28:18.2     341    117    180    361    403  70.9  28.4  34224  290.67 0854.51
2009/04/23 15:28:18.3     291     65    180    299    349  77.4  34.1  34250  291.10 0854.51
2009/04/23 15:28:18.4     228     74    164    240    290  71.8  37.6  34212  290.46 0854.51
2009/04/23 15:28:18.5     185     82    206    203    289  66.0  50.2  34242  290.95 0854.51
2009/04/23 15:28:18.6     152     62    210    165    267  67.8  57.9  34280  291.61 0854.51
2009/04/23 15:28:18.7      42      3    145     43    151  85.6  82.8  34288  291.76 0854.51
2009/04/23 15:28:18.8     143     37    196    148    245  75.4  59.2  34306  292.06 0854.51
2009/04/23 15:28:19.0      90    -37    162     98    189 112.6  66.0  34304  292.03 0854.51
2009/04/23 15:28:19.1      24    -12     99     28    102 117.1  84.4  34302  292.00 0854.51
2009/04/23 15:28:19.2      95    -31    140    101    172 108.2  61.1  34292  291.83 0854.51
2009/04/23 15:28:19.3      21     -7    131     23    133 108.4  90.0  34304  292.01 0854.51
2009/04/23 15:28:19.4     -17    125     93    127    157 352.0  39.9  34282  291.64 0854.51
2009/04/23 15:28:19.5       1     70    107     71    128   0.9  63.6  34286  291.71 0854.51
2009/04/23 15:28:19.6    -103    143    116    177    211 324.4  36.0  34280  291.60 0854.51
2009/04/23 15:28:19.7    -153     95     38    181    186 302.0  12.0  34278  291.59 0854.51
2009/04/23 15:28:19.8    -182     70     59    196    205 291.1  16.8  34272  291.47 0854.51
2009/04/23 15:28:19.9     -35    105    110    111    156 341.3  50.0  34250  291.09 0854.51
2009/04/23 15:28:20.0    -154   -120    198    196    278 232.0  50.1  34268  291.41 0854.51
2009/04/23 15:28:20.1    -155   -289    156    329    364 208.3  27.2  34264  291.34 0854.51
2009/04/23 15:28:20.2    -100   -226    118    248    274 203.8  27.3  34280  291.61 0854.52
2009/04/23 15:28:20.3     -23   -219    206    221    302 186.2  47.9  34268  291.41 0854.52
2009/04/23 15:28:20.4     -11   -144    139    145    200 184.5  49.0  34268  291.40 0854.52
2009/04/23 15:28:20.5     -41   -110    203    118    234 200.5  67.2  34288  291.74 0854.52
2009/04/23 15:28:20.6     -91   -246    208    263    335 200.5  42.4  34300  291.94 0854.52
2009/04/23 15:28:20.7    -182   -328    211    376    431 209.1  31.6  34286  291.72 0854.52
2009/04/23 15:28:20.8     -86   -330    103    342    358 194.6  16.8  34288  291.76 0854.52
2009/04/23 15:28:20.9     -31   -352    -17    354    355 185.1  -2.8  34284  291.69 0854.52
2009/04/23 15:28:21.0     -28   -380     32    381    383 184.2   4.9  34270  291.45 0854.52
2009/04/23 15:28:21.1     -82   -306     46    317    321 195.1   8.3  34274  291.50 0854.52
2009/04/23 15:28:21.2     -59   -522     95    526    535 186.5  10.3  34250  291.11 0854.52
2009/04/23 15:28:21.3    -153   -400     13    429    430 201.0   1.8  34266  291.38 0854.52
2009/04/23 15:28:21.4     -44   -343     -6    346    347 187.4  -1.1  34250  291.11 0854.52
2009/04/23 15:28:21.5     -43   -309     15    313    314 188.0   2.8  34248  291.07 0854.52
2009/04/23 15:28:21.6     -95   -275     92    292    307 199.2  17.5  34254  291.16 0854.52
2009/04/23 15:28:21.7    -168   -263     13    313    314 212.5   2.5  34280  291.60 0854.52
2009/04/23 15:28:21.8    -119   -239     36    268    271 206.5   7.8  34282  291.63 0854.52
2009/04/23 15:28:21.9     -93   -207     11    228    229 204.3   2.8  34278  291.59 0854.52
2009/04/23 15:28:22.0    -103   -144     -5    178    179 215.6  -1.8  34272  291.47 0854.52
2009/04/23 15:28:22.1    -110   -138     -9    177    178 218.7  -3.1  34254  291.18 0854.50
2009/04/23 15:28:22.2    -102   -123    -14    161    162 219.6  -5.2  34248  291.08 0854.50
2009/04/23 15:28:22.3     -91   -129    -24    158    160 215.2  -8.8  34252  291.13 0854.50
2009/04/23 15:28:22.4     -29   -180      5    183    184 189.3   1.8  34232  290.81 0854.50
2009/04/23 15:28:22.5      -7   -254     40    255    259 181.8   9.0  34188  290.05 0854.50
2009/04/23 15:28:22.6     -22   -220     60    222    231 185.8  15.2  34182  289.94 0854.50
2009/04/23 15:28:22.7      17   -231     58    232    240 175.6  14.2  34212  290.44 0854.50
2009/04/23 15:28:22.8     115   -287     38    310    313 158.2   7.1  34230  290.75 0854.50
2009/04/23 15:28:22.9      74   -241    129    253    283 162.8  29.2  34230  290.75 0854.50
2009/04/23 15:28:23.0      98   -134     62    167    178 143.9  21.3  34230  290.77 0854.50
2009/04/23 15:28:23.1      47     -8    101     48    111 100.6  72.9  34240  290.94 0854.50
2009/04/23 15:28:23.2       0     64     79     65    102   0.0  56.3  34254  291.16 0854.50
2009/04/23 15:28:23.3     -31     27    106     42    114 311.3  77.6  34260  291.26 0854.50
2009/04/23 15:28:23.4      -4     59     81     60    100 355.6  60.0  34248  291.06 0854.50
2009/04/23 15:28:23.5      37    -17     81     41     90 115.3  71.4  34238  290.89 0854.50
2009/04/23 15:28:23.6     105   -110     20    153    155 136.3   7.5  34202  290.28 0854.50
2009/04/23 15:28:23.7     114   -101      3    153    154 131.4   1.2  34210  290.43 0854.50
2009/04/23 15:28:23.8      98    -87      7    132    133 131.4   3.3  34206  290.35 0854.50
2009/04/23 15:28:23.9      78   -158    -23    177    179 153.5  -7.7  34206  290.36 0854.50
2009/04/23 15:28:24.0      11   -173   -118    174    210 176.2 -41.8  34206  290.36 0854.50
2009/04/23 15:28:24.1     115   -246    -52    272    278 154.8 -10.9  34216  290.51 0854.44
2009/04/23 15:28:24.2     138   -270   -121    304    327 152.8 -27.2  34194  290.14 0854.44
2009/04/23 15:28:24.3     263   -167     76    312    322 122.4  13.8  34192  290.12 0854.44
2009/04/23 15:28:24.4     295    -83    189    307    360 105.7  34.8  34214  290.49 0854.44
2009/04/23 15:28:24.5      74    -82    164    111    198 137.7  62.7  34252  291.15 0854.44
2009/04/23 15:28:24.6       4     20    166     21    167  13.4  90.0  34256  291.20 0854.44
2009/04/23 15:28:24.7       7     37    162     38    166  11.6  87.3  34250  291.09 0854.44
2009/04/23 15:28:24.8       2     25    181     26    182   6.2  90.0  34262  291.30 0854.44
2009/04/23 15:28:24.9     -66    -62    176     91    198 226.9  70.8  34238  290.89 0854.44
2009/04/23 15:28:25.0    -209    -83    117    225    253 248.3  29.5  34218  290.54 0854.44
2009/04/23 15:28:25.1    -293   -106    -12    312    313 250.1  -2.2  34224  290.65 0854.44
2009/04/23 15:28:25.2    -203   -179     42    271    275 228.6   8.8  34214  290.48 0854.44
2009/04/23 15:28:25.3    -278   -178    -91    331    343 237.4 -20.0  34204  290.32 0854.44
2009/04/23 15:28:25.4    -166    -81   -223    185    289 243.8 -60.7  34220  290.59 0854.44
2009/04/23 15:28:25.5      58     23    -86     63    106  68.3 -64.9  34220  290.58 0854.44
2009/04/23 15:28:25.6      -5    -10    191     12    191 209.0  90.0  34202  290.28 0854.44
2009/04/23 15:28:25.7     -11   -251    293    252    386 182.6  55.0  34228  290.71 0854.44
2009/04/23 15:28:25.8    -242   -309    241    393    461 218.1  34.4  34288  291.75 0854.44
2009/04/23 15:28:25.9    -311   -363    246    479    538 220.6  29.3  34276  291.54 0854.44
2009/04/23 15:28:26.0    -249   -377    151    453    478 213.5  18.5  34218  290.57 0854.44
2009/04/23 15:28:26.1    -200   -406    154    453    479 206.3  18.8  34258  291.24 0854.43
2009/04/23 15:28:26.2    -177   -414    254    451    517 203.2  32.0  34248  291.08 0854.43
2009/04/23 15:28:26.3    -207   -436    222    483    531 205.5  26.5  34214  290.49 0854.43
2009/04/23 15:28:26.4    -220   -525    166    570    594 202.7  16.3  34202  290.29 0854.43
2009/04/23 15:28:26.5    -317   -323    158    453    479 224.4  20.0  34240  290.93 0854.43
2009/04/23 15:28:26.6    -392   -328    343    512    616 230.1  37.0  34266  291.36 0854.43
2009/04/23 15:28:26.7    -220   -139    351    261    437 237.6  59.8  34278  291.57 0854.43
2009/04/23 15:28:26.8    -245   -120    266    274    381 243.8  49.1  34294  291.85 0854.43
2009/04/23 15:28:26.9    -176   -217    231    280    362 219.0  43.7  34268  291.40 0854.43
2009/04/23 15:28:27.0    -227   -145    257    270    372 237.4  48.4  34278  291.57 0854.43
2009/04/23 15:28:27.1    -174   -257    220    311    380 214.2  38.7  34270  291.45 0854.42
2009/04/23 15:28:27.2    -211   -306     55    372    377 214.6   8.5  34288  291.73 0854.42
2009/04/23 15:28:27.3    -226   -154    -24    274    276 235.6  -5.2  34294  291.85 0854.42
2009/04/23 15:28:27.4     -75   -215    -70    228    238 199.4 -22.1  34286  291.70 0854.42
2009/04/23 15:28:27.5     157   -202    -10    256    257 142.2  -2.2  34254  291.16 0854.42
2009/04/23 15:28:27.6     295     91     58    309    315  72.7  10.7  34276  291.55 0854.42
2009/04/23 15:28:27.7     260     30    110    262    284  83.4  24.2  34274  291.51 0854.42
2009/04/23 15:28:27.8     255    -15    158    256    300  93.5  35.0  34274  291.50 0854.42
2009/04/23 15:28:27.9     182   -150    -63    237    246 129.5 -15.0  34276  291.55 0854.42
2009/04/23 15:28:28.0     153     -2   -232    154    278  90.9 -67.8  34260  291.26 0854.42
2009/04/23 15:28:28.1     475     93    152    485    509  78.9  17.4  34214  290.49 0854.42
2009/04/23 15:28:28.2     564     51     27    567    568  84.8   2.8  34236  290.87 0854.42
2009/04/23 15:28:28.3     427    -98    121    439    456 103.0  15.4  34206  290.36 0854.42
2009/04/23 15:28:28.4     322   -234      5    399    400 126.0   0.8  34218  290.54 0854.42
2009/04/23 15:28:28.5     436      0    -38    437    439  89.9  -5.1  34200  290.24 0854.42
2009/04/23 15:28:28.6     659   -449    182    798    819 124.3  12.9  34190  290.08 0854.42
2009/04/23 15:28:28.7     725   -382   -247    820    856 117.8 -21.7  34190  290.09 0854.42
2009/04/23 15:28:28.8     456   -370   -202    588    621 129.0 -24.0  34202  290.29 0854.42
2009/04/23 15:28:28.9     445   -484   -381    658    760 137.4 -37.1  34216  290.52 0854.42
2009/04/23 15:28:29.0     415   -336   -264    535    596 129.0 -32.6  34210  290.41 0854.42
2009/04/23 15:28:29.1     404   -128   -317    424    529 107.6 -45.0  34186  290.01 0854.44
2009/04/23 15:28:29.2     466    -51   -138    469    488  96.4 -21.2  34152  289.45 0854.44
2009/04/23 15:28:29.3     379   -116     44    397    400 107.1   6.4  34158  289.54 0854.44
2009/04/23 15:28:29.4     401   -220    -87    458    467 118.8 -10.8  34196  290.17 0854.44
2009/04/23 15:28:29.5     200    165    -33    260    263  50.4  -7.3  34180  289.90 0854.44
2009/04/23 15:28:29.6     105    241    -82    264    277  23.6 -17.3  34182  289.95 0854.44
2009/04/23 15:28:29.7     -44    264     25    268    270 350.4   5.4  34194  290.14 0854.44
2009/04/23 15:28:29.8     -93    233    100    252    271 338.2  23.0  34204  290.32 0854.44
2009/04/23 15:28:29.9     -35    205    -43    208    213 350.3 -11.9  34202  290.28 0854.44
2009/04/23 15:28:30.0    -169    214     43    273    277 321.7   9.0  34200  290.26 0854.44
2009/04/23 15:28:30.1      -5    264    -28    265    267 358.9  -6.1  34198  290.20 0854.44
2009/04/23 15:28:30.2      -9    301    -44    302    306 358.2  -8.3  34200  290.26 0854.44
2009/04/23 15:28:30.3     -66    198      0    209    210 341.5   0.2  34198  290.21 0854.44
2009/04/23 15:28:30.4    -145    284    -12    319    320 332.9  -2.2  34194  290.14 0854.44
2009/04/23 15:28:30.5    -188    342    -35    391    393 331.2  -5.2  34192  290.10 0854.44
2009/04/23 15:28:30.6    -104    420      6    433    434 346.1   0.8  34198  290.21 0854.44
2009/04/23 15:28:30.7     -87    374    -48    384    388 346.9  -7.2  34202  290.28 0854.44
2009/04/23 15:28:30.8     -29    386    -66    388    394 355.7  -9.8  34204  290.33 0854.44
2009/04/23 15:28:30.9       0    449     38    450    452 359.9   4.9  34200  290.24 0854.44
2009/04/23 15:28:31.0      75    297     66    307    315  14.3  12.2  34200  290.26 0854.44
2009/04/23 15:28:31.1     133    261     91    294    308  27.1  17.3  34218  290.54 0854.44
2009/04/23 15:28:31.2      -9    337     53    338    343 358.4   8.9  34194  290.16 0854.44
2009/04/23 15:28:31.3      86    284    -11    298    299  17.0  -2.2  34206  290.36 0854.44
2009/04/23 15:28:31.4     126    318     39    343    346  21.6   6.5  34232  290.81 0854.44
2009/04/23 15:28:31.5     170    321     93    364    376  28.0  14.4  34238  290.89 0854.44
2009/04/23 15:28:31.6     -13    248     18    249    250 356.9   4.2  34236  290.85 0854.44
2009/04/23 15:28:31.7      49    242    155    247    291  11.5  35.5  34250  291.09 0854.44
2009/04/23 15:28:31.8      -5    201    126    202    238 358.4  35.0  34242  290.96 0854.44
2009/04/23 15:28:31.9     -62     85    152    106    185 324.0  61.8  34268  291.42 0854.44
2009/04/23 15:28:32.0      44     96    146    106    180  24.9  60.5  34254  291.18 0854.44
2009/04/23 15:28:32.1       0    198     70    199    212 359.8  19.4  34240  290.94 0854.44
2009/04/23 15:28:32.2     -75    100    187    126    225 323.0  62.8  34272  291.47 0854.44
2009/04/23 15:28:32.3    -220    136    122    259    286 301.8  27.1  34292  291.80 0854.44
2009/04/23 15:28:32.4    -230     87    143    247    285 290.8  32.9  34280  291.61 0854.44
2009/04/23 15:28:32.5    -249     22    177    251    307 275.2  38.6  34286  291.70 0854.44
2009/04/23 15:28:32.6    -230     87    107    247    269 290.8  25.1  34290  291.78 0854.44
2009/04/23 15:28:32.7    -104     49    130    116    174 295.2  53.7  34298  291.91 0854.44
2009/04/23 15:28:32.8     -26     19    124     33    128 306.0  84.9  34312  292.15 0854.44
2009/04/23 15:28:32.9    -187    240     15    305    306 322.1   2.9  34294  291.85 0854.44
2009/04/23 15:28:33.0    -203    229    103    307    324 318.5  18.6  34274  291.50 0854.44
2009/04/23 15:28:33.1    -252     67    -39    261    264 285.1  -8.6  34226  290.70 0854.44
2009/04/23 15:28:33.2    -302     63    -12    309    310 281.9  -2.2  34214  290.49 0854.44
2009/04/23 15:28:33.3    -287     32    111    289    309 276.4  22.0  34246  291.04 0854.44
2009/04/23 15:28:33.4    -262     -4    211    263    337 269.0  42.9  34250  291.09 0854.44
2009/04/23 15:28:33.5    -187    -13    189    188    266 265.9  50.1  34228  290.73 0854.44
2009/04/23 15:28:33.6    -129    -23    208    132    246 259.9  64.7  34290  291.79 0854.44
2009/04/23 15:28:33.7    -264     24    189    266    326 275.2  38.8  34334  292.52 0854.44
2009/04/23 15:28:33.8    -211     56    155    219    268 285.1  38.8  34316  292.21 0854.44
2009/04/23 15:28:33.9    -233    -15    156    234    281 266.1  36.7  34342  292.65 0854.44
2009/04/23 15:28:34.0       6     -7    161     10    161 136.8  90.0  34340  292.63 0854.44
2009/04/23 15:28:34.1      77     91    150    120    192  40.5  56.9  34302  291.98 0854.44
2009/04/23 15:28:34.2     -26     42     26     50     56 327.5  29.3  34300  291.96 0854.44
2009/04/23 15:28:34.3     -89    -76     78    118    141 229.6  36.5  34310  292.12 0854.44
2009/04/23 15:28:34.4    -175   -274    156    326    361 212.5  27.3  34298  291.91 0854.44
2009/04/23 15:28:34.5    -269   -160    189    314    366 239.3  33.8  34284  291.69 0854.44
2009/04/23 15:28:34.6    -149   -160    151    219    266 223.0  37.8  34290  291.77 0854.44
2009/04/23 15:28:34.7    -148   -232    114    276    298 212.6  23.6  34282  291.63 0854.44
2009/04/23 15:28:34.8     -54   -248    -33    254    257 192.4  -7.5  34286  291.70 0854.44
2009/04/23 15:28:34.9    -184   -300     46    353    356 211.5   7.5  34288  291.76 0854.44
2009/04/23 15:28:35.0    -249   -264    -45    363    366 223.3  -7.2  34282  291.64 0854.44
2009/04/23 15:28:35.1    -355   -301    -68    466    471 229.7  -8.4  34272  291.46 0854.45
2009/04/23 15:28:35.2    -360   -173    -15    400    401 244.3  -2.2  34272  291.49 0854.45
2009/04/23 15:28:35.3    -159   -333     35    370    372 205.5   5.4  34272  291.49 0854.45
2009/04/23 15:28:35.4      32   -406    244    408    475 175.4  33.7  34276  291.53 0854.45
2009/04/23 15:28:35.5    -206   -437    229    484    535 205.3  27.1  34254  291.17 0854.45
2009/04/23 15:28:35.6    -335   -423    207    540    578 218.4  22.1  34262  291.30 0854.45
2009/04/23 15:28:35.7    -315   -566    364    648    743 209.1  31.9  34172  289.79 0854.45
2009/04/23 15:28:35.8    -270   -405    207    487    529 213.7  24.5  34176  289.83 0854.45
2009/04/23 15:28:35.9    -182   -355    245    400    469 207.2  34.4  34178  289.88 0854.45
2009/04/23 15:28:36.0     -42   -250    263    254    365 189.6  51.1  34182  289.94 0854.45
2009/04/23 15:28:36.1       4   -179    274    180    327 178.6  63.7  34192  290.10 0854.45
2009/04/23 15:28:36.2     -99   -298    268    315    413 198.5  44.8  34182  289.94 0854.45
2009/04/23 15:28:36.3    -110   -242    308    266    406 204.5  54.9  34192  290.10 0854.45
2009/04/23 15:28:36.4     -76   -174    197    191    274 203.6  50.9  34196  290.17 0854.45
2009/04/23 15:28:36.5    -120   -251     44    279    283 205.5   9.0  34198  290.20 0854.45
2009/04/23 15:28:36.6    -100   -278    175    296    343 200.0  33.3  34194  290.15 0854.45
2009/04/23 15:28:36.7     -21   -281    164    282    326 184.5  32.9  34196  290.19 0854.45
2009/04/23 15:28:36.8     -61   -176     82    187    204 199.2  25.1  34202  290.30 0854.45
2009/04/23 15:28:36.9      21   -188    -59    190    200 173.5 -17.3  34202  290.30 0854.45
2009/04/23 15:28:37.0      86     -7    -42     87     96  94.8 -31.7  34212  290.47 0854.45
2009/04/23 15:28:37.1      69    -91     42    115    122 143.0  20.9  34222  290.62 0854.46
2009/04/23 15:28:37.2      65    -10    109     66    127  98.8  66.2  34214  290.50 0854.46
2009/04/23 15:28:37.3     -30   -104     34    109    115 196.0  17.3  34222  290.64 0854.46
2009/04/23 15:28:37.4     -81   -191     45    208    213 202.9  12.4  34212  290.47 0854.46
2009/04/23 15:28:37.5    -130   -130    -23    185    187 225.0  -7.2  34218  290.57 0854.46
2009/04/23 15:28:37.6    -128   -152     -7    199    200 220.1  -2.3  34214  290.50 0854.46
2009/04/23 15:28:37.7    -127   -146     58    194    203 221.2  16.6  34202  290.28 0854.46
2009/04/23 15:28:37.8    -189   -147     91    240    256 232.2  22.0  34202  290.27 0854.46
2009/04/23 15:28:37.9    -165   -136     98    214    235 230.5  26.2  34194  290.14 0854.46
2009/04/23 15:28:38.0     -84   -236    185    251    311 199.6  40.0  34204  290.31 0854.46
2009/04/23 15:28:38.1    -104   -190    112    217    244 208.7  29.3  34204  290.32 0854.46
2009/04/23 15:28:38.2     -24   -142     75    145    163 189.7  29.8  34214  290.50 0854.46
2009/04/23 15:28:38.3       8    -65    145     66    159 172.9  74.0  34220  290.58 0854.46
2009/04/23 15:28:38.4       1     58    142     59    153   1.8  77.0  34234  290.84 0854.46
2009/04/23 15:28:38.5      16    -29    148     34    151 151.0  87.5  34222  290.64 0854.46
2009/04/23 15:28:38.6      58    -33    114     67    132 119.8  66.8  34212  290.45 0854.46
2009/04/23 15:28:38.7      23      0    126     24    128  90.0  89.1  34218  290.57 0854.46
2009/04/23 15:28:38.8     -12    -58    117     60    131 191.6  71.0  34224  290.65 0854.46
2009/04/23 15:28:38.9      58      4    142     59    153  85.7  77.0  34226  290.69 0854.46
2009/04/23 15:28:39.0      50    -10    167     52    174 101.5  81.8  34226  290.69 0854.46
2009/04/23 15:28:39.1      24    -54    163     60    173 156.4  79.5  34208  290.40 0854.46
2009/04/23 15:28:39.2       9   -104    164    105    194 174.7  64.6  34206  290.36 0854.46
2009/04/23 15:28:39.3      32   -179    181    182    256 169.8  50.0  34204  290.32 0854.46
2009/04/23 15:28:39.4      14   -160    119    161    200 174.7  40.1  34198  290.23 0854.46
2009/04/23 15:28:39.5      72   -106    165    129    209 145.7  58.2  34202  290.30 0854.46
2009/04/23 15:28:39.6      12     25    166     28    168  25.4  90.0  34214  290.50 0854.46
2009/04/23 15:28:39.7     141   -146    112    204    232 135.9  31.4  34186  290.02 0854.46
2009/04/23 15:28:39.8     174   -108    143    205    249 121.8  38.5  34178  289.88 0854.46
2009/04/23 15:28:39.9     111    -58    180    126    219 117.5  61.5  34174  289.80 0854.46
2009/04/23 15:28:40.0      21    -15    137     27    139 126.0  89.1  34178  289.89 0854.46
2009/04/23 15:28:40.1      -3     63     65     64     91 357.3  50.1  34166  289.69 0854.46
2009/04/23 15:28:40.2     168     92    178    192    261  61.1  47.9  34166  289.68 0854.46
2009/04/23 15:28:40.3     139     46    164    147    220  71.6  53.5  34170  289.74 0854.46
2009/04/23 15:28:40.4     142    -26     76    145    163 100.6  30.1  34176  289.84 0854.46
2009/04/23 15:28:40.5     117    -59     61    132    145 117.0  26.6  34174  289.80 0854.46
2009/04/23 15:28:40.6      58   -103    107    119    160 150.6  46.6  34178  289.89 0854.46
2009/04/23 15:28:40.7     -33   -174    151    178    233 190.9  44.3  34174  289.82 0854.46
2009/04/23 15:28:40.8    -116   -191    127    224    257 211.2  32.1  34194  290.14 0854.46
2009/04/23 15:28:40.9    -117   -103    142    157    211 228.7  46.9  34198  290.21 0854.46
2009/04/23 15:28:41.0    -106   -167    181    199    269 212.5  47.0  34174  289.80 0854.46
2009/04/23 15:28:41.1       5    -44    218     45    222 172.9  89.0  34200  290.25 0854.48
2009/04/23 15:28:41.2    -253    -63    157    261    304 255.8  34.0  34198  290.22 0854.48
2009/04/23 15:28:41.3    -283    -68     81    292    304 256.5  15.6  34182  289.95 0854.48
2009/04/23 15:28:41.4    -245    -18     53    246    252 265.7  12.2  34178  289.86 0854.48
2009/04/23 15:28:41.5    -242     41    134    246    280 279.7  31.0  34212  290.46 0854.48
2009/04/23 15:28:41.6    -346     26    123    347    368 274.4  20.3  34200  290.25 0854.48
2009/04/23 15:28:41.7    -186    -28    162    189    248 261.4  44.8  34208  290.40 0854.48
2009/04/23 15:28:41.8    -110    -57    101    125    160 242.5  43.3  34200  290.26 0854.48
2009/04/23 15:28:41.9      32    -64     88     72    113 152.8  56.4  34186  290.01 0854.48
2009/04/23 15:28:42.0     -19    -72    157     75    173 195.1  72.8  34172  289.77 0854.48
2009/04/23 15:28:42.1     -24     84    112     88    142 344.0  57.9  34192  290.11 0854.48
2009/04/23 15:28:42.2     -12     83      4     84     85 351.5   2.9  34192  290.13 0854.48
2009/04/23 15:28:42.3     -39     22     81     46     93 299.8  68.3  34180  289.91 0854.48
2009/04/23 15:28:42.4      56    -29    107     64    124 117.1  66.7  34180  289.92 0854.48
2009/04/23 15:28:42.5     -54      4    110     55    122 274.3  71.9  34210  290.41 0854.48
2009/04/23 15:28:42.6     -24    -38     11     46     48 212.6  14.3  34198  290.21 0854.48
2009/04/23 15:28:42.7     -84    116    -57    144    154 324.0 -26.9  34178  289.89 0854.48
2009/04/23 15:28:42.8    -102    130     65    166    178 321.9  22.5  34184  289.99 0854.48
2009/04/23 15:28:42.9     -46     14    111     49    121 287.7  74.9  34202  290.28 0854.48
2009/04/23 15:28:43.0      15      0    122     16    123  90.0  90.0  34204  290.31 0854.48
2009/04/23 15:28:43.1     -42    -67    135     80    156 212.5  67.0  34174  289.82 0854.50
2009/04/23 15:28:43.2     105    -10    164    106    195  95.7  64.1  34202  290.28 0854.50
2009/04/23 15:28:43.3       6   -190    205    191    280 178.0  52.2  34162  289.61 0854.50
2009/04/23 15:28:43.4     -14   -226    238    227    328 183.6  51.4  34164  289.64 0854.50
2009/04/23 15:28:43.5     -36   -261    214    264    339 188.0  43.4  34166  289.68 0854.50
2009/04/23 15:28:43.6     -35   -224    210    227    309 189.1  47.9  34182  289.93 0854.50
2009/04/23 15:28:43.7     -31   -222    180    225    288 188.1  42.8  34182  289.93 0854.50
2009/04/23 15:28:43.8     -50   -239    134    245    279 192.0  31.3  34174  289.80 0854.50
2009/04/23 15:28:43.9      41   -170    118    175    211 166.4  37.3  34188  290.06 0854.50
2009/04/23 15:28:44.0      98   -178     38    204    208 151.3  10.6  34186  290.01 0854.50
2009/04/23 15:28:44.1      65   -177     58    189    198 159.7  17.1  34178  289.89 0854.50
2009/04/23 15:28:44.2     -12   -153     53    154    164 184.5  19.2  34160  289.57 0854.50
2009/04/23 15:28:44.3     -11   -148     58    149    159 184.5  22.0  34148  289.38 0854.50
2009/04/23 15:28:44.4     -56   -175     79    184    200 197.8  24.9  34140  289.24 0854.50
2009/04/23 15:28:44.5     -29   -141     60    145    156 191.6  23.8  34130  289.06 0854.50
2009/04/23 15:28:44.6      35   -169     62    173    183 168.0  20.2  34134  289.13 0854.50
2009/04/23 15:28:44.7       9   -149     29    150    153 176.4  11.0  34132  289.09 0854.50
2009/04/23 15:28:44.8       6   -128     51    129    138 177.3  23.0  34136  289.18 0854.50
2009/04/23 15:28:44.9      49   -104     90    116    146 154.7  42.2  34142  289.28 0854.50
2009/04/23 15:28:45.0      43    -77     27     89     94 150.6  17.3  34140  289.23 0854.50
2009/04/23 15:28:45.1      41    -43     45     60     75 136.6  39.7  34148  289.36 0854.51
2009/04/23 15:28:45.3      10    -35     11     37     39 163.1  17.3  34152  289.43 0854.51
2009/04/23 15:28:45.3      57    -30    -82     65    104 118.0 -61.9  34138  289.21 0854.51
2009/04/23 15:28:45.4     109    -12      5    110    111  96.6   2.8  34140  289.24 0854.51
2009/04/23 15:28:45.6      87    -90    -40    126    133 135.9 -17.6  34136  289.16 0854.51
2009/04/23 15:28:45.7     112    -33    -15    117    118 106.4  -7.3  34132  289.11 0854.51
2009/04/23 15:28:45.8      16    -47     -2     50     51 161.3  -3.1  34136  289.18 0854.51
2009/04/23 15:28:45.9      11    -55     34     57     66 168.5  34.4  34138  289.19 0854.51
2009/04/23 15:28:46.0     -10    -40     56     42     70 195.1  59.4  34148  289.36 0854.51
2009/04/23 15:28:46.1      13    -34     38     37     53 158.2  49.1  34150  289.40 0854.51
2009/04/23 15:28:46.2      53    -26     53     60     80 116.2  45.8  34140  289.24 0854.51
2009/04/23 15:28:46.3     109    -17     26    111    115  99.2  13.2  34142  289.26 0854.51
2009/04/23 15:28:46.4     122     -1     70    123    141  90.8  31.9  34164  289.63 0854.51
2009/04/23 15:28:46.5      33    -53     60     63     87 147.5  49.0  34180  289.91 0854.51
2009/04/23 15:28:46.6       5   -123    100    124    159 177.3  43.0  34170  289.74 0854.51
2009/04/23 15:28:46.7     -10    -52     63     54     82 191.6  54.8  34160  289.58 0854.51
2009/04/23 15:28:46.8      -5   -106    107    107    151 182.7  50.1  34166  289.69 0854.51
2009/04/23 15:28:46.9      10    -82     93     83    124 172.4  53.7  34178  289.89 0854.51
2009/04/23 15:28:47.0     -25    -34     63     43     76 217.0  63.6  34180  289.91 0854.51
2009/04/23 15:28:47.1     -17    -25     50     31     58 214.3  64.7  34166  289.69 0854.51
2009/04/23 15:28:47.2     -54    -55     61     78     99 224.2  42.2  34164  289.65 0854.52
2009/04/23 15:28:47.3     -63    -46     56     79     96 234.1  38.6  34154  289.48 0854.52
2009/04/23 15:28:47.4     -80   -109    119    136    180 216.5  45.8  34154  289.46 0854.52
2009/04/23 15:28:47.5    -123   -128    132    178    221 223.9  39.9  34162  289.60 0854.52
2009/04/23 15:28:47.6    -287    -40    116    290    312 262.0  22.9  34160  289.58 0854.52
2009/04/23 15:28:47.7    -368      9    101    369    383 271.5  15.3  34198  290.20 0854.52
2009/04/23 15:28:47.8    -460    139     84    481    489 286.8  10.0  34176  289.83 0854.52
2009/04/23 15:28:47.9    -506    169    193    534    569 288.5  19.9  34190  290.09 0854.52
2009/04/23 15:28:48.0    -466      4    205    467    510 270.5  25.2  34192  290.13 0854.52
2009/04/23 15:28:48.1    -376    -38    220    378    437 264.1  33.0  34176  289.83 0854.51
2009/04/23 15:28:48.2    -493    -38    107    495    507 265.5  12.3  34234  290.83 0854.51
2009/04/23 15:28:48.3    -138   -195    149    240    282 215.4  35.0  34138  289.20 0854.51
2009/04/23 15:28:48.4       8   -232    148    233    276 178.0  35.5  34150  289.41 0854.51
2009/04/23 15:28:48.5     -72   -202    237    215    319 199.6  53.2  34152  289.44 0854.51
2009/04/23 15:28:48.6      16   -181    126    182    221 174.7  37.8  34152  289.45 0854.51
2009/04/23 15:28:48.7     -12   -162    160    163    228 184.2  49.8  34144  289.31 0854.51
2009/04/23 15:28:48.8      -9    -41    127     42    133 192.5  80.7  34158  289.53 0854.51
2009/04/23 15:28:48.9     -93    -64    166    113    200 235.4  62.6  34148  289.36 0854.51
2009/04/23 15:28:49.0    -117   -198    187    231    297 210.7  43.3  34144  289.29 0854.51
2009/04/23 15:28:49.1     -17     16    136     24    138 313.3  90.0  34168  289.72 0854.51
2009/04/23 15:28:49.2     -88   -282    229    296    374 197.4  41.7  34164  289.64 0854.51
2009/04/23 15:28:49.3     -36   -184    218    188    287 191.1  55.0  34164  289.64 0854.51
2009/04/23 15:28:49.4    -106   -336    189    353    400 197.6  30.3  34166  289.69 0854.51
2009/04/23 15:28:49.5     -60   -431    141    436    459 188.0  17.9  34150  289.41 0854.51
2009/04/23 15:28:49.6    -133   -513    185    531    563 194.6  19.2  34156  289.50 0854.51
2009/04/23 15:28:49.7     -27   -532    103    533    543 183.0  11.0  34172  289.77 0854.51
2009/04/23 15:28:49.8      72   -457    230    463    516 171.0  28.2  34170  289.73 0854.51
2009/04/23 15:28:49.9     -57   -460    250    464    527 187.1  30.8  34152  289.44 0854.51
2009/04/23 15:28:50.0     -27   -350    189    352    399 184.5  30.6  34154  289.47 0854.51
2009/04/23 15:28:50.1    -108   -374    138    390    414 196.1  19.5  34154  289.48 0854.47
2009/04/23 15:28:50.2    -131   -342     86    367    377 201.0  13.2  34158  289.55 0854.47
2009/04/23 15:28:50.3    -157   -361     61    394    399 203.5   8.8  34152  289.45 0854.47
2009/04/23 15:28:50.4    -106   -338     40    355    358 197.4   6.5  34154  289.47 0854.47
2009/04/23 15:28:50.5     -57   -385    189    390    433 188.5  27.8  34138  289.19 0854.47
2009/04/23 15:28:50.6      35   -477    111    479    492 175.8  13.1  34142  289.28 0854.47
2009/04/23 15:28:50.7     -51   -457     71    460    466 186.5   8.8  34150  289.41 0854.47
2009/04/23 15:28:50.8     -42   -452    111    455    469 185.3  13.8  34148  289.36 0854.47
2009/04/23 15:28:50.9       2   -440     83    441    449 179.7  10.7  34148  289.36 0854.47
2009/04/23 15:28:51.0     -12   -492     64    493    498 181.5   7.5  34148  289.37 0854.47
2009/04/23 15:28:51.1      24   -405     23    406    407 176.5   3.3  34146  289.34 0854.47
2009/04/23 15:28:51.2     -48   -515    -11    518    519 185.4  -1.3  34146  289.34 0854.47
2009/04/23 15:28:51.3    -106   -506     17    518    519 191.9   1.9  34136  289.15 0854.47
2009/04/23 15:28:51.4    -119   -367    127    386    407 198.0  18.2  34136  289.16 0854.47
2009/04/23 15:28:51.5     -86   -283    -25    296    298 196.9  -4.9  34124  288.95 0854.47
2009/04/23 15:28:51.6    -142   -287    -41    321    324 206.3  -7.4  34122  288.92 0854.47
2009/04/23 15:28:51.7    -219   -323     39    391    394 214.2   5.8  34130  289.08 0854.47
2009/04/23 15:28:51.8    -200   -369     -1    420    421 208.5  -0.3  34144  289.29 0854.47
2009/04/23 15:28:51.9    -101   -456     55    468    472 192.5   6.8  34128  289.03 0854.47
2009/04/23 15:28:52.0     -52   -438     42    442    445 186.8   5.5  34134  289.12 0854.47
2009/04/23 15:28:52.1     -11   -393     62    394    399 181.7   9.0  34142  289.26 0854.49
2009/04/23 15:28:52.2       4   -527     23    528    529 179.5   2.5  34150  289.40 0854.49
2009/04/23 15:28:52.3       8   -540     74    541    546 179.1   7.8  34146  289.33 0854.49
2009/04/23 15:28:52.4     -27   -543     31    544    545 182.9   3.3  34150  289.41 0854.49
2009/04/23 15:28:52.5     -19   -423     20    424    425 182.6   2.8  34154  289.46 0854.49
2009/04/23 15:28:52.6      -8   -397     44    398    401 181.2   6.4  34148  289.38 0854.49
2009/04/23 15:28:52.7     -54   -403     42    407    410 187.7   6.0  34146  289.33 0854.49
2009/04/23 15:28:52.8     -74   -326     65    335    342 192.8  11.0  34142  289.28 0854.49
2009/04/23 15:28:52.9    -107   -259     50    281    286 202.5  10.1  34150  289.39 0854.49
2009/04/23 15:28:53.0     -40   -235     90    239    255 189.8  21.7  34148  289.36 0854.49
2009/04/23 15:28:53.1    -146   -326     56    358    363 204.1   9.0  34152  289.43 0854.49
2009/04/23 15:28:53.2     -87   -259      5    274    275 198.7   1.2  34156  289.51 0854.49
2009/04/23 15:28:53.3     -47   -245     44    250    254 190.9  10.1  34156  289.51 0854.49
2009/04/23 15:28:53.4     -54   -226     28    233    235 193.4   6.9  34154  289.47 0854.49
2009/04/23 15:28:53.5     -38   -162     45    167    174 193.4  15.2  34156  289.52 0854.49
2009/04/23 15:28:53.6       6   -159     49    160    168 177.5  17.1  34154  289.48 0854.49
2009/04/23 15:28:53.7       6    -96    -27     97    101 176.0 -15.5  34154  289.48 0854.49
2009/04/23 15:28:53.8      32    -78    -78     85    115 157.3 -52.3  34156  289.52 0854.49
2009/04/23 15:28:53.9      67   -122   -117    140    182 151.0 -48.5  34152  289.45 0854.49
2009/04/23 15:28:54.0      87    -90   -113    126    169 135.9 -51.0  34156  289.52 0854.49
2009/04/23 15:28:54.1      50    -55    -94     75    120 137.7 -61.9  34166  289.67 0854.50
2009/04/23 15:28:54.2      60    -68    -85     91    124 138.6 -52.9  34158  289.55 0854.50
2009/04/23 15:28:54.3      78   -120    -94    144    171 147.0 -40.4  34158  289.55 0854.50
2009/04/23 15:28:54.4      46    -43    -97     64    116 133.1 -69.0  34164  289.63 0854.50
2009/04/23 15:28:54.5      49    -31    -92     59    109 122.4 -69.0  34168  289.70 0854.50
2009/04/23 15:28:54.6      58      0    -62     59     85  90.0 -55.6  34166  289.67 0854.50
2009/04/23 15:28:54.7      58     58    -19     83     86  45.1 -13.4  34160  289.57 0854.50
2009/04/23 15:28:54.8     110    100    -48    149    156  47.8 -23.8  34158  289.53 0854.50
2009/04/23 15:28:54.9     120    105    -32    160    164  48.7 -11.3  34160  289.57 0854.50
2009/04/23 15:28:55.0     110    110     -1    156    157  45.1  -0.5  34156  289.50 0854.50
2009/04/23 15:28:55.1      59    122      9    136    137  25.9   3.8  34154  289.48 0854.50
2009/04/23 15:28:55.2     131     52    -48    142    150  68.3 -18.7  34150  289.40 0854.50
2009/04/23 15:28:55.3     187    -98   -111    212    239 117.8 -34.2  34122  288.92 0854.50
2009/04/23 15:28:55.4     203    -66   -102    214    237 108.2 -31.6  34120  288.89 0854.50
2009/04/23 15:28:55.5     301    -46     -2    305    306  98.8  -0.5  34104  288.63 0854.50
2009/04/23 15:28:55.6     353    -16    -31    354    356  92.7  -5.1  34132  289.10 0854.50
2009/04/23 15:28:55.7     296    -73     13    305    306 103.9   2.5  34122  288.93 0854.50
2009/04/23 15:28:55.8     215    -85    171    232    288 111.7  39.9  34116  288.83 0854.50
2009/04/23 15:28:55.9     244    -55    204    251    323 102.8  43.4  34114  288.80 0854.50
2009/04/23 15:28:56.0     318   -135    167    346    384 113.1  27.3  34104  288.62 0854.50
2009/04/23 15:28:56.1     305   -155    218    343    406 117.0  35.5  34116  288.81 0854.52
2009/04/23 15:28:56.2     260   -154    272    303    407 120.7  46.6  34132  289.11 0854.52
2009/04/23 15:28:56.3     170    -26    159    172    234  98.8  47.9  34144  289.31 0854.52
2009/04/23 15:28:56.4     205    -43    193    210    285 101.9  47.5  34146  289.32 0854.52
2009/04/23 15:28:56.5     257   -102    105    277    296 111.8  22.0  34118  288.85 0854.52
2009/04/23 15:28:56.6     120      4    198    121    232  87.9  65.4  34112  288.77 0854.52
2009/04/23 15:28:56.7      56     56    149     80    169  45.1  69.6  34132  289.11 0854.52
2009/04/23 15:28:56.8     -16      5    241     17    241 288.6  90.0  34146  289.35 0854.52
2009/04/23 15:28:56.9      74     66    137    100    169  48.2  60.3  34148  289.38 0854.52
2009/04/23 15:28:57.0     -33    239   -127    242    273 352.0 -34.5  34170  289.75 0854.52
2009/04/23 15:28:57.1      89    263   -199    278    341  18.7 -43.5  34188  290.05 0854.52
2009/04/23 15:28:57.2      16    -12   -173     21    174 126.0 -90.0  34172  289.77 0854.52
2009/04/23 15:28:57.3      89     34   -127     96    159  68.7 -63.6  34178  289.87 0854.52
2009/04/23 15:28:57.4      77    -67    -28    103    107 131.3 -15.4  34164  289.65 0854.52
2009/04/23 15:28:57.5       1    -89      9     90     91 179.1   5.9  34150  289.41 0854.52
2009/04/23 15:28:57.6     -15    -43     85     46     96 200.0  69.3  34162  289.62 0854.52
2009/04/23 15:28:57.7     -46    -96     97    107    144 205.5  47.5  34158  289.53 0854.52
2009/04/23 15:28:57.8     -60   -110     97    126    159 208.5  41.4  34146  289.33 0854.52
2009/04/23 15:28:57.9      70   -132     94    150    177 151.9  35.2  34140  289.24 0854.52
2009/04/23 15:28:58.0      99   -209    142    232    272 154.6  34.8  34126  288.98 0854.52
2009/04/23 15:28:58.1     110   -218    162    245    293 153.3  36.5  34122  288.92 0854.49
2009/04/23 15:28:58.2     186   -122     19    223    224 123.3   5.0  34140  289.23 0854.49
2009/04/23 15:28:58.3     178   -135    -28    224    226 127.1  -7.3  34144  289.30 0854.49
2009/04/23 15:28:58.4     206   -249     45    324    328 140.4   7.9  34128  289.02 0854.49
2009/04/23 15:28:58.5     211   -277     79    349    358 142.8  12.8  34112  288.77 0854.49
2009/04/23 15:28:58.6     225   -332    114    402    418 145.8  15.9  34118  288.85 0854.49
2009/04/23 15:28:58.7     196   -370    147    419    445 152.0  19.4  34118  288.85 0854.49
2009/04/23 15:28:58.8     126   -330    128    354    376 159.0  20.8  34126  288.98 0854.49
2009/04/23 15:28:58.9     132   -272     -6    303    304 154.1  -1.2  34130  289.05 0854.49
2009/04/23 15:28:59.0      20   -239     15    240    241 175.1   3.6  34130  289.07 0854.49
2009/04/23 15:28:59.1    -146   -200     96    248    265 216.1  22.3  34130  289.05 0854.49
2009/04/23 15:28:59.2     -31   -203    140    206    249 188.9  37.6  34134  289.14 0854.49
2009/04/23 15:28:59.3    -161   -229     39    281    284 215.1   8.0  34134  289.14 0854.49
2009/04/23 15:28:59.4     -39   -207    100    211    233 190.9  27.2  34134  289.14 0854.49
2009/04/23 15:28:59.5     -76   -200     19    215    216 200.9   5.2  34134  289.13 0854.49
2009/04/23 15:28:59.6     -37   -192    -15    196    197 190.9  -4.6  34132  289.11 0854.49
2009/04/23 15:28:59.7     -15   -201    -17    202    203 184.5  -4.9  34138  289.19 0854.49
2009/04/23 15:28:59.8     -55   -156     -3    166    167 199.4  -1.3  34138  289.19 0854.49
2009/04/23 15:28:59.9     -56   -144     -6    155    156 201.4  -2.2  34140  289.24 0854.49
2009/04/23 15:29:00.0     -59   -169     -9    180    181 199.4  -3.1  34136  289.18 0854.49
2009/04/23 15:29:00.1     -50   -129    -13    139    140 201.4  -5.6  34138  289.19 0854.46
2009/04/23 15:29:00.2     -86   -161     74    183    197 208.1  23.1  34142  289.28 0854.46
2009/04/23 15:29:00.3       0    -97     63     98    116 180.0  35.6  34146  289.35 0854.46
2009/04/23 15:29:00.4      29    -59     49     66     82 153.7  40.7  34146  289.33 0854.46
2009/04/23 15:29:00.5      65    -30     21     72     76 115.2  16.3  34148  289.36 0854.46
2009/04/23 15:29:00.6      26    -82    -26     87     91 162.2 -17.0  34146  289.35 0854.46
2009/04/23 15:29:00.7      84   -148     21    171    173 150.4   7.2  34142  289.26 0854.46
2009/04/23 15:29:00.8      71   -205     89    218    235 160.8  23.6  34134  289.13 0854.46
2009/04/23 15:29:00.9      -4   -255    158    256    300 181.1  35.0  34172  289.76 0854.46
2009/04/23 15:29:01.0      44   -164     88    170    191 164.9  29.5  34152  289.43 0854.46
2009/04/23 15:29:01.1      73   -122    122    143    187 149.3  44.8  34128  289.04 0854.46
2009/04/23 15:29:01.2     -52   -181    152    189    242 196.0  42.8  34132  289.11 0854.46
2009/04/23 15:29:01.3    -158   -217    109    269    290 216.1  23.1  34138  289.20 0854.46
2009/04/23 15:29:01.4    -104   -244    106    266    286 203.2  23.0  34144  289.31 0854.46
2009/04/23 15:29:01.5      19   -174    109    176    207 173.5  35.0  34134  289.14 0854.46
2009/04/23 15:29:01.6      60   -235    170    243    296 165.5  38.5  34174  289.80 0854.46
2009/04/23 15:29:01.7       3   -182    257    183    315 178.9  61.2  34196  290.19 0854.46
2009/04/23 15:29:01.8      23   -218    211    220    304 173.8  49.0  34176  289.83 0854.46
2009/04/23 15:29:01.9      64    -41    131     77    151 122.5  66.8  34174  289.82 0854.46
2009/04/23 15:29:02.0       9   -137    150    138    203 176.0  52.2  34148  289.38 0854.46
2009/04/23 15:29:02.1      -7    -91    160     92    184 184.5  67.5  34156  289.50 0854.48
2009/04/23 15:29:02.2      77   -143    107    163    194 151.5  36.0  34138  289.21 0854.48
2009/04/23 15:29:02.3     126   -154     72    200    212 140.6  20.4  34132  289.09 0854.48
2009/04/23 15:29:02.4     135    -88    138    162    212 123.3  44.8  34146  289.35 0854.48
2009/04/23 15:29:02.5     124    -54    138    136    193 113.5  49.9  34164  289.65 0854.48
2009/04/23 15:29:02.6     141    -46    168    149    224 108.2  54.0  34228  290.72 0854.48
2009/04/23 15:29:02.7      60     19     94     64    113  72.3  63.2  34198  290.23 0854.48
2009/04/23 15:29:02.8      42    -83    116     94    149 153.3  56.4  34166  289.67 0854.48
2009/04/23 15:29:02.9     126    -69     98    144    174 118.9  37.3  34146  289.33 0854.48
2009/04/23 15:29:03.0     122    -27    118    126    172 102.8  48.2  34146  289.35 0854.48
2009/04/23 15:29:03.1     120    -51     53    131    141 113.1  23.1  34138  289.21 0854.48
2009/04/23 15:29:03.2     125    -97     81    159    178 127.8  29.3  34144  289.30 0854.48
2009/04/23 15:29:03.3     123    -89     97    153    181 126.0  35.5  34148  289.38 0854.48
2009/04/23 15:29:03.4     162    -50    139    170    219 107.3  43.7  34156  289.50 0854.48
2009/04/23 15:29:03.5      36     32    139     49    147  48.7  80.2  34166  289.69 0854.48
2009/04/23 15:29:03.6     151    -82    178    173    248 118.6  50.9  34168  289.70 0854.48
2009/04/23 15:29:03.7       2    -35    119     36    124 175.5  82.7  34174  289.82 0854.48
2009/04/23 15:29:03.8     182   -113    180    215    280 122.0  44.1  34156  289.49 0854.48
2009/04/23 15:29:03.9     126   -165    127    208    243 142.6  34.4  34162  289.61 0854.48
2009/04/23 15:29:04.0     136   -136    140    193    238 134.8  39.7  34162  289.62 0854.48
2009/04/23 15:29:04.1      53    -38     87     66    109 126.0  59.0  34178  289.87 0854.48
2009/04/23 15:29:04.2      37     29     70     48     84  51.4  62.6  34178  289.89 0854.48
2009/04/23 15:29:04.3     -15    -57    176     60    185 195.1  81.2  34186  290.01 0854.48
2009/04/23 15:29:04.4      39   -106    100    114    151 159.5  45.8  34176  289.85 0854.48
2009/04/23 15:29:04.5      57   -113     93    127    157 152.9  39.9  34168  289.70 0854.48
2009/04/23 15:29:04.6      75   -124     72    146    162 148.8  28.2  34160  289.58 0854.48
2009/04/23 15:29:04.7      12   -155    108    156    189 175.5  38.0  34162  289.60 0854.48
2009/04/23 15:29:04.8      23   -156    138    158    209 171.5  45.8  34154  289.48 0854.48
2009/04/23 15:29:04.9      35    -16     91     39     99 115.2  76.1  34170  289.75 0854.48
2009/04/23 15:29:05.0     -15    -26     69     31     75 210.7  73.1  34168  289.72 0854.48
2009/04/23 15:29:05.1      16    -60     95     63    113 164.8  64.1  34168  289.70 0854.48
2009/04/23 15:29:05.2      60    -73    116     95    149 140.4  56.4  34156  289.52 0854.48
2009/04/23 15:29:05.3      55      8     75     56     93  81.2  59.4  34164  289.63 0854.48
2009/04/23 15:29:05.4      54    -39     97     67    117 126.0  62.1  34170  289.75 0854.48
2009/04/23 15:29:05.5     105    -17    121    107    161  99.2  53.7  34174  289.80 0854.48
2009/04/23 15:29:05.6     116      0     83    117    143  89.6  39.1  34168  289.72 0854.48
2009/04/23 15:29:05.7      75      2     70     76    103  88.3  47.9  34180  289.91 0854.48
2009/04/23 15:29:05.8      95    -25    102     99    142 105.1  50.7  34202  290.28 0854.48
2009/04/23 15:29:05.9      47    -63    106     79    132 143.0  59.4  34194  290.16 0854.48
2009/04/23 15:29:06.0      29    -32     48     44     65 137.7  52.2  34198  290.23 0854.48
2009/04/23 15:29:06.1      16     57     70     60     92  16.0  54.8  34256  291.20 0854.46
2009/04/23 15:29:06.2     -95    144     34    173    177 326.4  11.1  34304  292.03 0854.46
2009/04/23 15:29:06.3     -78    136    128    157    202 330.1  43.7  34304  292.01 0854.46
2009/04/23 15:29:06.4      28    163    166    166    234   9.8  50.1  34310  292.13 0854.46
2009/04/23 15:29:06.5      33    238    136    241    276   8.0  31.9  34322  292.31 0854.46
2009/04/23 15:29:06.6      60    178    124    188    225  18.7  36.3  34310  292.12 0854.46
2009/04/23 15:29:06.7      40    198     96    202    223  11.5  27.3  34284  291.67 0854.46
2009/04/23 15:29:06.8     116    131    108    176    206  41.4  34.8  34338  292.59 0854.46
2009/04/23 15:29:06.9     121    124     53    174    183  44.1  17.1  34346  292.73 0854.46
2009/04/23 15:29:07.0     151    134     72    202    214  48.4  20.2  34348  292.76 0854.46
2009/04/23 15:29:07.1     173    158     85    235    251  47.6  19.9  34344  292.69 0854.46
2009/04/23 15:29:07.2     214    155     72    265    275  54.0  15.3  34352  292.84 0854.46
2009/04/23 15:29:07.3     174     61     66    185    196  70.7  20.2  34372  293.17 0854.46
2009/04/23 15:29:07.4     142     -7     17    143    145  93.0   6.9  34372  293.19 0854.46
2009/04/23 15:29:07.5      99    -27     -2    103    104 105.5  -1.3  34358  292.95 0854.46
2009/04/23 15:29:07.6     131     -6    -15    132    133  93.0  -6.7  34332  292.51 0854.46
2009/04/23 15:29:07.7     110    -39    -23    117    120 109.5 -11.3  34328  292.42 0854.46
2009/04/23 15:29:07.8      81    -53    -12     98     99 123.3  -7.2  34320  292.30 0854.46
2009/04/23 15:29:07.9      89      4    107     90    139  87.0  56.3  34282  291.64 0854.46
2009/04/23 15:29:08.0     125      7    135    126    184  86.5  52.1  34274  291.52 0854.46
2009/04/23 15:29:08.1     126      8    129    127    181  86.1  50.4  34272  291.47 0854.46
2009/04/23 15:29:08.2     112     81    213    139    254  54.0  63.9  34326  292.40 0854.46
2009/04/23 15:29:08.3     243     68    222    253    336  74.3  45.8  34334  292.52 0854.46
2009/04/23 15:29:08.4     169     76    257    186    317  65.6  60.7  34366  293.08 0854.46
2009/04/23 15:29:08.5     379     29    244    380    451  85.6  35.6  34198  290.22 0854.46
2009/04/23 15:29:08.6     243     79    136    256    289  71.8  30.2  34272  291.48 0854.46
2009/04/23 15:29:08.7     289    145    113    324    344  63.4  19.2  34362  293.00 0854.46
2009/04/23 15:29:08.8     250    217    108    332    350  49.1  18.0  34362  293.02 0854.46
2009/04/23 15:29:08.9     257    207    177    331    375  51.1  30.6  34362  293.00 0854.46
2009/04/23 15:29:09.0     246    306    200    393    440  38.8  29.2  34296  291.89 0854.46
2009/04/23 15:29:09.1     284    266    159    390    421  46.9  23.4  34286  291.70 0854.45
2009/04/23 15:29:09.2     146    405    173    431    464  19.9  23.1  34218  290.55 0854.45
2009/04/23 15:29:09.3     -61    481    125    485    501 352.7  14.5  34216  290.51 0854.45
2009/04/23 15:29:09.4      60    425     40    430    433   8.1   5.3  34220  290.58 0854.45
2009/04/23 15:29:09.5      30    360     10    362    363   4.9   1.7  34176  289.84 0854.45
2009/04/23 15:29:09.6     -17    353    -19    354    355 357.1  -3.1  34150  289.40 0854.45
2009/04/23 15:29:09.7     -68    359     -7    366    367 349.3  -1.2  34166  289.67 0854.45
2009/04/23 15:29:09.8     -75    355     59    364    369 348.0   9.3  34166  289.67 0854.45
2009/04/23 15:29:09.9     -95    302     55    317    322 342.4   9.9  34148  289.37 0854.45
2009/04/23 15:29:10.0    -261    170    -35    312    315 303.1  -6.5  34136  289.15 0854.45
2009/04/23 15:29:10.1    -234    212     76    317    327 312.2  13.6  34130  289.05 0854.45
2009/04/23 15:29:10.2    -167    340     74    380    388 333.8  11.1  34172  289.76 0854.45
2009/04/23 15:29:10.3    -199    311     48    370    374 327.4   7.5  34170  289.74 0854.45
2009/04/23 15:29:10.4    -209    267     56    340    345 322.0   9.4  34154  289.47 0854.45
2009/04/23 15:29:10.5    -179    196     22    266    268 317.7   4.9  34154  289.46 0854.45
2009/04/23 15:29:10.6    -266    149    -92    305    319 299.3 -16.8  34134  289.14 0854.45
2009/04/23 15:29:10.7    -182    275      2    330    331 326.5   0.5  34132  289.11 0854.45
2009/04/23 15:29:10.8    -281    203   -109    347    363 305.9 -22.4  34138  289.21 0854.45
2009/04/23 15:29:10.9    -301     39   -127    304    329 277.5 -28.5  34142  289.25 0854.45
2009/04/23 15:29:11.0    -240    -25    -83    242    257 263.9 -19.1  34148  289.37 0854.45
2009/04/23 15:29:11.1     -86    165    160    187    246 332.4  44.8  34188  290.04 0854.44
2009/04/23 15:29:11.2     -35    175     62    179    190 348.4  19.2  34190  290.08 0854.44
2009/04/23 15:29:11.3      -3    161     10    162    163 358.6   3.6  34186  290.02 0854.44
2009/04/23 15:29:11.4      51    184     46    192    198  15.6  13.5  34192  290.13 0854.44
2009/04/23 15:29:11.5      99    248     28    268    270  21.9   6.0  34160  289.56 0854.44
2009/04/23 15:29:11.6     172    186    -60    254    262  42.8 -13.4  34148  289.36 0854.44
2009/04/23 15:29:11.7     148    124    -54    194    202  50.0 -15.8  34150  289.40 0854.44
2009/04/23 15:29:11.8     126    197    -40    234    238  32.6  -9.8  34152  289.44 0854.44
2009/04/23 15:29:11.9     178    194    -91    264    279  42.4 -24.0  34156  289.49 0854.44
2009/04/23 15:29:12.0     291    222   -115    367    385  52.6 -17.5  34174  289.82 0854.44
2009/04/23 15:29:12.1     270    306    -97    409    421  41.4 -13.4  34188  290.04 0854.44
2009/04/23 15:29:12.2     248    236    -58    343    348  46.4  -9.7  34168  289.71 0854.44
2009/04/23 15:29:12.3     243    316   -141    399    424  37.6 -19.5  34166  289.68 0854.44
2009/04/23 15:29:12.4     250    347    -30    428    430  35.8  -4.1  34184  289.99 0854.44
2009/04/23 15:29:12.5     273    326    -16    426    427  39.9  -2.3  34182  289.95 0854.44
2009/04/23 15:29:12.6     262    262    126    371    393  45.0  18.8  34172  289.77 0854.44
2009/04/23 15:29:12.7     227    166     94    282    298  53.8  18.4  34154  289.47 0854.44
2009/04/23 15:29:12.8     207    198     19    287    288  46.2   3.8  34160  289.58 0854.44
2009/04/23 15:29:12.9     358    296    164    465    494  50.4  19.4  34188  290.05 0854.44
2009/04/23 15:29:13.1     449    256    146    518    539  60.3  15.8  34170  289.74 0854.44
2009/04/23 15:29:13.2     465    466      0    659    660  44.9   0.0  34142  289.27 0854.44
2009/04/23 15:29:13.3     448    446    110    633    643  45.1   9.9  34150  289.40 0854.44
2009/04/23 15:29:13.4     392    444    134    593    609  41.5  12.8  34170  289.73 0854.44
2009/04/23 15:29:13.5     366    340    120    500    515  47.1  13.6  34164  289.64 0854.44
2009/04/23 15:29:13.6     342    482    210    592    629  35.4  19.6  34230  290.76 0854.44
2009/04/23 15:29:13.7     451    403    210    606    642  48.2  19.2  34204  290.32 0854.44
2009/04/23 15:29:13.8     434    272    277    513    583  57.9  30.8  34230  290.77 0854.44
2009/04/23 15:29:13.9     491    301     87    577    584  58.5   8.6  34198  290.22 0854.44
2009/04/23 15:29:14.0     455    260     34    525    527  60.3   3.8  34154  289.46 0854.44
2009/04/23 15:29:14.1     428    304     19    525    526  54.6   2.1  34154  289.48 0854.44
2009/04/23 15:29:14.2     321    327    -58    459    463  44.4  -7.3  34142  289.27 0854.44
2009/04/23 15:29:14.3     414    408    172    582    608  45.5  16.5  34262  291.31 0854.44
2009/04/23 15:29:14.4     400    324    205    515    554  51.0  23.0  34278  291.59 0854.44
2009/04/23 15:29:14.5     301    267    236    403    467  48.5  33.3  34310  292.11 0854.44
2009/04/23 15:29:14.6     263    273    324    380    499  43.9  44.8  34332  292.50 0854.44
2009/04/23 15:29:14.7     409    273    210    492    534  56.3  24.6  34294  291.84 0854.44
2009/04/23 15:29:14.8     386    273    154    473    498  54.7  18.0  34236  290.85 0854.44
2009/04/23 15:29:14.9     414    257    157    488    513  58.2  17.9  34286  291.70 0854.44
2009/04/23 15:29:15.0     297    460     91    548    556  32.9   9.5  34160  289.57 0854.44
2009/04/23 15:29:15.1     283    233    137    367    391  50.5  21.6  34258  291.23 0854.43
2009/04/23 15:29:15.2     309    204    279    371    464  56.5  40.7  34330  292.45 0854.43
2009/04/23 15:29:15.3     363    265    270    450    524  53.8  33.8  34332  292.51 0854.43
2009/04/23 15:29:15.4     438    183    297    475    560  67.3  35.0  34246  291.04 0854.43
2009/04/23 15:29:15.5     429    178    263    465    534  67.4  32.0  34242  290.95 0854.43
2009/04/23 15:29:15.6     359    260    189    444    482  54.1  24.5  34302  291.99 0854.43
2009/04/23 15:29:15.7     348    285     88    451    460  50.7  11.1  34306  292.04 0854.43
2009/04/23 15:29:15.8     224    252    133    338    363  41.7  22.7  34278  291.59 0854.43
2009/04/23 15:29:15.9     319    245    200    403    449  52.5  28.2  34284  291.69 0854.43
2009/04/23 15:29:16.0     270    250    249    369    445  47.2  37.4  34282  291.65 0854.43
2009/04/23 15:29:16.1     297    118    126    320    343  68.2  22.8  34238  290.88 0854.43
2009/04/23 15:29:16.2     251    243    176    350    391  45.9  28.7  34270  291.45 0854.43
2009/04/23 15:29:16.3     219    280    142    356    383  38.0  23.0  34216  290.52 0854.43
2009/04/23 15:29:16.4     219    223    149    313    346  44.5  27.3  34164  289.65 0854.43
2009/04/23 15:29:16.5     201    261    143    330    359  37.7  25.0  34198  290.21 0854.43
2009/04/23 15:29:16.6     257    309     31    403    405  39.8   4.5  34236  290.87 0854.43
2009/04/23 15:29:16.7     305    138    -84    335    346  65.6 -14.1  34230  290.77 0854.43
2009/04/23 15:29:16.8     340    124     87    363    374  70.0  13.6  34308  292.07 0854.43
2009/04/23 15:29:16.9     340    119     14    361    362  70.7   2.2  34268  291.39 0854.43
2009/04/23 15:29:17.0     278    147     48    315    319  62.1   8.8  34248  291.05 0854.43
2009/04/23 15:29:17.1     299    212     34    367    369  54.7   5.4  34230  290.77 0854.42
2009/04/23 15:29:17.2     186    149    -85    239    253  51.4 -24.6  34220  290.58 0854.42
2009/04/23 15:29:17.3     141     62    -74    155    171  66.4 -31.6  34200  290.26 0854.42
2009/04/23 15:29:17.4     183    192    -76    266    277  43.7 -16.0  34200  290.24 0854.42
2009/04/23 15:29:17.5     375    173     25    414    415  65.2   3.5  34210  290.41 0854.42
2009/04/23 15:29:17.6     455     64     98    460    471  82.0  12.1  34214  290.49 0854.42
2009/04/23 15:29:17.7     423    -45     75    426    433  96.1  10.0  34216  290.53 0854.42
2009/04/23 15:29:17.8     377    115    214    395    449  73.0  31.0  34238  290.89 0854.42
2009/04/23 15:29:17.9     278     94    162    294    335  71.2  31.4  34246  291.02 0854.42
2009/04/23 15:29:18.0     234     97     52    254    260  67.4  11.6  34240  290.93 0854.42
2009/04/23 15:29:18.1     149     92     52    176    184  58.2  16.6  34242  290.96 0854.42
2009/04/23 15:29:18.2     170    -16    156    171    231  95.5  47.5  34250  291.11 0854.42
2009/04/23 15:29:18.3     131   -172    142    217    259 142.8  36.3  34238  290.88 0854.42
2009/04/23 15:29:18.4     120   -128    145    176    228 137.0  43.7  34250  291.09 0854.42
2009/04/23 15:29:18.5      31   -155     64    159    171 168.4  23.0  34222  290.64 0854.42
2009/04/23 15:29:18.6      52   -170     88    179    199 162.8  28.0  34224  290.67 0854.42
2009/04/23 15:29:18.7     107   -145    107    181    210 143.7  33.5  34230  290.75 0854.42
2009/04/23 15:29:18.8     117   -110    135    161    210 133.1  44.1  34238  290.91 0854.42
2009/04/23 15:29:18.9     155   -154    170    219    277 134.7  41.7  34250  291.09 0854.42
2009/04/23 15:29:19.0     183   -183    185    259    318 135.0  39.1  34254  291.16 0854.42
2009/04/23 15:29:19.1     114   -207    203    237    312 151.0  45.1  34244  291.00 0854.41
2009/04/23 15:29:19.2      91   -133    131    162    208 145.7  43.3  34248  291.08 0854.41
2009/04/23 15:29:19.3     156   -156    116    222    250 135.0  29.8  34218  290.56 0854.41
2009/04/23 15:29:19.4     129   -123    158    179    238 133.8  46.2  34272  291.49 0854.41
2009/04/23 15:29:19.5     135    -68    113    152    189 116.6  40.1  34264  291.33 0854.41
2009/04/23 15:29:19.6     163     14    184    164    246  84.8  53.7  34262  291.32 0854.41
2009/04/23 15:29:19.7     100      0    142    101    174  90.4  61.3  34274  291.50 0854.41
2009/04/23 15:29:19.8     205     62    102    215    237  73.1  27.2  34234  290.82 0854.41
2009/04/23 15:29:19.9     152    123     -8    196    197  51.1  -2.6  34228  290.72 0854.41
2009/04/23 15:29:20.0      44    155     -2    162    163  15.8  -0.7  34232  290.79 0854.41
2009/04/23 15:29:20.1      37    181     15    185    186  11.6   4.9  34248  291.06 0854.41
2009/04/23 15:29:20.2      32    159     30    163    166  11.6  10.6  34234  290.84 0854.41
2009/04/23 15:29:20.3      69    136     -6    153    154  27.2  -2.2  34244  290.99 0854.41
2009/04/23 15:29:20.4     111    122     17    166    167  42.3   5.9  34244  291.01 0854.41
2009/04/23 15:29:20.5     128    120     11    176    177  46.9   3.8  34244  290.99 0854.41
2009/04/23 15:29:20.6      96     66     36    117    123  55.4  17.4  34232  290.81 0854.41
2009/04/23 15:29:20.7     100     76     -9    126    127  52.7  -4.1  34238  290.89 0854.41
2009/04/23 15:29:20.8     199    185     97    273    290  47.1  19.6  34254  291.17 0854.41
2009/04/23 15:29:20.9     183    133     95    227    246  54.0  24.1  34246  291.04 0854.41
2009/04/23 15:29:21.0     139     80     61    161    172  60.0  21.5  34246  291.04 0854.41
2009/04/23 15:29:21.1      94     27     92     98    134  73.6  48.5  34264  291.35 0854.40
2009/04/23 15:29:21.2     128    -18     69    130    147  98.0  29.8  34276  291.55 0854.40
2009/04/23 15:29:21.3     155     36    118    160    198  76.7  40.1  34236  290.87 0854.40
2009/04/23 15:29:21.4     140     99     -9    172    173  54.5  -3.3  34210  290.43 0854.40
2009/04/23 15:29:21.5     144     75     33    163    167  62.5  11.4  34232  290.81 0854.40
2009/04/23 15:29:21.6     249     94    140    267    301  69.2  30.1  34256  291.21 0854.40
2009/04/23 15:29:21.7     177    125    205    217    298  54.7  48.0  34250  291.09 0854.40
2009/04/23 15:29:21.8     161    161    117    229    257  45.0  29.3  34262  291.29 0854.40
2009/04/23 15:29:21.9     149     27     79    152    171  79.4  29.5  34266  291.37 0854.40
2009/04/23 15:29:22.0      76     40    137     87    162  62.0  64.7  34280  291.62 0854.40
2009/04/23 15:29:22.1     144     29    101    147    178  78.5  38.0  34274  291.52 0854.40
2009/04/23 15:29:22.2     125    102     90    162    185  50.9  31.4  34238  290.89 0854.40
2009/04/23 15:29:22.3     142    157     97    212    233  42.1  26.4  34238  290.91 0854.40
2009/04/23 15:29:22.4      64    191     20    202    204  18.7   5.9  34258  291.23 0854.40
2009/04/23 15:29:22.5       6    251     -5    252    253   1.4  -1.3  34262  291.29 0854.40
2009/04/23 15:29:22.6       6    218   -108    219    244   1.6 -32.6  34224  290.65 0854.40
2009/04/23 15:29:22.7      10    313    -60    314    320   2.0 -10.9  34246  291.02 0854.40
2009/04/23 15:29:22.8     -41    205    -26    210    212 348.5  -7.2  34244  291.01 0854.40
2009/04/23 15:29:22.9     -65    241    -63    250    258 344.9 -14.3  34260  291.26 0854.40
2009/04/23 15:29:23.0    -138    271    -32    305    307 333.0  -6.1  34258  291.22 0854.40
2009/04/23 15:29:23.1    -265     87    -77    279    290 288.2 -15.5  34204  290.32 0854.39
2009/04/23 15:29:23.2    -367      5   -143    368    394 270.9 -26.7  34162  289.60 0854.39
2009/04/23 15:29:23.3    -311    -30    -22    313    314 264.3  -4.1  34174  289.80 0854.39
2009/04/23 15:29:23.4    -425    -55      1    429    430 262.6   0.2  34170  289.73 0854.39
2009/04/23 15:29:23.5    -384    128   -183    405    444 288.5 -30.6  34214  290.48 0854.39
2009/04/23 15:29:23.6    -286    233    -75    370    378 309.2 -11.5  34262  291.32 0854.39
2009/04/23 15:29:23.7    -279    143     11    314    315 297.1   2.1  34274  291.50 0854.39
2009/04/23 15:29:23.8    -183    118    123    219    251 302.9  32.1  34258  291.24 0854.39
2009/04/23 15:29:23.9    -180     -5    153    181    237 268.1  44.8  34264  291.33 0854.39
2009/04/23 15:29:24.0    -179   -100    189    206    279 240.9  47.5  34264  291.34 0854.39
2009/04/23 15:29:24.1    -187   -212    186    283    338 221.4  36.4  34268  291.41 0854.39
2009/04/23 15:29:24.2    -179   -180    157    255    299 224.8  34.8  34276  291.53 0854.39
2009/04/23 15:29:24.3    -237   -197    116    309    330 230.4  21.4  34296  291.89 0854.39
2009/04/23 15:29:24.4    -200   -164     74    259    270 230.7  16.0  34286  291.72 0854.39
2009/04/23 15:29:24.5    -232   -168     98    287    304 234.0  18.9  34282  291.65 0854.39
2009/04/23 15:29:24.6    -222   -105    134    246    280 244.6  31.0  34278  291.56 0854.39
2009/04/23 15:29:24.7    -259    -43     67    263    272 260.5  14.3  34266  291.38 0854.39
2009/04/23 15:29:24.8    -256    106   -145    278    313 292.6 -34.0  34202  290.29 0854.39
2009/04/23 15:29:24.9    -200    127   -157    237    284 302.4 -41.1  34186  290.02 0854.39
2009/04/23 15:29:25.0    -103    -34   -107    109    152 251.4 -54.4  34196  290.18 0854.39
2009/04/23 15:29:25.1     -59     49    102     77    127 309.6  58.5  34242  290.98 0854.41
2009/04/23 15:29:25.2     -76    -78     80    110    136 224.1  39.7  34236  290.86 0854.41
2009/04/23 15:29:25.3     -92    -41    -31    101    105 246.0 -22.3  34248  291.06 0854.41
2009/04/23 15:29:25.4     -77     71    -32    105    110 312.7 -17.0  34238  290.89 0854.41
2009/04/23 15:29:25.5    -113     57     26    127    130 297.1  11.6  34158  289.53 0854.41
2009/04/23 15:29:25.6     -86    -46    137     98    168 242.0  61.1  34234  290.84 0854.41
2009/04/23 15:29:25.7     -65   -176    167    188    251 200.5  46.2  34262  291.29 0854.41
2009/04/23 15:29:25.8      12   -148    185    149    237 175.1  57.3  34258  291.25 0854.41
2009/04/23 15:29:25.9      14   -102    115    104    155 172.0  53.3  34252  291.15 0854.41
2009/04/23 15:29:26.0     -72    -51     41     89     97 234.9  26.6  34252  291.13 0854.41
2009/04/23 15:29:26.1      -9    -86     68     87    110 186.2  42.2  34254  291.16 0854.41
2009/04/23 15:29:26.2      47    -77    134     91    161 148.4  62.6  34236  290.86 0854.41
2009/04/23 15:29:26.3     157    -26    115    160    197  99.7  39.3  34242  290.96 0854.41
2009/04/23 15:29:26.4     119    -30    123    123    173 104.2  50.1  34258  291.25 0854.41
2009/04/23 15:29:26.5      61     20     80     65    103  71.8  56.4  34254  291.18 0854.41
2009/04/23 15:29:26.6      56     19     56     60     82  71.4  48.5  34262  291.30 0854.41
2009/04/23 15:29:26.7     -22     27     69     36     77 320.4  70.8  34282  291.66 0854.41
2009/04/23 15:29:26.8      -5     18     33     19     38 341.7  64.7  34272  291.49 0854.41
2009/04/23 15:29:26.9     -19    -26    110     33    114 216.1  82.3  34260  291.26 0854.41
2009/04/23 15:29:27.0     -29     65     90     72    115 335.5  56.4  34250  291.11 0854.41
2009/04/23 15:29:27.1     -20    130    119    132    177 351.1  46.9  34246  291.03 0854.42
2009/04/23 15:29:27.2     -17    168    139    169    218 354.2  43.7  34242  290.98 0854.42
2009/04/23 15:29:27.3    -144    211    137    256    290 325.7  30.3  34240  290.93 0854.42
2009/04/23 15:29:27.4    -234    139    127    273    301 300.7  27.0  34252  291.14 0854.42
2009/04/23 15:29:27.5    -173     61     95    184    207 289.5  29.3  34238  290.91 0854.42
2009/04/23 15:29:27.6     -28    -13    120     31    123 244.6  85.4  34258  291.23 0854.42
2009/04/23 15:29:27.7       5     73     65     74     98   4.4  46.4  34238  290.91 0854.42
2009/04/23 15:29:27.8     132     80     60    155    166  58.9  22.0  34258  291.25 0854.42
2009/04/23 15:29:27.9     234     70    196    245    313  73.2  42.7  34276  291.55 0854.42
2009/04/23 15:29:28.0      57    -65    181     87    200 139.0  72.7  34282  291.64 0854.42
2009/04/23 15:29:28.1      16    -86    221     88    237 169.3  77.1  34282  291.66 0854.42
2009/04/23 15:29:28.2      72     68    215    100    237  46.9  73.8  34254  291.16 0854.42
2009/04/23 15:29:28.3     285     77    169    296    340  74.9  32.3  34264  291.34 0854.42
2009/04/23 15:29:28.4     351    190    104    400    414  61.6  14.7  34158  289.53 0854.42
2009/04/23 15:29:28.5     295    375    190    478    514  38.2  22.9  34186  290.00 0854.42
2009/04/23 15:29:28.6     298    328    157    444    470  42.2  20.3  34172  289.78 0854.42
2009/04/23 15:29:28.7     200    350    171    404    438  29.7  24.3  34228  290.73 0854.42
2009/04/23 15:29:28.8     119    429    155    446    473  15.6  19.2  34260  291.26 0854.42
2009/04/23 15:29:28.9     166    384    142    419    443  23.4  18.8  34290  291.77 0854.42
2009/04/23 15:29:29.0     192    265     39    328    331  36.0   6.8  34248  291.08 0854.42
2009/04/23 15:29:29.1      94    246      8    264    265  21.0   1.8  34252  291.12 0854.42
2009/04/23 15:29:29.2     -13    260     13    261    262 357.1   2.9  34234  290.82 0854.42
2009/04/23 15:29:29.3     -18    246     29    247    249 355.6   6.7  34248  291.05 0854.42
2009/04/23 15:29:29.4     -47    230    182    235    297 348.4  41.7  34254  291.17 0854.42
2009/04/23 15:29:29.5     108    315     31    334    336  19.0   5.3  34248  291.08 0854.42
2009/04/23 15:29:29.6      39    240    -83    244    259   9.3 -18.9  34260  291.26 0854.42
2009/04/23 15:29:29.7     -27    400     53    401    405 356.1   7.6  34278  291.58 0854.42
2009/04/23 15:29:29.8    -124    307     78    332    342 337.9  13.2  34288  291.76 0854.42
2009/04/23 15:29:29.9     -67    324    136    332    358 348.2  23.5  34284  291.68 0854.42
2009/04/23 15:29:30.0    -237    368     -9    439    440 327.2  -1.3  34302  291.99 0854.42
2009/04/23 15:29:30.1    -351    132   -140    376    401 290.6 -25.8  34218  290.54 0854.43
2009/04/23 15:29:30.2    -319    150   -125    353    375 295.2 -19.6  34154  289.47 0854.43
2009/04/23 15:29:30.3    -246    146    -82    287    298 300.7 -20.7  34156  289.51 0854.43
2009/04/23 15:29:30.4    -287     87   -145    301    334 286.9 -31.8  34160  289.58 0854.43
2009/04/23 15:29:30.5    -222    200   -222    299    372 312.0 -44.6  34170  289.74 0854.43
2009/04/23 15:29:30.6    -104    266   -157    286    326 338.6 -35.7  34228  290.73 0854.43
2009/04/23 15:29:30.7     240    223    -83    328    339  47.1 -14.3  34260  291.27 0854.43
2009/04/23 15:29:30.8     139    320    -77    349    358  23.5 -12.5  34282  291.64 0854.43
2009/04/23 15:29:30.9     244    250     35    350    352  44.4   5.8  34274  291.52 0854.43
2009/04/23 15:29:31.0     217    282     55    356    361  37.6   8.9  34290  291.79 0854.43
2009/04/23 15:29:31.1     254    169    -85    306    318  56.3 -15.5  34272  291.46 0854.43
2009/04/23 15:29:31.2     218    218     83    309    321  45.0  15.1  34244  291.00 0854.43
2009/04/23 15:29:31.3     329    168     44    370    373  62.9   6.9  34264  291.34 0854.43
2009/04/23 15:29:31.4     321    225     33    393    395  55.0   4.9  34258  291.22 0854.43
2009/04/23 15:29:31.5     315    202     28    375    376  57.4   4.4  34252  291.13 0854.43
2009/04/23 15:29:31.6     259    235     50    350    354  47.8   8.2  34244  291.01 0854.43
2009/04/23 15:29:31.7     251    127     98    282    299  63.1  19.2  34292  291.80 0854.43
2009/04/23 15:29:31.8     219    139    145    260    297  57.6  31.4  34298  291.90 0854.43
2009/04/23 15:29:31.9     232    166    216    286    358  54.5  40.9  34332  292.48 0854.43
2009/04/23 15:29:32.0     294    128    160    321    358  66.5  28.5  34332  292.49 0854.43
2009/04/23 15:29:32.1     278    123    125    305    329  66.0  23.6  34302  291.97 0854.43
2009/04/23 15:29:32.2     314    134    153    342    374  66.8  25.7  34278  291.59 0854.43
2009/04/23 15:29:32.3     262    144     95    300    315  61.1  17.7  34298  291.90 0854.43
2009/04/23 15:29:32.4     348    187    115    396    413  61.7  16.3  34316  292.23 0854.43
2009/04/23 15:29:32.5     284    124    104    311    329  66.4  18.6  34326  292.38 0854.43
2009/04/23 15:29:32.6     144     92    102    171    199  57.4  33.5  34336  292.58 0854.43
2009/04/23 15:29:32.7      62    120    101    136    169  27.2  40.4  34318  292.25 0854.43
2009/04/23 15:29:32.8      55     78    101     96    139  35.6  51.6  34342  292.66 0854.43
2009/04/23 15:29:32.9     124     33     75    129    149  74.9  33.4  34370  293.15 0854.43
2009/04/23 15:29:33.0     224     46     76    229    242  78.3  18.5  34360  292.96 0854.43
2009/04/23 15:29:33.1     261    114     28    285    287  66.4   5.7  34292  291.82 0854.43
2009/04/23 15:29:33.2      77    135     34    156    160  29.9  12.6  34334  292.52 0854.43
2009/04/23 15:29:33.3     103    162    102    193    218  32.5  30.1  34344  292.69 0854.43
2009/04/23 15:29:33.4     255    111     65    279    287  66.5  13.1  34312  292.14 0854.43
2009/04/23 15:29:33.5     154     54     82    164    183  70.5  28.7  34320  292.29 0854.43
2009/04/23 15:29:33.6     253     63     49    261    266  75.9  10.8  34290  291.77 0854.43
2009/04/23 15:29:33.7     300    131     -2    328    329  66.3  -0.5  34300  291.94 0854.43
2009/04/23 15:29:33.8     395     -6     80    396    404  90.9  11.5  34298  291.90 0854.43
2009/04/23 15:29:33.9     206      7    173    207    269  87.9  43.8  34290  291.78 0854.43
2009/04/23 15:29:34.0     234     44    209    239    317  79.2  45.8  34298  291.92 0854.43
2009/04/23 15:29:34.1     329     32    208    331    390  84.4  35.1  34306  292.05 0854.42
2009/04/23 15:29:34.2     337     53    162    342    378  81.0  27.2  34294  291.86 0854.42
2009/04/23 15:29:34.3     333    109     17    351    352  71.8   2.9  34262  291.30 0854.42
2009/04/23 15:29:34.4     345     24    149    346    376  86.0  24.8  34290  291.79 0854.42
2009/04/23 15:29:34.5     389     -6     54    390    394  91.0   8.0  34272  291.49 0854.42
2009/04/23 15:29:34.6     401    -36     62    403    408  95.2   8.8  34268  291.40 0854.42
2009/04/23 15:29:34.7     407    -27     57    408    413  93.9   8.0  34282  291.63 0854.42
2009/04/23 15:29:34.8     459     39    130    461    480  85.1  15.8  34302  291.99 0854.42
2009/04/23 15:29:34.9     456     63    163    461    488  82.1  20.3  34332  292.50 0854.42
2009/04/23 15:29:35.0     389    -35     65    391    397  95.2   9.4  34276  291.54 0854.42
2009/04/23 15:29:35.1     371     16     19    372    373  87.5   3.0  34268  291.39 0854.42
2009/04/23 15:29:35.2     284     76     41    294    297  75.0   8.0  34288  291.75 0854.42
2009/04/23 15:29:35.3     260     86    -80    274    286  71.6 -16.4  34282  291.65 0854.42
2009/04/23 15:29:35.4     443    119    -29    459    460  74.9  -3.7  34306  292.04 0854.42
2009/04/23 15:29:35.5     419     14     -3    420    421  88.0  -0.5  34290  291.77 0854.42
2009/04/23 15:29:35.6     370     28   -117    371    390  85.7 -17.6  34280  291.61 0854.42
2009/04/23 15:29:35.7     422     21     39    423    426  87.1   5.3  34280  291.62 0854.42
2009/04/23 15:29:35.8     230    -22    173    232    289  95.7  40.6  34268  291.41 0854.42
2009/04/23 15:29:35.9     211    -16    183    212    280  94.6  45.4  34258  291.22 0854.42
2009/04/23 15:29:36.0     244    -33    228    247    336  97.7  47.6  34258  291.24 0854.42
2009/04/23 15:29:36.1     261    -70    169    271    319 105.1  35.1  34248  291.05 0854.39
2009/04/23 15:29:36.2     289     66     -3    297    298  77.0  -0.7  34242  290.97 0854.39
2009/04/23 15:29:36.3     392     86     30    402    404  77.6   4.4  34224  290.65 0854.39
2009/04/23 15:29:36.4     488    199     52    528    531  67.8   5.7  34236  290.87 0854.39
2009/04/23 15:29:36.5     549    250      7    604    605  65.5   0.7  34200  290.25 0854.39
2009/04/23 15:29:36.6     404    181     87    443    452  65.8  11.1  34198  290.22 0854.39
2009/04/23 15:29:36.7     206    286     81    353    363  35.8  12.9  34214  290.49 0854.39
2009/04/23 15:29:36.8     268    285    214    392    446  43.3  31.3  34214  290.50 0854.39
2009/04/23 15:29:36.9     225    297     68    373    380  37.2  10.4  34228  290.71 0854.39
2009/04/23 15:29:37.0     248    333    160    416    445  36.6  22.1  34210  290.43 0854.39
2009/04/23 15:29:37.1     197    445     76    487    494  23.9   8.9  34222  290.62 0854.39
2009/04/23 15:29:37.2     128    325    -44    350    353  21.5  -7.2  34188  290.04 0854.39
2009/04/23 15:29:37.3     148    359    -67    389    395  22.5  -9.9  34182  289.94 0854.39
2009/04/23 15:29:37.4      79    311    -47    321    325  14.3  -8.4  34202  290.27 0854.39
2009/04/23 15:29:37.5     168    295    -49    340    344  29.7  -8.2  34184  289.98 0854.39
2009/04/23 15:29:37.6    -123    396   -141    415    438 342.7 -23.7  34188  290.04 0854.39
2009/04/23 15:29:37.7    -287    179   -104    339    354 301.9 -21.9  34188  290.06 0854.39
2009/04/23 15:29:37.8    -109    162   -102    196    220 325.9 -33.9  34178  289.89 0854.39
2009/04/23 15:29:37.9    -222    206   -164    304    345 312.9 -35.2  34152  289.45 0854.39
2009/04/23 15:29:38.0    -283    180   -114    336    355 302.5 -18.8  34150  289.40 0854.39
2009/04/23 15:29:38.1    -235    182   -121    298    321 307.7 -27.8  34160  289.58 0854.39
2009/04/23 15:29:38.2    -124    202    -67    238    247 328.4 -20.4  34168  289.70 0854.39
2009/04/23 15:29:38.3     -71    265    -82    275    287 344.9 -16.6  34184  289.98 0854.39
2009/04/23 15:29:38.4      14    224     21    225    227   3.8   5.4  34184  289.99 0854.39
2009/04/23 15:29:38.5     -28    140     39    143    149 348.5  15.2  34192  290.13 0854.39
2009/04/23 15:29:38.6     159     76    125    177    216  64.2  38.8  34188  290.04 0854.39
2009/04/23 15:29:38.7      38    110    151    117    191  19.2  58.2  34178  289.87 0854.39
2009/04/23 15:29:38.9      11    252    220    253    335   2.7  45.5  34180  289.92 0854.39
2009/04/23 15:29:38.9     -11    138    250    139    286 355.1  68.8  34188  290.05 0854.39
2009/04/23 15:29:39.0      81    125    266    150    305  33.0  68.3  34188  290.05 0854.39
2009/04/23 15:29:39.1     326    264    197    420    463  51.0  27.1  34176  289.85 0854.39
2009/04/23 15:29:39.2     250    378    160    454    481  33.5  20.2  34166  289.67 0854.39
2009/04/23 15:29:39.3      65    377    204    383    433   9.8  30.3  34182  289.95 0854.39
2009/04/23 15:29:39.4     182    335    166    382    416  28.5  25.0  34184  289.99 0854.39
2009/04/23 15:29:39.5     432     60    145    437    461  82.0  18.4  34166  289.66 0854.39
2009/04/23 15:29:39.6     548     81    130    555    571  81.5  13.2  34166  289.67 0854.39
2009/04/23 15:29:39.7     438    162    180    468    501  69.7  22.2  34172  289.79 0854.39
2009/04/23 15:29:39.8     363    192    261    411    486  62.1  35.5  34184  289.99 0854.39
2009/04/23 15:29:39.9     327    237    222    405    461  54.0  31.3  34190  290.07 0854.39
2009/04/23 15:29:40.1     320    246    182    404    443  52.4  26.0  34176  289.85 0854.39
2009/04/23 15:29:40.1     278    259    103    381    395  47.0  15.2  34184  289.98 0854.36
2009/04/23 15:29:40.2     372    339     63    504    509  47.6   7.2  34192  290.13 0854.36
2009/04/23 15:29:40.3     448    280     56    529    533  58.0   6.1  34176  289.84 0854.36
2009/04/23 15:29:40.4     435    230    -30    493    494  62.1  -3.5  34166  289.67 0854.36
2009/04/23 15:29:40.6     369    203      2    422    423  61.2   0.4  34180  289.90 0854.36
2009/04/23 15:29:40.6     487    223    -67    536    541  65.4  -7.2  34170  289.75 0854.36
2009/04/23 15:29:40.7     465    172    -91    496    505  69.7 -10.5  34172  289.79 0854.36
2009/04/23 15:29:40.8     415    152    -53    443    447  69.9  -6.9  34176  289.83 0854.36
2009/04/23 15:29:41.0     287    190     17    345    346  56.5   2.9  34182  289.96 0854.36
2009/04/23 15:29:41.1     313    126     48    338    342  68.1   8.2  34182  289.94 0854.36
2009/04/23 15:29:41.2     220    159    185    272    328  54.0  37.4  34186  290.00 0854.36
2009/04/23 15:29:41.3      80    179    100    197    220  24.1  29.1  34190  290.08 0854.36
2009/04/23 15:29:41.4     216    203    -84    297    309  46.9 -15.9  34188  290.03 0854.36
2009/04/23 15:29:41.5     317    225    -50    390    394  54.6  -7.3  34164  289.65 0854.36
2009/04/23 15:29:41.6     284    217    -58    358    363  52.7  -9.3  34182  289.94 0854.36
2009/04/23 15:29:41.7     331    250     37    415    417  52.9   5.2  34228  290.73 0854.36
2009/04/23 15:29:41.8     270    276     90    387    398  44.4  13.1  34276  291.54 0854.36
2009/04/23 15:29:41.9     310    111     55    330    335  70.2   9.5  34214  290.49 0854.36
2009/04/23 15:29:42.0     373    205   -132    426    445  61.2 -22.3  34164  289.65 0854.36
2009/04/23 15:29:42.1     605    202   -143    639    656  71.5 -12.7  34186  290.01 0854.36
2009/04/23 15:29:42.2     334    181    -98    381    394  61.5 -14.5  34182  289.96 0854.35
2009/04/23 15:29:42.3     313    -22   -131    314    340  94.1 -28.2  34196  290.18 0854.35
2009/04/23 15:29:42.4     282    -35     24    285    287  97.1   5.0  34206  290.36 0854.35
2009/04/23 15:29:42.5     326    -87    -93    338    351 105.1 -15.5  34216  290.52 0854.35
2009/04/23 15:29:42.6     364    -11    -42    365    368  91.8  -6.6  34212  290.45 0854.35
2009/04/23 15:29:42.7     374     28     99    375    388  85.7  14.9  34204  290.33 0854.35
2009/04/23 15:29:42.8     418     12     50    419    423  88.3   6.9  34204  290.33 0854.35
2009/04/23 15:29:42.9     266    -39    -34    269    272  98.4  -7.3  34194  290.14 0854.35
2009/04/23 15:29:43.0     245   -100     11    265    266 112.2   2.5  34192  290.12 0854.35
2009/04/23 15:29:43.1     307   -226    139    382    406 126.3  20.8  34230  290.77 0854.35
2009/04/23 15:29:43.2     272   -139    195    306    362 117.1  35.5  34210  290.43 0854.35
2009/04/23 15:29:43.3     171   -145    173    225    283 130.2  41.6  34218  290.54 0854.35
2009/04/23 15:29:43.4     193     43    193    198    276  77.2  49.2  34234  290.82 0854.35
2009/04/23 15:29:43.5     181     67    224    194    296  69.6  54.6  34246  291.02 0854.35
2009/04/23 15:29:43.6       6    -16    163     18    163 158.2  90.0  34260  291.28 0854.35
2009/04/23 15:29:43.7      56     41    189     70    201  54.0  79.1  34244  291.01 0854.35
2009/04/23 15:29:43.8     124    -45    240    132    273 110.0  68.9  34244  291.00 0854.35
2009/04/23 15:29:43.9     225    -49    118    231    259 102.4  29.2  34190  290.07 0854.35
2009/04/23 15:29:44.0     279     -4     56    280    286  91.0  11.4  34178  289.86 0854.35
2009/04/23 15:29:44.1     273    153     32    314    316  60.7   6.0  34166  289.66 0854.32
2009/04/23 15:29:44.2     288    178    174    339    381  58.2  29.3  34166  289.67 0854.32
2009/04/23 15:29:44.3     161    204    207    261    333  38.3  42.6  34170  289.75 0854.32
2009/04/23 15:29:44.4     153    235    228    281    361  33.2  43.4  34182  289.94 0854.32
2009/04/23 15:29:44.5      81     95    208    126    243  40.5  65.7  34198  290.21 0854.32
2009/04/23 15:29:44.6     -28     70    197     76    211 338.2  78.2  34208  290.38 0854.32
2009/04/23 15:29:44.7     -90     67    210    113    238 306.9  69.6  34212  290.47 0854.32
2009/04/23 15:29:44.8     -71    112    229    133    264 327.5  67.5  34206  290.35 0854.32
2009/04/23 15:29:44.9     143    143    267    203    335  45.0  59.1  34190  290.09 0854.32
2009/04/23 15:29:45.0     267    139    185    301    353  62.5  34.3  34192  290.13 0854.32
2009/04/23 15:29:45.1     230    159    163    280    323  55.4  32.8  34188  290.05 0854.32
2009/04/23 15:29:45.2     192    120    222    227    317  58.0  49.4  34202  290.27 0854.32
2009/04/23 15:29:45.3     118     77    200    142    245  56.7  61.1  34210  290.41 0854.32
2009/04/23 15:29:45.4     292     21     84    293    305  85.9  16.0  34196  290.17 0854.32
2009/04/23 15:29:45.5     236     -7     83    237    252  91.7  19.4  34194  290.14 0854.32
2009/04/23 15:29:45.6     229    -17     34    230    233  94.4   8.5  34190  290.08 0854.32
2009/04/23 15:29:45.7     205    -25     75    207    220  97.0  20.7  34196  290.19 0854.32
2009/04/23 15:29:45.8     174    -77    130    191    231 114.0  37.6  34202  290.28 0854.32
2009/04/23 15:29:45.9     100   -113    171    152    228 138.5  54.0  34222  290.62 0854.32
2009/04/23 15:29:46.0     210   -136    181    251    309 122.9  39.5  34204  290.31 0854.32
2009/04/23 15:29:46.1     168    -74    197    184    269 113.7  52.1  34208  290.37 0854.34
2009/04/23 15:29:46.2      97    -28    140    102    173 106.4  60.5  34216  290.52 0854.34
2009/04/23 15:29:46.3     108    -40    116    116    164 110.4  50.1  34210  290.43 0854.34
2009/04/23 15:29:46.4     143    -33    121    147    190 103.2  43.7  34212  290.47 0854.34
2009/04/23 15:29:46.5     174    -37     82    179    196 102.2  26.2  34210  290.43 0854.34
2009/04/23 15:29:46.6     188    -63    119    199    231 108.6  34.0  34214  290.48 0854.34
2009/04/23 15:29:46.7     169    -41    156    174    233 103.7  46.9  34214  290.48 0854.34
2009/04/23 15:29:46.8     215   -138    159    256    301 122.9  35.2  34212  290.46 0854.34
2009/04/23 15:29:46.9     218   -120    128    249    279 118.9  29.3  34212  290.46 0854.34
2009/04/23 15:29:47.0     176   -167    168    243    295 133.6  37.8  34218  290.56 0854.34
2009/04/23 15:29:47.1     161    -71    185    177    256 114.0  51.4  34218  290.54 0854.34
2009/04/23 15:29:47.2     145    -92    173    173    244 122.5  50.1  34224  290.65 0854.34
2009/04/23 15:29:47.3      60    -84    139    104    173 144.4  59.8  34232  290.81 0854.34
2009/04/23 15:29:47.4     153     -8    174    154    232  93.0  54.0  34222  290.62 0854.34
2009/04/23 15:29:47.5     186    -69    200    199    282 110.6  50.1  34216  290.51 0854.34
2009/04/23 15:29:47.6     187     -4    191    188    268  91.3  50.4  34226  290.70 0854.34
2009/04/23 15:29:47.7     205    -41    208    210    295 101.5  50.0  34230  290.76 0854.34
2009/04/23 15:29:47.8     214    -26    210    216    301  97.0  49.2  34228  290.71 0854.34
2009/04/23 15:29:47.9     189      6    206    190    280  87.9  52.5  34230  290.75 0854.34
2009/04/23 15:29:48.0     182     13    210    183    278  85.7  54.3  34230  290.75 0854.34
2009/04/23 15:29:48.1     231    -17    208    232    311  94.4  46.6  34232  290.78 0854.34
2009/04/23 15:29:48.2     209    -16    194    210    285  94.4  47.7  34228  290.71 0854.34
2009/04/23 15:29:48.3      98    -80    190    127    228 129.5  63.4  34234  290.82 0854.34
2009/04/23 15:29:48.4      90    -48    150    103    181 118.4  62.4  34240  290.92 0854.34
2009/04/23 15:29:48.5      69      5    164     70    178  85.6  75.9  34250  291.11 0854.34
2009/04/23 15:29:48.6     -11     34    189     36    192 341.7  89.6  34228  290.74 0854.34
2009/04/23 15:29:48.7     -25    -24    168     35    171 226.7  89.0  34238  290.91 0854.34
2009/04/23 15:29:48.8      -1    -28    151     29    153 182.7  89.1  34256  291.20 0854.34
2009/04/23 15:29:48.9       8     26     93     28     97  18.5  82.3  34262  291.30 0854.34
2009/04/23 15:29:49.0      -1    -34     91     35     97 182.6  78.6  34250  291.11 0854.34
2009/04/23 15:29:49.1      23     -8     88     25     91 110.0  83.9  34258  291.25 0854.34
2009/04/23 15:29:49.2      17   -124    165    126    207 172.0  58.7  34244  291.01 0854.34
2009/04/23 15:29:49.3      -7    -28    113     29    116 195.1  84.9  34256  291.20 0854.34
2009/04/23 15:29:49.4      15    -52    110     55    122 164.0  71.9  34262  291.32 0854.34
2009/04/23 15:29:49.5      20    -58    113     62    128 160.8  68.9  34264  291.35 0854.34
2009/04/23 15:29:49.6      16     22     86     28     90  36.1  80.7  34262  291.30 0854.34
2009/04/23 15:29:49.7      24    -64    102     69    123 159.1  62.7  34252  291.13 0854.34
2009/04/23 15:29:49.8      45     -1    114     46    122  91.7  77.1  34252  291.15 0854.34
2009/04/23 15:29:49.9      78     15    124     80    147  78.5  64.6  34232  290.79 0854.34
2009/04/23 15:29:50.0      28    -13     65     31     72 115.4  72.9  34262  291.30 0854.34
2009/04/23 15:29:50.1      40    -96    105    105    148 157.3  50.1  34266  291.38 0854.36
2009/04/23 15:29:50.2     -19    -50     76     54     93 200.9  61.1  34272  291.47 0854.36
2009/04/23 15:29:50.3     -29     33     72     45     84 318.6  64.7  34270  291.45 0854.36
2009/04/23 15:29:50.4    -132    103    135    168    215 308.0  43.3  34254  291.16 0854.36
2009/04/23 15:29:50.5    -101     22     92    104    138 282.4  46.4  34274  291.50 0854.36
2009/04/23 15:29:50.6     -48    -45    108     67    127 226.9  64.7  34276  291.55 0854.36
2009/04/23 15:29:50.7     -91    -65    115    112    160 234.5  50.7  34260  291.28 0854.36
2009/04/23 15:29:50.8    -107   -100     81    147    167 226.8  31.4  34248  291.06 0854.36
2009/04/23 15:29:50.9     -86    -98     92    131    160 221.4  38.6  34218  290.55 0854.36
2009/04/23 15:29:51.0    -102    -71     83    125    150 234.9  36.5  34214  290.48 0854.36
2009/04/23 15:29:51.1    -180     67    113    193    223 290.4  33.4  34322  292.34 0854.36
2009/04/23 15:29:51.2    -115    101     84    154    175 311.3  31.3  34326  292.40 0854.36
2009/04/23 15:29:51.3     -52    120     28    131    135 336.4  12.2  34326  292.39 0854.36
2009/04/23 15:29:51.4      12    163     49    164    172   4.4  16.6  34334  292.52 0854.36
2009/04/23 15:29:51.5      12    135     46    136    144   5.3  18.9  34340  292.63 0854.36
2009/04/23 15:29:51.6      25    175     65    177    188   8.2  21.0  34320  292.30 0854.36
2009/04/23 15:29:51.7      38    143     48    149    157  15.1  17.9  34322  292.32 0854.36
2009/04/23 15:29:51.8      85     61     30    105    110  54.1  16.3  34332  292.51 0854.36
2009/04/23 15:29:51.9      97     21      4    100    101  77.6   2.8  34346  292.73 0854.36
2009/04/23 15:29:52.0     111     44     12    120    121  68.2   5.9  34350  292.81 0854.36
2009/04/23 15:29:52.1     134     27     22    137    139  78.5   9.5  34356  292.90 0854.36
2009/04/23 15:29:52.2     246     37     21    249    250  81.4   4.9  34296  291.89 0854.36
2009/04/23 15:29:52.3     231     40    -43    235    239  80.1 -10.4  34298  291.90 0854.36
2009/04/23 15:29:52.4     236     65    114    245    270  74.5  27.0  34346  292.72 0854.36
2009/04/23 15:29:52.5     325     94     75    339    348  73.9  12.6  34282  291.66 0854.36
2009/04/23 15:29:52.6     239     77    124    252    280  72.2  28.2  34302  291.99 0854.36
2009/04/23 15:29:52.7     198    123    129    234    267  58.2  31.4  34308  292.09 0854.36
2009/04/23 15:29:52.8     165    138    103    216    239  50.0  27.3  34312  292.15 0854.36
2009/04/23 15:29:52.9     153     96    108    181    210  57.8  33.5  34328  292.44 0854.36
2009/04/23 15:29:53.0      85    129    130    155    202  33.4  44.3  34344  292.69 0854.36
2009/04/23 15:29:53.1     244    170    161    298    338  55.1  30.8  34278  291.56 0854.38
2009/04/23 15:29:53.2     340    118    161    361    395  70.8  25.7  34250  291.10 0854.38
2009/04/23 15:29:53.3     321     24    215    322    387  85.7  36.9  34298  291.93 0854.38
2009/04/23 15:29:53.4     380    218    197    439    481  60.1  25.9  34322  292.31 0854.38
2009/04/23 15:29:53.5     330    114    121    350    371  70.9  19.2  34292  291.81 0854.38
2009/04/23 15:29:53.6     169     57     62    179    190  71.4  19.2  34262  291.30 0854.38
2009/04/23 15:29:53.7     204   -129    -43    242    246 122.2 -10.1  34292  291.82 0854.38
2009/04/23 15:29:53.8     126   -104     -6    164    165 129.5  -2.2  34302  292.00 0854.38
2009/04/23 15:29:53.9     179   -216    -15    281    282 140.4  -3.2  34346  292.72 0854.38
2009/04/23 15:29:54.0     278   -126     36    306    309 114.4   6.9  34322  292.33 0854.38
2009/04/23 15:29:54.1     144   -196    -58    244    251 143.7 -13.4  34348  292.77 0854.38
2009/04/23 15:29:54.2     214   -107     41    240    244 116.6   9.9  34338  292.59 0854.38
2009/04/23 15:29:54.3     269   -155    136    311    339 120.0  25.1  34280  291.62 0854.38
2009/04/23 15:29:54.4     335   -243    198    415    459 126.0  27.3  34264  291.33 0854.38
2009/04/23 15:29:54.5     228   -271    293    355    460 139.9  43.7  34286  291.70 0854.38
2009/04/23 15:29:54.6     148   -303    260    338    426 153.9  41.5  34284  291.69 0854.38
2009/04/23 15:29:54.7     147   -321    195    354    404 155.4  31.3  34282  291.66 0854.38
2009/04/23 15:29:54.8     158   -261    157    306    343 148.8  29.2  34272  291.47 0854.38
2009/04/23 15:29:54.9     202   -278    -10    344    345 144.0  -1.8  34312  292.17 0854.38
2009/04/23 15:29:55.0     251   -223     31    336    338 131.6   5.3  34308  292.10 0854.38
2009/04/23 15:29:55.1     321    -86     54    333    338 105.1   9.2  34236  290.86 0854.39
2009/04/23 15:29:55.2     294   -149    -47    330    334 117.0  -8.2  34242  290.98 0854.39
2009/04/23 15:29:55.3     306   -107    -34    325    327 109.3  -6.1  34226  290.70 0854.39
2009/04/23 15:29:55.4     308   -108    -37    327    330 109.4  -6.6  34220  290.58 0854.39
2009/04/23 15:29:55.5     189    -90     30    210    213 115.4   8.2  34232  290.81 0854.39
2009/04/23 15:29:55.6     200   -150     78    251    263 126.9  17.3  34238  290.90 0854.39
2009/04/23 15:29:55.7     230   -202     78    307    317 131.3  14.4  34236  290.87 0854.39
2009/04/23 15:29:55.8     335    -84     81    346    356 104.2  13.3  34208  290.38 0854.39
2009/04/23 15:29:55.9     285    -80    125    297    322 105.7  24.2  34200  290.24 0854.39
2009/04/23 15:29:56.0     243    -75    175    255    309 107.3  37.6  34200  290.26 0854.39
2009/04/23 15:29:56.1     300     84    173    312    356  74.3  31.4  34212  290.45 0854.39
2009/04/23 15:29:56.2     273    -34     71    276    286  97.2  14.5  34208  290.37 0854.39
2009/04/23 15:29:56.3     189     26    168    191    254  82.1  45.8  34214  290.49 0854.39
2009/04/23 15:29:56.4     181      0    111    182    213  90.0  34.4  34214  290.50 0854.39
2009/04/23 15:29:56.5     158     53     54    167    176  71.2  17.9  34218  290.57 0854.39
2009/04/23 15:29:56.6     136     -2    -49    137    145  90.9 -24.4  34218  290.57 0854.39
2009/04/23 15:29:56.7     181     59     75    191    205  71.8  22.8  34214  290.50 0854.39
2009/04/23 15:29:56.8     235     26     69    237    247  83.6  16.3  34228  290.73 0854.39
2009/04/23 15:29:56.9     194     43     54    199    207  77.4  15.3  34228  290.74 0854.39
2009/04/23 15:29:57.0     233    -47     12    238    239 101.5   2.9  34234  290.82 0854.39
2009/04/23 15:29:57.1     288    -44     23    292    293  98.8   4.6  34246  291.04 0854.41
2009/04/23 15:29:57.2     152    -49     56    160    170 108.2  19.4  34250  291.09 0854.41
2009/04/23 15:29:57.3     114    -37      1    121    122 108.2   0.8  34252  291.15 0854.41
2009/04/23 15:29:57.4      41    -33     74     53     91 128.6  61.1  34254  291.16 0854.41
2009/04/23 15:29:57.5      75    -71    121    104    159 133.1  55.0  34250  291.09 0854.41
2009/04/23 15:29:57.6      52   -156    125    165    207 161.5  41.2  34222  290.64 0854.41
2009/04/23 15:29:57.7      33    -40    120     53    131 140.4  74.9  34252  291.15 0854.41
2009/04/23 15:29:57.8      18     31    136     37    140  30.7  84.9  34262  291.32 0854.41
2009/04/23 15:29:57.9     -26    -21    145     34    148 230.4  87.0  34262  291.30 0854.41
2009/04/23 15:29:58.0     -51    -51    117     73    137 225.0  64.7  34248  291.06 0854.41
2009/04/23 15:29:58.1      19     40    111     45    119  25.4  77.0  34260  291.26 0854.41
2009/04/23 15:29:58.2      84      7    123     85    149  84.8  62.1  34260  291.28 0854.41
2009/04/23 15:29:58.3       0     33     74     34     81 359.1  74.0  34266  291.38 0854.41
2009/04/23 15:29:58.4     -26     36     70     45     83 323.9  64.1  34278  291.59 0854.41
2009/04/23 15:29:58.5      11     49     73     51     89  12.5  61.5  34264  291.35 0854.41
2009/04/23 15:29:58.6     -53     97     92    111    144 331.0  43.7  34262  291.30 0854.41
2009/04/23 15:29:58.7    -131    103     26    168    171 308.2   9.0  34250  291.09 0854.41
2009/04/23 15:29:58.8    -138    146      2    202    203 316.6   0.8  34238  290.89 0854.41
2009/04/23 15:29:58.9    -140    125    -28    188    191 311.8  -8.6  34240  290.92 0854.41
2009/04/23 15:29:59.0    -117    121     19    169    171 316.1   6.5  34254  291.16 0854.41
2009/04/23 15:29:59.1     -49     45     15     67     69 312.2  13.2  34258  291.23 0854.42
2009/04/23 15:29:59.2      56     53     44     78     89  46.9  32.4  34272  291.47 0854.42
2009/04/23 15:29:59.3     144     32     55    148    157  77.2  21.3  34272  291.47 0854.42
2009/04/23 15:29:59.4     160     15    110    161    194  84.3  37.3  34284  291.67 0854.42
2009/04/23 15:29:59.5     182     49    106    189    216  74.7  31.4  34282  291.66 0854.42
2009/04/23 15:29:59.6     166     39    131    171    215  76.5  41.6  34290  291.77 0854.42
2009/04/23 15:29:59.7     163     32    171    167    239  78.8  50.7  34290  291.77 0854.42
2009/04/23 15:29:59.8     130     94     80    161    179  54.0  28.2  34270  291.45 0854.42
2009/04/23 15:29:59.9     158    178     86    239    254  41.7  20.4  34270  291.43 0854.42
2009/04/23 15:30:00.0     136    150     55    203    211  42.3  15.3  34258  291.23 0854.42
2009/04/23 15:30:00.1     123    101     92    160    184  50.5  32.7  34268  291.42 0854.42
2009/04/23 15:30:00.2     131     85    113    157    193  57.1  39.3  34278  291.59 0854.42
2009/04/23 15:30:00.3     133     83    146    157    214  58.0  47.9  34280  291.62 0854.42
2009/04/23 15:30:00.4     119     40    102    126    162  71.4  43.3  34276  291.55 0854.42
2009/04/23 15:30:00.5      47     26    119     54    130  61.1  74.0  34298  291.93 0854.42
2009/04/23 15:30:00.6      77     49    107     92    141  57.1  54.8  34306  292.05 0854.42
2009/04/23 15:30:00.7     -18     80     97     83    127 347.1  54.8  34286  291.71 0854.42
2009/04/23 15:30:00.8     -47    113     98    123    157 337.3  42.7  34282  291.66 0854.42
2009/04/23 15:30:00.9     -59     81     91    101    135 323.9  46.9  34292  291.81 0854.42
2009/04/23 15:30:01.0     -92     51     59    106    121 299.3  31.4  34286  291.72 0854.42
2009/04/23 15:30:01.1     -47     57     19     75     78 320.4  14.3  34298  291.93 0854.40
2009/04/23 15:30:01.2     -47     19    -17     51     54 292.6 -18.7  34296  291.89 0854.40
2009/04/23 15:30:01.3     -50      5    -24     51     56 276.1 -31.5  34292  291.83 0854.40
2009/04/23 15:30:01.4     -32     27    -26     43     50 310.4 -38.8  34296  291.89 0854.40
2009/04/23 15:30:01.5     -50    -10    -46     52     69 258.5 -51.3  34286  291.72 0854.40
2009/04/23 15:30:01.6     -12    -92    -50     93    105 187.6 -35.2  34278  291.59 0854.40
2009/04/23 15:30:01.7     -48    -95    -36    107    113 207.2 -18.7  34268  291.40 0854.40
2009/04/23 15:30:01.8     -84   -140    -53    164    173 211.2 -17.9  34224  290.67 0854.40
2009/04/23 15:30:01.9     -66   -203    -76    214    228 198.0 -19.7  34226  290.69 0854.40
2009/04/23 15:30:02.0     -24   -209    -33    211    214 186.7  -9.0  34236  290.87 0854.40
2009/04/23 15:30:02.1     -10   -205     40    206    210 182.9  11.0  34246  291.03 0854.40
2009/04/23 15:30:02.2     -42   -199    -47    204    210 192.0 -13.2  34220  290.60 0854.40
2009/04/23 15:30:02.3      -5   -163    -44    164    170 181.8 -15.2  34224  290.65 0854.40
2009/04/23 15:30:02.4     -54    -72    -66     91    112 217.0 -44.1  34254  291.18 0854.40
2009/04/23 15:30:02.5    -101     87    -65    134    148 310.9 -31.7  34248  291.06 0854.40
2009/04/23 15:30:02.6    -131     28    -40    135    140 282.4 -21.2  34248  291.06 0854.40
2009/04/23 15:30:02.7    -162     36    -54    167    175 282.6 -23.6  34240  290.94 0854.40
2009/04/23 15:30:02.8    -162    -26    -81    165    183 260.8 -32.4  34240  290.92 0854.40
2009/04/23 15:30:02.9    -180     -1    -59    181    190 269.4 -23.8  34244  290.99 0854.40
2009/04/23 15:30:03.0    -162      0    -43    163    169 270.0 -15.0  34256  291.21 0854.40
2009/04/23 15:30:03.1    -161     53    -68    170    183 288.4 -27.4  34258  291.23 0854.38
2009/04/23 15:30:03.2    -181    128    -45    222    227 305.3 -11.5  34250  291.09 0854.38
2009/04/23 15:30:03.3    -232     29    -61    234    242 277.2 -14.7  34234  290.83 0854.38
2009/04/23 15:30:03.4    -192     73    -62    206    216 290.8 -16.8  34238  290.91 0854.38
2009/04/23 15:30:03.5    -225     57    -64    233    242 284.4 -15.4  34240  290.93 0854.38
2009/04/23 15:30:03.6    -264     59    -83    271    283 282.6 -22.1  34166  289.68 0854.38
2009/04/23 15:30:03.7    -224     89    -74    242    253 291.7 -22.3  34184  289.97 0854.38
2009/04/23 15:30:03.8    -243     91    -47    260    265 290.6 -10.4  34256  291.19 0854.38
2009/04/23 15:30:03.9    -286     64    -79    294    305 282.6 -15.1  34160  289.56 0854.38
2009/04/23 15:30:04.0    -267     47    -93    272    287 280.1 -23.6  34160  289.58 0854.38
2009/04/23 15:30:04.1    -242     36    -77    245    256 278.6 -22.8  34180  289.92 0854.38
2009/04/23 15:30:04.2    -280     31    -84    282    294 276.4 -21.7  34164  289.64 0854.38
2009/04/23 15:30:04.3    -290     48   -103    294    312 279.5 -19.3  34154  289.47 0854.38
2009/04/23 15:30:04.4    -293     67   -108    301    321 283.0 -19.8  34152  289.42 0854.38
2009/04/23 15:30:04.5    -303     96   -114    319    339 287.7 -19.7  34158  289.55 0854.38
2009/04/23 15:30:04.6    -319     71   -122    327    349 282.7 -25.8  34156  289.52 0854.38
2009/04/23 15:30:04.7    -320     59   -129    326    350 280.5 -27.2  34160  289.57 0854.38
2009/04/23 15:30:04.8    -295     54   -132    300    327 280.5 -29.7  34158  289.54 0854.38
2009/04/23 15:30:04.9    -285     12   -130    286    314 272.6 -30.6  34160  289.56 0854.38
2009/04/23 15:30:05.0    -244      7   -151    245    287 271.7 -39.2  34158  289.53 0854.38
2009/04/23 15:30:05.1    -262    -29   -155    264    306 263.6 -37.8  34166  289.68 0854.36
2009/04/23 15:30:05.2    -168    -32   -153    172    230 259.2 -50.6  34200  290.26 0854.36
2009/04/23 15:30:05.3    -192     62    -55    202    210 287.9 -15.2  34214  290.50 0854.36
2009/04/23 15:30:05.4     -35     23    -87     42     96 303.3 -77.2  34240  290.94 0854.36
2009/04/23 15:30:05.5     -28    -27    -22     40     45 226.0 -36.8  34244  290.99 0854.36
2009/04/23 15:30:05.6    -104    -41    -35    112    118 248.3 -17.5  34226  290.69 0854.36
2009/04/23 15:30:05.7    -165    -11   -123    166    206 266.1 -44.8  34234  290.82 0854.36
2009/04/23 15:30:05.8    -175    -29    -63    178    190 260.5 -19.7  34248  291.06 0854.36
2009/04/23 15:30:05.9    -241    -25    -31    243    246 263.9  -7.5  34248  291.05 0854.36
2009/04/23 15:30:06.0    -263    -77    -95    275    290 253.6 -23.8  34194  290.15 0854.36
2009/04/23 15:30:06.1    -246    -48   -117    251    276 258.8 -31.4  34224  290.65 0854.36
2009/04/23 15:30:06.2    -268     29    -89    270    284 276.2 -23.8  34236  290.85 0854.36
2009/04/23 15:30:06.3    -211     -3    -84    212    228 269.0 -27.4  34238  290.91 0854.36
2009/04/23 15:30:06.4    -131     39    -24    137    140 286.8 -10.3  34256  291.20 0854.36
2009/04/23 15:30:06.5    -138    -50    -61    147    159 250.1 -28.2  34286  291.71 0854.36
2009/04/23 15:30:06.6    -154    -98    -20    183    185 237.6  -6.2  34286  291.72 0854.36
2009/04/23 15:30:06.7    -132    -67    -24    149    152 242.9  -9.4  34290  291.77 0854.36
2009/04/23 15:30:06.8    -107    -71    -20    129    131 236.3  -8.8  34302  292.00 0854.36
2009/04/23 15:30:06.9    -112    -37    -42    119    126 251.6 -23.8  34268  291.42 0854.36
2009/04/23 15:30:07.0     -80    -14    -48     82     95 259.9 -38.4  34268  291.40 0854.36
2009/04/23 15:30:07.1    -133    -10    -52    134    143 265.6 -26.9  34268  291.40 0854.37
2009/04/23 15:30:07.2    -203      8    -39    204    208 272.4 -10.9  34258  291.25 0854.37
2009/04/23 15:30:07.3    -260    -11    -35    261    264 267.5  -7.7  34260  291.27 0854.37
2009/04/23 15:30:07.4    -244     -6    -83    245    259 268.5 -18.7  34228  290.73 0854.37
2009/04/23 15:30:07.5    -319   -108    -24    338    339 251.2  -4.1  34240  290.94 0854.37
2009/04/23 15:30:07.6    -317   -144     13    349    350 245.5   2.2  34232  290.79 0854.37
2009/04/23 15:30:07.7    -273   -114     58    297    303 247.3  11.1  34244  291.00 0854.37
2009/04/23 15:30:07.8    -283   -112    158    305    343 248.3  29.4  34282  291.66 0854.37
2009/04/23 15:30:07.9    -242    -77    113    254    278 252.3  25.2  34260  291.27 0854.37
2009/04/23 15:30:08.0    -233    -91     95    251    268 248.7  21.7  34266  291.38 0854.37
2009/04/23 15:30:08.1    -205    -62    134    215    253 253.1  35.2  34260  291.27 0854.37
2009/04/23 15:30:08.2    -259    -88     75    274    285 251.2  15.3  34260  291.27 0854.37
2009/04/23 15:30:08.3    -240    -45    168    245    297 259.4  37.6  34250  291.09 0854.37
2009/04/23 15:30:08.4    -301   -100    157    318    354 251.6  28.2  34214  290.49 0854.37
2009/04/23 15:30:08.6    -307   -122     90    331    344 248.3  15.3  34214  290.50 0854.37
2009/04/23 15:30:08.7    -150    -50     92    159    183 251.4  32.7  34230  290.75 0854.37
2009/04/23 15:30:08.8    -244    -76    110    256    278 252.7  25.1  34240  290.92 0854.37
2009/04/23 15:30:08.9    -266     79     63    278    286 286.6  12.9  34244  290.99 0854.37
2009/04/23 15:30:09.0    -106     82     76    135    154 307.8  31.4  34244  290.99 0854.37
2009/04/23 15:30:09.1     -80    126    126    150    195 327.4  44.3  34232  290.79 0854.40
2009/04/23 15:30:09.2    -143    118     76    186    200 309.6  23.4  34232  290.81 0854.40
2009/04/23 15:30:09.3    -151     85     65    174    185 299.5  21.0  34230  290.77 0854.40
2009/04/23 15:30:09.4    -228     17     79    229    243 274.3  19.2  34230  290.76 0854.40
2009/04/23 15:30:09.5    -168    -69    109    182    212 247.4  34.0  34218  290.57 0854.40
2009/04/23 15:30:09.6    -208     33     21    211    213 279.2   5.9  34210  290.43 0854.40
2009/04/23 15:30:09.7    -301      4    -27    302    304 270.9  -5.2  34210  290.41 0854.40
2009/04/23 15:30:09.8    -235     10    -84    236    251 272.6 -19.7  34216  290.51 0854.40
2009/04/23 15:30:09.9    -248    -19    -27    249    251 265.6  -6.2  34208  290.39 0854.40
2009/04/23 15:30:10.0    -246      3     36    247    250 270.9   8.5  34240  290.93 0854.40
2009/04/23 15:30:10.1    -273      0    -45    274    278 270.0  -9.3  34198  290.20 0854.40
2009/04/23 15:30:10.2    -247    -18    -75    248    260 265.6 -16.8  34194  290.14 0854.40
2009/04/23 15:30:10.3    -240     -3    -67    241    251 269.2 -15.5  34202  290.29 0854.40
2009/04/23 15:30:10.4    -218     41    -61    222    231 280.8 -15.5  34216  290.53 0854.40
2009/04/23 15:30:10.5    -300     13    -25    301    303 272.6  -4.9  34248  291.07 0854.40
2009/04/23 15:30:10.6    -293     51    -11    298    299 279.9  -2.2  34252  291.14 0854.40
2009/04/23 15:30:10.7    -306     37     57    309    315 277.0  10.6  34258  291.24 0854.40
2009/04/23 15:30:10.8    -295    -14     63    296    303 267.2  12.2  34238  290.88 0854.40
2009/04/23 15:30:10.9    -253      7     18    254    255 271.7   4.2  34228  290.73 0854.40
2009/04/23 15:30:11.0    -240     -3     47    241    246 269.2  11.1  34250  291.10 0854.40
2009/04/23 15:30:11.1    -249     11    -13    250    251 272.6  -3.2  34236  290.85 0854.43
2009/04/23 15:30:11.2    -260     86    -45    275    279 288.4  -9.4  34214  290.48 0854.43
2009/04/23 15:30:11.3    -253    106    -71    275    285 292.7 -14.5  34218  290.56 0854.43
2009/04/23 15:30:11.4    -222     93    -76    241    253 292.7 -17.5  34214  290.49 0854.43
2009/04/23 15:30:11.5    -219     99    -71    241    251 294.4 -21.5  34236  290.85 0854.43
2009/04/23 15:30:11.6    -203     -9     -7    204    205 267.4  -2.2  34260  291.26 0854.43
2009/04/23 15:30:11.7    -234     23     24    236    238 275.7   6.0  34262  291.29 0854.43
2009/04/23 15:30:11.8    -263     20     34    264    267 274.4   7.5  34272  291.48 0854.43
2009/04/23 15:30:11.9    -205    111     -9    234    235 298.4  -2.2  34250  291.09 0854.43
2009/04/23 15:30:12.0    -128    110      0    169    170 310.7   0.2  34246  291.03 0854.43
2009/04/23 15:30:12.1     -84    101     41    132    139 320.3  17.3  34256  291.20 0854.45
2009/04/23 15:30:12.2    -128     99     30    162    165 307.8  10.6  34270  291.43 0854.45
2009/04/23 15:30:12.3    -121    122     60    173    184 315.2  19.2  34270  291.43 0854.45
2009/04/23 15:30:12.4     -55    125     69    137    153 336.3  28.7  34268  291.42 0854.45
2009/04/23 15:30:12.5     -32    115     84    120    146 344.4  38.6  34270  291.45 0854.45
2009/04/23 15:30:12.6     -52    120    120    132    178 336.4  47.5  34274  291.52 0854.45
2009/04/23 15:30:12.7     -27    176    153    179    235 351.1  44.9  34280  291.60 0854.45
2009/04/23 15:30:12.8      11    253    248    254    354   2.5  49.4  34322  292.31 0854.45
2009/04/23 15:30:12.9     -67    320    162    328    365 348.1  28.2  34332  292.49 0854.45
2009/04/23 15:30:13.0      78    270    197    282    343  16.1  38.5  34330  292.47 0854.45
2009/04/23 15:30:13.1     207    172    172    270    320  50.4  35.6  34304  292.01 0854.45
2009/04/23 15:30:13.2      87    158    106    181    209  29.0  33.1  34322  292.34 0854.45
2009/04/23 15:30:13.3     206    181    173    275    324  48.6  35.3  34352  292.84 0854.45
2009/04/23 15:30:13.4     239    149    171    282    329  58.0  34.2  34342  292.67 0854.45
2009/04/23 15:30:13.5     168    129    125    213    246  52.5  33.4  34338  292.60 0854.45
2009/04/23 15:30:13.6     213    389     -9    444    445  28.8  -1.3  34300  291.94 0854.45
2009/04/23 15:30:13.7     249    384     55    458    462  33.0   6.9  34324  292.37 0854.45
2009/04/23 15:30:13.8     109    420      6    434    435  14.6   0.8  34244  290.99 0854.45
2009/04/23 15:30:13.9      50    363    -21    367    368   7.9  -3.3  34240  290.93 0854.45
2009/04/23 15:30:14.0     175    290    -37    339    342  31.2  -6.2  34218  290.55 0854.45
2009/04/23 15:30:14.1     270    287     35    395    397  43.3   5.2  34344  292.70 0854.47
2009/04/23 15:30:14.2     287    223     87    364    375  52.2  13.5  34344  292.70 0854.47
2009/04/23 15:30:14.3     294    220     17    368    369  53.2   2.8  34352  292.83 0854.47
2009/04/23 15:30:14.4     395    320    297    509    589  51.0  32.9  34192  290.13 0854.47
2009/04/23 15:30:14.5     -52    199    315    206    376 345.3  63.9  34212  290.45 0854.47
2009/04/23 15:30:14.6     -57    309    115    315    335 349.5  21.0  34212  290.45 0854.47
2009/04/23 15:30:14.7     -24    313    109    315    334 355.5  19.1  34234  290.83 0854.47
2009/04/23 15:30:14.8     -29    353     86    355    366 355.3  13.7  34200  290.25 0854.47
2009/04/23 15:30:14.9      23    291     57    293    299   4.7  11.1  34208  290.37 0854.47
2009/04/23 15:30:15.0      63    201     32    211    214  17.4   8.8  34220  290.58 0854.47
2009/04/23 15:30:15.1    -128     56    -50    140    148 293.6 -24.8  34224  290.65 0854.47
2009/04/23 15:30:15.2     -67    121    -72    139    156 331.0 -33.7  34228  290.74 0854.47
2009/04/23 15:30:15.3     -12    180    -55    181    189 356.0 -22.1  34232  290.81 0854.47
2009/04/23 15:30:15.4      11     12   -138     17    139  43.2 -90.0  34246  291.04 0854.47
2009/04/23 15:30:15.5     -47     72    -98     87    131 327.0 -58.6  34238  290.91 0854.47
2009/04/23 15:30:15.6     -17    176    -54    177    185 354.4 -22.3  34220  290.60 0854.47
2009/04/23 15:30:15.7     115    246     -6    272    273  25.2  -1.3  34206  290.34 0854.47
2009/04/23 15:30:15.8      94    219     -8    239    240  23.2  -2.1  34206  290.36 0854.47
2009/04/23 15:30:15.9     149    192    -19    244    245  37.8  -4.6  34196  290.19 0854.47
2009/04/23 15:30:16.0     251    176     15    307    308  55.0   2.9  34180  289.90 0854.47
2009/04/23 15:30:16.1     282    164     71    327    335  59.7  12.3  34178  289.87 0854.50
2009/04/23 15:30:16.2     163    153     19    224    225  46.9   5.0  34200  290.26 0854.50
2009/04/23 15:30:16.3      61    149    -11    162    163  22.3  -4.1  34220  290.58 0854.50
2009/04/23 15:30:16.4      79     45    -65     92    112  60.2 -43.5  34222  290.64 0854.50
2009/04/23 15:30:16.5     111    -52   -119    123    171 115.2 -53.6  34212  290.47 0854.50
2009/04/23 15:30:16.6      73     -1   -145     74    162  90.8 -75.5  34240  290.94 0854.50
2009/04/23 15:30:16.7      54    -45   -140     71    156 129.6 -75.8  34254  291.18 0854.50
2009/04/23 15:30:16.8      53     50   -100     74    124  46.8 -64.4  34238  290.89 0854.50
2009/04/23 15:30:16.9      54    155   -111    165    198  19.2 -41.8  34238  290.91 0854.50
2009/04/23 15:30:17.0      84    149    -83    172    190  29.4 -31.7  34244  291.01 0854.50
2009/04/23 15:30:17.1      34     97    -54    104    117  19.6 -33.7  34238  290.89 0854.50
2009/04/23 15:30:17.2      21    -13   -150     25    152 122.4 -90.0  34228  290.72 0854.50
2009/04/23 15:30:17.3      87    -82   -137    120    182 133.1 -58.7  34234  290.82 0854.50
2009/04/23 15:30:17.4     184    -75   -191    199    275 112.2 -53.4  34218  290.56 0854.50
2009/04/23 15:30:17.5     185    -89   -173    206    269 115.8 -48.5  34224  290.65 0854.50
2009/04/23 15:30:17.6     236     10   -164    237    288  87.4 -42.2  34202  290.27 0854.50
2009/04/23 15:30:17.7     211     33   -117    214    243  81.0 -35.7  34196  290.19 0854.50
2009/04/23 15:30:17.8     173    -93   -133    197    237 118.4 -41.8  34232  290.79 0854.50
2009/04/23 15:30:17.9     155    -80    -91    175    197 117.3 -33.9  34222  290.64 0854.50
2009/04/23 15:30:18.0     242    -80    -80    256    268 108.4 -22.8  34196  290.17 0854.50
2009/04/23 15:30:18.1     203    -68    -32    215    218 108.6  -8.6  34196  290.18 0854.52
2009/04/23 15:30:18.2     155   -136    -74    207    219 131.3 -24.8  34224  290.67 0854.52
2009/04/23 15:30:18.3     170   -134    -92    217    235 128.2 -28.7  34222  290.62 0854.52
2009/04/23 15:30:18.4     185   -106    -64    214    223 119.8 -21.7  34206  290.36 0854.52
2009/04/23 15:30:18.5     196    -90    -64    216    226 114.8 -16.6  34198  290.21 0854.52
2009/04/23 15:30:18.6     223    -92    -26    242    244 112.4  -6.2  34188  290.05 0854.52
2009/04/23 15:30:18.7     227   -116     19    256    257 117.1   4.4  34208  290.37 0854.52
2009/04/23 15:30:18.8     174   -121     10    213    214 124.9   2.9  34188  290.06 0854.52
2009/04/23 15:30:18.9     175   -116     49    211    217 123.5  13.2  34196  290.18 0854.52
2009/04/23 15:30:19.0     203   -116      7    235    236 119.8   1.7  34208  290.37 0854.52
2009/04/23 15:30:19.1     211    -97     -9    233    234 114.8  -2.2  34216  290.53 0854.52
2009/04/23 15:30:19.2     229    -71     24    240    242 107.3   5.9  34216  290.53 0854.52
2009/04/23 15:30:19.3     185    -21    121    187    222  96.6  35.6  34218  290.57 0854.52
2009/04/23 15:30:19.4     147    -48    146    155    212 108.2  48.2  34204  290.33 0854.52
2009/04/23 15:30:19.5     162    -63     67    174    186 111.3  22.3  34200  290.25 0854.52
2009/04/23 15:30:19.6     145    -86     78    169    186 120.7  26.6  34198  290.21 0854.52
2009/04/23 15:30:19.7     168   -109     51    201    208 122.9  14.3  34202  290.30 0854.52
2009/04/23 15:30:19.8     168    -89     54    191    199 118.0  16.0  34198  290.23 0854.52
2009/04/23 15:30:19.9     151    -68     87    166    187 114.4  29.5  34198  290.21 0854.52
2009/04/23 15:30:20.0     119    -70     99    139    170 120.6  39.1  34210  290.43 0854.52
2009/04/23 15:30:20.1      85    -62    127    106    165 126.4  55.8  34208  290.40 0854.53
2009/04/23 15:30:20.2      94    -27    114     98    150 106.4  55.4  34200  290.25 0854.53
2009/04/23 15:30:20.3      89    -10     94     90    130  97.0  51.2  34188  290.06 0854.53
2009/04/23 15:30:20.4      51     -3     74     52     90  93.5  61.5  34200  290.26 0854.53
2009/04/23 15:30:20.5      30    -18     93     36     99 120.7  78.2  34216  290.53 0854.53
2009/04/23 15:30:20.6      30     22    101     38    107  54.0  79.2  34228  290.74 0854.53
2009/04/23 15:30:20.7      49    -27     99     56    113 118.9  68.3  34222  290.64 0854.53
2009/04/23 15:30:20.8      29    -18     82     35     89 122.4  76.1  34224  290.65 0854.53
2009/04/23 15:30:20.9      46    -19     75     50     90 112.6  63.6  34206  290.36 0854.53
2009/04/23 15:30:21.0       1    -44     57     45     72 178.2  56.4  34220  290.58 0854.53
2009/04/23 15:30:21.1      -3    -64     47     65     80 182.7  39.7  34214  290.48 0854.53
2009/04/23 15:30:21.2      33    -52     88     62    107 147.4  60.6  34222  290.62 0854.53
2009/04/23 15:30:21.3       7    -91     73     92    117 175.5  43.3  34232  290.81 0854.53
2009/04/23 15:30:21.4       1   -113     87    114    143 179.1  41.2  34232  290.79 0854.53
2009/04/23 15:30:21.5     -38    -56    105     68    125 214.3  64.6  34252  291.13 0854.53
2009/04/23 15:30:21.6       0    -71    122     72    141 180.0  66.8  34248  291.08 0854.53
2009/04/23 15:30:21.7      15    -76     83     78    113 168.5  51.6  34230  290.77 0854.53
2009/04/23 15:30:21.8       5    -89     99     90    133 176.4  52.7  34212  290.47 0854.53
2009/04/23 15:30:21.9      -7    -79    106     80    132 185.3  58.5  34218  290.57 0854.53
2009/04/23 15:30:22.0      19    -51     74     55     92 159.1  59.4  34230  290.77 0854.53
2009/04/23 15:30:22.1      76    -39     77     86    115 117.1  46.9  34210  290.41 0854.49
2009/04/23 15:30:22.2      85    -86     76    121    142 135.3  35.5  34188  290.06 0854.49
2009/04/23 15:30:22.3      83    -68     83    108    136 129.1  41.7  34192  290.11 0854.49
2009/04/23 15:30:22.4      59    -55     85     81    117 133.1  51.2  34198  290.21 0854.49
2009/04/23 15:30:22.5      41    -42     84     59    102 135.9  61.1  34210  290.41 0854.49
2009/04/23 15:30:22.6     -20    -32     82     38     90 212.5  73.1  34226  290.69 0854.49
2009/04/23 15:30:22.7      54    -37     92     66    113 125.1  60.6  34240  290.94 0854.49
2009/04/23 15:30:22.8      -1    -86     74     87    114 180.9  44.8  34216  290.52 0854.49
2009/04/23 15:30:22.9      22   -133    126    135    184 170.2  48.0  34194  290.16 0854.49
2009/04/23 15:30:23.0       1    -99    125    100    160 179.1  57.5  34198  290.23 0854.49
2009/04/23 15:30:23.1       2   -114    146    115    185 179.0  57.9  34200  290.25 0854.49
2009/04/23 15:30:23.2     -16    -93    130     95    161 189.8  60.3  34196  290.18 0854.49
2009/04/23 15:30:23.3      10    -58     92     59    109 170.2  64.6  34208  290.38 0854.49
2009/04/23 15:30:23.4       4     63     74     64     97   4.5  54.3  34240  290.92 0854.49
2009/04/23 15:30:23.5      -2     56    105     57    119 357.3  68.9  34230  290.77 0854.49
2009/04/23 15:30:23.6      12      3     66     13     67  74.9  89.1  34234  290.84 0854.49
2009/04/23 15:30:23.7      -8     -9     10     13     16 223.4  39.7  34238  290.91 0854.49
2009/04/23 15:30:23.8      67     -5    109     68    128  94.4  64.7  34236  290.86 0854.49
2009/04/23 15:30:23.9      31     18     87     37     94  59.3  75.5  34250  291.11 0854.49
2009/04/23 15:30:24.0      23    -40    118     47    127 150.1  77.6  34252  291.13 0854.49
2009/04/23 15:30:24.1      51   -139     77    149    167 160.0  29.5  34226  290.69 0854.45
2009/04/23 15:30:24.2      43   -157    110    163    196 164.6  37.6  34216  290.52 0854.45
2009/04/23 15:30:24.3     -42   -140    176    147    229 197.0  56.3  34242  290.96 0854.45
2009/04/23 15:30:24.4     -65   -185    130    197    236 199.6  36.5  34234  290.84 0854.45
2009/04/23 15:30:24.5     -59   -262    174    269    320 192.7  35.9  34250  291.10 0854.45
2009/04/23 15:30:24.6     -95   -208    123    229    259 204.7  30.6  34260  291.26 0854.45
2009/04/23 15:30:24.7    -106   -163    108    195    222 213.2  31.4  34276  291.55 0854.45
2009/04/23 15:30:24.8    -100   -139     80    172    189 215.8  27.1  34302  291.98 0854.45
2009/04/23 15:30:24.9     -47   -105     65    116    132 204.1  31.4  34302  292.00 0854.45
2009/04/23 15:30:25.0    -173   -238     98    295    312 216.1  18.5  34326  292.40 0854.45
2009/04/23 15:30:25.1    -274   -257     91    376    387 226.8  13.7  34288  291.73 0854.45
2009/04/23 15:30:25.2    -170   -186     24    253    255 222.4   5.4  34290  291.77 0854.45
2009/04/23 15:30:25.3    -189   -101    -41    215    219 241.8 -10.9  34264  291.33 0854.45
2009/04/23 15:30:25.4    -126   -105    -19    165    167 230.2  -6.9  34272  291.49 0854.45
2009/04/23 15:30:25.5    -139    -66     36    154    159 244.6  13.2  34294  291.86 0854.45
2009/04/23 15:30:25.6    -125   -109     -3    167    168 228.9  -1.3  34290  291.79 0854.45
2009/04/23 15:30:25.7    -147    -97     42    177    183 236.5  13.5  34274  291.52 0854.45
2009/04/23 15:30:25.8    -129    -81     39    153    158 238.0  14.3  34276  291.55 0854.45
2009/04/23 15:30:25.9     -81    -92     79    123    146 221.4  35.6  34272  291.47 0854.45
2009/04/23 15:30:26.0    -128   -154     69    201    213 219.7  18.9  34278  291.59 0854.45
2009/04/23 15:30:26.1    -218   -143     41    262    266 236.7   9.0  34304  292.01 0854.42
2009/04/23 15:30:26.2    -139   -132    105    192    218 226.4  31.3  34286  291.71 0854.42
2009/04/23 15:30:26.3     -79   -147    102    168    196 208.3  34.2  34278  291.59 0854.42
2009/04/23 15:30:26.4    -143   -130    -17    194    195 227.8  -5.2  34288  291.74 0854.42
2009/04/23 15:30:26.5    -199    -54     17    207    208 254.7   4.9  34304  292.03 0854.42
2009/04/23 15:30:26.6    -207   -144    -17    253    254 235.1  -3.9  34306  292.04 0854.42
2009/04/23 15:30:26.7    -231   -110     -5    257    258 244.5  -1.2  34316  292.21 0854.42
2009/04/23 15:30:26.8    -297    -68      2    305    306 257.0   0.5  34300  291.94 0854.42
2009/04/23 15:30:26.9    -284    -22     24    285    287 265.4   5.0  34284  291.67 0854.42
2009/04/23 15:30:27.0    -268     19    -64    269    277 274.1 -13.4  34286  291.70 0854.42
2009/04/23 15:30:27.1    -344    -33    -55    346    351 264.4  -9.1  34268  291.42 0854.42
2009/04/23 15:30:27.2    -314    -44     30    318    320 262.0   5.5  34282  291.63 0854.42
2009/04/23 15:30:27.3    -290     48     -5    294    295 279.5  -1.1  34298  291.92 0854.42
2009/04/23 15:30:27.4    -276     77     10    287    288 285.7   2.1  34286  291.70 0854.42
2009/04/23 15:30:27.5    -295     14     25    296    298 272.8   4.9  34262  291.29 0854.42
2009/04/23 15:30:27.6    -218     -8     31    219    222 267.9   8.2  34270  291.45 0854.42
2009/04/23 15:30:27.7    -218     37    -28    222    224 279.6  -7.2  34282  291.66 0854.42
2009/04/23 15:30:27.8    -182     47    -56    189    198 284.6 -16.6  34272  291.49 0854.42
2009/04/23 15:30:27.9    -166     75     10    183    184 294.4   3.3  34280  291.60 0854.42
2009/04/23 15:30:28.0    -234     -3     97    235    254 269.1  23.8  34294  291.85 0854.42
2009/04/23 15:30:28.1    -241     11      8    242    243 272.8   2.1  34306  292.04 0854.40
2009/04/23 15:30:28.2    -189     36    -22    193    195 280.8  -6.7  34300  291.95 0854.40
2009/04/23 15:30:28.3    -170     68     13    184    185 291.8   4.2  34284  291.67 0854.40
2009/04/23 15:30:28.4    -179     60      6    189    190 288.6   2.1  34282  291.66 0854.40
2009/04/23 15:30:28.5    -185     -8    -65    186    197 267.4 -24.6  34288  291.76 0854.40
2009/04/23 15:30:28.6     -91    -63    -22    111    114 235.4 -11.3  34268  291.42 0854.40
2009/04/23 15:30:28.7     -53    -75    -18     92     94 215.2 -11.3  34270  291.43 0854.40
2009/04/23 15:30:28.8     -10   -109    -31    110    115 185.3 -16.0  34268  291.42 0854.40
2009/04/23 15:30:28.9      11   -146    -42    147    153 175.5 -16.0  34266  291.37 0854.40
2009/04/23 15:30:29.0     -28   -183    -55    186    193 188.9 -21.5  34270  291.43 0854.40
2009/04/23 15:30:29.1     -68   -161    -49    175    181 202.9 -20.2  34256  291.20 0854.40
2009/04/23 15:30:29.2      27   -150    -19    153    155 169.8  -7.3  34236  290.86 0854.40
2009/04/23 15:30:29.3     -36   -116    -43    122    130 197.4 -19.6  34236  290.87 0854.40
2009/04/23 15:30:29.4      57    -88    -48    106    116 147.0 -31.0  34240  290.94 0854.40
2009/04/23 15:30:29.5      67   -141     58    157    167 154.6  21.0  34202  290.30 0854.40
2009/04/23 15:30:29.6      51   -195     74    202    215 165.3  20.9  34206  290.36 0854.40
2009/04/23 15:30:29.7     130   -204     66    243    252 147.5  15.2  34224  290.66 0854.40
2009/04/23 15:30:29.8     137   -181     90    228    245 142.8  23.0  34234  290.83 0854.40
2009/04/23 15:30:29.9     118   -172     85    209    225 145.5  23.1  34236  290.87 0854.40
2009/04/23 15:30:30.0     112   -171     41    205    210 146.6  11.4  34232  290.79 0854.40
2009/04/23 15:30:30.1      73   -177     67    192    204 157.5  19.2  34234  290.84 0854.39
2009/04/23 15:30:30.2      78   -227     30    241    243 161.1   7.1  34222  290.63 0854.39
2009/04/23 15:30:30.3      94   -306     33    321    323 163.0   5.9  34212  290.44 0854.39
2009/04/23 15:30:30.4      66   -278     70    286    295 166.6  13.9  34218  290.54 0854.39
2009/04/23 15:30:30.5      -3   -243     79    244    257 180.9  17.9  34232  290.80 0854.39
2009/04/23 15:30:30.6      43   -175     72    181    194 166.2  22.8  34242  290.98 0854.39
2009/04/23 15:30:30.7      66   -183     92    195    215 160.0  27.1  34232  290.79 0854.39
2009/04/23 15:30:30.8      34   -151    115    155    193 167.1  40.1  34220  290.58 0854.39
2009/04/23 15:30:30.9      41   -189     89    194    213 167.5  26.6  34244  291.01 0854.39
2009/04/23 15:30:31.0      44   -197     81    202    217 167.3  23.0  34236  290.87 0854.39
2009/04/23 15:30:31.1      57   -142     96    154    181 158.2  35.2  34240  290.94 0854.39
2009/04/23 15:30:31.2       1   -160     81    161    180 179.5  28.7  34228  290.74 0854.39
2009/04/23 15:30:31.3       0   -225     20    226    227 180.2   5.2  34230  290.77 0854.39
2009/04/23 15:30:31.4     -19   -198     40    199    204 185.6  11.6  34212  290.45 0854.39
2009/04/23 15:30:31.5      24   -150     -4    153    154 170.7  -1.8  34212  290.45 0854.39
2009/04/23 15:30:31.6      48   -173    -21    180    182 164.4  -6.9  34206  290.35 0854.39
2009/04/23 15:30:31.7      46   -214     14    220    221 167.7   3.8  34198  290.23 0854.39
2009/04/23 15:30:31.8      29   -200     77    203    217 171.5  22.0  34214  290.48 0854.39
2009/04/23 15:30:31.9      17   -164     82    165    184 174.0  28.2  34218  290.55 0854.39
2009/04/23 15:30:32.0      41   -153     81    159    178 164.8  29.3  34210  290.43 0854.39
2009/04/23 15:30:32.1      60   -169     93    180    202 160.4  29.3  34204  290.33 0854.40
2009/04/23 15:30:32.2      48   -178    108    185    214 164.9  33.4  34206  290.36 0854.40
2009/04/23 15:30:32.3      90   -164    106    188    215 151.1  31.6  34206  290.35 0854.40
2009/04/23 15:30:32.4      86   -157    101    179    205 151.3  31.9  34208  290.40 0854.40
2009/04/23 15:30:32.5      49   -136    112    145    183 160.0  41.4  34214  290.50 0854.40
2009/04/23 15:30:32.6      85   -133    130    159    205 147.4  43.7  34218  290.55 0854.40
2009/04/23 15:30:32.7      82   -128    113    153    190 147.4  40.1  34218  290.55 0854.40
2009/04/23 15:30:32.8      -2   -135    108    136    173 180.9  42.7  34226  290.70 0854.40
2009/04/23 15:30:32.9      16    -34     93     38    100 154.6  77.0  34256  291.20 0854.40
2009/04/23 15:30:33.0     -13      0     67     14     68 270.0  89.0  34250  291.11 0854.40
2009/04/23 15:30:33.1      53    -83    116     99    152 147.5  55.4  34252  291.15 0854.40
2009/04/23 15:30:33.2      31   -125    129    129    182 165.7  50.1  34230  290.77 0854.40
2009/04/23 15:30:33.3      24    -73    106     77    131 161.5  60.5  34254  291.16 0854.40
2009/04/23 15:30:33.4       0    -88     73     89    115 180.5  43.7  34242  290.98 0854.40
2009/04/23 15:30:33.5      -1    -79    106     80    132 181.0  58.5  34266  291.38 0854.40
2009/04/23 15:30:33.6       9      0     61     10     61  90.8  90.0  34296  291.89 0854.40
2009/04/23 15:30:33.7     -16    -12     72     21     75 232.2  82.8  34314  292.20 0854.40
2009/04/23 15:30:33.8       1     29     90     30     94   2.7  81.0  34310  292.12 0854.40
2009/04/23 15:30:33.9      -3     52     78     53     94 356.4  63.2  34284  291.69 0854.40
2009/04/23 15:30:34.0     -18      5     70     19     72 288.2  84.9  34282  291.66 0854.40
2009/04/23 15:30:34.1       1    -65     82     66    105 179.0  56.9  34284  291.69 0854.40
2009/04/23 15:30:34.2     -52    -67     83     85    118 217.8  49.9  34282  291.64 0854.40
2009/04/23 15:30:34.3     -67   -106     71    126    144 212.5  31.4  34246  291.04 0854.40
2009/04/23 15:30:34.4     -46    -95     43    106    114 206.3  23.0  34244  290.99 0854.40
2009/04/23 15:30:34.5     -36   -121     46    127    135 196.9  20.0  34248  291.08 0854.40
2009/04/23 15:30:34.6     -60    -88     27    107    111 214.3  14.3  34236  290.86 0854.40
2009/04/23 15:30:34.8     -67    -93     44    115    123 216.0  21.5  34234  290.84 0854.40
2009/04/23 15:30:34.9     -77    -92     47    121    129 220.1  22.0  34246  291.04 0854.40
2009/04/23 15:30:34.9     -62    -95     52    114    125 213.0  26.2  34246  291.03 0854.40
2009/04/23 15:30:35.0     -42    -90     47    100    110 205.4  27.1  34244  290.99 0854.40
2009/04/23 15:30:35.1     -12    -87     73     88    114 188.5  43.7  34270  291.43 0854.42
2009/04/23 15:30:35.2       8    -63     80     64    102 172.0  56.9  34256  291.21 0854.42
2009/04/23 15:30:35.4      25   -173    148    175    229 171.5  44.1  34236  290.87 0854.42
2009/04/23 15:30:35.5      -6   -141     99    142    173 182.6  38.0  34224  290.65 0854.42
2009/04/23 15:30:35.6      -5   -168     99    169    195 181.8  33.1  34212  290.47 0854.42
2009/04/23 15:30:35.7     -38   -201     95    205    225 190.7  27.1  34214  290.50 0854.42
2009/04/23 15:30:35.8      -3   -198    123    199    233 180.9  35.2  34220  290.58 0854.42
2009/04/23 15:30:35.9      49   -273    138    278    310 169.8  28.2  34208  290.39 0854.42
2009/04/23 15:30:36.0      51   -258    151    264    304 168.7  32.3  34218  290.56 0854.42
2009/04/23 15:30:36.1      19   -252    115    253    277 175.5  26.2  34234  290.83 0854.42
2009/04/23 15:30:36.2     117   -282     53    306    311 157.5   9.9  34202  290.29 0854.42
2009/04/23 15:30:36.3     167   -238    104    291    309 144.9  20.2  34206  290.34 0854.42
2009/04/23 15:30:36.4      66   -280     25    288    290 166.6   5.0  34202  290.29 0854.42
2009/04/23 15:30:36.5      48   -257     61    262    270 169.4  13.2  34204  290.32 0854.42
2009/04/23 15:30:36.6      84   -224     79    240    253 159.3  18.4  34206  290.34 0854.42
2009/04/23 15:30:36.7       0   -238     73    239    251 179.9  17.1  34210  290.41 0854.42
2009/04/23 15:30:36.8      14   -224    127    225    258 176.2  31.9  34204  290.31 0854.42
2009/04/23 15:30:36.9     -14   -212    136    213    252 183.8  35.6  34190  290.09 0854.42
2009/04/23 15:30:37.0      76   -226    126    239    270 161.3  30.1  34194  290.14 0854.42
2009/04/23 15:30:37.1      48   -386    197    390    436 172.8  29.1  34186  290.02 0854.43
2009/04/23 15:30:37.2     187   -283    162    340    376 146.6  27.3  34186  290.01 0854.43
2009/04/23 15:30:37.3     198   -231    134    305    333 139.5  25.2  34194  290.15 0854.43
2009/04/23 15:30:37.4      69   -227    155    238    284 163.0  36.0  34194  290.15 0854.43
2009/04/23 15:30:37.5     177   -205     88    272    286 139.2  17.9  34196  290.17 0854.43
2009/04/23 15:30:37.6     134   -381    118    405    422 160.6  16.3  34212  290.46 0854.43
2009/04/23 15:30:37.7     171   -439     54    472    476 158.7   6.6  34212  290.45 0854.43
2009/04/23 15:30:37.8     267   -484     73    553    558 151.1   7.6  34210  290.41 0854.43
2009/04/23 15:30:37.9     295   -533     60    610    614 151.0   5.7  34212  290.46 0854.43
2009/04/23 15:30:38.0     343   -349     15    490    491 135.5   1.8  34212  290.44 0854.43
2009/04/23 15:30:38.1     260   -313     10    408    409 140.3   1.5  34210  290.43 0854.43
2009/04/23 15:30:38.2     157   -362     49    395    399 156.5   7.1  34208  290.40 0854.43
2009/04/23 15:30:38.3      60   -364    186    370    414 170.6  28.6  34204  290.33 0854.43
2009/04/23 15:30:38.4      21   -266    171    267    317 175.3  35.7  34210  290.42 0854.43
2009/04/23 15:30:38.5      27   -281     34    283    286 174.4   6.9  34210  290.42 0854.43
2009/04/23 15:30:38.6      15   -314     62    315    322 177.1  11.1  34206  290.36 0854.43
2009/04/23 15:30:38.7       3   -301    147    302    335 179.3  27.8  34208  290.37 0854.43
2009/04/23 15:30:38.8      95   -178    110    202    230 151.9  31.3  34208  290.40 0854.43
2009/04/23 15:30:38.9      18   -180      9    181    182 174.2   3.1  34206  290.36 0854.43
2009/04/23 15:30:39.0      45   -116     12    125    126 158.6   5.9  34210  290.41 0854.43
2009/04/23 15:30:39.1     106   -120      3    161    162 138.6   1.2  34212  290.47 0854.44
2009/04/23 15:30:39.2      68   -146    -11    162    163 155.1  -3.9  34214  290.48 0854.44
2009/04/23 15:30:39.3      51   -139    -41    149    155 160.0 -15.5  34216  290.52 0854.44
2009/04/23 15:30:39.4      11   -238    -13    239    240 177.3  -3.2  34214  290.48 0854.44
2009/04/23 15:30:39.5      41   -186     42    191    196 167.5  12.4  34214  290.50 0854.44
2009/04/23 15:30:39.6     110   -191    -29    221    223 150.1  -7.7  34206  290.35 0854.44
2009/04/23 15:30:39.7       8   -280    -52    281    286 178.2 -10.5  34210  290.41 0854.44
2009/04/23 15:30:39.8     -92   -312     89    326    339 196.4  15.3  34202  290.28 0854.44
2009/04/23 15:30:39.9    -160   -294   -113    335    354 208.6 -18.7  34214  290.50 0854.44
2009/04/23 15:30:40.0    -190   -465   -104    503    514 202.2 -11.8  34216  290.52 0854.44
2009/04/23 15:30:40.1    -114   -342   -129    361    384 198.5 -19.7  34214  290.49 0854.44
2009/04/23 15:30:40.2     -53   -376   -120    380    398 188.1 -22.6  34218  290.54 0854.44
2009/04/23 15:30:40.3      17   -390   -111    391    407 177.4 -15.9  34220  290.59 0854.44
2009/04/23 15:30:40.4    -102   -282   -140    301    331 200.0 -31.0  34208  290.39 0854.44
2009/04/23 15:30:40.5    -147   -302    -64    336    343 206.0 -10.9  34208  290.37 0854.44
2009/04/23 15:30:40.6    -168   -282   -104    329    346 210.8 -17.6  34210  290.42 0854.44
2009/04/23 15:30:40.7    -116   -269    -68    294    302 203.4 -13.2  34212  290.44 0854.44
2009/04/23 15:30:40.8     -55   -380    -77    385    393 188.2 -11.3  34210  290.43 0854.44
2009/04/23 15:30:40.9      51   -416    -54    420    424 172.9  -7.4  34208  290.39 0854.44
2009/04/23 15:30:41.0     -47   -430   -102    433    445 186.3 -13.3  34214  290.48 0854.44
2009/04/23 15:30:41.1     -70   -470    -25    476    477 188.5  -3.0  34214  290.49 0854.45
2009/04/23 15:30:41.2      32   -415     15    417    418 175.5   2.1  34196  290.17 0854.45
2009/04/23 15:30:41.3      50   -426     22    429    430 173.3   3.0  34196  290.17 0854.45
2009/04/23 15:30:41.4     118   -460     12    475    476 165.6   1.5  34198  290.22 0854.45
2009/04/23 15:30:41.5     159   -415     79    445    453 159.0  10.1  34196  290.17 0854.45
2009/04/23 15:30:41.6     144   -397    167    423    454 160.0  22.9  34200  290.24 0854.45
2009/04/23 15:30:41.7     282   -310    268    420    498 137.7  35.6  34206  290.35 0854.45
2009/04/23 15:30:41.8     345   -227    272    414    495 123.4  36.5  34212  290.47 0854.45
2009/04/23 15:30:41.9     322   -164    206    362    416 117.1  32.3  34192  290.13 0854.45
2009/04/23 15:30:42.0     254   -242    221    352    415 133.6  35.2  34200  290.25 0854.45
2009/04/23 15:30:42.1      40   -323    121    326    347 172.8  21.3  34198  290.23 0854.45
2009/04/23 15:30:42.2      73   -375    144    383    409 169.0  21.6  34198  290.20 0854.45
2009/04/23 15:30:42.3      34   -313    187    315    366 173.8  33.5  34210  290.42 0854.45
2009/04/23 15:30:42.4      -6   -309    238    310    390 181.1  41.4  34208  290.37 0854.45
2009/04/23 15:30:42.5    -114   -345    267    364    451 198.4  39.8  34194  290.16 0854.45
2009/04/23 15:30:42.6    -108   -322    290    340    446 198.7  44.8  34196  290.19 0854.45
2009/04/23 15:30:42.7     -49   -328    265    332    424 188.5  42.8  34198  290.23 0854.45
2009/04/23 15:30:42.8     -64   -355    278    361    455 190.3  41.5  34200  290.24 0854.45
2009/04/23 15:30:42.9     -57   -400    238    405    469 188.1  33.1  34194  290.16 0854.45
2009/04/23 15:30:43.0     -40   -470    278    472    547 185.0  33.4  34190  290.07 0854.45
2009/04/23 15:30:43.1      21   -457    289    458    541 177.3  35.5  34198  290.23 0854.47
2009/04/23 15:30:43.2      33   -421    269    423    501 175.4  35.5  34198  290.20 0854.47
2009/04/23 15:30:43.3      26   -440    283    441    523 176.5  35.6  34192  290.10 0854.47
2009/04/23 15:30:43.4      48   -415    269    418    497 173.3  35.6  34186  290.01 0854.47
2009/04/23 15:30:43.5      43   -380    296    383    484 173.4  41.6  34188  290.05 0854.47
2009/04/23 15:30:43.6      92   -351    234    363    431 165.3  35.7  34198  290.22 0854.47
2009/04/23 15:30:43.7     155   -340    234    374    441 155.5  35.2  34192  290.11 0854.47
2009/04/23 15:30:43.8     216   -363    284    423    509 149.3  37.1  34192  290.12 0854.47
2009/04/23 15:30:43.9     107   -356    273    372    461 163.2  39.8  34198  290.22 0854.47
2009/04/23 15:30:44.0     200   -476    211    517    558 157.2  23.5  34192  290.11 0854.47
2009/04/23 15:30:44.1     252   -455    221    521    565 151.0  24.3  34196  290.18 0854.47
2009/04/23 15:30:44.2     244   -437    176    501    531 150.8  20.2  34188  290.04 0854.47
2009/04/23 15:30:44.3     278   -399    127    487    504 145.2  14.6  34190  290.08 0854.47
2009/04/23 15:30:44.4     215   -437    166    488    516 153.8  18.8  34192  290.13 0854.47
2009/04/23 15:30:44.5     192   -403    234    447    504 154.5  29.9  34190  290.08 0854.47
2009/04/23 15:30:44.6     271   -363    159    454    481 143.3  20.0  34196  290.17 0854.47
2009/04/23 15:30:44.7     292   -422    230    514    563 145.3  25.8  34190  290.07 0854.47
2009/04/23 15:30:44.8     255   -369    265    449    521 145.3  33.4  34190  290.08 0854.47
2009/04/23 15:30:44.9     257   -330    230    419    477 142.0  31.3  34194  290.14 0854.47
2009/04/23 15:30:45.0     326   -254    190    414    455 127.9  26.3  34198  290.22 0854.47
2009/04/23 15:30:45.1     248   -164     43    298    302 123.5   8.2  34198  290.22 0854.47
2009/04/23 15:30:45.2     201   -213    192    294    351 136.7  36.3  34198  290.21 0854.47
2009/04/23 15:30:45.3     169   -252    280    304    413 146.2  47.6  34182  289.94 0854.47
2009/04/23 15:30:45.4     101   -212    196    235    306 154.5  43.8  34196  290.17 0854.47
2009/04/23 15:30:45.5     220   -213    205    307    369 134.0  36.9  34190  290.08 0854.47
2009/04/23 15:30:45.6     204   -303    125    366    387 146.1  18.9  34194  290.15 0854.47
2009/04/23 15:30:45.7     232   -258    126    348    370 138.0  20.7  34194  290.16 0854.47
2009/04/23 15:30:45.8     124   -381    161    401    432 161.9  23.1  34192  290.12 0854.47
2009/04/23 15:30:45.9     114   -453    156    468    494 165.9  18.5  34198  290.23 0854.47
2009/04/23 15:30:46.0      92   -490    228    499    548 169.3  26.2  34200  290.26 0854.47
2009/04/23 15:30:46.1      90   -447    312    457    553 168.5  37.6  34200  290.26 0854.47
2009/04/23 15:30:46.2     200   -423    281    468    545 154.7  34.0  34198  290.23 0854.47
2009/04/23 15:30:46.3     237   -327    199    405    451 144.0  28.2  34198  290.22 0854.47
2009/04/23 15:30:46.4     154   -306    162    343    379 153.3  27.1  34198  290.21 0854.47
2009/04/23 15:30:46.5     103   -410    197    423    466 165.9  27.1  34202  290.29 0854.47
2009/04/23 15:30:46.6      71   -409    156    416    444 170.1  21.5  34204  290.31 0854.47
2009/04/23 15:30:46.7      50   -323    114    327    347 171.1  19.2  34204  290.33 0854.47
2009/04/23 15:30:46.8     136   -241     92    277    292 150.6  18.4  34204  290.32 0854.47
2009/04/23 15:30:46.9     105   -205     79    231    245 152.8  18.9  34204  290.32 0854.47
2009/04/23 15:30:47.0     118   -176     82    213    228 146.2  22.0  34206  290.35 0854.47
2009/04/23 15:30:47.1     115   -336     69    356    363 161.1  11.0  34206  290.35 0854.43
2009/04/23 15:30:47.2      71   -456     66    462    467 171.1   8.2  34206  290.35 0854.43
2009/04/23 15:30:47.3     128   -412     52    432    436 162.7   6.9  34208  290.38 0854.43
2009/04/23 15:30:47.4     131   -289    129    318    343 155.5  23.2  34210  290.42 0854.43
2009/04/23 15:30:47.5     156   -246    159    292    332 147.5  30.9  34212  290.46 0854.43
2009/04/23 15:30:47.6     280   -235    141    366    392 130.1  22.2  34208  290.37 0854.43
2009/04/23 15:30:47.7     240   -228    176    332    375 133.6  30.3  34198  290.23 0854.43
2009/04/23 15:30:47.8     314   -259    161    408    438 129.5  22.7  34208  290.39 0854.43
2009/04/23 15:30:47.9     378   -365     65    526    531 134.0   7.1  34206  290.35 0854.43
2009/04/23 15:30:48.0     299   -396    106    497    509 143.0  12.1  34204  290.32 0854.43
2009/04/23 15:30:48.1     290   -356     93    460    470 140.9  11.5  34204  290.32 0854.43
2009/04/23 15:30:48.2     280   -263     15    385    386 133.2   2.2  34204  290.32 0854.43
2009/04/23 15:30:48.3     221   -324     89    393    403 145.7  12.8  34204  290.32 0854.43
2009/04/23 15:30:48.4     233   -244    100    338    353 136.3  16.5  34198  290.23 0854.43
2009/04/23 15:30:48.5     149   -180     59    234    242 140.3  14.3  34202  290.29 0854.43
2009/04/23 15:30:48.6      95   -188     24    211    213 153.0   6.5  34202  290.30 0854.43
2009/04/23 15:30:48.7      54   -101     49    115    125 151.5  24.6  34206  290.36 0854.43
2009/04/23 15:30:48.8     -24    -91     32     95    101 194.7  18.9  34210  290.43 0854.43
2009/04/23 15:30:48.9     -23    -73    101     77    127 197.8  58.5  34216  290.53 0854.43
2009/04/23 15:30:49.0     -30    -50     79     59     98 210.7  60.0  34218  290.55 0854.43
2009/04/23 15:30:49.1     120    -72    136    141    195 121.1  49.0  34216  290.52 0854.42
2009/04/23 15:30:49.2     102   -188    172    215    275 151.5  42.7  34212  290.46 0854.42
2009/04/23 15:30:49.3      58   -162    119    173    209 160.2  37.8  34210  290.43 0854.42
2009/04/23 15:30:49.4      46   -208    117    214    243 167.3  31.3  34208  290.39 0854.42
2009/04/23 15:30:49.5      45   -223    116    228    255 168.4  29.1  34214  290.48 0854.42
2009/04/23 15:30:49.6       3   -214    141    215    257 179.1  36.5  34212  290.46 0854.42
2009/04/23 15:30:49.7     -85   -165    180    186    258 207.4  49.0  34216  290.51 0854.42
2009/04/23 15:30:49.8     -45   -114    176    123    214 201.9  62.1  34222  290.64 0854.42
2009/04/23 15:30:49.9      21     17    137     28    139  50.5  89.1  34244  290.99 0854.42
2009/04/23 15:30:50.0     -51     -7    156     52    164 261.2  81.0  34244  290.99 0854.42
2009/04/23 15:30:50.1    -153   -188     97    243    261 219.2  23.0  34208  290.39 0854.42
2009/04/23 15:30:50.2    -132    -81     48    156    164 238.5  17.3  34206  290.36 0854.42
2009/04/23 15:30:50.3     -11    -84    -16     85     87 188.0 -10.9  34208  290.40 0854.42
2009/04/23 15:30:50.4     -28    -52     30     60     67 208.1  28.2  34218  290.55 0854.42
2009/04/23 15:30:50.5     -48     48     69     69     97 315.0  50.1  34226  290.69 0854.42
2009/04/23 15:30:50.6     -96     35     96    103    140 290.4  47.9  34236  290.87 0854.42
2009/04/23 15:30:50.7    -149    -48    111    157    192 251.8  38.8  34246  291.03 0854.42
2009/04/23 15:30:50.8     -94     -7     41     95    103 265.6  24.6  34248  291.06 0854.42
2009/04/23 15:30:50.9     -23     -7     -5     25     26 251.6 -11.3  34248  291.08 0854.42
2009/04/23 15:30:51.0      35    -23     82     43     92 123.3  70.8  34264  291.33 0854.42
2009/04/23 15:30:51.1      16    -48     84     51     98 161.5  65.7  34244  291.01 0854.41
2009/04/23 15:30:51.2     -44   -145     55    152    161 197.0  20.7  34210  290.43 0854.41
2009/04/23 15:30:51.3     -63    -74     30     98    103 220.5  17.3  34210  290.41 0854.41
2009/04/23 15:30:51.4     -54    -20    -17     58     61 249.2 -16.6  34208  290.38 0854.41
2009/04/23 15:30:51.5     -41    -25     -1     49     50 238.5  -2.2  34212  290.45 0854.41
2009/04/23 15:30:51.6       2     -1     64      3     64 122.4  90.0  34224  290.67 0854.41
2009/04/23 15:30:51.7     -78     83     81    114    139 316.8  39.5  34228  290.72 0854.41
2009/04/23 15:30:51.8     -71    109    111    131    171 327.0  44.5  34230  290.77 0854.41
2009/04/23 15:30:51.9     116    121     33    168    172  43.9  11.1  34216  290.52 0854.41
2009/04/23 15:30:52.0     110    103      7    151    152  46.9   2.9  34224  290.65 0854.41
2009/04/23 15:30:52.1      86    179     35    199    203  25.9  10.1  34262  291.30 0854.41
2009/04/23 15:30:52.2     102    191     26    217    219  28.1   6.9  34268  291.40 0854.41
2009/04/23 15:30:52.3     101      7    105    102    146  85.6  50.7  34262  291.32 0854.41
2009/04/23 15:30:52.4       1     82    118     83    144   0.9  61.5  34290  291.79 0854.41
2009/04/23 15:30:52.5      32     88    103     94    139  20.5  52.2  34300  291.95 0854.41
2009/04/23 15:30:52.6      13    106    101    107    147   7.1  48.0  34294  291.86 0854.41
2009/04/23 15:30:52.7      30    177    107    180    209   9.6  33.5  34288  291.74 0854.41
2009/04/23 15:30:52.8       6    153    148    154    213   2.6  49.2  34300  291.96 0854.41
2009/04/23 15:30:52.9      53    149    120    159    199  19.6  40.9  34288  291.76 0854.41
2009/04/23 15:30:53.0      99    161    147    190    240  31.6  41.7  34246  291.04 0854.41
2009/04/23 15:30:53.1     -41    196    156    201    254 348.0  41.7  34278  291.56 0854.40
2009/04/23 15:30:53.2      43    183     90    189    209  13.4  27.2  34272  291.47 0854.40
2009/04/23 15:30:53.3     -72    214    132    226    261 341.3  33.1  34272  291.48 0854.40
2009/04/23 15:30:53.4    -191    288     57    346    351 326.4   9.5  34292  291.83 0854.40
2009/04/23 15:30:53.5    -278    240     53    368    372 310.8   8.2  34298  291.93 0854.40
2009/04/23 15:30:53.6    -256    196    -18    323    324 307.4  -3.3  34288  291.75 0854.40
2009/04/23 15:30:53.7     -99    129     46    163    170 322.4  16.0  34262  291.30 0854.40
2009/04/23 15:30:53.8    -154    137     90    207    225 311.6  25.1  34246  291.03 0854.40
2009/04/23 15:30:53.9     199     87     82    218    232  66.5  21.3  34250  291.09 0854.40
2009/04/23 15:30:54.0     185    255    101    316    332  36.0  17.8  34262  291.29 0854.40
2009/04/23 15:30:54.1     122    240    158    270    312  27.1  33.0  34262  291.29 0854.41
2009/04/23 15:30:54.2     100    213    215    236    319  25.3  47.0  34242  290.95 0854.41
2009/04/23 15:30:54.3     238    236    148    336    367  45.2  25.2  34202  290.28 0854.41
2009/04/23 15:30:54.4     247    236    188    342    390  46.3  31.4  34214  290.49 0854.41
2009/04/23 15:30:54.5      86    205    195    223    296  22.7  45.8  34212  290.44 0854.41
2009/04/23 15:30:54.6     130    240    212    274    346  28.5  41.7  34212  290.44 0854.41
2009/04/23 15:30:54.7      74    217    130    230    264  18.9  31.9  34214  290.49 0854.41
2009/04/23 15:30:54.8     373    215    195    431    473  60.0  26.0  34220  290.58 0854.41
2009/04/23 15:30:54.9     242    156    194    289    348  57.1  37.0  34228  290.71 0854.41
2009/04/23 15:30:55.0     201    181    164    271    316  48.0  34.0  34226  290.68 0854.41
2009/04/23 15:30:55.1     238    167    250    292    384  54.9  45.0  34204  290.33 0854.41
2009/04/23 15:30:55.2     278    159    295    321    435  60.2  47.5  34228  290.71 0854.41
2009/04/23 15:30:55.3     371    174    327    410    524  64.8  42.7  34240  290.93 0854.41
2009/04/23 15:30:55.4     187    109    321    217    387  59.8  62.7  34272  291.49 0854.41
2009/04/23 15:30:55.5     358    130    409    382    559  70.0  52.2  34258  291.22 0854.41
2009/04/23 15:30:55.6     282    143    418    317    524  63.0  59.1  34244  291.00 0854.41
2009/04/23 15:30:55.7     111    125    397    168    431  41.4  75.9  34268  291.40 0854.41
2009/04/23 15:30:55.8     217     72    327    229    399  71.6  61.7  34238  290.91 0854.41
2009/04/23 15:30:55.9     247    103    239    268    359  67.2  46.3  34260  291.27 0854.41
2009/04/23 15:30:56.0      41     11    127     43    134  74.9  81.2  34276  291.54 0854.41
2009/04/23 15:30:56.1    -109    -10     68    110    129 264.3  35.5  34282  291.66 0854.42
2009/04/23 15:30:56.2    -208     42      9    213    214 281.5   2.5  34266  291.38 0854.42
2009/04/23 15:30:56.3    -220     80    -25    235    237 290.0  -6.2  34264  291.34 0854.42
2009/04/23 15:30:56.4    -109     80    -22    136    138 306.4  -9.3  34258  291.23 0854.42
2009/04/23 15:30:56.5     -51    109     66    121    137 334.7  31.3  34248  291.06 0854.42
2009/04/23 15:30:56.6      22    128     24    130    133   9.8  10.6  34238  290.91 0854.42
2009/04/23 15:30:56.7      77     78    190    110    219  44.5  67.5  34232  290.79 0854.42
2009/04/23 15:30:56.8     104     15    263    106    283  81.6  77.1  34244  290.99 0854.42
2009/04/23 15:30:56.9     -34    -53    189     64    199 212.5  81.0  34248  291.08 0854.42
2009/04/23 15:30:57.0     -47    -47    212     67    222 225.1  82.0  34246  291.04 0854.42
2009/04/23 15:30:57.1     -20    -79    239     82    252 194.7  81.0  34234  290.82 0854.42
2009/04/23 15:30:57.2    -111    -86    245    141    282 232.2  67.5  34248  291.07 0854.42
2009/04/23 15:30:57.3    -171   -144    184    224    289 229.8  43.7  34246  291.04 0854.42
2009/04/23 15:30:57.4     -50   -202    183    209    277 194.0  45.8  34236  290.87 0854.42
2009/04/23 15:30:57.5    -188   -206    148    280    316 222.4  30.2  34226  290.68 0854.42
2009/04/23 15:30:57.6    -360   -145    157    389    419 248.0  23.1  34228  290.73 0854.42
2009/04/23 15:30:57.7    -349   -222    138    414    437 237.5  18.4  34234  290.84 0854.42
2009/04/23 15:30:57.8    -117    -23    324    120    345 258.5  78.9  34246  291.04 0854.42
2009/04/23 15:30:57.9     -61   -128    162    142    215 205.5  54.3  34230  290.77 0854.42
2009/04/23 15:30:58.0      32     50    147     60    158  32.6  76.8  34252  291.13 0854.42
2009/04/23 15:30:58.1      68     64    146     94    173  46.4  64.6  34240  290.94 0854.43
2009/04/23 15:30:58.2      91    302    186    316    366  16.9  33.4  34244  291.00 0854.43
2009/04/23 15:30:58.3      27    145    149    148    210  10.7  50.1  34266  291.37 0854.43
2009/04/23 15:30:58.4     -13     45     58     48     75 343.1  56.3  34258  291.23 0854.43
2009/04/23 15:30:58.5      -8    -51    -16     52     54 188.9 -23.8  34264  291.35 0854.43
2009/04/23 15:30:58.6     -37   -177     92    182    203 192.0  29.2  34270  291.43 0854.43
2009/04/23 15:30:58.7     -74   -206    123    219    251 199.8  32.1  34256  291.21 0854.43
2009/04/23 15:30:58.8     -68   -151    158    166    229 204.5  48.5  34252  291.15 0854.43
2009/04/23 15:30:58.9    -102   -232     33    254    257 203.8   7.5  34244  291.00 0854.43
2009/04/23 15:30:59.0     -69   -268     24    277    279 194.5   5.0  34232  290.78 0854.43
2009/04/23 15:30:59.1    -205   -205    -52    291    296 225.0 -10.3  34228  290.71 0854.43
2009/04/23 15:30:59.2    -241   -200     20    314    315 230.2   3.7  34220  290.58 0854.43
2009/04/23 15:30:59.3    -167   -201     66    262    271 219.6  14.3  34230  290.75 0854.43
2009/04/23 15:30:59.4    -108    -95     39    145    151 228.7  15.3  34244  290.99 0854.43
2009/04/23 15:30:59.5     -61    -99     57    117    130 211.6  27.3  34244  291.01 0854.43
2009/04/23 15:30:59.6     -73    -60     45     95    105 230.4  27.2  34246  291.03 0854.43
2009/04/23 15:30:59.7     -53    -52     43     75     86 225.1  32.9  34240  290.94 0854.43
2009/04/23 15:30:59.8      -1    -37     16     38     41 182.6  24.1  34244  291.01 0854.43
2009/04/23 15:30:59.9      51    -64     63     83    104 141.3  40.7  34248  291.06 0854.43
2009/04/23 15:31:00.0      -9   -117    168    118    205 184.5  61.3  34254  291.16 0854.43
2009/04/23 15:31:00.1     -72   -221    -12    233    234 198.0  -3.1  34238  290.88 0854.44
2009/04/23 15:31:00.2     -44   -220    -48    225    231 191.3 -12.2  34240  290.92 0854.44
2009/04/23 15:31:00.3      26   -253    -32    255    258 174.0  -7.2  34244  291.00 0854.44
2009/04/23 15:31:00.4     -55   -204     38    212    216 195.2  10.3  34248  291.06 0854.44
2009/04/23 15:31:00.5     -84   -162     51    183    191 207.4  15.6  34254  291.18 0854.44
2009/04/23 15:31:00.6    -323   -100   -171    339    379 252.8 -33.3  34242  290.96 0854.44
2009/04/23 15:31:00.7    -252   -285    -12    381    382 221.5  -1.9  34262  291.30 0854.44
2009/04/23 15:31:00.8    -293   -335     11    446    447 221.1   1.5  34268  291.41 0854.44
2009/04/23 15:31:00.9    -336   -243    -29    415    416 234.1  -4.0  34274  291.52 0854.44
2009/04/23 15:31:01.1    -295    -59   -207    301    365 258.6 -42.2  34250  291.11 0854.44
2009/04/23 15:31:01.2    -332   -157    -82    368    378 244.6 -12.7  34258  291.25 0854.44
2009/04/23 15:31:01.3    -289   -335    -99    443    455 220.8 -12.6  34266  291.38 0854.44
2009/04/23 15:31:01.4     -96   -402    -13    414    415 193.4  -1.9  34266  291.36 0854.44
2009/04/23 15:31:01.5    -258   -264     38    370    373 224.4   6.0  34262  291.30 0854.44
2009/04/23 15:31:01.6    -316   -254    111    406    421 231.1  15.3  34258  291.23 0854.44
2009/04/23 15:31:01.7    -248   -385    167    459    488 212.8  20.9  34250  291.10 0854.44
2009/04/23 15:31:01.8    -280   -412     82    499    506 214.2   9.3  34246  291.03 0854.44
2009/04/23 15:31:01.9    -209   -302    121    368    388 214.7  18.2  34240  290.93 0854.44
2009/04/23 15:31:02.0    -224   -283    104    362    377 218.4  16.0  34238  290.88 0854.44
2009/04/23 15:31:02.1    -282   -336    -25    439    440 220.0  -3.3  34256  291.19 0854.44
2009/04/23 15:31:02.2    -215   -243     18    325    326 221.4   3.2  34244  291.00 0854.42
2009/04/23 15:31:02.3    -179   -245     25    304    306 216.1   4.9  34240  290.93 0854.42
2009/04/23 15:31:02.4     -71   -225     62    237    245 197.6  14.7  34238  290.88 0854.42
2009/04/23 15:31:02.5    -145   -196    -67    244    253 216.5 -20.0  34250  291.10 0854.42
2009/04/23 15:31:02.6    -147   -177    -69    231    242 219.6 -16.6  34246  291.02 0854.42
2009/04/23 15:31:02.7    -170   -170    -58    241    248 225.0 -13.7  34252  291.14 0854.42
2009/04/23 15:31:02.8    -191   -104    -30    218    221 241.4  -8.0  34256  291.20 0854.42
2009/04/23 15:31:02.9    -226   -223    -69    318    326 225.3 -12.3  34258  291.22 0854.42
2009/04/23 15:31:03.0    -148   -248    -67    289    297 210.8 -13.2  34250  291.10 0854.42
2009/04/23 15:31:03.1     -27   -224    -55    226    233 187.1 -13.9  34246  291.03 0854.42
2009/04/23 15:31:03.2       3   -214    -71    215    226 179.1 -23.8  34240  290.94 0854.42
2009/04/23 15:31:03.3      93   -255     13    272    273 159.9   2.8  34244  290.99 0854.42
2009/04/23 15:31:03.4     104   -244     -5    266    267 156.8  -1.3  34242  290.97 0854.42
2009/04/23 15:31:03.5     119   -134    -18    180    181 138.3  -6.0  34238  290.89 0854.42
2009/04/23 15:31:03.6      59   -145    -15    157    158 157.7  -5.6  34246  291.03 0854.42
2009/04/23 15:31:03.7      65   -120    -35    137    142 151.5 -14.5  34246  291.04 0854.42
2009/04/23 15:31:03.8      89   -106     -6    139    140 139.9  -2.6  34248  291.08 0854.42
2009/04/23 15:31:03.9     110   -104      7    152    153 133.6   2.9  34246  291.04 0854.42
2009/04/23 15:31:04.0      35   -145     11    150    151 166.2   4.4  34244  290.99 0854.42
2009/04/23 15:31:04.1     -28   -140     68    143    158 191.5  27.0  34252  291.15 0854.43
2009/04/23 15:31:04.2    -118   -113     -8    164    165 226.2  -2.8  34258  291.25 0854.43
2009/04/23 15:31:04.3    -138    -62   -108    152    186 245.6 -43.7  34262  291.32 0854.43
2009/04/23 15:31:04.4    -249    -34    -64    252    261 262.1 -14.4  34274  291.50 0854.43
2009/04/23 15:31:04.5    -408     75    -47    415    418 280.5  -6.5  34264  291.35 0854.43
2009/04/23 15:31:04.6    -325     -7   -111    326    345 268.6 -18.9  34270  291.45 0854.43
2009/04/23 15:31:04.7    -327    -84    -89    338    350 255.5 -14.8  34270  291.44 0854.43
2009/04/23 15:31:04.8    -222    -59    -54    230    237 255.0 -13.3  34270  291.43 0854.43
2009/04/23 15:31:04.9     -58     91    -51    108    119 327.5 -31.6  34252  291.15 0854.43
2009/04/23 15:31:05.0    -104    109     13    151    152 316.3   5.0  34252  291.13 0854.43
2009/04/23 15:31:05.1    -129    217    -32    253    256 329.3  -7.3  34258  291.22 0854.43
2009/04/23 15:31:05.2    -294    118   -113    318    337 292.0 -24.6  34228  290.74 0854.43
2009/04/23 15:31:05.3    -303    252   -135    395    418 309.8 -19.0  34240  290.94 0854.43
2009/04/23 15:31:05.4    -380    238   -141    449    470 302.1 -22.4  34220  290.58 0854.43
2009/04/23 15:31:05.5    -374    115    -12    392    393 287.1  -1.9  34242  290.96 0854.43
2009/04/23 15:31:05.6    -349     45     11    352    353 277.5   1.8  34244  291.00 0854.43
2009/04/23 15:31:05.7    -244     41    102    248    268 279.6  23.6  34252  291.12 0854.43
2009/04/23 15:31:05.8    -358    172    -35    398    400 295.7  -5.1  34210  290.42 0854.43
2009/04/23 15:31:05.9    -375    141    -77    401    409 290.7 -10.9  34230  290.75 0854.43
2009/04/23 15:31:06.0    -454     54    -88    458    467 276.8 -10.9  34208  290.38 0854.43
2009/04/23 15:31:06.1    -561    -21   -117    562    575 267.8 -11.8  34210  290.42 0854.44
2009/04/23 15:31:06.2    -411    130    -94    432    443 287.5 -12.4  34270  291.43 0854.44
2009/04/23 15:31:06.3    -300    171     63    346    352 299.7  10.4  34248  291.08 0854.44
2009/04/23 15:31:06.4    -224    173    167    284    329 307.8  33.3  34252  291.14 0854.44
2009/04/23 15:31:06.5    -108    -51    190    120    224 244.6  64.7  34260  291.26 0854.44
2009/04/23 15:31:06.6    -119   -132    242    179    301 222.1  60.5  34256  291.21 0854.44
2009/04/23 15:31:06.7    -106   -213    153    239    283 206.5  35.6  34248  291.05 0854.44
2009/04/23 15:31:06.8     -34   -228     19    231    232 188.7   4.9  34250  291.11 0854.44
2009/04/23 15:31:06.9      -1   -220     79    221    234 180.5  20.4  34248  291.06 0854.44
2009/04/23 15:31:07.0      23   -239     48    241    246 174.4  11.4  34248  291.05 0854.44
2009/04/23 15:31:07.1      15   -238     50    239    245 176.2  12.0  34250  291.10 0854.44
2009/04/23 15:31:07.2      -6   -192    115    193    224 182.0  33.7  34244  291.01 0854.44
2009/04/23 15:31:07.3     -70   -199    120    212    243 199.4  32.3  34250  291.09 0854.44
2009/04/23 15:31:07.4    -194   -181     62    266    274 226.9  13.2  34260  291.26 0854.44
2009/04/23 15:31:07.5    -115   -241     97    268    286 205.5  19.9  34248  291.07 0854.44
2009/04/23 15:31:07.6     -86   -214    125    231    262 201.9  31.0  34246  291.02 0854.44
2009/04/23 15:31:07.7    -103   -164    161    194    252 212.1  43.8  34258  291.22 0854.44
2009/04/23 15:31:07.8    -129   -169    171    213    273 217.4  42.8  34260  291.27 0854.44
2009/04/23 15:31:07.9    -104   -164    126    195    232 212.3  35.6  34250  291.09 0854.44
2009/04/23 15:31:08.0     -87   -197    134    216    254 203.8  35.0  34264  291.33 0854.44
2009/04/23 15:31:08.1    -163   -218     93    273    289 216.9  18.9  34260  291.27 0854.45
2009/04/23 15:31:08.2      -2   -194    144    195    242 180.7  39.9  34276  291.54 0854.45
2009/04/23 15:31:08.3     -15    -92    131     94    161 189.3  60.8  34300  291.95 0854.45
2009/04/23 15:31:08.4      42    -80    114     91    145 151.9  57.5  34308  292.08 0854.45
2009/04/23 15:31:08.5     -34   -166    208    170    268 191.8  56.4  34286  291.70 0854.45
2009/04/23 15:31:08.6     -89   -234    146    251    290 200.9  33.1  34282  291.63 0854.45
2009/04/23 15:31:08.7     -57   -277    168    284    329 191.8  33.6  34266  291.36 0854.45
2009/04/23 15:31:08.8     -43   -273    107    277    296 189.1  22.3  34276  291.55 0854.45
2009/04/23 15:31:08.9    -140   -218     91    260    276 212.7  19.4  34284  291.68 0854.45
2009/04/23 15:31:09.0    -181   -282    132    336    361 212.8  22.7  34288  291.76 0854.45
2009/04/23 15:31:09.1    -142   -247    160    286    327 209.9  31.7  34298  291.90 0854.45
2009/04/23 15:31:09.2    -166   -200    128    261    290 219.6  28.0  34314  292.18 0854.45
2009/04/23 15:31:09.3    -132   -151    144    201    247 221.2  39.1  34296  291.87 0854.45
2009/04/23 15:31:09.4     -58   -156    197    167    258 200.5  55.4  34284  291.69 0854.45
2009/04/23 15:31:09.5      34   -199    184    203    273 170.2  46.9  34310  292.13 0854.45
2009/04/23 15:31:09.6     -38   -194    199    198    280 191.3  50.1  34292  291.82 0854.45
2009/04/23 15:31:09.7     -46   -209    187    215    284 192.5  45.6  34274  291.50 0854.45
2009/04/23 15:31:09.8    -130   -167    147    212    257 217.9  38.4  34304  292.01 0854.45
2009/04/23 15:31:09.9    -112   -112     99    159    187 224.9  35.2  34300  291.95 0854.45
2009/04/23 15:31:10.0    -108   -128    136    168    216 220.3  43.5  34282  291.64 0854.45
2009/04/23 15:31:10.1    -131    -62     57    146    156 244.6  22.5  34306  292.06 0854.43
2009/04/23 15:31:10.2     -60    -91     87    110    140 213.4  42.2  34280  291.62 0854.43
2009/04/23 15:31:10.3     -63    -67     10     93     94 223.2   6.5  34318  292.27 0854.43
2009/04/23 15:31:10.4      44   -124     81    132    154 160.4  35.5  34304  292.01 0854.43
2009/04/23 15:31:10.5      11   -142    164    143    217 175.5  54.3  34320  292.29 0854.43
2009/04/23 15:31:10.6     -61   -196    125    206    240 197.4  34.4  34298  291.91 0854.43
2009/04/23 15:31:10.7     -77   -148    163    168    234 207.6  49.4  34310  292.12 0854.43
2009/04/23 15:31:10.8     -31   -155    164    159    228 191.6  50.9  34304  292.01 0854.43
2009/04/23 15:31:10.9     -27   -210    176    212    275 187.6  43.8  34302  291.99 0854.43
2009/04/23 15:31:11.0     -87   -179    197    200    280 205.9  49.9  34300  291.94 0854.43
2009/04/23 15:31:11.1     -78   -200    109    215    241 201.4  29.1  34278  291.56 0854.43
2009/04/23 15:31:11.2     -98   -183     77    208    221 208.1  21.0  34282  291.66 0854.43
2009/04/23 15:31:11.3     -42    -88     41     98    106 205.4  23.6  34280  291.60 0854.43
2009/04/23 15:31:11.4    -148      2   -114    149    187 270.9 -45.6  34238  290.89 0854.43
2009/04/23 15:31:11.5    -205     -6    -33    206    209 268.1  -9.3  34224  290.65 0854.43
2009/04/23 15:31:11.6     -39    -21     82     45     93 241.1  69.3  34274  291.50 0854.43
2009/04/23 15:31:11.7    -134    -41     64    141    154 252.7  26.6  34278  291.59 0854.43
2009/04/23 15:31:11.8    -160    -32     45    164    171 258.5  15.6  34286  291.72 0854.43
2009/04/23 15:31:11.9     -51      0     52     52     73 270.0  50.1  34288  291.76 0854.43
2009/04/23 15:31:12.0     -71     35     -9     80     81 296.2  -6.7  34296  291.89 0854.43
2009/04/23 15:31:12.1    -123     75    -43    145    152 301.5 -16.6  34300  291.96 0854.43
2009/04/23 15:31:12.2    -127    188    -36    228    231 325.9  -9.0  34318  292.27 0854.43
2009/04/23 15:31:12.3    -119    119    -65    169    181 315.1 -26.7  34324  292.37 0854.43
2009/04/23 15:31:12.4    -126     94    -44    158    165 306.9 -15.8  34312  292.15 0854.43
2009/04/23 15:31:12.5    -197    -48    -76    203    216 256.1 -25.9  34252  291.13 0854.43
2009/04/23 15:31:12.6    -181     80      6    199    200 294.0   1.8  34244  290.99 0854.43
2009/04/23 15:31:12.7     -25     25    -63     36     72 314.9 -73.2  34246  291.03 0854.43
2009/04/23 15:31:12.8       7      2    -78      8     78  71.4 -90.0  34252  291.13 0854.43
2009/04/23 15:31:12.9    -137    -87    -25    163    165 237.6  -8.8  34258  291.25 0854.43
2009/04/23 15:31:13.0    -207     37    -42    211    216 280.1 -11.3  34308  292.08 0854.43
2009/04/23 15:31:13.1    -249    -27   -100    251    270 263.6 -27.4  34300  291.94 0854.43
2009/04/23 15:31:13.2    -224   -123   -109    256    278 241.2 -28.7  34290  291.78 0854.43
2009/04/23 15:31:13.3    -196   -101   -119    221    251 242.7 -35.2  34294  291.84 0854.43
2009/04/23 15:31:13.4    -245    -99   -110    265    286 248.0 -28.2  34300  291.96 0854.43
2009/04/23 15:31:13.5    -255    -62    -73    263    273 256.3 -15.5  34312  292.14 0854.43
2009/04/23 15:31:13.6    -212     57     -1    220    221 285.1  -0.3  34300  291.95 0854.43
2009/04/23 15:31:13.7     -94    -29     19     99    101 252.7  11.1  34296  291.89 0854.43
2009/04/23 15:31:13.8    -122   -115     61    169    179 226.7  20.4  34280  291.62 0854.43
2009/04/23 15:31:13.9    -142    -68    -41    158    164 244.2 -14.7  34280  291.62 0854.43
2009/04/23 15:31:14.0    -176    -86    -40    197    202 243.8 -11.6  34284  291.67 0854.43
2009/04/23 15:31:14.1    -188   -105    -24    216    218 240.9  -6.5  34286  291.71 0854.44
2009/04/23 15:31:14.2    -160    -60     71    171    185 249.4  23.6  34284  291.69 0854.44
2009/04/23 15:31:14.3    -193      4     52    194    202 271.3  15.2  34254  291.18 0854.44
2009/04/23 15:31:14.4    -196    -51     38    203    207 255.2  10.8  34266  291.38 0854.44
2009/04/23 15:31:14.5    -172     81    -39    191    196 295.1 -11.6  34212  290.47 0854.44
2009/04/23 15:31:14.6    -190     59     -7    200    201 287.3  -2.2  34218  290.55 0854.44
2009/04/23 15:31:14.7    -136     54    -24    147    149 291.7  -9.3  34230  290.75 0854.44
2009/04/23 15:31:14.8     -87     22    -26     90     93 284.2 -21.7  34234  290.84 0854.44
2009/04/23 15:31:14.9     -32      7    -31     33     45 283.3 -53.4  34232  290.81 0854.44
2009/04/23 15:31:15.0     -53    -33    -35     63     72 237.6 -35.8  34232  290.81 0854.44
2009/04/23 15:31:15.1    -206    -97    -76    228    241 244.8 -18.6  34184  289.97 0854.44
2009/04/23 15:31:15.2    -150   -236    -91    280    294 212.5 -23.0  34204  290.31 0854.44
2009/04/23 15:31:15.3    -193   -186    -81    269    280 226.0 -21.8  34192  290.10 0854.44
2009/04/23 15:31:15.4    -258   -164   -105    306    324 237.6 -19.0  34192  290.12 0854.44
2009/04/23 15:31:15.5    -234   -125    -18    266    267 241.8  -3.9  34194  290.15 0854.44
2009/04/23 15:31:15.6    -236   -106    -84    259    272 245.8 -23.6  34168  289.70 0854.44
2009/04/23 15:31:15.7    -194    -52   -118    201    233 254.9 -37.8  34162  289.62 0854.44
2009/04/23 15:31:15.8    -266    -17   -149    267    305 266.3 -35.8  34166  289.68 0854.44
2009/04/23 15:31:15.9    -290    -24    -90    292    306 265.2 -17.3  34164  289.63 0854.44
2009/04/23 15:31:16.0    -350    -36   -123    352    372 264.0 -24.4  34172  289.76 0854.44
2009/04/23 15:31:16.1    -443    -20   -179    444    478 267.3 -27.5  34160  289.57 0854.44
2009/04/23 15:31:16.2    -460     34   -241    462    521 274.3 -34.0  34162  289.61 0854.44
2009/04/23 15:31:16.3    -429     -6   -144    430    453 269.1 -23.3  34164  289.65 0854.44
2009/04/23 15:31:16.4    -371     37   -133    373    397 275.8 -19.7  34166  289.67 0854.44
2009/04/23 15:31:16.5    -399     25   -130    400    420 273.6 -23.3  34164  289.63 0854.44
2009/04/23 15:31:16.6    -402     34   -111    404    418 274.9 -20.0  34158  289.55 0854.44
2009/04/23 15:31:16.7    -386     77   -128    394    414 281.4 -23.0  34162  289.60 0854.44
2009/04/23 15:31:16.8    -315    136   -153    344    376 293.4 -29.7  34158  289.54 0854.44
2009/04/23 15:31:16.9    -272    178   -168    326    366 303.2 -33.7  34152  289.43 0854.44
2009/04/23 15:31:17.0    -278    142   -132    313    339 297.0 -28.6  34158  289.54 0854.44
2009/04/23 15:31:17.1    -228    149   -131    273    302 303.3 -31.7  34162  289.61 0854.43
2009/04/23 15:31:17.2    -252    160   -131    299    326 302.4 -29.6  34166  289.66 0854.43
2009/04/23 15:31:17.3    -194    139    -83    239    253 305.7 -24.0  34168  289.71 0854.43
2009/04/23 15:31:17.4    -277    116   -104    301    319 292.8 -19.1  34164  289.64 0854.43
2009/04/23 15:31:17.5    -194    149   -128    245    276 307.5 -34.2  34164  289.63 0854.43
2009/04/23 15:31:17.6    -277    218   -104    353    368 308.3 -21.4  34162  289.59 0854.43
2009/04/23 15:31:17.7    -256    116    -78    282    293 294.4 -15.5  34168  289.71 0854.43
2009/04/23 15:31:17.8    -192    181    -83    264    276 313.3 -22.5  34162  289.61 0854.43
2009/04/23 15:31:17.9    -250    169   -127    302    327 304.1 -28.5  34164  289.64 0854.43
2009/04/23 15:31:18.0    -108    220   -130    246    278 333.7 -34.6  34176  289.83 0854.43
2009/04/23 15:31:18.1     -99    249   -162    269    314 338.2 -38.1  34166  289.66 0854.43
2009/04/23 15:31:18.2     -82    183   -130    201    239 335.7 -40.4  34168  289.72 0854.43
2009/04/23 15:31:18.3     -97    232   -104    252    272 337.2 -28.0  34166  289.68 0854.43
2009/04/23 15:31:18.4    -212    116   -174    242    298 298.8 -43.9  34164  289.63 0854.43
2009/04/23 15:31:18.5    -273    173   -189    324    375 302.3 -37.3  34168  289.72 0854.43
2009/04/23 15:31:18.6    -312    260   -134    407    429 309.8 -18.3  34170  289.75 0854.43
2009/04/23 15:31:18.7    -228    362   -128    429    448 327.8 -16.7  34166  289.66 0854.43
2009/04/23 15:31:18.8    -296    338   -133    450    469 318.8 -21.2  34164  289.65 0854.43
2009/04/23 15:31:18.9    -296    314   -123    432    449 316.7 -20.7  34162  289.61 0854.43
2009/04/23 15:31:19.0    -354    225   -131    420    439 302.4 -22.3  34166  289.66 0854.43
2009/04/23 15:31:19.1    -331    191   -126    383    403 300.0 -23.5  34176  289.84 0854.44
2009/04/23 15:31:19.2    -353    224   -147    419    444 302.4 -24.5  34178  289.87 0854.44
2009/04/23 15:31:19.3    -182    193   -199    266    332 316.8 -45.0  34174  289.81 0854.44
2009/04/23 15:31:19.4    -248    271   -140    368    393 317.6 -26.4  34174  289.82 0854.44
2009/04/23 15:31:19.5    -172    287   -146    335    365 329.1 -29.5  34178  289.89 0854.44
2009/04/23 15:31:19.6    -292    242   -140    380    404 309.6 -25.4  34174  289.82 0854.44
2009/04/23 15:31:19.7    -275    202    -97    342    355 306.2 -20.5  34176  289.84 0854.44
2009/04/23 15:31:19.8    -198    288   -119    350    370 325.5 -18.8  34178  289.89 0854.44
2009/04/23 15:31:19.9    -188    268    -37    328    331 325.0  -6.6  34184  289.98 0854.44
2009/04/23 15:31:20.0     -98    200    -78    223    237 333.9 -19.4  34174  289.82 0854.44
2009/04/23 15:31:20.1    -116    263    -52    288    293 336.2 -10.3  34194  290.14 0854.44
2009/04/23 15:31:20.2    -130    204    -56    243    250 327.4 -13.2  34192  290.10 0854.44
2009/04/23 15:31:20.3    -100    181    -85    207    223 331.0 -27.5  34194  290.14 0854.44
2009/04/23 15:31:20.4    -129    204    -86    242    258 327.5 -19.7  34186  290.02 0854.44
2009/04/23 15:31:20.5     -51    221    -47    227    233 346.9 -11.9  34188  290.06 0854.44
2009/04/23 15:31:20.6       0    183    -61    184    193   0.0 -23.8  34184  289.99 0854.44
2009/04/23 15:31:20.7    -116    256    -43    282    286 335.5  -8.8  34188  290.03 0854.44
2009/04/23 15:31:20.8     -98    358     19    372    373 344.7   3.0  34184  289.98 0854.44
2009/04/23 15:31:20.9    -135    415     21    437    438 342.0   2.8  34186  290.02 0854.44
2009/04/23 15:31:21.0    -171    362   -103    401    415 334.6 -14.4  34176  289.83 0854.44
2009/04/23 15:31:21.1    -169    340    -69    380    387 333.5 -10.3  34178  289.86 0854.43
2009/04/23 15:31:21.2    -164    297    -36    340    342 331.0  -6.1  34180  289.91 0854.43
2009/04/23 15:31:21.3    -111    295    -12    316    317 339.3  -2.2  34182  289.93 0854.43
2009/04/23 15:31:21.4     -58    255    -27    262    264 347.1  -6.1  34180  289.90 0854.43
2009/04/23 15:31:21.5     -69    264    -45    273    277 345.3  -9.4  34174  289.80 0854.43
2009/04/23 15:31:21.6     -34    278    -40    281    284 352.9  -8.2  34176  289.85 0854.43
2009/04/23 15:31:21.7       8    256    -70    257    267   1.8 -15.4  34178  289.86 0854.43
2009/04/23 15:31:21.8      14    280     -7    281    282   2.9  -1.6  34174  289.81 0854.43
2009/04/23 15:31:21.9      14    264    -49    265    270   3.1 -10.5  34174  289.80 0854.43
2009/04/23 15:31:22.0      -8    250    -41    251    255 358.0  -9.4  34178  289.88 0854.43
2009/04/23 15:31:22.1       0    216    -77    217    231   0.2 -19.6  34176  289.85 0854.43
2009/04/23 15:31:22.2      76    231     -4    244    245  18.3  -1.2  34178  289.86 0854.43
2009/04/23 15:31:22.3     104    255    -18    276    277  22.3  -3.7  34202  290.29 0854.43
2009/04/23 15:31:22.4     113    190     14    222    223  30.8   3.8  34204  290.33 0854.43
2009/04/23 15:31:22.5     131    149     47    199    205  41.2  13.5  34208  290.40 0854.43
2009/04/23 15:31:22.6     172    157     28    233    235  47.6   6.9  34190  290.09 0854.43
2009/04/23 15:31:22.7     137    145      9    200    201  43.4   2.8  34192  290.11 0854.43
2009/04/23 15:31:22.8     125    117      4    172    173  47.1   1.6  34190  290.09 0854.43
2009/04/23 15:31:22.9     109    111    -37    156    161  44.5 -13.4  34188  290.04 0854.43
2009/04/23 15:31:23.0     114     94    -17    148    150  50.5  -6.7  34186  290.01 0854.43
2009/04/23 15:31:23.1     121    108     -6    163    164  48.2  -2.3  34186  290.01 0854.43
2009/04/23 15:31:23.2     119    116     -6    167    168  45.6  -2.2  34182  289.94 0854.43
2009/04/23 15:31:23.3     149     96      3    178    179  57.1   1.0  34182  289.96 0854.43
2009/04/23 15:31:23.4     128    114     -9    172    173  48.2  -3.3  34182  289.96 0854.43
2009/04/23 15:31:23.5     101    116      3    155    156  41.0   1.2  34182  289.94 0854.43
2009/04/23 15:31:23.6     103     86    -15    135    136  50.0  -6.7  34176  289.84 0854.43
2009/04/23 15:31:23.7     112     86    -11    142    143  52.7  -4.6  34182  289.96 0854.43
2009/04/23 15:31:23.8     108     69    -11    129    130  57.5  -5.2  34192  290.11 0854.43
2009/04/23 15:31:23.9      81     38    -19     90     93  64.7 -12.4  34184  289.99 0854.43
2009/04/23 15:31:24.0      75     36    -16     84     86  64.2 -10.9  34186  290.01 0854.43
2009/04/23 15:31:24.1      63     30      3     70     71  64.6   2.9  34196  290.19 0854.43
2009/04/23 15:31:24.2      76     21     31     80     85  74.1  22.0  34226  290.70 0854.43
2009/04/23 15:31:24.3      97     25      4    101    102  75.4   2.3  34254  291.18 0854.43
2009/04/23 15:31:24.4      95     27     44     99    108  74.1  25.7  34248  291.08 0854.43
2009/04/23 15:31:24.5     106     14     13    108    109  82.1   6.9  34228  290.72 0854.43
2009/04/23 15:31:24.6      95     15     19     97     99  80.8  11.1  34218  290.55 0854.43
2009/04/23 15:31:24.7      82     27     29     87     92  71.4  18.9  34206  290.35 0854.43
2009/04/23 15:31:24.8      78     31     35     85     91  68.3  23.6  34198  290.21 0854.43
2009/04/23 15:31:24.9      42     26     42     50     65  57.6  43.8  34206  290.35 0854.43
2009/04/23 15:31:25.0      34     48     36     59     69  35.2  35.5  34216  290.52 0854.43
2009/04/23 15:31:25.1      41     23     60     48     76  60.2  56.4  34254  291.16 0854.46
2009/04/23 15:31:25.2      34      0     67     35     75  90.0  69.8  34282  291.64 0854.46
2009/04/23 15:31:25.3      68     -5     66     69     95  94.3  49.0  34266  291.38 0854.46
2009/04/23 15:31:25.4      68      0     55     69     88  90.0  43.7  34276  291.55 0854.46
2009/04/23 15:31:25.5      55     15     47     58     74  74.1  43.7  34292  291.83 0854.46
2009/04/23 15:31:25.6      31     14     31     35     46  64.7  46.9  34294  291.84 0854.46
2009/04/23 15:31:25.7      52     17     18     55     58  71.4  18.4  34296  291.88 0854.46
2009/04/23 15:31:25.8      27     14     47     31     56  62.9  64.6  34308  292.08 0854.46
2009/04/23 15:31:25.9      39     13     66     42     78  71.6  64.7  34326  292.40 0854.46
2009/04/23 15:31:26.0       8     12     53     15     55  32.6  83.9  34330  292.46 0854.46
2009/04/23 15:31:26.1      30     16     64     35     72  61.1  68.9  34336  292.58 0854.46
2009/04/23 15:31:26.2      12     16     53     21     57  36.1  78.2  34342  292.68 0854.46
2009/04/23 15:31:26.3      56      0     60     57     82  90.0  51.2  34330  292.47 0854.46
2009/04/23 15:31:26.4      50     16     68     53     86  71.8  58.5  34324  292.37 0854.46
2009/04/23 15:31:26.5      28     31     39     43     58  42.3  47.9  34338  292.59 0854.46
2009/04/23 15:31:26.6      33     15     48     37     60  64.7  58.5  34342  292.66 0854.46
2009/04/23 15:31:26.7      14      4     42     15     44  71.6  81.2  34346  292.75 0854.46
2009/04/23 15:31:26.8      10     19     38     22     43  27.2  67.7  34356  292.92 0854.46
2009/04/23 15:31:26.9       6    -20     42     22     47 161.5  69.8  34354  292.86 0854.46
2009/04/23 15:31:27.0      12      4     53     13     54  71.8  85.9  34340  292.64 0854.46
2009/04/23 15:31:27.1      -6     43     41     44     60 352.0  48.0  34350  292.80 0854.46
2009/04/23 15:31:27.3      12     16     46     21     50  36.1  73.1  34342  292.68 0854.46
2009/04/23 15:31:27.3      57    -19     56     61     82 108.4  47.9  34316  292.23 0854.46
2009/04/23 15:31:27.4     114    -57     72    128    146 116.6  31.4  34278  291.57 0854.46
2009/04/23 15:31:27.5     113    -40     73    120    140 109.5  34.0  34250  291.11 0854.46
2009/04/23 15:31:27.6      86    -31     73     92    117 110.0  43.3  34244  290.99 0854.46
2009/04/23 15:31:27.7       7    -34     80     35     87 168.4  75.5  34246  291.03 0854.46
2009/04/23 15:31:27.9      10    -49     86     51     99 168.4  66.8  34264  291.35 0854.46
2009/04/23 15:31:28.0     -17    -21     98     28    101 219.6  83.9  34280  291.62 0854.46
2009/04/23 15:31:28.1       0    -25     97     26    100 180.9  84.9  34296  291.89 0854.46
2009/04/23 15:31:28.1      -1     13     75     14     76 353.8  90.0  34292  291.83 0854.46
2009/04/23 15:31:28.3       3     -7     72      8     72 154.6  90.0  34280  291.62 0854.46
2009/04/23 15:31:28.4       6    -26     81     27     85 166.6  81.0  34280  291.62 0854.46
2009/04/23 15:31:28.5      45     12     93     47    104  74.9  70.8  34290  291.77 0854.46
2009/04/23 15:31:28.6       4    -17     65     18     67 164.9  84.8  34292  291.83 0854.46
2009/04/23 15:31:28.7      37    -50     60     63     87 143.0  49.0  34290  291.77 0854.46
2009/04/23 15:31:28.8      21     29     69     37     78  36.1  69.8  34296  291.89 0854.46
2009/04/23 15:31:28.9     102    -48     91    114    145 115.4  42.7  34280  291.62 0854.46
2009/04/23 15:31:29.0      90     11     87     91    125  83.0  49.0  34282  291.66 0854.46
2009/04/23 15:31:29.1     117     35     89    123    151  73.1  39.7  34342  292.66 0854.46
2009/04/23 15:31:29.2      41     16    110     45    118  68.3  77.0  34338  292.59 0854.44
2009/04/23 15:31:29.3      99     46    126    110    167  65.2  54.6  34378  293.29 0854.44
2009/04/23 15:31:29.4     134     18    143    136    197  82.0  51.6  34364  293.05 0854.44
2009/04/23 15:31:29.5     147     69    141    163    215  64.7  45.6  34398  293.62 0854.44
2009/04/23 15:31:29.6     139     20    144    141    201  81.6  50.4  34324  292.35 0854.44
2009/04/23 15:31:29.7     122     76    161    144    216  58.0  53.7  34384  293.39 0854.44
2009/04/23 15:31:29.8      54    150    139    160    211  20.0  45.6  34304  292.03 0854.44
2009/04/23 15:31:29.9     140    167    127    219    253  39.9  32.7  34328  292.43 0854.44
2009/04/23 15:31:30.0      93    181    100    204    227  27.4  27.8  34234  290.84 0854.44
2009/04/23 15:31:30.1      58    198     74    207    219  16.5  20.4  34226  290.69 0854.44
2009/04/23 15:31:30.2      58    216     82    224    238  15.1  21.0  34250  291.09 0854.44
2009/04/23 15:31:30.3      29    268     73    270    280   6.2  15.3  34346  292.74 0854.44
2009/04/23 15:31:30.4      33    236     90    239    255   8.1  21.7  34376  293.25 0854.44
2009/04/23 15:31:30.5      43    212     48    217    223  11.6  12.6  34378  293.27 0854.44
2009/04/23 15:31:30.6      24    232     41    234    238   6.0  10.1  34352  292.84 0854.44
2009/04/23 15:31:30.7       4    248     12    249    250   1.0   2.9  34272  291.48 0854.44
2009/04/23 15:31:30.8      87    212    -20    230    231  22.3  -5.1  34298  291.93 0854.44
2009/04/23 15:31:30.9     148    157    -98    216    237  43.3 -30.6  34278  291.59 0854.44
2009/04/23 15:31:31.0     191    114   -102    223    245  59.3 -30.6  34306  292.04 0854.44
2009/04/23 15:31:31.1     133     84    -89    158    181  57.6 -36.0  34296  291.88 0854.43
2009/04/23 15:31:31.2     109     68    -84    129    153  58.0 -40.0  34280  291.62 0854.43
2009/04/23 15:31:31.3     152     52    -45    161    167  70.9 -20.4  34280  291.60 0854.43
2009/04/23 15:31:31.4     171     24    -37    173    178  81.9 -12.2  34282  291.66 0854.43
2009/04/23 15:31:31.5     158     36      9    163    164  77.2   3.3  34298  291.93 0854.43
2009/04/23 15:31:31.6     100     31    -63    105    122  72.7 -37.9  34318  292.25 0854.43
2009/04/23 15:31:31.7      48     18    -74     52     90  69.2 -65.9  34342  292.68 0854.43
2009/04/23 15:31:31.8      62      3    -68     63     92  86.5 -56.6  34324  292.37 0854.43
2009/04/23 15:31:31.9      93     15    -65     95    115  80.8 -42.0  34304  292.03 0854.43
2009/04/23 15:31:32.0      85      6    -61     86    105  85.6 -43.5  34296  291.88 0854.43
2009/04/23 15:31:32.1      48     27    -74     56     92  60.2 -62.9  34324  292.35 0854.43
2009/04/23 15:31:32.2      42     31    -74     53     91  54.0 -65.5  34320  292.30 0854.43
2009/04/23 15:31:32.3      32     60    -92     69    115  28.1 -64.4  34318  292.25 0854.43
2009/04/23 15:31:32.4     -28     49    -69     57     89 330.1 -60.8  34298  291.91 0854.43
2009/04/23 15:31:32.5     -50     32    -57     60     82 303.3 -53.4  34292  291.83 0854.43
2009/04/23 15:31:32.6       3     -3    -53      5     53 135.0 -90.0  34320  292.29 0854.43
2009/04/23 15:31:32.7     -28    -42    -28     51     58 214.3 -35.8  34308  292.08 0854.43
2009/04/23 15:31:32.8     -88    -73    -27    115    119 230.5 -13.4  34314  292.18 0854.43
2009/04/23 15:31:32.9     -85   -115    -45    144    150 216.5 -22.8  34316  292.23 0854.43
2009/04/23 15:31:33.0     -28   -167     -1    170    171 189.6  -0.5  34324  292.35 0854.43
2009/04/23 15:31:33.1     -30   -178    -13    181    182 189.8  -4.4  34322  292.32 0854.43
2009/04/23 15:31:33.2      21   -207    -26    209    211 174.2  -7.3  34324  292.35 0854.43
2009/04/23 15:31:33.3      -8   -194    -38    195    199 182.5 -11.1  34328  292.42 0854.43
2009/04/23 15:31:33.4     -59   -155      5    167    168 200.9   1.8  34334  292.52 0854.43
2009/04/23 15:31:33.5     -90   -189     10    210    211 205.6   2.8  34314  292.20 0854.43
2009/04/23 15:31:33.6     -21   -200     29    202    205 186.0   8.2  34250  291.11 0854.43
2009/04/23 15:31:33.7      13   -286     67    287    295 177.3  13.2  34218  290.56 0854.43
2009/04/23 15:31:33.8     -10   -293     57    294    300 182.0  11.1  34220  290.58 0854.43
2009/04/23 15:31:33.9     -32   -269     45    271    275 186.9   9.5  34228  290.73 0854.43
2009/04/23 15:31:34.0      19   -261     63    262    270 175.8  13.7  34228  290.71 0854.43
2009/04/23 15:31:34.1     -19   -249     29    250    252 184.4   6.7  34230  290.75 0854.43
2009/04/23 15:31:34.2     -10   -229     49    230    236 182.5  12.2  34222  290.63 0854.43
2009/04/23 15:31:34.3       0   -204     95    205    225 180.0  27.1  34212  290.45 0854.43
2009/04/23 15:31:34.4       1   -177     78    178    194 179.5  25.3  34208  290.40 0854.43
2009/04/23 15:31:34.5      16   -185     36    186    190 174.9  11.0  34208  290.38 0854.43
2009/04/23 15:31:34.6      67   -171     60    184    194 158.6  18.1  34212  290.47 0854.43
2009/04/23 15:31:34.7      93   -172     71    196    208 151.5  20.7  34220  290.58 0854.43
2009/04/23 15:31:34.8      59   -158     72    169    183 159.3  24.1  34226  290.69 0854.43
2009/04/23 15:31:34.9      39   -190     68    195    207 168.2  19.4  34222  290.62 0854.43
2009/04/23 15:31:35.0      62   -196     50    206    212 162.4  13.7  34214  290.50 0854.43
2009/04/23 15:31:35.1     -13   -210     48    211    217 183.8  12.9  34206  290.36 0854.45
2009/04/23 15:31:35.2     -51   -191     63    198    208 195.2  17.7  34204  290.31 0854.45
2009/04/23 15:31:35.3     -72   -196     41    209    214 200.3  11.1  34202  290.30 0854.45
2009/04/23 15:31:35.4     -56   -170     69    180    192 198.3  21.7  34218  290.55 0854.45
2009/04/23 15:31:35.5     -64   -165     93    178    200 201.4  29.5  34222  290.64 0854.45
2009/04/23 15:31:35.6     -44   -100     93    110    144 204.1  44.3  34228  290.72 0854.45
2009/04/23 15:31:35.7     -15   -138     58    139    150 186.2  23.6  34240  290.92 0854.45
2009/04/23 15:31:35.8      -5   -122     54    123    134 182.7  25.1  34228  290.74 0854.45
2009/04/23 15:31:35.9      30   -161     21    164    166 169.1   7.5  34220  290.60 0854.45
2009/04/23 15:31:36.0     -25   -134     16    137    139 190.7   6.9  34220  290.60 0854.45
2009/04/23 15:31:36.1       8   -127     27    128    131 176.0  12.2  34224  290.67 0854.48
2009/04/23 15:31:36.2       0   -113     22    114    117 179.5  11.1  34232  290.79 0854.48
2009/04/23 15:31:36.3     -59   -130    -18    143    145 204.5  -7.3  34222  290.64 0854.48
2009/04/23 15:31:36.4     -30   -184    -26    187    189 189.3  -8.0  34226  290.69 0854.48
2009/04/23 15:31:36.5     -87   -177    -55    198    205 206.1 -20.0  34228  290.72 0854.48
2009/04/23 15:31:36.6     -93   -120    -64    153    165 217.8 -28.2  34232  290.81 0854.48
2009/04/23 15:31:36.7     -81    -81    -59    115    129 225.0 -33.7  34238  290.89 0854.48
2009/04/23 15:31:36.8      37    -80     14     89     91 155.1   9.0  34230  290.75 0854.48
2009/04/23 15:31:36.9    -100   -187     -8    213    214 208.3  -2.2  34232  290.81 0854.48
2009/04/23 15:31:37.0    -109   -255    -77    278    289 203.2 -15.5  34246  291.02 0854.48
2009/04/23 15:31:37.1     -90   -255    102    271    289 199.4  21.3  34244  291.00 0854.48
2009/04/23 15:31:37.2    -144   -265    115    302    323 208.5  21.8  34262  291.29 0854.48
2009/04/23 15:31:37.3    -200   -167    147    261    299 230.2  31.6  34242  290.95 0854.48
2009/04/23 15:31:37.4    -112   -223    146    250    289 206.7  33.1  34254  291.17 0854.48
2009/04/23 15:31:37.5    -113   -213    106    242    264 207.9  25.2  34242  290.97 0854.48
2009/04/23 15:31:37.6     -95   -124    178    157    237 217.4  54.2  34274  291.52 0854.48
2009/04/23 15:31:37.7    -165    -79    137    184    229 244.2  40.1  34254  291.18 0854.48
2009/04/23 15:31:37.8    -172   -172     34    244    247 225.0   8.0  34242  290.95 0854.48
2009/04/23 15:31:37.9    -170    -78    -58    188    196 245.2 -21.8  34242  290.98 0854.48
2009/04/23 15:31:38.0    -174    130     47    218    224 306.6  12.2  34264  291.35 0854.48
2009/04/23 15:31:38.1    -112    106     68    155    169 313.2  25.3  34284  291.67 0854.47
2009/04/23 15:31:38.2    -109     96    115    146    185 311.3  42.2  34318  292.27 0854.47
2009/04/23 15:31:38.3    -109    109     73    155    171 314.9  27.1  34342  292.68 0854.47
2009/04/23 15:31:38.4    -157     28     65    160    172 280.1  23.0  34314  292.20 0854.47
2009/04/23 15:31:38.5    -211    130     28    248    250 301.6   6.5  34288  291.73 0854.47
2009/04/23 15:31:38.6     -77    130      7    152    153 329.3   2.9  34276  291.54 0854.47
2009/04/23 15:31:38.7     -37     44     45     58     73 320.3  42.7  34274  291.52 0854.47
2009/04/23 15:31:38.8    -168    -22     20    170    172 262.5   6.9  34274  291.50 0854.47
2009/04/23 15:31:38.9    -138    -59     45    151    158 246.9  16.8  34276  291.55 0854.47
2009/04/23 15:31:39.0     -50    -60     66     79    102 219.6  44.3  34288  291.74 0854.47
2009/04/23 15:31:39.1     125    -59     50    139    147 115.2  20.4  34292  291.83 0854.47
2009/04/23 15:31:39.2     274     -6     34    275    278  91.3   7.1  34262  291.29 0854.47
2009/04/23 15:31:39.3     234    -89     86    251    266 110.8  18.9  34258  291.24 0854.47
2009/04/23 15:31:39.4     131    -57     22    144    146 113.6   9.0  34252  291.13 0854.47
2009/04/23 15:31:39.5      76   -288    -60    298    305 165.1 -11.5  34286  291.72 0854.47
2009/04/23 15:31:39.6     279   -302    -70    412    418 137.2  -9.7  34288  291.75 0854.47
2009/04/23 15:31:39.7     420   -272    -72    501    507 123.0  -8.3  34284  291.68 0854.47
2009/04/23 15:31:39.8     506   -320    -75    599    604 122.3  -7.2  34278  291.58 0854.47
2009/04/23 15:31:39.9     346   -272   -152    441    467 128.2 -19.1  34280  291.62 0854.47
2009/04/23 15:31:40.0     325   -151   -115    359    376 115.0 -23.0  34280  291.62 0854.47
2009/04/23 15:31:40.1     523     72   -156    528    551  82.1 -16.5  34222  290.63 0854.45
2009/04/23 15:31:40.2     583    197    -65    616    620  71.3  -6.1  34198  290.23 0854.45
2009/04/23 15:31:40.3     555    196   -190    589    619  70.5 -17.9  34252  291.14 0854.45
2009/04/23 15:31:40.4     482    205   -266    524    587  66.9 -33.6  34264  291.35 0854.45
2009/04/23 15:31:40.5     269     24   -270    271    382  84.8 -54.4  34288  291.73 0854.45
2009/04/23 15:31:40.6     240   -177   -254    299    392 126.4 -49.2  34282  291.66 0854.45
2009/04/23 15:31:40.7     262   -205   -228    333    403 128.0 -42.0  34270  291.44 0854.45
2009/04/23 15:31:40.8     219   -231   -239    319    398 136.6 -45.1  34274  291.52 0854.45
2009/04/23 15:31:40.9     248   -192   -112    314    333 127.8 -25.0  34268  291.41 0854.45
2009/04/23 15:31:41.0     432   -166     20    463    464 111.1   2.5  34268  291.41 0854.45
2009/04/23 15:31:41.1     478   -147    222    501    547 107.1  25.6  34284  291.69 0854.45
2009/04/23 15:31:41.2     377     42    219    380    438  83.5  32.7  34296  291.89 0854.45
2009/04/23 15:31:41.3     203    -22    271    205    339  96.2  59.3  34306  292.06 0854.45
2009/04/23 15:31:41.4     465     27    300    466    554  86.6  35.9  34266  291.38 0854.45
2009/04/23 15:31:41.5     343     74    383    352    520  77.7  52.8  34242  290.98 0854.45
2009/04/23 15:31:41.6     308    225    436    382    579  53.9  54.3  34252  291.14 0854.45
2009/04/23 15:31:41.7     323    234    270    400    482  54.0  37.3  34238  290.89 0854.45
2009/04/23 15:31:41.8     200     65    283    211    353  71.8  59.7  34292  291.82 0854.45
2009/04/23 15:31:41.9      45     45    167     65    179  45.0  77.6  34336  292.56 0854.45
2009/04/23 15:31:42.0     184     -9    283    185    338  93.0  63.9  34280  291.60 0854.45
2009/04/23 15:31:42.1      -5    -73    179     74    193 184.5  76.8  34294  291.86 0854.43
2009/04/23 15:31:42.2      65    -14    143     67    157 102.4  73.5  34310  292.12 0854.43
2009/04/23 15:31:42.3     -46    -56    102     73    125 219.6  61.1  34310  292.12 0854.43
2009/04/23 15:31:42.4     -85    -98     59    131    143 221.0  25.7  34296  291.89 0854.43
2009/04/23 15:31:42.5     -27   -179    126    182    221 188.7  37.8  34288  291.74 0854.43
2009/04/23 15:31:42.6      -4   -243    107    244    266 181.0  25.2  34268  291.39 0854.43
2009/04/23 15:31:42.7      12   -236    156    237    283 177.1  36.5  34270  291.43 0854.43
2009/04/23 15:31:42.8       3   -196    196    197    277 179.1  50.0  34280  291.60 0854.43
2009/04/23 15:31:42.9     -44   -225    197    230    302 191.1  44.8  34272  291.48 0854.43
2009/04/23 15:31:43.0     -83   -323    163    334    371 194.4  27.9  34272  291.47 0854.43
2009/04/23 15:31:43.1     -12   -347    148    348    378 182.0  24.5  34270  291.45 0854.43
2009/04/23 15:31:43.2      16   -303    119    304    326 176.9  22.5  34258  291.22 0854.43
2009/04/23 15:31:43.3      88   -245    129    261    291 160.2  28.2  34260  291.26 0854.43
2009/04/23 15:31:43.4     -65   -157    206    170    267 202.5  56.4  34278  291.56 0854.43
2009/04/23 15:31:43.5     -20     -8    154     22    155 246.5  90.0  34290  291.79 0854.43
2009/04/23 15:31:43.6      31    -31     51     45     68 135.0  52.2  34276  291.54 0854.43
2009/04/23 15:31:43.7     -42   -181    202    186    274 193.1  52.7  34278  291.58 0854.43
2009/04/23 15:31:43.8     -85   -204    215    222    309 202.7  49.0  34266  291.38 0854.43
2009/04/23 15:31:43.9    -163   -289    130    332    356 209.4  22.7  34252  291.13 0854.43
2009/04/23 15:31:44.0    -156   -326     85    362    372 205.6  13.2  34244  291.01 0854.43
2009/04/23 15:31:44.1    -182   -327     99    375    388 209.1  14.9  34248  291.05 0854.44
2009/04/23 15:31:44.2    -165   -206     -9    265    266 218.7  -2.1  34256  291.19 0854.44
2009/04/23 15:31:44.3    -207   -177    -35    273    276 229.3  -7.3  34252  291.14 0854.44
2009/04/23 15:31:44.4     -96   -322     10    337    338 196.6   1.7  34262  291.30 0854.44
2009/04/23 15:31:44.5     -85   -283     25    296    298 196.7   5.0  34272  291.48 0854.44
2009/04/23 15:31:44.6    -275    -89     14    290    291 252.1   2.8  34278  291.56 0854.44
2009/04/23 15:31:44.7    -308   -223    -97    381    394 234.0 -14.4  34298  291.93 0854.44
2009/04/23 15:31:44.8    -303    -55    -66    308    316 259.6 -12.2  34316  292.21 0854.44
2009/04/23 15:31:44.9    -228    -63     -9    237    238 254.5  -2.2  34304  292.02 0854.44
2009/04/23 15:31:45.0    -327     29    -18    329    330 275.1  -3.2  34280  291.62 0854.44
2009/04/23 15:31:45.1     -85   -155    108    177    207 208.7  34.4  34298  291.93 0854.44
2009/04/23 15:31:45.2      28   -389     30    391    393 175.8   4.4  34282  291.64 0854.44
2009/04/23 15:31:45.3      76   -311      6    321    322 166.2   1.1  34262  291.29 0854.44
2009/04/23 15:31:45.4      73   -221   -120    233    262 161.7 -33.7  34264  291.33 0854.44
2009/04/23 15:31:45.5     109   -213    -66    240    248 152.9 -20.2  34256  291.19 0854.44
2009/04/23 15:31:45.6     -31   -286     67    288    296 186.2  13.2  34248  291.05 0854.44
2009/04/23 15:31:45.7     -27   -236     62    238    246 186.7  14.7  34244  291.00 0854.44
2009/04/23 15:31:45.8    -114   -179     71    213    225 212.5  18.4  34244  291.01 0854.44
2009/04/23 15:31:45.9     -45    -45     81     64    103 225.0  57.5  34250  291.11 0854.44
2009/04/23 15:31:46.0     -39     40     32     56     64 315.8  32.4  34258  291.23 0854.44
2009/04/23 15:31:46.1     -15     43     66     46     80 340.0  61.5  34260  291.26 0854.44
2009/04/23 15:31:46.2     -15     40    115     43    122 339.1  79.1  34246  291.04 0854.44
2009/04/23 15:31:46.3     -40    -47     86     63    106 220.5  60.5  34268  291.42 0854.44
2009/04/23 15:31:46.4     -24    -56     79     62    100 203.6  57.9  34250  291.09 0854.44
2009/04/23 15:31:46.5    -133    -68     35    150    155 242.9  13.1  34228  290.72 0854.44
2009/04/23 15:31:46.6    -195    -42    -17    200    201 257.8  -4.9  34224  290.65 0854.44
2009/04/23 15:31:46.7    -174     61    -58    185    195 289.3 -17.6  34228  290.74 0854.44
2009/04/23 15:31:46.8     -84     21    -47     87     98 284.6 -35.7  34230  290.75 0854.44
2009/04/23 15:31:46.9     -80     30    -29     86     90 290.8 -23.6  34230  290.75 0854.44
2009/04/23 15:31:47.0    -136     22     74    138    156 279.2  30.3  34240  290.94 0854.44
2009/04/23 15:31:47.1    -159     75     58    177    187 295.4  18.1  34230  290.75 0854.44
2009/04/23 15:31:47.2    -170    -12     42    171    177 265.9  13.9  34236  290.87 0854.44
2009/04/23 15:31:47.3    -185     27    -37    187    191 278.4 -11.3  34248  291.08 0854.44
2009/04/23 15:31:47.4    -192     54   -123    200    234 285.9 -38.8  34244  290.99 0854.44
2009/04/23 15:31:47.5      30    -26    -87     40     95 131.3 -77.9  34236  290.87 0854.44
2009/04/23 15:31:47.6      28   -230     -5    232    233 172.9  -1.3  34236  290.86 0854.44
2009/04/23 15:31:47.7      -7   -149     29    150    153 182.7  11.1  34232  290.79 0854.44
2009/04/23 15:31:47.8     -71   -160     -9    176    177 204.1  -3.2  34226  290.69 0854.44
2009/04/23 15:31:47.9     -90   -123     43    153    160 216.1  15.8  34236  290.86 0854.44
2009/04/23 15:31:48.0      23    -45     32     51     60 152.8  35.5  34246  291.04 0854.44
2009/04/23 15:31:48.1      36   -118     73    124    143 163.0  33.5  34236  290.87 0854.44
2009/04/23 15:31:48.2      65   -193    122    204    237 161.3  33.7  34232  290.81 0854.44
2009/04/23 15:31:48.3      74   -150     82    168    186 153.5  27.4  34238  290.89 0854.44
2009/04/23 15:31:48.4     135   -226    124    264    291 149.3  27.1  34226  290.70 0854.44
2009/04/23 15:31:48.5      45   -257    239    262    354 170.0  47.0  34230  290.75 0854.44
2009/04/23 15:31:48.6       1   -427    -20    428    429 179.8  -2.8  34240  290.94 0854.44
2009/04/23 15:31:48.7    -221   -310    -59    381    386 215.5  -8.9  34228  290.71 0854.44
2009/04/23 15:31:48.8    -294   -446   -158    535    559 213.4 -16.5  34256  291.21 0854.44
2009/04/23 15:31:48.9    -325   -379   -143    500    520 220.6 -20.7  34248  291.05 0854.44
2009/04/23 15:31:49.0    -182   -367   -113    410    426 206.4 -15.4  34236  290.87 0854.44
2009/04/23 15:31:49.1     -40   -396    -71    399    406 185.8 -10.1  34202  290.29 0854.44
2009/04/23 15:31:49.2    -206   -316    -47    378    382 213.1  -7.2  34202  290.30 0854.44
2009/04/23 15:31:49.3    -238   -496    149    551    572 205.6  15.2  34174  289.80 0854.44
2009/04/23 15:31:49.4    -715   -544    -92    899    904 232.7  -5.9  34112  288.75 0854.44
2009/04/23 15:31:49.5    -696   -641   -262    947    983 227.4 -15.5  34098  288.52 0854.44
2009/04/23 15:31:49.6    -483   -541   -272    726    775 221.8 -26.0  34130  289.07 0854.44
2009/04/23 15:31:49.7    -496   -138    -84    515    523 254.4  -9.3  34134  289.14 0854.44
2009/04/23 15:31:49.8    -486     39    -93    488    497 274.7 -10.9  34144  289.30 0854.44
2009/04/23 15:31:49.9      52   -158   -115    167    202 161.7 -42.0  34160  289.58 0854.44
2009/04/23 15:31:50.0     129     14     -7    130    131  83.8  -3.2  34154  289.46 0854.44
2009/04/23 15:31:50.1      35    117     87    123    150  17.0  39.1  34158  289.53 0854.44
2009/04/23 15:31:50.2     -93    130    -21    160    162 324.4  -7.7  34174  289.80 0854.44
2009/04/23 15:31:50.3    -174     -2    -95    175    199 269.2 -35.4  34180  289.91 0854.44
2009/04/23 15:31:50.4     -66    -58   -187     88    206 228.7 -77.5  34182  289.94 0854.44
2009/04/23 15:31:50.5     -87     72   -125    113    168 309.6 -57.7  34188  290.06 0854.44
2009/04/23 15:31:50.6    -118     68   -162    137    212 300.2 -60.0  34194  290.16 0854.44
2009/04/23 15:31:50.7     175   -154   -227    234    326 131.3 -53.6  34190  290.09 0854.44
2009/04/23 15:31:50.8     255   -140   -106    291    309 118.8 -25.3  34146  289.32 0854.44
2009/04/23 15:31:50.9     137    -74    -65    156    169 118.4 -28.2  34150  289.41 0854.44
2009/04/23 15:31:51.0      -9    153     21    154    156 356.4   8.0  34162  289.62 0854.44
2009/04/23 15:31:51.1     -82    170     26    189    191 334.1   8.0  34168  289.72 0854.44
2009/04/23 15:31:51.2    -123    245    -93    275    291 333.3 -18.7  34152  289.44 0854.44
2009/04/23 15:31:51.3    -183     68    -63    196    207 290.4 -17.9  34162  289.62 0854.44
2009/04/23 15:31:51.4    -155   -131    -48    204    210 229.8 -13.4  34158  289.55 0854.44
2009/04/23 15:31:51.5    -171   -231   -113    288    309 216.5 -26.9  34158  289.53 0854.44
2009/04/23 15:31:51.6      81   -219    -64    234    243 159.5 -15.5  34146  289.34 0854.44
2009/04/23 15:31:51.7     -53      4      2     54     55 274.3   2.8  34164  289.63 0854.44
2009/04/23 15:31:51.8    -463     20   -106    464    477 272.5 -12.9  34160  289.57 0854.44
2009/04/23 15:31:51.9    -545    117   -188    558    588 282.2 -23.7  34172  289.78 0854.44
2009/04/23 15:31:52.0    -301    -71   -387    310    495 256.7 -61.7  34164  289.63 0854.44
2009/04/23 15:31:52.1      66   -259   -294    268    397 165.7 -57.4  34162  289.59 0854.44
2009/04/23 15:31:52.2     141   -424   -126    447    464 161.6 -20.4  34168  289.72 0854.44
2009/04/23 15:31:52.3     279   -333   -109    435    449 140.0 -14.1  34174  289.82 0854.44
2009/04/23 15:31:52.5     181   -273    -32    328    330 146.4  -5.6  34172  289.79 0854.44
2009/04/23 15:31:52.5     129    -97     94    162    187 126.9  32.9  34164  289.63 0854.44
2009/04/23 15:31:52.6      17    -44    153     48    160 159.1  82.0  34180  289.91 0854.44
2009/04/23 15:31:52.7    -214   -235    128    318    342 222.3  23.1  34158  289.54 0854.44
2009/04/23 15:31:52.8    -371   -376     80    529    536 224.6   8.6  34176  289.85 0854.44
2009/04/23 15:31:52.9    -405   -192    111    449    463 244.6  13.9  34180  289.92 0854.44
2009/04/23 15:31:53.0    -162   -238    165    289    332 214.3  32.1  34168  289.71 0854.44
2009/04/23 15:31:53.1    -295    -99     60    312    318 251.4  11.0  34170  289.73 0854.44
2009/04/23 15:31:53.2    -286    -24     29    288    290 265.0   5.9  34164  289.64 0854.44
2009/04/23 15:31:53.3      57   -170     -7    180    181 161.3  -2.2  34170  289.74 0854.44
2009/04/23 15:31:53.4     154   -217    -52    267    273 144.6 -11.1  34168  289.71 0854.44
2009/04/23 15:31:53.6      51   -236    -86    242    258 167.7 -19.7  34162  289.61 0854.44
2009/04/23 15:31:53.7     111   -267    -92    290    304 157.3 -22.8  34148  289.36 0854.44
2009/04/23 15:31:53.8    -277     33    -69    280    289 277.0 -13.9  34206  290.34 0854.44
2009/04/23 15:31:53.9    -138    -62   -145    152    210 245.6 -53.1  34196  290.19 0854.44
2009/04/23 15:31:53.9     -51    -77   -159     93    184 213.8 -71.4  34180  289.91 0854.44
2009/04/23 15:31:54.0      23   -358   -205    359    413 176.3 -36.7  34152  289.45 0854.44
2009/04/23 15:31:54.2      42   -329     42    332    335 172.7   7.2  34170  289.74 0854.44
2009/04/23 15:31:54.3      61   -165     -6    176    177 159.7  -2.2  34170  289.75 0854.44
2009/04/23 15:31:54.4      52   -129     -5    140    141 158.1  -2.2  34166  289.67 0854.44
2009/04/23 15:31:54.5      48   -198   -105    204    229 166.2 -33.7  34166  289.67 0854.44
2009/04/23 15:31:54.5     122   -313   -115    336    355 158.7 -23.9  34168  289.71 0854.44
2009/04/23 15:31:54.7      85   -265   -119    279    303 162.1 -29.0  34152  289.42 0854.44
2009/04/23 15:31:54.8     190   -172    -71    257    267 132.2 -15.5  34160  289.58 0854.44
2009/04/23 15:31:54.9     137   -143   -169    199    261 136.3 -49.2  34174  289.81 0854.44
2009/04/23 15:31:55.0     155    -80   -168    175    242 117.3 -53.4  34172  289.77 0854.44
2009/04/23 15:31:55.1      70   -354   -122    361    382 168.8 -18.7  34152  289.45 0854.44
2009/04/23 15:31:55.2     334   -349    -80    484    491 136.3  -9.4  34134  289.13 0854.44
2009/04/23 15:31:55.3     466   -565     35    733    734 140.5   2.8  34126  288.98 0854.44
2009/04/23 15:31:55.4     415   -577     34    711    712 144.3   2.8  34122  288.93 0854.44
2009/04/23 15:31:55.5     379   -487     97    618    626 142.1   9.0  34130  289.08 0854.44
2009/04/23 15:31:55.6     345   -539    126    641    654 147.4  11.1  34136  289.18 0854.44
2009/04/23 15:31:55.7     346   -454    111    572    583 142.7  11.0  34132  289.10 0854.44
2009/04/23 15:31:55.8     306   -350    173    466    497 138.8  21.3  34142  289.28 0854.44
2009/04/23 15:31:55.9     100   -288    246    306    392 160.8  42.9  34156  289.50 0854.44
2009/04/23 15:31:56.0     -51   -203    197    210    287 194.3  48.0  34152  289.42 0854.44
2009/04/23 15:31:56.1      -8   -294    287    295    411 181.6  49.1  34172  289.76 0854.44
2009/04/23 15:31:56.2     -86   -331    258    343    429 194.6  40.7  34174  289.80 0854.44
2009/04/23 15:31:56.3      17   -229    260    230    347 175.5  54.0  34160  289.58 0854.44
2009/04/23 15:31:56.4       0   -299    306    300    428 180.0  50.6  34146  289.33 0854.44
2009/04/23 15:31:56.5    -125   -374    249    395    466 198.5  35.5  34148  289.36 0854.44
2009/04/23 15:31:56.6    -164   -277    204    323    382 210.7  35.5  34152  289.43 0854.44
2009/04/23 15:31:56.7     -75   -328     78    337    347 193.0  13.1  34152  289.43 0854.44
2009/04/23 15:31:56.8    -461   -472    -56    661    664 224.3  -4.9  34150  289.39 0854.44
2009/04/23 15:31:56.9    -257   -761    161    804    820 198.7  11.3  34156  289.50 0854.44
2009/04/23 15:31:57.0    -401   -677    185    788    810 210.7  13.3  34158  289.54 0854.44
2009/04/23 15:31:57.1      33   -682    471    683    829 177.2  37.9  34146  289.35 0854.44
2009/04/23 15:31:57.2      81   -685    382    690    788 173.2  31.4  34154  289.46 0854.44
2009/04/23 15:31:57.3     231   -649    435    690    815 160.4  35.3  34156  289.51 0854.44
2009/04/23 15:31:57.4     148   -628    355    646    737 166.7  31.3  34152  289.45 0854.44
2009/04/23 15:31:57.5      63   -517    283    521    592 173.0  30.9  34160  289.58 0854.44
2009/04/23 15:31:57.6     294   -460    319    547    633 147.4  32.9  34176  289.85 0854.44
2009/04/23 15:31:57.7     286   -232    362    369    516 129.0  49.7  34198  290.23 0854.44
2009/04/23 15:31:57.8       3   -177    250    178    306 178.9  61.1  34168  289.71 0854.44
2009/04/23 15:31:57.9     107     65    243    126    273  58.5  70.6  34188  290.03 0854.44
2009/04/23 15:31:58.0      32      6    255     33    257  78.6  90.0  34154  289.48 0854.44
2009/04/23 15:31:58.1     287    -72    372    296    475 104.2  57.6  34136  289.16 0854.44
2009/04/23 15:31:58.2     185    -75    232    200    306 112.2  55.0  34162  289.59 0854.44
2009/04/23 15:31:58.3     -68   -354    -20    361    362 191.0  -3.3  34154  289.48 0854.44
2009/04/23 15:31:58.4     -26   -159    -20    162    164 189.3  -7.3  34162  289.60 0854.44
2009/04/23 15:31:58.5    -196     31   -147    199    247 279.2 -44.5  34162  289.61 0854.44
2009/04/23 15:31:58.6    -221    109    131    247    279 296.2  30.2  34178  289.86 0854.44
2009/04/23 15:31:58.7    -396     55    186    401    442 278.0  26.9  34146  289.33 0854.44
2009/04/23 15:31:58.8    -158   -503    291    528    602 197.5  31.3  34144  289.30 0854.44
2009/04/23 15:31:58.9    -212   -330    129    393    414 212.8  18.2  34146  289.33 0854.44
2009/04/23 15:31:59.0    -139   -218    137    259    293 212.5  30.2  34148  289.37 0854.44
2009/04/23 15:31:59.1     -41   -216    171    220    278 190.9  41.7  34154  289.47 0854.45
2009/04/23 15:31:59.2     -39    -20    236     44    240 242.9  90.0  34182  289.96 0854.45
2009/04/23 15:31:59.3     -67    -36    248     77    259 242.0  82.3  34168  289.72 0854.45
2009/04/23 15:31:59.4      35    -68    259     77    270 152.8  82.8  34164  289.65 0854.45
2009/04/23 15:31:59.5     -37    -50    277     63    284 216.1  87.7  34182  289.93 0854.45
2009/04/23 15:31:59.6     108   -191    260    220    340 150.6  55.6  34158  289.53 0854.45
2009/04/23 15:31:59.7     127   -622    358    636    729 168.4  31.9  34142  289.27 0854.45
2009/04/23 15:31:59.8      36   -699    373    700    793 177.0  30.3  34136  289.16 0854.45
2009/04/23 15:31:59.9       1   -570    410    571    702 179.9  39.2  34132  289.09 0854.45
2009/04/23 15:32:00.0      11   -352    377    353    516 178.1  52.1  34140  289.23 0854.45
2009/04/23 15:32:00.1     -53   -429    459    433    631 187.1  52.0  34150  289.41 0854.45
2009/04/23 15:32:00.2      -5   -287    427    288    515 181.1  62.8  34166  289.66 0854.45
2009/04/23 15:32:00.3     173    -81    234    192    302 115.1  56.4  34184  289.97 0854.45
2009/04/23 15:32:00.4     239   -213    156    321    356 131.8  27.9  34154  289.47 0854.45
2009/04/23 15:32:00.5     -21    -21     10     31     33 225.1  18.9  34166  289.67 0854.45
2009/04/23 15:32:00.6     -84     62   -113    105    154 306.4 -56.5  34162  289.60 0854.45
2009/04/23 15:32:00.7     -53     79   -175     96    199 326.2 -73.3  34164  289.65 0854.45
2009/04/23 15:32:00.8      23    148    -90    150    174   8.9 -38.6  34180  289.91 0854.45
2009/04/23 15:32:00.9       6    283     -1    284    285   1.4  -0.3  34172  289.78 0854.45
2009/04/23 15:32:01.0     -20     75     83     78    113 344.9  51.6  34164  289.65 0854.45
2009/04/23 15:32:01.1      26    -83    110     87    140 162.6  57.9  34184  289.97 0854.44
2009/04/23 15:32:01.2    -172   -134    225    219    313 232.2  50.8  34188  290.03 0854.44
2009/04/23 15:32:01.3    -235    -17    158    236    284 265.7  37.0  34162  289.61 0854.44
2009/04/23 15:32:01.4     -11    -49    200     51    206 192.5  85.9  34166  289.67 0854.44
2009/04/23 15:32:01.5     270    -99    233    288    370 110.2  43.3  34152  289.45 0854.44
2009/04/23 15:32:01.6     102    -70    182    124    220 124.6  62.6  34150  289.40 0854.44
2009/04/23 15:32:01.7      31    -59    -31     67     73 151.9 -31.5  34148  289.38 0854.44
2009/04/23 15:32:01.8      39    -61    -75     73    104 147.5 -54.5  34150  289.41 0854.44
2009/04/23 15:32:01.9      25    -64   -104     69    124 158.2 -68.0  34168  289.70 0854.44
2009/04/23 15:32:02.0     105   -221    -32    245    248 154.6  -7.5  34146  289.32 0854.44
2009/04/23 15:32:02.1     400   -194     84    445    453 115.9  10.7  34108  288.68 0854.44
2009/04/23 15:32:02.2     267    -77    144    278    313 106.2  29.5  34140  289.24 0854.44
2009/04/23 15:32:02.3     149   -398     75    426    433 159.4  10.1  34140  289.24 0854.44
2009/04/23 15:32:02.4    -106   -502     61    514    518 192.0   6.9  34136  289.17 0854.44
2009/04/23 15:32:02.5    -264   -436    -60    510    514 211.2  -6.8  34134  289.12 0854.44
2009/04/23 15:32:02.6    -172   -282    -37    331    334 211.4  -6.5  34136  289.15 0854.44
2009/04/23 15:32:02.7    -107    -98    -70    146    161 227.3 -31.8  34134  289.14 0854.44
2009/04/23 15:32:02.8    -105    -90     72    139    156 229.6  29.3  34140  289.23 0854.44
2009/04/23 15:32:02.9    -193   -181     67    265    274 226.8  14.2  34138  289.20 0854.44
2009/04/23 15:32:03.0    -211    -27    -23    213    215 262.5  -6.2  34136  289.16 0854.44
2009/04/23 15:32:03.1    -143    -31    -50    147    155 257.6 -23.3  34144  289.31 0854.44
2009/04/23 15:32:03.2    -155    -98   -101    184    209 237.6 -35.7  34144  289.30 0854.44
2009/04/23 15:32:03.3    -194   -171   -200    259    327 228.6 -45.9  34170  289.73 0854.44
2009/04/23 15:32:03.4      84    -97   -185    129    225 139.0 -65.9  34170  289.75 0854.44
2009/04/23 15:32:03.5      61   -311   -194    318    372 168.9 -38.6  34160  289.57 0854.44
2009/04/23 15:32:03.6      61   -327    -83    333    344 169.3 -14.1  34148  289.37 0854.44
2009/04/23 15:32:03.7     186   -333    -37    382    384 150.8  -5.6  34140  289.23 0854.44
2009/04/23 15:32:03.8     -58   -379     74    384    392 188.8  11.0  34138  289.21 0854.44
2009/04/23 15:32:03.9    -155   -258     -6    302    303 211.0  -1.2  34136  289.17 0854.44
2009/04/23 15:32:04.0     -67   -281    145    289    323 193.4  28.6  34144  289.31 0854.44
2009/04/23 15:32:04.1    -148   -455    -40    479    481 198.0  -4.9  34140  289.23 0854.44
2009/04/23 15:32:04.2    -134   -364    122    389    408 200.3  17.4  34138  289.21 0854.44
2009/04/23 15:32:04.3    -132   -223    102    260    279 210.7  22.5  34146  289.34 0854.44
2009/04/23 15:32:04.4      95   -395    126    407    427 166.4  17.3  34142  289.26 0854.44
2009/04/23 15:32:04.5      12   -206    186    207    278 176.6  46.9  34150  289.39 0854.44
2009/04/23 15:32:04.6     -16    -42    192     45    197 200.9  87.0  34170  289.75 0854.44
2009/04/23 15:32:04.7      14   -269     68    270    279 176.9  14.3  34148  289.36 0854.44
2009/04/23 15:32:04.8      48   -242     93    247    263 168.7  21.7  34132  289.09 0854.44
2009/04/23 15:32:04.9     -37   -190      7    194    195 191.1   2.3  34130  289.08 0854.44
2009/04/23 15:32:05.0     102   -225    112    248    272 155.5  26.2  34138  289.20 0854.44
2009/04/23 15:32:05.1    -107   -150    206    185    276 215.4  53.5  34154  289.47 0854.44
2009/04/23 15:32:05.2    -251     17    192    252    316 273.9  41.2  34146  289.32 0854.44
2009/04/23 15:32:05.3     -74    -88     40    116    123 220.1  19.4  34144  289.30 0854.44
2009/04/23 15:32:05.4     447    -86    369    456    586 101.0  43.1  34132  289.11 0854.44
2009/04/23 15:32:05.5     140   -244    249    282    376 150.2  46.1  34142  289.25 0854.44
2009/04/23 15:32:05.6     113   -150    258    189    319 143.0  60.3  34150  289.41 0854.44
2009/04/23 15:32:05.7      18    -40    147     44    153 155.5  82.8  34164  289.63 0854.44
2009/04/23 15:32:05.8     111     31    239    116    265  74.1  72.8  34150  289.40 0854.44
2009/04/23 15:32:05.9    -122    168    203    208    290 324.0  49.8  34154  289.46 0854.44
2009/04/23 15:32:06.0    -247   -186    238    310    390 232.9  41.4  34148  289.38 0854.44
2009/04/23 15:32:06.1    -186    -87     80    206    220 244.9  22.5  34158  289.53 0854.44
2009/04/23 15:32:06.2     -26   -223    147    225    268 186.7  36.3  34142  289.27 0854.44
2009/04/23 15:32:06.3     -35   -325    418    327    530 186.3  58.2  34154  289.47 0854.44
2009/04/23 15:32:06.4    -384   -366    231    531    579 226.4  25.1  34138  289.21 0854.44
2009/04/23 15:32:06.5    -348   -439    210    561    599 218.4  21.5  34146  289.32 0854.44
2009/04/23 15:32:06.6    -348   -428     16    552    553 219.1   1.7  34152  289.43 0854.44
2009/04/23 15:32:06.7    -413   -554     66    692    696 216.7   5.5  34146  289.32 0854.44
2009/04/23 15:32:06.8    -351   -358     32    502    504 224.4   3.7  34152  289.45 0854.44
2009/04/23 15:32:06.9    -154   -386      5    416    417 201.8   0.8  34144  289.31 0854.44
2009/04/23 15:32:07.0    -208   -644    153    677    695 197.9  12.8  34156  289.49 0854.44
2009/04/23 15:32:07.1    -123   -640     35    652    654 190.9   3.1  34156  289.52 0854.44
2009/04/23 15:32:07.2    -205   -536    -97    575    584 201.0  -9.6  34154  289.47 0854.44
2009/04/23 15:32:07.3    -129   -317    -48    343    347 202.2  -8.0  34156  289.50 0854.44
2009/04/23 15:32:07.4      71   -245     31    256    258 163.9   7.1  34164  289.63 0854.44
2009/04/23 15:32:07.5      89   -541     23    549    550 170.7   2.5  34166  289.68 0854.44
2009/04/23 15:32:07.6     -35   -587    100    589    598 183.5   9.7  34166  289.66 0854.44
2009/04/23 15:32:07.7    -149   -530      3    551    552 195.8   0.3  34164  289.63 0854.44
2009/04/23 15:32:07.8     -46   -404     86    407    417 186.6  12.0  34168  289.70 0854.44
2009/04/23 15:32:07.9    -161   -261     51    307    312 211.6   9.4  34164  289.64 0854.44
2009/04/23 15:32:08.0      82     -8    101     83    130  95.7  56.4  34174  289.80 0854.44
2009/04/23 15:32:08.1      56   -146    232    157    280 159.1  62.7  34172  289.78 0854.44
2009/04/23 15:32:08.2     191   -100    155    216    265 117.8  39.3  34174  289.80 0854.44
2009/04/23 15:32:08.3     -20   -177    166    179    244 186.5  47.9  34168  289.72 0854.44
2009/04/23 15:32:08.4      93   -338    211    351    409 164.6  33.8  34176  289.84 0854.44
2009/04/23 15:32:08.5     -81   -410    -39    418    420 191.2  -5.4  34164  289.63 0854.44
2009/04/23 15:32:08.6     -25   -337     86    338    349 184.4  14.4  34162  289.60 0854.44
2009/04/23 15:32:08.7     -15   -412    -55    413    417 182.1  -7.6  34168  289.72 0854.44
2009/04/23 15:32:08.8     -24   -306    -12    308    309 184.5  -2.2  34170  289.75 0854.44
2009/04/23 15:32:08.9     -12   -340    -79    341    351 182.1 -13.2  34166  289.67 0854.44
2009/04/23 15:32:09.0       0   -334    -60    335    341 180.1 -10.2  34168  289.71 0854.44
2009/04/23 15:32:09.1     148   -343     84    374    384 156.6  12.8  34166  289.69 0854.44
2009/04/23 15:32:09.2    -198   -359     17    410    411 208.9   2.4  34158  289.55 0854.44
2009/04/23 15:32:09.3     -21   -184    251    186    312 186.7  60.0  34174  289.80 0854.44
2009/04/23 15:32:09.4     -15   -197    224    198    298 184.4  54.2  34172  289.78 0854.44
2009/04/23 15:32:09.5     -37   -266    159    269    312 188.1  33.5  34168  289.70 0854.44
2009/04/23 15:32:09.6       3   -254    202    255    325 179.1  42.6  34184  289.97 0854.44
2009/04/23 15:32:09.7     128    -53    227    139    266 112.6  65.6  34222  290.62 0854.44
2009/04/23 15:32:09.8     101     36    188    108    216  70.0  67.7  34194  290.16 0854.44
2009/04/23 15:32:09.9       7      2     93      8     93  71.6  90.0  34196  290.19 0854.44
2009/04/23 15:32:10.0     -90     -7     -5     91     92 265.2  -3.7  34198  290.23 0854.44
2009/04/23 15:32:10.1     -18    -95     56     97    112 191.1  32.4  34184  289.97 0854.44
2009/04/23 15:32:10.2       0   -203     23    204    206 180.0   6.5  34180  289.91 0854.44
2009/04/23 15:32:10.3    -189   -472    -68    509    514 201.8  -7.7  34168  289.71 0854.44
2009/04/23 15:32:10.4     -86   -581   -174    588    614 188.5 -16.5  34150  289.39 0854.44
2009/04/23 15:32:10.5       8   -705    -48    706    708 179.3  -3.9  34166  289.67 0854.44
2009/04/23 15:32:10.6    -119   -679    -16    690    691 190.0  -1.4  34170  289.75 0854.44
2009/04/23 15:32:10.7     143   -669     65    685    689 167.9   5.5  34158  289.54 0854.44
2009/04/23 15:32:10.8     -41   -491     15    493    494 184.8   1.8  34170  289.74 0854.44
2009/04/23 15:32:10.9    -250   -349    158    430    458 215.6  21.0  34170  289.75 0854.44
2009/04/23 15:32:11.0    -120   -468     45    484    487 194.4   5.4  34160  289.57 0854.44
2009/04/23 15:32:11.1    -162   -600    145    622    639 195.2  13.1  34152  289.43 0854.45
2009/04/23 15:32:11.2    -171   -368    287    406    497 204.9  38.6  34160  289.56 0854.45
2009/04/23 15:32:11.3    -138   -524     16    542    543 194.8   1.7  34156  289.51 0854.45
2009/04/23 15:32:11.4    -111   -420    160    435    463 194.8  21.0  34138  289.21 0854.45
2009/04/23 15:32:11.5      73   -107      4    130    131 145.7   1.8  34148  289.36 0854.45
2009/04/23 15:32:11.6    -175    -68   -107    188    216 248.7 -36.3  34170  289.74 0854.45
2009/04/23 15:32:11.7      87   -216    -16    233    234 158.1  -4.1  34172  289.78 0854.45
2009/04/23 15:32:11.8       3   -194    291    195    350 179.0  63.3  34172  289.78 0854.45
2009/04/23 15:32:11.9     -63    -77    213    100    235 219.2  73.2  34186  290.02 0854.45
2009/04/23 15:32:12.0    -119    -36    -34    125    130 253.2 -15.5  34172  289.79 0854.45
2009/04/23 15:32:12.1     -67   -146     16    161    162 204.9   5.7  34168  289.70 0854.45
2009/04/23 15:32:12.2     117    121     47    169    176  43.9  15.6  34160  289.58 0854.45
2009/04/23 15:32:12.3     370     82    271    380    466  77.5  39.1  34154  289.46 0854.45
2009/04/23 15:32:12.4     549   -351    336    652    733 122.6  29.4  34130  289.06 0854.45
2009/04/23 15:32:12.5     409   -210    148    460    484 117.2  17.9  34142  289.28 0854.45
2009/04/23 15:32:12.6     326   -495    151    593    612 146.6  14.3  34130  289.05 0854.45
2009/04/23 15:32:12.7     364   -298    329    471    574 129.4  38.5  34142  289.28 0854.45
2009/04/23 15:32:12.8     416   -379     85    563    570 132.3   8.6  34138  289.19 0854.45
2009/04/23 15:32:12.9     -17   -405   -106    406    420 182.5 -14.7  34150  289.41 0854.45
2009/04/23 15:32:13.0       6   -505    131    506    523 179.3  14.6  34142  289.25 0854.45
2009/04/23 15:32:13.1    -203   -675     91    705    711 196.8   7.4  34136  289.15 0854.45
2009/04/23 15:32:13.2    -116   -511    -62    525    529 192.8  -6.8  34138  289.21 0854.45
2009/04/23 15:32:13.3      74   -479    -51    485    488 171.1  -6.1  34160  289.57 0854.45
2009/04/23 15:32:13.4     257   -351     -8    436    437 143.8  -1.2  34150  289.41 0854.45
2009/04/23 15:32:13.5     335   -251    207    419    467 126.9  28.2  34134  289.14 0854.45
2009/04/23 15:32:13.6     391   -272    258    477    542 124.9  30.8  34156  289.50 0854.45
2009/04/23 15:32:13.7     232   -218    274    319    420 133.1  45.0  34146  289.32 0854.45
2009/04/23 15:32:13.8      30     35    254     47    258  40.5  90.0  34162  289.62 0854.45
2009/04/23 15:32:13.9     209     29    263    212    337  81.9  57.1  34152  289.42 0854.45
2009/04/23 15:32:14.0     -12    -53    246     55    252 193.4  88.0  34152  289.43 0854.45
2009/04/23 15:32:14.1    -142     66    240    157    286 295.2  63.9  34168  289.71 0854.45
2009/04/23 15:32:14.2     -60    -96    230    114    256 212.1  71.9  34154  289.48 0854.45
2009/04/23 15:32:14.3       0    107    -93    108    142 359.5 -49.8  34152  289.45 0854.45
2009/04/23 15:32:14.4     197    115    108    229    253  59.8  27.1  34150  289.39 0854.45
2009/04/23 15:32:14.5     -49     59    174     77    190 320.4  74.5  34168  289.70 0854.45
2009/04/23 15:32:14.6       3     74    262     75    272   2.7  83.9  34140  289.24 0854.45
2009/04/23 15:32:14.7      79     37    272     88    285  64.7  81.2  34164  289.63 0854.45
2009/04/23 15:32:14.8    -230    -35    228    233    325 261.2  49.7  34162  289.61 0854.45
2009/04/23 15:32:14.9    -311    113    203    332    389 290.1  34.6  34148  289.37 0854.45
2009/04/23 15:32:15.0    -438     39    197    440    482 275.2  25.8  34146  289.34 0854.45
2009/04/23 15:32:15.1    -426    141    311    449    546 288.3  38.0  34166  289.69 0854.43
2009/04/23 15:32:15.2    -420   -235    113    482    496 240.7  13.2  34134  289.13 0854.43
2009/04/23 15:32:15.3      13    -44    163     47    169 163.1  83.3  34158  289.53 0854.43
2009/04/23 15:32:15.4      48    148    263    156    305  18.3  66.8  34184  289.98 0854.43
2009/04/23 15:32:15.5    -256   -167    256    306    398 236.9  44.3  34182  289.93 0854.43
2009/04/23 15:32:15.6    -450    264    276    522    590 300.4  30.2  34180  289.90 0854.43
2009/04/23 15:32:15.7      36    465    295    467    552   4.5  35.3  34184  289.99 0854.43
2009/04/23 15:32:15.8      10     39    283     41    285  15.1  90.0  34212  290.44 0854.43
2009/04/23 15:32:15.9      -4   -312    373    313    486 180.9  55.8  34176  289.83 0854.43
2009/04/23 15:32:16.0      18   -316    409    317    517 176.6  58.4  34148  289.38 0854.43
2009/04/23 15:32:16.1    -277   -534    572    602    830 207.4  48.4  34140  289.24 0854.43
2009/04/23 15:32:16.2    -498   -505    426    710    827 224.6  33.7  34134  289.12 0854.43
2009/04/23 15:32:16.3    -535    108    250    546    600 281.5  26.3  34150  289.41 0854.43
2009/04/23 15:32:16.4    -405     49    253    409    480 277.0  34.6  34158  289.53 0854.43
2009/04/23 15:32:16.5     -30     13    419     33    420 293.5  90.0  34164  289.64 0854.43
2009/04/23 15:32:16.6      10   -171    254    172    306 176.6  62.7  34194  290.15 0854.43
2009/04/23 15:32:16.7    -117   -114      7    164    165 225.8   2.5  34172  289.77 0854.43
2009/04/23 15:32:16.8    -142   -223     92    265    281 212.6  19.2  34148  289.37 0854.43
2009/04/23 15:32:16.9      17    103    272    105    291   9.3  78.2  34196  290.17 0854.43
2009/04/23 15:32:17.0      -2    240    107    241    263 359.3  25.9  34186  290.00 0854.43
2009/04/23 15:32:17.1     107    210    218    236    321  27.1  47.7  34180  289.90 0854.42
2009/04/23 15:32:17.2     -77    -13    251     79    263 260.3  81.8  34182  289.94 0854.42
2009/04/23 15:32:17.3    -181   -329    345    376    510 208.9  47.3  34160  289.56 0854.42
2009/04/23 15:32:17.4     -79   -296    463    307    555 195.1  63.6  34172  289.78 0854.42
2009/04/23 15:32:17.5       7   -355    355    356    502 178.8  50.1  34158  289.55 0854.42
2009/04/23 15:32:17.6     125   -765     81    776    781 170.7   6.0  34122  288.93 0854.42
2009/04/23 15:32:17.7     389   -837     70    924    927 155.1   4.3  34124  288.97 0854.42
2009/04/23 15:32:17.8     585   -431    111    727    736 126.4   8.7  34130  289.05 0854.42
2009/04/23 15:32:17.9     271   -545    309    609    682 153.5  29.1  34132  289.09 0854.42
2009/04/23 15:32:18.0     259   -488    229    553    598 152.0  23.9  34124  288.95 0854.42
2009/04/23 15:32:18.1      29   -716     56    717    720 177.6   4.5  34126  289.01 0854.43
2009/04/23 15:32:18.2    -152   -736    163    752    770 191.7  12.3  34134  289.14 0854.43
2009/04/23 15:32:18.3     -79   -649    161    654    674 187.0  13.9  34136  289.17 0854.43
2009/04/23 15:32:18.4      27   -599    140    600    617 177.4  13.1  34134  289.12 0854.43
2009/04/23 15:32:18.5    -147   -583     -6    602    603 194.2  -0.6  34130  289.08 0854.43
2009/04/23 15:32:18.6    -272   -619   -114    677    687 203.7  -9.6  34130  289.05 0854.43
2009/04/23 15:32:18.7     -71   -500     43    506    508 188.1   5.0  34126  289.01 0854.43
2009/04/23 15:32:18.8    -313   -348     49    469    472 222.0   6.0  34136  289.15 0854.43
2009/04/23 15:32:18.9     121   -327     -7    349    350 159.7  -1.2  34106  288.67 0854.43
2009/04/23 15:32:19.0     284   -121    248    309    396 113.1  42.8  34128  289.04 0854.43
2009/04/23 15:32:19.1     363   -301    -44    472    475 129.6  -5.4  34132  289.10 0854.43
2009/04/23 15:32:19.2     217   -284     22    358    359 142.7   3.6  34124  288.96 0854.43
2009/04/23 15:32:19.3     222   -267    183    348    393 140.4  30.0  34120  288.88 0854.43
2009/04/23 15:32:19.4     165   -545    165    570    594 163.1  16.1  34110  288.73 0854.43
2009/04/23 15:32:19.5     161   -515    368    540    653 162.6  37.6  34104  288.64 0854.43
2009/04/23 15:32:19.6     216   -493    440    539    695 156.3  43.5  34110  288.72 0854.43
2009/04/23 15:32:19.7     203   -406    296    455    542 153.4  36.0  34116  288.81 0854.43
2009/04/23 15:32:19.8      86   -344    -15    355    356 165.9  -2.5  34110  288.74 0854.43
2009/04/23 15:32:19.9     201   -245    130    318    343 140.6  23.5  34112  288.76 0854.43
2009/04/23 15:32:20.0     186   -478    322    513    605 158.7  35.2  34108  288.70 0854.43
2009/04/23 15:32:20.1     198   -535    400    571    697 159.7  38.5  34108  288.68 0854.42
2009/04/23 15:32:20.2      95   -678    117    685    695 172.0   9.7  34108  288.70 0854.42
2009/04/23 15:32:20.3     129   -646    146    659    676 168.7  12.5  34116  288.82 0854.42
2009/04/23 15:32:20.4     324   -562    257    649    698 150.0  22.9  34102  288.60 0854.42
2009/04/23 15:32:20.5     417   -674    171    793    812 148.3  12.2  34110  288.74 0854.42
2009/04/23 15:32:20.6     329   -675    294    752    807 154.0  22.5  34104  288.64 0854.42
2009/04/23 15:32:20.7     416   -647    148    770    785 147.3  10.9  34114  288.78 0854.42
2009/04/23 15:32:20.9     189   -751     23    775    776 165.8   1.7  34106  288.66 0854.42
2009/04/23 15:32:21.0     245   -706    139    748    761 160.8  10.6  34116  288.82 0854.42
2009/04/23 15:32:21.1     234   -613    235    657    698 159.1  19.7  34106  288.65 0854.42
2009/04/23 15:32:21.2     124   -886    113    895    903 172.0   7.2  34114  288.79 0854.42
2009/04/23 15:32:21.3     140   -906    225    917    945 171.2  13.8  34100  288.54 0854.42
2009/04/23 15:32:21.4     140   -815    158    828    843 170.2  10.8  34100  288.55 0854.42
2009/04/23 15:32:21.5      -5   -823     17    824    825 180.4   1.2  34106  288.67 0854.42
2009/04/23 15:32:21.6     -98   -825    -61    831    834 186.8  -4.2  34106  288.67 0854.42
2009/04/23 15:32:21.7      62   -774   -191    777    801 175.4 -13.8  34098  288.53 0854.42
2009/04/23 15:32:21.8      30   -777    -50    778    780 177.8  -3.7  34108  288.69 0854.42
2009/04/23 15:32:21.9     -44   -918   -217    920    946 182.8 -13.3  34120  288.88 0854.42
2009/04/23 15:32:22.0      84   -777   -246    782    820 173.8 -17.5  34114  288.79 0854.42
2009/04/23 15:32:22.1     -74   -906    -92    910    915 184.7  -5.8  34106  288.65 0854.42
2009/04/23 15:32:22.2     233   -583      1    629    630 158.2   0.1  34118  288.86 0854.43
2009/04/23 15:32:22.3     374   -583   -134    693    706 147.3 -11.0  34108  288.69 0854.43
2009/04/23 15:32:22.4      68   -452   -259    458    526 171.4 -36.4  34108  288.69 0854.43
2009/04/23 15:32:22.5      78   -326   -115    336    355 166.5 -23.9  34116  288.81 0854.43
2009/04/23 15:32:22.6     -60   -369     58    375    380 189.3   8.8  34106  288.66 0854.43
2009/04/23 15:32:22.7    -189   -252   -137    316    344 216.9 -29.4  34116  288.81 0854.43
2009/04/23 15:32:22.8    -131   -317    -80    344    354 202.5 -13.2  34104  288.62 0854.43
2009/04/23 15:32:22.9     109   -380   -119    396    413 164.0 -21.6  34108  288.70 0854.43
2009/04/23 15:32:23.0     -24   -310   -107    312    330 184.5 -19.0  34094  288.46 0854.43
2009/04/23 15:32:23.1      46    -49   -173     68    185 136.8 -82.0  34116  288.84 0854.43
2009/04/23 15:32:23.2     146   -106   -149    181    234 126.2 -48.1  34110  288.74 0854.43
2009/04/23 15:32:23.3      89   -182   -121    203    236 153.7 -37.9  34110  288.72 0854.43
2009/04/23 15:32:23.4     224   -311    -98    384    397 144.3 -14.4  34104  288.64 0854.43
2009/04/23 15:32:23.5     347   -297    -58    457    461 130.5  -7.3  34106  288.67 0854.43
2009/04/23 15:32:23.6     184   -300   -208    352    408 148.5 -37.9  34116  288.81 0854.43
2009/04/23 15:32:23.7     246   -246   -113    348    366 135.0 -18.0  34110  288.71 0854.43
2009/04/23 15:32:23.8     114   -199    -81    230    244 150.1 -19.4  34108  288.70 0854.43
2009/04/23 15:32:23.9     188    -21   -219    190    289  96.4 -59.0  34120  288.90 0854.43
2009/04/23 15:32:24.0     210    -53    -76    217    229 104.2 -24.0  34116  288.84 0854.43
2009/04/23 15:32:24.1     121    -14    -24    122    125  97.0 -11.5  34118  288.86 0854.42
2009/04/23 15:32:24.2       0    -61     40     62     73 180.9  35.6  34114  288.80 0854.42
2009/04/23 15:32:24.3    -122   -212     18    245    246 209.9   4.2  34110  288.71 0854.42
2009/04/23 15:32:24.4      92   -280    122    295    319 161.7  23.7  34114  288.80 0854.42
2009/04/23 15:32:24.5     248   -434    195    500    536 150.2  22.5  34100  288.55 0854.42
2009/04/23 15:32:24.6      -8   -425    125    426    445 181.1  16.4  34112  288.77 0854.42
2009/04/23 15:32:24.7     282   -229    164    364    399 129.1  25.9  34112  288.77 0854.42
2009/04/23 15:32:24.8     112   -295    183    316    365 159.1  32.8  34120  288.91 0854.42
2009/04/23 15:32:24.9     -67   -337    -19    344    345 191.4  -3.2  34122  288.94 0854.42
2009/04/23 15:32:25.0    -136   -172    -78    220    233 218.5 -24.4  34118  288.87 0854.42
2009/04/23 15:32:25.1     -40   -150    -49    156    163 195.1 -22.5  34122  288.94 0854.42
2009/04/23 15:32:25.2     170   -232     45    288    292 143.7   9.0  34118  288.87 0854.42
2009/04/23 15:32:25.3     -58   -218    -86    226    241 195.1 -26.4  34120  288.88 0854.42
2009/04/23 15:32:25.4      95   -332    -21    346    347 164.0  -3.5  34122  288.93 0854.42
2009/04/23 15:32:25.5     245   -260    -21    358    359 136.7  -3.5  34128  289.03 0854.42
2009/04/23 15:32:25.6     180   -132     78    224    238 126.2  19.2  34128  289.03 0854.42
2009/04/23 15:32:25.7     -68    -68    138     97    168 225.0  61.5  34142  289.26 0854.42
2009/04/23 15:32:25.8    -181    -32      1    184    185 259.9   0.5  34130  289.08 0854.42
2009/04/23 15:32:25.9    -256    -16    -82    257    269 266.3 -22.9  34128  289.02 0854.42
2009/04/23 15:32:26.0    -255   -240    206    351    406 226.7  33.1  34130  289.06 0854.42
2009/04/23 15:32:26.1    -305   -285     50    418    422 227.0   6.9  34122  288.92 0854.46
2009/04/23 15:32:26.2     -75     15     76     77    108 281.5  50.5  34138  289.19 0854.46
2009/04/23 15:32:26.3      64    -31    226     72    237 116.2  81.8  34148  289.36 0854.46
2009/04/23 15:32:26.4     -43   -130    252    138    287 198.5  68.9  34144  289.29 0854.46
2009/04/23 15:32:26.5     -16   -259    207    260    332 183.6  42.6  34130  289.07 0854.46
2009/04/23 15:32:26.6    -129   -337    167    361    397 201.0  26.5  34122  288.93 0854.46
2009/04/23 15:32:26.7     -77   -313    332    323    463 193.8  50.9  34124  288.95 0854.46
2009/04/23 15:32:26.8    -115   -337    217    357    417 198.8  34.3  34122  288.93 0854.46
2009/04/23 15:32:26.9     -61   -257    284    265    388 193.4  52.2  34130  289.06 0854.46
2009/04/23 15:32:27.0     -35   -441    222    443    495 184.6  28.7  34134  289.13 0854.46
2009/04/23 15:32:27.1    -170   -392    192    428    469 203.4  25.8  34134  289.14 0854.46
2009/04/23 15:32:27.2    -147   -310    192    344    393 205.4  31.6  34128  289.03 0854.46
2009/04/23 15:32:27.3    -136   -356    202    382    432 200.9  30.2  34130  289.05 0854.46
2009/04/23 15:32:27.4    -129   -386    269    408    488 198.5  36.5  34132  289.11 0854.46
2009/04/23 15:32:27.5    -119   -198    349    232    419 211.0  63.5  34144  289.30 0854.46
2009/04/23 15:32:27.6    -273   -147    222    311    382 241.6  39.2  34136  289.15 0854.46
2009/04/23 15:32:27.7     -75   -195    123    210    243 201.2  33.1  34132  289.10 0854.46
2009/04/23 15:32:27.8     -25   -241    148    243    284 186.0  34.2  34124  288.97 0854.46
2009/04/23 15:32:27.9     -81   -304    140    315    344 195.1  25.7  34130  289.06 0854.46
2009/04/23 15:32:28.0      -9   -219     90    220    237 182.6  23.6  34126  289.01 0854.46
2009/04/23 15:32:28.1      14   -214     68    215    226 176.2  17.7  34126  289.01 0854.48
2009/04/23 15:32:28.2      51   -233     80    239    253 167.5  18.6  34128  289.02 0854.48
2009/04/23 15:32:28.3      80   -185     87    202    219 156.4  24.9  34130  289.06 0854.48
2009/04/23 15:32:28.4      67   -108    119    128    174 148.4  48.2  34146  289.33 0854.48
2009/04/23 15:32:28.5      74    -54    113     92    145 126.4  56.4  34154  289.48 0854.48
2009/04/23 15:32:28.6     -61      0    104     62    121 269.2  66.7  34168  289.72 0854.48
2009/04/23 15:32:28.7     -85     93    181    127    221 317.7  61.5  34160  289.58 0854.48
2009/04/23 15:32:28.8     -37    163    157    168    229 347.1  48.0  34160  289.58 0854.48
2009/04/23 15:32:28.9     -21    278    109    279    299 355.6  22.5  34170  289.73 0854.48
2009/04/23 15:32:29.0    -146    319    101    351    366 335.4  16.1  34168  289.72 0854.48
2009/04/23 15:32:29.1    -202    297    127    360    381 325.7  20.1  34226  290.69 0854.48
2009/04/23 15:32:29.2    -165    259    103    308    326 327.5  18.6  34282  291.65 0854.48
2009/04/23 15:32:29.3     -51    294    144    299    331 350.0  27.4  34224  290.65 0854.48
2009/04/23 15:32:29.4     -76    281    139    292    323 344.8  27.3  34204  290.31 0854.48
2009/04/23 15:32:29.5     -57    236    114    243    268 346.4  27.1  34206  290.36 0854.48
2009/04/23 15:32:29.6    -134    243    151    278    316 331.1  30.8  34198  290.20 0854.48
2009/04/23 15:32:29.7    -194    357    146    407    432 331.5  20.7  34200  290.26 0854.48
2009/04/23 15:32:29.8    -164    345    190    383    427 334.5  28.2  34228  290.73 0854.48
2009/04/23 15:32:29.9    -148    335     52    367    371 336.1   8.1  34172  289.79 0854.48
2009/04/23 15:32:30.0    -109    310     83    329    340 340.5  14.3  34242  290.98 0854.48
2009/04/23 15:32:30.1    -119    320      8    342    343 339.5   1.5  34222  290.64 0854.50
2009/04/23 15:32:30.2     -87    236    134    252    285 339.7  30.2  34216  290.53 0854.50
2009/04/23 15:32:30.3     -61    208    156    217    267 343.5  39.5  34234  290.83 0854.50
2009/04/23 15:32:30.4     -25    315    149    317    350 355.3  27.1  34250  291.10 0854.50
2009/04/23 15:32:30.5      57    287    190    293    349  11.3  35.7  34244  291.00 0854.50
2009/04/23 15:32:30.6      -4    275    222    276    354 359.1  43.0  34252  291.13 0854.50
2009/04/23 15:32:30.7      16    276    181    277    330   3.4  36.2  34204  290.31 0854.50
2009/04/23 15:32:30.8      14    317    171    318    361   2.7  30.7  34188  290.04 0854.50
2009/04/23 15:32:30.9     -32    352    167    354    391 354.8  27.1  34348  292.77 0854.50
2009/04/23 15:32:31.0      36    365    127    367    389   5.7  19.2  34288  291.74 0854.50
2009/04/23 15:32:31.1      73    432    100    439    451   9.6  12.9  34178  289.87 0854.50
2009/04/23 15:32:31.2      55    456     81    460    468   7.0  10.0  34196  290.18 0854.50
2009/04/23 15:32:31.3       3    404     53    405    409   0.5   7.6  34204  290.31 0854.50
2009/04/23 15:32:31.4     -22    306    163    307    347 355.8  30.3  34228  290.71 0854.50
2009/04/23 15:32:31.5      20    316    136    317    344   3.6  24.8  34274  291.51 0854.50
2009/04/23 15:32:31.6     195    231    192    303    358  40.1  35.5  34318  292.24 0854.50
2009/04/23 15:32:31.7     142    188     84    236    250  37.0  20.0  34306  292.04 0854.50
2009/04/23 15:32:31.8     158    223     89    274    289  35.4  18.1  34270  291.43 0854.50
2009/04/23 15:32:31.9     139    225     98    265    282  31.6  21.0  34256  291.19 0854.50
2009/04/23 15:32:32.0      53    182     46    190    196  16.3  13.7  34224  290.65 0854.50
2009/04/23 15:32:32.1      37    139     12    144    145  15.1   4.9  34208  290.40 0854.51
2009/04/23 15:32:32.2      58    160      3    171    172  20.0   1.2  34218  290.55 0854.51
2009/04/23 15:32:32.3      85    133    -20    158    160  32.6  -7.2  34232  290.81 0854.51
2009/04/23 15:32:32.4      94     31    -11    100    101  71.4  -6.7  34212  290.45 0854.51
2009/04/23 15:32:32.5     116      2     -6    117    118  88.7  -3.1  34206  290.35 0854.51
2009/04/23 15:32:32.6     110     16    -38    112    118  81.6 -23.8  34200  290.26 0854.51
2009/04/23 15:32:32.7     118     43    -43    126    134  70.0 -19.1  34228  290.72 0854.51
2009/04/23 15:32:32.8     119     -2    -41    120    128  91.3 -19.1  34222  290.64 0854.51
2009/04/23 15:32:32.9     -16    -93     52     95    108 189.8  30.8  34240  290.94 0854.51
2009/04/23 15:32:33.0     -71   -248     36    259    262 196.0   8.0  34268  291.39 0854.51
2009/04/23 15:32:33.1    -111   -342      4    360    361 198.0   0.7  34218  290.54 0854.51
2009/04/23 15:32:33.2    -222   -163    110    276    297 233.8  23.0  34246  291.02 0854.51
2009/04/23 15:32:33.3    -146   -176    132    229    264 219.7  32.4  34282  291.63 0854.51
2009/04/23 15:32:33.4    -149   -270    195    309    365 208.9  35.5  34246  291.03 0854.51
2009/04/23 15:32:33.5     147   -368    132    397    419 158.2  18.4  34158  289.55 0854.51
2009/04/23 15:32:33.6     -22   -292    120    293    316 184.4  23.6  34152  289.44 0854.51
2009/04/23 15:32:33.7       0   -354    130    355    378 180.0  21.0  34154  289.48 0854.51
2009/04/23 15:32:33.8      91   -384    102    395    408 166.6  14.5  34160  289.58 0854.51
2009/04/23 15:32:33.9      91   -347     59    359    364 165.3   9.5  34166  289.69 0854.51
2009/04/23 15:32:34.0       4   -294    119    295    318 179.1  23.2  34162  289.61 0854.51
2009/04/23 15:32:34.1     -59   -352    103    358    373 189.6  16.1  34162  289.62 0854.48
2009/04/23 15:32:34.2      22   -367    104    368    383 176.5  15.9  34158  289.54 0854.48
2009/04/23 15:32:34.3      97   -275    154    292    330 160.6  30.2  34160  289.56 0854.48
2009/04/23 15:32:34.4      79   -376    220    385    443 168.1  32.4  34164  289.65 0854.48
2009/04/23 15:32:34.5     186   -172    124    254    282 132.9  28.2  34176  289.85 0854.48
2009/04/23 15:32:34.6     189   -137     95    234    252 125.9  23.1  34160  289.56 0854.48
2009/04/23 15:32:34.7     171   -227    119    285    308 143.0  24.1  34150  289.41 0854.48
2009/04/23 15:32:34.8     232   -254     56    345    350 137.6   9.2  34172  289.76 0854.48
2009/04/23 15:32:34.9     127   -284     15    312    313 155.9   2.9  34156  289.49 0854.48
2009/04/23 15:32:35.0      74   -225     27    237    239 161.7   6.7  34154  289.47 0854.48
2009/04/23 15:32:35.1      14   -195     23    196    198 175.6   6.9  34152  289.45 0854.48
2009/04/23 15:32:35.2     -42   -210     17    215    216 191.5   4.6  34156  289.52 0854.48
2009/04/23 15:32:35.3      -9   -220     92    221    239 182.5  23.8  34154  289.46 0854.48
2009/04/23 15:32:35.4      21   -173     69    175    188 172.9  22.8  34152  289.43 0854.48
2009/04/23 15:32:35.5      17   -139     81    141    162 172.9  32.7  34154  289.48 0854.48
2009/04/23 15:32:35.6      25   -148    118    151    191 170.3  42.2  34156  289.50 0854.48
2009/04/23 15:32:35.7      37   -183    103    187    213 168.4  31.4  34148  289.38 0854.48
2009/04/23 15:32:35.8     -28   -242     85    244    259 186.7  19.2  34154  289.46 0854.48
2009/04/23 15:32:35.9     -58   -261     37    268    271 192.7   8.0  34152  289.44 0854.48
2009/04/23 15:32:36.0     -62   -320     20    326    327 191.0   3.6  34150  289.39 0854.48
2009/04/23 15:32:36.1      -9   -348     62    349    355 181.5  10.1  34152  289.42 0854.46
2009/04/23 15:32:36.2      30   -398    148    400    426 175.6  21.1  34140  289.22 0854.46
2009/04/23 15:32:36.3    -171   -457    312    489    580 200.5  35.6  34146  289.33 0854.46
2009/04/23 15:32:36.4    -212   -353    266    412    490 211.0  35.9  34142  289.25 0854.46
2009/04/23 15:32:36.5    -121   -397    198    416    460 196.9  27.3  34144  289.31 0854.46
2009/04/23 15:32:36.6      82   -329     53    340    345 166.0   9.0  34144  289.30 0854.46
2009/04/23 15:32:36.7     245   -149     83    287    299 121.3  16.3  34150  289.41 0854.46
2009/04/23 15:32:36.8      32   -180     93    183    205 169.8  29.1  34144  289.31 0854.46
2009/04/23 15:32:36.9     -59   -236     -1    244    245 194.0  -0.3  34144  289.31 0854.46
2009/04/23 15:32:37.0      80   -167      1    186    187 154.4   0.5  34146  289.33 0854.46
2009/04/23 15:32:37.1      99   -167     62    195    205 149.3  17.7  34146  289.35 0854.46
2009/04/23 15:32:37.2     116   -155    133    194    235 143.3  37.6  34150  289.41 0854.46
2009/04/23 15:32:37.3     221   -122    144    253    291 118.9  32.4  34158  289.54 0854.46
2009/04/23 15:32:37.4     206   -149    179    255    311 125.9  38.5  34162  289.61 0854.46
2009/04/23 15:32:37.5      86    -84    115    121    166 134.4  48.7  34164  289.63 0854.46
2009/04/23 15:32:37.6     105    -99    129    145    194 133.1  46.4  34158  289.53 0854.46
2009/04/23 15:32:37.7     -32   -176    106    179    208 190.5  33.5  34158  289.53 0854.46
2009/04/23 15:32:37.8     163   -205     41    263    267 141.5   9.0  34150  289.41 0854.46
2009/04/23 15:32:37.9     196   -279     53    341    346 144.9   8.8  34154  289.48 0854.46
2009/04/23 15:32:38.0     143   -213    170    257    308 146.2  36.5  34156  289.49 0854.46
2009/04/23 15:32:38.1      37   -342    129    345    368 173.7  21.4  34160  289.57 0854.46
2009/04/23 15:32:38.2      19   -316    175    317    362 176.5  31.4  34164  289.65 0854.46
2009/04/23 15:32:38.3      91   -309    146    323    354 163.5  25.9  34154  289.47 0854.46
2009/04/23 15:32:38.4     236   -211     44    317    321 131.8   8.0  34146  289.34 0854.46
2009/04/23 15:32:38.5     120   -276     20    302    303 156.4   3.8  34154  289.47 0854.46
2009/04/23 15:32:38.6     173   -174    113    246    270 135.2  26.4  34152  289.42 0854.46
2009/04/23 15:32:38.7     102   -154    146    186    236 146.4  42.2  34154  289.48 0854.46
2009/04/23 15:32:38.8      17   -257    172    258    310 176.2  36.5  34156  289.49 0854.46
2009/04/23 15:32:38.9      54   -270     20    276    277 168.5   4.2  34154  289.47 0854.46
2009/04/23 15:32:39.0    -123   -176     65    216    226 215.0  16.8  34146  289.33 0854.46
2009/04/23 15:32:39.1     -73   -220    196    232    303 198.5  44.3  34134  289.12 0854.47
2009/04/23 15:32:39.2     -61   -218    184    227    292 195.8  43.3  34134  289.14 0854.47
2009/04/23 15:32:39.3      91   -371     74    383    391 166.2  11.0  34142  289.25 0854.47
2009/04/23 15:32:39.4     133   -302     -3    331    332 156.2  -0.6  34140  289.23 0854.47
2009/04/23 15:32:39.5     108   -323      5    341    342 161.4   0.9  34134  289.13 0854.47
2009/04/23 15:32:39.6    -180   -599     59    626    629 196.8   5.4  34144  289.30 0854.47
2009/04/23 15:32:39.7    -151   -611     24    630    631 193.9   2.2  34132  289.09 0854.47
2009/04/23 15:32:39.8    -144   -435    -58    459    463 198.4  -7.3  34138  289.19 0854.47
2009/04/23 15:32:39.9    -273   -303    213    409    461 222.0  29.5  34146  289.33 0854.47
2009/04/23 15:32:40.0    -330    -90    130    343    366 254.7  21.7  34158  289.54 0854.47
2009/04/23 15:32:40.1    -396    -55    214    401    454 262.0  30.3  34152  289.44 0854.47
2009/04/23 15:32:40.2    -383    143    182    409    447 290.5  25.6  34160  289.56 0854.47
2009/04/23 15:32:40.3     -94    149    143    177    227 327.7  43.5  34174  289.80 0854.47
2009/04/23 15:32:40.4    -148     39    150    154    214 285.0  49.4  34178  289.89 0854.47
2009/04/23 15:32:40.5    -186     13     64    187    198 274.3  18.9  34172  289.79 0854.47
2009/04/23 15:32:40.6    -195     -3    102    196    220 269.1  29.5  34178  289.87 0854.47
2009/04/23 15:32:40.7    -224    -45     71    229    240 258.5  17.3  34174  289.81 0854.47
2009/04/23 15:32:40.8    -158    -32    152    162    222 258.5  48.0  34172  289.77 0854.47
2009/04/23 15:32:40.9     -38   -130    239    136    274 196.5  68.1  34160  289.56 0854.47
2009/04/23 15:32:41.0      14    -91    181     93    203 171.1  70.8  34166  289.67 0854.47
2009/04/23 15:32:41.1       3   -213    255    214    332 179.1  56.0  34150  289.41 0854.49
2009/04/23 15:32:41.2     -76   -225    209    238    316 198.7  45.8  34142  289.27 0854.49
2009/04/23 15:32:41.3    -171   -213     45    274    278 218.8   9.3  34140  289.24 0854.49
2009/04/23 15:32:41.4    -253   -270    -83    371    381 223.1 -12.7  34134  289.13 0854.49
2009/04/23 15:32:41.5    -177   -273    133    326    352 213.1  23.5  34142  289.28 0854.49
2009/04/23 15:32:41.6     -29   -270    161    272    316 186.2  33.3  34140  289.24 0854.49
2009/04/23 15:32:41.7      28   -332    171    334    375 175.1  29.3  34146  289.33 0854.49
2009/04/23 15:32:41.8      34   -242    135    245    279 172.0  31.4  34150  289.41 0854.49
2009/04/23 15:32:41.9     -26   -258     68    260    269 185.8  14.7  34142  289.27 0854.49
2009/04/23 15:32:42.0      76   -214    -17    228    229 160.4  -4.4  34142  289.28 0854.49
2009/04/23 15:32:42.1     -24   -133     73    136    154 190.2  30.8  34138  289.21 0854.49
2009/04/23 15:32:42.2     -51   -187    140    194    239 195.4  39.5  34152  289.45 0854.49
2009/04/23 15:32:42.3      13   -161    115    162    198 175.1  38.8  34172  289.79 0854.49
2009/04/23 15:32:42.4     120   -100    156    157    221 130.0  50.0  34170  289.74 0854.49
2009/04/23 15:32:42.5     154   -154     76    219    232 135.0  19.2  34152  289.45 0854.49
2009/04/23 15:32:42.6      74   -134    138    154    206 151.1  46.4  34178  289.89 0854.49
2009/04/23 15:32:42.7      18    -63    143     66    157 164.0  73.8  34204  290.31 0854.49
2009/04/23 15:32:42.8      -8    -60    131     61    144 188.1  73.1  34214  290.48 0854.49
2009/04/23 15:32:42.9     -45   -138    186    146    236 198.3  57.9  34206  290.35 0854.49
2009/04/23 15:32:43.0     -14   -155    192    156    247 185.3  56.6  34214  290.48 0854.49
2009/04/23 15:32:43.1     -39   -193    240    198    311 191.6  56.3  34168  289.71 0854.48
2009/04/23 15:32:43.2    -142   -253    146    291    325 209.4  28.5  34146  289.34 0854.48
2009/04/23 15:32:43.3    -173   -278    -10    328    329 211.9  -1.8  34144  289.29 0854.48
2009/04/23 15:32:43.4    -125   -376      6    397    398 198.4   1.0  34172  289.77 0854.48
2009/04/23 15:32:43.5     -55   -404     49    408    411 187.8   6.9  34152  289.43 0854.48
2009/04/23 15:32:43.6     165   -416    235    448    505 158.3  29.9  34148  289.37 0854.48
2009/04/23 15:32:43.7     218   -445     59    496    500 153.9   6.8  34150  289.39 0854.48
2009/04/23 15:32:43.8      93   -633     59    640    644 171.6   5.3  34136  289.15 0854.48
2009/04/23 15:32:43.9     175   -525    253    554    609 161.5  26.2  34134  289.12 0854.48
2009/04/23 15:32:44.0      42   -564    287    566    634 175.7  28.9  34144  289.29 0854.48
2009/04/23 15:32:44.1     237   -548    290    598    664 156.6  27.8  34132  289.09 0854.48
2009/04/23 15:32:44.2      28   -447    158    448    476 176.4  19.5  34142  289.27 0854.48
2009/04/23 15:32:44.3    -206   -480    199    523    559 203.3  22.0  34142  289.26 0854.48
2009/04/23 15:32:44.4    -245   -623     68    670    674 201.5   5.8  34144  289.31 0854.48
2009/04/23 15:32:44.5    -186   -720    -39    744    745 194.5  -3.0  34136  289.16 0854.48
2009/04/23 15:32:44.6    -317   -637   -111    712    721 206.5  -8.9  34136  289.17 0854.48
2009/04/23 15:32:44.7    -303   -452   -110    545    556 213.8 -11.5  34126  288.99 0854.48
2009/04/23 15:32:44.8    -218   -464     66    513    518 205.2   7.4  34142  289.25 0854.48
2009/04/23 15:32:44.9    -280   -332      5    435    436 220.1   0.7  34144  289.31 0854.48
2009/04/23 15:32:45.0    -171   -182    131    250    282 223.2  29.8  34146  289.32 0854.48
2009/04/23 15:32:45.1     -71   -212    218    224    312 198.7  49.3  34148  289.37 0854.48
2009/04/23 15:32:45.2     -40   -261    148    265    303 188.7  31.4  34146  289.34 0854.48
2009/04/23 15:32:45.3    -230   -341     35    412    414 214.1   5.0  34140  289.24 0854.48
2009/04/23 15:32:45.4    -354   -354    -92    502    511 225.0 -10.4  34130  289.05 0854.48
2009/04/23 15:32:45.5    -124   -390     51    410    414 197.7   7.1  34126  289.00 0854.48
2009/04/23 15:32:45.6     -55   -438    147    442    466 187.2  18.4  34142  289.27 0854.48
2009/04/23 15:32:45.7     -40   -197    131    201    239 191.5  36.5  34144  289.31 0854.48
2009/04/23 15:32:45.8     -53   -180      9    188    189 196.7   2.9  34148  289.36 0854.48
2009/04/23 15:32:45.9     -56   -253     51    260    266 192.5  11.1  34154  289.47 0854.48
2009/04/23 15:32:46.0      65   -167    147    180    232 158.8  43.7  34150  289.40 0854.48
2009/04/23 15:32:46.1     102   -365    139    380    404 164.3  21.0  34142  289.28 0854.48
2009/04/23 15:32:46.2     291   -299    282    418    504 135.8  37.2  34124  288.95 0854.48
2009/04/23 15:32:46.3     368   -358    321    514    606 134.2  35.0  34122  288.93 0854.48
2009/04/23 15:32:46.4     285   -474    310    554    634 149.0  31.7  34128  289.02 0854.48
2009/04/23 15:32:46.5     230   -474    272    527    593 154.1  29.3  34128  289.03 0854.48
2009/04/23 15:32:46.6     114   -437    233    452    508 165.3  29.3  34130  289.08 0854.48
2009/04/23 15:32:46.7     130   -439    281    458    537 163.5  34.5  34126  289.01 0854.48
2009/04/23 15:32:46.8      91   -418    181    429    465 167.6  24.2  34128  289.02 0854.48
2009/04/23 15:32:46.9     200   -432    172    477    508 155.2  19.9  34146  289.32 0854.48
2009/04/23 15:32:47.0     278   -306    184    414    453 137.7  25.6  34130  289.07 0854.48
2009/04/23 15:32:47.1     382   -345     67    515    520 132.1   7.5  34146  289.35 0854.48
2009/04/23 15:32:47.2     342   -248     13    423    424 126.0   1.9  34138  289.19 0854.48
2009/04/23 15:32:47.3     185   -122    110    222    247 123.5  28.2  34156  289.49 0854.48
2009/04/23 15:32:47.4      38    -40    146     56    156 135.9  78.2  34160  289.58 0854.48
2009/04/23 15:32:47.5     -10   -138    217    139    257 184.4  64.6  34158  289.55 0854.48
2009/04/23 15:32:47.6     -35   -138    258    143    294 194.3  68.8  34146  289.32 0854.48
2009/04/23 15:32:47.7      12    -48    147     50    155 165.7  81.2  34158  289.53 0854.48
2009/04/23 15:32:47.8      51    144     55    153    162  19.6  20.4  34154  289.46 0854.48
2009/04/23 15:32:47.9    -178    -86    -44    198    203 244.2 -12.6  34160  289.58 0854.48
2009/04/23 15:32:48.0    -180   -247    209    306    370 216.1  37.6  34138  289.20 0854.48
2009/04/23 15:32:48.1    -351   -550     91    653    660 212.6   8.0  34150  289.39 0854.48
2009/04/23 15:32:48.2    -160   -364    -13    398    399 203.7  -1.9  34136  289.16 0854.48
2009/04/23 15:32:48.3    -143   -359      1    387    388 201.8   0.2  34138  289.21 0854.48
2009/04/23 15:32:48.4     -71   -454     87    460    469 188.9  10.7  34142  289.27 0854.48
2009/04/23 15:32:48.5     -91   -430     41    440    443 192.0   5.3  34134  289.14 0854.48
2009/04/23 15:32:48.7      60   -223     32    232    235 164.9   8.0  34136  289.17 0854.48
2009/04/23 15:32:48.8     265   -243    195    360    409 132.6  30.9  34144  289.30 0854.48
2009/04/23 15:32:48.9     284   -284    177    403    440 135.0  25.2  34142  289.26 0854.48
2009/04/23 15:32:49.0     251   -325    246    411    478 142.3  33.8  34132  289.11 0854.48
2009/04/23 15:32:49.1     176   -336    181    380    420 152.4  27.3  34150  289.41 0854.48
2009/04/23 15:32:49.2      65   -373     54    379    383 170.0   8.2  34146  289.33 0854.47
2009/04/23 15:32:49.3     115   -394     46    411    414 163.7   6.5  34150  289.41 0854.47
2009/04/23 15:32:49.4     144   -329     -5    360    361 156.3  -0.9  34148  289.38 0854.47
2009/04/23 15:32:49.5     300   -388     11    491    492 142.3   1.4  34140  289.23 0854.47
2009/04/23 15:32:49.6     204   -296     70    360    367 145.4  11.1  34148  289.38 0854.47
2009/04/23 15:32:49.7     155   -407    -89    436    446 159.1 -11.6  34152  289.44 0854.47
2009/04/23 15:32:49.8     374   -411     94    557    565 137.7   9.6  34146  289.33 0854.47
2009/04/23 15:32:49.9     270   -372    181    460    494 144.0  22.5  34150  289.39 0854.47
2009/04/23 15:32:50.0     198   -428     78    472    479 155.2   9.5  34152  289.44 0854.47
2009/04/23 15:32:50.1     235   -313      1    392    393 143.0   0.2  34152  289.45 0854.47
2009/04/23 15:32:50.2     112   -271     57    294    300 157.5  11.0  34150  289.41 0854.47
2009/04/23 15:32:50.3     170   -141      4    222    223 129.6   1.2  34152  289.45 0854.47
2009/04/23 15:32:50.4     158   -145     41    215    219 132.7  10.8  34156  289.52 0854.47
2009/04/23 15:32:50.5     164   -115   -107    201    227 125.1 -35.0  34160  289.58 0854.47
2009/04/23 15:32:50.6     253    -84    -88    267    281 108.4 -23.8  34152  289.44 0854.47
2009/04/23 15:32:50.7     211   -211    -37    299    302 135.0  -7.2  34152  289.44 0854.47
2009/04/23 15:32:50.8      48   -153   -190    161    249 162.6 -60.0  34156  289.52 0854.47
2009/04/23 15:32:50.9     -12    -45   -193     47    198 196.0 -90.0  34166  289.67 0854.47
2009/04/23 15:32:51.0      54   -267    -77    273    283 168.4 -20.7  34154  289.46 0854.47
2009/04/23 15:32:51.1     -42   -301     34    305    307 188.0   6.5  34150  289.41 0854.47
2009/04/23 15:32:51.2    -146   -209     52    256    262 215.0  11.6  34154  289.47 0854.47
2009/04/23 15:32:51.3     -95     47    -23    107    110 296.6 -12.4  34146  289.35 0854.47
2009/04/23 15:32:51.4    -205    137   -166    247    297 303.7 -41.7  34154  289.47 0854.47
2009/04/23 15:32:51.5     -75    120   -122    142    187 327.9 -49.5  34154  289.46 0854.47
2009/04/23 15:32:51.6     -40    -15    -94     43    103 249.2 -78.4  34158  289.55 0854.47
2009/04/23 15:32:51.7     -25   -175   -100    177    203 188.2 -36.5  34146  289.35 0854.47
2009/04/23 15:32:51.8      83   -243   -155    257    300 161.1 -38.6  34152  289.44 0854.47
2009/04/23 15:32:51.9     184   -159   -110    244    267 130.9 -30.6  34144  289.31 0854.47
2009/04/23 15:32:52.0     208   -109   -175    236    293 117.8 -44.5  34140  289.22 0854.47
2009/04/23 15:32:52.1     209   -159   -182    263    319 127.3 -42.3  34136  289.17 0854.47
2009/04/23 15:32:52.2     165   -234   -149    287    323 144.8 -33.9  34134  289.12 0854.47
2009/04/23 15:32:52.3     147   -167   -190    223    292 138.6 -49.2  34150  289.41 0854.47
2009/04/23 15:32:52.4     186   -228   -105    295    314 140.8 -19.7  34146  289.34 0854.47
2009/04/23 15:32:52.5     163   -222    -78    276    286 143.7 -20.7  34138  289.20 0854.47
2009/04/23 15:32:52.6      52   -257    -55    263    269 168.4 -11.9  34132  289.10 0854.47
2009/04/23 15:32:52.7     -28   -188      3    191    192 188.5   1.0  34130  289.06 0854.47
2009/04/23 15:32:52.8    -123   -133     63    182    193 222.8  19.2  34134  289.14 0854.47
2009/04/23 15:32:52.9    -136   -109     98    175    200 231.4  31.6  34130  289.08 0854.47
2009/04/23 15:32:53.0    -125    -64    179    141    227 242.9  57.7  34130  289.08 0854.47
2009/04/23 15:32:53.1      -3    -31    186     32    188 186.2  90.0  34152  289.43 0854.47
2009/04/23 15:32:53.2     133   -168    184    215    282 141.7  44.8  34134  289.14 0854.47
2009/04/23 15:32:53.3      66   -241    109    250    272 164.6  25.1  34124  288.97 0854.47
2009/04/23 15:32:53.4     -13   -282     99    283    299 182.7  20.0  34124  288.95 0854.47
2009/04/23 15:32:53.5    -119   -426    124    443    461 195.7  15.7  34120  288.89 0854.47
2009/04/23 15:32:53.6      61   -557      3    561    562 173.7   0.3  34116  288.82 0854.47
2009/04/23 15:32:53.7     -59   -418   -134    423    444 188.1 -17.7  34116  288.82 0854.47
2009/04/23 15:32:53.8    -320   -386    121    502    517 219.6  13.6  34122  288.93 0854.47
2009/04/23 15:32:53.9    -308   -271    160    411    441 228.7  22.4  34120  288.90 0854.47
2009/04/23 15:32:54.0    -107     -8     30    108    113 265.6  15.8  34122  288.92 0854.47
2009/04/23 15:32:54.1      63   -122    160    138    211 152.8  54.8  34130  289.06 0854.47
2009/04/23 15:32:54.2      63   -152     20    165    167 157.3   7.2  34110  288.72 0854.47
2009/04/23 15:32:54.3     121    128    173    177    247  43.4  49.4  34130  289.06 0854.47
2009/04/23 15:32:54.4     125     80    174    149    229  57.5  55.4  34128  289.02 0854.47
2009/04/23 15:32:54.5      97    187    219    211    304  27.4  51.2  34138  289.20 0854.47
2009/04/23 15:32:54.6     -81    203     72    219    231 338.1  18.4  34132  289.09 0854.47
2009/04/23 15:32:54.7     -98     21    159    101    188 282.4  64.7  34144  289.31 0854.47
2009/04/23 15:32:54.8     -23     16     91     29     95 304.2  80.7  34160  289.58 0854.47
2009/04/23 15:32:54.9      11      7    143     14    143  57.6  90.0  34140  289.24 0854.47
2009/04/23 15:32:55.0     -19     72    123     75    144 344.9  65.1  34138  289.19 0854.47
2009/04/23 15:32:55.1    -136     25    127    139    188 280.6  47.5  34138  289.21 0854.45
2009/04/23 15:32:55.2    -252    -76    123    264    291 253.1  27.0  34132  289.09 0854.45
2009/04/23 15:32:55.3    -255      9     30    256    258 272.1   6.9  34136  289.15 0854.45
2009/04/23 15:32:55.4    -351      0     54    352    357 270.0   8.8  34136  289.16 0854.45
2009/04/23 15:32:55.5    -308   -138    110    338    356 245.8  18.0  34136  289.18 0854.45
2009/04/23 15:32:55.6    -329     58    159    335    370 280.0  27.2  34162  289.62 0854.45
2009/04/23 15:32:55.7    -128   -190     93    230    248 214.1  23.1  34146  289.32 0854.45
2009/04/23 15:32:55.8    -228   -197    120    302    324 229.1  22.9  34130  289.05 0854.45
2009/04/23 15:32:55.9       8   -121    222    122    253 176.0  68.8  34138  289.19 0854.45
2009/04/23 15:32:56.0     -69    -38    222     79    235 241.2  80.2  34146  289.33 0854.45
2009/04/23 15:32:56.1     -98      6    197     99    220 273.5  71.4  34146  289.35 0854.45
2009/04/23 15:32:56.2     -59    -67    225     90    242 221.4  77.1  34160  289.58 0854.45
2009/04/23 15:32:56.3     -47   -150    237    158    284 197.4  63.2  34144  289.29 0854.45
2009/04/23 15:32:56.4     -40   -270    325    274    425 188.5  55.8  34132  289.10 0854.45
2009/04/23 15:32:56.5    -142   -331    335    361    492 203.2  47.8  34142  289.26 0854.45
2009/04/23 15:32:56.6    -354   -401    171    536    563 221.5  17.7  34182  289.94 0854.45
2009/04/23 15:32:56.7    -314   -387     70    499    505 219.1   8.0  34178  289.89 0854.45
2009/04/23 15:32:56.8    -164   -449    227    479    530 200.1  27.2  34146  289.34 0854.45
2009/04/23 15:32:56.9     -79   -355    314    364    480 192.6  45.2  34140  289.22 0854.45
2009/04/23 15:32:57.0      10   -193    296    194    353 176.9  63.7  34140  289.24 0854.45
2009/04/23 15:32:57.1      14   -298    301    299    424 177.3  50.1  34136  289.16 0854.42
2009/04/23 15:32:57.2     -10   -223    278    224    357 182.7  57.1  34140  289.22 0854.42
2009/04/23 15:32:57.3     -31   -306    289    308    422 185.8  48.0  34136  289.16 0854.42
2009/04/23 15:32:57.4       7   -203    243    204    317 178.0  55.8  34134  289.12 0854.42
2009/04/23 15:32:57.5      59   -107    150    123    193 151.1  56.4  34138  289.21 0854.42
2009/04/23 15:32:57.6    -134   -257    204    291    355 207.6  38.5  34132  289.11 0854.42
2009/04/23 15:32:57.7    -167   -368    185    405    445 204.5  26.2  34134  289.14 0854.42
2009/04/23 15:32:57.8    -248   -300    105    390    405 219.6  15.1  34132  289.11 0854.42
2009/04/23 15:32:57.9    -307   -257    145    401    427 230.0  19.9  34158  289.55 0854.42
2009/04/23 15:32:58.0    -331   -150     99    364    378 245.5  15.3  34198  290.21 0854.42
2009/04/23 15:32:58.1    -452    -27     47    453    456 266.5   6.0  34200  290.26 0854.42
2009/04/23 15:32:58.2    -432    -80   -130    440    459 259.4 -16.5  34160  289.58 0854.42
2009/04/23 15:32:58.3    -405    -75    -75    412    419 259.4 -10.4  34168  289.72 0854.42
2009/04/23 15:32:58.4    -218    -44    -78    223    237 258.5 -19.4  34172  289.77 0854.42
2009/04/23 15:32:58.5    -398    -44   -129    401    421 263.7 -23.0  34178  289.87 0854.42
2009/04/23 15:32:58.6    -401    -25    -58    402    407 266.4  -8.3  34184  289.99 0854.42
2009/04/23 15:32:58.7    -361    -15   -108    362    377 267.6 -21.6  34162  289.60 0854.42
2009/04/23 15:32:58.8     -60   -128      9    142    143 205.4   3.8  34150  289.40 0854.42
2009/04/23 15:32:58.9      84   -306    135    318    345 164.6  24.3  34130  289.08 0854.42
2009/04/23 15:32:59.0    -131   -292     62    321    327 204.2  11.0  34136  289.17 0854.42
2009/04/23 15:32:59.1    -316     36    -61    319    325 276.6 -10.9  34158  289.54 0854.43
2009/04/23 15:32:59.2    -212     13     76    213    226 273.7  20.2  34166  289.67 0854.43
2009/04/23 15:32:59.3     -91      7     61     92    110 274.8  36.0  34174  289.82 0854.43
2009/04/23 15:32:59.4     -77    -30     42     83     93 248.7  28.2  34172  289.79 0854.43
2009/04/23 15:32:59.5     -53     13     75     55     93 284.2  60.0  34162  289.62 0854.43
2009/04/23 15:32:59.6     -58      6    119     59    132 276.1  72.4  34158  289.55 0854.43
2009/04/23 15:32:59.7    -155    -64     93    168    192 247.4  31.4  34134  289.14 0854.43
2009/04/23 15:32:59.8    -148   -102     26    180    182 235.4   8.2  34132  289.09 0854.43
2009/04/23 15:32:59.9     -67   -131     39    148    154 207.2  14.7  34126  289.01 0854.43
2009/04/23 15:33:00.0     -97   -190     67    214    225 207.2  17.4  34134  289.13 0854.43
2009/04/23 15:33:00.1    -156   -209     31    261    263 216.7   6.9  34146  289.34 0854.44
2009/04/23 15:33:00.2     -84   -194     41    212    217 203.6  11.1  34146  289.35 0854.44
2009/04/23 15:33:00.3      51   -151    -78    160    178 161.3 -32.4  34140  289.24 0854.44
2009/04/23 15:33:00.4     115    -68    -37    134    140 120.7 -15.5  34138  289.21 0854.44
2009/04/23 15:33:00.5     216   -250     21    331    332 139.2   3.7  34130  289.08 0854.44
2009/04/23 15:33:00.6     201   -391     51    440    444 152.8   6.7  34140  289.24 0854.44
2009/04/23 15:33:00.7     160   -435    142    464    486 159.7  17.1  34130  289.06 0854.44
2009/04/23 15:33:00.8     330   -424     37    538    540 142.2   4.0  34140  289.24 0854.44
2009/04/23 15:33:00.9     384   -373    231    536    583 134.1  24.9  34134  289.13 0854.44
2009/04/23 15:33:01.0     312   -356    219    474    522 138.7  26.6  34120  288.91 0854.44
2009/04/23 15:33:01.1     488   -274    197    560    593 119.3  20.1  34134  289.14 0854.44
2009/04/23 15:33:01.2     587   -286    180    654    679 116.0  15.4  34146  289.34 0854.44
2009/04/23 15:33:01.3     642   -247     34    688    689 111.1   2.9  34156  289.49 0854.44
2009/04/23 15:33:01.4     682   -400    -44    791    793 120.4  -3.2  34150  289.39 0854.44
2009/04/23 15:33:01.5     514   -174    -21    543    544 108.7  -2.2  34182  289.96 0854.44
2009/04/23 15:33:01.6     456   -207    175    501    530 114.4  20.1  34188  290.04 0854.44
2009/04/23 15:33:01.7     185   -248     48    310    314 143.3   8.9  34162  289.59 0854.44
2009/04/23 15:33:01.8     140   -112     81    180    197 128.6  25.7  34170  289.74 0854.44
2009/04/23 15:33:01.9      46    -66    147     81    167 144.8  68.8  34206  290.35 0854.44
2009/04/23 15:33:02.0     -30      3    106     31    110 276.1  83.3  34226  290.70 0854.44
2009/04/23 15:33:02.1      66   -145    241    160    289 155.5  63.6  34230  290.76 0854.45
2009/04/23 15:33:02.2     -98   -298    183    314    363 198.3  32.9  34184  289.98 0854.45
2009/04/23 15:33:02.3     -68   -268    274    277    389 194.3  49.9  34184  289.98 0854.45
2009/04/23 15:33:02.4      -9   -299    243    300    386 181.8  43.4  34188  290.03 0854.45
2009/04/23 15:33:02.5     157   -209    133    262    293 143.1  29.2  34188  290.03 0854.45
2009/04/23 15:33:02.6      65   -358    232    364    431 169.7  35.6  34154  289.48 0854.45
2009/04/23 15:33:02.7    -110   -455    252    469    532 193.7  30.7  34156  289.52 0854.45
2009/04/23 15:33:02.8     -95   -430    220    441    492 192.5  28.5  34146  289.34 0854.45
2009/04/23 15:33:02.9     -90   -272    197    287    348 198.5  37.8  34150  289.40 0854.45
2009/04/23 15:33:03.0     -68   -255    195    265    329 195.1  40.1  34148  289.36 0854.45
2009/04/23 15:33:03.1     -82   -209    118    225    254 201.6  29.8  34156  289.49 0854.45
2009/04/23 15:33:03.2     -64   -200    122    211    243 197.8  32.7  34146  289.34 0854.45
2009/04/23 15:33:03.3     -12   -166     56    167    177 184.2  18.6  34148  289.36 0854.45
2009/04/23 15:33:03.4      49   -157     74    165    180 162.6  25.7  34142  289.26 0854.45
2009/04/23 15:33:03.5     100   -226     99    248    267 156.2  23.0  34148  289.37 0854.45
2009/04/23 15:33:03.6      -9   -297     81    298    309 181.8  15.3  34148  289.37 0854.45
2009/04/23 15:33:03.7     -77   -265     87    277    291 196.3  17.4  34160  289.56 0854.45
2009/04/23 15:33:03.8     -91   -235     59    253    260 201.2  13.2  34160  289.56 0854.45
2009/04/23 15:33:03.9     -88   -232    -19    249    250 200.9  -4.4  34158  289.54 0854.45
2009/04/23 15:33:04.0     -34   -201     -8    205    206 189.8  -2.2  34172  289.77 0854.45
2009/04/23 15:33:04.1      -2   -185    -33    186    190 180.9 -10.3  34174  289.80 0854.46
2009/04/23 15:33:04.2      35   -175     -7    179    180 168.7  -2.3  34174  289.80 0854.46
2009/04/23 15:33:04.3      46   -136    -28    144    147 161.3 -11.3  34176  289.85 0854.46
2009/04/23 15:33:04.4      11   -201    -40    202    207 176.9 -11.3  34186  290.01 0854.46
2009/04/23 15:33:04.5     -61   -185    -17    195    196 198.3  -5.2  34180  289.92 0854.46
2009/04/23 15:33:04.6     -38   -191     57    195    204 191.5  16.3  34166  289.67 0854.46
2009/04/23 15:33:04.7       4   -300    120    301    324 179.1  22.9  34148  289.36 0854.46
2009/04/23 15:33:04.8      39   -278     40    281    284 171.9   8.2  34156  289.49 0854.46
2009/04/23 15:33:04.9     172   -298    -49    345    349 150.0  -8.1  34166  289.67 0854.46
2009/04/23 15:33:05.0     263   -308    -31    406    408 139.5  -4.5  34172  289.78 0854.46
2009/04/23 15:33:05.1     315   -286    -61    426    431 132.3  -8.2  34156  289.49 0854.46
2009/04/23 15:33:05.2     194   -285    -18    346    347 145.7  -3.1  34158  289.55 0854.46
2009/04/23 15:33:05.3     149   -318     30    352    354 155.0   4.9  34162  289.62 0854.46
2009/04/23 15:33:05.4     -11   -323     43    324    327 182.1   7.6  34150  289.39 0854.46
2009/04/23 15:33:05.5     -18   -231     11    232    233 184.5   2.8  34144  289.29 0854.46
2009/04/23 15:33:05.6     109   -205     10    233    234 151.9   2.5  34134  289.12 0854.46
2009/04/23 15:33:05.7     170   -268    -36    318    321 147.5  -6.5  34144  289.31 0854.46
2009/04/23 15:33:05.8      82   -260     -5    273    274 162.4  -1.2  34148  289.37 0854.46
2009/04/23 15:33:05.9      96   -259     59    277    284 159.5  12.2  34158  289.53 0854.46
2009/04/23 15:33:06.0     155   -235     94    282    298 146.6  18.4  34156  289.51 0854.46
2009/04/23 15:33:06.1     203   -326     47    385    388 148.1   7.1  34158  289.55 0854.45
2009/04/23 15:33:06.2     308   -306     68    435    441 134.8   9.0  34146  289.34 0854.45
2009/04/23 15:33:06.3     254   -223     57    338    343 131.3   9.7  34148  289.38 0854.45
2009/04/23 15:33:06.4     198   -231      5    305    306 139.4   1.0  34152  289.42 0854.45
2009/04/23 15:33:06.5     121   -312     34    335    337 158.7   5.8  34142  289.28 0854.45
2009/04/23 15:33:06.6     -11   -253    -13    254    255 182.5  -3.1  34146  289.34 0854.45
2009/04/23 15:33:06.7     -54   -281      1    287    288 190.9   0.2  34146  289.32 0854.45
2009/04/23 15:33:06.8     -80   -167     -7    186    187 205.6  -2.2  34144  289.30 0854.45
2009/04/23 15:33:06.9     -58    -94     53    111    123 211.6  27.2  34144  289.31 0854.45
2009/04/23 15:33:07.0     -22   -111     50    114    124 191.5  25.1  34142  289.26 0854.45
2009/04/23 15:33:07.1      37   -211    131    215    251 170.0  34.4  34148  289.36 0854.45
2009/04/23 15:33:07.2      33   -189     94    192    213 170.0  28.0  34144  289.30 0854.45
2009/04/23 15:33:07.3      56   -228     60    235    243 166.0  14.5  34140  289.22 0854.45
2009/04/23 15:33:07.4      52   -325      6    330    331 170.8   1.1  34138  289.21 0854.45
2009/04/23 15:33:07.5      55   -327     89    332    344 170.3  15.1  34144  289.30 0854.45
2009/04/23 15:33:07.6     182   -260     56    318    323 144.9  10.0  34140  289.22 0854.45
2009/04/23 15:33:07.7     237   -275     64    364    370 139.2  10.0  34136  289.16 0854.45
2009/04/23 15:33:07.8     178   -355     -1    398    399 153.4  -0.2  34142  289.25 0854.45
2009/04/23 15:33:07.9     213   -499     -5    543    544 156.8  -0.6  34146  289.33 0854.45
2009/04/23 15:33:08.0     188   -425     86    465    473 156.1  10.6  34142  289.27 0854.45
2009/04/23 15:33:08.1      92   -370    164    382    415 166.0  24.8  34150  289.39 0854.47
2009/04/23 15:33:08.2      97   -543    273    552    615 169.8  28.2  34142  289.27 0854.47
2009/04/23 15:33:08.3     251   -622     88    671    677 158.0   7.5  34136  289.16 0854.47
2009/04/23 15:33:08.4      66   -737    150    741    756 174.8  11.5  34134  289.14 0854.47
2009/04/23 15:33:08.5     -51   -694    169    696    717 184.3  13.7  34140  289.22 0854.47
2009/04/23 15:33:08.6    -190   -433   -144    474    496 203.7 -17.0  34122  288.93 0854.47
2009/04/23 15:33:08.7    -374   -406     52    553    556 222.7   5.4  34142  289.28 0854.47
2009/04/23 15:33:08.8    -141   -695    245    709    751 191.5  19.1  34132  289.09 0854.47
2009/04/23 15:33:08.9    -234   -769     40    805    807 197.0   2.9  34146  289.33 0854.47
2009/04/23 15:33:09.0    -293   -646     55    710    713 204.4   4.5  34146  289.35 0854.47
2009/04/23 15:33:09.1      48   -620    -18    623    624 175.5  -1.7  34144  289.30 0854.47
2009/04/23 15:33:09.2     201   -716    -20    744    745 164.3  -1.6  34146  289.34 0854.47
2009/04/23 15:33:09.3     300   -533    296    612    679 150.6  27.7  34116  288.82 0854.47
2009/04/23 15:33:09.4     391   -462    272    606    664 139.7  25.8  34130  289.06 0854.47
2009/04/23 15:33:09.5     297   -400    238    499    552 143.4  27.3  34130  289.06 0854.47
2009/04/23 15:33:09.6     -47   -437    220    440    491 186.3  28.6  34124  288.96 0854.47
2009/04/23 15:33:09.7    -110   -231     -7    257    258 205.5  -1.6  34128  289.02 0854.47
2009/04/23 15:33:09.8      84   -245     51    260    266 161.1  11.1  34130  289.05 0854.47
2009/04/23 15:33:09.9      99   -167    146    195    243 149.3  40.6  34148  289.36 0854.47
2009/04/23 15:33:10.0      24   -512     63    513    517 177.3   7.1  34138  289.20 0854.47
2009/04/23 15:33:10.1     -16   -762     -4    763    764 181.3  -0.4  34134  289.12 0854.49
2009/04/23 15:33:10.2      36   -571    165    573    597 176.4  16.1  34140  289.24 0854.49
2009/04/23 15:33:10.3     -45   -522    267    525    588 185.0  29.2  34146  289.33 0854.49
2009/04/23 15:33:10.4     337   -585    245    676    720 150.1  19.9  34142  289.28 0854.49
2009/04/23 15:33:10.5     409   -709     93    819    825 150.0   6.5  34138  289.20 0854.49
2009/04/23 15:33:10.6     511   -537     56    742    744 136.4   4.4  34140  289.23 0854.49
2009/04/23 15:33:10.7     580   -566    131    811    822 134.3   9.2  34130  289.08 0854.49
2009/04/23 15:33:10.8     429   -563    182    709    733 142.7  14.4  34136  289.17 0854.49
2009/04/23 15:33:10.9     488   -829    164    963    977 149.5   9.7  34114  288.79 0854.49
2009/04/23 15:33:11.0     261   -746    321    791    853 160.7  23.4  34106  288.67 0854.49
2009/04/23 15:33:11.1     251   -444    259    511    572 150.5  29.1  34114  288.79 0854.49
2009/04/23 15:33:11.2     314   -494     73    586    591 147.5   7.1  34136  289.15 0854.49
2009/04/23 15:33:11.3     198   -414     24    460    461 154.4   3.0  34134  289.14 0854.49
2009/04/23 15:33:11.4      80   -560    226    566    609 171.8  23.0  34114  288.80 0854.49
2009/04/23 15:33:11.5      13   -295      1    296    297 177.4   0.2  34128  289.03 0854.49
2009/04/23 15:33:11.6     118   -220   -128    250    280 151.7 -33.7  34130  289.05 0854.49
2009/04/23 15:33:11.7      67   -186   -271    198    335 160.2 -64.9  34132  289.10 0854.49
2009/04/23 15:33:11.8     -54   -252    -76    258    270 192.3 -16.5  34130  289.05 0854.49
2009/04/23 15:33:11.9      18    -54    -68     58     89 161.3 -59.8  34130  289.08 0854.49
2009/04/23 15:33:12.0      23    142    -45    144    152   9.3 -17.5  34138  289.21 0854.49
2009/04/23 15:33:12.1     198    186     21    273    274  46.8   4.6  34130  289.07 0854.51
2009/04/23 15:33:12.2     364    141     69    391    398  68.7  10.0  34132  289.10 0854.51
2009/04/23 15:33:12.3     365     73     18    373    374  78.6   2.9  34138  289.20 0854.51
2009/04/23 15:33:12.4     223   -201    149    301    335 132.0  28.4  34132  289.09 0854.51
2009/04/23 15:33:12.5     116   -109    214    160    267 133.1  59.6  34140  289.24 0854.51
2009/04/23 15:33:12.6      93    -31     46     99    109 108.6  27.1  34138  289.19 0854.51
2009/04/23 15:33:12.7      66     87    136    110    174  37.4  56.6  34142  289.26 0854.51
2009/04/23 15:33:12.8     160     39    229    165    282  76.1  60.6  34148  289.36 0854.51
2009/04/23 15:33:12.9      43    135      2    142    143  17.8   0.8  34134  289.13 0854.51
2009/04/23 15:33:13.0     105    325    -13    342    343  18.0  -2.2  34134  289.13 0854.51
2009/04/23 15:33:13.1     237    -41    184    241    303  99.9  41.4  34134  289.14 0854.51
2009/04/23 15:33:13.2      78   -265    462    277    538 163.5  66.3  34134  289.12 0854.51
2009/04/23 15:33:13.3      -9    199    195    200    279 357.3  49.4  34138  289.19 0854.51
2009/04/23 15:33:13.4     113    386    352    403    535  16.3  45.7  34130  289.08 0854.51
2009/04/23 15:33:13.5     267    -59    392    274    478 102.6  61.8  34140  289.24 0854.51
2009/04/23 15:33:13.6    -114   -327    371    347    507 199.3  52.2  34130  289.07 0854.51
2009/04/23 15:33:13.7     -90   -337    269    349    440 195.0  41.6  34134  289.12 0854.51
2009/04/23 15:33:13.8      64    -93    185    114    217 145.3  65.4  34142  289.26 0854.51
2009/04/23 15:33:13.9     219   -302    341    374    506 144.0  47.1  34124  288.96 0854.51
2009/04/23 15:33:14.0      67   -652    654    656    926 174.1  50.0  34142  289.27 0854.51
2009/04/23 15:33:14.1     -33   -602    584    603    839 183.2  49.0  34132  289.09 0854.54
2009/04/23 15:33:14.2     396   -261    582    475    751 123.4  56.6  34132  289.09 0854.54
2009/04/23 15:33:14.3     694   -252    371    739    826 110.0  28.7  34128  289.03 0854.54
2009/04/23 15:33:14.4     383   -174    242    421    485 114.5  32.4  34136  289.17 0854.54
2009/04/23 15:33:14.5     383   -230    270    448    523 121.0  34.0  34136  289.18 0854.54
2009/04/23 15:33:14.6     117   -308    130    330    354 159.1  22.7  34132  289.11 0854.54
2009/04/23 15:33:14.7     -31   -389    127    391    412 184.6  18.0  34132  289.11 0854.54
2009/04/23 15:33:14.8      54   -164    133    173    218 161.7  41.6  34140  289.24 0854.54
2009/04/23 15:33:14.9     220   -215    153    308    343 134.4  28.2  34128  289.03 0854.54
2009/04/23 15:33:15.0     449   -285     99    532    542 122.4  10.6  34142  289.28 0854.54
2009/04/23 15:33:15.1     258   -311    235    405    468 140.3  32.9  34136  289.17 0854.54
2009/04/23 15:33:15.2     237   -280    237    368    437 139.7  35.6  34138  289.19 0854.54
2009/04/23 15:33:15.3     163   -328    117    367    386 153.6  17.7  34142  289.25 0854.54
2009/04/23 15:33:15.4      94   -234    156    253    297 158.2  34.5  34142  289.25 0854.54
2009/04/23 15:33:15.5     123   -157    155    200    253 141.7  41.7  34144  289.29 0854.54
2009/04/23 15:33:15.6      -2   -207    194    208    284 180.7  47.9  34138  289.19 0854.54
2009/04/23 15:33:15.7    -170   -290     87    337    349 210.3  14.5  34134  289.13 0854.54
2009/04/23 15:33:15.8    -238   -266    -79    358    367 221.8 -12.5  34134  289.13 0854.54
2009/04/23 15:33:15.9    -260   -261   -136    369    393 224.8 -25.5  34132  289.11 0854.54
2009/04/23 15:33:16.0    -193   -132    -53    234    241 235.6 -12.9  34130  289.05 0854.54
2009/04/23 15:33:16.1    -177    -49    -14    184    185 254.3  -4.6  34136  289.16 0854.56
2009/04/23 15:33:16.2    -201     -5     91    202    221 268.5  25.7  34138  289.21 0854.56
2009/04/23 15:33:16.3    -169    -96     58    195    204 240.2  16.8  34136  289.16 0854.56
2009/04/23 15:33:16.5     -61   -187    110    197    225 198.3  31.4  34140  289.23 0854.56
2009/04/23 15:33:16.6     292   -467     57    551    555 148.0   6.0  34118  288.85 0854.56
2009/04/23 15:33:16.7     169   -194    -85    258    272 138.8 -18.3  34124  288.95 0854.56
2009/04/23 15:33:16.8     138   -121     22    184    186 131.3   7.1  34124  288.96 0854.56
2009/04/23 15:33:16.9      87   -189    165    209    266 155.3  42.7  34122  288.92 0854.56
2009/04/23 15:33:17.0       8   -132    105    133    169 176.4  42.4  34126  288.99 0854.56
2009/04/23 15:33:17.1       0   -146    -21    147    149 180.0  -8.2  34126  289.01 0854.56
2009/04/23 15:33:17.2     137   -330     65    358    364 157.4  10.4  34126  289.01 0854.56
2009/04/23 15:33:17.3     163   -232     38    284    287 144.8   7.8  34122  288.93 0854.56
2009/04/23 15:33:17.4     219   -172     65    279    287 128.2  13.2  34120  288.90 0854.56
2009/04/23 15:33:17.5     175   -109    153    207    257 121.8  40.1  34134  289.14 0854.56
2009/04/23 15:33:17.6      60    -42    104     74    127 125.1  60.6  34134  289.13 0854.56
2009/04/23 15:33:17.7     -86     91     10    126    127 316.8   4.9  34130  289.06 0854.56
2009/04/23 15:33:17.8    -129    158    -65    205    216 320.8 -17.5  34132  289.11 0854.56
2009/04/23 15:33:17.9    -187    108     22    217    219 300.0   5.9  34138  289.19 0854.56
2009/04/23 15:33:18.0    -105    134    123    171    210 321.9  39.5  34144  289.30 0854.56
2009/04/23 15:33:18.1    -211    310     53    376    380 325.7   8.1  34142  289.25 0854.60
2009/04/23 15:33:18.2    -117    332     69    353    360 340.6  11.1  34142  289.25 0854.60
2009/04/23 15:33:18.3    -133    404    122    426    444 341.7  16.0  34140  289.24 0854.60
2009/04/23 15:33:18.4     -49    388    106    392    407 352.8  15.1  34136  289.18 0854.60
2009/04/23 15:33:18.5      88    138    227    164    280  32.5  60.6  34134  289.14 0854.60
2009/04/23 15:33:18.6    -106    146    158    181    240 323.9  45.8  34150  289.40 0854.60
2009/04/23 15:33:18.7       9   -196    241    197    311 177.3  56.4  34130  289.07 0854.60
2009/04/23 15:33:18.8    -289   -153    215    328    392 242.0  36.5  34152  289.45 0854.60
2009/04/23 15:33:18.9     -42      3    170     43    175 274.4  85.9  34146  289.35 0854.60
2009/04/23 15:33:19.0     -60    117    140    132    192 332.9  52.0  34154  289.48 0854.60
2009/04/23 15:33:19.1     -82    -49    133     96    164 239.3  60.8  34152  289.43 0854.60
2009/04/23 15:33:19.2      32    -85     97     92    133 159.1  51.2  34136  289.18 0854.60
2009/04/23 15:33:19.3     103    -47    115    114    161 114.8  50.1  34150  289.40 0854.60
2009/04/23 15:33:19.4      -7     84     85     85    120 354.7  50.1  34162  289.60 0854.60
2009/04/23 15:33:19.5     108    136    144    174    225  38.5  43.8  34152  289.45 0854.60
2009/04/23 15:33:19.6      60    153    146    165    220  21.6  45.9  34154  289.48 0854.60
2009/04/23 15:33:19.7      33   -232    102    235    256 171.8  25.1  34148  289.36 0854.60
2009/04/23 15:33:19.8     -25   -181     87    183    202 188.0  27.2  34144  289.30 0854.60
2009/04/23 15:33:19.9     284   -173    -77    333    342 121.3 -13.2  34144  289.30 0854.60
2009/04/23 15:33:20.0       8    -26    106     28    109 161.3  84.9  34148  289.36 0854.60
2009/04/23 15:33:20.1    -175     22     60    177    188 277.2  18.9  34152  289.45 0854.60
2009/04/23 15:33:20.2    -216    -16    -94    217    236 265.6 -29.3  34162  289.62 0854.60
2009/04/23 15:33:20.3      60    -77   -139     98    170 142.2 -65.9  34162  289.62 0854.60
2009/04/23 15:33:20.4      37   -241     24    244    246 171.1   5.7  34152  289.42 0854.60
2009/04/23 15:33:20.5    -100   -368    103    382    396 195.2  15.2  34138  289.21 0854.60
2009/04/23 15:33:20.6    -254   -367    167    447    477 214.8  21.5  34192  290.10 0854.60
2009/04/23 15:33:20.7    -282   -460    222    540    583 211.5  23.6  34200  290.24 0854.60
2009/04/23 15:33:20.8    -302   -406    182    507    538 216.6  20.4  34194  290.16 0854.60
2009/04/23 15:33:20.9    -295   -379     19    481    482 217.9   2.3  34188  290.06 0854.60
2009/04/23 15:33:21.0    -304   -223   -119    378    396 233.7 -22.5  34196  290.18 0854.60
2009/04/23 15:33:21.1    -283   -282   -119    400    417 225.1 -21.4  34196  290.17 0854.59
2009/04/23 15:33:21.2    -384   -383   -201    543    579 225.1 -25.8  34170  289.75 0854.59
2009/04/23 15:33:21.3    -509   -369   -288    630    692 234.0 -30.8  34152  289.44 0854.59
2009/04/23 15:33:21.4    -378   -343   -191    511    545 227.8 -25.9  34148  289.36 0854.59
2009/04/23 15:33:21.5    -431   -428    -66    608    612 225.2  -6.3  34166  289.68 0854.59
2009/04/23 15:33:21.6    -327   -386    -78    507    513 220.3  -8.8  34172  289.78 0854.59
2009/04/23 15:33:21.7    -391   -354   -107    528    539 227.8 -11.5  34178  289.87 0854.59
2009/04/23 15:33:21.8    -404   -222   -150    462    486 241.2 -18.1  34156  289.52 0854.59
2009/04/23 15:33:21.9     -51   -291   -241    296    381 190.0 -47.9  34148  289.38 0854.59
2009/04/23 15:33:22.0     -81   -496     -4    503    504 189.4  -0.5  34172  289.76 0854.59
2009/04/23 15:33:22.1      33   -554    -65    556    560 176.5  -6.7  34178  289.89 0854.59
2009/04/23 15:33:22.2      -9   -622      8    623    624 180.9   0.8  34174  289.82 0854.59
2009/04/23 15:33:22.3     -37   -619    -24    621    622 183.5  -2.2  34172  289.79 0854.59
2009/04/23 15:33:22.4     -93   -505     97    514    524 190.5  10.7  34190  290.09 0854.59
2009/04/23 15:33:22.5     129   -661    -35    674    675 168.9  -3.0  34156  289.49 0854.59
2009/04/23 15:33:22.6     100   -689     -6    697    698 171.7  -0.5  34174  289.81 0854.59
2009/04/23 15:33:22.7     233   -725    169    762    781 162.2  12.5  34180  289.91 0854.59
2009/04/23 15:33:22.8      -8   -562    319    563    647 180.9  32.0  34172  289.76 0854.59
2009/04/23 15:33:22.9     138   -559    342    576    669 166.1  33.5  34176  289.84 0854.59
2009/04/23 15:33:23.0     228   -617    403    658    771 159.7  34.4  34196  290.19 0854.59
2009/04/23 15:33:23.1     227   -500    376    550    666 155.6  37.7  34202  290.30 0854.59
2009/04/23 15:33:23.2     244   -500    225    557    600 154.0  23.1  34176  289.85 0854.59
2009/04/23 15:33:23.3     237   -486    156    541    564 154.0  16.1  34154  289.48 0854.59
2009/04/23 15:33:23.4     302   -332    168    449    479 137.7  21.5  34146  289.35 0854.59
2009/04/23 15:33:23.5     212   -312    131    378    401 145.8  19.2  34148  289.37 0854.59
2009/04/23 15:33:23.6     215   -406    178    460    493 152.0  22.4  34138  289.20 0854.59
2009/04/23 15:33:23.7     108   -456    254    469    533 166.6  30.9  34136  289.15 0854.59
2009/04/23 15:33:23.8       0   -466    267    467    537 179.9  32.3  34140  289.22 0854.59
2009/04/23 15:33:23.9      32   -445    229    447    502 175.8  29.2  34144  289.30 0854.59
2009/04/23 15:33:24.0      15   -365    235    366    434 177.5  35.6  34140  289.24 0854.59
2009/04/23 15:33:24.1     -22   -356    239    357    429 183.6  37.2  34142  289.27 0854.59
2009/04/23 15:33:24.2       1   -465    192    466    504 179.8  23.7  34138  289.20 0854.59
2009/04/23 15:33:24.3      34   -541    338    543    639 176.4  34.9  34142  289.25 0854.59
2009/04/23 15:33:24.4      16   -652    219    653    690 178.5  18.6  34132  289.10 0854.59
2009/04/23 15:33:24.5    -121   -646     32    658    659 190.6   2.8  34146  289.32 0854.59
2009/04/23 15:33:24.6    -118   -610     51    622    625 191.0   4.7  34136  289.15 0854.59
2009/04/23 15:33:24.7    -101   -550    -18    560    561 190.5  -1.9  34136  289.16 0854.59
2009/04/23 15:33:24.8    -178   -482    -61    514    518 200.3  -6.9  34136  289.18 0854.59
2009/04/23 15:33:24.9     -94   -383     16    395    396 193.8   2.4  34128  289.03 0854.59
2009/04/23 15:33:25.0      -6   -350     64    351    357 181.0  10.4  34144  289.30 0854.59
2009/04/23 15:33:25.1      35   -179    197    183    268 168.7  52.2  34158  289.53 0854.50
2009/04/23 15:33:25.2      -5   -163    159    164    228 182.0  49.2  34156  289.52 0854.50
2009/04/23 15:33:25.3     -77   -253    235    265    354 197.0  46.2  34152  289.44 0854.50
2009/04/23 15:33:25.4      -8   -235    298    236    380 182.0  57.7  34156  289.52 0854.50
2009/04/23 15:33:25.5     -17   -341    254    342    426 182.9  40.2  34152  289.42 0854.50
2009/04/23 15:33:25.6     -42   -370    220    373    433 186.5  33.4  34154  289.48 0854.50
2009/04/23 15:33:25.7     -29   -328    229    330    401 185.1  38.3  34156  289.52 0854.50
2009/04/23 15:33:25.8     -55   -271    196    277    339 191.6  38.8  34152  289.42 0854.50
2009/04/23 15:33:25.9    -130   -381    186    403    443 199.0  26.5  34148  289.38 0854.50
2009/04/23 15:33:26.0     -86   -320    140    332    360 195.1  24.2  34152  289.42 0854.50
2009/04/23 15:33:26.1    -237   -325    116    403    420 216.1  16.1  34146  289.33 0854.50
2009/04/23 15:33:26.2    -205   -314    146    376    403 213.1  22.3  34150  289.40 0854.50
2009/04/23 15:33:26.3    -189   -227     95    296    311 219.7  17.8  34150  289.41 0854.50
2009/04/23 15:33:26.4    -251   -150     68    293    301 239.1  13.1  34164  289.64 0854.50
2009/04/23 15:33:26.5     -86   -186    242    206    317 204.9  55.4  34150  289.41 0854.50
2009/04/23 15:33:26.6    -170   -432    245    465    525 201.5  30.0  34146  289.32 0854.50
2009/04/23 15:33:26.7    -186   -400    112    442    457 204.9  14.3  34148  289.36 0854.50
2009/04/23 15:33:26.8       4   -307    214    308    375 179.1  38.3  34150  289.40 0854.50
2009/04/23 15:33:26.9     -43   -217    176    222    283 191.3  42.7  34152  289.44 0854.50
2009/04/23 15:33:27.0       7    -18    121     20    122 158.2  90.0  34168  289.72 0854.50
2009/04/23 15:33:27.1     -76     -5    116     77    139 265.6  63.6  34174  289.82 0854.42
2009/04/23 15:33:27.2    -192    -98    107    216    241 243.0  28.2  34178  289.86 0854.42
2009/04/23 15:33:27.3      -3   -205    -57    206    214 180.9 -15.5  34160  289.57 0854.42
2009/04/23 15:33:27.4     -43   -165    -68    171    184 194.9 -27.2  34168  289.72 0854.42
2009/04/23 15:33:27.5     -84   -125    -41    151    157 213.8 -15.4  34160  289.58 0854.42
2009/04/23 15:33:27.6     -13     93    -54     94    108 352.0 -36.8  34170  289.74 0854.42
2009/04/23 15:33:27.7     -42    185    -70    190    202 347.1 -25.4  34180  289.91 0854.42
2009/04/23 15:33:27.8    -107    173     19    204    205 328.1   5.4  34174  289.80 0854.42
2009/04/23 15:33:27.9    -227    178     -5    289    290 308.2  -1.1  34166  289.68 0854.42
2009/04/23 15:33:28.0    -177    210     -1    275    276 319.9  -0.3  34170  289.73 0854.42
2009/04/23 15:33:28.1    -198    211     67    290    298 316.8  13.1  34172  289.76 0854.42
2009/04/23 15:33:28.2    -233    205     89    311    324 311.3  16.0  34178  289.86 0854.42
2009/04/23 15:33:28.3    -265    186     51    324    329 305.1   9.0  34180  289.90 0854.42
2009/04/23 15:33:28.4    -253    183     42    313    316 306.0   7.8  34182  289.93 0854.42
2009/04/23 15:33:28.5    -225    191     30    296    298 310.4   6.0  34178  289.88 0854.42
2009/04/23 15:33:28.6    -217    149     23    264    266 304.6   5.0  34174  289.80 0854.42
2009/04/23 15:33:28.7    -173     80    -47    191    197 294.8 -13.9  34172  289.77 0854.42
2009/04/23 15:33:28.8     -95     31    -50    100    111 288.2 -32.6  34172  289.79 0854.42
2009/04/23 15:33:28.9     -76      5    -31     77     83 274.4 -27.4  34168  289.72 0854.42
2009/04/23 15:33:29.0    -113     46     -3    123    124 292.2  -1.8  34170  289.74 0854.42
2009/04/23 15:33:29.1    -132    -68    -45    149    155 242.5 -22.3  34172  289.77 0854.39
2009/04/23 15:33:29.2    -188   -200    -66    275    283 223.3 -13.7  34172  289.76 0854.39
2009/04/23 15:33:29.3      26   -280   -107    282    301 174.6 -26.1  34160  289.58 0854.39
2009/04/23 15:33:29.4      10   -134    -89    135    161 175.6 -41.1  34164  289.63 0854.39
2009/04/23 15:33:29.5     -53   -149   -107    159    191 199.6 -41.1  34164  289.63 0854.39
2009/04/23 15:33:29.6     -97   -213    -93    235    252 204.5 -27.2  34152  289.42 0854.39
2009/04/23 15:33:29.7    -119   -241    -34    269    272 206.3  -7.3  34158  289.53 0854.39
2009/04/23 15:33:29.8     -82   -176     32    195    198 204.9   9.5  34164  289.63 0854.39
2009/04/23 15:33:29.9      95   -244    115    263    287 158.6  25.1  34156  289.51 0854.39
2009/04/23 15:33:30.0      34   -328    -49    330    334 173.9  -8.6  34152  289.45 0854.39
2009/04/23 15:33:30.1      58   -206     12    215    216 164.2   3.3  34152  289.43 0854.39
2009/04/23 15:33:30.2      33    -70     38     78     86 154.7  27.8  34160  289.58 0854.39
2009/04/23 15:33:30.3      27     -4     85     28     89  99.7  80.7  34172  289.79 0854.39
2009/04/23 15:33:30.4      -7      0    103      8    103 274.4  90.0  34186  290.02 0854.39
2009/04/23 15:33:30.5      46      2     57     47     73  87.4  56.3  34180  289.92 0854.39
2009/04/23 15:33:30.6     -51    128     47    138    146 338.1  18.9  34168  289.72 0854.39
2009/04/23 15:33:30.7     -94    113     88    148    172 320.4  34.0  34182  289.96 0854.39
2009/04/23 15:33:30.8     -26    233    176    235    293 353.5  40.6  34186  290.02 0854.39
2009/04/23 15:33:30.9     -50    264     73    269    279 349.3  15.3  34188  290.03 0854.39
2009/04/23 15:33:31.0     114    114     67    162    175  45.0  23.6  34172  289.79 0854.39
2009/04/23 15:33:31.1      58    113    103    128    164  27.1  43.0  34186  290.02 0854.41
2009/04/23 15:33:31.2      15    139    -98    140    170   6.2 -43.0  34184  289.99 0854.41
2009/04/23 15:33:31.3       2    200    -55    201    208   0.7 -20.0  34196  290.19 0854.41
2009/04/23 15:33:31.4     121    166   -102    206    229  36.1 -32.4  34198  290.21 0854.41
2009/04/23 15:33:31.5     262     87     12    277    278  71.6   2.5  34174  289.81 0854.41
2009/04/23 15:33:31.6     295     31    -21    297    298  83.9  -4.1  34166  289.68 0854.41
2009/04/23 15:33:31.7     230      3     46    231    236  89.1  11.4  34158  289.54 0854.41
2009/04/23 15:33:31.8     151     37     55    156    166  76.1  19.4  34160  289.57 0854.41
2009/04/23 15:33:31.9      92    -92    130    131    184 135.0  50.2  34168  289.70 0854.41
2009/04/23 15:33:32.0      42    -64    106     77    131 146.6  60.5  34174  289.80 0854.41
2009/04/23 15:33:32.1       8   -116     74    117    138 175.6  35.5  34170  289.75 0854.41
2009/04/23 15:33:32.2      87   -120     -1    149    150 144.0  -0.7  34164  289.65 0854.41
2009/04/23 15:33:32.3      31   -160     14    164    165 168.9   5.2  34166  289.69 0854.41
2009/04/23 15:33:32.4     -59   -113    -65    128    143 207.6 -33.6  34162  289.62 0854.41
2009/04/23 15:33:32.5      60   -153   -136    165    213 158.4 -48.1  34180  289.92 0854.41
2009/04/23 15:33:32.6     173    -63   -169    185    250 110.2 -51.5  34178  289.89 0854.41
2009/04/23 15:33:32.7      -4   -298    -99    299    314 180.9 -23.5  34178  289.88 0854.41
2009/04/23 15:33:32.8      -9   -294    -26    295    297 181.8  -5.2  34182  289.93 0854.41
2009/04/23 15:33:32.9     -38   -187    -60    191    201 191.5 -17.6  34184  289.99 0854.41
2009/04/23 15:33:33.0    -105   -105    -75    149    166 225.1 -32.9  34186  290.02 0854.41
2009/04/23 15:33:33.1     -89   -190     32    210    213 205.2   8.8  34182  289.94 0854.42
2009/04/23 15:33:33.2     -28   -105     24    109    112 195.1  12.6  34180  289.91 0854.42
2009/04/23 15:33:33.3      79    -59     68     99    120 126.9  37.6  34202  290.28 0854.42
2009/04/23 15:33:33.4     132     -9     -6    133    134  94.3  -2.6  34184  289.99 0854.42
2009/04/23 15:33:33.5     133    -69    -61    150    161 117.5 -27.8  34174  289.80 0854.42
2009/04/23 15:33:33.6     148   -273    -93    311    325 151.4 -16.8  34168  289.70 0854.42
2009/04/23 15:33:33.7     165   -250    -27    300    302 146.6  -5.2  34168  289.71 0854.42
2009/04/23 15:33:33.8     191   -303    -99    359    373 147.8 -15.5  34152  289.42 0854.42
2009/04/23 15:33:33.9     190   -245    -36    311    314 142.2  -6.7  34152  289.44 0854.42
2009/04/23 15:33:34.0     169   -232     14    288    289 143.9   2.9  34144  289.29 0854.42
2009/04/23 15:33:34.1     205   -359    -13    414    415 150.2  -1.9  34150  289.41 0854.42
2009/04/23 15:33:34.2     181   -297     33    348    350 148.6   5.4  34150  289.40 0854.42
2009/04/23 15:33:34.3     243   -293     33    381    383 140.3   5.0  34152  289.43 0854.42
2009/04/23 15:33:34.4      83   -318    -35    329    331 165.2  -6.1  34158  289.54 0854.42
2009/04/23 15:33:34.5       0   -234    -29    235    237 179.8  -7.2  34160  289.58 0854.42
2009/04/23 15:33:34.6     -70   -236     41    247    251 196.5   9.5  34162  289.61 0854.42
2009/04/23 15:33:34.7     -92   -240     75    258    269 200.9  16.4  34164  289.64 0854.42
2009/04/23 15:33:34.8     -54   -235    104    242    263 192.9  24.6  34166  289.68 0854.42
2009/04/23 15:33:34.9    -128   -271     26    300    302 205.3   5.0  34166  289.68 0854.42
2009/04/23 15:33:35.0     -11   -249     31    250    252 182.7   7.1  34162  289.59 0854.42
2009/04/23 15:33:35.1      60   -289     44    296    300 168.2   8.5  34158  289.54 0854.41
2009/04/23 15:33:35.2      28   -382     63    383    389 175.7   9.4  34158  289.55 0854.41
2009/04/23 15:33:35.3      10   -383     31    384    386 178.4   4.7  34162  289.62 0854.41
2009/04/23 15:33:35.4     -17   -485    -55    486    490 182.1  -6.5  34182  289.96 0854.41
2009/04/23 15:33:35.5      -8   -437    -67    438    444 181.2  -8.7  34186  290.00 0854.41
2009/04/23 15:33:35.6     221   -659   -108    696    705 161.4  -8.8  34150  289.40 0854.41
2009/04/23 15:33:35.7     254   -598      4    650    651 156.9   0.4  34116  288.84 0854.41
2009/04/23 15:33:35.8     176   -343    -16    386    387 152.7  -2.5  34126  288.99 0854.41
2009/04/23 15:33:35.9      45   -365   -132    368    390 172.9 -25.0  34152  289.45 0854.41
2009/04/23 15:33:36.0     148   -445   -240    470    527 161.5 -33.6  34134  289.13 0854.41
2009/04/23 15:33:36.1     -52   -505   -239    508    561 185.9 -31.5  34170  289.74 0854.41
2009/04/23 15:33:36.2     -67   -558   -178    563    591 186.9 -17.6  34166  289.68 0854.41
2009/04/23 15:33:36.3    -132   -562   -113    578    590 193.3 -11.1  34158  289.54 0854.41
2009/04/23 15:33:36.4    -291   -399    -51    495    498 216.1  -6.0  34166  289.69 0854.41
2009/04/23 15:33:36.5    -281   -388    -32    480    482 216.0  -3.9  34162  289.59 0854.41
2009/04/23 15:33:36.6    -225   -359    -56    424    428 212.1  -7.6  34158  289.55 0854.41
2009/04/23 15:33:36.7    -335   -460   -157    570    592 216.1 -15.4  34162  289.61 0854.41
2009/04/23 15:33:36.8    -249   -322   -126    408    428 217.7 -17.2  34148  289.38 0854.41
2009/04/23 15:33:36.9    -161   -383   -173    416    450 202.8 -28.3  34134  289.12 0854.41
2009/04/23 15:33:37.0    -100   -347   -110    362    379 196.1 -17.0  34138  289.20 0854.41
2009/04/23 15:33:37.1    -301   -138    -96    332    346 245.3 -16.2  34156  289.50 0854.38
2009/04/23 15:33:37.2    -277   -152   -107    317    334 241.2 -23.7  34158  289.53 0854.38
2009/04/23 15:33:37.3      75   -233   -136    245    280 162.1 -35.8  34142  289.27 0854.38
2009/04/23 15:33:37.4      78    -73    -86    108    138 133.1 -47.7  34148  289.38 0854.38
2009/04/23 15:33:37.5    -124    -96   -125    158    201 232.2 -46.8  34158  289.55 0854.38
2009/04/23 15:33:37.6    -163    -87   -190    186    265 241.8 -55.1  34186  290.00 0854.38
2009/04/23 15:33:37.7      93   -128    -49    159    166 143.9 -22.3  34142  289.28 0854.38
2009/04/23 15:33:37.8     140   -115    195    182    266 129.3  52.2  34144  289.31 0854.38
2009/04/23 15:33:37.9      48    -40    231     63    239 129.5  84.6  34158  289.53 0854.38
2009/04/23 15:33:38.0      69    -23    118     73    138 108.6  65.1  34156  289.52 0854.38
2009/04/23 15:33:38.1     -46     66    -15     81     83 325.3 -10.9  34162  289.60 0854.38
2009/04/23 15:33:38.2     -56     31   -137     65    151 298.9 -77.3  34164  289.65 0854.38
2009/04/23 15:33:38.3     152   -121   -267    195    330 128.6 -64.8  34158  289.53 0854.38
2009/04/23 15:33:38.4    -328     27   -265    330    423 274.9 -47.4  34158  289.55 0854.38
2009/04/23 15:33:38.5    -195    -33    -68    198    209 260.3 -23.8  34158  289.55 0854.38
2009/04/23 15:33:38.6    -342    -26    -63    343    349 265.6 -10.5  34158  289.54 0854.38
2009/04/23 15:33:38.7    -502   -228   -154    552    573 245.5 -20.2  34158  289.53 0854.38
2009/04/23 15:33:38.8    -375   -289   -169    474    503 232.3 -24.8  34142  289.27 0854.38
2009/04/23 15:33:38.9    -463   -389   -211    605    640 230.0 -24.4  34160  289.57 0854.38
2009/04/23 15:33:39.0    -362   -350   -338    504    606 226.0 -41.5  34130  289.08 0854.38
2009/04/23 15:33:39.1    -372   -331   -253    499    559 228.3 -33.5  34124  288.97 0854.30
2009/04/23 15:33:39.2    -371   -269   -292    459    544 234.0 -39.9  34140  289.22 0854.30
2009/04/23 15:33:39.3    -286   -315   -267    426    502 222.2 -39.5  34142  289.25 0854.30
2009/04/23 15:33:39.4    -244   -179   -197    303    361 233.8 -40.4  34154  289.48 0854.30
2009/04/23 15:33:39.5    -222   -305   -116    378    395 216.1 -22.1  34166  289.67 0854.30
2009/04/23 15:33:39.6    -249   -338   -135    421    442 216.4 -22.9  34154  289.46 0854.30
2009/04/23 15:33:39.7    -143   -348   -134    377    400 202.3 -24.6  34144  289.30 0854.30
2009/04/23 15:33:39.8    -174   -317   -147    362    390 208.9 -27.6  34146  289.35 0854.30
2009/04/23 15:33:39.9    -216   -401    -58    456    460 208.4  -7.3  34144  289.29 0854.30
2009/04/23 15:33:40.0    -275   -388   -134    476    495 215.4 -15.8  34148  289.37 0854.30
2009/04/23 15:33:40.1    -296   -296   -144    420    444 225.0 -23.9  34136  289.17 0854.30
2009/04/23 15:33:40.2    -251   -321   -115    408    423 218.0 -20.4  34146  289.33 0854.30
2009/04/23 15:33:40.3    -239   -239   -101    339    353 225.0 -21.5  34154  289.47 0854.30
2009/04/23 15:33:40.4    -274   -186   -114    332    352 235.8 -19.0  34152  289.45 0854.30
2009/04/23 15:33:40.5    -140   -200     63    245    254 215.0  14.5  34152  289.42 0854.30
2009/04/23 15:33:40.6     -82   -170     22    190    192 205.9   6.9  34148  289.38 0854.30
2009/04/23 15:33:40.7     -84   -128    -55    154    164 213.4 -19.7  34148  289.38 0854.30
2009/04/23 15:33:40.8     -71   -178    -80    192    208 201.9 -28.2  34152  289.43 0854.30
2009/04/23 15:33:40.9     -69   -201    -94    213    232 198.9 -29.6  34146  289.35 0854.30
2009/04/23 15:33:41.0    -124   -252   -164    282    326 206.3 -37.3  34144  289.31 0854.30
2009/04/23 15:33:41.1    -132   -271   -163    302    343 206.1 -35.1  34142  289.25 0854.31
2009/04/23 15:33:41.2    -109   -244   -172    268    318 204.1 -40.1  34142  289.27 0854.31
2009/04/23 15:33:41.3     -90   -250   -152    266    306 200.0 -36.8  34142  289.27 0854.31
2009/04/23 15:33:41.4     -42   -225   -149    230    274 190.7 -40.4  34142  289.25 0854.31
2009/04/23 15:33:41.5      -3   -226   -106    227    250 180.9 -31.4  34146  289.34 0854.31
2009/04/23 15:33:41.6       2   -181   -158    182    241 179.1 -50.0  34144  289.31 0854.31
2009/04/23 15:33:41.7     -11   -146   -133    147    198 184.4 -51.5  34144  289.30 0854.31
2009/04/23 15:33:41.8      69   -166   -123    180    218 157.3 -42.0  34140  289.24 0854.31
2009/04/23 15:33:41.9      15   -196   -143    197    243 175.6 -44.1  34148  289.38 0854.31
2009/04/23 15:33:42.0      42   -233   -107    237    260 169.8 -30.6  34146  289.34 0854.31
2009/04/23 15:33:42.1      37   -152    -45    157    163 166.2 -21.0  34142  289.28 0854.33
2009/04/23 15:33:42.2     -25   -104    -26    108    112 193.8 -13.9  34144  289.31 0854.33
2009/04/23 15:33:42.3       4   -153     -6    154    155 178.2  -2.2  34146  289.33 0854.33
2009/04/23 15:33:42.4     -33   -186      0    190    191 190.2   0.0  34148  289.36 0854.33
2009/04/23 15:33:42.5       5    -67     33     68     75 175.6  27.3  34146  289.35 0854.33
2009/04/23 15:33:42.6     -68    -28      3     74     75 247.4   2.9  34160  289.57 0854.33
2009/04/23 15:33:42.8    -118     -9      0    119    120 265.6   0.2  34168  289.72 0854.33
2009/04/23 15:33:42.8     -38    -14     12     41     43 250.0  17.3  34170  289.75 0854.33
2009/04/23 15:33:42.9      60     34     24     70     75  60.2  19.4  34170  289.74 0854.33
2009/04/23 15:33:43.0     107     22     68    110    129  78.1  35.5  34168  289.70 0854.33
2009/04/23 15:33:43.1      79    117    179    142    228  34.2  57.5  34174  289.80 0854.33
2009/04/23 15:33:43.2     104     67    126    125    177  57.1  50.1  34168  289.70 0854.33
2009/04/23 15:33:43.3     138    -57     11    150    151 112.6   4.4  34160  289.57 0854.33
2009/04/23 15:33:43.4     114      5      7    115    116  87.4   3.8  34160  289.57 0854.33
2009/04/23 15:33:43.5      79      2      7     80     81  88.3   5.4  34156  289.52 0854.33
2009/04/23 15:33:43.7      43     68    -33     81     87  32.5 -27.4  34160  289.57 0854.33
2009/04/23 15:33:43.7     102     58    -33    118    122  60.2 -20.2  34154  289.46 0854.33
2009/04/23 15:33:43.8     112     26    -68    116    134  76.7 -37.9  34154  289.46 0854.33
2009/04/23 15:33:44.0     174     46    -19    181    183  75.0  -6.0  34156  289.52 0854.33
2009/04/23 15:33:44.1     171    100     16    199    200  59.6   4.9  34172  289.79 0854.35
2009/04/23 15:33:44.2     171     99     14    198    199  60.0   4.2  34194  290.16 0854.35
2009/04/23 15:33:44.3     245    116     28    272    274  64.6   6.0  34212  290.44 0854.35
2009/04/23 15:33:44.4     212    114     29    241    243  61.6   6.9  34216  290.51 0854.35
2009/04/23 15:33:44.5     167     76     68    184    196  65.6  21.3  34194  290.16 0854.35
2009/04/23 15:33:44.6     152     51    138    161    212  71.4  45.1  34192  290.11 0854.35
2009/04/23 15:33:44.7      89     55    145    105    179  58.0  60.5  34204  290.31 0854.35
2009/04/23 15:33:44.8      17     17    111     25    113  45.0  88.0  34218  290.57 0854.35
2009/04/23 15:33:44.9      93     18    116     95    149  78.5  56.4  34208  290.38 0854.35
2009/04/23 15:33:45.0     152     49    153    160    221  71.8  48.5  34250  291.09 0854.35
2009/04/23 15:33:45.1     152     93    145    179    230  58.7  43.7  34230  290.75 0854.35
2009/04/23 15:33:45.2     146     94    109    175    206  57.1  35.2  34188  290.06 0854.35
2009/04/23 15:33:45.3     198     97    183    221    286  63.8  43.8  34204  290.32 0854.35
2009/04/23 15:33:45.4      56    275    155    281    320  11.6  31.5  34182  289.95 0854.35
2009/04/23 15:33:45.5      79    251    -19    264    265  17.6  -4.1  34174  289.80 0854.35
2009/04/23 15:33:45.6      32    179    -58    182    191  10.2 -23.3  34194  290.16 0854.35
2009/04/23 15:33:45.7     143    252    -35    291    294  29.6  -6.9  34230  290.76 0854.35
2009/04/23 15:33:45.8      81    236    -35    250    253  19.1  -8.0  34244  291.00 0854.35
2009/04/23 15:33:45.9     157    273     37    315    318  29.9   6.7  34220  290.59 0854.35
2009/04/23 15:33:46.0     251    235     89    345    357  46.9  14.5  34228  290.71 0854.35
2009/04/23 15:33:46.1     310    315    129    443    462  44.5  16.3  34224  290.67 0854.34
2009/04/23 15:33:46.2     209    354     36    412    414  30.6   5.1  34232  290.80 0854.34
2009/04/23 15:33:46.3     237    478    146    534    554  26.4  15.3  34238  290.89 0854.34
2009/04/23 15:33:46.4     289    453    126    538    553  32.6  13.2  34196  290.18 0854.34
2009/04/23 15:33:46.5     349    497    189    608    637  35.1  17.3  34154  289.48 0854.34
2009/04/23 15:33:46.6     329    584    117    671    682  29.4   9.9  34136  289.16 0854.34
2009/04/23 15:33:46.7     253    608    161    659    679  22.6  13.8  34146  289.32 0854.34
2009/04/23 15:33:46.8     211    616    168    652    674  18.9  14.5  34134  289.14 0854.34
2009/04/23 15:33:46.9     175    591    177    617    643  16.5  16.0  34128  289.04 0854.34
2009/04/23 15:33:47.0     189    590    215    620    657  17.8  19.2  34138  289.20 0854.34
2009/04/23 15:33:47.1     186    559    167    590    614  18.5  15.8  34132  289.10 0854.34
2009/04/23 15:33:47.2     196    597    144    629    646  18.2  12.9  34126  288.98 0854.34
2009/04/23 15:33:47.3     187    583    190    613    642  17.8  17.3  34132  289.09 0854.34
2009/04/23 15:33:47.4     231    607    220    650    687  20.9  18.7  34140  289.22 0854.34
2009/04/23 15:33:47.5     341    614     87    703    709  29.0   7.1  34176  289.83 0854.34
2009/04/23 15:33:47.6     188    519    193    553    585  20.0  20.0  34140  289.22 0854.34
2009/04/23 15:33:47.7     301    539     -7    618    619  29.2  -0.7  34228  290.74 0854.34
2009/04/23 15:33:47.8     336    413     50    533    536  39.1   5.4  34270  291.43 0854.34
2009/04/23 15:33:47.9     415    428     84    597    604  44.1   8.0  34308  292.09 0854.34
2009/04/23 15:33:48.0     473    423      1    635    636  48.2   0.1  34232  290.81 0854.34
2009/04/23 15:33:48.1     366    418    109    556    567  41.2  11.1  34134  289.13 0854.32
2009/04/23 15:33:48.2     215    463    183    511    542  24.9  20.4  34140  289.24 0854.32
2009/04/23 15:33:48.3     198    426    170    470    500  24.9  19.9  34164  289.64 0854.32
2009/04/23 15:33:48.4     205    422    122    470    486  26.0  14.6  34152  289.44 0854.32
2009/04/23 15:33:48.5     225    360     82    425    433  32.0  11.0  34164  289.65 0854.32
2009/04/23 15:33:48.6      97    412    136    424    446  13.3  17.8  34138  289.21 0854.32
2009/04/23 15:33:48.7     119    360    139    380    404  18.3  21.0  34146  289.33 0854.32
2009/04/23 15:33:48.8     170    332    197    374    422  27.2  30.1  34184  289.99 0854.32
2009/04/23 15:33:48.9     176    378     87    418    428  25.0  11.8  34302  291.98 0854.32
2009/04/23 15:33:49.0     134    122    163    182    244  47.6  46.4  34316  292.23 0854.32
2009/04/23 15:33:49.1     187    201    218    275    350  43.0  42.4  34272  291.48 0854.32
2009/04/23 15:33:49.2     242    206    294    318    433  49.6  47.7  34254  291.17 0854.32
2009/04/23 15:33:49.3     263     86    212    277    348  71.8  41.3  34174  289.81 0854.32
2009/04/23 15:33:49.4     294    261     35    394    396  48.5   5.1  34270  291.45 0854.32
2009/04/23 15:33:49.5     311    303     92    435    445  45.8  12.0  34274  291.50 0854.32
2009/04/23 15:33:49.6     139    219    176    260    313  32.5  37.6  34264  291.33 0854.32
2009/04/23 15:33:49.7     125    264    152    293    330  25.3  29.5  34270  291.43 0854.32
2009/04/23 15:33:49.8     136    199     35    242    245  34.3   8.2  34302  291.97 0854.32
2009/04/23 15:33:49.9     135    231     63    268    276  30.3  13.2  34328  292.41 0854.32
2009/04/23 15:33:50.0     148    178    107    232    255  39.7  26.4  34340  292.62 0854.32
2009/04/23 15:33:50.1     248    180    144    307    339  54.1  27.0  34314  292.19 0854.32
2009/04/23 15:33:50.2     171    244    170    299    343  35.1  32.0  34280  291.61 0854.32
2009/04/23 15:33:50.3     168    251    198    303    361  33.8  36.2  34238  290.89 0854.32
2009/04/23 15:33:50.4     236     95    187    255    316  68.0  39.9  34314  292.18 0854.32
2009/04/23 15:33:50.5     130    128    157    183    241  45.4  45.1  34258  291.23 0854.32
2009/04/23 15:33:50.6      65    110     76    129    149  30.7  33.5  34216  290.53 0854.32
2009/04/23 15:33:50.7      41    139    108    145    180  16.5  40.4  34208  290.38 0854.32
2009/04/23 15:33:50.8      56    158     69    168    181  19.8  23.4  34178  289.87 0854.32
2009/04/23 15:33:50.9      35     89     62     96    114  21.8  35.6  34210  290.43 0854.32
2009/04/23 15:33:51.0      62    119     26    135    138  27.6  11.1  34194  290.14 0854.32
2009/04/23 15:33:51.1     -21    128     13    130    131 350.7   5.9  34206  290.35 0854.32
2009/04/23 15:33:51.2      78    111     16    136    137  35.2   6.9  34198  290.23 0854.32
2009/04/23 15:33:51.3     127    112     -1    170    171  48.4  -0.5  34228  290.74 0854.32
2009/04/23 15:33:51.4     114    118    -75    165    181  44.1 -30.6  34240  290.92 0854.32
2009/04/23 15:33:51.5      53    160    -60    169    180  18.5 -19.7  34190  290.09 0854.32
2009/04/23 15:33:51.6      32    158    -72    162    177  11.5 -30.1  34168  289.72 0854.32
2009/04/23 15:33:51.7      36    180    -82    184    201  11.6 -29.7  34228  290.74 0854.32
2009/04/23 15:33:51.8       0    172    -68    173    185   0.0 -26.9  34202  290.28 0854.32
2009/04/23 15:33:51.9     -29    139    -56    143    153 348.0 -26.9  34202  290.28 0854.32
2009/04/23 15:33:52.0     -80     72    -34    108    113 312.2 -23.3  34222  290.64 0854.32
2009/04/23 15:33:52.1    -129     42    -13    136    137 288.2  -5.6  34216  290.52 0854.33
2009/04/23 15:33:52.2    -131     26     -6    134    135 281.4  -2.6  34220  290.60 0854.33
2009/04/23 15:33:52.3     -91    -20    -32     94     99 257.6 -23.3  34208  290.40 0854.33
2009/04/23 15:33:52.4     -73    -17    -36     75     83 256.7 -31.6  34206  290.36 0854.33
2009/04/23 15:33:52.5     -45    -48     -6     66     67 223.2  -5.2  34212  290.45 0854.33
2009/04/23 15:33:52.6     -48    -75     11     90     91 213.0   7.5  34208  290.38 0854.33
2009/04/23 15:33:52.7     -66   -120     52    138    147 209.0  21.5  34232  290.81 0854.33
2009/04/23 15:33:52.8     -73   -166     86    182    201 203.8  27.1  34230  290.75 0854.33
2009/04/23 15:33:52.9       1   -160    135    161    210 179.5  44.1  34240  290.92 0854.33
2009/04/23 15:33:53.0     -20   -238    148    239    281 184.9  34.8  34204  290.31 0854.33
2009/04/23 15:33:53.1     -50   -213    129    219    254 193.4  33.4  34198  290.20 0854.33
2009/04/23 15:33:53.2     -39   -211    129    215    250 190.5  34.2  34202  290.27 0854.33
2009/04/23 15:33:53.3     -51   -254    115    260    284 191.5  25.3  34206  290.34 0854.33
2009/04/23 15:33:53.4     158   -343     96    378    391 155.2  14.3  34204  290.32 0854.33
2009/04/23 15:33:53.5     229   -333    144    405    429 145.5  20.4  34218  290.55 0854.33
2009/04/23 15:33:53.6     248   -404    -14    475    476 148.5  -1.8  34196  290.18 0854.33
2009/04/23 15:33:53.7     225   -387      0    448    449 149.8   0.0  34190  290.09 0854.33
2009/04/23 15:33:53.8     177   -368     -9    409    410 154.3  -1.3  34186  290.00 0854.33
2009/04/23 15:33:53.9     101   -300      9    317    318 161.3   1.8  34180  289.92 0854.33
2009/04/23 15:33:54.0      32   -297     20    299    300 173.8   3.9  34186  290.00 0854.33
2009/04/23 15:33:54.1      -2   -241     66    242    251 180.5  15.3  34190  290.07 0854.35
2009/04/23 15:33:54.2     -36   -293    100    296    313 187.1  18.8  34188  290.03 0854.35
2009/04/23 15:33:54.3     -45   -298     84    302    314 188.7  15.6  34190  290.09 0854.35
2009/04/23 15:33:54.4     -85   -334    146    345    374 194.3  24.3  34192  290.11 0854.35
2009/04/23 15:33:54.5     -46   -351    123    355    376 187.6  19.2  34188  290.04 0854.35
2009/04/23 15:33:54.6     -57   -304    104    310    328 190.7  18.6  34186  290.02 0854.35
2009/04/23 15:33:54.7      49   -289    151    294    330 170.2  29.2  34182  289.93 0854.35
2009/04/23 15:33:54.8      87   -287     58    301    307 163.1  11.0  34184  289.98 0854.35
2009/04/23 15:33:54.9     109   -329     51    347    351 161.5   8.5  34174  289.82 0854.35
2009/04/23 15:33:55.0     144   -359     35    388    390 158.1   5.2  34170  289.74 0854.35
2009/04/23 15:33:55.1      51   -310    109    315    334 170.7  19.1  34170  289.73 0854.35
2009/04/23 15:33:55.2     118   -294    163    318    357 158.1  29.3  34168  289.72 0854.35
2009/04/23 15:33:55.3     276   -235     52    363    367 130.4   8.2  34170  289.74 0854.35
2009/04/23 15:33:55.4     193   -248     19    315    316 142.2   3.5  34168  289.71 0854.35
2009/04/23 15:33:55.5       0   -448    156    449    475 180.0  20.0  34176  289.84 0854.35
2009/04/23 15:33:55.6      80   -371     77    380    389 167.7  11.6  34180  289.91 0854.35
2009/04/23 15:33:55.7      48   -463    169    466    495 174.0  20.8  34178  289.86 0854.35
2009/04/23 15:33:55.8       8   -574    120    575    588 179.1  11.8  34178  289.86 0854.35
2009/04/23 15:33:55.9      41   -457    111    459    473 174.8  13.7  34176  289.84 0854.35
2009/04/23 15:33:56.0       5   -462     55    463    467 179.3   6.9  34172  289.76 0854.35
2009/04/23 15:33:56.1     133   -593     90    608    615 167.3   8.5  34166  289.69 0854.39
2009/04/23 15:33:56.2     112   -392     -4    408    409 164.0  -0.6  34162  289.61 0854.39
2009/04/23 15:33:56.3      18   -236    -20    237    238 175.5  -4.9  34172  289.78 0854.39
2009/04/23 15:33:56.4      19   -250    -12    251    252 175.5  -2.8  34170  289.75 0854.39
2009/04/23 15:33:56.5      44   -135     66    143    157 161.7  26.4  34174  289.80 0854.39
2009/04/23 15:33:56.6     105    -93      7    141    142 131.3   2.9  34168  289.72 0854.39
2009/04/23 15:33:56.7     169   -150    -97    227    246 131.6 -29.0  34174  289.80 0854.39
2009/04/23 15:33:56.8      34   -165    -69    169    182 168.2 -27.5  34172  289.79 0854.39
2009/04/23 15:33:56.9     149   -270    -75    309    318 151.1 -13.7  34166  289.66 0854.39
2009/04/23 15:33:57.0     101   -278    -38    297    300 159.9  -7.3  34160  289.58 0854.39
2009/04/23 15:33:57.1      29   -385     69    387    394 175.6  10.1  34180  289.91 0854.39
2009/04/23 15:33:57.2     173   -412     44    448    451 157.2   5.7  34172  289.78 0854.39
2009/04/23 15:33:57.3      -1   -329    222    330    397 180.2  37.2  34192  290.13 0854.39
2009/04/23 15:33:57.4     235   -285    247    370    444 140.5  36.9  34194  290.14 0854.39
2009/04/23 15:33:57.5     306   -203    147    368    396 123.6  23.0  34182  289.96 0854.39
2009/04/23 15:33:57.6     218   -178     24    282    284 129.3   4.9  34182  289.95 0854.39
2009/04/23 15:33:57.7     192   -144    -30    240    242 126.9  -7.2  34176  289.85 0854.39
2009/04/23 15:33:57.8     200   -170    -27    263    265 130.4  -6.0  34180  289.92 0854.39
2009/04/23 15:33:57.9     185   -223     11    290    291 140.4   2.3  34174  289.80 0854.39
2009/04/23 15:33:58.0     144   -225     41    268    272 147.4   8.8  34170  289.75 0854.39
2009/04/23 15:33:58.1      88   -266     35    281    284 161.7   7.1  34158  289.54 0854.40
2009/04/23 15:33:58.2      63   -233     45    242    247 164.9  10.6  34164  289.64 0854.40
2009/04/23 15:33:58.3      62   -151      8    164    165 157.7   2.9  34168  289.70 0854.40
2009/04/23 15:33:58.4      86    -81      1    119    120 133.2   0.8  34174  289.82 0854.40
2009/04/23 15:33:58.5      92   -131     67    161    174 144.8  24.1  34182  289.96 0854.40
2009/04/23 15:33:58.6      89     -1     59     90    107  91.3  35.6  34182  289.96 0854.40
2009/04/23 15:33:58.7      63    -76     80     99    127 140.4  43.3  34184  289.99 0854.40
2009/04/23 15:33:58.8      23   -113     82    116    142 168.4  39.5  34186  290.01 0854.40
2009/04/23 15:33:58.9     -32   -103    126    108    165 197.4  54.8  34184  289.97 0854.40
2009/04/23 15:33:59.0     -19    -83     73     86    112 193.4  44.3  34186  290.02 0854.40
2009/04/23 15:33:59.1       0   -103     56    104    118 180.5  30.8  34184  289.97 0854.40
2009/04/23 15:33:59.2      -7   -164     66    165    177 182.7  23.0  34184  289.99 0854.40
2009/04/23 15:33:59.3     -43   -198     55    203    211 192.3  15.3  34182  289.96 0854.40
2009/04/23 15:33:59.4     -55   -166     15    176    177 198.5   4.9  34184  289.97 0854.40
2009/04/23 15:33:59.5     -52   -162     59    171    182 198.0  19.2  34180  289.92 0854.40
2009/04/23 15:33:59.6     -45   -182    106    188    215 194.0  31.6  34172  289.79 0854.40
2009/04/23 15:33:59.7     -53   -217    149    224    269 193.8  36.5  34160  289.56 0854.40
2009/04/23 15:33:59.8      -7   -234    107    235    258 181.8  26.2  34160  289.58 0854.40
2009/04/23 15:33:59.9      78   -221    -16    235    236 160.6  -4.1  34174  289.81 0854.40
2009/04/23 15:34:00.0     141   -226    -10    267    268 148.1  -2.2  34176  289.85 0854.40
2009/04/23 15:34:00.1     243   -300     23    387    388 141.0   3.5  34172  289.79 0854.42
2009/04/23 15:34:00.2     300   -398     21    499    500 143.0   2.5  34160  289.57 0854.42
2009/04/23 15:34:00.3     263   -373    161    457    484 144.8  20.2  34162  289.62 0854.42
2009/04/23 15:34:00.4     284   -424    138    511    530 146.2  15.2  34154  289.48 0854.42
2009/04/23 15:34:00.5     233   -426    194    486    523 151.3  23.0  34148  289.37 0854.42
2009/04/23 15:34:00.6     142   -413    165    437    467 161.0  21.7  34152  289.44 0854.42
2009/04/23 15:34:00.7      40   -433    244    436    499 174.7  31.6  34152  289.44 0854.42
2009/04/23 15:34:00.8     -23   -493    184    494    527 182.7  21.5  34156  289.50 0854.42
2009/04/23 15:34:00.9     171   -331     57    373    378 152.7   8.7  34162  289.60 0854.42
2009/04/23 15:34:01.0      86   -340     14    351    352 165.7   2.4  34166  289.69 0854.42
2009/04/23 15:34:01.1      11   -338     39    339    342 178.0   6.6  34164  289.64 0854.42
2009/04/23 15:34:01.2      85   -310    127    322    346 164.6  22.8  34132  289.10 0854.42
2009/04/23 15:34:01.3      39   -218    140    222    262 169.8  35.5  34164  289.63 0854.42
2009/04/23 15:34:01.4      23   -216     78    218    231 173.7  20.4  34162  289.62 0854.42
2009/04/23 15:34:01.5       3   -220     75    221    234 179.1  18.9  34168  289.70 0854.42
2009/04/23 15:34:01.6     -31   -304     61    306    313 186.0  11.3  34164  289.63 0854.42
2009/04/23 15:34:01.7     -31   -273    -19    275    276 186.5  -4.1  34168  289.71 0854.42
2009/04/23 15:34:01.8     103   -271    -18    291    292 159.1  -3.7  34162  289.59 0854.42
2009/04/23 15:34:01.9      96   -551   -231    560    605 170.1 -28.1  34164  289.63 0854.42
2009/04/23 15:34:02.0    -197   -185   -176    271    323 226.8 -40.4  34166  289.68 0854.42
2009/04/23 15:34:02.1    -233   -133   -100    269    286 240.2 -25.4  34160  289.58 0854.43
2009/04/23 15:34:02.2    -155   -136    -67    207    217 228.7 -23.3  34164  289.65 0854.43
2009/04/23 15:34:02.3    -226   -187    -58    294    300 230.4 -11.3  34164  289.64 0854.43
2009/04/23 15:34:02.4    -312   -128   -173    338    379 247.7 -33.6  34170  289.74 0854.43
2009/04/23 15:34:02.5    -292   -141   -140    325    353 244.2 -29.3  34162  289.59 0854.43
2009/04/23 15:34:02.6    -223    -24   -153    225    272 263.6 -41.8  34178  289.86 0854.43
2009/04/23 15:34:02.7    -331      4   -129    332    356 270.8 -26.8  34164  289.65 0854.43
2009/04/23 15:34:02.8    -125   -120      8    174    175 226.2   2.8  34158  289.53 0854.43
2009/04/23 15:34:02.9      60   -253    -55    261    267 166.6 -11.9  34166  289.68 0854.43
2009/04/23 15:34:03.0      88   -324    -88    336    348 164.7 -14.8  34172  289.76 0854.43
2009/04/23 15:34:03.1    -143   -113   -203    183    273 231.6 -57.7  34166  289.66 0854.45
2009/04/23 15:34:03.2    -144    -98    -87    175    195 235.6 -32.9  34158  289.53 0854.45
2009/04/23 15:34:03.3    -125   -179     27    219    221 215.0   7.1  34156  289.52 0854.45
2009/04/23 15:34:03.4     -57   -144     23    156    158 201.8   8.5  34158  289.55 0854.45
2009/04/23 15:34:03.5     -22   -100     65    103    121 192.5  35.5  34154  289.48 0854.45
2009/04/23 15:34:03.6      13    -21     54     26     59 147.5  72.8  34158  289.53 0854.45
2009/04/23 15:34:03.7       3    -49     17     50     53 176.4  19.2  34160  289.58 0854.45
2009/04/23 15:34:03.8    -102   -123    122    160    201 219.7  41.4  34160  289.58 0854.45
2009/04/23 15:34:03.9    -237   -195    115    308    328 230.5  21.4  34156  289.49 0854.45
2009/04/23 15:34:04.0    -227   -181    127    291    317 231.4  25.0  34148  289.36 0854.45
2009/04/23 15:34:04.1    -306   -189     89    360    371 238.2  13.9  34146  289.32 0854.45
2009/04/23 15:34:04.2    -224   -182     54    289    294 230.9  10.6  34144  289.31 0854.45
2009/04/23 15:34:04.3    -204   -230    -27    308    310 221.7  -5.1  34140  289.24 0854.45
2009/04/23 15:34:04.4    -163   -257      3    305    306 212.5   0.7  34144  289.29 0854.45
2009/04/23 15:34:04.5    -272   -137    -36    305    308 243.1  -6.9  34148  289.37 0854.45
2009/04/23 15:34:04.6      17   -218     -8    219    220 175.5  -2.2  34152  289.45 0854.45
2009/04/23 15:34:04.7      71   -255    -84    265    279 164.4 -17.6  34154  289.46 0854.45
2009/04/23 15:34:04.8     -89   -477    -63    486    491 190.6  -7.5  34146  289.34 0854.45
2009/04/23 15:34:04.9    -599   -572   -272    829    872 226.3 -23.3  34150  289.39 0854.45
2009/04/23 15:34:05.0    -519   -650   -198    832    856 218.6 -13.4  34144  289.31 0854.45
2009/04/23 15:34:05.1    -544   -357   -205    651    683 236.7 -17.5  34164  289.63 0854.48
2009/04/23 15:34:05.2    -399   -530     95    664    671 217.0   8.2  34148  289.36 0854.48
2009/04/23 15:34:05.3    -402   -557   -160    688    707 215.8 -13.1  34136  289.18 0854.48
2009/04/23 15:34:05.4    -578   -598   -237    832    865 224.0 -20.7  34138  289.19 0854.48
2009/04/23 15:34:05.5    -641   -821   -327   1042   1093 218.0 -17.4  34142  289.27 0854.48
2009/04/23 15:34:05.6    -495   -253     27    556    557 242.9   2.8  34158  289.53 0854.48
2009/04/23 15:34:05.7    -341   -340     -5    482    483 225.1  -0.7  34156  289.49 0854.48
2009/04/23 15:34:05.8    -237   -100   -163    258    305 247.2 -39.9  34154  289.47 0854.48
2009/04/23 15:34:05.9     -56   -275    -92    281    296 191.6 -18.3  34146  289.32 0854.48
2009/04/23 15:34:06.0      77   -414      6    422    423 169.4   0.8  34150  289.41 0854.48
2009/04/23 15:34:06.1     139   -559    -31    577    578 166.0  -3.1  34150  289.41 0854.48
2009/04/23 15:34:06.2     203   -862    -94    886    892 166.7  -6.1  34150  289.40 0854.48
2009/04/23 15:34:06.3     346   -913     12    977    978 159.2   0.7  34152  289.43 0854.48
2009/04/23 15:34:06.5     341   -667   -191    750    774 152.9 -14.3  34160  289.56 0854.48
2009/04/23 15:34:06.5     209  -1222    263   1240   1268 170.3  12.0  34144  289.31 0854.48
2009/04/23 15:34:06.6     391   -895    116    977    984 156.4   6.8  34132  289.09 0854.48
2009/04/23 15:34:06.7     235   -800    -71    834    838 163.6  -4.9  34158  289.54 0854.48
2009/04/23 15:34:06.8     310   -947   -128    997   1006 161.9  -7.3  34158  289.54 0854.48
2009/04/23 15:34:06.9      27   -889    -34    890    891 178.2  -2.2  34166  289.66 0854.48
2009/04/23 15:34:07.0     -58  -1018    -44   1020   1021 183.3  -2.5  34136  289.18 0854.48
2009/04/23 15:34:07.1     -67  -1066    -85   1069   1073 183.6  -4.6  34124  288.95 0854.49
2009/04/23 15:34:07.2    -199  -1007    -73   1027   1030 191.2  -4.1  34146  289.33 0854.49
2009/04/23 15:34:07.3    -212   -739     91    769    775 196.0   6.8  34152  289.44 0854.49
2009/04/23 15:34:07.4    -532   -844   -120    998   1006 212.2  -6.9  34134  289.12 0854.49
2009/04/23 15:34:07.5    -542   -760   -334    934    993 215.5 -19.7  34126  289.01 0854.49
2009/04/23 15:34:07.7    -490   -806   -155    944    957 211.3  -9.3  34136  289.15 0854.49
2009/04/23 15:34:07.7    -288  -1062   -229   1101   1125 195.2 -11.8  34140  289.22 0854.49
2009/04/23 15:34:07.8     -66   -867   -233    870    901 184.4 -15.1  34134  289.13 0854.49
2009/04/23 15:34:07.9    -399   -948   -228   1029   1055 202.8 -12.5  34142  289.26 0854.49
2009/04/23 15:34:08.0    -136  -1065    -37   1074   1075 187.3  -2.0  34118  288.85 0854.49
2009/04/23 15:34:08.1     -94   -886     69    892    895 186.1   4.5  34114  288.79 0854.49
2009/04/23 15:34:08.2    -157   -808     89    824    829 191.0   6.2  34128  289.03 0854.49
2009/04/23 15:34:08.3    -157   -605    447    626    769 194.6  39.1  34130  289.05 0854.49
2009/04/23 15:34:08.4    -182   -578    668    607    902 197.5  53.3  34138  289.20 0854.49
2009/04/23 15:34:08.5    -394   -617    536    733    908 212.6  39.8  34118  288.85 0854.49
2009/04/23 15:34:08.6    -272   -720    407    770    870 200.7  30.1  34136  289.15 0854.49
2009/04/23 15:34:08.7    -372   -735    332    824    888 206.9  23.1  34140  289.22 0854.49
2009/04/23 15:34:08.9    -218   -479    426    527    677 204.5  43.1  34138  289.21 0854.49
2009/04/23 15:34:08.9     -37   -689    303    691    754 183.1  25.2  34132  289.11 0854.49
2009/04/23 15:34:09.0    -248   -684    228    728    764 200.0  17.4  34112  288.77 0854.49
2009/04/23 15:34:09.1    -272   -576    147    638    655 205.3  13.0  34116  288.84 0854.48
2009/04/23 15:34:09.2    -125   -391    297    411    507 197.8  39.5  34130  289.06 0854.48
2009/04/23 15:34:09.3    -122   -549    234    563    609 192.6  23.9  34132  289.10 0854.48
2009/04/23 15:34:09.4     -95   -609    259    617    669 188.9  24.2  34130  289.06 0854.48
2009/04/23 15:34:09.5    -114   -694    373    704    796 189.4  30.2  34152  289.43 0854.48
2009/04/23 15:34:09.6    -198   -691    321    719    787 196.0  25.7  34150  289.40 0854.48
2009/04/23 15:34:09.7    -132   -653    286    667    725 191.5  24.6  34138  289.20 0854.48
2009/04/23 15:34:09.8    -151   -666     64    683    687 192.8   5.4  34144  289.31 0854.48
2009/04/23 15:34:10.0     -89   -695     79    701    706 187.4   6.5  34132  289.11 0854.48
2009/04/23 15:34:10.1     -13   -613     46    614    616 181.3   4.3  34130  289.08 0854.48
2009/04/23 15:34:10.2     -68   -534   -160    539    563 187.3 -16.5  34136  289.18 0854.48
2009/04/23 15:34:10.3     120   -481    -59    496    500 165.9  -6.9  34130  289.05 0854.48
2009/04/23 15:34:10.4      82   -495    247    502    559 170.6  28.2  34130  289.06 0854.48
2009/04/23 15:34:10.5      -4   -357    -59    358    363 180.7  -9.4  34118  288.86 0854.48
2009/04/23 15:34:10.6     234    -61     58    242    249 104.6  13.5  34134  289.12 0854.48
2009/04/23 15:34:10.7     -32   -225    122    228    258 188.1  30.6  34138  289.20 0854.48
2009/04/23 15:34:10.8     -41   -266     81    270    283 188.9  16.8  34136  289.17 0854.48
2009/04/23 15:34:10.9    -145   -304    178    337    381 205.5  30.1  34136  289.18 0854.48
2009/04/23 15:34:11.0    -370   -211    140    427    450 240.3  18.1  34138  289.21 0854.48
2009/04/23 15:34:11.1    -265   -209    357    338    491 231.8  52.0  34136  289.16 0854.48
2009/04/23 15:34:11.2    -234   -356    349    427    551 213.4  43.5  34142  289.28 0854.48
2009/04/23 15:34:11.3    -545   -382    244    666    709 235.0  21.0  34168  289.71 0854.48
2009/04/23 15:34:11.4    -638   -283     88    698    704 246.1   7.2  34156  289.50 0854.48
2009/04/23 15:34:11.5    -630   -163   -111    651    661 255.5  -9.7  34142  289.27 0854.48
2009/04/23 15:34:11.6    -442   -128    104    461    473 253.9  12.8  34136  289.18 0854.48
2009/04/23 15:34:11.7    -475   -104    -55    487    491 257.6  -6.5  34182  289.96 0854.48
2009/04/23 15:34:11.8    -746    -24   -162    747    765 268.1 -12.3  34170  289.75 0854.48
2009/04/23 15:34:11.9    -468   -239    -46    526    529 242.9  -5.1  34150  289.40 0854.48
2009/04/23 15:34:12.0    -439   -361   -156    569    591 230.5 -15.4  34154  289.47 0854.48
2009/04/23 15:34:12.1    -642   -287   -102    704    712 245.9  -8.3  34142  289.25 0854.48
2009/04/23 15:34:12.2    -863   -254   -219    900    927 253.6 -13.7  34112  288.77 0854.48
2009/04/23 15:34:12.3    -831   -300   -197    884    906 250.1 -12.6  34116  288.84 0854.48
2009/04/23 15:34:12.4    -759   -366   -236    843    876 244.2 -15.7  34102  288.60 0854.48
2009/04/23 15:34:12.5    -450   -387   -192    594    624 229.3 -23.0  34110  288.72 0854.48
2009/04/23 15:34:12.6    -600   -498   -229    780    813 230.3 -16.4  34112  288.76 0854.48
2009/04/23 15:34:12.7    -686   -583   -241    901    933 229.6 -15.0  34104  288.63 0854.48
2009/04/23 15:34:12.8    -712   -335   -272    787    832 244.8 -24.1  34112  288.77 0854.48
2009/04/23 15:34:12.9    -642   -513   -228    822    853 231.4 -20.1  34140  289.24 0854.48
2009/04/23 15:34:13.0    -689   -159   -155    708    725 257.0 -12.4  34136  289.17 0854.48
2009/04/23 15:34:13.1    -324   -631    110    710    719 207.2   8.8  34132  289.10 0854.48
2009/04/23 15:34:13.2    -417   -313     -2    522    523 233.1  -0.3  34118  288.87 0854.49
2009/04/23 15:34:13.3    -482   -238   -211    538    577 243.7 -26.9  34124  288.96 0854.49
2009/04/23 15:34:13.4    -231   -436    -62    494    498 208.0  -7.2  34126  289.01 0854.49
2009/04/23 15:34:13.5    -131   -439   -146    459    481 196.6 -22.8  34126  288.98 0854.49
2009/04/23 15:34:13.6      17   -315   -103    316    333 176.8 -18.0  34100  288.54 0854.49
2009/04/23 15:34:13.7    -136   -314     31    343    345 203.4   5.3  34130  289.06 0854.49
2009/04/23 15:34:13.8    -147   -321    -27    354    355 204.6  -4.4  34136  289.15 0854.49
2009/04/23 15:34:13.9    -146   -340    -34    371    373 203.3  -5.3  34136  289.16 0854.49
2009/04/23 15:34:14.0    -135   -354     23    380    381 200.9   3.5  34138  289.21 0854.49
2009/04/23 15:34:14.1    -132   -277     27    307    309 205.5   5.2  34140  289.22 0854.49
2009/04/23 15:34:14.2    -129   -175    -77    218    232 216.3 -19.6  34142  289.26 0854.49
2009/04/23 15:34:14.3     -49   -182    -61    189    198 195.2 -23.0  34138  289.21 0854.49
2009/04/23 15:34:14.4      -7   -167    -95    168    193 182.5 -36.5  34138  289.21 0854.49
2009/04/23 15:34:14.5     120   -180   -166    217    273 146.4 -45.6  34134  289.14 0854.49
2009/04/23 15:34:14.6     113   -209   -156    238    284 151.5 -40.9  34144  289.31 0854.49
2009/04/23 15:34:14.7     167    -98    -82    194    210 120.4 -28.7  34132  289.11 0854.49
2009/04/23 15:34:14.8     179    -26    -90    181    202  98.4 -32.6  34136  289.18 0854.49
2009/04/23 15:34:14.9     253     36   -140    256    291  81.9 -35.7  34130  289.05 0854.49
2009/04/23 15:34:15.0     275   -124   -218    302    372 114.4 -43.9  34128  289.03 0854.49
2009/04/23 15:34:15.1     264    -26   -147    266    303  95.7 -35.7  34130  289.07 0854.49
2009/04/23 15:34:15.2     120    -40   -258    127    287 108.6 -76.3  34126  288.98 0854.47
2009/04/23 15:34:15.3     200   -106   -197    227    300 118.0 -50.2  34112  288.75 0854.47
2009/04/23 15:34:15.4     408   -109   -138    423    444 105.0 -23.2  34112  288.77 0854.47
2009/04/23 15:34:15.5     406   -161     17    438    439 111.7   2.2  34118  288.87 0854.47
2009/04/23 15:34:15.6     341   -153     73    374    382 114.2  11.1  34120  288.88 0854.47
2009/04/23 15:34:15.7     269   -195    173    333    375 126.0  29.6  34118  288.86 0854.47
2009/04/23 15:34:15.8     245   -307    249    393    465 141.4  35.5  34136  289.16 0854.47
2009/04/23 15:34:15.9      81   -318    206    329    388 165.6  35.3  34136  289.15 0854.47
2009/04/23 15:34:16.0     -39   -198    179    202    269 191.3  45.9  34132  289.09 0854.47
2009/04/23 15:34:16.1      62      0    190     63    200  89.2  80.7  34160  289.57 0854.47
2009/04/23 15:34:16.2     184      2    170    185    251  89.2  47.5  34148  289.38 0854.47
2009/04/23 15:34:16.3     -15     54    141     57    152 344.0  77.1  34168  289.70 0854.47
2009/04/23 15:34:16.4     -90    152    128    177    218 329.3  39.5  34168  289.70 0854.47
2009/04/23 15:34:16.5     -84    202     83    220    235 337.3  21.5  34156  289.52 0854.47
2009/04/23 15:34:16.6    -246     -7    142    247    284 268.3  32.4  34136  289.15 0854.47
2009/04/23 15:34:16.7    -320      9     92    321    334 271.7  16.0  34138  289.21 0854.47
2009/04/23 15:34:16.8    -278    -18    128    279    306 266.3  26.4  34164  289.63 0854.47
2009/04/23 15:34:16.9      14    -99    154    101    184 172.0  64.1  34168  289.72 0854.47
2009/04/23 15:34:17.0    -112   -176    168    209    268 212.5  43.0  34176  289.85 0854.47
2009/04/23 15:34:17.1    -184   -152    127    239    270 230.4  30.3  34168  289.71 0854.50
2009/04/23 15:34:17.2     -59    -74     53     95    108 218.7  31.4  34170  289.75 0854.50
2009/04/23 15:34:17.3    -128   -216    211    252    328 210.7  44.2  34172  289.76 0854.50
2009/04/23 15:34:17.4    -234   -204    219    311    380 228.9  38.6  34178  289.86 0854.50
2009/04/23 15:34:17.5    -140    -47    -22    148    150 251.4  -8.8  34178  289.87 0854.50
2009/04/23 15:34:17.6    -261      0    -72    262    272 270.0 -15.5  34138  289.19 0854.50
2009/04/23 15:34:17.7    -387     67    -27    393    394 279.9  -4.0  34148  289.38 0854.50
2009/04/23 15:34:17.8    -269    148    127    308    333 298.9  23.6  34168  289.70 0854.50
2009/04/23 15:34:17.9    -234    130    117    269    293 299.1  25.1  34188  290.05 0854.50
2009/04/23 15:34:18.0    -101    147     75    179    194 325.3  23.8  34194  290.14 0854.50
2009/04/23 15:34:18.1    -185    131     70    227    238 305.3  17.3  34188  290.03 0854.50
2009/04/23 15:34:18.2    -301    114     53    322    327 290.8   9.4  34192  290.12 0854.50
2009/04/23 15:34:18.3    -169    194     90    258    274 318.8  19.2  34194  290.14 0854.50
2009/04/23 15:34:18.4    -237    190     85    305    317 308.7  15.6  34188  290.03 0854.50
2009/04/23 15:34:18.5    -132    207    -43    246    250 327.5 -10.1  34192  290.10 0854.50
2009/04/23 15:34:18.6    -177    302     81    351    361 329.6  13.1  34192  290.13 0854.50
2009/04/23 15:34:18.7    -249    216      6    330    331 310.9   1.1  34192  290.11 0854.50
2009/04/23 15:34:18.8    -264    365    131    451    470 324.0  16.3  34184  289.99 0854.50
2009/04/23 15:34:18.9    -193    281    -49    341    345 325.5  -8.2  34094  288.47 0854.50
2009/04/23 15:34:19.0    -343    279   -149    443    467 309.1 -23.3  34098  288.53 0854.50
2009/04/23 15:34:19.1    -409    129   -145    430    455 287.6 -18.7  34102  288.58 0854.55
2009/04/23 15:34:19.2    -338    377    -58    507    511 318.1  -6.6  34102  288.59 0854.55
2009/04/23 15:34:19.3    -419    275   -178    502    533 303.3 -19.6  34112  288.77 0854.55
2009/04/23 15:34:19.4    -492    163   -170    519    547 288.4 -18.2  34110  288.72 0854.55
2009/04/23 15:34:19.5    -494    233   -236    547    595 295.2 -29.4  34100  288.54 0854.55
2009/04/23 15:34:19.6    -523    320   -251    614    663 301.5 -27.9  34120  288.91 0854.55
2009/04/23 15:34:19.7    -491    240   -171    547    573 296.1 -22.4  34164  289.63 0854.55
2009/04/23 15:34:19.8    -563    425   -128    706    718 307.1 -10.3  34196  290.17 0854.55
2009/04/23 15:34:19.9    -499    300   -176    583    608 301.0 -21.7  34156  289.51 0854.55
2009/04/23 15:34:20.0    -473    234   -283    528    599 296.4 -34.7  34138  289.19 0854.55
2009/04/23 15:34:20.1    -429    349   -191    554    587 309.1 -19.1  34180  289.91 0854.55
2009/04/23 15:34:20.2    -349    275    -75    445    452 308.2  -9.6  34152  289.43 0854.55
2009/04/23 15:34:20.3    -259    285    104    386    400 317.8  15.2  34152  289.42 0854.55
2009/04/23 15:34:20.4    -290    232    -52    372    376 308.8  -8.0  34154  289.47 0854.55
2009/04/23 15:34:20.5     -70     71    101    100    142 315.5  50.1  34146  289.33 0854.55
2009/04/23 15:34:20.6      74     67    164    101    192  47.8  65.1  34152  289.43 0854.55
2009/04/23 15:34:20.7     -15    320      5    321    322 357.3   1.0  34150  289.41 0854.55
2009/04/23 15:34:20.8       8    209    -40    210    214   2.2 -10.9  34152  289.43 0854.55
2009/04/23 15:34:20.9     -98    -48     79    110    135 243.8  39.1  34160  289.57 0854.55
2009/04/23 15:34:21.0     -85    -40     99     95    137 244.7  51.6  34160  289.58 0854.55
2009/04/23 15:34:21.1     -21   -123    115    125    169 189.8  47.5  34202  290.30 0854.53
2009/04/23 15:34:21.2     -91     40    160    100    188 294.0  64.7  34196  290.19 0854.53
2009/04/23 15:34:21.3    -182    100    222    208    304 298.9  52.1  34202  290.27 0854.53
2009/04/23 15:34:21.4     -49     60    156     78    174 320.3  71.7  34212  290.47 0854.53
2009/04/23 15:34:21.5     145      0    108    146    181  90.0  40.1  34204  290.31 0854.53
2009/04/23 15:34:21.6     157    -31    249    161    296 101.4  64.4  34180  289.90 0854.53
2009/04/23 15:34:21.7      28      9    233     30    234  71.4  90.0  34206  290.35 0854.53
2009/04/23 15:34:21.8      98     46    201    109    228  64.6  69.1  34200  290.25 0854.53
2009/04/23 15:34:21.9      13     28    211     32    213  25.3  90.0  34202  290.30 0854.53
2009/04/23 15:34:22.0     118    -68    240    137    276 120.2  67.8  34176  289.83 0854.53
2009/04/23 15:34:22.1     115   -241    255    268    369 154.5  48.6  34162  289.62 0854.53
2009/04/23 15:34:22.2     169   -370    313    408    514 155.4  41.3  34156  289.52 0854.53
2009/04/23 15:34:22.3      59   -328    315    334    459 169.7  48.0  34170  289.73 0854.53
2009/04/23 15:34:22.4      70   -322    299    330    445 167.7  46.9  34162  289.60 0854.53
2009/04/23 15:34:22.5     144    -99    154    175    233 124.6  45.9  34166  289.67 0854.53
2009/04/23 15:34:22.6     211   -330    256    392    468 147.4  36.3  34148  289.36 0854.53
2009/04/23 15:34:22.7     120   -337    307    358    471 160.3  45.0  34160  289.58 0854.53
2009/04/23 15:34:22.8     -15   -332    412    333    529 182.6  57.0  34170  289.73 0854.53
2009/04/23 15:34:22.9     -55   -468    314    472    566 186.7  36.7  34168  289.72 0854.53
2009/04/23 15:34:23.0     -98   -490    287    500    576 191.3  32.4  34168  289.72 0854.53
2009/04/23 15:34:23.1    -153   -444     96    470    480 199.1  11.6  34156  289.52 0854.51
2009/04/23 15:34:23.2     -94   -344    -78    357    366 195.4 -12.4  34172  289.76 0854.51
2009/04/23 15:34:23.3     -73   -325   -109    334    351 192.8 -23.2  34166  289.67 0854.51
2009/04/23 15:34:23.4     -95   -440    -60    451    455 192.3  -7.6  34154  289.46 0854.51
2009/04/23 15:34:23.5      -8   -438     24    439    440 181.1   3.2  34150  289.41 0854.51
2009/04/23 15:34:23.6     132   -354    117    378    396 159.5  17.3  34154  289.47 0854.51
2009/04/23 15:34:23.7      61   -319    235    325    401 169.1  39.5  34156  289.52 0854.51
2009/04/23 15:34:23.8     182   -235    154    298    335 142.2  29.5  34142  289.25 0854.51
2009/04/23 15:34:23.9     118   -221     16    251    252 151.9   3.8  34134  289.14 0854.51
2009/04/23 15:34:24.0      90   -300    -75    314    323 163.3 -13.6  34142  289.25 0854.51
2009/04/23 15:34:24.1    -104   -280   -135    300    328 200.5 -30.3  34142  289.27 0854.51
2009/04/23 15:34:24.2    -105   -357     -3    373    374 196.4  -0.6  34152  289.45 0854.51
2009/04/23 15:34:24.3     -89   -258    -83    273    286 199.1 -17.0  34152  289.42 0854.51
2009/04/23 15:34:24.4     -58   -225     29    233    235 194.5   7.1  34152  289.44 0854.51
2009/04/23 15:34:24.5     -55   -396     -6    400    401 187.9  -0.9  34154  289.48 0854.51
2009/04/23 15:34:24.6     -23   -430    -50    431    434 183.2  -6.7  34134  289.14 0854.51
2009/04/23 15:34:24.7     -61   -529    -38    533    535 186.6  -4.1  34116  288.82 0854.51
2009/04/23 15:34:24.8      18   -597    -63    598    602 178.2  -6.1  34116  288.81 0854.51
2009/04/23 15:34:24.9     -34   -515     15    517    518 183.8   1.7  34116  288.83 0854.51
2009/04/23 15:34:25.0     -18   -523     11    524    525 182.0   1.2  34118  288.85 0854.51
2009/04/23 15:34:25.1     -23   -497     42    498    500 182.7   4.9  34116  288.84 0854.51
2009/04/23 15:34:25.2     -28   -411     88    412    422 183.9  12.2  34116  288.82 0854.51
2009/04/23 15:34:25.3    -160   -288   -119    330    350 209.2 -24.8  34110  288.74 0854.51
2009/04/23 15:34:25.4     -27   -177   -218    180    282 188.7 -60.8  34108  288.68 0854.51
2009/04/23 15:34:25.5     -32   -333   -153    335    368 185.6 -30.8  34110  288.71 0854.51
2009/04/23 15:34:25.6     -66   -332    -98    339    352 191.4 -20.9  34110  288.74 0854.51
2009/04/23 15:34:25.7    -214   -228   -124    314    337 223.2 -27.2  34110  288.71 0854.51
2009/04/23 15:34:25.8    -408   -239   -151    473    497 239.6 -17.7  34118  288.86 0854.51
2009/04/23 15:34:25.9    -403   -184   -180    444    479 245.4 -27.9  34118  288.86 0854.51
2009/04/23 15:34:26.0    -414    -12     42    415    418 268.3   5.9  34124  288.95 0854.51
2009/04/23 15:34:26.1    -264   -257      4    369    370 225.7   0.7  34116  288.82 0854.42
2009/04/23 15:34:26.2    -188   -394     25    437    438 205.6   3.3  34112  288.75 0854.42
2009/04/23 15:34:26.3    -287   -274    -80    398    406 226.3 -11.5  34120  288.90 0854.42
2009/04/23 15:34:26.4    -249   -338   -167    421    452 216.4 -27.4  34110  288.72 0854.42
2009/04/23 15:34:26.5    -257   -237   -114    350    369 227.4 -18.1  34116  288.82 0854.42
2009/04/23 15:34:26.6    -207   -200    -52    288    293 226.0 -10.3  34120  288.88 0854.42
2009/04/23 15:34:26.7    -169   -168    -72    239    250 225.3 -16.8  34118  288.85 0854.42
2009/04/23 15:34:26.8    -151   -196   -102    248    268 217.6 -28.0  34120  288.88 0854.42
2009/04/23 15:34:26.9    -242   -275   -176    367    407 221.4 -31.7  34116  288.81 0854.42
2009/04/23 15:34:27.0    -295   -243   -189    383    427 230.5 -32.6  34118  288.87 0854.42
2009/04/23 15:34:27.1    -306   -496   -129    583    598 211.7 -12.5  34114  288.80 0854.42
2009/04/23 15:34:27.2    -180   -484   -157    517    540 200.5 -21.8  34120  288.89 0854.42
2009/04/23 15:34:27.3    -168   -474   -138    503    522 199.5 -15.4  34126  289.00 0854.42
2009/04/23 15:34:27.4    -245   -409   -138    477    496 210.9 -20.9  34126  289.01 0854.42
2009/04/23 15:34:27.5    -226   -480   -158    531    555 205.2 -16.6  34126  289.01 0854.42
2009/04/23 15:34:27.6    -236   -441   -200    501    539 208.1 -27.4  34132  289.09 0854.42
2009/04/23 15:34:27.7     -51   -507    -19    510    511 185.8  -2.2  34120  288.88 0854.42
2009/04/23 15:34:27.8      47   -670     55    672    675 176.0   4.7  34120  288.88 0854.42
2009/04/23 15:34:27.9       9   -605    186    606    634 179.1  17.1  34134  289.13 0854.42
2009/04/23 15:34:28.0     148   -432    159    457    484 161.1  19.2  34122  288.93 0854.42
2009/04/23 15:34:28.1     318   -418    144    526    546 142.7  15.3  34124  288.97 0854.41
2009/04/23 15:34:28.2     249   -233    307    342    459 133.1  46.5  34126  288.99 0854.41
2009/04/23 15:34:28.3     103   -428     35    441    443 166.5   4.6  34124  288.95 0854.41
2009/04/23 15:34:28.4     -55   -328    -66    333    340 189.6 -11.3  34124  288.96 0854.41
2009/04/23 15:34:28.5    -128   -269    -87    299    311 205.5 -21.2  34126  288.98 0854.41
2009/04/23 15:34:28.6    -181    -61   -155    192    246 251.2 -47.7  34124  288.97 0854.41
2009/04/23 15:34:28.7     122    -46     -7    131    132 110.8  -3.1  34122  288.94 0854.41
2009/04/23 15:34:28.8     179     -6    213    180    278  92.1  55.6  34126  289.00 0854.41
2009/04/23 15:34:28.9    -113      3    212    114    240 271.7  69.6  34150  289.40 0854.41
2009/04/23 15:34:29.0    -258    -64    214    266    341 255.9  43.1  34132  289.09 0854.41
2009/04/23 15:34:29.1    -223   -100    143    245    283 245.8  33.1  34132  289.09 0854.41
2009/04/23 15:34:29.2    -208    -45     84    213    228 257.6  22.8  34134  289.14 0854.41
2009/04/23 15:34:29.3    -285    -34    -19    288    289 263.0  -3.9  34132  289.09 0854.41
2009/04/23 15:34:29.4    -317     -8   -122    318    340 268.5 -26.6  34138  289.20 0854.41
2009/04/23 15:34:29.5    -335     15    -99    336    350 272.6 -21.4  34146  289.35 0854.41
2009/04/23 15:34:29.6    -263    -59    -91    270    284 257.2 -23.3  34138  289.20 0854.41
2009/04/23 15:34:29.7    -282    -40     13    285    286 261.9   2.8  34132  289.09 0854.41
2009/04/23 15:34:29.8    -291   -116   -128    314    339 248.3 -27.8  34140  289.23 0854.41
2009/04/23 15:34:29.9    -385   -126   -149    406    432 251.8 -25.4  34146  289.34 0854.41
2009/04/23 15:34:30.0    -274   -150   -128    313    338 241.2 -27.8  34150  289.40 0854.41
2009/04/23 15:34:30.1    -286    -66    -86    294    307 257.0 -16.4  34144  289.29 0854.40
2009/04/23 15:34:30.2     -65   -196     30    207    210 198.5   8.2  34138  289.21 0854.40
2009/04/23 15:34:30.3       4   -265    178    266    320 179.1  36.9  34144  289.31 0854.40
2009/04/23 15:34:30.4     -44   -388     -8    391    392 186.5  -1.3  34146  289.33 0854.40
2009/04/23 15:34:30.5     104   -384    -45    398    401 164.8  -6.6  34142  289.25 0854.40
2009/04/23 15:34:30.6      20   -441   -122    442    459 177.4 -15.5  34146  289.33 0854.40
2009/04/23 15:34:30.7      78   -338   -118    348    368 166.9 -18.8  34160  289.57 0854.40
2009/04/23 15:34:30.8    -222   -327     11    396    397 214.3   1.6  34142  289.26 0854.40
2009/04/23 15:34:30.9    -130   -243     70    276    285 208.1  14.3  34150  289.39 0854.40
2009/04/23 15:34:31.0     -79   -230    143    244    282 198.9  33.4  34152  289.44 0854.40
2009/04/23 15:34:31.1     -77   -230    122    243    271 198.7  28.5  34160  289.56 0854.40
2009/04/23 15:34:31.2       1   -183    131    184    225 179.5  39.3  34164  289.65 0854.40
2009/04/23 15:34:31.3      19   -215    122    216    248 174.9  32.1  34162  289.59 0854.40
2009/04/23 15:34:31.4      59   -267    183    274    329 167.5  36.7  34160  289.56 0854.40
2009/04/23 15:34:31.5      23   -330    199    331    386 176.0  33.8  34158  289.55 0854.40
2009/04/23 15:34:31.6     -51   -427    147    431    456 186.8  18.9  34160  289.56 0854.40
2009/04/23 15:34:31.7       0   -338    198    339    392 180.0  32.9  34162  289.59 0854.40
2009/04/23 15:34:31.8      33   -338     14    340    341 174.4   2.4  34162  289.59 0854.40
2009/04/23 15:34:31.9     -34   -314    -67    316    324 186.2 -12.0  34156  289.51 0854.40
2009/04/23 15:34:32.0     -51   -344    -22    348    349 188.5  -3.7  34152  289.45 0854.40
2009/04/23 15:34:32.1    -199   -265    -15    332    333 217.0  -2.7  34152  289.43 0854.42
2009/04/23 15:34:32.2    -210   -201    -11    291    292 226.2  -2.2  34158  289.53 0854.42
2009/04/23 15:34:32.3    -132   -239    -77    274    285 208.9 -15.8  34156  289.51 0854.42
2009/04/23 15:34:32.4    -170   -299   -101    345    359 209.6 -21.4  34162  289.60 0854.42
2009/04/23 15:34:32.5    -219   -194   -117    293    315 228.4 -27.4  34168  289.70 0854.42
2009/04/23 15:34:32.6    -171    -47    -51    178    185 254.5 -21.0  34168  289.72 0854.42
2009/04/23 15:34:32.7    -133     69    -69    151    166 297.5 -30.8  34172  289.79 0854.42
2009/04/23 15:34:32.8     -63     77    -30    100    104 320.4 -22.3  34174  289.80 0854.42
2009/04/23 15:34:32.9     123    -25    -75    126    146 101.9 -37.9  34182  289.96 0854.42
2009/04/23 15:34:33.0     124     14    -46    125    133  83.4 -25.3  34186  290.01 0854.42
2009/04/23 15:34:33.1     148   -107    -57    183    191 126.0 -22.5  34180  289.92 0854.42
2009/04/23 15:34:33.2      95    -85    146    128    194 131.8  54.3  34180  289.91 0854.42
2009/04/23 15:34:33.3       4   -237    146    238    279 178.9  34.4  34174  289.80 0854.42
2009/04/23 15:34:33.4      28   -339    133    341    366 175.1  22.5  34162  289.62 0854.42
2009/04/23 15:34:33.5      85   -286    151    299    334 163.3  28.7  34160  289.56 0854.42
2009/04/23 15:34:33.6     213   -154    217    264    341 125.9  43.7  34160  289.58 0854.42
2009/04/23 15:34:33.7     181   -120    151    218    265 123.7  38.4  34156  289.51 0854.42
2009/04/23 15:34:33.8     191   -149    196    243    312 128.0  43.0  34154  289.47 0854.42
2009/04/23 15:34:33.9     177   -170     49    246    251 133.8  11.4  34152  289.44 0854.42
2009/04/23 15:34:34.0     116   -250     -5    276    277 155.1  -1.2  34152  289.42 0854.42
2009/04/23 15:34:34.1     116   -202    -30    234    236 150.1  -7.3  34154  289.46 0854.43
2009/04/23 15:34:34.2     106   -208    -61    234    242 152.8 -14.7  34154  289.47 0854.43
2009/04/23 15:34:34.3      63   -424   -120    429    446 171.5 -15.7  34158  289.55 0854.43
2009/04/23 15:34:34.4      93   -518    -66    527    532 169.8  -7.2  34158  289.53 0854.43
2009/04/23 15:34:34.5      49   -520     34    523    525 174.6   3.7  34158  289.53 0854.43
2009/04/23 15:34:34.6     154   -386     77    416    424 158.2  10.6  34158  289.53 0854.43
2009/04/23 15:34:34.7     256   -290     -1    387    388 138.6  -0.2  34154  289.47 0854.43
2009/04/23 15:34:34.8     190     -7    190    191    269  92.4  50.0  34146  289.34 0854.43
2009/04/23 15:34:34.9     -66    -14    160     68    173 257.6  75.9  34168  289.72 0854.43
2009/04/23 15:34:35.0     -14   -483    203    484    524 181.7  24.2  34160  289.56 0854.43
2009/04/23 15:34:35.1    -108   -514    267    526    589 191.9  29.2  34156  289.52 0854.43
2009/04/23 15:34:35.2     -52   -374    224    378    439 188.0  33.5  34162  289.60 0854.43
2009/04/23 15:34:35.3    -143   -402     84    427    436 199.6  11.1  34160  289.56 0854.43
2009/04/23 15:34:35.4    -180   -134   -173    225    283 233.4 -46.0  34148  289.37 0854.43
2009/04/23 15:34:35.5     -52   -306     61    311    318 189.7  11.1  34154  289.46 0854.43
2009/04/23 15:34:35.6    -112   -574     83    586    593 191.1   8.1  34152  289.42 0854.43
2009/04/23 15:34:35.7      74   -429    191    436    476 170.2  25.1  34146  289.33 0854.43
2009/04/23 15:34:35.8      45   -184    -36    190    194 166.2 -10.9  34148  289.38 0854.43
2009/04/23 15:34:36.0    -126     87    203    154    254 304.6  59.2  34166  289.69 0854.43
2009/04/23 15:34:36.0     -35    -44    213     57    220 218.7  84.9  34156  289.50 0854.43
2009/04/23 15:34:36.1     143   -159    195    215    290 138.1  46.9  34154  289.46 0854.43
2009/04/23 15:34:36.2     161   -188    -16    248    249 139.5  -3.9  34142  289.25 0854.43
2009/04/23 15:34:36.4       7    -84   -119     85    146 174.7 -65.0  34148  289.36 0854.43
2009/04/23 15:34:36.5    -205     55   -163    213    268 285.1 -45.8  34144  289.29 0854.43
2009/04/23 15:34:36.6    -171     26    161    174    237 278.8  47.7  34134  289.14 0854.43
2009/04/23 15:34:36.7    -169    120    184    208    277 305.3  45.9  34156  289.49 0854.43
2009/04/23 15:34:36.8     -65   -129    213    145    257 206.7  62.6  34172  289.79 0854.43
2009/04/23 15:34:36.9     -22    -92    168     95    193 193.8  68.1  34160  289.58 0854.43
2009/04/23 15:34:37.0    -159   -293    275    334    432 208.6  43.7  34138  289.19 0854.43
2009/04/23 15:34:37.1    -166   -292    217    337    400 209.6  35.7  34146  289.35 0854.43
2009/04/23 15:34:37.2     -81   -286     89    298    312 195.8  16.6  34150  289.41 0854.43
2009/04/23 15:34:37.3    -179    -58    123    189    225 251.8  35.7  34150  289.41 0854.43
2009/04/23 15:34:37.4    -109   -317    251    336    419 199.0  40.4  34138  289.20 0854.43
2009/04/23 15:34:37.5     -64   -422    380    427    571 188.7  46.3  34138  289.21 0854.43
2009/04/23 15:34:37.6    -189   -382    386    427    575 206.3  46.9  34138  289.21 0854.43
2009/04/23 15:34:37.7      88   -171    210    193    285 152.8  52.7  34148  289.36 0854.43
2009/04/23 15:34:37.8      38   -464    368    466    593 175.3  42.2  34120  288.89 0854.43
2009/04/23 15:34:37.9      99   -552    353    561    662 169.8  35.2  34140  289.23 0854.43
2009/04/23 15:34:38.0      51   -434    275    438    517 173.2  35.2  34142  289.28 0854.43
2009/04/23 15:34:38.1       4   -345    255    346    429 179.3  40.0  34138  289.19 0854.43
2009/04/23 15:34:38.2    -165   -400    211    433    481 202.5  27.9  34142  289.25 0854.46
2009/04/23 15:34:38.3      63   -297    148    304    338 168.0  27.9  34146  289.32 0854.46
2009/04/23 15:34:38.4     123   -237     98    268    285 152.6  21.0  34142  289.27 0854.46
2009/04/23 15:34:38.5     164   -298    147    341    371 151.2  24.9  34136  289.15 0854.46
2009/04/23 15:34:38.6     102   -459    163    471    499 167.4  19.1  34130  289.05 0854.46
2009/04/23 15:34:38.7      35   -468    303    470    559 175.6  35.7  34144  289.31 0854.46
2009/04/23 15:34:38.8       7   -412    272    413    494 179.0  36.5  34152  289.44 0854.46
2009/04/23 15:34:38.9      65   -494    312    499    588 172.4  35.0  34144  289.29 0854.46
2009/04/23 15:34:39.0      -6   -392    222    393    451 180.9  31.7  34134  289.14 0854.46
2009/04/23 15:34:39.1     -43   -358    154    361    392 187.0  24.5  34142  289.28 0854.46
2009/04/23 15:34:39.2    -140   -243     92    281    296 209.9  18.1  34140  289.24 0854.46
2009/04/23 15:34:39.3    -203   -219    104    299    317 222.8  19.2  34134  289.14 0854.46
2009/04/23 15:34:39.4       1    -47    179     48    185 178.2  84.9  34154  289.46 0854.46
2009/04/23 15:34:39.5     -89   -269    220    284    359 198.3  41.7  34124  288.96 0854.46
2009/04/23 15:34:39.6     -48   -300    307    304    432 189.1  50.2  34142  289.25 0854.46
2009/04/23 15:34:39.7     159   -158    202    225    302 134.7  46.9  34140  289.24 0854.46
2009/04/23 15:34:39.8     100   -115    102    153    183 139.0  36.5  34136  289.16 0854.46
2009/04/23 15:34:39.9     -50   -279     39    284    287 190.2   8.0  34140  289.22 0854.46
2009/04/23 15:34:40.0      34   -199     84    203    219 170.2  23.6  34130  289.08 0854.46
2009/04/23 15:34:40.1    -126     44    221    134    258 289.5  66.0  34150  289.40 0854.46
2009/04/23 15:34:40.2     -73    -74    160    105    191 224.5  64.1  34150  289.41 0854.48
2009/04/23 15:34:40.3      15     87    184     89    204  10.2  72.7  34160  289.58 0854.48
2009/04/23 15:34:40.4    -135   -125    247    185    308 227.3  59.4  34156  289.49 0854.48
2009/04/23 15:34:40.5    -107   -162    154    195    248 213.6  42.4  34156  289.50 0854.48
2009/04/23 15:34:40.6       9   -194     68    195    207 177.3  19.4  34152  289.43 0854.48
2009/04/23 15:34:40.7      17   -276    105    277    296 176.4  22.0  34146  289.34 0854.48
2009/04/23 15:34:40.8      -1   -227    227    228    321 180.5  50.2  34148  289.37 0854.48
2009/04/23 15:34:40.9       2   -154    202    155    254 179.0  58.7  34148  289.38 0854.48
2009/04/23 15:34:41.0     -99   -247    233    267    354 201.9  45.7  34148  289.36 0854.48
2009/04/23 15:34:41.1     -69   -369    198    376    424 190.6  30.2  34148  289.38 0854.48
2009/04/23 15:34:41.2    -120   -318    231    340    411 200.7  37.4  34148  289.37 0854.48
2009/04/23 15:34:41.3    -266   -301    214    402    455 221.4  30.3  34160  289.58 0854.48
2009/04/23 15:34:41.4     -41   -267    211    271    343 188.7  42.0  34164  289.64 0854.48
2009/04/23 15:34:41.5     -88   -203    142    222    263 203.6  35.6  34164  289.63 0854.48
2009/04/23 15:34:41.6     -64   -238    222    247    332 195.1  46.6  34168  289.70 0854.48
2009/04/23 15:34:41.7     -22   -228    138    230    268 185.6  34.0  34158  289.54 0854.48
2009/04/23 15:34:41.8       0   -124   -101    125    160 180.0 -47.7  34172  289.77 0854.48
2009/04/23 15:34:41.9    -191   -224    200    295    356 220.5  37.4  34170  289.74 0854.48
2009/04/23 15:34:42.0    -119   -488    -10    503    504 193.8  -1.2  34150  289.40 0854.48
2009/04/23 15:34:42.1     -78   -337    371    347    507 193.1  52.2  34154  289.48 0854.48
2009/04/23 15:34:42.2     133   -334    393    360    532 158.2  52.8  34170  289.74 0854.48
2009/04/23 15:34:42.3     -52   -237    327    243    407 192.4  59.8  34182  289.96 0854.48
2009/04/23 15:34:42.4     -58   -441     83    445    453 187.6  10.6  34184  289.97 0854.48
2009/04/23 15:34:42.5    -254   -321    133    410    432 218.3  18.0  34158  289.55 0854.48
2009/04/23 15:34:42.6    -252   -365    129    444    463 214.6  16.3  34176  289.85 0854.48
2009/04/23 15:34:42.7     -90   -327    161    340    376 195.5  27.1  34150  289.40 0854.48
2009/04/23 15:34:42.8    -108   -312    178    331    375 199.2  30.7  34164  289.65 0854.48
2009/04/23 15:34:42.9    -143   -412     82    437    445 199.2  10.7  34158  289.53 0854.48
2009/04/23 15:34:43.0     -79   -331    119    341    361 193.4  20.0  34148  289.38 0854.48
2009/04/23 15:34:43.1     -91   -467    135    477    496 191.1  15.9  34152  289.44 0854.48
2009/04/23 15:34:43.2     -69   -214     65    226    236 198.0  16.0  34156  289.52 0854.48
2009/04/23 15:34:43.3      70   -223     34    234    237 162.6   8.5  34162  289.59 0854.48
2009/04/23 15:34:43.4      10   -350    -31    351    353 178.2  -5.2  34156  289.50 0854.48
2009/04/23 15:34:43.5    -131   -349     55    373    378 200.6   8.5  34158  289.54 0854.48
2009/04/23 15:34:43.6    -115   -325     40    345    348 199.5   6.7  34160  289.57 0854.48
2009/04/23 15:34:43.7      16   -357    269    358    447 177.4  40.7  34164  289.63 0854.48
2009/04/23 15:34:43.8     224   -357    308    422    522 147.9  39.7  34156  289.52 0854.48
2009/04/23 15:34:43.9     137   -336    191    363    410 157.8  30.1  34152  289.45 0854.48
2009/04/23 15:34:44.0     -12   -295    -26    296    298 182.5  -5.2  34150  289.41 0854.48
2009/04/23 15:34:44.1    -226   -310     70    384    391 216.1  10.4  34142  289.26 0854.47
2009/04/23 15:34:44.2    -300   -238    138    384    408 231.6  20.6  34156  289.50 0854.47
2009/04/23 15:34:44.3    -193   -304    291    361    463 212.5  43.3  34146  289.33 0854.47
2009/04/23 15:34:44.4    -155   -388    306    419    518 201.8  39.7  34162  289.61 0854.47
2009/04/23 15:34:44.5    -314   -366    447    483    658 220.6  47.6  34154  289.46 0854.47
2009/04/23 15:34:44.6    -317   -387    370    501    622 219.4  40.0  34128  289.02 0854.47
2009/04/23 15:34:44.7    -258   -225    195    343    394 228.9  32.3  34138  289.21 0854.47
2009/04/23 15:34:44.8    -354     70   -203    361    414 281.2 -36.3  34132  289.11 0854.47
2009/04/23 15:34:44.9    -246   -124     89    276    291 243.1  17.9  34142  289.25 0854.47
2009/04/23 15:34:45.0    -428   -279     48    512    515 236.9   5.4  34146  289.35 0854.47
2009/04/23 15:34:45.1    -494   -274   -110    565    576 241.0 -11.1  34162  289.61 0854.47
2009/04/23 15:34:45.2    -582   -255    -77    636    641 246.3  -7.0  34152  289.43 0854.47
2009/04/23 15:34:45.3    -483   -342    122    592    605 234.7  11.7  34170  289.75 0854.47
2009/04/23 15:34:45.4    -431   -298    120    525    539 235.3  12.9  34166  289.67 0854.47
2009/04/23 15:34:45.5    -336    -98    -61    351    357 253.7  -9.9  34164  289.65 0854.47
2009/04/23 15:34:45.6    -227   -147   -111    271    292 237.1 -27.5  34168  289.70 0854.47
2009/04/23 15:34:45.7    -276   -207     43    346    349 233.1   7.2  34164  289.64 0854.47
2009/04/23 15:34:45.8    -765   -279   -130    815    826 249.9  -9.1  34126  288.99 0854.47
2009/04/23 15:34:45.9    -668   -269   -120    721    731 248.0  -9.5  34128  289.03 0854.47
2009/04/23 15:34:46.0    -462   -288    103    545    555 238.0  10.7  34134  289.14 0854.47
2009/04/23 15:34:46.1    -596   -169      2    620    621 254.1   0.2  34136  289.18 0854.45
2009/04/23 15:34:46.2    -687   -254   -174    733    754 249.7 -13.4  34110  288.74 0854.45
2009/04/23 15:34:46.3    -653   -206   -165    685    705 252.4 -13.6  34118  288.86 0854.45
2009/04/23 15:34:46.4    -626   -310   -128    699    711 243.6 -10.4  34106  288.67 0854.45
2009/04/23 15:34:46.5    -732   -315   -182    797    818 246.7 -12.9  34106  288.67 0854.45
2009/04/23 15:34:46.6    -661   -403   -217    775    804 238.6 -20.3  34134  289.13 0854.45
2009/04/23 15:34:46.7    -517   -464   -126    695    707 228.1 -10.3  34090  288.39 0854.45
2009/04/23 15:34:46.8    -656   -314   -251    728    771 244.4 -19.1  34098  288.53 0854.45
2009/04/23 15:34:46.9    -734   -414   -199    843    867 240.6 -13.3  34118  288.85 0854.45
2009/04/23 15:34:47.0    -678   -424   -253    800    840 238.0 -17.6  34134  289.13 0854.45
2009/04/23 15:34:47.1    -626   -435   -214    763    793 235.2 -15.7  34130  289.08 0854.36
2009/04/23 15:34:47.2    -666   -316   -214    738    769 244.6 -16.2  34136  289.16 0854.36
2009/04/23 15:34:47.3    -775   -383   -235    865    897 243.7 -15.2  34130  289.06 0854.36
2009/04/23 15:34:47.4    -727   -239    -44    766    768 251.8  -3.3  34122  288.92 0854.36
2009/04/23 15:34:47.5    -353   -528   -127    636    649 213.8 -11.3  34156  289.50 0854.36
2009/04/23 15:34:47.6    -283   -438     59    522    526 212.9   6.5  34164  289.65 0854.36
2009/04/23 15:34:47.7    -667   -347   -280    752    802 242.5 -25.9  34124  288.97 0854.36
2009/04/23 15:34:47.8    -250   -451     29    516    517 209.0   3.3  34132  289.10 0854.36
2009/04/23 15:34:47.9    -782   -360   -131    861    871 245.3  -8.7  34122  288.93 0854.36
2009/04/23 15:34:48.0    -680   -450    -74    816    820 236.5  -5.2  34130  289.08 0854.36
2009/04/23 15:34:48.1    -702   -493     13    858    859 234.9   0.9  34154  289.48 0854.36
2009/04/23 15:34:48.2    -565   -354    191    667    695 237.9  16.0  34144  289.29 0854.36
2009/04/23 15:34:48.3    -742   -270   -114    791    800 250.0  -8.2  34130  289.08 0854.36
2009/04/23 15:34:48.4   -1111   -213   -288   1132   1169 259.1 -14.3  34100  288.54 0854.36
2009/04/23 15:34:48.5   -1082   -314    -52   1127   1129 253.8  -2.7  34140  289.22 0854.36
2009/04/23 15:34:48.6    -717   -174      9    738    739 256.3   0.7  34134  289.12 0854.36
2009/04/23 15:34:48.7    -530   -276     72    598    603 242.5   6.9  34146  289.34 0854.36
2009/04/23 15:34:48.8    -625    -28   -181    626    651 267.4 -20.9  34144  289.30 0854.36
2009/04/23 15:34:48.9    -259    -38      3    262    263 261.6   0.7  34146  289.34 0854.36
2009/04/23 15:34:49.0    -294   -162    -54    336    341 241.1  -9.1  34152  289.42 0854.36
2009/04/23 15:34:49.1    -605   -157   -296    626    692 255.4 -31.5  34140  289.22 0854.38
2009/04/23 15:34:49.2    -625   -100   -115    634    645 260.9 -10.3  34144  289.31 0854.38
2009/04/23 15:34:49.3    -381   -193    -29    428    429 243.2  -3.9  34154  289.46 0854.38
2009/04/23 15:34:49.4      15   -183    -82    184    201 175.1 -29.7  34144  289.31 0854.38
2009/04/23 15:34:49.5    -235   -159     35    284    287 235.9   7.1  34152  289.44 0854.38
2009/04/23 15:34:49.6    -785   -194   -280    809    856 256.1 -24.3  34136  289.17 0854.38
2009/04/23 15:34:49.7    -800   -282   -224    849    878 250.6 -14.8  34166  289.69 0854.38
2009/04/23 15:34:49.8    -767   -364   -312    850    905 244.6 -25.4  34152  289.45 0854.38
2009/04/23 15:34:49.9    -564   -402   -352    693    777 234.5 -33.5  34140  289.24 0854.38
2009/04/23 15:34:50.0    -645   -235   -303    687    750 250.0 -29.7  34156  289.49 0854.38
2009/04/23 15:34:50.1    -429   -545    -61    695    698 218.2  -5.1  34150  289.39 0854.38
2009/04/23 15:34:50.2    -431   -488    -39    652    654 221.5  -3.5  34154  289.48 0854.38
2009/04/23 15:34:50.3    -441   -372   -137    578    595 229.8 -13.4  34156  289.52 0854.38
2009/04/23 15:34:50.4    -427   -165   -156    459    484 248.8 -23.8  34148  289.37 0854.38
2009/04/23 15:34:50.5    -499   -364   -327    618    699 233.9 -34.5  34152  289.44 0854.38
2009/04/23 15:34:50.6    -402   -487   -192    632    660 219.5 -21.9  34150  289.40 0854.38
2009/04/23 15:34:50.7    -615   -175   -128    640    653 254.1 -11.3  34136  289.16 0854.38
2009/04/23 15:34:50.8    -770   -197   -230    795    828 255.6 -16.2  34152  289.43 0854.38
2009/04/23 15:34:50.9    -960   -306   -298   1008   1051 252.3 -21.2  34116  288.84 0854.38
2009/04/23 15:34:51.0    -913   -179   -346    931    993 258.9 -25.8  34134  289.14 0854.38
2009/04/23 15:34:51.1    -852   -200   -345    876    941 256.8 -27.1  34128  289.02 0854.40
2009/04/23 15:34:51.2    -876   -121   -332    885    945 262.1 -26.0  34142  289.28 0854.40
2009/04/23 15:34:51.3    -755     11   -379    756    845 270.9 -33.1  34134  289.14 0854.40
2009/04/23 15:34:51.4    -839   -122   -309    848    902 261.7 -25.4  34146  289.33 0854.40
2009/04/23 15:34:51.5    -603    -78   -168    609    631 262.6 -20.1  34154  289.48 0854.40
2009/04/23 15:34:51.6    -645     -5   -343    646    731 269.5 -34.6  34150  289.39 0854.40
2009/04/23 15:34:51.7    -348    -40   -270    351    442 263.4 -46.0  34158  289.53 0854.40
2009/04/23 15:34:51.8    -598   -182   -394    626    739 253.1 -39.6  34166  289.66 0854.40
2009/04/23 15:34:51.9    -444   -338   -230    559    604 232.7 -28.0  34150  289.39 0854.40
2009/04/23 15:34:52.0    -241   -113    -65    267    275 244.8 -13.7  34142  289.27 0854.40
2009/04/23 15:34:52.1    -302   -311    441    434    618 224.1  50.6  34140  289.23 0854.40
2009/04/23 15:34:52.2    -200   -251    355    322    479 218.5  53.3  34150  289.41 0854.40
2009/04/23 15:34:52.3     -97   -117    216    153    264 219.6  61.3  34162  289.59 0854.40
2009/04/23 15:34:52.4    -280   -166    145    326    356 239.4  25.3  34148  289.37 0854.40
2009/04/23 15:34:52.5    -790   -367    -56    872    874 245.1  -3.7  34150  289.40 0854.40
2009/04/23 15:34:52.6    -805   -463     -3    929    930 240.1  -0.2  34146  289.32 0854.40
2009/04/23 15:34:52.7    -957   -333   -236   1014   1042 250.8 -13.1  34146  289.33 0854.40
2009/04/23 15:34:52.8    -907   -317   -258    962    996 250.7 -15.1  34144  289.29 0854.40
2009/04/23 15:34:52.9    -813   -208   -218    840    868 255.6 -14.6  34144  289.31 0854.40
2009/04/23 15:34:53.0    -903   -120   -235    911    941 262.4 -14.5  34150  289.40 0854.40
2009/04/23 15:34:53.1    -781      1   -166    782    800 270.1 -12.0  34156  289.52 0854.36
2009/04/23 15:34:53.2    -814     57   -282    816    864 274.0 -19.1  34136  289.15 0854.36
2009/04/23 15:34:53.3    -912    179   -329    930    987 281.1 -19.5  34144  289.31 0854.36
2009/04/23 15:34:53.4    -694    211    -79    726    731 286.9  -6.2  34158  289.55 0854.36
2009/04/23 15:34:53.5    -797    -67   -235    801    835 265.1 -16.4  34162  289.60 0854.36
2009/04/23 15:34:53.6    -604   -113   -145    615    632 259.4 -13.3  34148  289.37 0854.36
2009/04/23 15:34:53.7    -667    -63   -193    671    699 264.6 -16.0  34158  289.53 0854.36
2009/04/23 15:34:53.8    -728   -171    -73    748    752 256.8  -5.6  34154  289.48 0854.36
2009/04/23 15:34:53.9    -755   -183   -209    777    805 256.3 -15.1  34146  289.35 0854.36
2009/04/23 15:34:54.0    -696   -218   -259    730    775 252.6 -19.6  34144  289.29 0854.36
2009/04/23 15:34:54.1    -553   -285   -119    623    635 242.7 -10.8  34144  289.31 0854.36
2009/04/23 15:34:54.2    -231   -342   -198    413    458 214.1 -31.7  34150  289.39 0854.36
2009/04/23 15:34:54.3    -626   -609   -118    874    882 225.8  -7.7  34136  289.15 0854.36
2009/04/23 15:34:54.4    -640   -537   -213    836    863 230.0 -14.3  34132  289.10 0854.36
2009/04/23 15:34:54.5    -552   -395   -311    680    747 234.4 -30.7  34150  289.40 0854.36
2009/04/23 15:34:54.6    -547   -449   -251    708    752 230.6 -19.5  34166  289.67 0854.36
2009/04/23 15:34:54.7    -476   -466   -276    667    721 225.6 -28.1  34136  289.18 0854.36
2009/04/23 15:34:54.8    -339   -319   -236    466    522 226.8 -33.3  34140  289.22 0854.36
2009/04/23 15:34:54.9    -215   -349   -301    411    509 211.6 -44.3  34156  289.50 0854.36
2009/04/23 15:34:55.0     -25   -536    -64    537    541 182.7  -6.8  34146  289.33 0854.36
2009/04/23 15:34:55.1      54   -696    265    699    747 175.5  21.8  34142  289.27 0854.35
2009/04/23 15:34:55.2      48   -520    294    523    599 174.7  31.9  34156  289.52 0854.35
2009/04/23 15:34:55.3      72   -485    128    491    508 171.5  14.7  34156  289.50 0854.35
2009/04/23 15:34:55.4    -138   -575    207    592    628 193.5  19.3  34142  289.26 0854.35
2009/04/23 15:34:55.5    -276   -516    171    586    611 208.1  16.3  34152  289.44 0854.35
2009/04/23 15:34:55.6    -348   -436    101    558    568 218.6  10.3  34154  289.46 0854.35
2009/04/23 15:34:55.7    -472   -294    -46    557    559 238.1  -4.8  34162  289.60 0854.35
2009/04/23 15:34:55.8    -785    -34   -200    786    812 267.5 -14.3  34154  289.46 0854.35
2009/04/23 15:34:55.9    -623   -227    -93    664    671 249.9  -8.0  34160  289.56 0854.35
2009/04/23 15:34:56.0    -587    -58    -13    590    591 264.3  -1.3  34152  289.44 0854.35
2009/04/23 15:34:56.1    -991     -3   -350    992   1051 269.8 -24.7  34156  289.50 0854.35
2009/04/23 15:34:56.2    -707   -129   -414    719    829 259.6 -37.0  34156  289.52 0854.35
2009/04/23 15:34:56.3    -487   -310   -149    578    597 237.5 -14.5  34152  289.42 0854.35
2009/04/23 15:34:56.4    -352   -215   -214    413    465 238.5 -33.8  34150  289.39 0854.35
2009/04/23 15:34:56.5    -306   -393   -140    499    518 217.9 -20.2  34158  289.54 0854.35
2009/04/23 15:34:56.6    -281   -357   -248    455    518 218.3 -35.3  34156  289.49 0854.35
2009/04/23 15:34:56.7     -50   -415   -230    419    477 187.0 -35.7  34160  289.58 0854.35
2009/04/23 15:34:56.8     160   -461   -387    489    623 160.8 -46.8  34140  289.24 0854.35
2009/04/23 15:34:56.9     221   -264   -256    345    429 140.1 -44.5  34156  289.49 0854.35
2009/04/23 15:34:57.0     452   -246   -114    515    528 118.6 -12.5  34160  289.57 0854.35
2009/04/23 15:34:57.1     499   -275    -24    570    571 118.9  -2.5  34154  289.47 0854.36
2009/04/23 15:34:57.2     482   -245     80    541    548 117.0   8.5  34158  289.55 0854.36
2009/04/23 15:34:57.3     347   -301    326    460    563 130.9  38.7  34160  289.57 0854.36
2009/04/23 15:34:57.4     406   -539    117    675    686 143.0   9.9  34150  289.39 0854.36
2009/04/23 15:34:57.5     449   -616    177    763    784 143.9  13.1  34154  289.47 0854.36
2009/04/23 15:34:57.6     170   -612    276    636    693 164.4  25.0  34154  289.46 0854.36
2009/04/23 15:34:57.7      78   -575    259    581    636 172.2  25.7  34156  289.52 0854.36
2009/04/23 15:34:57.8     -67   -393    144    399    425 189.8  19.9  34150  289.41 0854.36
2009/04/23 15:34:57.9     -91   -295    120    309    331 197.2  22.4  34154  289.47 0854.36
2009/04/23 15:34:58.0     -90    -57     95    107    143 237.5  46.4  34154  289.46 0854.36
2009/04/23 15:34:58.1     131    -41     86    138    162 107.7  35.2  34162  289.62 0854.36
2009/04/23 15:34:58.2     306   -401     75    505    511 142.6   8.5  34156  289.49 0854.36
2009/04/23 15:34:58.3     247   -361     -2    438    439 145.6  -0.4  34156  289.51 0854.36
2009/04/23 15:34:58.4     152   -282      4    321    322 151.7   0.8  34158  289.53 0854.36
2009/04/23 15:34:58.5      30   -424    156    426    453 175.9  21.0  34154  289.48 0854.36
2009/04/23 15:34:58.6    -102   -414    123    427    445 193.9  16.1  34166  289.68 0854.36
2009/04/23 15:34:58.7     -90   -449    120    458    474 191.4  14.7  34166  289.67 0854.36
2009/04/23 15:34:58.8     -69   -385     48    392    396 190.2   7.1  34170  289.74 0854.36
2009/04/23 15:34:58.9    -405   -304   -181    507    539 233.1 -19.7  34182  289.94 0854.36
2009/04/23 15:34:59.0    -465   -532   -336    707    782 221.2 -31.7  34176  289.85 0854.36
2009/04/23 15:34:59.1    -367   -616   -130    718    730 210.8 -10.3  34188  290.03 0854.38
2009/04/23 15:34:59.2    -152   -560   -119    581    594 195.2 -11.6  34182  289.95 0854.38
2009/04/23 15:34:59.3    -141   -600    189    617    646 193.3  17.0  34178  289.89 0854.38
2009/04/23 15:34:59.4     -82   -322    241    333    411 194.4  39.5  34188  290.04 0854.38
2009/04/23 15:34:59.5    -227   -467    375    520    641 205.9  39.3  34180  289.91 0854.38
2009/04/23 15:34:59.6     -10   -524    355    525    633 181.2  37.3  34180  289.90 0854.38
2009/04/23 15:34:59.7    -107   -526    310    538    620 191.6  32.6  34184  289.97 0854.38
2009/04/23 15:34:59.8    -178   -295    263    345    433 211.2  41.2  34188  290.04 0854.38
2009/04/23 15:34:59.9     -33   -279    209    282    351 186.9  40.1  34184  289.98 0854.38
2009/04/23 15:35:00.0    -104   -166    290    196    350 212.1  63.1  34202  290.29 0854.38
2009/04/23 15:35:00.1    -269   -226    -74    352    360 230.0 -12.0  34178  289.87 0854.38
2009/04/23 15:35:00.2       5   -400     93    401    412 179.2  13.1  34176  289.83 0854.38
2009/04/23 15:35:00.3    -150   -341    -93    373    385 203.7 -14.1  34172  289.77 0854.38
2009/04/23 15:35:00.4    -183   -603   -112    631    642 196.9 -10.1  34172  289.79 0854.38
2009/04/23 15:35:00.5    -426   -517    -13    671    672 219.5  -1.2  34180  289.90 0854.38
2009/04/23 15:35:00.6    -610   -352   -108    705    714 240.0  -8.7  34182  289.96 0854.38
2009/04/23 15:35:00.7    -601   -328   -147    685    701 241.4 -12.2  34178  289.88 0854.38
2009/04/23 15:35:00.8    -609   -373   -269    715    763 238.5 -26.1  34174  289.80 0854.38
2009/04/23 15:35:00.9    -564   -191   -236    596    641 251.3 -27.2  34158  289.53 0854.38
2009/04/23 15:35:01.0    -645   -176   -261    669    718 254.7 -26.8  34184  289.98 0854.38
2009/04/23 15:35:01.1    -283   -302   -164    415    446 223.1 -27.2  34182  289.94 0854.39
2009/04/23 15:35:01.2    -209     -6   -108    210    236 268.3 -33.7  34192  290.11 0854.39
2009/04/23 15:35:01.3    -102    -86   -254    134    287 230.0 -74.4  34202  290.27 0854.39
2009/04/23 15:35:01.4    -192   -116   -275    225    355 238.7 -60.9  34212  290.44 0854.39
2009/04/23 15:35:01.5    -299   -100   -216    316    382 251.4 -42.1  34194  290.16 0854.39
2009/04/23 15:35:01.6    -236   -194   -147    306    339 230.5 -31.7  34194  290.15 0854.39
2009/04/23 15:35:01.7    -427   -261    -85    501    509 238.5  -9.7  34192  290.13 0854.39
2009/04/23 15:35:01.8    -471   -294    -51    556    559 238.0  -5.3  34196  290.18 0854.39
2009/04/23 15:35:01.9    -481   -148    -36    504    506 252.8  -4.1  34192  290.13 0854.39
2009/04/23 15:35:02.0    -369   -132     -2    393    394 250.3  -0.4  34184  289.98 0854.39
2009/04/23 15:35:02.2    -509    -39    -80    511    518 265.5  -8.9  34182  289.95 0854.39
2009/04/23 15:35:02.2    -525   -259   -191    586    617 243.7 -18.1  34204  290.31 0854.39
2009/04/23 15:35:02.3    -612   -159   -254    633    682 255.4 -27.4  34154  289.48 0854.39
2009/04/23 15:35:02.5    -482    -57   -219    486    533 263.2 -30.3  34160  289.56 0854.39
2009/04/23 15:35:02.6    -237   -197   -156    309    346 230.4 -33.1  34172  289.79 0854.39
2009/04/23 15:35:02.7    -344   -441   -123    560    574 218.0 -12.4  34186  290.02 0854.39
2009/04/23 15:35:02.8    -446   -228   -203    501    540 242.9 -27.6  34160  289.58 0854.39
2009/04/23 15:35:02.8    -494   -244   -204    552    588 243.7 -25.7  34152  289.44 0854.39
2009/04/23 15:35:03.0    -372   -325   -164    495    521 228.8 -23.6  34172  289.78 0854.39
2009/04/23 15:35:03.1    -380   -231   -146    445    469 238.7 -18.2  34164  289.65 0854.39
2009/04/23 15:35:03.2    -507   -188   -150    541    561 249.6 -20.2  34148  289.36 0854.39
2009/04/23 15:35:03.3    -586   -370   -216    694    727 237.7 -17.3  34152  289.42 0854.39
2009/04/23 15:35:03.4    -607   -166   -300    630    697 254.7 -31.7  34158  289.53 0854.39
2009/04/23 15:35:03.5    -605   -149   -186    624    651 256.1 -21.5  34166  289.67 0854.39
2009/04/23 15:35:03.6    -442   -273   -255    520    579 238.3 -32.5  34180  289.90 0854.39
2009/04/23 15:35:03.7    -232   -313   -158    390    420 216.5 -27.6  34174  289.80 0854.39
2009/04/23 15:35:03.8     -53   -387   -123    391    410 187.8 -17.5  34174  289.80 0854.39
2009/04/23 15:35:03.9    -174   -366    -67    406    412 205.5  -9.4  34170  289.73 0854.39
2009/04/23 15:35:04.0    -278   -142    -94    313    326 242.9 -21.6  34184  289.98 0854.39
2009/04/23 15:35:04.1    -193   -140   -123    239    268 234.0 -33.7  34186  290.00 0854.39
2009/04/23 15:35:04.2    -147    -40    -72    153    169 254.5 -31.5  34194  290.16 0854.39
2009/04/23 15:35:04.3     -97   -168   -109    195    223 210.1 -36.0  34202  290.28 0854.39
2009/04/23 15:35:04.4    -251   -281    -93    377    389 221.8 -13.9  34184  289.98 0854.39
2009/04/23 15:35:04.5    -243   -288   -123    378    398 220.2 -18.1  34182  289.93 0854.39
2009/04/23 15:35:04.6    -177   -167    -57    244    251 226.8 -13.2  34182  289.95 0854.39
2009/04/23 15:35:04.7    -216   -153    -93    265    281 234.7 -19.4  34182  289.95 0854.39
2009/04/23 15:35:04.8    -299    -70    -29    308    310 256.8  -5.5  34200  290.26 0854.39
2009/04/23 15:35:04.9    -389    -91    -65    400    406 256.7  -9.3  34188  290.04 0854.39
2009/04/23 15:35:05.0    -319   -252    -90    407    417 231.7 -12.5  34188  290.04 0854.39
2009/04/23 15:35:05.1    -322    -97     63    337    343 253.2  10.6  34182  289.96 0854.39
2009/04/23 15:35:05.2    -335   -221    -53    402    406 236.5  -7.6  34166  289.68 0854.42
2009/04/23 15:35:05.3    -468   -196    -86    508    516 247.3  -9.7  34152  289.44 0854.42
2009/04/23 15:35:05.4    -316   -295   -112    433    448 226.9 -14.5  34176  289.85 0854.42
2009/04/23 15:35:05.5    -228   -203    -89    306    318 228.2 -21.0  34180  289.90 0854.42
2009/04/23 15:35:05.6    -197   -141    -74    243    254 234.5 -21.8  34180  289.92 0854.42
2009/04/23 15:35:05.7     -60   -133    100    147    177 204.5  37.6  34190  290.08 0854.42
2009/04/23 15:35:05.8       9    -64    101     65    120 172.0  64.6  34208  290.38 0854.42
2009/04/23 15:35:05.9      92   -128    -45    158    165 144.2 -16.0  34194  290.16 0854.42
2009/04/23 15:35:06.0      74    -75    -27    106    110 135.3 -14.5  34200  290.26 0854.42
2009/04/23 15:35:06.1     116    -18    115    118    164  98.8  49.8  34206  290.35 0854.42
2009/04/23 15:35:06.2     -74    -90    138    117    180 219.6  55.6  34226  290.70 0854.42
2009/04/23 15:35:06.3     -29   -146    238    149    280 191.5  64.7  34230  290.76 0854.42
2009/04/23 15:35:06.4      43   -301    138    305    334 171.8  26.0  34202  290.29 0854.42
2009/04/23 15:35:06.5      23   -491     95    492    502 177.2  11.0  34194  290.15 0854.42
2009/04/23 15:35:06.6     152   -490    145    514    535 162.7  15.8  34202  290.28 0854.42
2009/04/23 15:35:06.7      49   -508    -22    511    512 174.4  -2.5  34178  289.88 0854.42
2009/04/23 15:35:06.8     121   -385    130    404    425 162.5  17.9  34228  290.72 0854.42
2009/04/23 15:35:06.9     215   -451     97    500    510 154.5  11.0  34202  290.27 0854.42
2009/04/23 15:35:07.0     292   -274    138    401    425 133.2  19.1  34202  290.28 0854.42
2009/04/23 15:35:07.1     337   -228    178    408    445 124.1  25.1  34208  290.39 0854.42
2009/04/23 15:35:07.2     364   -172    175    403    439 115.4  25.1  34212  290.44 0854.43
2009/04/23 15:35:07.3     417   -135    125    439    457 107.9  15.9  34180  289.92 0854.43
2009/04/23 15:35:07.4     317   -142     72    348    356 114.1  11.8  34178  289.86 0854.43
2009/04/23 15:35:07.5     274   -174    141    325    354 122.5  25.1  34180  289.91 0854.43
2009/04/23 15:35:07.6     270   -138    148    304    338 117.1  27.9  34180  289.92 0854.43
2009/04/23 15:35:07.7     -40   -277    271    280    389 188.2  49.1  34184  289.99 0854.43
2009/04/23 15:35:07.8     -17   -222    210    223    306 184.4  48.0  34190  290.07 0854.43
2009/04/23 15:35:07.9    -124   -223    109    256    278 209.0  24.3  34188  290.05 0854.43
2009/04/23 15:35:08.0     -57   -223    163    231    282 194.3  38.6  34190  290.09 0854.43
2009/04/23 15:35:08.1    -135   -242    200    278    342 209.2  39.5  34192  290.12 0854.43
2009/04/23 15:35:08.2     -52   -142    225    152    271 200.1  63.2  34186  290.02 0854.46
2009/04/23 15:35:08.3     -47   -248    220    253    335 190.7  45.5  34178  289.86 0854.46
2009/04/23 15:35:08.4     -42   -222    189    227    295 190.9  43.8  34168  289.71 0854.46
2009/04/23 15:35:08.5       3   -136    153    137    205 178.6  53.7  34174  289.80 0854.46
2009/04/23 15:35:08.6       6   -146    181    147    233 177.4  56.4  34182  289.94 0854.46
2009/04/23 15:35:08.7     -26   -257    227    259    344 185.8  45.7  34180  289.92 0854.46
2009/04/23 15:35:08.8     -56   -274    195    280    341 191.6  38.3  34188  290.03 0854.46
2009/04/23 15:35:08.9      14   -190    188    191    268 175.6  49.8  34186  290.02 0854.46
2009/04/23 15:35:09.0     -15   -198    197    199    280 184.5  50.0  34178  289.88 0854.46
2009/04/23 15:35:09.1     -28   -193    169    196    258 188.2  45.1  34178  289.86 0854.46
2009/04/23 15:35:09.2     -75   -173    114    189    220 203.4  33.7  34162  289.62 0854.46
2009/04/23 15:35:09.3     -73   -217    121    230    259 198.7  30.1  34154  289.47 0854.46
2009/04/23 15:35:09.4     -34   -235     88    238    253 188.2  21.0  34158  289.54 0854.46
2009/04/23 15:35:09.5     -14   -177    126    178    218 184.7  39.1  34160  289.58 0854.46
2009/04/23 15:35:09.6      10   -164     92    165    188 176.4  31.4  34162  289.60 0854.46
2009/04/23 15:35:09.7     -12   -189     51    190    197 183.8  15.2  34160  289.57 0854.46
2009/04/23 15:35:09.8     -48   -377     78    381    390 187.3  11.6  34162  289.62 0854.46
2009/04/23 15:35:09.9     -88   -297    185    310    361 196.5  33.6  34156  289.52 0854.46
2009/04/23 15:35:10.0    -113   -297    110    318    337 200.9  19.2  34164  289.65 0854.46
2009/04/23 15:35:10.1     -38   -276     97    279    296 188.0  19.2  34158  289.54 0854.47
2009/04/23 15:35:10.2      55   -182     40    191    196 163.1  12.0  34162  289.60 0854.47
2009/04/23 15:35:10.3     -12   -184     24    185    187 184.0   7.5  34156  289.52 0854.47
2009/04/23 15:35:10.4      83   -141     87    164    185 149.5  30.1  34166  289.67 0854.47
2009/04/23 15:35:10.5     124    -63    147    140    203 117.0  51.4  34182  289.96 0854.47
2009/04/23 15:35:10.6     140    -77    150    160    219 118.9  48.0  34200  290.25 0854.47
2009/04/23 15:35:10.7     137    -91    159    165    229 123.7  49.2  34194  290.16 0854.47
2009/04/23 15:35:10.8      82    -10    135     83    158  97.5  65.7  34196  290.19 0854.47
2009/04/23 15:35:10.9      -9   -269    321    270    419 182.0  56.0  34168  289.72 0854.47
2009/04/23 15:35:11.0      59   -324    316    330    456 169.7  48.7  34166  289.66 0854.47
2009/04/23 15:35:11.1    -134   -403    297    425    518 198.4  38.5  34168  289.71 0854.47
2009/04/23 15:35:11.2     -70   -380    172    387    423 190.5  25.7  34158  289.55 0854.47
2009/04/23 15:35:11.3     -53   -371      0    375    376 188.3   0.1  34162  289.59 0854.47
2009/04/23 15:35:11.4    -130   -344    -43    368    371 200.7  -6.8  34156  289.50 0854.47
2009/04/23 15:35:11.5      41   -183     48    188    195 167.3  14.5  34168  289.72 0854.47
2009/04/23 15:35:11.6      79    -74    131    109    170 133.1  56.1  34174  289.82 0854.47
2009/04/23 15:35:11.7      95    -31    102    101    143 108.4  50.1  34176  289.84 0854.47
2009/04/23 15:35:11.8     120    -99     56    156    165 129.6  20.2  34170  289.74 0854.47
2009/04/23 15:35:11.9     108    -73     76    131    151 124.1  32.9  34172  289.79 0854.47
2009/04/23 15:35:12.0     112   -112    154    159    221 135.0  49.2  34172  289.77 0854.47
2009/04/23 15:35:12.1       8   -206    278    207    346 177.8  59.9  34184  289.97 0854.43
2009/04/23 15:35:12.2     -38   -264    234    267    355 188.2  45.8  34178  289.89 0854.43
2009/04/23 15:35:12.3      30   -237    108    239    262 172.7  25.9  34184  289.98 0854.43
2009/04/23 15:35:12.4     188   -126     90    227    244 124.0  22.5  34186  290.02 0854.43
2009/04/23 15:35:12.5     125     22    248    127    278  79.9  70.8  34198  290.22 0854.43
2009/04/23 15:35:12.6     -53   -132    239    143    278 201.8  66.7  34184  289.97 0854.43
2009/04/23 15:35:12.7     -73    -88    129    115    172 219.6  53.5  34178  289.89 0854.43
2009/04/23 15:35:12.8      -5     47     89     48    101 353.8  69.3  34188  290.04 0854.43
2009/04/23 15:35:12.9     -73     46    118     87    146 302.0  60.5  34182  289.96 0854.43
2009/04/23 15:35:13.0    -174     58    133    184    227 288.4  39.5  34176  289.85 0854.43
2009/04/23 15:35:13.1    -136    -25     59    139    151 259.4  24.6  34174  289.80 0854.43
2009/04/23 15:35:13.2    -170    -71     10    185    186 247.2   3.1  34172  289.77 0854.43
2009/04/23 15:35:13.3    -156      1    -11    157    158 270.4  -4.1  34170  289.75 0854.43
2009/04/23 15:35:13.4    -209     30     10    212    213 278.4   2.8  34184  289.97 0854.43
2009/04/23 15:35:13.5    -177    228     21    289    290 322.1   4.2  34206  290.34 0854.43
2009/04/23 15:35:13.6     -94    290    -46    305    309 342.0  -8.6  34226  290.70 0854.43
2009/04/23 15:35:13.7    -237    163    -87    288    300 304.6 -21.7  34196  290.17 0854.43
2009/04/23 15:35:13.8    -225     98   -121    246    274 293.5 -32.6  34192  290.12 0854.43
2009/04/23 15:35:13.9    -422   -114    -56    438    442 254.8  -7.3  34192  290.12 0854.43
2009/04/23 15:35:14.0    -464   -135   -164    484    512 253.7 -18.7  34184  289.98 0854.43
2009/04/23 15:35:14.1    -416   -119   -107    433    447 254.0 -13.9  34178  289.88 0854.43
2009/04/23 15:35:14.2    -535    -40   -182    537    568 265.7 -18.7  34156  289.50 0854.41
2009/04/23 15:35:14.3    -471    -53   -135    475    493 263.5 -20.7  34156  289.52 0854.41
2009/04/23 15:35:14.4    -412   -101   -129    425    444 256.2 -21.8  34152  289.43 0854.41
2009/04/23 15:35:14.5    -394   -179   -116    433    449 245.6 -15.1  34150  289.39 0854.41
2009/04/23 15:35:14.6    -430   -170   -124    463    480 248.4 -15.0  34172  289.76 0854.41
2009/04/23 15:35:14.7    -483    -67     41    488    490 262.1   4.9  34170  289.74 0854.41
2009/04/23 15:35:14.8    -448     22     79    449    457 272.9  10.0  34174  289.80 0854.41
2009/04/23 15:35:14.9    -297    -18    133    298    326 266.5  25.7  34174  289.81 0854.41
2009/04/23 15:35:15.0    -305    119    105    328    345 291.4  17.8  34234  290.84 0854.41
2009/04/23 15:35:15.1    -254    173    142    308    339 304.4  26.5  34248  291.08 0854.41
2009/04/23 15:35:15.2    -272     59     81    279    291 282.4  16.3  34246  291.04 0854.41
2009/04/23 15:35:15.3    -257     74    125    268    295 286.2  27.0  34256  291.21 0854.41
2009/04/23 15:35:15.4    -185    193    206    268    338 316.3  41.4  34278  291.56 0854.41
2009/04/23 15:35:15.5    -176    193    193    262    325 317.7  40.0  34282  291.63 0854.41
2009/04/23 15:35:15.6    -244     54    127    251    281 282.6  29.2  34270  291.44 0854.41
2009/04/23 15:35:15.7    -222      3     75    223    236 270.9  18.6  34240  290.94 0854.41
2009/04/23 15:35:15.8    -163     84     90    184    204 297.5  28.0  34254  291.16 0854.41
2009/04/23 15:35:15.9    -128     -9    132    129    184 265.6  50.4  34232  290.79 0854.41
2009/04/23 15:35:16.0     -69     18    154     72    170 285.0  73.1  34230  290.77 0854.41
2009/04/23 15:35:16.1     -86     39    178     95    201 294.8  69.8  34220  290.60 0854.42
2009/04/23 15:35:16.2     -98     35     85    105    135 290.0  43.7  34214  290.48 0854.42
2009/04/23 15:35:16.3    -137     10     69    138    154 274.4  28.2  34192  290.13 0854.42
2009/04/23 15:35:16.4    -193     45     69    199    211 283.3  19.2  34252  291.13 0854.42
2009/04/23 15:35:16.5    -151     62     65    164    176 292.4  22.8  34288  291.76 0854.42
2009/04/23 15:35:16.6     -66     87     -6    110    111 323.0  -3.1  34262  291.30 0854.42
2009/04/23 15:35:16.7     -60    -12    -52     62     80 258.5 -49.2  34244  290.99 0854.42
2009/04/23 15:35:16.8      11    -23   -155     26    157 152.8 -90.0  34200  290.26 0854.42
2009/04/23 15:35:16.9     -73      0   -105     74    128 270.0 -65.9  34150  289.40 0854.42
2009/04/23 15:35:17.0    -100     31   -125    105    163 287.3 -60.0  34160  289.57 0854.42
2009/04/23 15:35:17.1     -66      1   -105     67    124 271.7 -69.0  34152  289.43 0854.42
2009/04/23 15:35:17.2      58      0   -102     59    117  90.0 -72.1  34148  289.38 0854.42
2009/04/23 15:35:17.3      78     15    -46     80     92  78.5 -37.3  34142  289.26 0854.42
2009/04/23 15:35:17.4     110    -14     37    111    118  97.5  18.4  34138  289.19 0854.42
2009/04/23 15:35:17.5      77    -30     28     83     88 111.3  18.9  34136  289.18 0854.42
2009/04/23 15:35:17.6      94      4     39     95    102  87.0  23.1  34138  289.19 0854.42
2009/04/23 15:35:17.7      65     47     74     81    109  54.0  47.9  34142  289.28 0854.42
2009/04/23 15:35:17.8      64     41     68     77    102  57.5  46.4  34140  289.24 0854.42
2009/04/23 15:35:17.9      38     46     56     61     82  39.6  47.9  34138  289.21 0854.42
2009/04/23 15:35:18.0      18     61     73     64     97  16.9  54.3  34150  289.41 0854.42
2009/04/23 15:35:18.1     -10     74     92     75    118 352.0  56.4  34190  290.08 0854.41
2009/04/23 15:35:18.2     -38    140     72    146    162 344.9  28.2  34164  289.63 0854.41
2009/04/23 15:35:18.3     -28    110     39    114    121 345.3  18.9  34154  289.48 0854.41
2009/04/23 15:35:18.4      -9    170     63    171    182 356.9  21.0  34152  289.45 0854.41
2009/04/23 15:35:18.5     -11    160     54    161    170 356.0  18.6  34188  290.06 0854.41
2009/04/23 15:35:18.6     -51    151     82    160    179 341.3  29.3  34202  290.30 0854.41
2009/04/23 15:35:18.7       9    117     55    118    130   4.4  27.1  34208  290.40 0854.41
2009/04/23 15:35:18.8     -46    132     27    140    143 340.8  11.0  34210  290.41 0854.41
2009/04/23 15:35:18.9     -56    207     16    215    216 344.8   4.4  34216  290.53 0854.41
2009/04/23 15:35:19.0     -70    244    -23    254    256 343.9  -5.2  34236  290.87 0854.41
2009/04/23 15:35:19.1      -2    185     92    186    207 359.1  28.2  34226  290.70 0854.41
2009/04/23 15:35:19.2     -67    181     99    194    217 339.5  29.2  34210  290.41 0854.41
2009/04/23 15:35:19.3    -149    242    101    285    303 328.3  19.6  34232  290.78 0854.41
2009/04/23 15:35:19.4    -124    251    140    280    313 333.7  28.6  34164  289.64 0854.41
2009/04/23 15:35:19.5    -143    195    103    242    263 323.7  24.2  34268  291.41 0854.41
2009/04/23 15:35:19.6    -149    198     69    248    258 323.0  15.6  34230  290.75 0854.41
2009/04/23 15:35:19.7     -72    169     34    184    188 336.8  10.6  34154  289.48 0854.41
2009/04/23 15:35:19.8      10    105     90    106    139   5.8  44.3  34168  289.72 0854.41
2009/04/23 15:35:19.9       0    127     11    128    129   0.0   5.0  34204  290.33 0854.41
2009/04/23 15:35:20.0     -83    143     40    166    171 329.7  13.7  34252  291.15 0854.41
2009/04/23 15:35:20.1     -93    168     52    193    200 331.0  15.2  34278  291.57 0854.43
2009/04/23 15:35:20.2    -145    168    -75    222    235 319.2 -18.7  34246  291.03 0854.43
2009/04/23 15:35:20.3    -309    -28   -109    311    330 264.8 -19.4  34144  289.31 0854.43
2009/04/23 15:35:20.4    -290    -57   -142    296    328 258.8 -31.8  34130  289.05 0854.43
2009/04/23 15:35:20.5    -233     -8    -90    234    250 267.9 -26.4  34146  289.34 0854.43
2009/04/23 15:35:20.6    -166    -16    -51    167    174 264.3 -22.5  34154  289.46 0854.43
2009/04/23 15:35:20.7     -54     66    -38     86     94 320.4 -29.5  34164  289.63 0854.43
2009/04/23 15:35:20.8    -113      0     40    114    120 270.0  20.0  34186  290.02 0854.43
2009/04/23 15:35:20.9      -4      5     84      7     84 320.4  90.0  34202  290.28 0854.43
2009/04/23 15:35:21.0     -45    -48    129     66    144 223.3  70.8  34192  290.13 0854.43
2009/04/23 15:35:21.1     -20    -67    130     71    148 196.9  68.9  34162  289.60 0854.43
2009/04/23 15:35:21.2      15      5    135     16    135  71.4  90.0  34228  290.72 0854.43
2009/04/23 15:35:21.3     -24     62    139     67    154 338.2  72.8  34222  290.64 0854.43
2009/04/23 15:35:21.4     -11     34    153     36    157 341.3  87.3  34218  290.57 0854.43
2009/04/23 15:35:21.5     -17    108    121    110    163 351.1  53.0  34194  290.16 0854.43
2009/04/23 15:35:21.6     -32    134    145    138    200 346.2  51.4  34232  290.79 0854.43
2009/04/23 15:35:21.7    -178     87    140    199    243 296.2  38.5  34260  291.28 0854.43
2009/04/23 15:35:21.8    -145    182    175    233    291 321.5  40.7  34266  291.36 0854.43
2009/04/23 15:35:21.9    -203    173    106    267    287 310.4  23.0  34248  291.07 0854.43
2009/04/23 15:35:22.0    -189    177    131    259    290 313.1  29.1  34244  290.99 0854.43
2009/04/23 15:35:22.1    -196     92    100    217    238 295.2  26.4  34252  291.15 0854.41
2009/04/23 15:35:22.2     -99    205    115    228    255 334.1  28.7  34256  291.21 0854.41
2009/04/23 15:35:22.3    -154    107    112    188    218 304.9  33.5  34246  291.04 0854.41
2009/04/23 15:35:22.4    -162     89     59    185    195 298.8  17.7  34260  291.26 0854.41
2009/04/23 15:35:22.5    -119     47     92    129    158 291.8  39.1  34254  291.16 0854.41
2009/04/23 15:35:22.6     -49     48     96     69    118 314.1  60.5  34254  291.18 0854.41
2009/04/23 15:35:22.7    -123     83    107    149    183 304.2  39.3  34242  290.98 0854.41
2009/04/23 15:35:22.8     120     83     96    147    175  55.4  35.7  34220  290.60 0854.41
2009/04/23 15:35:22.9     227     75    254    240    349  71.6  51.9  34194  290.15 0854.41
2009/04/23 15:35:23.0     179     35    233    183    296  78.8  58.2  34230  290.75 0854.41
2009/04/23 15:35:23.1     -97   -189    184    213    281 207.1  45.6  34210  290.42 0854.41
2009/04/23 15:35:23.2    -131     57    220    143    262 293.5  64.4  34210  290.41 0854.41
2009/04/23 15:35:23.3    -157   -116    158    196    251 233.6  43.3  34216  290.53 0854.41
2009/04/23 15:35:23.4    -223    -13    154    224    271 266.5  37.6  34178  289.86 0854.41
2009/04/23 15:35:23.5      85    -62    149    106    182 126.0  61.3  34200  290.25 0854.41
2009/04/23 15:35:23.6      94    -18    211     96    231 101.0  74.0  34214  290.48 0854.41
2009/04/23 15:35:23.7      27    -14     93     31     98 117.1  81.0  34226  290.70 0854.41
2009/04/23 15:35:23.8     163     54    178    172    247  71.6  51.2  34208  290.38 0854.41
2009/04/23 15:35:23.9     144     11    183    145    233  85.6  57.5  34206  290.35 0854.41
2009/04/23 15:35:24.0     115     73    162    137    212  57.6  55.6  34234  290.82 0854.41
2009/04/23 15:35:24.1     188     26    188    190    267  82.1  50.0  34210  290.42 0854.40
2009/04/23 15:35:24.2     128     18    196    130    235  82.0  63.2  34200  290.25 0854.40
2009/04/23 15:35:24.3      95      0    154     96    181  90.0  64.9  34200  290.25 0854.40
2009/04/23 15:35:24.4     129    118    173    175    246  47.6  49.9  34220  290.58 0854.40
2009/04/23 15:35:24.5     157    100    153    187    241  57.6  43.7  34238  290.91 0854.40
2009/04/23 15:35:24.6      93     12    165     94    189  82.1  68.1  34218  290.57 0854.40
2009/04/23 15:35:24.7     136      0    192    137    235  90.0  61.1  34208  290.40 0854.40
2009/04/23 15:35:24.8      73    -46    158     87    180 122.0  68.9  34202  290.30 0854.40
2009/04/23 15:35:24.9      47      6    145     48    152  82.1  80.7  34210  290.41 0854.40
2009/04/23 15:35:25.0      51   -189    242    196    311 164.8  56.6  34204  290.32 0854.40
2009/04/23 15:35:25.1      24   -224    183    226    290 173.8  43.5  34192  290.12 0854.40
2009/04/23 15:35:25.2      60   -154    140    166    217 158.6  44.5  34192  290.13 0854.40
2009/04/23 15:35:25.3      10   -142    149    143    206 176.0  51.2  34206  290.35 0854.40
2009/04/23 15:35:25.4      53   -146    128    156    201 159.9  43.7  34190  290.08 0854.40
2009/04/23 15:35:25.5     100    -67    136    121    182 123.7  53.7  34184  289.97 0854.40
2009/04/23 15:35:25.6      99    -77    120    126    174 127.8  49.0  34186  290.01 0854.40
2009/04/23 15:35:25.7     173    -76    120    190    224 113.7  35.5  34180  289.91 0854.40
2009/04/23 15:35:25.8     192    -55    100    200    223 106.2  28.7  34184  289.97 0854.40
2009/04/23 15:35:25.9     170    -13    137    171    219  94.4  43.0  34186  290.01 0854.40
2009/04/23 15:35:26.0     118    -42    109    126    166 110.0  45.4  34182  289.96 0854.40
2009/04/23 15:35:26.1     115   -103     90    155    179 131.8  32.7  34190  290.08 0854.41
2009/04/23 15:35:26.2      79     -9     70     80    106  97.0  46.4  34190  290.08 0854.41
2009/04/23 15:35:26.3       7      0     70      8     70  85.6  90.0  34202  290.28 0854.41
2009/04/23 15:35:26.4     -31    -81    111     87    141 200.9  57.9  34192  290.13 0854.41
2009/04/23 15:35:26.5     -31   -170    171    173    243 190.5  50.0  34194  290.16 0854.41
2009/04/23 15:35:26.6     -26   -137    133    140    193 191.1  48.5  34196  290.18 0854.41
2009/04/23 15:35:26.7     -39     40    112     56    125 315.8  71.4  34212  290.47 0854.41
2009/04/23 15:35:26.8    -116     64     66    133    148 298.9  27.8  34212  290.45 0854.41
2009/04/23 15:35:26.9    -133   -103     36    169    173 232.2  12.2  34208  290.38 0854.41
2009/04/23 15:35:27.0     -94    -95     86    134    159 224.5  35.7  34194  290.16 0854.41
2009/04/23 15:35:27.1    -124   -102     56    161    171 230.5  19.2  34196  290.18 0854.41
2009/04/23 15:35:27.2     -63   -104    145    122    189 211.2  56.1  34194  290.16 0854.41
2009/04/23 15:35:27.3      51   -213     87    220    236 166.4  22.8  34194  290.14 0854.41
2009/04/23 15:35:27.4      82   -245     56    259    266 161.5  12.2  34190  290.09 0854.41
2009/04/23 15:35:27.5      34   -132     16    137    139 165.3   6.9  34192  290.11 0854.41
2009/04/23 15:35:27.6      87    -92     89    127    155 136.7  38.6  34194  290.14 0854.41
2009/04/23 15:35:27.7     106   -106     94    150    177 135.0  35.2  34188  290.04 0854.41
2009/04/23 15:35:27.8     121    -77     88    144    168 122.5  34.4  34188  290.06 0854.41
2009/04/23 15:35:27.9      23    -59    125     64    140 158.2  70.8  34192  290.13 0854.41
2009/04/23 15:35:28.0      -1    -35     92     36     98 182.7  77.6  34202  290.28 0854.41
2009/04/23 15:35:28.1       8    -14     70     17     72 151.0  86.9  34202  290.28 0854.42
2009/04/23 15:35:28.2      10    -47     95     49    106 167.5  70.4  34210  290.41 0854.42
2009/04/23 15:35:28.3     -49   -103    151    115    189 205.3  59.0  34194  290.16 0854.42
2009/04/23 15:35:28.4      -1    -98    131     99    164 180.9  59.2  34204  290.33 0854.42
2009/04/23 15:35:28.5     -48    -79    117     93    149 211.2  56.9  34206  290.36 0854.42
2009/04/23 15:35:28.6     -74    -56     98     94    135 232.7  50.7  34210  290.43 0854.42
2009/04/23 15:35:28.8     -85    -70     79    111    136 230.4  39.1  34200  290.25 0854.42
2009/04/23 15:35:28.8    -124     54     81    136    158 293.6  33.5  34220  290.58 0854.42
2009/04/23 15:35:29.0     -83     -5     38     84     92 266.5  26.2  34236  290.87 0854.42
2009/04/23 15:35:29.0    -121    -25     80    124    147 258.1  35.6  34204  290.31 0854.42
2009/04/23 15:35:29.1     -90    -39     85     99    130 246.5  45.4  34240  290.94 0854.45
2009/04/23 15:35:29.2     -62    -39     87     74    114 237.6  55.4  34270  291.43 0854.45
2009/04/23 15:35:29.4     -76    -81    103    112    152 223.3  47.9  34254  291.16 0854.45
2009/04/23 15:35:29.5     -69   -115     76    135    154 211.2  31.4  34284  291.67 0854.45
2009/04/23 15:35:29.6    -105   -109    103    152    183 223.7  37.3  34232  290.79 0854.45
2009/04/23 15:35:29.7      18    -55    124     59    137 161.3  72.9  34260  291.28 0854.45
2009/04/23 15:35:29.8      20    -76    160     79    178 164.8  71.9  34300  291.95 0854.45
2009/04/23 15:35:29.9       5      0    164      6    164  94.4  90.0  34310  292.12 0854.45
2009/04/23 15:35:30.0       8     -2    172      9    172 108.4  90.0  34290  291.79 0854.45
2009/04/23 15:35:30.1      15      5    139     16    139  71.4  90.0  34278  291.59 0854.45
2009/04/23 15:35:30.2      35     35    213     50    218  45.0  87.0  34286  291.72 0854.45
2009/04/23 15:35:30.3     -46      0    160     47    166 270.0  83.3  34246  291.03 0854.45
2009/04/23 15:35:30.4      29    -24    120     38    125 129.5  81.2  34210  290.41 0854.45
2009/04/23 15:35:30.5      33    -93    173     99    199 160.4  67.7  34196  290.19 0854.45
2009/04/23 15:35:30.6       2   -158    274    159    316 179.0  67.4  34190  290.07 0854.45
2009/04/23 15:35:30.7     -17   -269    358    270    448 183.6  59.4  34188  290.04 0854.45
2009/04/23 15:35:30.8     -23   -270    337    272    433 184.9  57.1  34182  289.96 0854.45
2009/04/23 15:35:30.9     -31   -254    316    256    406 187.1  56.9  34184  289.98 0854.45
2009/04/23 15:35:31.0     -33   -238    276    241    366 188.1  54.4  34188  290.06 0854.45
2009/04/23 15:35:31.1     173   -196    263    262    371 138.6  50.1  34208  290.38 0854.45
2009/04/23 15:35:31.2     224   -281    249    360    437 141.4  37.8  34208  290.39 0854.46
2009/04/23 15:35:31.3      60   -182    199    192    276 161.5  51.2  34206  290.34 0854.46
2009/04/23 15:35:31.4      76   -231    223    244    330 161.7  47.1  34190  290.09 0854.46
2009/04/23 15:35:31.5      14   -200    196    201    280 176.0  49.8  34196  290.19 0854.46
2009/04/23 15:35:31.6      47   -307    172    311    355 171.3  31.4  34192  290.13 0854.46
2009/04/23 15:35:31.7      56   -278    234    284    367 168.5  43.7  34196  290.18 0854.46
2009/04/23 15:35:31.8     180   -280    173    334    376 147.2  29.5  34198  290.20 0854.46
2009/04/23 15:35:31.9     236   -299    204    382    433 141.7  30.3  34182  289.94 0854.46
2009/04/23 15:35:32.0     125   -210    135    245    279 149.3  31.4  34186  290.02 0854.46
2009/04/23 15:35:32.1     140   -180    175    229    288 142.2  41.6  34184  289.98 0854.46
2009/04/23 15:35:32.2     130   -210    192    248    313 148.3  41.7  34170  289.73 0854.46
2009/04/23 15:35:32.3      97   -259    148    277    314 159.3  30.3  34178  289.88 0854.46
2009/04/23 15:35:32.4     104   -240     24    262    264 156.6   5.4  34196  290.19 0854.46
2009/04/23 15:35:32.5     -65   -207    173    218    278 197.4  42.4  34184  289.97 0854.46
2009/04/23 15:35:32.6     -85   -213    164    230    282 201.8  39.1  34180  289.90 0854.46
2009/04/23 15:35:32.7     -74   -185    146    200    247 201.8  39.7  34182  289.93 0854.46
2009/04/23 15:35:32.8     -42   -178     87    183    202 193.4  27.2  34182  289.96 0854.46
2009/04/23 15:35:32.9      14   -191    102    192    217 175.5  30.6  34192  290.13 0854.46
2009/04/23 15:35:33.0      13   -169    109    170    201 175.5  35.6  34190  290.08 0854.46
2009/04/23 15:35:33.1      46   -227    147    232    274 168.5  35.5  34186  290.02 0854.46
2009/04/23 15:35:33.2      43   -254    185    258    317 170.2  39.2  34196  290.19 0854.46
2009/04/23 15:35:33.3      72   -249    185    260    319 163.7  39.0  34198  290.22 0854.46
2009/04/23 15:35:33.4     182   -260    133    318    344 144.9  24.1  34198  290.23 0854.46
2009/04/23 15:35:33.5     198   -212    102    291    309 137.0  19.4  34200  290.24 0854.46
2009/04/23 15:35:33.6     122   -190    145    227    269 147.3  35.6  34194  290.15 0854.46
2009/04/23 15:35:33.7      66   -223    164    233    284 163.5  38.6  34198  290.20 0854.46
2009/04/23 15:35:33.8      88   -143    125    168    209 148.4  40.4  34200  290.26 0854.46
2009/04/23 15:35:33.9      74   -122    121    143    187 148.8  44.5  34204  290.33 0854.46
2009/04/23 15:35:34.0     -38   -138    132    144    195 195.6  47.5  34202  290.30 0854.46
2009/04/23 15:35:34.1     -50   -181    166    188    250 195.6  45.9  34216  290.52 0854.46
2009/04/23 15:35:34.2     -79   -124     81    148    168 212.5  31.0  34234  290.84 0854.46
2009/04/23 15:35:34.3     -36   -136     27    141    144 195.1  11.1  34236  290.86 0854.46
2009/04/23 15:35:34.4     -21   -155    135    157    207 188.0  45.4  34202  290.28 0854.46
2009/04/23 15:35:34.5     -39   -165    184    170    250 193.4  52.5  34214  290.50 0854.46
2009/04/23 15:35:34.6     -20   -161    163    163    230 187.1  50.1  34220  290.58 0854.46
2009/04/23 15:35:34.7      -1    -12    117     13    117 186.2  90.0  34246  291.03 0854.46
2009/04/23 15:35:34.8     -19    -26     86     33     92 216.1  78.6  34224  290.67 0854.46
2009/04/23 15:35:34.9     -22    -90     93     93    131 194.3  50.1  34204  290.33 0854.46
2009/04/23 15:35:35.0     -28   -106    106    110    152 195.1  49.4  34200  290.26 0854.46
2009/04/23 15:35:35.1      21   -151    115    153    191 171.9  40.9  34204  290.31 0854.46
2009/04/23 15:35:35.2      -4   -154    131    155    202 181.8  44.8  34198  290.23 0854.47
2009/04/23 15:35:35.3      15   -141     72    142    159 173.7  29.1  34200  290.25 0854.47
2009/04/23 15:35:35.4     111   -245     72    270    280 155.5  15.0  34204  290.32 0854.47
2009/04/23 15:35:35.5     -17   -209    120    210    241 184.9  32.4  34204  290.33 0854.47
2009/04/23 15:35:35.6     -88   -191    146    211    256 204.9  38.0  34202  290.29 0854.47
2009/04/23 15:35:35.7       2   -146    164    147    220 179.1  53.5  34208  290.40 0854.47
2009/04/23 15:35:35.8      33   -123    127    128    180 164.8  50.2  34206  290.36 0854.47
2009/04/23 15:35:35.9     -51   -139    161    149    219 200.1  52.2  34208  290.38 0854.47
2009/04/23 15:35:36.0      69    -64    102     95    139 133.1  52.2  34222  290.62 0854.47
2009/04/23 15:35:36.1       8   -166     97    167    193 177.1  33.1  34216  290.52 0854.47
2009/04/23 15:35:36.2      39   -170    148    175    229 167.1  44.1  34240  290.92 0854.47
2009/04/23 15:35:36.3       9   -131    140    132    192 176.0  52.0  34236  290.86 0854.47
2009/04/23 15:35:36.4      20    -32    117     38    123 147.4  81.2  34240  290.94 0854.47
2009/04/23 15:35:36.5      59    -94    108    111    154 147.9  49.9  34220  290.60 0854.47
2009/04/23 15:35:36.6      16   -152     90    153    177 173.8  33.1  34214  290.48 0854.47
2009/04/23 15:35:36.7     -41   -203    116    208    238 191.6  31.6  34212  290.45 0854.47
2009/04/23 15:35:36.8       9   -171    132    172    216 176.9  41.4  34214  290.50 0854.47
2009/04/23 15:35:36.9     -26   -181     89    183    203 188.2  28.0  34204  290.31 0854.47
2009/04/23 15:35:37.0      32   -290     93    292    307 173.7  17.7  34198  290.22 0854.47
2009/04/23 15:35:37.1      34   -302     75    304    314 173.5  13.9  34196  290.19 0854.47
2009/04/23 15:35:37.2     -89   -277    105    291    309 197.8  20.7  34198  290.22 0854.45
2009/04/23 15:35:37.3    -108   -265    117    287    309 202.3  23.1  34200  290.26 0854.45
2009/04/23 15:35:37.4     -56   -253    131    260    291 192.5  28.7  34216  290.53 0854.45
2009/04/23 15:35:37.5     -66   -218    106    228    251 196.9  27.0  34208  290.39 0854.45
2009/04/23 15:35:37.6     -69   -207     98    219    239 198.5  25.7  34208  290.37 0854.45
2009/04/23 15:35:37.7      17   -200     99    201    224 175.1  28.2  34206  290.36 0854.45
2009/04/23 15:35:37.8      38   -168     60    173    184 167.1  19.2  34204  290.31 0854.45
2009/04/23 15:35:37.9     -35   -192     51    196    203 190.5  14.7  34200  290.25 0854.45
2009/04/23 15:35:38.0     -39   -211     87    215    231 190.7  23.1  34198  290.23 0854.45
2009/04/23 15:35:38.1     -30   -241     47    243    248 187.2  11.1  34196  290.19 0854.45
2009/04/23 15:35:38.2      -1   -291     35    292    295 180.2   6.9  34196  290.17 0854.45
2009/04/23 15:35:38.3     -14   -318      6    319    320 182.6   1.2  34196  290.17 0854.45
2009/04/23 15:35:38.4      16   -349     65    350    356 177.3  10.6  34208  290.40 0854.45
2009/04/23 15:35:38.5      17   -352    117    353    373 177.1  18.4  34208  290.40 0854.45
2009/04/23 15:35:38.6      -4   -256     36    257    260 180.9   8.0  34204  290.32 0854.45
2009/04/23 15:35:38.7     -65   -181     -7    193    194 200.0  -2.1  34198  290.21 0854.45
2009/04/23 15:35:38.8     -52   -204    -58    211    219 194.5 -15.5  34196  290.18 0854.45
2009/04/23 15:35:38.9      57   -239     38    246    249 166.6   8.8  34190  290.07 0854.45
2009/04/23 15:35:39.0      85   -256     82    271    284 161.5  16.8  34190  290.07 0854.45
2009/04/23 15:35:39.1     159   -338     82    374    383 154.7  12.4  34192  290.11 0854.45
2009/04/23 15:35:39.2     120   -343     85    364    374 160.7  13.2  34198  290.20 0854.41
2009/04/23 15:35:39.3      90   -318    121    331    352 164.1  21.0  34220  290.60 0854.41
2009/04/23 15:35:39.4      85   -251    162    266    311 161.3  34.4  34206  290.34 0854.41
2009/04/23 15:35:39.5      63   -145     56    159    168 156.4  20.0  34210  290.43 0854.41
2009/04/23 15:35:39.6      52   -271    -23    277    279 169.1  -4.9  34200  290.26 0854.41
2009/04/23 15:35:39.7     109   -169     63    202    212 147.3  17.3  34202  290.30 0854.41
2009/04/23 15:35:39.8     130   -129     85    184    202 134.7  26.4  34202  290.28 0854.41
2009/04/23 15:35:39.9     131    -95     89    163    185 126.0  31.0  34192  290.13 0854.41
2009/04/23 15:35:40.0     114    -83    107    142    177 126.0  40.7  34194  290.16 0854.41
2009/04/23 15:35:40.1     143    -37     75    148    165 104.6  29.1  34196  290.19 0854.41
2009/04/23 15:35:40.2     153      0     78    154    172  90.0  29.1  34196  290.19 0854.41
2009/04/23 15:35:40.3     102     34     22    108    111  71.4  11.6  34196  290.18 0854.41
2009/04/23 15:35:40.4      85     42    -12     96     97  63.4  -7.3  34192  290.13 0854.41
2009/04/23 15:35:40.5      91     44    -10    102    103  64.2  -5.6  34192  290.13 0854.41
2009/04/23 15:35:40.6      55     45      3     72     73  50.4   2.9  34194  290.16 0854.41
2009/04/23 15:35:40.7      53     31    -20     62     65  59.3 -23.8  34196  290.18 0854.41
2009/04/23 15:35:40.8      48     23    -15     54     57  64.8 -15.4  34196  290.18 0854.41
2009/04/23 15:35:40.9      48     25     -7     55     56  62.9  -7.3  34194  290.14 0854.41
2009/04/23 15:35:41.0      73     28    -12     79     80  68.7  -8.8  34194  290.16 0854.41
2009/04/23 15:35:41.1      97     32     -5    103    104  71.6  -3.2  34198  290.21 0854.41
2009/04/23 15:35:41.2     132     62      3    147    148  64.7   1.2  34214  290.48 0854.40
2009/04/23 15:35:41.3     137     36      6    142    143  75.0   2.8  34216  290.53 0854.40
2009/04/23 15:35:41.4     124     25      7    127    128  78.5   3.3  34212  290.45 0854.40
2009/04/23 15:35:41.5     107     -9     45    108    117  95.2  23.1  34200  290.26 0854.40
2009/04/23 15:35:41.6     111    -15     46    113    122  97.9  23.0  34200  290.25 0854.40
2009/04/23 15:35:41.7     115      0     53    116    127  90.0  26.2  34212  290.47 0854.40
2009/04/23 15:35:41.8      95     -4     51     96    108  92.6  30.3  34206  290.35 0854.40
2009/04/23 15:35:41.9      96    -58     68    113    131 121.1  34.0  34206  290.36 0854.40
2009/04/23 15:35:42.0      90   -122     57    152    162 143.5  21.3  34206  290.35 0854.40
2009/04/23 15:35:42.1      91   -169     20    193    195 151.7   5.9  34198  290.21 0854.40
2009/04/23 15:35:42.2      68   -204     26    216    218 161.5   6.9  34188  290.06 0854.40
2009/04/23 15:35:42.3      61   -247    100    255    273 166.0  22.3  34184  289.97 0854.40
2009/04/23 15:35:42.4      74   -277     86    287    300 164.9  16.8  34188  290.05 0854.40
2009/04/23 15:35:42.5      91   -327     46    340    344 164.4   7.8  34194  290.15 0854.40
2009/04/23 15:35:42.6      48   -361     85    365    375 172.4  13.2  34200  290.25 0854.40
2009/04/23 15:35:42.7      51   -363    -10    367    368 172.0  -1.6  34200  290.25 0854.40
2009/04/23 15:35:42.8      26   -346      6    347    348 175.7   1.1  34194  290.16 0854.40
2009/04/23 15:35:42.9      28   -358    104    360    375 175.5  16.1  34202  290.28 0854.40
2009/04/23 15:35:43.0     146   -380     59    408    413 159.0   8.2  34206  290.36 0854.40
2009/04/23 15:35:43.1      81   -323     53    334    339 165.9   9.0  34206  290.35 0854.37
2009/04/23 15:35:43.2      78   -285    113    296    316 164.6  21.8  34194  290.15 0854.37
2009/04/23 15:35:43.3     130   -369    134    392    415 160.5  18.9  34196  290.19 0854.37
2009/04/23 15:35:43.4      96   -347    143    361    388 164.4  22.9  34202  290.28 0854.37
2009/04/23 15:35:43.5      22   -361    225    362    426 176.5  35.0  34212  290.46 0854.37
2009/04/23 15:35:43.6     -79   -341    209    351    408 193.2  33.7  34216  290.52 0854.37
2009/04/23 15:35:43.7     -92   -339    231    352    421 195.3  36.4  34218  290.57 0854.37
2009/04/23 15:35:43.8     -36   -354    121    356    377 185.9  18.8  34210  290.43 0854.37
2009/04/23 15:35:43.9      -6   -359     98    360    374 181.0  15.3  34202  290.28 0854.37
2009/04/23 15:35:44.0      -8   -466     87    467    475 181.0  10.6  34166  289.69 0854.37
2009/04/23 15:35:44.1      73   -554     24    559    560 172.4   2.5  34166  289.67 0854.37
2009/04/23 15:35:44.2      -7   -478    108    479    492 180.9  12.8  34178  289.88 0854.37
2009/04/23 15:35:44.3      86   -346    151    357    387 166.0  24.3  34202  290.28 0854.37
2009/04/23 15:35:44.4     117   -159    243    198    313 143.5  56.8  34206  290.34 0854.37
2009/04/23 15:35:44.5      13   -189    217    190    288 176.0  54.3  34196  290.17 0854.37
2009/04/23 15:35:44.6      95    -49    140    108    176 117.5  58.5  34168  289.70 0854.37
2009/04/23 15:35:44.7     -57   -197    152    206    256 196.3  39.9  34176  289.85 0854.37
2009/04/23 15:35:44.8    -226   -291    110    369    386 217.9  16.7  34174  289.82 0854.37
2009/04/23 15:35:44.9    -160   -193    -69    252    262 219.7 -15.4  34184  289.97 0854.37
2009/04/23 15:35:45.0    -148   -161    -97    219    239 222.5 -29.7  34196  290.19 0854.37
2009/04/23 15:35:45.1     -62   -230    -97    239    257 195.2 -27.5  34188  290.05 0854.40
2009/04/23 15:35:45.2     -58   -354   -121    359    380 189.4 -18.7  34182  289.93 0854.40
2009/04/23 15:35:45.3    -122   -229    -74    260    270 208.1 -20.7  34168  289.70 0854.40
2009/04/23 15:35:45.4    -433   -464   -185    635    661 223.0 -21.1  34176  289.84 0854.40
2009/04/23 15:35:45.5    -391   -354   -157    528    550 227.8 -21.4  34174  289.80 0854.40
2009/04/23 15:35:45.6    -454   -190   -151    493    515 247.3 -21.9  34180  289.91 0854.40
2009/04/23 15:35:45.7    -567   -101   -251    576    628 259.9 -29.4  34126  288.98 0854.40
2009/04/23 15:35:45.8    -539   -167   -278    565    629 252.7 -32.5  34160  289.56 0854.40
2009/04/23 15:35:45.9    -358   -277   -283    453    534 232.3 -39.4  34142  289.27 0854.40
2009/04/23 15:35:46.0    -278   -206   -160    347    382 233.4 -31.0  34166  289.69 0854.40
2009/04/23 15:35:46.1    -164   -198   -116    258    282 219.6 -30.6  34176  289.83 0854.40
2009/04/23 15:35:46.2    -181   -183   -245    258    355 224.8 -52.8  34156  289.51 0854.40
2009/04/23 15:35:46.3    -198   -129   -152    237    281 236.9 -40.0  34158  289.53 0854.40
2009/04/23 15:35:46.4    -247     71   -282    258    382 286.2 -57.3  34158  289.55 0854.40
2009/04/23 15:35:46.5    -273   -217   -135    349    374 231.5 -26.8  34168  289.72 0854.40
2009/04/23 15:35:46.6    -264   -263    -91    373    385 225.1 -13.8  34178  289.87 0854.40
2009/04/23 15:35:46.7    -335   -235    -96    410    422 235.0 -13.3  34180  289.90 0854.40
2009/04/23 15:35:46.8    -168   -317    -40    359    362 208.0  -6.5  34188  290.04 0854.40
2009/04/23 15:35:46.9    -154   -276   -161    317    355 209.2 -33.6  34194  290.15 0854.40
2009/04/23 15:35:47.0      61   -302   -110    309    329 168.5 -19.7  34176  289.83 0854.40
2009/04/23 15:35:47.1     156   -209    -57    261    268 143.3 -12.4  34172  289.78 0854.39
2009/04/23 15:35:47.2     176   -175    -36    249    252 134.9  -8.2  34166  289.68 0854.39
2009/04/23 15:35:47.3     306   -195      4    364    365 122.5   0.7  34166  289.67 0854.39
2009/04/23 15:35:47.4     336   -260     43    425    428 127.7   5.9  34166  289.66 0854.39
2009/04/23 15:35:47.5     400   -310    123    507    522 127.8  13.7  34166  289.66 0854.39
2009/04/23 15:35:47.6     235   -398      0    463    464 149.5   0.0  34166  289.68 0854.39
2009/04/23 15:35:47.7     168   -291    -75    337    346 150.0 -12.7  34170  289.74 0854.39
2009/04/23 15:35:47.8      95   -284      5    300    301 161.5   1.0  34166  289.66 0854.39
2009/04/23 15:35:47.9      48   -236    -80    242    254 168.4 -23.8  34172  289.76 0854.39
2009/04/23 15:35:48.0     185   -103   -123    212    245 119.1 -37.1  34168  289.71 0854.39
2009/04/23 15:35:48.1     164   -147     16    221    222 131.8   4.4  34170  289.75 0854.39
2009/04/23 15:35:48.2      23   -216     98    218    239 173.7  25.9  34172  289.79 0854.39
2009/04/23 15:35:48.3     115   -264    166    289    333 156.4  32.3  34166  289.66 0854.39
2009/04/23 15:35:48.4     250   -207    113    325    345 129.6  19.2  34164  289.64 0854.39
2009/04/23 15:35:48.5     193   -202    156    280    320 136.3  31.7  34170  289.73 0854.39
2009/04/23 15:35:48.6     191   -183    140    265    299 133.8  30.2  34174  289.80 0854.39
2009/04/23 15:35:48.7     121   -263     63    290    297 155.3  12.4  34168  289.70 0854.39
2009/04/23 15:35:48.8      46   -312    110    316    335 171.5  19.3  34162  289.59 0854.39
2009/04/23 15:35:48.9     155   -248    118    293    315 147.9  23.2  34158  289.53 0854.39
2009/04/23 15:35:49.0     200   -227    149    303    337 138.6  28.1  34158  289.54 0854.39
2009/04/23 15:35:49.1     173   -285    108    334    352 148.8  18.0  34158  289.55 0854.39
2009/04/23 15:35:49.2     237   -279     72    367    375 139.7  11.1  34156  289.50 0854.39
2009/04/23 15:35:49.3     232   -280     33    364    366 140.4   5.3  34158  289.55 0854.39
2009/04/23 15:35:49.4     236   -236     20    334    335 135.0   3.5  34158  289.55 0854.39
2009/04/23 15:35:49.5     155   -303     84    341    352 152.9  13.9  34162  289.60 0854.39
2009/04/23 15:35:49.6     173   -278     84    328    339 148.1  14.4  34162  289.59 0854.39
2009/04/23 15:35:49.7     139   -167     99    218    239 140.4  26.2  34166  289.66 0854.39
2009/04/23 15:35:49.8     111   -153     93    190    211 143.9  27.8  34160  289.57 0854.39
2009/04/23 15:35:49.9     148   -203    141    252    288 143.9  31.4  34164  289.64 0854.39
2009/04/23 15:35:50.0     -12   -267    113    268    290 182.7  24.2  34168  289.71 0854.39
2009/04/23 15:35:50.1     -73   -283    130    293    320 194.5  25.3  34170  289.75 0854.41
2009/04/23 15:35:50.2     -97   -279    110    296    315 199.2  21.4  34168  289.71 0854.41
2009/04/23 15:35:50.3    -131   -193    170    234    289 214.2  39.7  34166  289.68 0854.41
2009/04/23 15:35:50.4    -110   -221    229    248    337 206.5  47.7  34174  289.80 0854.41
2009/04/23 15:35:50.5     -44   -261    203    265    333 189.7  41.4  34178  289.88 0854.41
2009/04/23 15:35:50.6     -52   -277    209    282    351 190.7  40.1  34210  290.42 0854.41
2009/04/23 15:35:50.7    -123   -280    221    306    377 203.7  39.5  34228  290.71 0854.41
2009/04/23 15:35:50.8    -148   -267    266    306    405 209.0  45.5  34218  290.55 0854.41
2009/04/23 15:35:50.9    -109   -331    176    349    390 198.3  28.9  34202  290.28 0854.41
2009/04/23 15:35:51.0     -71   -267    203    277    343 195.1  39.9  34180  289.92 0854.41
2009/04/23 15:35:51.1    -114   -209    149    239    281 208.7  35.2  34180  289.90 0854.41
2009/04/23 15:35:51.2    -148   -278     17    316    317 208.1   3.2  34168  289.71 0854.41
2009/04/23 15:35:51.3    -150   -363    -50    393    397 202.5  -7.3  34168  289.71 0854.41
2009/04/23 15:35:51.4     -92   -437     25    447    448 192.0   3.2  34176  289.83 0854.41
2009/04/23 15:35:51.5     -21   -264     96    265    281 184.7  20.7  34168  289.71 0854.41
2009/04/23 15:35:51.6      96   -194    148    217    262 153.5  37.6  34190  290.09 0854.41
2009/04/23 15:35:51.7     126   -265    137    294    324 154.6  26.9  34178  289.88 0854.41
2009/04/23 15:35:51.8       6   -356    122    357    378 179.0  18.9  34182  289.96 0854.41
2009/04/23 15:35:51.9      70   -237    105    248    269 163.5  24.2  34176  289.85 0854.41
2009/04/23 15:35:52.0     179   -231     91    293    307 142.1  17.3  34176  289.85 0854.41
2009/04/23 15:35:52.1     164   -305    164    347    383 151.7  27.1  34174  289.82 0854.47
2009/04/23 15:35:52.2     133   -241    105    276    295 151.1  22.0  34178  289.86 0854.47
2009/04/23 15:35:52.3     132   -337    167    362    398 158.6  26.4  34174  289.81 0854.47
2009/04/23 15:35:52.4     149   -295    234    331    405 153.2  38.6  34172  289.79 0854.47
2009/04/23 15:35:52.5     139   -211    256    253    359 146.6  50.2  34192  290.11 0854.47
2009/04/23 15:35:52.6      35    -35    142     50    150 135.0  80.7  34198  290.23 0854.47
2009/04/23 15:35:52.7     215   -120    253    247    353 119.1  50.7  34184  289.98 0854.47
2009/04/23 15:35:52.8     111   -209    267    237    357 151.9  53.9  34174  289.80 0854.47
2009/04/23 15:35:52.9     121   -276    238    302    384 156.3  42.3  34178  289.86 0854.47
2009/04/23 15:35:53.0      -3   -205    268    206    338 180.9  58.7  34176  289.85 0854.47
2009/04/23 15:35:53.1     422   -113    -17    437    438 105.1  -2.2  34178  289.87 0854.47
2009/04/23 15:35:53.2     394   -189   -136    438    459 115.7 -17.3  34172  289.78 0854.47
2009/04/23 15:35:53.3     182   -198   -119    270    295 137.5 -29.6  34176  289.85 0854.47
2009/04/23 15:35:53.4     101   -152    -65    183    194 146.2 -24.4  34172  289.79 0854.47
2009/04/23 15:35:53.5     109   -154    -76    189    203 144.6 -27.4  34174  289.82 0854.47
2009/04/23 15:35:53.6     -32   -267    227    269    351 186.9  44.4  34160  289.58 0854.47
2009/04/23 15:35:53.7      48    -76    230     91    247 147.5  77.4  34178  289.89 0854.47
2009/04/23 15:35:53.8     246    -68    -47    256    261 105.5 -10.4  34166  289.68 0854.47
2009/04/23 15:35:53.9     268   -111    113    291    312 112.6  22.3  34166  289.68 0854.47
2009/04/23 15:35:54.0      69   -179    -75    193    207 158.8 -26.9  34172  289.79 0854.47
2009/04/23 15:35:54.1      21   -280   -177    281    332 175.5 -39.7  34168  289.70 0854.49
2009/04/23 15:35:54.2    -104   -466    -92    478    487 192.7 -11.0  34140  289.22 0854.49
2009/04/23 15:35:54.3     -35   -636     41    638    640 183.2   3.7  34156  289.50 0854.49
2009/04/23 15:35:54.4    -104   -504    105    515    526 191.7  11.6  34148  289.38 0854.49
2009/04/23 15:35:54.5     -47   -522    186    525    558 185.2  19.6  34150  289.41 0854.49
2009/04/23 15:35:54.6     -95   -349    128    362    385 195.3  19.5  34146  289.32 0854.49
2009/04/23 15:35:54.7      35   -564    197    566    600 176.4  19.2  34130  289.08 0854.49
2009/04/23 15:35:54.8      10   -584    115    585    597 179.0  11.1  34134  289.12 0854.49
2009/04/23 15:35:54.9     -33   -522    165    524    550 183.6  17.5  34138  289.21 0854.49
2009/04/23 15:35:55.0     -38   -509    104    511    522 184.3  11.6  34142  289.27 0854.49
2009/04/23 15:35:55.1      82   -529     30    536    537 171.1   3.2  34138  289.21 0854.49
2009/04/23 15:35:55.2     132   -432     19    452    453 163.0   2.5  34134  289.14 0854.49
2009/04/23 15:35:55.3      74   -479    242    485    542 171.1  28.4  34132  289.09 0854.49
2009/04/23 15:35:55.4      57   -503    188    507    540 173.5  21.3  34132  289.09 0854.49
2009/04/23 15:35:55.5     107   -389    110    404    419 164.6  15.3  34130  289.07 0854.49
2009/04/23 15:35:55.6      -8   -469     94    470    480 181.0  11.3  34136  289.17 0854.49
2009/04/23 15:35:55.7     -29   -529      3    530    531 183.2   0.4  34136  289.18 0854.49
2009/04/23 15:35:55.8     -14   -479     84    480    488 181.7  10.0  34110  288.73 0854.49
2009/04/23 15:35:55.9     -86   -556    210    563    600 188.8  21.4  34128  289.02 0854.49
2009/04/23 15:35:56.0     -19   -562    263    563    621 182.0  27.1  34130  289.07 0854.49
2009/04/23 15:35:56.1       0   -564    273    565    627 180.0  27.7  34130  289.08 0854.51
2009/04/23 15:35:56.2      92   -482    181    491    523 169.1  21.1  34134  289.12 0854.51
2009/04/23 15:35:56.3      84   -399     50    408    412 168.0   7.1  34136  289.17 0854.51
2009/04/23 15:35:56.5     103   -415    -70    428    434 166.0  -9.3  34148  289.38 0854.51
2009/04/23 15:35:56.6      72   -418     66    425    431 170.2   8.9  34134  289.14 0854.51
2009/04/23 15:35:56.7      33   -404     41    406    409 175.2   5.8  34140  289.24 0854.51
2009/04/23 15:35:56.8      18   -461     90    462    471 177.8  11.1  34136  289.17 0854.51
2009/04/23 15:35:56.9      24   -386    111    387    403 176.4  16.0  34132  289.10 0854.51
2009/04/23 15:35:57.0     -18   -296    104    297    314 183.5  20.1  34134  289.12 0854.51
2009/04/23 15:35:57.1     -18   -467    172    468    498 182.2  21.0  34156  289.50 0854.51
2009/04/23 15:35:57.2      92   -434    154    444    469 168.0  20.0  34156  289.49 0854.51
2009/04/23 15:35:57.3       3   -305    131    306    332 179.3  24.5  34138  289.19 0854.51
2009/04/23 15:35:57.4      51   -430    166    434    464 173.1  22.0  34146  289.34 0854.51
2009/04/23 15:35:57.5     114   -376    121    394    413 163.1  17.1  34150  289.41 0854.51
2009/04/23 15:35:57.6      -3   -325    115    326    345 180.6  20.1  34174  289.81 0854.51
2009/04/23 15:35:57.7     -47   -275    104    279    297 189.7  21.3  34174  289.81 0854.51
2009/04/23 15:35:57.8     -64   -248     63    257    265 194.5  13.9  34180  289.90 0854.51
2009/04/23 15:35:57.9     -21   -272     43    273    277 184.5   9.0  34178  289.86 0854.51
2009/04/23 15:35:58.0     -53   -220     15    227    228 193.6   3.8  34176  289.85 0854.51
2009/04/23 15:35:58.1      38   -322     21    325    326 173.1   3.8  34186  290.02 0854.51
2009/04/23 15:35:58.2      25   -383     85    384    394 176.2  12.5  34190  290.08 0854.55
2009/04/23 15:35:58.3      -1   -378    187    379    422 180.2  28.2  34198  290.22 0854.55
2009/04/23 15:35:58.4       7   -423    222    424    478 179.0  29.9  34180  289.90 0854.55
2009/04/23 15:35:58.5     -15   -426    304    427    524 182.1  39.0  34206  290.34 0854.55
2009/04/23 15:35:58.6      71   -420    291    427    516 170.3  37.6  34172  289.78 0854.55
2009/04/23 15:35:58.7     125   -316    243    341    418 158.3  39.0  34182  289.93 0854.55
2009/04/23 15:35:58.8      95   -357    168    370    406 165.1  26.2  34152  289.43 0854.55
2009/04/23 15:35:58.9      49   -287    206    292    357 170.3  38.7  34156  289.50 0854.55
2009/04/23 15:35:59.0      81   -313    176    324    368 165.5  30.9  34162  289.60 0854.55
2009/04/23 15:35:59.1      35   -249     97    252    270 171.9  22.0  34152  289.44 0854.55
2009/04/23 15:35:59.2      27   -356    152    357    388 175.6  24.5  34146  289.33 0854.55
2009/04/23 15:35:59.3      13   -281    235    282    367 177.3  43.8  34154  289.48 0854.55
2009/04/23 15:35:59.4     -12   -328    219    329    395 182.2  36.9  34154  289.47 0854.55
2009/04/23 15:35:59.5     -47   -315    192    319    372 188.5  33.8  34152  289.45 0854.55
2009/04/23 15:35:59.6      70   -175    111    189    219 158.2  33.4  34150  289.41 0854.55
2009/04/23 15:35:59.7     -81   -372    262    381    462 192.4  37.7  34148  289.38 0854.55
2009/04/23 15:35:59.8    -109   -243    240    267    359 204.3  46.5  34154  289.48 0854.55
2009/04/23 15:35:59.9      34    -97    130    104    166 160.4  56.9  34164  289.65 0854.55
2009/04/23 15:36:00.0     -32    -32    144     46    151 225.1  80.7  34176  289.84 0854.55
2009/04/23 15:36:00.1      -1    -71    232     72    242 180.9  82.0  34154  289.48 0854.55
2009/04/23 15:36:00.2     139    -98    194    171    258 125.1  54.2  34152  289.42 0854.56
2009/04/23 15:36:00.3       6     37     95     38    102   9.8  77.1  34172  289.77 0854.56
2009/04/23 15:36:00.4      34     45     85     57    102  37.8  63.2  34184  289.99 0854.56
2009/04/23 15:36:00.5     -14     58     88     60    106 345.7  62.6  34176  289.84 0854.56
2009/04/23 15:36:00.6     -55     35     63     66     91 302.5  49.0  34176  289.84 0854.56
2009/04/23 15:36:00.7     -25    -77    142     82    163 198.5  67.2  34180  289.92 0854.56
2009/04/23 15:36:00.8      13    -50    184     52    191 164.9  84.1  34186  290.02 0854.56
2009/04/23 15:36:00.9    -154   -276    294    317    432 209.2  47.8  34156  289.50 0854.56
2009/04/23 15:36:01.0    -220   -350    177    414    450 212.1  24.6  34156  289.49 0854.56
2009/04/23 15:36:01.1    -295   -278    194    406    449 226.7  27.3  34148  289.38 0854.56
2009/04/23 15:36:01.2    -395   -172    235    431    490 246.5  30.9  34182  289.96 0854.56
2009/04/23 15:36:01.3    -164   -258    249    306    394 212.5  43.4  34158  289.55 0854.56
2009/04/23 15:36:01.4    -203   -243    174    317    361 219.9  31.3  34182  289.94 0854.56
2009/04/23 15:36:01.5    -274   -205     53    343    348 233.1   8.9  34188  290.04 0854.56
2009/04/23 15:36:01.6    -379   -100    109    392    407 255.2  15.6  34196  290.19 0854.56
2009/04/23 15:36:01.7    -264   -231    129    352    374 228.8  21.0  34178  289.86 0854.56
2009/04/23 15:36:01.8    -188   -271    -44    331    334 214.8  -7.6  34166  289.69 0854.56
2009/04/23 15:36:01.9     -93   -387     -4    399    400 193.6  -0.7  34154  289.48 0854.56
2009/04/23 15:36:02.0    -136   -337     -1    364    365 202.1  -0.3  34154  289.47 0854.56
2009/04/23 15:36:02.1     -57   -281    -37    287    290 191.6  -7.5  34154  289.47 0854.56
2009/04/23 15:36:02.2      48   -225    -59    231    239 168.0 -14.5  34154  289.47 0854.56
2009/04/23 15:36:02.3     -20   -151    -46    153    161 187.6 -17.0  34154  289.48 0854.56
2009/04/23 15:36:02.4      23   -203    -36    205    209 173.3 -10.1  34150  289.40 0854.56
2009/04/23 15:36:02.5    -134   -350     19    375    376 201.0   3.0  34158  289.54 0854.56
2009/04/23 15:36:02.6     -71   -264     98    274    291 195.1  20.2  34158  289.53 0854.56
2009/04/23 15:36:02.7     -94   -134    181    164    244 215.0  53.2  34164  289.65 0854.56
2009/04/23 15:36:02.8     -42   -113    148    121    191 200.5  56.4  34174  289.82 0854.56
2009/04/23 15:36:02.9     -80   -135     93    157    182 210.7  33.7  34160  289.58 0854.56
2009/04/23 15:36:03.0      10   -230    137    231    268 177.5  33.5  34164  289.64 0854.56
2009/04/23 15:36:03.1      -7   -245    100    246    265 181.8  23.4  34158  289.54 0854.56
2009/04/23 15:36:03.2     -94   -198    107    220    244 205.4  27.8  34164  289.63 0854.56
2009/04/23 15:36:03.3    -207   -172    104    270    289 230.2  22.0  34172  289.78 0854.56
2009/04/23 15:36:03.4    -274   -276    145    390    416 224.8  21.3  34158  289.55 0854.56
2009/04/23 15:36:03.5    -154   -306    142    343    371 206.8  23.7  34156  289.50 0854.56
2009/04/23 15:36:03.6       0   -201     64    202    213 179.8  17.7  34162  289.60 0854.56
2009/04/23 15:36:03.7       4   -184     -7    185    186 178.6  -2.2  34162  289.60 0854.56
2009/04/23 15:36:03.8       9   -179     -7    180    181 177.1  -2.2  34152  289.43 0854.56
2009/04/23 15:36:03.9      91   -203    -57    223    231 155.7 -14.5  34156  289.50 0854.56
2009/04/23 15:36:04.0     190   -191    -54    270    276 135.2 -11.3  34162  289.61 0854.56
2009/04/23 15:36:04.1      25   -306    149    308    342 175.3  27.4  34158  289.55 0854.56
2009/04/23 15:36:04.2       0   -290    130    291    318 179.9  25.7  34144  289.31 0854.54
2009/04/23 15:36:04.3     -75   -287    139    297    327 194.7  27.1  34154  289.46 0854.54
2009/04/23 15:36:04.4    -157   -157    134    223    260 225.0  33.7  34172  289.76 0854.54
2009/04/23 15:36:04.5    -199    -76    111    214    241 248.9  29.3  34160  289.58 0854.54
2009/04/23 15:36:04.6    -448   -138    193    470    508 252.8  23.6  34174  289.81 0854.54
2009/04/23 15:36:04.7    -365    -82   -128    375    397 257.2 -18.9  34152  289.43 0854.54
2009/04/23 15:36:04.8     -91     22    211     94    230 283.7  74.5  34164  289.65 0854.54
2009/04/23 15:36:04.9    -139    -86     64    164    176 238.0  22.5  34156  289.52 0854.54
2009/04/23 15:36:05.0    -156   -156     10    221    222 225.1   2.8  34148  289.38 0854.54
2009/04/23 15:36:05.1    -232   -415   -102    476    488 209.2 -12.2  34158  289.54 0854.54
2009/04/23 15:36:05.2    -389   -364   -104    533    544 226.9 -11.1  34140  289.24 0854.54
2009/04/23 15:36:05.3    -706   -367   -279    796    843 242.5 -24.5  34182  289.94 0854.54
2009/04/23 15:36:05.4    -756   -140    -52    769    771 259.5  -3.9  34176  289.85 0854.54
2009/04/23 15:36:05.5    -624   -468     49    781    783 233.1   3.6  34170  289.73 0854.54
2009/04/23 15:36:05.6    -621   -350     18    714    715 240.6   1.5  34158  289.55 0854.54
2009/04/23 15:36:05.7    -636   -371    -41    737    739 239.7  -3.2  34158  289.53 0854.54
2009/04/23 15:36:05.8    -594   -129    -13    608    609 257.7  -1.3  34176  289.83 0854.54
2009/04/23 15:36:05.9    -381   -399    -69    552    557 223.7  -7.2  34156  289.50 0854.54
2009/04/23 15:36:06.0    -185   -572     30    602    603 197.9   2.9  34144  289.29 0854.54
2009/04/23 15:36:06.1      88   -645   -134    651    665 172.2 -11.7  34144  289.29 0854.54
2009/04/23 15:36:06.2     -12   -497     -5    498    499 181.4  -0.6  34136  289.17 0854.53
2009/04/23 15:36:06.3     -51   -364    125    368    389 188.0  18.8  34136  289.15 0854.53
2009/04/23 15:36:06.4    -145   -159     80    216    230 222.3  21.0  34140  289.24 0854.53
2009/04/23 15:36:06.5     -72   -180    -71    195    207 201.9 -25.3  34142  289.28 0854.53
2009/04/23 15:36:06.6     -16   -220     53    221    228 184.4  13.7  34132  289.11 0854.53
2009/04/23 15:36:06.7    -177    -91     -7    200    201 242.7  -2.1  34140  289.23 0854.53
2009/04/23 15:36:06.8     -76    -96    -57    123    135 218.3 -31.5  34148  289.38 0854.53
2009/04/23 15:36:06.9    -233   -259     10    349    350 221.9   1.7  34142  289.25 0854.53
2009/04/23 15:36:07.0    -443   -414    -26    607    608 226.9  -2.5  34142  289.25 0854.53
2009/04/23 15:36:07.1    -376   -297    -20    480    481 231.7  -2.5  34142  289.25 0854.53
2009/04/23 15:36:07.2    -355   -232   -140    425    447 236.8 -23.6  34134  289.14 0854.53
2009/04/23 15:36:07.3    -284   -181   -109    337    354 237.5 -23.0  34144  289.30 0854.53
2009/04/23 15:36:07.4     -31   -283   -103    285    303 186.3 -25.3  34140  289.24 0854.53
2009/04/23 15:36:07.5     -12   -240   -152    241    284 182.9 -39.9  34140  289.22 0854.53
2009/04/23 15:36:07.6    -139   -211   -106    253    274 213.4 -28.5  34142  289.27 0854.53
2009/04/23 15:36:07.7    -135   -295    -78    325    335 204.7 -13.6  34144  289.30 0854.53
2009/04/23 15:36:07.8     -83   -344   -100    354    368 193.7 -15.8  34146  289.35 0854.53
2009/04/23 15:36:07.9    -138   -308   -177    338    381 204.2 -34.2  34138  289.21 0854.53
2009/04/23 15:36:08.0    -209   -488    -78    531    537 203.2  -8.4  34142  289.28 0854.53
2009/04/23 15:36:08.1       0   -498     44    499    502 180.0   5.1  34142  289.28 0854.53
2009/04/23 15:36:08.2     227   -401      0    461    462 150.5   0.0  34150  289.39 0854.53
2009/04/23 15:36:08.3     306   -428   -101    527    537 144.4 -10.9  34154  289.46 0854.53
2009/04/23 15:36:08.4     359   -288    104    461    473 128.7  12.8  34136  289.15 0854.53
2009/04/23 15:36:08.5     319   -235     55    397    401 126.4   7.9  34150  289.40 0854.53
2009/04/23 15:36:08.6     404   -227    109    464    477 119.4  13.3  34142  289.28 0854.53
2009/04/23 15:36:08.7     436   -189    146    476    498 113.4  17.1  34152  289.45 0854.53
2009/04/23 15:36:08.8     406   -288     46    498    501 125.4   5.3  34152  289.45 0854.53
2009/04/23 15:36:08.9     461   -293     16    547    548 122.4   1.7  34152  289.43 0854.53
2009/04/23 15:36:09.0     440   -241     -2    502    503 118.8  -0.3  34152  289.45 0854.53
2009/04/23 15:36:09.1     277   -328     21    430    431 139.8   2.9  34150  289.39 0854.53
2009/04/23 15:36:09.2     185   -289     67    344    351 147.4  11.1  34154  289.48 0854.53
2009/04/23 15:36:09.3      11   -144     89    145    170 175.5  34.8  34152  289.43 0854.53
2009/04/23 15:36:09.4     196   -274    173    337    378 144.4  29.3  34158  289.54 0854.53
2009/04/23 15:36:09.5      69   -153    227    168    282 155.7  60.3  34162  289.59 0854.53
2009/04/23 15:36:09.6     -66   -130    226    146    269 207.1  64.6  34166  289.68 0854.53
2009/04/23 15:36:09.7     -15    -87    162     89    184 189.8  68.8  34172  289.77 0854.53
2009/04/23 15:36:09.8    -115   -289    371    312    484 201.8  55.8  34158  289.53 0854.53
2009/04/23 15:36:09.9     -53   -262    139    268    301 191.5  29.5  34158  289.54 0854.53
2009/04/23 15:36:10.0      78   -141    167    162    232 151.0  50.7  34162  289.60 0854.53
2009/04/23 15:36:10.1      43   -130    149    137    202 161.7  52.5  34166  289.67 0854.52
2009/04/23 15:36:10.2     147     45    122    154    196  72.7  42.4  34168  289.72 0854.52
2009/04/23 15:36:10.3     120     -1     92    121    152  90.9  41.6  34166  289.67 0854.52
2009/04/23 15:36:10.4      68      5     88     69    111  85.6  57.5  34164  289.63 0854.52
2009/04/23 15:36:10.5      53      4     80     54     96  85.6  63.2  34176  289.84 0854.52
2009/04/23 15:36:10.6      -1    -84     33     85     91 180.9  22.0  34176  289.85 0854.52
2009/04/23 15:36:10.7      63   -132     16    147    148 154.6   6.5  34162  289.62 0854.52
2009/04/23 15:36:10.8      85   -218    -29    235    237 158.6  -7.2  34162  289.61 0854.52
2009/04/23 15:36:10.9      99   -186    -43    211    216 151.9 -11.6  34158  289.55 0854.52
2009/04/23 15:36:11.0       0   -198    -72    199    211 180.2 -25.1  34164  289.65 0854.52
2009/04/23 15:36:11.1      17   -128    -57    130    141 172.4 -29.5  34164  289.63 0854.52
2009/04/23 15:36:11.2      44    -47      3     65     66 136.8   2.8  34164  289.63 0854.52
2009/04/23 15:36:11.3      71   -134     12    152    153 151.9   4.9  34162  289.62 0854.52
2009/04/23 15:36:11.4      49   -317     87    321    333 171.1  15.3  34166  289.69 0854.52
2009/04/23 15:36:11.5    -107   -409    -71    423    430 194.8  -9.6  34164  289.63 0854.52
2009/04/23 15:36:11.6    -258   -502    -22    565    566 207.2  -2.2  34168  289.70 0854.52
2009/04/23 15:36:11.7    -203   -436     36    481    483 205.0   4.4  34156  289.50 0854.52
2009/04/23 15:36:11.8    -227   -314     75    388    396 215.9  11.0  34164  289.65 0854.52
2009/04/23 15:36:11.9    -397   -319   -120    510    524 231.3 -13.3  34152  289.43 0854.52
2009/04/23 15:36:12.0    -390   -427   -179    579    607 222.4 -17.2  34136  289.15 0854.52
2009/04/23 15:36:12.1    -211   -344   -212    404    456 211.6 -34.4  34108  288.68 0854.52
2009/04/23 15:36:12.2    -245   -317   -197    401    446 217.7 -32.5  34120  288.89 0854.52
2009/04/23 15:36:12.3    -258   -541    -93    600    608 205.5  -8.8  34154  289.46 0854.52
2009/04/23 15:36:12.4    -127   -455   -296    473    557 195.6 -39.4  34128  289.02 0854.52
2009/04/23 15:36:12.5    -231   -337   -311    409    513 214.5 -45.6  34110  288.73 0854.52
2009/04/23 15:36:12.6    -165   -440   -251    471    533 200.6 -34.7  34112  288.76 0854.52
2009/04/23 15:36:12.7    -137   -416   -147    439    462 198.3 -23.3  34122  288.92 0854.52
2009/04/23 15:36:12.8    -158   -323   -137    360    385 206.1 -26.1  34128  289.03 0854.52
2009/04/23 15:36:12.9    -116   -265   -109    290    309 203.7 -25.7  34124  288.97 0854.52
2009/04/23 15:36:13.0    -122   -217   -158    250    295 209.4 -39.9  34140  289.22 0854.52
2009/04/23 15:36:13.1    -147   -179    -35    232    235 219.4  -8.6  34152  289.42 0854.55
2009/04/23 15:36:13.2      35   -217   -151    220    266 170.7 -42.0  34142  289.25 0854.55
2009/04/23 15:36:13.3      81   -277   -161    289    330 163.7 -36.1  34138  289.19 0854.55
2009/04/23 15:36:13.4     225   -404    -18    463    464 150.9  -2.2  34126  288.99 0854.55
2009/04/23 15:36:13.5     154   -251    -54    295    300 148.4 -10.5  34138  289.20 0854.55
2009/04/23 15:36:13.6     120   -317   -100    340    355 159.2 -16.5  34138  289.20 0854.55
2009/04/23 15:36:13.7     155   -256    -72    300    309 148.8 -13.6  34130  289.07 0854.55
2009/04/23 15:36:13.8     215   -136     26    255    257 122.4   6.0  34126  289.00 0854.55
2009/04/23 15:36:13.9    -156    -93   -145    182    232 239.3 -47.1  34134  289.13 0854.55
2009/04/23 15:36:14.0     111   -202    -93    231    249 151.1 -27.4  34124  288.95 0854.55
2009/04/23 15:36:14.1     141   -342     18    370    371 157.6   2.8  34134  289.13 0854.55
2009/04/23 15:36:14.2      -2   -305     62    306    313 180.5  11.6  34136  289.17 0854.55
2009/04/23 15:36:14.3      71   -304    -17    313    314 166.7  -3.2  34140  289.22 0854.55
2009/04/23 15:36:14.4     197   -366    -49    416    419 151.6  -6.8  34138  289.19 0854.55
2009/04/23 15:36:14.5     189   -434    158    474    500 156.4  18.5  34134  289.13 0854.55
2009/04/23 15:36:14.6     224   -483    -10    533    534 155.1  -1.2  34134  289.13 0854.55
2009/04/23 15:36:14.7     310   -521    -97    607    615 149.2  -9.1  34130  289.05 0854.55
2009/04/23 15:36:14.8     307   -516   -111    601    612 149.3 -10.5  34134  289.12 0854.55
2009/04/23 15:36:14.9     106   -543   -183    554    584 168.9 -18.3  34136  289.17 0854.55
2009/04/23 15:36:15.0     192   -559   -199    592    625 161.0 -18.6  34120  288.90 0854.55
2009/04/23 15:36:15.1      98   -629   -115    637    648 171.1 -10.3  34128  289.03 0854.54
2009/04/23 15:36:15.2     107   -641   -196    650    679 170.5 -16.8  34130  289.07 0854.54
2009/04/23 15:36:15.3      88   -658   -188    664    691 172.3 -15.8  34118  288.87 0854.54
2009/04/23 15:36:15.4      -6   -656     -5    657    658 180.6  -0.5  34132  289.09 0854.54
2009/04/23 15:36:15.5    -187   -640    -26    667    668 196.3  -2.2  34132  289.10 0854.54
2009/04/23 15:36:15.6      45   -488   -162    491    518 174.7 -18.3  34134  289.13 0854.54
2009/04/23 15:36:15.7     142   -394   -126    420    439 160.1 -16.7  34126  289.00 0854.54
2009/04/23 15:36:15.8      17   -442    -33    443    445 177.8  -4.4  34114  288.80 0854.54
2009/04/23 15:36:15.9     -95   -487     25    497    498 191.1   2.9  34120  288.90 0854.54
2009/04/23 15:36:16.0     -64   -559    115    563    575 186.6  11.6  34122  288.92 0854.54
2009/04/23 15:36:16.1    -116   -383    -66    401    407 196.9  -9.3  34126  289.00 0854.54
2009/04/23 15:36:16.2     -30   -484    -61    485    489 183.6  -7.2  34120  288.90 0854.54
2009/04/23 15:36:16.3     -93   -462    -78    472    479 191.5  -9.4  34130  289.05 0854.54
2009/04/23 15:36:16.4     -98   -498   -179    508    538 191.2 -24.5  34138  289.21 0854.54
2009/04/23 15:36:16.5     -28   -452    -40    453    455 183.6  -5.1  34130  289.05 0854.54
2009/04/23 15:36:16.6     -78   -488    -22    495    496 189.1  -2.6  34126  289.01 0854.54
2009/04/23 15:36:16.7     -45   -480     49    483    486 185.4   5.9  34124  288.96 0854.54
2009/04/23 15:36:16.8      39   -242     82    246    260 170.7  18.6  34124  288.95 0854.54
2009/04/23 15:36:16.9       9   -299    100    300    317 178.2  18.4  34126  289.00 0854.54
2009/04/23 15:36:17.0      -4   -334     34    335    337 180.8   5.8  34124  288.96 0854.54
2009/04/23 15:36:17.1      76   -403    126    411    431 169.3  17.1  34124  288.95 0854.56
2009/04/23 15:36:17.2     163   -377    176    411    447 156.6  24.6  34120  288.89 0854.56
2009/04/23 15:36:17.3      78   -412    130    420    440 169.3  17.3  34122  288.92 0854.56
2009/04/23 15:36:17.4       0   -400    -19    401    402 180.1  -2.8  34120  288.89 0854.56
2009/04/23 15:36:17.5     -52   -370    -73    374    382 188.1 -11.1  34126  289.01 0854.56
2009/04/23 15:36:17.6       1   -386    -64    387    393 179.8  -9.5  34126  288.98 0854.56
2009/04/23 15:36:17.7      19   -348    -31    349    351 176.9  -5.1  34128  289.03 0854.56
2009/04/23 15:36:17.8      25   -325   -115    327    347 175.5 -19.4  34134  289.13 0854.56
2009/04/23 15:36:17.9      30   -325    130    327    351 174.7  22.9  34126  288.98 0854.56
2009/04/23 15:36:18.0      78   -421    128    429    448 169.5  16.7  34128  289.02 0854.56
2009/04/23 15:36:18.1      92   -345    114    358    376 165.0  17.7  34126  288.98 0854.56
2009/04/23 15:36:18.2     112   -311     32    331    333 160.1   5.7  34130  289.06 0854.56
2009/04/23 15:36:18.3      72   -286     52    295    300 165.8  10.0  34128  289.02 0854.56
2009/04/23 15:36:18.4      43   -325     -4    328    329 172.3  -0.7  34126  288.99 0854.56
2009/04/23 15:36:18.5     123   -295    -21    320    321 157.3  -3.9  34130  289.05 0854.56
2009/04/23 15:36:18.6      95   -287    -38    303    306 161.7  -7.3  34138  289.19 0854.56
2009/04/23 15:36:18.7     131   -327     57    353    358 158.2   9.2  34152  289.42 0854.56
2009/04/23 15:36:18.8     179   -376     60    417    422 154.5   8.2  34146  289.34 0854.56
2009/04/23 15:36:19.0     212   -407     81    459    467 152.5  10.1  34136  289.18 0854.56
2009/04/23 15:36:19.0     224   -316    156    388    418 144.7  23.0  34140  289.22 0854.56
2009/04/23 15:36:19.1     181   -308    215    358    417 149.5  33.7  34156  289.50 0854.62
2009/04/23 15:36:19.2     211   -225    201    309    368 136.8  35.9  34162  289.60 0854.62
2009/04/23 15:36:19.3     132   -242    164    276    321 151.3  33.6  34146  289.34 0854.62
2009/04/23 15:36:19.4     106   -345    139    362    387 162.8  22.0  34148  289.37 0854.62
2009/04/23 15:36:19.5     135   -351    129    377    399 159.0  18.9  34128  289.04 0854.62
2009/04/23 15:36:19.6      83   -295    106    307    325 164.2  19.1  34128  289.02 0854.62
2009/04/23 15:36:19.7     139   -250    153    287    325 151.0  30.5  34128  289.02 0854.62
2009/04/23 15:36:19.8      51   -322    121    327    348 171.0  21.3  34126  289.01 0854.62
2009/04/23 15:36:19.9       9   -288    155    289    327 178.2  30.6  34130  289.05 0854.62
2009/04/23 15:36:20.0     106   -240    125    263    291 156.2  27.2  34130  289.05 0854.62
2009/04/23 15:36:20.2     135   -212     75    252    263 147.4  16.6  34130  289.05 0854.62
2009/04/23 15:36:20.2     103   -186    158    213    265 151.0  40.4  34136  289.17 0854.62
2009/04/23 15:36:20.3     101   -161    125    191    228 147.9  36.0  34136  289.16 0854.62
2009/04/23 15:36:20.4     119   -115    145    166    220 134.0  45.8  34158  289.53 0854.62
2009/04/23 15:36:20.5      34   -180    164    184    246 169.3  46.4  34152  289.45 0854.62
2009/04/23 15:36:20.6      -2   -144    167    145    221 180.9  54.3  34162  289.62 0854.62
2009/04/23 15:36:20.7       6    -76    106     77    131 175.5  60.5  34164  289.63 0854.62
2009/04/23 15:36:20.8      37     12    104     39    111  71.8  78.6  34184  289.99 0854.62
2009/04/23 15:36:20.9      -7     -7     97     11     97 225.0  90.0  34186  290.02 0854.62
2009/04/23 15:36:21.0      49   -128    116    138    180 159.1  44.3  34140  289.24 0854.62
2009/04/23 15:36:21.1      52   -119    106    130    167 156.4  43.7  34140  289.23 0854.64
2009/04/23 15:36:21.2       7   -136    136    137    193 176.9  50.2  34142  289.26 0854.64
2009/04/23 15:36:21.3      10   -167    136    168    216 176.4  43.5  34138  289.21 0854.64
2009/04/23 15:36:21.4    -115   -196    128    228    261 210.3  31.9  34140  289.24 0854.64
2009/04/23 15:36:21.5    -140   -193    128    239    271 216.1  30.6  34146  289.32 0854.64
2009/04/23 15:36:21.6    -171   -147     88    226    242 229.3  22.3  34148  289.36 0854.64
2009/04/23 15:36:21.7       2   -142    190    143    237 179.1  59.4  34172  289.79 0854.64
2009/04/23 15:36:21.8    -112   -178    199    211    290 212.3  48.0  34166  289.66 0854.64
2009/04/23 15:36:21.9    -179   -170    158    248    294 226.4  35.6  34170  289.73 0854.64
2009/04/23 15:36:22.0    -128   -178    264    220    343 215.8  56.2  34154  289.47 0854.64
2009/04/23 15:36:22.1      25    -40    164     48    170 148.4  83.3  34162  289.60 0854.64
2009/04/23 15:36:22.2      -3    -11    132     12    132 198.5  90.0  34162  289.62 0854.64
2009/04/23 15:36:22.3     -12     54    108     56    121 347.5  70.8  34166  289.67 0854.64
2009/04/23 15:36:22.4      -4    101     84    102    132 357.3  43.8  34166  289.69 0854.64
2009/04/23 15:36:22.6      -2     70     79     71    106 358.2  52.7  34164  289.63 0854.64
2009/04/23 15:36:22.6      17      0     72     18     74  89.2  84.9  34166  289.69 0854.64
2009/04/23 15:36:22.7      -4     -1     74      5     74 251.6  90.0  34170  289.74 0854.64
2009/04/23 15:36:22.8      22     10    105     25    107  64.7  86.9  34164  289.65 0854.64
2009/04/23 15:36:22.9     -41     43    111     60    126 316.6  69.3  34180  289.92 0854.64
2009/04/23 15:36:23.0     -16    -27    132     32    135 210.7  86.9  34186  290.01 0854.64
2009/04/23 15:36:23.1     -61    -21     94     65    114 250.9  62.6  34186  290.01 0854.64
2009/04/23 15:36:23.2      -1     13    109     14    109 353.8  90.0  34188  290.06 0854.64
2009/04/23 15:36:23.3       0     -8    111      9    111 184.5  90.0  34176  289.85 0854.64
2009/04/23 15:36:23.4      -8     25    102     27    105 341.3  84.9  34176  289.84 0854.64
2009/04/23 15:36:23.5      30      8     86     32     91  74.9  79.2  34168  289.72 0854.64
2009/04/23 15:36:23.6     -18     45     98     49    109 337.3  71.9  34176  289.85 0854.64
2009/04/23 15:36:23.8     -56     35    110     67    128 302.4  65.7  34180  289.91 0854.64
2009/04/23 15:36:23.8     -46     85    115     97    150 331.5  56.3  34186  290.01 0854.64
2009/04/23 15:36:23.9      10     16    122     19    123  32.6  90.0  34180  289.92 0854.64
2009/04/23 15:36:24.0      42     55     87     70    111  37.0  56.4  34174  289.80 0854.64
2009/04/23 15:36:24.1      33     33     88     48    100  45.0  68.9  34190  290.08 0854.64
2009/04/23 15:36:24.3     -28     -2     80     29     85 265.7  80.2  34196  290.18 0854.64
2009/04/23 15:36:24.4      -6    -19     82     21     84 198.5  85.4  34194  290.16 0854.64
2009/04/23 15:36:24.5      -2      0     72      3     72 270.0  90.0  34194  290.16 0854.64
2009/04/23 15:36:24.6      -3    -48     90     49    102 184.5  68.9  34170  289.74 0854.64
2009/04/23 15:36:24.7      50    -60     89     79    119 140.4  53.7  34170  289.74 0854.64
2009/04/23 15:36:24.8      10   -138     98    139    170 175.5  38.6  34148  289.38 0854.64
2009/04/23 15:36:24.9      -6   -153    -21    154    156 182.6  -8.0  34152  289.45 0854.64
2009/04/23 15:36:25.0       2   -172     -1    173    174 179.3  -0.5  34146  289.33 0854.64
2009/04/23 15:36:25.1       8   -151     63    152    164 176.9  23.6  34146  289.33 0854.64
2009/04/23 15:36:25.2     -12   -166     73    167    182 184.4  25.1  34164  289.63 0854.55
2009/04/23 15:36:25.3     -15   -190     68    191    202 184.7  20.2  34170  289.75 0854.55
2009/04/23 15:36:25.4    -105   -196     63    223    232 208.3  15.8  34194  290.14 0854.55
2009/04/23 15:36:25.5    -112   -190    109    221    246 210.7  28.2  34178  289.86 0854.55
2009/04/23 15:36:25.6    -181    -87     83    202    218 244.2  23.1  34184  289.97 0854.55
2009/04/23 15:36:25.7     -74    -79     95    109    144 222.8  45.8  34160  289.57 0854.55
2009/04/23 15:36:25.8     -63   -139    101    153    183 204.5  36.3  34154  289.48 0854.55
2009/04/23 15:36:25.9    -118   -110     45    162    169 227.1  15.6  34166  289.67 0854.55
2009/04/23 15:36:26.0     -82   -129     54    154    164 212.5  19.4  34156  289.52 0854.55
2009/04/23 15:36:26.1    -114   -100     -6    153    154 228.7  -2.6  34176  289.84 0854.55
2009/04/23 15:36:26.2    -113    -68    -47    133    141 238.9 -24.8  34178  289.89 0854.55
2009/04/23 15:36:26.3     -62    -39    -35     74     81 237.5 -31.0  34180  289.92 0854.55
2009/04/23 15:36:26.4     -41     14    -20     44     48 288.6 -29.5  34176  289.85 0854.55
2009/04/23 15:36:26.5     -14     54    -21     56     59 344.9 -25.4  34182  289.96 0854.55
2009/04/23 15:36:26.6      -2     49     -6     50     51 357.3  -7.3  34180  289.92 0854.55
2009/04/23 15:36:26.7      16     27     23     32     39  30.7  39.7  34188  290.04 0854.55
2009/04/23 15:36:26.8      10      3     38     11     39  71.6  80.7  34192  290.13 0854.55
2009/04/23 15:36:26.9       0     -5     43      6     43 184.5  90.0  34210  290.43 0854.55
2009/04/23 15:36:27.0     -28    -26     35     39     52 226.7  46.9  34194  290.14 0854.55
2009/04/23 15:36:27.1     -28     13     18     31     35 295.2  35.5  34196  290.19 0854.55
2009/04/23 15:36:27.2     -47     13     35     49     60 285.9  39.7  34190  290.08 0854.48
2009/04/23 15:36:27.3     -86     28     39     91     99 288.4  24.1  34172  289.79 0854.48
2009/04/23 15:36:27.4    -131     62     21    146    148 295.3   8.5  34194  290.16 0854.48
2009/04/23 15:36:27.5    -186     36     24    190    192 281.2   7.5  34200  290.25 0854.48
2009/04/23 15:36:27.6    -199     40     23    204    206 281.5   6.5  34210  290.43 0854.48
2009/04/23 15:36:27.7    -189     23     15    191    192 277.0   4.6  34216  290.52 0854.48
2009/04/23 15:36:27.8    -185     29     45    188    194 279.0  13.5  34214  290.50 0854.48
2009/04/23 15:36:27.9    -168     65     17    181    182 291.3   5.4  34240  290.94 0854.48
2009/04/23 15:36:28.0    -165      0     44    166    172 270.0  15.0  34238  290.89 0854.48
2009/04/23 15:36:28.1    -103    -34     78    109    134 251.6  39.1  34212  290.45 0854.48
2009/04/23 15:36:28.2     -94    -11     62     95    113 263.0  35.6  34196  290.18 0854.48
2009/04/23 15:36:28.3    -106     27     28    110    114 284.6  14.3  34192  290.11 0854.48
2009/04/23 15:36:28.4    -117    110     61    161    172 313.1  21.5  34202  290.30 0854.48
2009/04/23 15:36:28.5    -124    116     97    170    195 313.1  32.4  34202  290.30 0854.48
2009/04/23 15:36:28.6    -160    121      7    201    202 307.1   2.1  34242  290.98 0854.48
2009/04/23 15:36:28.7    -108    141    -31    178    181 322.4 -10.1  34294  291.84 0854.48
2009/04/23 15:36:28.8     -47    170    -34    177    181 344.4 -11.1  34304  292.03 0854.48
2009/04/23 15:36:28.9     118    134     -7    179    180  41.4  -2.2  34296  291.88 0854.48
2009/04/23 15:36:29.0     123    -49    107    133    170 111.7  43.3  34196  290.18 0854.48
2009/04/23 15:36:29.1    -196    -64     60    207    216 251.8  16.3  34256  291.21 0854.48
2009/04/23 15:36:29.2    -211    -16     79    212    226 265.4  21.3  34300  291.95 0854.46
2009/04/23 15:36:29.3    -192     69     96    205    226 289.7  27.1  34292  291.83 0854.46
2009/04/23 15:36:29.4    -175     94     61    199    209 298.2  17.1  34326  292.39 0854.46
2009/04/23 15:36:29.5    -138     77    101    159    188 299.1  35.5  34310  292.13 0854.46
2009/04/23 15:36:29.6      86    104    192    136    235  39.7  61.3  34248  291.06 0854.46
2009/04/23 15:36:29.7      86     84    210    121    242  45.6  67.5  34328  292.44 0854.46
2009/04/23 15:36:29.8      17     52    198     55    205  18.5  84.6  34320  292.29 0854.46
2009/04/23 15:36:29.9      60    197    153    207    257  16.9  40.1  34324  292.35 0854.46
2009/04/23 15:36:30.0     -47    233    167    238    290 348.5  38.4  34352  292.84 0854.46
2009/04/23 15:36:30.1      63    296    166    303    345  12.0  31.3  34272  291.49 0854.46
2009/04/23 15:36:30.2      72    354    133    362    385  11.6  21.0  34248  291.06 0854.46
2009/04/23 15:36:30.3     -16    208    191    209    283 355.5  47.1  34250  291.09 0854.46
2009/04/23 15:36:30.4     -51    128    178    138    225 338.2  58.4  34242  290.96 0854.46
2009/04/23 15:36:30.5    -169    231     14    287    288 323.9   2.9  34188  290.05 0854.46
2009/04/23 15:36:30.6    -261    357     99    443    455 323.8  12.6  34248  291.07 0854.46
2009/04/23 15:36:30.7    -354    432    113    559    571 320.6  11.5  34212  290.45 0854.46
2009/04/23 15:36:30.8    -217    279    170    354    392 322.2  27.4  34228  290.74 0854.46
2009/04/23 15:36:30.9      56    346    238    351    424   9.2  37.4  34240  290.93 0854.46
2009/04/23 15:36:31.0     -17    367    111    368    385 357.2  16.8  34198  290.21 0854.46
2009/04/23 15:36:31.1     162    306    164    347    383  28.0  27.1  34210  290.43 0854.46
2009/04/23 15:36:31.2     169    507    170    535    562  18.5  17.7  34218  290.57 0854.34
2009/04/23 15:36:31.3     214    374    134    431    452  29.8  17.3  34218  290.56 0854.34
2009/04/23 15:36:31.4     307    247    169    395    429  51.1  24.8  34228  290.72 0854.34
2009/04/23 15:36:31.5      87    263    164    278    322  18.3  33.5  34226  290.68 0854.34
2009/04/23 15:36:31.6     152    446     47    472    475  18.9   5.7  34212  290.47 0854.34
2009/04/23 15:36:31.7     253    457    -95    523    532  29.0 -10.4  34218  290.55 0854.34
2009/04/23 15:36:31.8     230    444     -2    500    501  27.4  -0.3  34212  290.45 0854.34
2009/04/23 15:36:31.9     290    370    -11    471    472  38.1  -1.4  34196  290.18 0854.34
2009/04/23 15:36:32.0     236    416      1    479    480  29.5   0.2  34214  290.49 0854.34
2009/04/23 15:36:32.1     267    355     23    445    446  37.0   3.0  34216  290.51 0854.34
2009/04/23 15:36:32.2     200    421     94    467    477  25.5  11.4  34190  290.08 0854.26
2009/04/23 15:36:32.3     160    282    138    325    353  29.6  24.3  34178  289.86 0854.26
2009/04/23 15:36:32.4      48    175    175    182    252  15.6  49.0  34174  289.82 0854.26
2009/04/23 15:36:32.5     -20    151    149    153    213 352.4  49.8  34192  290.13 0854.26
2009/04/23 15:36:32.6      -1    164    196    165    256 359.5  55.8  34196  290.19 0854.26
2009/04/23 15:36:32.7     -87    157    158    180    239 330.8  45.8  34196  290.18 0854.26
2009/04/23 15:36:32.8    -119    123    144    172    224 315.9  43.8  34198  290.21 0854.26
2009/04/23 15:36:32.9    -342     24    122    343    365 274.1  19.6  34180  289.91 0854.26
2009/04/23 15:36:33.0    -382   -161     34    415    417 247.2   4.7  34196  290.17 0854.26
2009/04/23 15:36:33.1    -230    -75    115    243    268 251.8  27.2  34206  290.34 0854.26
2009/04/23 15:36:33.2     -48   -201    100    207    229 193.4  27.3  34198  290.21 0854.26
2009/04/23 15:36:33.3      32   -182    169    185    250 169.8  47.1  34198  290.23 0854.26
2009/04/23 15:36:33.4     -39   -241    166    245    295 189.3  37.4  34198  290.22 0854.26
2009/04/23 15:36:33.5      28    -67    140     73    157 157.3  70.6  34194  290.16 0854.26
2009/04/23 15:36:33.6      61     61    155     87    177  45.1  68.5  34202  290.28 0854.26
2009/04/23 15:36:33.7       4    -73     52     74     90 176.4  38.6  34210  290.41 0854.26
2009/04/23 15:36:33.8     -70   -138     44    155    162 207.1  16.0  34206  290.36 0854.26
2009/04/23 15:36:33.9     -31   -172    -78    175    191 190.2 -30.1  34204  290.31 0854.26
2009/04/23 15:36:34.0      75   -336     57    345    350 167.4   9.5  34208  290.40 0854.26
2009/04/23 15:36:34.1      96   -252     32    270    272 159.0   6.9  34210  290.41 0854.26
2009/04/23 15:36:34.2      46   -152     30    159    162 163.1  10.8  34206  290.35 0854.28
2009/04/23 15:36:34.3     -23   -101    104    104    147 192.9  50.1  34210  290.41 0854.28
2009/04/23 15:36:34.4     101    -84    123    132    180 129.6  47.9  34212  290.45 0854.28
2009/04/23 15:36:34.5     -27   -125    139    129    189 192.5  52.2  34212  290.45 0854.28
2009/04/23 15:36:34.6     108    -83    120    137    182 127.7  45.8  34222  290.64 0854.28
2009/04/23 15:36:34.7     104    -38    177    111    208 110.4  64.7  34220  290.58 0854.28
2009/04/23 15:36:34.8      23    -30    139     39    144 142.2  83.9  34220  290.60 0854.28
2009/04/23 15:36:34.9     144    -68    158    160    224 115.3  50.0  34216  290.53 0854.28
2009/04/23 15:36:35.0      88    -80    131    120    177 132.2  52.7  34200  290.26 0854.28
2009/04/23 15:36:35.1      13     44    132     47    140  16.9  80.2  34226  290.69 0854.28
2009/04/23 15:36:35.2      63      5    155     64    167  84.8  76.6  34218  290.57 0854.28
2009/04/23 15:36:35.3      84      1     95     85    127  89.2  53.7  34220  290.58 0854.28
2009/04/23 15:36:35.4     187    -40     99    192    216 102.2  29.3  34206  290.36 0854.28
2009/04/23 15:36:35.5     470     -8     10    471    472  91.0   1.2  34214  290.49 0854.28
2009/04/23 15:36:35.6     357    134     83    382    392  69.3  12.3  34202  290.30 0854.28
2009/04/23 15:36:35.7     235    214     49    318    322  47.7   8.8  34210  290.42 0854.28
2009/04/23 15:36:35.8       5    214    107    215    240   1.4  28.2  34212  290.45 0854.28
2009/04/23 15:36:35.9     -17    409    145    410    435 357.5  19.5  34236  290.87 0854.28
2009/04/23 15:36:36.0     -44    520     73    523    529 355.1   8.0  34280  291.60 0854.28
2009/04/23 15:36:36.1      99    490     83    500    507  11.5   9.5  34280  291.61 0854.31
2009/04/23 15:36:36.2      16    519     62    520    524   1.8   6.9  34286  291.71 0854.31
2009/04/23 15:36:36.3     -18    403    -99    404    416 357.3 -13.8  34282  291.63 0854.31
2009/04/23 15:36:36.4     118    231     92    260    275  27.1  20.2  34260  291.27 0854.31
2009/04/23 15:36:36.5      24    373    296    374    476   3.8  42.3  34262  291.31 0854.31
2009/04/23 15:36:36.6     221    398    291    456    540  29.0  35.6  34238  290.88 0854.31
2009/04/23 15:36:36.7     -88    521    104    529    540 350.4  11.1  34250  291.11 0854.31
2009/04/23 15:36:36.8     -49    631     92    634    641 355.5   8.3  34308  292.07 0854.31
2009/04/23 15:36:36.9      65    562     73    566    571   6.7   7.4  34316  292.21 0854.31
2009/04/23 15:36:37.0     144    426     38    450    452  18.7   4.9  34324  292.35 0854.31
2009/04/23 15:36:37.1     362    339    142    496    517  46.9  16.0  34362  292.99 0854.31
2009/04/23 15:36:37.2     336    454    125    566    580  36.5  12.5  34282  291.63 0854.31
2009/04/23 15:36:37.3     286    401    -16    493    494  35.5  -1.9  34286  291.70 0854.31
2009/04/23 15:36:37.4     288    431    128    519    535  33.8  13.9  34226  290.70 0854.31
2009/04/23 15:36:37.5     395    454     85    602    609  41.0   8.1  34270  291.44 0854.31
2009/04/23 15:36:37.6     531    414    157    674    693  52.1  13.1  34290  291.79 0854.31
2009/04/23 15:36:37.7     526    360    207    638    671  55.6  18.0  34280  291.60 0854.31
2009/04/23 15:36:37.8     549    452     12    712    713  50.5   1.0  34262  291.30 0854.31
2009/04/23 15:36:37.9     356    523    -30    633    634  34.3  -2.8  34252  291.13 0854.31
2009/04/23 15:36:38.0     427    326    -25    538    539  52.6  -2.7  34244  290.99 0854.31
2009/04/23 15:36:38.1     588    318     10    669    670  61.6   0.9  34272  291.46 0854.34
2009/04/23 15:36:38.2     611    262     34    665    666  66.8   3.0  34282  291.65 0854.34
2009/04/23 15:36:38.3     723    136    293    736    792  79.3  23.0  34224  290.66 0854.34
2009/04/23 15:36:38.4     654    222    154    691    709  71.2  12.6  34208  290.40 0854.34
2009/04/23 15:36:38.5     856    178    124    875    885  78.2   8.1  34224  290.66 0854.34
2009/04/23 15:36:38.6     928    105    239    934    965  83.5  14.4  34230  290.76 0854.34
2009/04/23 15:36:38.7     723    142      4    737    738  78.9   0.3  34198  290.21 0854.34
2009/04/23 15:36:38.8     873    169    171    890    907  79.0  10.9  34272  291.48 0854.34
2009/04/23 15:36:38.9     600     83    264    606    661  82.1  25.1  34286  291.71 0854.34
2009/04/23 15:36:39.0     476     65   -172    481    511  82.2 -19.7  34282  291.64 0854.34
2009/04/23 15:36:39.1     681    219    177    716    738  72.2  13.9  34272  291.47 0854.34
2009/04/23 15:36:39.2     633     67    289    637    699  83.9  26.2  34288  291.75 0854.34
2009/04/23 15:36:39.3     519     88    353    527    634  80.3  37.0  34272  291.49 0854.34
2009/04/23 15:36:39.4     524    -95    257    533    591 100.4  27.7  34304  292.02 0854.34
2009/04/23 15:36:39.5     442    -47    352    445    567  96.1  42.4  34302  292.00 0854.34
2009/04/23 15:36:39.6     302    -14    319    303    439  92.8  51.6  34290  291.79 0854.34
2009/04/23 15:36:39.7     337    -32    300    339    452  95.5  45.9  34308  292.08 0854.34
2009/04/23 15:36:39.8     131    -44    255    139    290 108.6  68.9  34304  292.02 0854.34
2009/04/23 15:36:39.9     156   -103    207    188    279 123.5  53.3  34272  291.46 0854.34
2009/04/23 15:36:40.0     -13   -169    157    170    231 184.5  47.9  34272  291.47 0854.34
2009/04/23 15:36:40.1      43   -181    225    187    292 166.6  56.3  34270  291.43 0854.38
2009/04/23 15:36:40.2     207   -234    135    313    340 138.6  24.8  34252  291.15 0854.38
2009/04/23 15:36:40.3     249   -264    222    363    425 136.7  34.4  34212  290.44 0854.38
2009/04/23 15:36:40.4      41   -135    149    142    205 163.0  51.6  34246  291.03 0854.38
2009/04/23 15:36:40.5      27   -161    223    164    276 170.4  60.5  34286  291.72 0854.38
2009/04/23 15:36:40.6     -12   -163    214    164    269 184.2  58.5  34308  292.07 0854.38
2009/04/23 15:36:40.7      15   -109    186    111    216 172.0  66.7  34310  292.12 0854.38
2009/04/23 15:36:40.8       0    -40    115     41    122 179.1  79.7  34314  292.18 0854.38
2009/04/23 15:36:40.9      30      3     37     31     48  83.9  54.3  34296  291.88 0854.38
2009/04/23 15:36:41.0      56     -8    -26     57     62  98.8 -30.6  34268  291.42 0854.38
2009/04/23 15:36:41.1     125      3    -21    126    128  88.3  -9.8  34234  290.84 0854.38
2009/04/23 15:36:41.2      29     87    -33     92     97  18.5 -23.8  34244  291.01 0854.38
2009/04/23 15:36:41.3       9    119     -2    120    121   4.5  -1.3  34248  291.06 0854.38
2009/04/23 15:36:41.4      -6    146      8    147    148 357.3   3.3  34244  290.99 0854.38
2009/04/23 15:36:41.5     -73    132     -3    151    152 331.0  -1.2  34246  291.03 0854.38
2009/04/23 15:36:41.6     -79     79     34    113    119 315.0  16.8  34246  291.03 0854.38
2009/04/23 15:36:41.7    -137    157    -57    209    217 318.8 -15.4  34232  290.79 0854.38
2009/04/23 15:36:41.8     -86    226     29    242    244 339.1   6.9  34220  290.59 0854.38
2009/04/23 15:36:41.9    -119    241     73    269    279 333.7  15.3  34232  290.78 0854.38
2009/04/23 15:36:42.0     -54    333     12    338    339 350.7   2.1  34212  290.47 0854.38
2009/04/23 15:36:42.1      34    320     72    322    331   6.2  12.6  34216  290.53 0854.41
2009/04/23 15:36:42.2     -74    245     46    257    262 343.1  10.3  34216  290.53 0854.41
2009/04/23 15:36:42.3     -94    292    105    307    325 342.1  18.9  34218  290.54 0854.41
2009/04/23 15:36:42.4      89    233    165    250    299  21.0  36.5  34204  290.31 0854.41
2009/04/23 15:36:42.5     233    296    101    378    392  38.2  15.0  34182  289.94 0854.41
2009/04/23 15:36:42.6     262    303    144    401    426  40.9  20.4  34212  290.44 0854.41
2009/04/23 15:36:42.7     209    167    164    268    314  51.4  34.3  34216  290.53 0854.41
2009/04/23 15:36:42.8      21     64    173     68    185  18.7  77.6  34246  291.03 0854.41
2009/04/23 15:36:42.9      87    280     91    294    308  17.4  17.3  34230  290.76 0854.41
2009/04/23 15:36:43.0      86    250    128    265    294  19.1  27.3  34242  290.95 0854.41
2009/04/23 15:36:43.1     160    309     62    349    355  27.4  10.1  34256  291.20 0854.41
2009/04/23 15:36:43.2     -69    266    179    275    328 345.3  36.2  34242  290.97 0854.41
2009/04/23 15:36:43.3     -32    281    221    283    359 353.3  42.0  34218  290.54 0854.41
2009/04/23 15:36:43.4     168    139     86    219    235  50.4  22.5  34212  290.47 0854.41
2009/04/23 15:36:43.5     107    114    109    157    191  43.3  38.4  34204  290.33 0854.41
2009/04/23 15:36:43.6      55     92     33    108    114  30.7  17.3  34204  290.31 0854.41
2009/04/23 15:36:43.7     -56    101     64    116    132 330.6  31.4  34212  290.45 0854.41
2009/04/23 15:36:43.8     -91    110     21    143    145 320.4   8.5  34222  290.64 0854.41
2009/04/23 15:36:43.9    -167    101     24    196    198 301.3   7.2  34222  290.62 0854.41
2009/04/23 15:36:44.0    -203    112    106    232    255 298.9  26.2  34228  290.71 0854.41
2009/04/23 15:36:44.1     -59    177    153    187    241 341.3  43.7  34328  292.44 0854.44
2009/04/23 15:36:44.2     -40    212    177    216    279 349.1  43.7  34316  292.23 0854.44
2009/04/23 15:36:44.3     -15    142    156    143    211 353.8  52.7  34312  292.15 0854.44
2009/04/23 15:36:44.4     -53     65     85     84    119 320.8  50.1  34302  292.00 0854.44
2009/04/23 15:36:44.5     -58     26     66     64     91 294.4  50.1  34288  291.76 0854.44
2009/04/23 15:36:44.6     -35     78     35     86     92 335.9  23.0  34280  291.62 0854.44
2009/04/23 15:36:44.7    -149    198    134    248    281 323.0  31.0  34296  291.87 0854.44
2009/04/23 15:36:44.8      82    163     89    183    203  26.7  28.0  34336  292.58 0854.44
2009/04/23 15:36:44.9     167    144    153    221    268  49.1  38.0  34336  292.55 0854.44
2009/04/23 15:36:45.0     257    120     92    284    299  64.9  17.9  34272  291.48 0854.44
2009/04/23 15:36:45.1     112    193     64    224    234  30.1  16.0  34222  290.62 0854.44
2009/04/23 15:36:45.2     259    167     73    309    318  57.1  13.3  34252  291.12 0854.44
2009/04/23 15:36:45.3     327    306     58    449    453  46.9   7.4  34292  291.82 0854.44
2009/04/23 15:36:45.4     283    221    126    360    382  52.0  19.3  34302  291.98 0854.44
2009/04/23 15:36:45.5     268    198     39    334    337  53.5   6.8  34298  291.90 0854.44
2009/04/23 15:36:45.6     373    224    -55    436    440  59.0  -7.2  34268  291.41 0854.44
2009/04/23 15:36:45.7     330    194     82    384    393  59.5  12.1  34258  291.22 0854.44
2009/04/23 15:36:45.8     167    180    185    246    307  42.8  40.7  34276  291.53 0854.44
2009/04/23 15:36:45.9     325    206    133    386    409  57.6  19.1  34270  291.44 0854.44
2009/04/23 15:36:46.0     513    191     -2    548    549  69.6  -0.3  34220  290.60 0854.44
2009/04/23 15:36:46.1     622    242     79    668    673  68.7   6.8  34206  290.34 0854.47
2009/04/23 15:36:46.2     599    336     -8    687    688  60.7  -0.7  34190  290.09 0854.47
2009/04/23 15:36:46.3     674    292     86    735    741  66.6   6.7  34198  290.21 0854.47
2009/04/23 15:36:46.4     606    117    150    618    636  79.0  13.7  34206  290.35 0854.47
2009/04/23 15:36:46.5     505    257    -44    567    569  63.0  -4.5  34194  290.14 0854.47
2009/04/23 15:36:46.6     542    -34    236    544    592  93.6  25.1  34222  290.63 0854.47
2009/04/23 15:36:46.7     438    -74    205    445    489  99.6  26.5  34242  290.98 0854.47
2009/04/23 15:36:46.8     675    119     86    686    692  80.0   7.2  34196  290.17 0854.47
2009/04/23 15:36:46.9     644    123     93    656    663  79.1   8.1  34218  290.56 0854.47
2009/04/23 15:36:47.0     451    301    266    543    604  56.3  28.1  34166  289.69 0854.47
2009/04/23 15:36:47.1     402   -157    400    432    588 111.4  47.6  34246  291.03 0854.47
2009/04/23 15:36:47.2     330   -330    175    468    499 135.0  21.5  34248  291.05 0854.47
2009/04/23 15:36:47.3     380   -112    168    397    431 106.4  24.3  34268  291.40 0854.47
2009/04/23 15:36:47.4     344   -263    231    434    491 127.4  30.3  34246  291.03 0854.47
2009/04/23 15:36:47.5     327   -325    127    462    480 134.8  15.4  34258  291.25 0854.47
2009/04/23 15:36:47.6     171    -98    -90    198    217 119.8 -30.6  34228  290.74 0854.47
2009/04/23 15:36:47.7     240     73    -72    251    262  73.1 -16.0  34224  290.66 0854.47
2009/04/23 15:36:47.8     285     59    280    292    404  78.3  49.0  34178  289.86 0854.47
2009/04/23 15:36:47.9     244    224    220    332    398  47.4  36.5  34146  289.32 0854.47
2009/04/23 15:36:48.0     317    -23    176    318    363  94.3  31.4  34192  290.10 0854.47
2009/04/23 15:36:48.1     340    139     48    368    372  67.7   7.4  34180  289.91 0854.49
2009/04/23 15:36:48.2     334      2    118    335    356  89.6  19.4  34184  289.99 0854.49
2009/04/23 15:36:48.3     406    -26    191    407    449  93.8  27.1  34200  290.26 0854.49
2009/04/23 15:36:48.4     357      7    230    358    425  88.8  35.6  34238  290.90 0854.49
2009/04/23 15:36:48.5     306    108    162    325    363  70.5  28.4  34202  290.27 0854.49
2009/04/23 15:36:48.6     257     98    179    276    328  69.1  36.0  34216  290.53 0854.49
2009/04/23 15:36:48.7     358      7    267    359    447  88.7  40.4  34228  290.72 0854.49
2009/04/23 15:36:48.8     393     53    279    397    485  82.2  38.6  34208  290.38 0854.49
2009/04/23 15:36:48.9     280     80    270    292    397  74.1  47.7  34248  291.05 0854.49
2009/04/23 15:36:49.0     274     86    217    288    360  72.5  40.7  34258  291.22 0854.49
2009/04/23 15:36:49.1     180     85    248    200    318  64.6  57.1  34228  290.71 0854.49
2009/04/23 15:36:49.2     245     89    210    261    334  70.0  43.0  34186  290.00 0854.49
2009/04/23 15:36:49.3     192    124    181    229    291  57.1  42.4  34192  290.10 0854.49
2009/04/23 15:36:49.4      35    173     82    177    195  11.6  27.0  34198  290.21 0854.49
2009/04/23 15:36:49.5      -5    151     56    152    161 357.8  21.0  34202  290.28 0854.49
2009/04/23 15:36:49.6       8    107      0    108    109   4.4  -0.3  34200  290.25 0854.49
2009/04/23 15:36:49.7     -15    110    -74    112    134 352.0 -40.4  34206  290.35 0854.49
2009/04/23 15:36:49.8    -101    256    -77    276    286 338.4 -20.2  34214  290.49 0854.49
2009/04/23 15:36:49.9     -58    260    -33    267    270 347.3  -7.2  34190  290.07 0854.49
2009/04/23 15:36:50.0     -59    165    -59    176    186 340.2 -18.7  34206  290.36 0854.49
2009/04/23 15:36:50.1      63    144    109    158    191  23.7  37.8  34200  290.26 0854.52
2009/04/23 15:36:50.2      43     78    130     90    158  29.0  62.1  34206  290.36 0854.52
2009/04/23 15:36:50.3     -16    178     75    179    194 354.7  23.8  34206  290.36 0854.52
2009/04/23 15:36:50.4     -49    177     65    184    196 344.4  19.4  34214  290.48 0854.52
2009/04/23 15:36:50.5     -72    148     33    165    169 334.1  11.6  34212  290.45 0854.52
2009/04/23 15:36:50.6    -128     98     20    162    164 307.3   7.2  34206  290.35 0854.52
2009/04/23 15:36:50.7    -169    107     60    201    210 302.4  16.8  34208  290.40 0854.52
2009/04/23 15:36:50.8     -94   -113     72    148    164 219.7  28.0  34204  290.31 0854.52
2009/04/23 15:36:50.9     -73   -133    176    152    232 208.9  54.8  34210  290.41 0854.52
2009/04/23 15:36:51.0     -85   -178    217    198    293 205.5  53.0  34214  290.49 0854.52
2009/04/23 15:36:51.1     -29   -137    141    141    199 192.0  50.1  34210  290.43 0854.52
2009/04/23 15:36:51.2      15   -128     94    129    159 172.9  39.7  34206  290.36 0854.52
2009/04/23 15:36:51.3     -33   -155    113    159    195 192.0  39.1  34202  290.30 0854.52
2009/04/23 15:36:51.4     -20   -106    240    108    263 190.7  74.0  34206  290.35 0854.52
2009/04/23 15:36:51.5    -216   -146    103    261    280 235.9  23.0  34214  290.48 0854.52
2009/04/23 15:36:51.6    -207   -161    121    263    289 232.2  26.6  34204  290.31 0854.52
2009/04/23 15:36:51.7    -336      0    -35    337    339 270.1  -6.0  34208  290.38 0854.52
2009/04/23 15:36:51.9    -560    -64    -25    564    565 263.4  -2.6  34166  289.67 0854.52
2009/04/23 15:36:51.9    -247   -204     -9    321    322 230.4  -1.7  34166  289.66 0854.52
2009/04/23 15:36:52.1    -113   -220    182    248    307 207.2  39.7  34178  289.86 0854.52
2009/04/23 15:36:52.2    -109   -213    250    240    346 207.1  51.3  34186  290.00 0854.51
2009/04/23 15:36:52.3     -37   -113    252    119    278 198.3  73.1  34192  290.10 0854.51
2009/04/23 15:36:52.4     -48    -35    207     60    215 234.0  83.3  34210  290.43 0854.51
2009/04/23 15:36:52.5     -33     17    171     38    175 297.1  88.2  34216  290.52 0854.51
2009/04/23 15:36:52.6    -122    -24    175    125    215 258.5  60.6  34230  290.75 0854.51
2009/04/23 15:36:52.7     -35     56     55     67     86 327.5  43.7  34218  290.57 0854.51
2009/04/23 15:36:52.8     -48   -126     27    135    138 200.9  11.6  34210  290.41 0854.51
2009/04/23 15:36:52.9    -119   -129     87    176    196 222.8  28.2  34216  290.53 0854.51
2009/04/23 15:36:53.0    -297    -80    111    308    328 254.9  19.9  34192  290.12 0854.51
2009/04/23 15:36:53.1    -251     -9    124    252    280 267.9  28.2  34210  290.42 0854.51
2009/04/23 15:36:53.2    -223    -39    114    227    254 259.9  28.5  34204  290.31 0854.52
2009/04/23 15:36:53.3    -285    -56     18    291    292 258.8   3.6  34202  290.29 0854.52
2009/04/23 15:36:53.4    -271   -133    107    303    321 243.8  20.1  34196  290.17 0854.52
2009/04/23 15:36:53.5    -288   -123    128    314    339 246.9  23.4  34196  290.18 0854.52
2009/04/23 15:36:53.6    -187   -151    -71    241    252 231.1 -16.5  34196  290.19 0854.52
2009/04/23 15:36:53.7    -195   -177    -27    264    266 227.8  -6.0  34200  290.26 0854.52
2009/04/23 15:36:53.8    -172   -165    -34    239    242 226.2  -8.2  34194  290.15 0854.52
2009/04/23 15:36:53.9    -199   -112    -26    229    231 240.7  -6.5  34194  290.16 0854.52
2009/04/23 15:36:54.0    -314    -34    -99    316    331 263.8 -22.5  34194  290.14 0854.52
2009/04/23 15:36:54.1    -284    -21    -94    285    300 265.7 -23.8  34186  290.00 0854.52
2009/04/23 15:36:54.2    -263      5    -73    264    275 271.3 -15.5  34170  289.73 0854.52
2009/04/23 15:36:54.3    -263     11    -86    264    278 272.6 -18.1  34172  289.76 0854.52
2009/04/23 15:36:54.4    -324    -71    -50    332    336 257.6  -8.7  34172  289.77 0854.52
2009/04/23 15:36:54.5    -221    -99    -78    243    255 245.8 -22.9  34204  290.31 0854.52
2009/04/23 15:36:54.6    -254   -165   -102    304    320 236.9 -23.6  34190  290.07 0854.52
2009/04/23 15:36:54.7    -208    -69   -137    220    259 251.6 -39.4  34178  289.86 0854.52
2009/04/23 15:36:54.8    -172     27    -48    175    182 279.0 -15.4  34202  290.28 0854.52
2009/04/23 15:36:54.9    -117     -1     -5    118    119 269.1  -2.6  34206  290.35 0854.52
2009/04/23 15:36:55.0    -193     -3    -47    194    200 269.0 -13.7  34204  290.33 0854.52
2009/04/23 15:36:55.1    -271     -3    -88    272    285 269.2 -23.3  34194  290.15 0854.52
2009/04/23 15:36:55.2    -372    -85   -186    382    424 257.0 -32.3  34148  289.38 0854.50
2009/04/23 15:36:55.3    -374   -135   -183    398    438 250.1 -30.7  34172  289.77 0854.50
2009/04/23 15:36:55.4    -305   -105   -104    323    339 251.0 -23.0  34172  289.79 0854.50
2009/04/23 15:36:55.5    -216    -71    -44    228    233 251.8 -11.1  34200  290.26 0854.50
2009/04/23 15:36:55.6    -212    -43    -35    217    220 258.6  -9.3  34196  290.18 0854.50
2009/04/23 15:36:55.7    -204     81    -44    220    225 291.7 -11.3  34204  290.31 0854.50
2009/04/23 15:36:55.8    -179     24    -46    181    187 277.7 -14.3  34188  290.06 0854.50
2009/04/23 15:36:55.9    -165    -45     26    172    175 254.7   8.8  34208  290.40 0854.50
2009/04/23 15:36:56.0     -91     40      0    100    101 294.0  -0.3  34204  290.31 0854.50
2009/04/23 15:36:56.1     -30     19     24     36     43 302.4  37.6  34204  290.33 0854.50
2009/04/23 15:36:56.2      18     78     27     81     86  13.4  18.4  34208  290.38 0854.50
2009/04/23 15:36:56.3      48     43     65     65     91  47.8  50.1  34218  290.57 0854.50
2009/04/23 15:36:56.4      34     76      3     84     85  24.1   2.3  34214  290.50 0854.50
2009/04/23 15:36:56.5      56     26    -37     62     72  64.6 -38.8  34210  290.43 0854.50
2009/04/23 15:36:56.6      71     14    -74     73    103  78.5 -54.1  34214  290.48 0854.50
2009/04/23 15:36:56.7      51    120    -43    131    137  23.2 -23.8  34214  290.48 0854.50
2009/04/23 15:36:56.8     -20     57    -75     61     96 340.8 -60.8  34216  290.52 0854.50
2009/04/23 15:36:56.9       7    101    -56    102    116   4.5 -35.8  34222  290.62 0854.50
2009/04/23 15:36:57.0     -84    149    -24    172    174 330.6  -8.2  34202  290.30 0854.50
2009/04/23 15:36:57.1    -112    159    -59    195    204 324.8 -17.0  34210  290.41 0854.50
2009/04/23 15:36:57.2    -111    248    -29    272    274 335.9  -6.2  34220  290.58 0854.47
2009/04/23 15:36:57.3    -100    213    -84    236    251 334.7 -19.7  34208  290.37 0854.47
2009/04/23 15:36:57.4    -119    134   -142    180    229 318.3 -46.8  34208  290.38 0854.47
2009/04/23 15:36:57.5    -188    205    -85    279    292 317.5 -17.0  34208  290.37 0854.47
2009/04/23 15:36:57.6    -177    118     -8    213    214 303.7  -2.3  34202  290.30 0854.47
2009/04/23 15:36:57.7    -233     57    -34    241    244 283.9  -8.2  34202  290.29 0854.47
2009/04/23 15:36:57.8    -313    152     26    349    350 295.9   4.3  34198  290.23 0854.47
2009/04/23 15:36:57.9    -350    158     59    385    390 294.3   8.7  34198  290.21 0854.47
2009/04/23 15:36:58.0    -355    177     35    397    399 296.6   5.1  34198  290.20 0854.47
2009/04/23 15:36:58.1    -254    149    140    295    326 300.4  27.1  34202  290.27 0854.47
2009/04/23 15:36:58.2    -266    182     87    323    335 304.4  15.1  34202  290.28 0854.47
2009/04/23 15:36:58.3    -319    125    120    343    364 291.5  19.3  34202  290.27 0854.47
2009/04/23 15:36:58.4    -438     14    -20    439    440 271.9  -2.7  34190  290.09 0854.47
2009/04/23 15:36:58.5    -290     99    163    307    347 289.0  30.3  34182  289.94 0854.47
2009/04/23 15:36:58.6    -327    243    131    408    429 306.6  17.8  34196  290.17 0854.47
2009/04/23 15:36:58.7    -258    222     75    341    350 310.8  12.4  34200  290.25 0854.47
2009/04/23 15:36:58.8    -236    218     77    322    332 312.7  13.5  34204  290.31 0854.47
2009/04/23 15:36:58.9    -258    234     98    349    363 312.2  15.7  34202  290.27 0854.47
2009/04/23 15:36:59.0    -292    238     42    377    380 309.2   6.5  34212  290.47 0854.47
2009/04/23 15:36:59.1    -316    177     43    363    366 299.3   6.9  34208  290.37 0854.47
2009/04/23 15:36:59.2    -280     37     94    283    299 277.7  18.5  34214  290.49 0854.45
2009/04/23 15:36:59.3    -234    117     56    262    269 296.6  12.1  34214  290.48 0854.45
2009/04/23 15:36:59.4    -253     80     62    266    274 287.5  13.2  34208  290.37 0854.45
2009/04/23 15:36:59.5    -265     75     63    276    284 285.9  12.9  34224  290.65 0854.45
2009/04/23 15:36:59.6    -325     78     48    335    339 283.6   8.2  34228  290.74 0854.45
2009/04/23 15:36:59.7    -331     65     16    338    339 281.1   2.8  34234  290.83 0854.45
2009/04/23 15:36:59.8    -313     46     70    317    325 278.4  12.5  34224  290.65 0854.45
2009/04/23 15:36:59.9    -242    114     80    268    280 295.2  16.6  34212  290.46 0854.45
2009/04/23 15:37:00.0    -250     93     52    267    273 290.4  11.1  34212  290.44 0854.45
2009/04/23 15:37:00.1    -237     50     66    243    252 281.9  15.3  34224  290.65 0854.45
2009/04/23 15:37:00.2    -237     79     68    251    261 288.6  15.2  34238  290.90 0854.45
2009/04/23 15:37:00.3    -217     16     77    218    232 274.4  19.6  34216  290.52 0854.45
2009/04/23 15:37:00.4    -259     46     72    264    274 280.1  15.3  34202  290.29 0854.45
2009/04/23 15:37:00.5    -180    119    131    217    253 303.5  34.2  34220  290.58 0854.45
2009/04/23 15:37:00.6    -219    -28    127    221    254 262.5  32.4  34226  290.68 0854.45
2009/04/23 15:37:00.7    -217     52     79    224    238 283.5  19.4  34224  290.65 0854.45
2009/04/23 15:37:00.8    -232     65     98    242    261 285.7  23.1  34224  290.65 0854.45
2009/04/23 15:37:00.9    -238     -3    -25    239    241 269.2  -6.1  34222  290.61 0854.45
2009/04/23 15:37:01.0    -282     48      3    287    288 279.7   0.7  34232  290.78 0854.45
2009/04/23 15:37:01.1    -259     34      3    262    263 277.5   0.7  34230  290.76 0854.45
2009/04/23 15:37:01.2    -230     60     -9    238    239 284.6  -2.2  34226  290.70 0854.46
2009/04/23 15:37:01.3    -293    -72    -38    302    305 256.1  -7.2  34186  290.02 0854.46
2009/04/23 15:37:01.4    -298   -142      5    331    332 244.5   1.0  34172  289.79 0854.46
2009/04/23 15:37:01.5    -299    -98    -13    315    316 251.8  -2.5  34166  289.68 0854.46
2009/04/23 15:37:01.6    -208   -100    -12    231    232 244.2  -3.2  34168  289.72 0854.46
2009/04/23 15:37:01.7    -150   -162     38    221    225 222.8   9.9  34186  290.02 0854.46
2009/04/23 15:37:01.8    -147   -218    -19    264    265 214.1  -4.1  34176  289.85 0854.46
2009/04/23 15:37:01.9    -191   -328    -20    380    381 210.2  -3.1  34158  289.54 0854.46
2009/04/23 15:37:02.0    -256   -289    -71    387    394 221.5 -10.5  34160  289.57 0854.46
2009/04/23 15:37:02.1    -208   -214    -38    299    302 224.1  -7.3  34172  289.78 0854.46
2009/04/23 15:37:02.2    -165   -220   -110    275    296 216.9 -27.4  34172  289.76 0854.46
2009/04/23 15:37:02.3    -235   -165   -142    288    321 235.0 -32.8  34170  289.75 0854.46
2009/04/23 15:37:02.4    -273    -33   -118    276    300 263.0 -29.0  34168  289.70 0854.46
2009/04/23 15:37:02.5    -277     -4   -155    278    318 269.1 -36.0  34170  289.75 0854.46
2009/04/23 15:37:02.6    -138    -55    -94    149    176 248.2 -39.9  34168  289.72 0854.46
2009/04/23 15:37:02.7     -97   -155    -76    184    199 212.1 -28.0  34160  289.57 0854.46
2009/04/23 15:37:02.8    -205   -147   -120    253    280 234.3 -31.6  34168  289.70 0854.46
2009/04/23 15:37:02.9    -168   -456   -148    487    508 200.3 -21.8  34170  289.73 0854.46
2009/04/23 15:37:03.0    -124   -408   -125    427    446 197.0 -16.4  34160  289.58 0854.46
2009/04/23 15:37:03.1    -189   -369   -133    415    435 207.1 -22.9  34168  289.72 0854.48
2009/04/23 15:37:03.2    -173   -431    -98    465    476 201.9 -11.9  34174  289.81 0854.48
2009/04/23 15:37:03.3    -166   -219   -187    275    332 217.2 -42.0  34162  289.61 0854.48
2009/04/23 15:37:03.4     -75   -467   -213    474    519 189.2 -30.2  34198  290.20 0854.48
2009/04/23 15:37:03.5     -95   -393   -137    405    428 193.7 -18.7  34204  290.31 0854.48
2009/04/23 15:37:03.6     -50   -354    173    358    397 188.1  27.8  34218  290.54 0854.48
2009/04/23 15:37:03.7     -61   -248    -60    256    263 193.8 -13.3  34204  290.31 0854.48
2009/04/23 15:37:03.8     -30   -197    -23    200    202 188.7  -6.7  34214  290.50 0854.48
2009/04/23 15:37:03.9      41   -369    -34    372    374 173.5  -5.4  34194  290.15 0854.48
2009/04/23 15:37:04.0      65   -414    -85    420    429 171.0 -11.6  34188  290.05 0854.48
2009/04/23 15:37:04.1      90   -351    -59    363    368 165.6  -9.4  34188  290.03 0854.48
2009/04/23 15:37:04.2      65   -463      3    468    469 171.9   0.4  34196  290.17 0854.48
2009/04/23 15:37:04.3    -170   -321    119    364    384 207.9  18.2  34202  290.28 0854.48
2009/04/23 15:37:04.4    -120   -251    116    279    302 205.5  23.6  34196  290.19 0854.48
2009/04/23 15:37:04.5     -29   -184    154    187    242 189.1  43.7  34210  290.41 0854.48
2009/04/23 15:37:04.6      -6   -208    155    209    260 181.8  40.4  34212  290.46 0854.48
2009/04/23 15:37:04.7     -36   -296    137    299    328 187.1  26.4  34210  290.42 0854.48
2009/04/23 15:37:04.8      42   -343    129    346    369 173.0  21.3  34238  290.88 0854.48
2009/04/23 15:37:04.9      62   -235    102    244    264 165.1  24.1  34228  290.71 0854.48
2009/04/23 15:37:05.0     160   -307    121    347    368 152.5  19.3  34206  290.35 0854.48
2009/04/23 15:37:05.1      79   -232    181    246    305 161.1  39.7  34198  290.20 0854.49
2009/04/23 15:37:05.2       7   -239    212    240    320 178.2  46.2  34208  290.39 0854.49
2009/04/23 15:37:05.3     -13   -261    210    262    335 182.9  42.9  34208  290.39 0854.49
2009/04/23 15:37:05.4      42   -281    183    285    338 171.5  35.6  34220  290.59 0854.49
2009/04/23 15:37:05.5      59   -211    169    220    277 164.2  41.6  34216  290.51 0854.49
2009/04/23 15:37:05.6      61   -346    189    352    399 170.0  30.6  34224  290.66 0854.49
2009/04/23 15:37:05.7       0   -264    151    265    305 179.9  32.3  34234  290.82 0854.49
2009/04/23 15:37:05.8     -33   -261    186    264    322 187.2  38.7  34236  290.85 0854.49
2009/04/23 15:37:05.9      45   -264    189    268    327 170.2  38.6  34242  290.97 0854.49
2009/04/23 15:37:06.0      45   -322    114    326    346 171.9  19.4  34212  290.47 0854.49
2009/04/23 15:37:06.1      45   -316     53    320    325 171.9   9.5  34198  290.20 0854.49
2009/04/23 15:37:06.2      14   -324     10    325    326 177.4   1.9  34192  290.12 0854.49
2009/04/23 15:37:06.3      74   -252     95    263    280 163.5  19.9  34222  290.63 0854.49
2009/04/23 15:37:06.4      16   -218    103    219    242 175.8  27.0  34210  290.42 0854.49
2009/04/23 15:37:06.5      -8   -194    112    195    224 182.5  32.4  34214  290.50 0854.49
2009/04/23 15:37:06.6      -2   -153    127    154    199 180.9  43.7  34194  290.16 0854.49
2009/04/23 15:37:06.7      10   -140    110    141    178 175.5  42.0  34194  290.14 0854.49
2009/04/23 15:37:06.8      20    -37    109     43    117 151.0  77.6  34214  290.50 0854.49
2009/04/23 15:37:06.9     -28    -19    130     34    134 235.8  84.9  34228  290.74 0854.49
2009/04/23 15:37:07.0     -70     34     87     79    117 296.2  52.7  34234  290.84 0854.49
2009/04/23 15:37:07.1     -57    103     81    118    143 331.0  37.6  34226  290.69 0854.50
2009/04/23 15:37:07.2     -77     76     63    109    125 314.6  33.4  34222  290.64 0854.50
2009/04/23 15:37:07.3     -95     55     34    111    117 300.2  17.3  34218  290.55 0854.50
2009/04/23 15:37:07.4    -139     74     29    158    161 298.0  10.6  34210  290.43 0854.50
2009/04/23 15:37:07.5    -122     58     21    136    138 295.3   8.9  34208  290.38 0854.50
2009/04/23 15:37:07.6    -154    128     75    201    214 309.6  21.3  34204  290.33 0854.50
2009/04/23 15:37:07.7    -189    139    109    236    259 306.4  26.4  34210  290.42 0854.50
2009/04/23 15:37:07.8    -295    139     33    327    329 295.2   5.8  34216  290.51 0854.50
2009/04/23 15:37:07.9    -421      5    -23    422    423 270.8  -3.1  34226  290.68 0854.50
2009/04/23 15:37:08.0    -291    -22    -89    292    306 265.7 -16.9  34234  290.82 0854.50
2009/04/23 15:37:08.1    -277    -94     -6    293    294 251.2  -1.3  34216  290.53 0854.50
2009/04/23 15:37:08.2    -306     32     44    308    312 276.1   8.2  34216  290.51 0854.50
2009/04/23 15:37:08.3    -259    154     15    302    303 300.7   2.9  34212  290.46 0854.50
2009/04/23 15:37:08.4    -197    169     36    260    263 310.7   8.0  34210  290.41 0854.50
2009/04/23 15:37:08.5    -193    154     14    248    249 308.6   3.3  34202  290.29 0854.50
2009/04/23 15:37:08.6    -192    136    -21    236    237 305.3  -5.2  34202  290.29 0854.50
2009/04/23 15:37:08.7    -182     35    -16    186    187 281.0  -5.2  34214  290.50 0854.50
2009/04/23 15:37:08.8    -131     95    -53    163    171 306.0 -23.6  34202  290.30 0854.50
2009/04/23 15:37:08.9     -33    142     -4    146    147 346.7  -1.8  34198  290.23 0854.50
2009/04/23 15:37:09.0     -89     33     29     96    101 290.4  16.8  34214  290.50 0854.50
2009/04/23 15:37:09.1     -74     95     47    121    129 322.2  22.0  34202  290.28 0854.50
2009/04/23 15:37:09.2    -125    149     60    195    205 319.9  17.1  34196  290.19 0854.50
2009/04/23 15:37:09.3    -122     93     61    154    165 307.3  22.5  34190  290.08 0854.50
2009/04/23 15:37:09.4    -218    110     18    245    246 296.9   4.4  34196  290.17 0854.50
2009/04/23 15:37:09.5    -245    134    -33    280    283 298.6  -6.9  34208  290.37 0854.50
2009/04/23 15:37:09.6    -205     29    -68    208    218 278.1 -23.6  34218  290.55 0854.50
2009/04/23 15:37:09.7    -137    -78     23    158    160 240.2   8.5  34214  290.50 0854.50
2009/04/23 15:37:09.8     -58    -15    -33     61     69 254.9 -35.7  34210  290.41 0854.50
2009/04/23 15:37:09.9    -103     16     -8    105    106 278.8  -4.6  34212  290.45 0854.50
2009/04/23 15:37:10.0     -24     38      3     46     47 327.4   3.8  34212  290.47 0854.50
2009/04/23 15:37:10.1      18     -6     45     19     48 108.4  77.1  34220  290.58 0854.50
2009/04/23 15:37:10.2     -32     -8    -18     34     38 254.9 -33.7  34212  290.45 0854.50
2009/04/23 15:37:10.3    -125    -69    -93    143    170 241.1 -40.4  34206  290.36 0854.50
2009/04/23 15:37:10.4    -164    -18    -46    166    173 263.6 -15.5  34202  290.28 0854.50
2009/04/23 15:37:10.5    -262    -16    -18    263    264 266.5  -4.1  34188  290.05 0854.50
2009/04/23 15:37:10.6    -230     44    -71    235    245 281.0 -21.8  34174  289.80 0854.50
2009/04/23 15:37:10.7    -183    100     27    209    211 298.8   7.5  34162  289.60 0854.50
2009/04/23 15:37:10.8    -265     84    -77    279    290 287.7 -15.5  34180  289.92 0854.50
2009/04/23 15:37:10.9    -170    199    -88    262    276 319.5 -23.3  34194  290.15 0854.50
2009/04/23 15:37:11.0     -96    251    -85    269    282 339.0 -22.8  34196  290.19 0854.50
2009/04/23 15:37:11.1    -250    193   -178    316    362 307.7 -36.3  34208  290.38 0854.52
2009/04/23 15:37:11.2    -209    271     14    343    344 322.3   2.3  34200  290.25 0854.52
2009/04/23 15:37:11.3    -254    184    -97    315    330 306.0 -17.2  34204  290.31 0854.52
2009/04/23 15:37:11.4    -390    251   -157    464    489 302.8 -23.7  34156  289.50 0854.52
2009/04/23 15:37:11.5    -364    293   -204    468    510 308.8 -29.5  34166  289.66 0854.52
2009/04/23 15:37:11.6    -245    386   -241    458    517 327.5 -34.4  34154  289.47 0854.52
2009/04/23 15:37:11.7    -312    421   -155    525    548 323.5 -16.5  34166  289.67 0854.52
2009/04/23 15:37:11.8    -399    240     14    466    467 301.0   1.8  34216  290.51 0854.52
2009/04/23 15:37:11.9    -256    163    -33    304    306 302.5  -6.2  34192  290.10 0854.52
2009/04/23 15:37:12.0    -313    185   -106    364    379 300.6 -21.1  34186  290.01 0854.52
2009/04/23 15:37:12.1    -494    174   -153    524    545 289.4 -21.1  34166  289.68 0854.52
2009/04/23 15:37:12.2    -590     77    -98    595    604 277.5  -9.4  34182  289.95 0854.52
2009/04/23 15:37:12.3    -431     97     -9    442    443 282.8  -1.3  34212  290.46 0854.52
2009/04/23 15:37:12.4    -372    124     41    393    396 288.4   6.0  34208  290.40 0854.52
2009/04/23 15:37:12.5    -226     33      9    229    230 278.4   2.3  34192  290.11 0854.52
2009/04/23 15:37:12.6    -218      3    -53    219    226 270.9 -13.7  34214  290.48 0854.52
2009/04/23 15:37:12.7    -222     38     45    226    231 279.7  11.4  34216  290.53 0854.52
2009/04/23 15:37:12.8    -162     62     72    174    188 291.1  23.6  34212  290.45 0854.52
2009/04/23 15:37:12.9    -149    279    188    317    368 331.9  33.5  34202  290.30 0854.52
2009/04/23 15:37:13.0    -429     49     39    432    434 276.6   5.2  34218  290.56 0854.52
2009/04/23 15:37:13.1    -359     26    -20    360    361 274.3  -3.3  34208  290.40 0854.54
2009/04/23 15:37:13.2    -407    -44   -117    410    427 263.8 -16.0  34212  290.46 0854.54
2009/04/23 15:37:13.3    -288   -176   -106    338    355 238.5 -17.5  34198  290.21 0854.54
2009/04/23 15:37:13.4    -193   -193    -83    273    285 225.0 -21.8  34202  290.29 0854.54
2009/04/23 15:37:13.5    -162   -184   -183    246    306 221.4 -44.5  34212  290.46 0854.54
2009/04/23 15:37:13.6    -103   -233   -158    255    299 203.8 -39.4  34210  290.42 0854.54
2009/04/23 15:37:13.7      71   -367   -184    374    416 169.0 -32.6  34208  290.39 0854.54
2009/04/23 15:37:13.8     213   -276   -186    349    395 142.4 -34.7  34214  290.49 0854.54
2009/04/23 15:37:13.9     -14   -469    -10    470    471 181.8  -1.3  34212  290.47 0854.54
2009/04/23 15:37:14.0     239   -328   -157    407    436 143.9 -26.6  34210  290.43 0854.54
2009/04/23 15:37:14.1     141   -180   -181    230    292 141.9 -46.6  34202  290.29 0854.54
2009/04/23 15:37:14.2       5   -314   -266    315    412 179.0 -48.8  34202  290.30 0854.54
2009/04/23 15:37:14.3     -77   -437    -47    444    447 190.0  -6.1  34208  290.38 0854.54
2009/04/23 15:37:14.4     -24   -323    -10    324    325 184.3  -1.9  34206  290.36 0854.54
2009/04/23 15:37:14.5     -60   -272    155    279    319 192.5  31.5  34220  290.58 0854.54
2009/04/23 15:37:14.6     -74   -433    163    440    469 189.7  21.3  34190  290.09 0854.54
2009/04/23 15:37:14.7    -119   -581    489    594    769 191.6  43.7  34192  290.10 0854.54
2009/04/23 15:37:14.8    -154   -463    453    489    666 198.5  47.6  34196  290.19 0854.54
2009/04/23 15:37:14.9      17   -242    438    243    500 175.8  68.8  34194  290.14 0854.54
2009/04/23 15:37:15.0    -161   -290    203    332    389 209.1  34.6  34192  290.10 0854.54
2009/04/23 15:37:15.1      47   -103    209    114    238 155.5  69.1  34182  289.96 0854.54
2009/04/23 15:37:15.2    -395    117    259    413    487 286.5  35.2  34194  290.14 0854.54
2009/04/23 15:37:15.3     -39   -324    385    327    505 187.0  55.5  34190  290.09 0854.54
2009/04/23 15:37:15.4     -28   -383    477    384    612 184.3  57.1  34182  289.94 0854.54
2009/04/23 15:37:15.5      37   -241    347    244    424 171.1  61.5  34180  289.91 0854.54
2009/04/23 15:37:15.6      73   -148    283    166    328 153.7  67.0  34180  289.90 0854.54
2009/04/23 15:37:15.7    -282     49    112    287    308 279.9  22.5  34180  289.92 0854.54
2009/04/23 15:37:15.8     -68     94    186    117    219 323.9  64.7  34184  289.99 0854.54
2009/04/23 15:37:15.9    -323     30    238    325    402 275.3  39.9  34194  290.15 0854.54
2009/04/23 15:37:16.0    -250     14    217    251    331 273.3  45.4  34192  290.10 0854.54
2009/04/23 15:37:16.1    -222   -170    207    280    348 232.5  40.1  34188  290.05 0854.54
2009/04/23 15:37:16.2    -104   -134    201    170    263 217.8  55.6  34182  289.95 0854.54
2009/04/23 15:37:16.3    -187   -316    173    368    406 210.7  27.1  34178  289.86 0854.54
2009/04/23 15:37:16.4    -248   -108     95    271    288 246.3  19.4  34186  290.02 0854.54
2009/04/23 15:37:16.5    -289    146    255    325    413 296.9  42.2  34188  290.04 0854.54
2009/04/23 15:37:16.6       0      1    198      2    198 350.3  90.0  34196  290.18 0854.54
2009/04/23 15:37:16.7     120     48    110    130    170  68.2  44.5  34184  289.99 0854.54
2009/04/23 15:37:16.8     130     83    176    155    234  57.6  54.3  34192  290.11 0854.54
2009/04/23 15:37:16.9       9    189    121    190    225   2.9  35.5  34186  290.02 0854.54
2009/04/23 15:37:17.0     -48     85    161     98    188 330.6  65.7  34196  290.19 0854.54
2009/04/23 15:37:17.1      92    -12    156     93    181  97.5  66.8  34198  290.21 0854.54
2009/04/23 15:37:17.2     -89    -95    220    131    256 223.2  66.7  34212  290.47 0854.54
2009/04/23 15:37:17.3     -77   -238    175    251    305 198.0  38.4  34206  290.36 0854.54
2009/04/23 15:37:17.4     -90   -147    159    173    234 211.4  47.5  34204  290.31 0854.54
2009/04/23 15:37:17.5      77   -100     60    127    140 142.6  27.1  34200  290.25 0854.54
2009/04/23 15:37:17.6     215   -102    123    238    267 115.4  29.3  34190  290.09 0854.54
2009/04/23 15:37:17.7     261   -111    152    284    322 113.1  30.6  34184  289.98 0854.54
2009/04/23 15:37:17.8     176     -2    315    177    361  90.8  68.4  34184  289.97 0854.54
2009/04/23 15:37:17.9     254   -130    281    286    400 117.1  49.8  34198  290.20 0854.54
2009/04/23 15:37:18.0     347    -66   -124    354    376 100.9 -19.3  34192  290.13 0854.54
2009/04/23 15:37:18.1     440   -174    -51    474    477 111.6  -6.2  34198  290.22 0854.55
2009/04/23 15:37:18.2     428   -210    -31    477    478 116.2  -3.7  34196  290.17 0854.55
2009/04/23 15:37:18.4     371   -337    -91    502    511 132.3 -10.3  34198  290.20 0854.55
2009/04/23 15:37:18.5     417   -292      1    510    511 125.0   0.2  34190  290.08 0854.55
2009/04/23 15:37:18.6     457    -74    140    464    485  99.2  16.8  34180  289.91 0854.55
2009/04/23 15:37:18.7     488   -128    222    505    551 104.7  25.2  34160  289.58 0854.55
2009/04/23 15:37:18.7     562   -140    174    580    606 104.1  16.7  34182  289.95 0854.55
2009/04/23 15:37:18.9     523   -108    351    535    639 101.7  36.4  34166  289.68 0854.55
2009/04/23 15:37:19.0     417   -196    492    461    674 115.2  52.2  34184  289.98 0854.55
2009/04/23 15:37:19.1     169   -226    383    283    476 143.3  60.0  34176  289.85 0854.55
2009/04/23 15:37:19.2     474   -367    371    600    705 127.7  34.6  34158  289.54 0854.55
2009/04/23 15:37:19.3     674   -349    134    760    772 117.4  10.0  34160  289.58 0854.55
2009/04/23 15:37:19.4     478     74    -89    484    493  81.1 -10.5  34140  289.23 0854.55
2009/04/23 15:37:19.5     402     81    -22    411    412  78.6  -3.2  34136  289.16 0854.55
2009/04/23 15:37:19.6     265    352     65    441    446  37.0   8.5  34154  289.48 0854.55
2009/04/23 15:37:19.7     358    483   -131    602    617  36.5 -12.3  34148  289.36 0854.55
2009/04/23 15:37:19.8     359    344   -197    498    535  46.2 -27.3  34156  289.51 0854.55
2009/04/23 15:37:19.9     215    321   -136    387    411  33.9 -19.4  34172  289.78 0854.55
2009/04/23 15:37:20.0     146    286    -94    322    336  27.1 -16.4  34172  289.79 0854.55
2009/04/23 15:37:20.1     182    326    -26    374    375  29.3  -4.1  34156  289.50 0854.55
2009/04/23 15:37:20.2     146    266    116    304    325  28.7  21.8  34166  289.68 0854.54
2009/04/23 15:37:20.3      -6     97    222     98    242 356.4  74.9  34184  289.99 0854.54
2009/04/23 15:37:20.4      29     79    233     85    248  20.0  79.2  34172  289.77 0854.54
2009/04/23 15:37:20.5     -53    243    308    249    396 347.6  57.1  34162  289.59 0854.54
2009/04/23 15:37:20.6     -52    241    218    247    329 347.7  46.1  34156  289.49 0854.54
2009/04/23 15:37:20.7     -33    137    188    142    235 346.2  59.2  34156  289.52 0854.54
2009/04/23 15:37:20.8     -13    168    163    169    234 355.5  49.0  34152  289.43 0854.54
2009/04/23 15:37:20.9     -99    102    135    143    196 315.9  48.2  34160  289.57 0854.54
2009/04/23 15:37:21.0     -61     80    164    101    192 322.6  65.1  34166  289.69 0854.54
2009/04/23 15:37:21.1    -117    125    145    172    224 317.0  44.1  34168  289.72 0854.54
2009/04/23 15:37:21.2      71    -47     87     86    122 123.3  50.1  34182  289.94 0854.54
2009/04/23 15:37:21.3      -5     -5     48      8     48 225.0  90.0  34186  290.01 0854.54
2009/04/23 15:37:21.4      16     15    -12     23     25  46.9 -33.7  34180  289.91 0854.54
2009/04/23 15:37:21.5      55      0     26     56     61  90.0  27.1  34182  289.94 0854.54
2009/04/23 15:37:21.6    -168    212   -110    271    292 321.5 -27.5  34178  289.86 0854.54
2009/04/23 15:37:21.7     -94    261   -224    278    357 340.2 -47.4  34166  289.69 0854.54
2009/04/23 15:37:21.8    -181    236   -284    298    411 322.4 -52.9  34104  288.64 0854.54
2009/04/23 15:37:21.9     -74    428   -265    435    509 350.1 -38.5  34158  289.54 0854.54
2009/04/23 15:37:22.0     331    471    -66    576    580  35.1  -6.6  34190  290.08 0854.54
2009/04/23 15:37:22.1     217    309     47    378    381  35.1   7.1  34188  290.06 0854.54
2009/04/23 15:37:22.2      69    369    169    376    412  10.6  25.9  34204  290.33 0854.51
2009/04/23 15:37:22.3      70    401    230    408    468   9.9  32.0  34284  291.67 0854.51
2009/04/23 15:37:22.4     130    512    337    529    627  14.3  35.6  34298  291.90 0854.51
2009/04/23 15:37:22.5    -109    395    161    410    440 344.5  22.8  34252  291.14 0854.51
2009/04/23 15:37:22.6      93    306     96    320    335  16.9  16.8  34270  291.44 0854.51
2009/04/23 15:37:22.7     195    209     22    287    288  43.0   4.6  34264  291.33 0854.51
2009/04/23 15:37:22.8     260    161    123    307    330  58.2  23.0  34230  290.76 0854.51
2009/04/23 15:37:22.9     175    111     77    208    221  57.5  21.0  34248  291.08 0854.51
2009/04/23 15:37:23.0      94    261     70    278    287  20.0  14.3  34262  291.31 0854.51
2009/04/23 15:37:23.1     152    251    -42    294    298  31.2  -8.2  34242  290.97 0854.51
2009/04/23 15:37:23.2     263    155    134    306    334  59.4  25.2  34240  290.92 0854.51
2009/04/23 15:37:23.3     351    166    178    389    427  64.7  26.3  34246  291.02 0854.51
2009/04/23 15:37:23.4     116    133    223    177    284  41.0  57.5  34272  291.46 0854.51
2009/04/23 15:37:23.5     262    196    249    328    411  53.1  40.9  34228  290.72 0854.51
2009/04/23 15:37:23.6     457    199     15    499    500  66.4   1.8  34188  290.06 0854.51
2009/04/23 15:37:23.7     341    201     72    396    403  59.5  10.4  34202  290.30 0854.51
2009/04/23 15:37:23.8     273    114    141    296    327  67.3  27.3  34184  289.98 0854.51
2009/04/23 15:37:23.9     322    193    150    376    404  59.0  23.0  34202  290.30 0854.51
2009/04/23 15:37:24.0     238    178    214    298    366  53.1  39.3  34192  290.11 0854.51
2009/04/23 15:37:24.1     342    114    296    361    466  71.4  43.7  34208  290.38 0854.51
2009/04/23 15:37:24.2     108    101    323    149    355  46.9  73.6  34278  291.56 0854.48
2009/04/23 15:37:24.3     231    -39    159    235    283  99.7  37.4  34216  290.53 0854.48
2009/04/23 15:37:24.4     308    -52     80    313    324  99.7  14.4  34216  290.53 0854.48
2009/04/23 15:37:24.5     364   -117     25    383    384 107.9   3.8  34216  290.52 0854.48
2009/04/23 15:37:24.6     326    -26     83    328    339  94.7  14.3  34226  290.69 0854.48
2009/04/23 15:37:24.7     421      6      6    422    423  89.1   0.8  34208  290.39 0854.48
2009/04/23 15:37:24.8     574    155    -13    595    596  74.8  -1.3  34216  290.51 0854.48
2009/04/23 15:37:24.9     461     20    -24    462    463  87.5  -3.0  34220  290.58 0854.48
2009/04/23 15:37:25.0     480     76     60    487    491  81.0   7.1  34216  290.51 0854.48
2009/04/23 15:37:25.1     416    175     46    452    455  67.2   5.9  34228  290.73 0854.48
2009/04/23 15:37:25.2     505     59     37    509    511  83.3   4.2  34208  290.37 0854.48
2009/04/23 15:37:25.3     418    -31    103    420    433  94.3  13.8  34198  290.21 0854.48
2009/04/23 15:37:25.4     482     87     33    490    492  79.7   3.9  34178  289.86 0854.48
2009/04/23 15:37:25.5     362     66     72    368    376  79.6  11.1  34190  290.08 0854.48
2009/04/23 15:37:25.6     493    -25    106    494    506  93.0  12.1  34226  290.68 0854.48
2009/04/23 15:37:25.7     439    -21     89    440    449  92.8  11.5  34232  290.78 0854.48
2009/04/23 15:37:25.8     458    -66    150    463    487  98.3  18.0  34258  291.22 0854.48
2009/04/23 15:37:25.9     416   -211     91    467    477 117.0  11.1  34224  290.66 0854.48
2009/04/23 15:37:26.0     297   -227     94    374    386 127.4  14.2  34216  290.52 0854.48
2009/04/23 15:37:26.1     319   -202     47    378    381 122.4   7.1  34208  290.40 0854.48
2009/04/23 15:37:26.2     269   -170     65    319    326 122.2  11.6  34202  290.29 0854.46
2009/04/23 15:37:26.3     228   -221    117    318    338 134.0  21.1  34214  290.49 0854.46
2009/04/23 15:37:26.4     235   -154    115    282    304 123.3  23.1  34218  290.54 0854.46
2009/04/23 15:37:26.5     293   -109    -39    313    316 110.4  -7.2  34202  290.27 0854.46
2009/04/23 15:37:26.6     368   -110   -115    385    402 106.6 -16.6  34202  290.27 0854.46
2009/04/23 15:37:26.7     379    -88    -41    390    393 103.2  -6.1  34208  290.38 0854.46
2009/04/23 15:37:26.8     353    -90     -7    365    366 104.3  -1.2  34208  290.40 0854.46
2009/04/23 15:37:26.9     294    -40      0    297    298  97.9   0.0  34220  290.58 0854.46
2009/04/23 15:37:27.0     298     -8    119    299    321  91.7  22.8  34232  290.80 0854.46
2009/04/23 15:37:27.1     286    -71     52    295    300 104.1  10.0  34192  290.12 0854.46
2009/04/23 15:37:27.2     180   -116    -20    215    217 122.9  -5.4  34188  290.06 0854.46
2009/04/23 15:37:27.3      97    -55     58    112    126 119.8  29.3  34186  290.02 0854.46
2009/04/23 15:37:27.4      53    -49     86     73    112 133.1  55.8  34190  290.09 0854.46
2009/04/23 15:37:27.5       6     16    101     18    102  21.8  90.0  34230  290.77 0854.46
2009/04/23 15:37:27.6     -68     83     76    108    132 320.8  38.6  34226  290.70 0854.46
2009/04/23 15:37:27.7     -56     77     55     96    110 323.9  32.4  34220  290.60 0854.46
2009/04/23 15:37:27.8     -99     87     36    133    138 311.3  15.3  34220  290.58 0854.46
2009/04/23 15:37:27.9    -190    121     11    226    227 302.4   2.8  34212  290.47 0854.46
2009/04/23 15:37:28.0    -177    228    -10    289    290 322.2  -2.1  34224  290.66 0854.46
2009/04/23 15:37:28.1    -207    275     16    345    346 323.0   2.8  34220  290.60 0854.46
2009/04/23 15:37:28.2    -318    112    -84    338    349 289.4 -14.1  34180  289.91 0854.46
2009/04/23 15:37:28.3    -357    -41   -104    360    374 263.4 -21.0  34128  289.03 0854.46
2009/04/23 15:37:28.4    -394     -6    -61    395    400 269.1  -8.8  34148  289.37 0854.46
2009/04/23 15:37:28.5    -352    -20    -94    353    366 266.7 -15.0  34136  289.16 0854.46
2009/04/23 15:37:28.6    -200    -14    -47    201    207 265.9 -13.2  34154  289.48 0854.46
2009/04/23 15:37:28.7    -219     85    -52    236    242 291.3 -12.6  34178  289.88 0854.46
2009/04/23 15:37:28.8    -230     75    -73    243    254 288.2 -16.8  34186  290.02 0854.46
2009/04/23 15:37:28.9    -141    170     18    222    223 320.4   4.9  34184  289.99 0854.46
2009/04/23 15:37:29.0    -114    -16    111    116    160 261.6  48.7  34198  290.23 0854.46
2009/04/23 15:37:29.1    -189    -26     66    191    203 262.0  19.2  34212  290.47 0854.46
2009/04/23 15:37:29.2    -213   -161    -80    268    280 232.9 -16.6  34152  289.44 0854.46
2009/04/23 15:37:29.3    -288   -196    -85    349    360 235.8 -13.8  34146  289.35 0854.46
2009/04/23 15:37:29.4    -539    -41   -256    541    598 265.6 -31.5  34138  289.20 0854.46
2009/04/23 15:37:29.5    -483    -58   -193    487    523 263.1 -27.3  34136  289.18 0854.46
2009/04/23 15:37:29.6    -610   -206   -191    645    672 251.3 -21.4  34150  289.41 0854.46
2009/04/23 15:37:29.7    -724   -276   -219    776    807 249.1 -15.8  34142  289.27 0854.46
2009/04/23 15:37:29.8    -620   -261   -321    673    745 247.2 -31.7  34146  289.32 0854.46
2009/04/23 15:37:29.9    -635   -263   -478    688    837 247.5 -42.7  34142  289.27 0854.46
2009/04/23 15:37:30.0    -466   -125   -562    483    741 255.0 -59.4  34178  289.88 0854.46
2009/04/23 15:37:30.1    -479    190   -362    516    630 291.7 -42.9  34184  289.98 0854.47
2009/04/23 15:37:30.2    -619     83   -198    625    656 277.7 -17.6  34188  290.03 0854.47
2009/04/23 15:37:30.3    -603     46   -147    605    623 274.4 -13.7  34176  289.84 0854.47
2009/04/23 15:37:30.4    -429    -62   -146    434    459 261.7 -18.6  34180  289.92 0854.47
2009/04/23 15:37:30.5    -531    -80   -152    538    560 261.4 -15.8  34172  289.77 0854.47
2009/04/23 15:37:30.6    -456    -66   -335    461    569 261.7 -44.1  34150  289.41 0854.47
2009/04/23 15:37:30.7    -528   -109   -260    540    599 258.3 -31.8  34160  289.56 0854.47
2009/04/23 15:37:30.8    -578   -284   -415    645    766 243.8 -40.1  34148  289.37 0854.47
2009/04/23 15:37:30.9    -472   -404   -492    622    793 229.5 -46.8  34162  289.60 0854.47
2009/04/23 15:37:31.0    -630   -364   -235    728    764 240.0 -22.9  34168  289.70 0854.47
2009/04/23 15:37:31.1    -768    -92   -241    774    810 263.1 -22.3  34172  289.76 0854.47
2009/04/23 15:37:31.2    -545   -225   -209    590    626 247.6 -19.5  34182  289.94 0854.47
2009/04/23 15:37:31.3    -557   -261   -173    616    639 244.9 -20.4  34172  289.79 0854.47
2009/04/23 15:37:31.4    -383   -410    -12    562    563 223.0  -1.3  34194  290.14 0854.47
2009/04/23 15:37:31.5    -392   -393   -164    556    579 224.9 -21.2  34186  290.02 0854.47
2009/04/23 15:37:31.6    -643   -232   -239    684    725 250.1 -19.3  34164  289.64 0854.47
2009/04/23 15:37:31.7    -706   -286   -259    763    805 247.9 -23.9  34180  289.91 0854.47
2009/04/23 15:37:31.8    -690    -33   -409    691    802 267.2 -37.8  34148  289.36 0854.47
2009/04/23 15:37:31.9    -588   -118   -407    600    725 258.6 -41.8  34156  289.49 0854.47
2009/04/23 15:37:32.0    -587   -216   -352    626    718 249.8 -36.4  34154  289.46 0854.47
2009/04/23 15:37:32.1    -496   -263   -200    562    596 242.0 -24.8  34176  289.85 0854.48
2009/04/23 15:37:32.2    -504   -118   -113    518    531 256.7 -12.4  34186  290.01 0854.48
2009/04/23 15:37:32.3    -833   -168   -301    850    902 258.6 -19.5  34142  289.27 0854.48
2009/04/23 15:37:32.4    -676   -170   -291    698    756 255.8 -28.5  34152  289.45 0854.48
2009/04/23 15:37:32.5    -602   -222   -212    642    676 249.7 -23.6  34144  289.31 0854.48
2009/04/23 15:37:32.6    -669    -50   -240    671    712 265.7 -25.0  34136  289.15 0854.48
2009/04/23 15:37:32.7    -655     52   -199    658    687 274.6 -21.7  34150  289.41 0854.48
2009/04/23 15:37:32.8    -488     36   -248    490    549 274.3 -33.5  34146  289.33 0854.48
2009/04/23 15:37:32.9    -685     27   -215    686    718 272.3 -22.4  34166  289.66 0854.48
2009/04/23 15:37:33.0    -509   -180   -187    540    571 250.5 -24.3  34190  290.07 0854.48
2009/04/23 15:37:33.1    -212   -212   -173    300    346 225.0 -37.0  34192  290.13 0854.48
2009/04/23 15:37:33.2     -50   -163   -136    171    218 197.2 -46.8  34202  290.28 0854.48
2009/04/23 15:37:33.3      19   -160   -171    162    235 173.1 -56.4  34200  290.26 0854.48
2009/04/23 15:37:33.4     112   -265     67    288    296 157.1  13.2  34202  290.27 0854.48
2009/04/23 15:37:33.5      26   -401    181    402    440 176.3  25.9  34188  290.04 0854.48
2009/04/23 15:37:33.6     -69   -240    206    250    323 196.1  43.7  34192  290.10 0854.48
2009/04/23 15:37:33.7    -142   -354    160    382    414 201.9  24.1  34180  289.90 0854.48
2009/04/23 15:37:33.8    -226   -352     55    419    423 212.8   7.6  34190  290.09 0854.48
2009/04/23 15:37:33.9    -209   -208    -96    296    312 225.1 -17.9  34194  290.14 0854.48
2009/04/23 15:37:34.0    -175   -219   -100    281    299 218.8 -19.7  34186  290.02 0854.48
2009/04/23 15:37:34.1     -52   -303   -123    308    331 189.8 -27.4  34186  290.00 0854.47
2009/04/23 15:37:34.2    -109   -296    -91    316    328 200.3 -20.9  34188  290.05 0854.47
2009/04/23 15:37:34.3       0   -166    -81    167    185 180.0 -31.8  34186  290.02 0854.47
2009/04/23 15:37:34.4       7   -140    -87    141    165 176.9 -39.4  34188  290.06 0854.47
2009/04/23 15:37:34.5      92   -159    -57    184    193 149.9 -17.3  34180  289.91 0854.47
2009/04/23 15:37:34.6     168   -217    -93    275    291 142.2 -18.7  34174  289.81 0854.47
2009/04/23 15:37:34.7     151   -222    -21    269    270 145.7  -4.6  34172  289.78 0854.47
2009/04/23 15:37:34.8     162   -178    -53    242    248 137.7 -12.4  34170  289.75 0854.47
2009/04/23 15:37:34.9     184   -112    -18    216    217 121.3  -4.9  34172  289.79 0854.47
2009/04/23 15:37:35.0      74   -141    -33    160    164 152.4 -11.9  34172  289.79 0854.47
2009/04/23 15:37:35.1     128   -110      9    169    170 130.7   3.1  34174  289.80 0854.45
2009/04/23 15:37:35.2      65    -71     20     97    100 137.7  11.6  34174  289.80 0854.45
2009/04/23 15:37:35.3     104     -1     72    105    127  90.8  37.6  34178  289.89 0854.45
2009/04/23 15:37:35.4     140     -7    114    141    181  93.0  43.3  34176  289.85 0854.45
2009/04/23 15:37:35.5      57     18    130     60    143  71.8  73.5  34190  290.08 0854.45
2009/04/23 15:37:35.6       8     15    109     18    110  29.0  90.0  34196  290.18 0854.45
2009/04/23 15:37:35.7     119    -15    177    120    213  97.5  62.8  34186  290.01 0854.45
2009/04/23 15:37:35.8     131    -61    172    145    224 115.2  56.1  34180  289.91 0854.45
2009/04/23 15:37:35.9     -26      4     96     27     99 279.7  84.4  34192  290.11 0854.45
2009/04/23 15:37:36.0     -38    -17    175     42    179 245.6  86.9  34190  290.09 0854.45
2009/04/23 15:37:36.1      -7   -201    243    202    315 182.2  56.1  34180  289.90 0854.45
2009/04/23 15:37:36.2      77   -104    217    130    252 143.5  66.2  34180  289.91 0854.45
2009/04/23 15:37:36.3     -37   -176    280    180    332 192.0  64.4  34222  290.61 0854.45
2009/04/23 15:37:36.4     -54    -85    307    101    323 212.5  81.0  34240  290.93 0854.45
2009/04/23 15:37:36.5     -78     66    188    103    214 310.0  68.9  34230  290.75 0854.45
2009/04/23 15:37:36.6     -62     29    105     69    125 295.3  64.1  34228  290.74 0854.45
2009/04/23 15:37:36.7    -135      8     93    136    164 273.5  37.6  34226  290.70 0854.45
2009/04/23 15:37:36.8    -257    112    162    281    324 293.6  32.6  34218  290.54 0854.45
2009/04/23 15:37:36.9    -195    117    108    228    252 300.9  27.2  34224  290.65 0854.45
2009/04/23 15:37:37.0    -235    144     31    276    278 301.6   6.5  34236  290.85 0854.45
2009/04/23 15:37:37.1    -262    155     43    305    309 300.7   8.0  34230  290.76 0854.39
2009/04/23 15:37:37.2    -262     61     -5    270    271 283.3  -1.3  34220  290.58 0854.39
2009/04/23 15:37:37.3     -92   -126   -111    157    192 216.1 -43.2  34204  290.33 0854.39
2009/04/23 15:37:37.4      54   -161     94    171    195 161.3  31.4  34192  290.11 0854.39
2009/04/23 15:37:37.5     -39   -274    -15    277    278 188.1  -3.1  34192  290.12 0854.39
2009/04/23 15:37:37.6      -5   -347     53    348    353 180.9   8.7  34188  290.06 0854.39
2009/04/23 15:37:37.7     -50   -393    106    397    411 187.4  15.0  34194  290.16 0854.39
2009/04/23 15:37:37.8     -76   -409     43    416    419 190.6   6.0  34186  290.02 0854.39
2009/04/23 15:37:37.9     -65   -344     20    351    352 190.8   3.3  34208  290.38 0854.39
2009/04/23 15:37:38.0    -244   -214    -43    325    328 228.7  -7.7  34220  290.59 0854.39
2009/04/23 15:37:38.1     -98   -193     59    217    226 207.1  15.3  34212  290.45 0854.39
2009/04/23 15:37:38.2    -259   -170     28    310    312 236.7   5.3  34236  290.85 0854.39
2009/04/23 15:37:38.3    -260   -156    -39    304    307 239.1  -7.3  34234  290.83 0854.39
2009/04/23 15:37:38.4    -184   -224      4    291    292 219.4   0.8  34230  290.75 0854.39
2009/04/23 15:37:38.5    -177   -161    -56    240    247 227.6 -13.2  34224  290.66 0854.39
2009/04/23 15:37:38.6    -151   -183    -81    238    251 219.6 -23.3  34234  290.83 0854.39
2009/04/23 15:37:38.7     -94   -204    -99    225    245 204.9 -29.7  34236  290.87 0854.39
2009/04/23 15:37:38.8     -16   -232    -97    233    252 184.0 -28.5  34226  290.70 0854.39
2009/04/23 15:37:38.9     -55    -75   -174     94    197 216.5 -73.7  34230  290.75 0854.39
2009/04/23 15:37:39.0      53   -116   -135    128    186 155.5 -56.4  34220  290.60 0854.39
2009/04/23 15:37:39.1     156   -244    -30    290    292 147.4  -6.1  34214  290.49 0854.33
2009/04/23 15:37:39.2     128   -249      8    281    282 152.8   1.8  34210  290.42 0854.33
2009/04/23 15:37:39.3     112   -200     -5    230    231 150.6  -1.3  34208  290.38 0854.33
2009/04/23 15:37:39.4      81   -244      7    258    259 161.7   1.7  34220  290.59 0854.33
2009/04/23 15:37:39.5     102   -242     16    263    264 157.2   3.6  34218  290.54 0854.33
2009/04/23 15:37:39.6      43   -236     20    241    242 169.5   4.9  34224  290.66 0854.33
2009/04/23 15:37:39.7      32   -287     48    289    293 173.5   9.5  34210  290.41 0854.33
2009/04/23 15:37:39.8      78   -295     85    306    318 165.1  15.6  34210  290.41 0854.33
2009/04/23 15:37:39.9      86   -261     51    275    280 161.7  10.6  34206  290.36 0854.33
2009/04/23 15:37:40.0     135   -220     82    259    272 148.4  17.7  34202  290.27 0854.33
2009/04/23 15:37:40.1     133   -211     10    250    251 147.9   2.3  34206  290.36 0854.33
2009/04/23 15:37:40.2     173   -240      4    296    297 144.2   0.8  34206  290.34 0854.33
2009/04/23 15:37:40.3     175   -235     21    294    295 143.3   4.2  34206  290.36 0854.33
2009/04/23 15:37:40.4     182   -209     22    278    279 139.0   4.6  34206  290.34 0854.33
2009/04/23 15:37:40.5     198   -211     40    290    293 136.7   8.0  34196  290.19 0854.33
2009/04/23 15:37:40.6     135   -206     72    247    258 146.6  16.3  34198  290.20 0854.33
2009/04/23 15:37:40.7     107   -209     66    236    246 152.8  15.6  34202  290.27 0854.33
2009/04/23 15:37:40.8     131   -230     46    265    270 150.4  10.0  34202  290.29 0854.33
2009/04/23 15:37:40.9     160   -201     91    258    274 141.5  19.4  34204  290.31 0854.33
2009/04/23 15:37:41.0     115   -237     41    264    268 154.1   9.0  34202  290.29 0854.33
2009/04/23 15:37:41.1     137   -283     33    315    317 154.1   6.1  34198  290.22 0854.32
2009/04/23 15:37:41.2      83   -279     62    292    299 163.5  12.2  34196  290.19 0854.32
2009/04/23 15:37:41.3      68   -348     57    355    360 168.9   9.2  34198  290.23 0854.32
2009/04/23 15:37:41.4     108   -270    -30    291    293 158.2  -6.0  34194  290.14 0854.32
2009/04/23 15:37:41.5     133   -300    -16    329    330 156.1  -2.8  34192  290.13 0854.32
2009/04/23 15:37:41.6     133   -241    -51    276    281 151.0 -10.5  34192  290.10 0854.32
2009/04/23 15:37:41.7      65   -241    -36    250    253 164.8  -8.3  34194  290.14 0854.32
2009/04/23 15:37:41.8      71   -210    -28    222    224 161.3  -7.2  34194  290.16 0854.32
2009/04/23 15:37:41.9      50   -186    -42    193    198 164.8 -12.4  34198  290.23 0854.32
2009/04/23 15:37:42.0      19   -198    -33    199    202 174.4  -9.6  34196  290.18 0854.32
2009/04/23 15:37:42.1      -9   -195    -19    196    197 182.7  -5.6  34198  290.23 0854.32
2009/04/23 15:37:42.2     -41   -185      0    190    191 192.5   0.2  34194  290.14 0854.32
2009/04/23 15:37:42.3     -89   -222    -61    240    248 201.9 -14.4  34194  290.14 0854.32
2009/04/23 15:37:42.4     -42   -238    -31    242    245 190.0  -7.5  34194  290.14 0854.32
2009/04/23 15:37:42.5     -15   -237    -85    238    253 183.8 -19.7  34196  290.17 0854.32
2009/04/23 15:37:42.6     -42   -318     -6    321    322 187.6  -1.1  34188  290.03 0854.32
2009/04/23 15:37:42.7       0   -243     63    244    253 180.0  14.5  34180  289.92 0854.32
2009/04/23 15:37:42.8      27   -194     48    197    203 171.9  13.7  34184  289.99 0854.32
2009/04/23 15:37:42.9       8   -228    -28    229    231 177.8  -7.2  34186  290.01 0854.32
2009/04/23 15:37:43.0    -117   -226    -18    255    256 207.4  -4.1  34188  290.03 0854.32
2009/04/23 15:37:43.1     -72   -221     15    233    234 198.0   3.9  34186  290.00 0854.33
2009/04/23 15:37:43.2    -105   -164     15    195    196 212.6   4.6  34184  289.99 0854.33
2009/04/23 15:37:43.3     -52   -195    -17    202    203 195.1  -4.9  34186  290.01 0854.33
2009/04/23 15:37:43.4       0   -152    -89    153    177 180.4 -37.3  34194  290.16 0854.33
2009/04/23 15:37:43.5     -83   -256     -5    270    271 198.0  -1.2  34190  290.07 0854.33
2009/04/23 15:37:43.6     -89   -176    -47    198    204 207.0 -13.4  34184  289.97 0854.33
2009/04/23 15:37:43.7    -174   -232     24    291    293 216.9   4.9  34182  289.95 0854.33
2009/04/23 15:37:43.8    -146   -154      9    213    214 223.4   2.5  34184  289.97 0854.33
2009/04/23 15:37:43.9    -136    -99   -128    169    212 234.0 -45.6  34182  289.96 0854.33
2009/04/23 15:37:44.0     -62   -232    -33    241    244 195.1  -8.0  34178  289.88 0854.33
2009/04/23 15:37:44.1      -9   -212    -42    213    218 182.7 -11.3  34186  290.01 0854.33
2009/04/23 15:37:44.2      35   -188    -85    192    209 169.3 -29.7  34186  290.01 0854.33
2009/04/23 15:37:44.3      74   -222    -79    235    249 161.5 -18.7  34180  289.90 0854.33
2009/04/23 15:37:44.4      55   -216    -38    223    227 165.7  -9.8  34176  289.84 0854.33
2009/04/23 15:37:44.6      51   -252    -18    258    259 168.4  -4.1  34176  289.83 0854.33
2009/04/23 15:37:44.7      67   -250    -42    260    264 164.9  -9.3  34174  289.80 0854.33
2009/04/23 15:37:44.8      47   -248     37    253    256 169.3   8.5  34172  289.76 0854.33
2009/04/23 15:37:44.9       0   -189     39    190    195 180.2  11.6  34168  289.70 0854.33
2009/04/23 15:37:45.0      -8   -198    -69    199    210 182.5 -23.8  34174  289.80 0854.33
2009/04/23 15:37:45.1      58   -191    -63    200    209 163.1 -22.5  34176  289.84 0854.33
2009/04/23 15:37:45.2     -80    -98    -43    127    135 219.2 -18.7  34178  289.87 0854.36
2009/04/23 15:37:45.3     -30    -90    -84     95    126 198.5 -50.3  34186  290.02 0854.36
2009/04/23 15:37:45.4    -136    -79   -123    158    200 239.8 -46.1  34176  289.85 0854.36
2009/04/23 15:37:45.5    -114   -114   -124    162    204 225.0 -45.8  34176  289.84 0854.36
2009/04/23 15:37:45.6     -68   -132   -131    149    198 207.2 -50.3  34178  289.89 0854.36
2009/04/23 15:37:45.7      52   -176    -59    184    193 163.5 -23.3  34170  289.75 0854.36
2009/04/23 15:37:45.8       0   -230     57    231    238 180.2  13.9  34168  289.70 0854.36
2009/04/23 15:37:45.9      39   -240    -22    244    246 170.7  -5.2  34172  289.78 0854.36
2009/04/23 15:37:46.0      52   -248    -56    254    261 168.0 -12.6  34180  289.92 0854.36
2009/04/23 15:37:46.1      59   -240     18    248    249 166.2   4.2  34180  289.90 0854.36
2009/04/23 15:37:46.2     120   -260     61    287    294 155.3  12.2  34182  289.95 0854.36
2009/04/23 15:37:46.3     104   -224     39    247    251 155.1   9.0  34180  289.90 0854.36
2009/04/23 15:37:46.4     124   -251     55    281    287 153.7  11.1  34172  289.78 0854.36
2009/04/23 15:37:46.5     230   -258     67    346    353 138.3  11.0  34174  289.81 0854.36
2009/04/23 15:37:46.6     270   -253     87    371    382 133.2  13.2  34168  289.72 0854.36
2009/04/23 15:37:46.7     253   -196    154    321    356 127.7  27.3  34168  289.72 0854.36
2009/04/23 15:37:46.8     190   -352     48    401    404 151.6   6.9  34176  289.85 0854.36
2009/04/23 15:37:46.9     111   -432     64    447    452 165.5   8.2  34184  289.99 0854.36
2009/04/23 15:37:47.0     201   -340     15    395    396 149.4   2.2  34172  289.76 0854.36
2009/04/23 15:37:47.1     161   -299     39    340    343 151.6   6.7  34174  289.81 0854.36
2009/04/23 15:37:47.2     152   -340     46    373    376 155.8   7.1  34182  289.94 0854.37
2009/04/23 15:37:47.3     102   -289     84    307    319 160.4  15.3  34180  289.92 0854.37
2009/04/23 15:37:47.4      83   -280    102    293    311 163.5  19.2  34184  289.97 0854.37
2009/04/23 15:37:47.5      69   -284     57    293    299 166.2  11.1  34190  290.09 0854.37
2009/04/23 15:37:47.6     101   -225     53    247    253 155.7  12.1  34188  290.03 0854.37
2009/04/23 15:37:47.7     171   -212     34    273    276 141.0   7.1  34184  289.98 0854.37
2009/04/23 15:37:47.8      64   -163     66    176    187 158.6  21.5  34186  290.02 0854.37
2009/04/23 15:37:47.9       7   -155    100    156    185 177.3  35.6  34192  290.13 0854.37
2009/04/23 15:37:48.0     -60   -110    119    126    173 208.9  48.5  34194  290.16 0854.37
2009/04/23 15:37:48.1     -69    -61     89     93    128 228.2  49.0  34194  290.16 0854.37
2009/04/23 15:37:48.2     -72    -68     78    100    126 226.4  41.7  34198  290.23 0854.37
2009/04/23 15:37:48.3     -80    -56     13     98     99 234.9   8.0  34196  290.19 0854.37
2009/04/23 15:37:48.4     -51    -77    -33     93     99 213.4 -19.7  34192  290.13 0854.37
2009/04/23 15:37:48.5     -37    -24    -42     45     61 236.7 -52.3  34190  290.08 0854.37
2009/04/23 15:37:48.6     -58    -32    -41     67     78 241.1 -38.8  34194  290.14 0854.37
2009/04/23 15:37:48.7     -53    -38    -19     66     69 234.0 -16.6  34188  290.06 0854.37
2009/04/23 15:37:48.8     -65     -8    -29     66     72 263.0 -29.5  34190  290.08 0854.37
2009/04/23 15:37:48.9     -13      3      3     14     15 285.1  15.3  34192  290.11 0854.37
2009/04/23 15:37:49.0      35     11     42     37     55  71.4  54.3  34192  290.11 0854.37
2009/04/23 15:37:49.1      59     -7     85     60    104  97.0  61.5  34190  290.08 0854.37
2009/04/23 15:37:49.2      35    -41    102     54    115 139.5  69.8  34190  290.08 0854.37
2009/04/23 15:37:49.3     -16    -88    116     90    146 190.7  57.9  34182  289.96 0854.37
2009/04/23 15:37:49.4      -7   -100    149    101    180 184.0  62.6  34194  290.16 0854.37
2009/04/23 15:37:49.5      13   -143     99    144    174 174.7  37.6  34184  289.99 0854.37
2009/04/23 15:37:49.6     -14   -177    148    178    231 184.7  43.8  34182  289.94 0854.37
2009/04/23 15:37:49.7     -57   -142    165    154    225 201.9  52.2  34176  289.85 0854.37
2009/04/23 15:37:49.8     -27   -111    115    115    162 193.8  50.1  34176  289.85 0854.37
2009/04/23 15:37:49.9     -11   -106     96    107    143 186.2  46.9  34178  289.87 0854.37
2009/04/23 15:37:50.0     -42   -126     82    134    157 198.7  34.4  34172  289.77 0854.37
2009/04/23 15:37:50.1     -70   -150    116    166    202 204.9  38.4  34176  289.84 0854.37
2009/04/23 15:37:50.2     -64   -135    129    150    197 205.3  45.4  34178  289.89 0854.37
2009/04/23 15:37:50.3     -99   -144    135    175    221 214.5  41.7  34178  289.89 0854.37
2009/04/23 15:37:50.4     -95   -133    118    164    202 215.6  39.3  34182  289.94 0854.37
2009/04/23 15:37:50.5    -102   -132    119    167    205 217.8  39.1  34184  289.97 0854.37
2009/04/23 15:37:50.6    -105   -106    140    150    205 224.5  48.0  34188  290.04 0854.37
2009/04/23 15:37:50.7    -104   -111    138    153    206 223.2  46.6  34206  290.35 0854.37
2009/04/23 15:37:50.8    -115   -138    115    180    213 219.9  35.6  34198  290.21 0854.37
2009/04/23 15:37:50.9    -127   -194    101    232    253 213.2  25.1  34190  290.07 0854.37
2009/04/23 15:37:51.0    -119   -169     82    208    223 215.2  22.8  34202  290.28 0854.37
2009/04/23 15:37:51.1    -119   -152     70    194    206 218.1  20.9  34190  290.09 0854.37
2009/04/23 15:37:51.2    -139   -218    106    259    279 212.6  23.4  34228  290.71 0854.38
2009/04/23 15:37:51.3     -91   -204    124    224    256 204.1  31.4  34238  290.88 0854.38
2009/04/23 15:37:51.4    -113   -134     72    176    190 220.3  23.4  34236  290.86 0854.38
2009/04/23 15:37:51.5     -88   -186     74    206    218 205.3  20.7  34230  290.75 0854.38
2009/04/23 15:37:51.6    -125   -166     25    208    210 217.0   6.9  34214  290.48 0854.38
2009/04/23 15:37:51.7    -185   -102     11    212    213 241.1   3.1  34204  290.31 0854.38
2009/04/23 15:37:51.8    -199    -24     46    201    207 263.0  13.1  34216  290.52 0854.38
2009/04/23 15:37:51.9    -169    -76     22    186    188 245.6   6.9  34214  290.50 0854.38
2009/04/23 15:37:52.0    -160    -49     10    168    169 252.9   3.6  34210  290.43 0854.38
2009/04/23 15:37:52.1    -144    -39     12    150    151 254.9   4.9  34214  290.50 0854.38
2009/04/23 15:37:52.2    -146    -45     54    153    163 252.7  19.4  34212  290.45 0854.38
2009/04/23 15:37:52.3    -225    -97     18    246    247 246.7   4.2  34210  290.42 0854.38
2009/04/23 15:37:52.4    -195    -86    -35    214    217 246.3  -9.3  34226  290.69 0854.38
2009/04/23 15:37:52.5    -202     28    -22    204    206 277.9  -6.2  34220  290.58 0854.38
2009/04/23 15:37:52.6    -187     60     -7    197    198 287.9  -2.1  34220  290.58 0854.38
2009/04/23 15:37:52.7    -212      9     26    213    215 272.5   7.1  34240  290.94 0854.38
2009/04/23 15:37:52.8    -130     91     76    159    176 305.1  27.2  34236  290.86 0854.38
2009/04/23 15:37:52.9    -125     54    123    137    184 293.5  46.9  34246  291.03 0854.38
2009/04/23 15:37:53.0     -92    -28    109     97    145 253.2  53.7  34256  291.21 0854.38
2009/04/23 15:37:53.1    -181      2     74    182    196 270.8  23.4  34254  291.16 0854.38
2009/04/23 15:37:53.2    -201    -73     71    215    227 250.0  18.4  34260  291.28 0854.38
2009/04/23 15:37:53.3    -182     18     60    183    193 275.9  18.1  34252  291.13 0854.38
2009/04/23 15:37:53.4    -272      6     53    273    279 271.3  11.0  34254  291.17 0854.38
2009/04/23 15:37:53.5    -312      4     55    313    318 270.9  10.0  34254  291.17 0854.38
2009/04/23 15:37:53.6    -289   -106    142    308    339 249.8  26.5  34264  291.35 0854.38
2009/04/23 15:37:53.7    -205   -115    129    236    268 240.7  31.3  34260  291.27 0854.38
2009/04/23 15:37:53.8    -233   -135    121    270    295 240.0  25.7  34270  291.43 0854.38
2009/04/23 15:37:53.9    -213    -85    115    230    257 248.2  28.5  34270  291.43 0854.38
2009/04/23 15:37:54.0     -70    -82     58    108    122 220.5  30.8  34250  291.09 0854.38
2009/04/23 15:37:54.1    -116    -73    117    138    180 237.6  44.5  34264  291.33 0854.38
2009/04/23 15:37:54.2    -105     -8    112    106    154 265.6  51.6  34278  291.57 0854.38
2009/04/23 15:37:54.3     -76     15     82     78    113 281.5  51.2  34286  291.72 0854.38
2009/04/23 15:37:54.4    -122     63     87    138    163 297.5  35.5  34274  291.50 0854.38
2009/04/23 15:37:54.5    -129      1     98    130    162 270.8  40.7  34280  291.60 0854.38
2009/04/23 15:37:54.6    -109    -13     75    110    133 263.0  37.4  34282  291.66 0854.38
2009/04/23 15:37:54.7      61    -92     65    111    128 146.6  33.5  34256  291.20 0854.38
2009/04/23 15:37:54.8     168   -129    100    212    234 127.5  27.1  34228  290.72 0854.38
2009/04/23 15:37:54.9     139   -108    122    177    214 128.0  37.6  34236  290.87 0854.38
2009/04/23 15:37:55.0     152    -71    162    168    233 115.2  49.2  34238  290.91 0854.38
2009/04/23 15:37:55.1     120    -67     98    138    169 119.3  38.8  34232  290.79 0854.38
2009/04/23 15:37:55.2      38     34     66     52     84  47.8  57.9  34240  290.94 0854.39
2009/04/23 15:37:55.3      82    -10     69     83    107  97.0  43.8  34220  290.58 0854.39
2009/04/23 15:37:55.4     148   -105    123    182    219 125.3  37.4  34214  290.48 0854.39
2009/04/23 15:37:55.5     144   -142    163    203    260 134.7  43.0  34218  290.54 0854.39
2009/04/23 15:37:55.6      98   -186    180    211    277 152.1  44.9  34208  290.39 0854.39
2009/04/23 15:37:55.7      76   -123    134    145    197 148.4  47.7  34214  290.48 0854.39
2009/04/23 15:37:55.8     106    -17    164    108    196  99.2  63.6  34214  290.50 0854.39
2009/04/23 15:37:55.9     -25    -72    110     77    134 199.2  62.1  34218  290.55 0854.39
2009/04/23 15:37:56.0      94     -7     82     95    125  94.4  45.8  34224  290.67 0854.39
2009/04/23 15:37:56.1       2   -111    119    112    163 178.6  51.6  34216  290.52 0854.40
2009/04/23 15:37:56.2     -66   -139    157    155    220 205.5  50.1  34208  290.40 0854.40
2009/04/23 15:37:56.3    -100    -88    128    134    185 228.7  48.7  34226  290.70 0854.40
2009/04/23 15:37:56.4    -117    -90    123    148    192 232.3  43.8  34212  290.45 0854.40
2009/04/23 15:37:56.5    -142    -90    143    169    221 237.6  44.5  34200  290.25 0854.40
2009/04/23 15:37:56.6      58     41     79     72    106  54.9  52.2  34218  290.57 0854.40
2009/04/23 15:37:56.7     136     20     28    138    141  81.6  11.6  34226  290.69 0854.40
2009/04/23 15:37:56.8       4     50    138     51    147   5.3  79.2  34228  290.72 0854.40
2009/04/23 15:37:56.9     -23     16    115     29    118 304.2  85.9  34240  290.92 0854.40
2009/04/23 15:37:57.0     -43   -188    175    193    260 192.9  47.0  34202  290.27 0854.40
2009/04/23 15:37:57.1      -5   -160    183    161    243 181.8  54.2  34188  290.06 0854.40
2009/04/23 15:37:57.2     -58   -174    150    184    237 198.5  43.5  34190  290.08 0854.40
2009/04/23 15:37:57.3     -67   -164    117    178    213 202.3  36.0  34200  290.26 0854.40
2009/04/23 15:37:57.4    -144   -170    113    223    249 220.3  29.1  34204  290.32 0854.40
2009/04/23 15:37:57.5    -127   -138     57    188    197 222.5  17.1  34200  290.25 0854.40
2009/04/23 15:37:57.6    -111    -99     32    149    153 228.2  12.2  34200  290.25 0854.40
2009/04/23 15:37:57.7    -122   -121     -7    172    173 225.2  -2.6  34198  290.21 0854.40
2009/04/23 15:37:57.8     -47   -135     24    144    146 199.2   9.5  34198  290.21 0854.40
2009/04/23 15:37:57.9     -64   -158     28    171    174 202.3   9.5  34194  290.14 0854.40
2009/04/23 15:37:58.0     -48   -143     43    152    158 198.7  15.8  34196  290.18 0854.40
2009/04/23 15:37:58.1     -42   -114     -6    122    123 200.5  -3.1  34196  290.18 0854.39
2009/04/23 15:37:58.2       7    -92     65     93    113 175.1  38.0  34198  290.23 0854.39
2009/04/23 15:37:58.3      49   -178     50    185    192 164.4  15.3  34198  290.23 0854.39
2009/04/23 15:37:58.4     -15   -207     71    208    220 184.4  18.9  34204  290.31 0854.39
2009/04/23 15:37:58.5      10   -180     98    181    205 176.6  30.6  34204  290.33 0854.39
2009/04/23 15:37:58.6      46   -174     82    181    198 165.1  25.9  34204  290.31 0854.39
2009/04/23 15:37:58.7      51   -153    111    162    196 161.3  37.8  34206  290.35 0854.39
2009/04/23 15:37:58.8      47    -77     86     91    125 148.4  49.0  34214  290.50 0854.39
2009/04/23 15:37:58.9     -22   -133     49    135    143 189.8  20.9  34196  290.19 0854.39
2009/04/23 15:37:59.0      39   -108    -34    115    121 160.0 -16.6  34200  290.26 0854.39
2009/04/23 15:37:59.1      60   -101    -28    118    122 149.3 -13.3  34202  290.30 0854.39
2009/04/23 15:37:59.2      51   -128    -13    138    139 158.2  -5.6  34208  290.40 0854.39
2009/04/23 15:37:59.3     -34   -158    -45    162    168 192.3 -20.2  34216  290.52 0854.39
2009/04/23 15:37:59.4     -24   -101    -30    104    109 193.4 -16.0  34214  290.50 0854.39
2009/04/23 15:37:59.5      -3    -84     67     85    108 182.2  43.3  34212  290.45 0854.39
2009/04/23 15:37:59.6     -17    -51     45     54     70 198.7  43.8  34216  290.53 0854.39
2009/04/23 15:37:59.7      55    -44     53     71     88 128.6  40.7  34214  290.48 0854.39
2009/04/23 15:37:59.8      43   -101     42    110    117 156.8  22.0  34208  290.40 0854.39
2009/04/23 15:37:59.9      31   -125     30    129    133 165.7  13.1  34208  290.38 0854.39
2009/04/23 15:38:00.0      29   -181     52    184    192 170.7  15.8  34192  290.11 0854.39
2009/04/23 15:38:00.1      68   -206     59    217    225 161.7  15.3  34178  289.87 0854.41
2009/04/23 15:38:00.2      30   -246     64    248    257 172.9  14.5  34184  289.98 0854.41
2009/04/23 15:38:00.3     -21   -285     40    286    289 184.2   8.0  34186  290.00 0854.41
2009/04/23 15:38:00.4     -85   -196    -87    214    231 203.6 -27.5  34182  289.96 0854.41
2009/04/23 15:38:00.5     -94   -271     -6    287    288 199.2  -1.3  34190  290.07 0854.41
2009/04/23 15:38:00.6     -10   -328     16    329    330 181.9   2.9  34188  290.06 0854.41
2009/04/23 15:38:00.7      34   -438      5    440    441 175.5   0.7  34208  290.38 0854.41
2009/04/23 15:38:00.8      42   -453      6    456    457 174.7   0.8  34206  290.34 0854.41
2009/04/23 15:38:00.9      70   -368    -89    375    386 169.1 -13.4  34194  290.16 0854.41
2009/04/23 15:38:01.0      66   -321    -92    328    341 168.3 -15.7  34192  290.10 0854.41
2009/04/23 15:38:01.1       3   -342    -43    343    346 179.4  -7.2  34194  290.15 0854.41
2009/04/23 15:38:01.2      -5   -325    -31    326    328 180.9  -5.5  34192  290.10 0854.41
2009/04/23 15:38:01.3     -40   -352      0    355    356 186.5   0.1  34186  290.01 0854.41
2009/04/23 15:38:01.4     -24   -314    -49    315    319 184.4  -9.0  34182  289.95 0854.41
2009/04/23 15:38:01.5     -33   -328    -78    330    340 185.8 -13.4  34188  290.04 0854.41
2009/04/23 15:38:01.6     -41   -400    -13    403    404 186.0  -1.9  34194  290.14 0854.41
2009/04/23 15:38:01.7      27   -387    -42    388    391 176.0  -6.2  34192  290.10 0854.41
2009/04/23 15:38:01.8       6   -441    -57    442    446 179.1  -7.5  34184  289.97 0854.41
2009/04/23 15:38:01.9      22   -471    -25    472    473 177.2  -3.1  34186  290.00 0854.41
2009/04/23 15:38:02.0      -6   -457    -83    458    466 180.8 -10.3  34188  290.04 0854.41
2009/04/23 15:38:02.1      32   -470    -36    472    474 176.1  -4.4  34184  289.98 0854.43
2009/04/23 15:38:02.2     -28   -424    -61    425    430 183.9  -8.3  34182  289.94 0854.43
2009/04/23 15:38:02.3      54   -369     -8    373    374 171.7  -1.3  34190  290.08 0854.43
2009/04/23 15:38:02.4      75   -297    -28    307    309 165.7  -5.4  34192  290.10 0854.43
2009/04/23 15:38:02.5      61   -267    -49    274    279 167.1 -10.3  34196  290.19 0854.43
2009/04/23 15:38:02.6      35   -293    -48    296    301 173.1  -9.3  34196  290.17 0854.43
2009/04/23 15:38:02.7      83   -298     13    310    311 164.4   2.5  34192  290.12 0854.43
2009/04/23 15:38:02.8      37   -323     31    326    328 173.4   5.5  34194  290.15 0854.43
2009/04/23 15:38:02.9      86   -376    -20    386    387 167.1  -3.0  34180  289.91 0854.43
2009/04/23 15:38:03.0      67   -330    -53    337    342 168.5  -9.0  34184  289.98 0854.43
2009/04/23 15:38:03.1     113   -335    -72    354    362 161.3 -11.5  34174  289.82 0854.43
2009/04/23 15:38:03.2     110   -327    -60    346    352 161.3  -9.9  34172  289.79 0854.43
2009/04/23 15:38:03.3     115   -262    -64    287    295 156.3 -12.6  34172  289.78 0854.43
2009/04/23 15:38:03.4      60   -240     68    248    258 165.8  15.3  34190  290.07 0854.43
2009/04/23 15:38:03.5      63   -285     85    292    305 167.5  16.3  34198  290.20 0854.43
2009/04/23 15:38:03.6      39   -284     55    287    293 172.0  11.0  34200  290.26 0854.43
2009/04/23 15:38:03.7     -11   -372     13    373    374 181.7   2.1  34208  290.37 0854.43
2009/04/23 15:38:03.8     -24   -369    -91    370    382 183.7 -13.9  34202  290.30 0854.43
2009/04/23 15:38:03.9      24   -292     14    294    295 175.3   2.9  34192  290.12 0854.43
2009/04/23 15:38:04.0       4   -311     -6    312    313 179.1  -1.2  34196  290.19 0854.43
2009/04/23 15:38:04.1     -30   -296     99    298    315 186.0  18.4  34200  290.24 0854.47
2009/04/23 15:38:04.2     -66   -214     61    225    234 197.2  15.2  34196  290.19 0854.47
2009/04/23 15:38:04.3    -122   -132    -47    180    187 222.8 -14.7  34198  290.21 0854.47
2009/04/23 15:38:04.4     -48    -82    -87     96    129 210.3 -51.9  34202  290.30 0854.47
2009/04/23 15:38:04.5    -118   -123    -74    171    186 223.7 -29.3  34196  290.18 0854.47
2009/04/23 15:38:04.6    -144   -137    -39    199    203 226.4 -11.3  34190  290.08 0854.47
2009/04/23 15:38:04.7    -118   -140    -46    184    190 220.1 -14.3  34190  290.08 0854.47
2009/04/23 15:38:04.8     -88   -119    -59    149    160 216.5 -27.2  34186  290.02 0854.47
2009/04/23 15:38:04.9     -27   -100    -63    104    121 195.1 -38.4  34190  290.09 0854.47
2009/04/23 15:38:05.0      10    -48    -58     50     76 168.4 -59.8  34200  290.26 0854.47
2009/04/23 15:38:05.1       1   -122    -45    123    130 179.1 -25.4  34196  290.19 0854.47
2009/04/23 15:38:05.2      21   -198    -25    200    202 173.8  -7.3  34194  290.14 0854.47
2009/04/23 15:38:05.3     -10   -220    -44    221    226 182.7 -11.3  34192  290.13 0854.47
2009/04/23 15:38:05.4      13   -288     -5    289    290 177.3  -1.1  34194  290.14 0854.47
2009/04/23 15:38:05.5      -4   -269    -54    270    276 181.0 -11.5  34192  290.10 0854.47
2009/04/23 15:38:05.6     -40   -163    -27    168    171 194.0  -9.3  34190  290.09 0854.47
2009/04/23 15:38:05.7     -56   -163    -26    173    175 199.2  -8.6  34192  290.11 0854.47
2009/04/23 15:38:05.8    -124   -224    -37    257    260 209.0  -8.3  34196  290.17 0854.47
2009/04/23 15:38:05.9    -198    -95     34    220    223 244.2   9.0  34202  290.28 0854.47
2009/04/23 15:38:06.0    -214    -43    106    219    243 258.5  27.8  34206  290.36 0854.47
2009/04/23 15:38:06.1    -200     74    -28    214    216 290.4  -7.5  34198  290.23 0854.46
2009/04/23 15:38:06.2    -147     29    -40    150    156 281.5 -15.0  34200  290.25 0854.46
2009/04/23 15:38:06.3    -114    -77     53    138    147 235.8  22.0  34204  290.33 0854.46
2009/04/23 15:38:06.4    -138    -49    -29    147    150 250.5 -11.3  34204  290.33 0854.46
2009/04/23 15:38:06.5    -119    -17    -46    121    129 261.6 -25.4  34200  290.25 0854.46
2009/04/23 15:38:06.6     -88    -40    -48     97    108 245.6 -31.7  34204  290.31 0854.46
2009/04/23 15:38:06.7       5    -46      1     47     48 173.8   1.8  34202  290.28 0854.46
2009/04/23 15:38:06.8      15   -116     41    118    125 172.4  19.2  34200  290.26 0854.46
2009/04/23 15:38:06.9      58   -113     89    128    155 152.9  37.6  34200  290.26 0854.46
2009/04/23 15:38:07.0       9   -119     68    120    137 175.5  31.9  34204  290.31 0854.46
2009/04/23 15:38:07.1     116   -115     27    164    167 134.7   9.5  34198  290.21 0854.46
2009/04/23 15:38:07.2     101   -120     64    158    170 139.9  23.4  34192  290.13 0854.46
2009/04/23 15:38:07.3      74   -129     91    149    174 150.1  34.8  34188  290.06 0854.46
2009/04/23 15:38:07.4      44   -122    121    130    177 160.0  47.9  34192  290.11 0854.46
2009/04/23 15:38:07.5      10   -100    123    101    159 173.8  56.4  34204  290.33 0854.46
2009/04/23 15:38:07.6      52   -120    116    132    175 156.4  45.8  34200  290.26 0854.46
2009/04/23 15:38:07.7      10   -155    119    156    196 176.0  41.4  34188  290.06 0854.46
2009/04/23 15:38:07.8      21   -193    148    195    244 173.5  41.2  34182  289.96 0854.46
2009/04/23 15:38:07.9      17   -193    168    194    256 174.9  45.6  34180  289.90 0854.46
2009/04/23 15:38:08.0      19    -72    164     75    180 164.9  73.8  34198  290.23 0854.46
2009/04/23 15:38:08.1      -8   -232    199    233    306 182.0  44.8  34198  290.20 0854.41
2009/04/23 15:38:08.2      39   -231    219    235    321 170.4  47.9  34196  290.17 0854.41
2009/04/23 15:38:08.3      61   -253    204    261    331 166.4  42.0  34206  290.34 0854.41
2009/04/23 15:38:08.4    -128   -188    223    228    318 214.2  49.4  34212  290.44 0854.41
2009/04/23 15:38:08.5     -51   -160    196    169    258 197.8  55.0  34214  290.49 0854.41
2009/04/23 15:38:08.6     -33   -175    157    179    238 190.7  45.9  34210  290.43 0854.41
2009/04/23 15:38:08.7     -36   -228    199    231    304 189.1  45.1  34218  290.56 0854.41
2009/04/23 15:38:08.8     -26   -154    207    157    259 189.8  59.2  34232  290.81 0854.41
2009/04/23 15:38:08.9     -10   -139    192    140    237 184.5  60.5  34210  290.41 0854.41
2009/04/23 15:38:09.0      -2   -146    187    147    237 181.0  57.9  34204  290.33 0854.41
2009/04/23 15:38:09.1      -5   -166    215    167    272 182.0  58.4  34216  290.53 0854.41
2009/04/23 15:38:09.2       5   -135    179    136    224 177.8  59.2  34202  290.28 0854.41
2009/04/23 15:38:09.3      -6   -156    165    157    227 182.2  51.6  34190  290.08 0854.41
2009/04/23 15:38:09.4      -7   -150    175    151    231 182.7  54.8  34186  290.02 0854.41
2009/04/23 15:38:09.5     -34   -184    185    188    263 190.5  49.9  34174  289.80 0854.41
2009/04/23 15:38:09.6     -31   -173    164    176    240 190.2  47.9  34172  289.77 0854.41
2009/04/23 15:38:09.7     -41   -114    203    122    236 200.0  66.4  34178  289.87 0854.41
2009/04/23 15:38:09.8    -143   -198    149    245    286 216.0  34.4  34170  289.75 0854.41
2009/04/23 15:38:09.9     -72   -141    154    159    221 207.2  49.2  34180  289.92 0854.41
2009/04/23 15:38:10.0    -102   -123     85    160    181 219.6  30.3  34174  289.82 0854.41
2009/04/23 15:38:10.1     -87   -140    120    166    204 211.9  39.5  34174  289.82 0854.39
2009/04/23 15:38:10.2     -90   -164    159    188    246 208.9  44.5  34186  290.01 0854.39
2009/04/23 15:38:10.3     -89   -123    173    153    230 216.0  54.2  34198  290.23 0854.39
2009/04/23 15:38:10.4     -27    -39    151     48    158 214.3  82.0  34234  290.82 0854.39
2009/04/23 15:38:10.5     -63    -99    192    118    225 212.5  65.1  34216  290.53 0854.39
2009/04/23 15:38:10.7      -5    -65    148     66    162 184.4  74.5  34224  290.65 0854.39
2009/04/23 15:38:10.7     -63    -98     95    117    150 212.6  43.7  34204  290.31 0854.39
2009/04/23 15:38:10.8     -24    -40     48     47     67 211.6  49.1  34206  290.36 0854.39
2009/04/23 15:38:10.9      12    -12     58     18     60 135.0  81.8  34232  290.79 0854.39
2009/04/23 15:38:11.1     -61    -49    118     79    142 231.4  63.2  34240  290.92 0854.39
2009/04/23 15:38:11.1    -168     51    142    176    226 287.1  43.7  34232  290.81 0854.39
2009/04/23 15:38:11.2    -150      9     74    151    168 273.5  27.8  34226  290.69 0854.39
2009/04/23 15:38:11.3      24    -75    190     79    205 161.7  76.3  34236  290.86 0854.39
2009/04/23 15:38:11.5    -147   -136    206    201    287 227.1  50.7  34232  290.80 0854.39
2009/04/23 15:38:11.6    -132   -123    230    181    292 226.9  57.9  34222  290.63 0854.39
2009/04/23 15:38:11.7    -173   -122    197    212    289 234.7  47.9  34216  290.51 0854.39
2009/04/23 15:38:11.8    -153   -121    212    196    288 231.6  52.2  34246  291.02 0854.39
2009/04/23 15:38:11.9     -82   -199    202    216    295 202.5  47.9  34258  291.24 0854.39
2009/04/23 15:38:12.0    -102   -213    150    237    280 205.5  35.5  34258  291.24 0854.39
2009/04/23 15:38:12.1    -125   -208    253    243    350 211.0  51.3  34246  291.04 0854.39
2009/04/23 15:38:12.2    -214   -177     32    278    280 230.4   6.7  34228  290.71 0854.40
2009/04/23 15:38:12.3    -123   -176      8    216    217 215.0   2.3  34230  290.75 0854.40
2009/04/23 15:38:12.4     -87   -163      7    185    186 208.1   2.3  34230  290.77 0854.40
2009/04/23 15:38:12.5    -155   -109     53    190    198 234.7  15.6  34280  291.60 0854.40
2009/04/23 15:38:12.6    -170    -11    147    171    225 266.3  45.1  34272  291.47 0854.40
2009/04/23 15:38:12.7    -155   -104     56    187    196 236.0  16.8  34274  291.50 0854.40
2009/04/23 15:38:12.8     -87    -14     48     89    101 260.8  30.8  34264  291.35 0854.40
2009/04/23 15:38:12.9     -89     68    116    113    161 307.3  50.7  34276  291.54 0854.40
2009/04/23 15:38:13.0     -69     27    103     75    127 291.8  60.5  34272  291.49 0854.40
2009/04/23 15:38:13.1      21    -64    117     68    135 161.7  66.8  34266  291.37 0854.40
2009/04/23 15:38:13.2     -68    -97    111    119    162 215.2  48.2  34234  290.84 0854.40
2009/04/23 15:38:13.3     -55    -83     82    100    129 213.8  43.7  34218  290.55 0854.40
2009/04/23 15:38:13.4     -37    -96    114    104    154 201.4  52.2  34214  290.48 0854.40
2009/04/23 15:38:13.5     -19   -159    157    161    224 187.1  49.8  34196  290.19 0854.40
2009/04/23 15:38:13.6     -14   -132    172    133    217 186.2  58.5  34224  290.67 0854.40
2009/04/23 15:38:13.7     -14   -136    107    137    173 186.2  42.2  34198  290.23 0854.40
2009/04/23 15:38:13.8     -57   -130     93    143    170 203.7  36.0  34200  290.26 0854.40
2009/04/23 15:38:13.9     -73   -140    111    159    193 207.6  38.4  34232  290.81 0854.40
2009/04/23 15:38:14.0    -106   -121     30    162    165 221.2  10.6  34222  290.64 0854.40
2009/04/23 15:38:14.1     -90   -133     74    161    177 214.3  26.4  34196  290.18 0854.40
2009/04/23 15:38:14.2     -34    -90     88     97    130 200.9  46.9  34196  290.18 0854.41
2009/04/23 15:38:14.3     -39    -97     79    105    131 201.9  41.2  34202  290.28 0854.41
2009/04/23 15:38:14.4     -44    -41     57     61     83 226.9  48.5  34206  290.36 0854.41
2009/04/23 15:38:14.5      -1    -68     63     69     93 181.0  47.9  34202  290.30 0854.41
2009/04/23 15:38:14.6      16    -90     67     92    113 169.8  39.7  34218  290.57 0854.41
2009/04/23 15:38:14.7     -37    -87     72     95    119 203.2  41.2  34258  291.25 0854.41
2009/04/23 15:38:14.8     -53    -61     78     81    112 221.0  49.0  34262  291.32 0854.41
2009/04/23 15:38:14.9     -65    -64     58     92    108 225.1  35.5  34260  291.26 0854.41
2009/04/23 15:38:15.0     -35    -29     60     46     75 229.6  58.5  34262  291.32 0854.41
2009/04/23 15:38:15.1     -35    -28     96     45    106 231.4  73.1  34270  291.45 0854.41
2009/04/23 15:38:15.2     -15    -43    106     46    115 200.0  75.0  34260  291.26 0854.41
2009/04/23 15:38:15.3       4    -22     70     23     73 168.4  80.7  34264  291.33 0854.41
2009/04/23 15:38:15.4      -3    -18     73     19     75 191.6  84.9  34248  291.06 0854.41
2009/04/23 15:38:15.5     -61    -86     90    106    139 215.2  44.3  34252  291.13 0854.41
2009/04/23 15:38:15.6     -21    -64     61     68     91 198.7  46.4  34248  291.08 0854.41
2009/04/23 15:38:15.7     -11    -95    100     96    138 186.7  51.2  34238  290.91 0854.41
2009/04/23 15:38:15.8      19     -3    122     20    123 101.5  90.0  34268  291.40 0854.41
2009/04/23 15:38:15.9     -15    -81    134     83    157 191.1  65.4  34252  291.15 0854.41
2009/04/23 15:38:16.0     -37    -86    135     94    164 203.2  62.1  34248  291.06 0854.41
2009/04/23 15:38:16.1     -23    -91     93     94    132 194.3  50.0  34244  290.99 0854.41
2009/04/23 15:38:16.2     -29   -124    131    128    183 193.4  50.7  34248  291.08 0854.39
2009/04/23 15:38:16.3     -68   -141    118    157    196 205.9  40.9  34228  290.74 0854.39
2009/04/23 15:38:16.4     -57   -131    147    143    205 203.6  50.4  34242  290.98 0854.39
2009/04/23 15:38:16.5      50    -60    113     79    137 140.4  61.5  34298  291.91 0854.39
2009/04/23 15:38:16.6      40     77    149     88    173  27.6  66.4  34348  292.78 0854.39
2009/04/23 15:38:16.7     136    -10    145    137    199  94.3  51.6  34350  292.81 0854.39
2009/04/23 15:38:16.8     140    -61    137    153    205 113.5  46.4  34378  293.27 0854.39
2009/04/23 15:38:16.9      26    -77     97     82    127 161.3  55.4  34312  292.17 0854.39
2009/04/23 15:38:17.0       5   -139    169    140    219 177.8  56.3  34216  290.53 0854.39
2009/04/23 15:38:17.1      -7   -158    166    159    229 182.7  51.4  34216  290.53 0854.39
2009/04/23 15:38:17.2     -31   -184    211    187    281 189.8  54.0  34226  290.68 0854.39
2009/04/23 15:38:17.3     -27   -203    205    205    289 187.6  50.1  34210  290.42 0854.39
2009/04/23 15:38:17.4     -15   -197    216    198    293 184.5  52.5  34238  290.88 0854.39
2009/04/23 15:38:17.5     -42   -267    266    271    379 189.1  49.8  34268  291.42 0854.39
2009/04/23 15:38:17.6     -69   -267    221    276    353 194.5  42.7  34262  291.30 0854.39
2009/04/23 15:38:17.7     -94   -231    208    250    325 202.1  44.1  34326  292.40 0854.39
2009/04/23 15:38:17.8      72    -49     28     88     93 124.2  17.9  34350  292.81 0854.39
2009/04/23 15:38:17.9     161     -2    193    162    251  90.9  55.8  34334  292.52 0854.39
2009/04/23 15:38:18.0     109    -68    187    129    227 122.0  62.4  34336  292.56 0854.39
2009/04/23 15:38:18.1      40    -96    162    105    193 157.3  64.6  34268  291.42 0854.39
2009/04/23 15:38:18.2      41   -112    148    120    190 160.0  56.4  34212  290.47 0854.39
2009/04/23 15:38:18.3      46    -49    115     68    133 136.8  66.7  34214  290.50 0854.39
2009/04/23 15:38:18.4     -21    -82    152     85    174 194.7  68.3  34212  290.45 0854.39
2009/04/23 15:38:18.5      36    -12    140     39    145 108.6  84.8  34218  290.57 0854.39
2009/04/23 15:38:18.6     -34   -103    188    109    217 198.7  67.5  34206  290.36 0854.39
2009/04/23 15:38:18.7     -62   -150    199    163    257 202.5  56.4  34206  290.35 0854.39
2009/04/23 15:38:18.8     -39   -144    173    150    228 195.2  54.8  34204  290.33 0854.39
2009/04/23 15:38:18.9    -113   -140    173    181    250 219.0  49.0  34214  290.48 0854.39
2009/04/23 15:38:19.0     -81   -136    163    159    227 210.7  50.7  34220  290.60 0854.39
2009/04/23 15:38:19.1     -55   -139    205    150    254 201.8  60.5  34234  290.84 0854.39
2009/04/23 15:38:19.2     -18   -131    127    133    183 188.0  49.0  34232  290.81 0854.40
2009/04/23 15:38:19.3     -55    -89    110    105    152 211.6  51.6  34246  291.03 0854.40
2009/04/23 15:38:19.4      -4   -149    165    150    222 181.8  52.7  34256  291.20 0854.40
2009/04/23 15:38:19.5     -23   -169    214    171    273 187.8  57.5  34242  290.95 0854.40
2009/04/23 15:38:19.6     -97   -115    177    151    232 220.1  55.4  34244  291.01 0854.40
2009/04/23 15:38:19.7     -85   -179    165    199    258 205.3  43.8  34248  291.05 0854.40
2009/04/23 15:38:19.8     -90   -235     97    252    270 201.0  22.0  34232  290.80 0854.40
2009/04/23 15:38:19.9    -107   -214    107    240    262 206.7  25.3  34258  291.22 0854.40
2009/04/23 15:38:20.0      -6   -177    268    178    321 182.0  63.4  34258  291.24 0854.40
2009/04/23 15:38:20.1     -32   -208    329    211    390 188.9  64.4  34258  291.22 0854.40
2009/04/23 15:38:20.2     -91   -217    187    236    301 202.7  42.7  34244  290.99 0854.40
2009/04/23 15:38:20.3     -85   -256    179    270    323 198.5  36.7  34258  291.22 0854.40
2009/04/23 15:38:20.4    -127   -236    131    269    299 208.3  27.8  34260  291.26 0854.40
2009/04/23 15:38:20.5     -71   -255     93    265    281 195.6  19.4  34278  291.56 0854.40
2009/04/23 15:38:20.6     -32    -88    188     94    210 200.5  71.7  34298  291.91 0854.40
2009/04/23 15:38:20.7     122     17    142    124    188  82.1  54.3  34314  292.18 0854.40
2009/04/23 15:38:20.8       8     23    158     25    159  20.0  90.0  34326  292.40 0854.40
2009/04/23 15:38:20.9       7    -19    148     21    149 160.0  90.0  34330  292.47 0854.40
2009/04/23 15:38:21.0     257     -7    188    258    319  91.7  39.8  34348  292.76 0854.40
2009/04/23 15:38:21.1      44    -13    183     46    188 106.8  85.9  34378  293.29 0854.40
2009/04/23 15:38:21.2      73     14    146     75    164  78.6  70.8  34356  292.92 0854.40
2009/04/23 15:38:21.3     -23    -23    114     33    118 225.1  83.9  34374  293.22 0854.40
2009/04/23 15:38:21.4      10     35     99     37    105  16.9  78.6  34374  293.22 0854.40
2009/04/23 15:38:21.5      98     43    124    108    164  66.0  54.6  34374  293.22 0854.40
2009/04/23 15:38:21.6     119     -9    130    120    176  94.4  52.2  34366  293.09 0854.40
2009/04/23 15:38:21.7      32     78    107     85    136  22.3  56.9  34382  293.36 0854.40
2009/04/23 15:38:21.8      36     86     94     94    132  22.7  50.1  34376  293.24 0854.40
2009/04/23 15:38:21.9     -10    128    107    129    167 355.5  44.1  34370  293.14 0854.40
2009/04/23 15:38:22.0     -37    124     70    130    147 343.1  31.3  34366  293.09 0854.40
2009/04/23 15:38:22.1      94     78     45    123    130  50.5  21.0  34372  293.17 0854.40
2009/04/23 15:38:22.2     189     14    175    190    258  85.6  47.7  34376  293.25 0854.40
2009/04/23 15:38:22.3     216     72    125    228    260  71.4  31.3  34346  292.72 0854.40
2009/04/23 15:38:22.4     141     72    159    159    224  62.9  50.1  34364  293.04 0854.40
2009/04/23 15:38:22.5     132    121    120    180    216  47.6  37.0  34352  292.83 0854.40
2009/04/23 15:38:22.6      80     16    129     82    152  78.1  64.7  34342  292.68 0854.40
2009/04/23 15:38:22.7     113    -16    144    115    184  98.4  57.5  34344  292.71 0854.40
2009/04/23 15:38:22.8     109    -58     73    124    143 118.4  33.5  34342  292.66 0854.40
2009/04/23 15:38:22.9     174    -39     71    179    192 102.8  22.8  34328  292.42 0854.40
2009/04/23 15:38:23.0     104     -3     95    105    141  91.7  47.5  34330  292.46 0854.40
2009/04/23 15:38:23.1     135    -85     49    160    168 122.4  17.1  34314  292.20 0854.40
2009/04/23 15:38:23.2     152    -11     92    153    178  94.4  34.0  34300  291.96 0854.39
2009/04/23 15:38:23.3      92    -20    136     95    165 102.4  61.8  34324  292.35 0854.39
2009/04/23 15:38:23.4      -8    -73    119     74    140 186.2  64.7  34328  292.44 0854.39
2009/04/23 15:38:23.5      -2   -163     99    164    191 180.9  34.2  34322  292.32 0854.39
2009/04/23 15:38:23.6      -8   -163    116    164    200 183.1  38.8  34326  292.40 0854.39
2009/04/23 15:38:23.7     -39    -47    171     62    181 219.7  79.5  34318  292.27 0854.39
2009/04/23 15:38:23.8     -77    -25    156     82    176 251.8  70.0  34320  292.30 0854.39
2009/04/23 15:38:23.9     -97    -95    157    137    208 225.6  54.3  34306  292.05 0854.39
2009/04/23 15:38:24.0     -33     82    151     89    175 338.2  66.4  34310  292.12 0854.39
2009/04/23 15:38:24.1     -40     40    155     57    165 315.0  79.5  34304  292.03 0854.39
2009/04/23 15:38:24.2     -78   -112    108    137    174 214.7  42.4  34294  291.84 0854.39
2009/04/23 15:38:24.3    -145   -126    224    193    295 229.1  55.0  34274  291.50 0854.39
2009/04/23 15:38:24.4    -125    -59    199    139    242 244.8  61.8  34248  291.08 0854.39
2009/04/23 15:38:24.5    -136   -144    159    199    254 223.4  42.8  34248  291.07 0854.39
2009/04/23 15:38:24.6    -345   -124    157    367    399 250.2  24.6  34278  291.56 0854.39
2009/04/23 15:38:24.7    -217     94    125    237    267 293.5  30.2  34298  291.90 0854.39
2009/04/23 15:38:24.8    -282   -155     94    322    336 241.1  16.3  34306  292.05 0854.39
2009/04/23 15:38:24.9    -216   -242    195    325    379 221.7  33.8  34302  291.98 0854.39
2009/04/23 15:38:25.0    -121   -292    216    317    383 202.5  37.6  34292  291.81 0854.39
2009/04/23 15:38:25.1     118   -250    297    277    406 154.7  52.2  34278  291.57 0854.41
2009/04/23 15:38:25.2      62   -138    218    152    265 155.9  61.7  34272  291.48 0854.41
2009/04/23 15:38:25.3      76    -39    176     86    195 117.1  72.1  34254  291.18 0854.41
2009/04/23 15:38:25.4      -4     22     92     23     94 348.4  86.4  34258  291.25 0854.41
2009/04/23 15:38:25.5      62      7    205     63    214  83.0  82.5  34250  291.11 0854.41
2009/04/23 15:38:25.6      71     33    162     79    180  64.6  72.4  34246  291.04 0854.41
2009/04/23 15:38:25.7     126     42    144    134    196  71.4  52.2  34242  290.96 0854.41
2009/04/23 15:38:25.8      62     59    125     86    151  46.4  62.6  34242  290.96 0854.41
2009/04/23 15:38:25.9     238      7    -82    239    253  88.3 -19.1  34240  290.92 0854.41
2009/04/23 15:38:26.0     220    169    -51    278    283  52.5 -10.5  34250  291.09 0854.41
2009/04/23 15:38:26.1     139    185    -66    232    241  37.0 -20.7  34246  291.02 0854.41
2009/04/23 15:38:26.2      86     90     19    125    127  43.7   8.9  34244  290.99 0854.41
2009/04/23 15:38:26.3     187    -98    -60    212    220 117.8 -20.4  34260  291.26 0854.41
2009/04/23 15:38:26.4     169     32    -82    173    191  79.2 -31.5  34262  291.32 0854.41
2009/04/23 15:38:26.5     213    151    -33    262    265  54.7  -7.3  34242  290.95 0854.41
2009/04/23 15:38:26.6     238    288    122    374    394  39.6  18.2  34214  290.50 0854.41
2009/04/23 15:38:26.7     172    194     27    260    262  41.7   6.0  34218  290.56 0854.41
2009/04/23 15:38:26.8     149    -11     30    150    154  94.4  11.4  34210  290.43 0854.41
2009/04/23 15:38:26.9     165   -119    -60    204    213 126.0 -16.6  34222  290.62 0854.41
2009/04/23 15:38:27.0     261   -104    -57    282    288 111.8 -11.5  34228  290.73 0854.41
2009/04/23 15:38:27.1     300    -22    -21    301    302  94.3  -4.1  34240  290.92 0854.42
2009/04/23 15:38:27.2     400     74    164    407    438  79.4  23.0  34226  290.68 0854.42
2009/04/23 15:38:27.3     287     14     40    288    291  87.2   8.0  34226  290.68 0854.42
2009/04/23 15:38:27.4     377    116    -14    395    396  72.8  -2.1  34208  290.37 0854.42
2009/04/23 15:38:27.5     413     64     -8    418    419  81.2  -1.2  34208  290.39 0854.42
2009/04/23 15:38:27.6     254      3    154    255    297  89.2  34.0  34224  290.65 0854.42
2009/04/23 15:38:27.7     408   -106    183    422    459 104.6  25.1  34252  291.12 0854.42
2009/04/23 15:38:27.8     341   -132     -1    366    367 111.2  -0.2  34228  290.74 0854.42
2009/04/23 15:38:27.9     329    -46    103    333    349  98.1  17.2  34212  290.45 0854.42
2009/04/23 15:38:28.0     288   -147     18    324    325 117.1   3.3  34196  290.17 0854.42
2009/04/23 15:38:28.1     359    -69    -46    366    369 101.0  -7.2  34200  290.25 0854.42
2009/04/23 15:38:28.2     347     26    119    348    368  85.7  18.9  34198  290.20 0854.42
2009/04/23 15:38:28.3     353     26     54    354    359  85.7   8.8  34206  290.35 0854.42
2009/04/23 15:38:28.4     438   -106     51    451    454 103.7   6.5  34194  290.14 0854.42
2009/04/23 15:38:28.5     405     18    143    406    430  87.4  20.1  34224  290.67 0854.42
2009/04/23 15:38:28.6     374   -101     75    388    396 105.2  11.0  34206  290.35 0854.42
2009/04/23 15:38:28.7     375    -76     34    383    385 101.5   5.2  34210  290.43 0854.42
2009/04/23 15:38:28.8     290    -96     -9    306    307 108.4  -1.8  34234  290.82 0854.42
2009/04/23 15:38:28.9     295    -69    115    303    324 103.2  21.7  34220  290.58 0854.42
2009/04/23 15:38:29.0     360    -40    151    363    393  96.5  23.9  34218  290.55 0854.42
2009/04/23 15:38:29.1     314    -44    130    318    343  98.0  23.5  34212  290.45 0854.43
2009/04/23 15:38:29.2     262   -146     84    300    312 119.1  15.8  34236  290.87 0854.43
2009/04/23 15:38:29.3     243   -176    118    301    323 125.9  22.5  34256  291.19 0854.43
2009/04/23 15:38:29.4     166   -155    214    228    312 133.1  48.2  34242  290.97 0854.43
2009/04/23 15:38:29.5     159   -141    159    213    265 131.6  40.6  34242  290.95 0854.43
2009/04/23 15:38:29.6     124   -116    171    171    241 133.1  50.1  34236  290.87 0854.43
2009/04/23 15:38:29.7      -1   -125    149    126    195 180.9  55.8  34220  290.58 0854.43
2009/04/23 15:38:29.8      12   -247    211    248    325 177.1  44.7  34218  290.56 0854.43
2009/04/23 15:38:29.9       7   -241    255    242    351 178.2  51.6  34232  290.80 0854.43
2009/04/23 15:38:30.0      10   -209    168    210    268 177.1  43.0  34232  290.80 0854.43
2009/04/23 15:38:30.1      54   -141    205    152    255 159.1  59.8  34246  291.03 0854.43
2009/04/23 15:38:30.2     -47     16    156     50    163 289.1  81.6  34258  291.25 0854.43
2009/04/23 15:38:30.3    -168   -133    170    215    274 231.8  42.4  34250  291.10 0854.43
2009/04/23 15:38:30.4    -273    -16     -1    274    275 266.6  -0.3  34240  290.93 0854.43
2009/04/23 15:38:30.5    -198     15   -161    199    255 274.4 -47.9  34244  290.99 0854.43
2009/04/23 15:38:30.6    -275     50   -149    280    317 280.4 -34.7  34226  290.68 0854.43
2009/04/23 15:38:30.7    -467   -158   -181    494    526 251.3 -25.4  34168  289.71 0854.43
2009/04/23 15:38:30.8    -395    -76   -142    403    428 259.1 -19.5  34160  289.56 0854.43
2009/04/23 15:38:30.9    -472    -65   -131    477    494 262.1 -20.1  34184  289.98 0854.43
2009/04/23 15:38:31.0    -299   -113    -98    320    334 249.2 -22.1  34164  289.65 0854.43
2009/04/23 15:38:31.1    -361   -271   -162    452    480 233.1 -25.0  34156  289.49 0854.42
2009/04/23 15:38:31.2    -364   -253    -73    444    451 235.2  -9.4  34160  289.56 0854.42
2009/04/23 15:38:31.3    -205   -201    -11    288    289 225.6  -2.2  34172  289.78 0854.42
2009/04/23 15:38:31.4    -226    -90    -17    244    245 248.3  -4.1  34182  289.93 0854.42
2009/04/23 15:38:31.5    -281   -244    -14    373    374 229.0  -2.3  34168  289.71 0854.42
2009/04/23 15:38:31.6    -223   -468    -23    519    520 205.5  -2.6  34154  289.46 0854.42
2009/04/23 15:38:31.7    -261   -414    -68    490    495 212.3  -8.0  34142  289.25 0854.42
2009/04/23 15:38:31.8    -270   -297   -136    402    425 222.2 -18.7  34146  289.34 0854.42
2009/04/23 15:38:31.9    -304   -225    -52    379    383 233.5  -7.9  34158  289.54 0854.42
2009/04/23 15:38:32.0    -250   -232    -63    342    348 227.1 -10.5  34154  289.48 0854.42
2009/04/23 15:38:32.1    -256   -204    -60    328    334 231.4 -10.4  34152  289.45 0854.42
2009/04/23 15:38:32.2    -299   -265    -81    400    409 228.5 -11.5  34148  289.36 0854.42
2009/04/23 15:38:32.3    -135   -283   -124    314    337 205.5 -27.2  34146  289.33 0854.42
2009/04/23 15:38:32.4    -104   -119   -138    159    210 221.0 -50.0  34176  289.85 0854.42
2009/04/23 15:38:32.5    -160    -65     -9    173    174 247.8  -3.1  34184  289.99 0854.42
2009/04/23 15:38:32.6    -139   -154     10    208    209 222.1   2.8  34186  290.02 0854.42
2009/04/23 15:38:32.7    -239   -180    143    300    332 232.9  27.3  34188  290.03 0854.42
2009/04/23 15:38:32.8    -253   -133     44    287    291 242.2   8.9  34188  290.05 0854.42
2009/04/23 15:38:32.9    -216   -166     23    273    275 232.5   4.9  34192  290.10 0854.42
2009/04/23 15:38:33.0    -281   -145     35    317    319 242.7   6.4  34212  290.44 0854.42
2009/04/23 15:38:33.1    -313   -104     51    330    334 251.6   8.8  34212  290.47 0854.43
2009/04/23 15:38:33.2    -309    -93     -6    323    324 253.2  -1.2  34208  290.39 0854.43
2009/04/23 15:38:33.3    -114    -98    142    151    207 229.1  48.0  34170  289.75 0854.43
2009/04/23 15:38:33.4     -21   -147    203    149    251 188.1  60.3  34188  290.04 0854.43
2009/04/23 15:38:33.5    -153    -17    169    155    229 263.4  52.5  34220  290.58 0854.43
2009/04/23 15:38:33.6    -147   -248     50    289    294 210.7   9.9  34226  290.70 0854.43
2009/04/23 15:38:33.7     -89   -293    -44    307    311 196.9  -8.3  34234  290.82 0854.43
2009/04/23 15:38:33.9    -101   -305    -43    322    325 198.3  -7.7  34170  289.73 0854.43
2009/04/23 15:38:33.9    -197   -342    -68    395    401 210.0  -9.8  34146  289.33 0854.43
2009/04/23 15:38:34.0    -117   -294     15    317    318 201.8   2.8  34156  289.51 0854.43
2009/04/23 15:38:34.1     -67   -284    -26    292    294 193.3  -5.2  34160  289.58 0854.43
2009/04/23 15:38:34.2     -86   -257     -1    272    273 198.5  -0.3  34152  289.44 0854.43
2009/04/23 15:38:34.3      -8   -337    -28    338    340 181.5  -4.9  34148  289.37 0854.43
2009/04/23 15:38:34.4      14   -310     30    311    313 177.3   5.7  34152  289.42 0854.43
2009/04/23 15:38:34.5      26   -425     45    426    429 176.5   6.1  34146  289.33 0854.43
2009/04/23 15:38:34.6    -102   -379      2    393    394 195.2   0.4  34158  289.55 0854.43
2009/04/23 15:38:34.7     -46   -229    -39    234    238 191.6  -9.6  34160  289.56 0854.43
2009/04/23 15:38:34.8     -76   -206    -73    220    231 200.5 -23.8  34150  289.40 0854.43
2009/04/23 15:38:34.9    -220   -121    -93    252    268 241.1 -25.4  34172  289.78 0854.43
2009/04/23 15:38:35.1      -3   -192     33    193    196 181.1   9.9  34160  289.57 0854.43
2009/04/23 15:38:35.1       1   -197     24    198    200 179.5   7.1  34164  289.63 0854.44
2009/04/23 15:38:35.2     -12   -327    -12    328    329 182.2  -2.2  34182  289.95 0854.44
2009/04/23 15:38:35.3     -62   -246      4    254    255 194.3   1.0  34200  290.26 0854.44
2009/04/23 15:38:35.4    -119   -224     13    254    255 208.1   3.1  34204  290.31 0854.44
2009/04/23 15:38:35.5    -121   -304      9    328    329 201.8   1.7  34196  290.17 0854.44
2009/04/23 15:38:35.6    -179   -216    -56    281    287 219.6 -11.3  34192  290.10 0854.44
2009/04/23 15:38:35.7    -196   -130    -71    236    246 236.3 -21.7  34184  289.98 0854.44
2009/04/23 15:38:35.8    -101    -36      1    108    109 250.0   0.8  34180  289.91 0854.44
2009/04/23 15:38:35.9     117   -316     59    338    344 159.7  10.0  34158  289.54 0854.44
2009/04/23 15:38:36.0      82   -298    -92    310    324 164.6 -16.5  34160  289.58 0854.44
2009/04/23 15:38:36.1     -43   -472    -38    475    477 185.3  -4.6  34162  289.61 0854.44
2009/04/23 15:38:36.3    -108   -425   -134    439    460 194.3 -17.0  34160  289.56 0854.44
2009/04/23 15:38:36.3     -38   -320    -89    323    336 186.9 -15.4  34156  289.52 0854.44
2009/04/23 15:38:36.4      31   -319   -140    321    350 174.4 -29.5  34166  289.69 0854.44
2009/04/23 15:38:36.5     148   -241    -62    284    291 148.4 -12.4  34194  290.15 0854.44
2009/04/23 15:38:36.6      63   -197    189    207    280 162.2  47.1  34186  290.00 0854.44
2009/04/23 15:38:36.7      27   -447    162    448    476 176.5  20.7  34170  289.73 0854.44
2009/04/23 15:38:36.8      26   -396    186    397    438 176.2  27.0  34164  289.65 0854.44
2009/04/23 15:38:36.9      67   -378    222    385    444 169.9  32.6  34174  289.80 0854.44
2009/04/23 15:38:37.0     156   -376    188    408    449 157.5  26.5  34170  289.73 0854.44
2009/04/23 15:38:37.1      95   -354    110    367    384 164.9  16.7  34178  289.86 0854.45
2009/04/23 15:38:37.3     105   -354    104    370    385 163.4  15.7  34182  289.94 0854.45
2009/04/23 15:38:37.4     137   -266    155    300    337 152.8  29.5  34186  290.00 0854.45
2009/04/23 15:38:37.5     159   -189    106    248    269 139.9  24.6  34176  289.85 0854.45
2009/04/23 15:38:37.6     111   -176    130    209    246 147.7  35.0  34186  290.02 0854.45
2009/04/23 15:38:37.7       3   -196    139    197    241 179.1  38.6  34178  289.89 0854.45
2009/04/23 15:38:37.8     -21   -152     54    154    164 188.0  19.4  34176  289.85 0854.45
2009/04/23 15:38:37.9    -105   -190     10    218    219 209.0   2.8  34172  289.77 0854.45
2009/04/23 15:38:38.0     -23   -203   -171    205    266 186.7 -48.2  34168  289.70 0854.45
2009/04/23 15:38:38.1    -316   -295   -180    433    468 226.9 -28.5  34186  290.02 0854.45
2009/04/23 15:38:38.2    -471   -414    -63    628    632 228.7  -5.8  34184  289.98 0854.44
2009/04/23 15:38:38.3    -392   -325     22    510    511 230.4   2.5  34196  290.17 0854.44
2009/04/23 15:38:38.4    -251   -231     84    342    353 227.3  13.9  34188  290.04 0854.44
2009/04/23 15:38:38.5    -268   -217    -66    345    352 231.0 -10.9  34190  290.08 0854.44
2009/04/23 15:38:38.6    -256   -239   -166    351    388 226.9 -31.5  34182  289.94 0854.44
2009/04/23 15:38:38.7    -188   -176   -184    258    316 226.9 -43.5  34188  290.03 0854.44
2009/04/23 15:38:38.8    -164   -293   -197    336    389 209.3 -37.7  34174  289.82 0854.44
2009/04/23 15:38:38.9    -381   -107    -92    396    407 254.2 -13.1  34194  290.16 0854.44
2009/04/23 15:38:39.0    -412    -79   -145    420    445 259.1 -19.1  34178  289.88 0854.44
2009/04/23 15:38:39.1    -374    -56   -194    379    425 261.4 -33.6  34170  289.73 0854.44
2009/04/23 15:38:39.2    -102   -249   -133    270    300 202.3 -32.6  34182  289.95 0854.44
2009/04/23 15:38:39.3     114   -285     60    308    314 158.2  11.1  34194  290.14 0854.44
2009/04/23 15:38:39.4     139   -263    105    298    317 152.0  19.4  34188  290.03 0854.44
2009/04/23 15:38:39.5     123   -176    152    216    264 145.0  38.6  34184  289.98 0854.44
2009/04/23 15:38:39.6     -13   -232    123    233    263 183.4  30.2  34198  290.22 0854.44
2009/04/23 15:38:39.7      91   -227     76    245    257 158.1  17.3  34180  289.92 0854.44
2009/04/23 15:38:39.8     119   -272      5    298    299 156.4   1.0  34180  289.92 0854.44
2009/04/23 15:38:39.9      64   -302     30    309    311 168.0   5.7  34178  289.86 0854.44
2009/04/23 15:38:40.0      10   -247    102    248    268 177.5  23.6  34180  289.92 0854.44
2009/04/23 15:38:40.1     155   -311    103    348    364 153.4  16.5  34176  289.84 0854.44
2009/04/23 15:38:40.2     134   -345    164    371    405 158.7  25.3  34174  289.82 0854.46
2009/04/23 15:38:40.3      71   -385    160    392    423 169.5  23.4  34172  289.77 0854.46
2009/04/23 15:38:40.4      47   -443    178    446    480 173.9  23.0  34170  289.74 0854.46
2009/04/23 15:38:40.5      73   -431    272    438    515 170.3  34.9  34166  289.69 0854.46
2009/04/23 15:38:40.6     162   -387    305    420    519 157.2  39.7  34166  289.69 0854.46
2009/04/23 15:38:40.7     144   -461    284    484    561 162.6  33.1  34174  289.82 0854.46
2009/04/23 15:38:40.8     196   -527    385    563    682 159.6  37.7  34182  289.94 0854.46
2009/04/23 15:38:40.9     237   -392    284    459    539 148.8  34.8  34166  289.67 0854.46
2009/04/23 15:38:41.0     194   -299    217    357    417 147.0  34.3  34174  289.81 0854.46
2009/04/23 15:38:41.1      78   -255     42    267    271 162.8   9.0  34174  289.80 0854.46
2009/04/23 15:38:41.2     125   -122    106    175    204 134.4  34.2  34174  289.82 0854.46
2009/04/23 15:38:41.3      15   -196    122    197    231 175.5  35.2  34170  289.74 0854.46
2009/04/23 15:38:41.4     -87   -314    111    326    345 195.5  18.9  34174  289.82 0854.46
2009/04/23 15:38:41.5      43   -214    172    219    278 168.5  42.0  34174  289.80 0854.46
2009/04/23 15:38:41.6      43   -254    179    258    314 170.2  38.3  34178  289.86 0854.46
2009/04/23 15:38:41.7     -95   -434    163    445    473 192.4  21.0  34182  289.93 0854.46
2009/04/23 15:38:41.8    -169   -417     50    451    454 202.1   6.4  34184  289.97 0854.46
2009/04/23 15:38:41.9    -220   -407     92    463    473 208.4  11.3  34176  289.84 0854.46
2009/04/23 15:38:42.0       0   -212    301    213    368 180.2  61.4  34194  290.14 0854.46
2009/04/23 15:38:42.1      15   -305     94    306    321 177.1  17.1  34178  289.86 0854.46
2009/04/23 15:38:42.2     -43   -373    123    376    396 186.6  18.1  34178  289.86 0854.47
2009/04/23 15:38:42.3     -92   -346     84    359    369 195.0  13.2  34186  290.01 0854.47
2009/04/23 15:38:42.4    -139   -263    103    298    316 207.9  19.1  34184  289.98 0854.47
2009/04/23 15:38:42.5      36   -253     -5    256    257 171.9  -1.3  34184  289.98 0854.47
2009/04/23 15:38:42.6     -42   -167     30    173    176 194.3  10.1  34184  289.97 0854.47
2009/04/23 15:38:42.7     -12   -186    -34    187    191 183.8 -10.5  34178  289.89 0854.47
2009/04/23 15:38:42.8     -43   -302    -92    306    320 188.1 -16.8  34186  290.02 0854.47
2009/04/23 15:38:42.9      41   -201    110    206    233 168.4  30.6  34188  290.04 0854.47
2009/04/23 15:38:43.0     182   -236     93    299    314 142.4  17.3  34190  290.09 0854.47
2009/04/23 15:38:43.1     120   -471    168    487    516 165.7  19.1  34192  290.10 0854.47
2009/04/23 15:38:43.2      77   -404    128    412    432 169.2  17.3  34200  290.24 0854.47
2009/04/23 15:38:43.3     210   -251    235    328    403 140.0  39.1  34192  290.11 0854.47
2009/04/23 15:38:43.4     291   -343     59    450    454 139.7   7.6  34202  290.28 0854.47
2009/04/23 15:38:43.5     306   -401     45    505    508 142.7   5.1  34188  290.03 0854.47
2009/04/23 15:38:43.6     217   -347    104    410    424 148.0  14.3  34180  289.90 0854.47
2009/04/23 15:38:43.7     207   -384    100    437    449 151.7  12.9  34176  289.85 0854.47
2009/04/23 15:38:43.8     196   -386     45    434    437 153.0   6.0  34196  290.19 0854.47
2009/04/23 15:38:43.9      65   -459    -34    464    466 171.9  -4.2  34198  290.22 0854.47
2009/04/23 15:38:44.0      38   -415    -21    417    418 174.7  -3.0  34196  290.17 0854.47
2009/04/23 15:38:44.1      76   -373    -90    381    392 168.4 -13.4  34184  289.98 0854.47
2009/04/23 15:38:44.2      61   -423      0    428    429 171.8   0.1  34170  289.75 0854.49
2009/04/23 15:38:44.3       1   -587      3    588    589 179.9   0.3  34166  289.69 0854.49
2009/04/23 15:38:44.4      37   -596      1    598    599 176.4   0.1  34184  289.97 0854.49
2009/04/23 15:38:44.5     211   -495    -69    539    544 156.9  -7.3  34178  289.87 0854.49
2009/04/23 15:38:44.6     107   -622    -60    632    635 170.2  -5.5  34194  290.15 0854.49
2009/04/23 15:38:44.7     252   -678   -122    724    735 159.6  -9.6  34154  289.47 0854.49
2009/04/23 15:38:44.8     248   -556   -185    609    637 155.9 -16.9  34138  289.21 0854.49
2009/04/23 15:38:44.9     107   -445   -214    458    505 166.5 -31.5  34166  289.69 0854.49
2009/04/23 15:38:45.0     132   -610   -107    625    635 167.7  -9.7  34198  290.20 0854.49
2009/04/23 15:38:45.1     229   -608   -179    650    675 159.3 -15.4  34196  290.17 0854.49
2009/04/23 15:38:45.2     182   -608   -228    635    675 163.3 -19.8  34194  290.14 0854.49
2009/04/23 15:38:45.3       1   -629    -52    630    633 179.9  -4.8  34204  290.32 0854.49
2009/04/23 15:38:45.4      96   -868      7    874    875 173.7   0.5  34194  290.15 0854.49
2009/04/23 15:38:45.5     214   -791    -87    820    825 164.9  -6.1  34188  290.03 0854.49
2009/04/23 15:38:45.6     154   -649   -115    668    679 166.6  -9.8  34192  290.12 0854.49
2009/04/23 15:38:45.7     284   -508    -35    583    585 150.8  -3.5  34180  289.90 0854.49
2009/04/23 15:38:45.8     312   -610     59    686    689 152.9   5.0  34176  289.83 0854.49
2009/04/23 15:38:45.9     241   -635     97    680    688 159.2   8.1  34184  289.97 0854.49
2009/04/23 15:38:46.0     137   -626     29    641    642 167.6   2.6  34172  289.79 0854.49
2009/04/23 15:38:46.1      42   -657    197    659    688 176.3  16.7  34170  289.75 0854.49
2009/04/23 15:38:46.2      30   -565    234    566    612 176.9  23.7  34174  289.80 0854.50
2009/04/23 15:38:46.3     -35   -564    128    566    581 183.6  12.8  34170  289.73 0854.50
2009/04/23 15:38:46.4      11   -652     86    653    659 179.0   7.6  34164  289.63 0854.50
2009/04/23 15:38:46.5    -104   -511   -165    522    548 191.6 -17.5  34166  289.68 0854.50
2009/04/23 15:38:46.6    -293   -602   -225    670    707 206.0 -18.6  34158  289.53 0854.50
2009/04/23 15:38:46.7    -214   -559   -254    599    650 201.0 -28.7  34142  289.25 0854.50
2009/04/23 15:38:46.8     -99   -314   -194    330    382 197.6 -37.5  34166  289.67 0854.50
2009/04/23 15:38:46.9     -92   -461   -160    471    497 191.3 -23.8  34168  289.71 0854.50
2009/04/23 15:38:47.0    -155   -630   -233    649    690 193.9 -19.8  34160  289.56 0854.50
2009/04/23 15:38:47.1    -161   -566   -199    589    622 195.9 -18.7  34162  289.61 0854.50
2009/04/23 15:38:47.2    -231   -253   -263    343    432 222.4 -45.9  34160  289.58 0854.50
2009/04/23 15:38:47.3    -186   -309   -288    361    461 211.0 -47.1  34164  289.63 0854.50
2009/04/23 15:38:47.4    -234   -213   -232    317    392 227.7 -44.3  34158  289.55 0854.50
2009/04/23 15:38:47.5     -13   -287   -323    288    432 182.6 -58.3  34164  289.64 0854.50
2009/04/23 15:38:47.6     -53   -264   -264    270    377 191.5 -53.8  34174  289.81 0854.50
2009/04/23 15:38:47.7      75   -219   -276    232    360 161.1 -60.1  34156  289.49 0854.50
2009/04/23 15:38:47.8      -6   -123   -209    124    243 183.1 -71.1  34166  289.69 0854.50
2009/04/23 15:38:47.9      72   -217   -258    229    344 161.5 -58.4  34166  289.66 0854.50
2009/04/23 15:38:48.0     155     31   -195    159    251  78.5 -60.8  34172  289.77 0854.50
2009/04/23 15:38:48.1     151     72   -182    168    247  64.5 -56.9  34168  289.72 0854.50
2009/04/23 15:38:48.2     211   -118   -210    242    320 119.3 -49.9  34170  289.75 0854.46
2009/04/23 15:38:48.3     -46   -140    -87    148    171 198.3 -37.5  34168  289.70 0854.46
2009/04/23 15:38:48.4     -88   -153   -112    177    209 209.9 -39.9  34174  289.82 0854.46
2009/04/23 15:38:48.5    -177   -146   -123    230    260 230.5 -34.7  34166  289.66 0854.46
2009/04/23 15:38:48.6    -331   -121    -46    353    356 249.9  -7.5  34162  289.60 0854.46
2009/04/23 15:38:48.7    -363    -85    -49    373    377 256.8  -7.5  34164  289.64 0854.46
2009/04/23 15:38:48.8    -315    -95     41    329    332 253.2   7.1  34162  289.60 0854.46
2009/04/23 15:38:48.9    -237    -83      7    252    253 250.7   1.6  34160  289.56 0854.46
2009/04/23 15:38:49.0    -242     21    -62    243    251 275.0 -14.4  34156  289.51 0854.46
2009/04/23 15:38:49.1    -247     64    -75    256    266 284.6 -21.0  34154  289.47 0854.46
2009/04/23 15:38:49.2    -201    -47    -84    207    223 256.7 -27.4  34164  289.65 0854.46
2009/04/23 15:38:49.3    -294    -36   -152    297    333 263.0 -33.6  34158  289.54 0854.46
2009/04/23 15:38:49.4    -414    -73   -131    421    440 260.0 -22.3  34152  289.44 0854.46
2009/04/23 15:38:49.5    -447    -82   -139    455    475 259.5 -22.1  34154  289.47 0854.46
2009/04/23 15:38:49.6    -337    -80   -205    347    403 256.6 -37.9  34136  289.16 0854.46
2009/04/23 15:38:49.7    -382   -106   -104    397    411 254.4 -14.8  34162  289.60 0854.46
2009/04/23 15:38:49.8    -365   -221   -101    427    439 238.8 -13.4  34164  289.63 0854.46
2009/04/23 15:38:49.9    -402   -382    -30    555    556 226.4  -3.2  34148  289.38 0854.46
2009/04/23 15:38:50.0    -242   -275    168    367    403 221.4  26.3  34152  289.45 0854.46
2009/04/23 15:38:50.1    -172   -334    175    376    414 207.3  26.9  34156  289.49 0854.46
2009/04/23 15:38:50.2     -93   -393    194    405    449 193.4  27.3  34150  289.39 0854.43
2009/04/23 15:38:50.3      52   -411    327    415    528 172.8  42.2  34156  289.50 0854.43
2009/04/23 15:38:50.4     266   -280    367    387    533 136.5  48.4  34152  289.42 0854.43
2009/04/23 15:38:50.5     289   -218    344    363    500 127.1  48.4  34152  289.43 0854.43
2009/04/23 15:38:50.6     280   -285    290    400    494 135.5  39.5  34152  289.45 0854.43
2009/04/23 15:38:50.7     264   -280    268    385    469 136.7  38.3  34146  289.33 0854.43
2009/04/23 15:38:50.8     196   -298    255    357    438 146.6  39.1  34146  289.33 0854.43
2009/04/23 15:38:50.9     151   -306    280    342    442 153.8  43.7  34138  289.19 0854.43
2009/04/23 15:38:51.0     205   -302    239    366    437 145.8  36.3  34138  289.19 0854.43
2009/04/23 15:38:51.1     104   -396    197    410    454 165.2  27.3  34140  289.24 0854.43
2009/04/23 15:38:51.2      66   -389    167    395    428 170.3  24.2  34144  289.29 0854.43
2009/04/23 15:38:51.3     114   -342    135    361    385 161.5  21.4  34140  289.23 0854.43
2009/04/23 15:38:51.4     147   -338    145    369    396 156.4  22.7  34142  289.28 0854.43
2009/04/23 15:38:51.5      35   -331    192    333    384 173.9  32.7  34146  289.33 0854.43
2009/04/23 15:38:51.6      62   -326    176    332    375 169.2  30.3  34154  289.48 0854.43
2009/04/23 15:38:51.7      55   -338    210    343    402 170.7  34.4  34162  289.62 0854.43
2009/04/23 15:38:51.8      53   -458    164    462    490 173.3  20.4  34174  289.81 0854.43
2009/04/23 15:38:51.9     129   -457    205    475    517 164.2  25.1  34176  289.84 0854.43
2009/04/23 15:38:52.0      45   -424    235    427    487 173.9  31.4  34184  289.98 0854.43
2009/04/23 15:38:52.1      45   -441    344    444    561 174.1  41.7  34156  289.50 0854.43
2009/04/23 15:38:52.2      80   -485    295    492    573 170.6  33.7  34160  289.57 0854.44
2009/04/23 15:38:52.3     112   -514    338    527    626 167.6  35.7  34170  289.73 0854.44
2009/04/23 15:38:52.4       0   -515    347    516    621 180.0  37.2  34164  289.63 0854.44
2009/04/23 15:38:52.5     324   -304    148    445    470 133.1  18.5  34166  289.66 0854.44
2009/04/23 15:38:52.6     236   -428    143    489    510 151.1  16.3  34156  289.52 0854.44
2009/04/23 15:38:52.7     111   -410    202    425    470 164.9  27.3  34174  289.82 0854.44
2009/04/23 15:38:52.8     266   -440    114    515    528 148.8  12.5  34168  289.72 0854.44
2009/04/23 15:38:52.9     199   -608   -132    640    654 161.8 -11.7  34156  289.50 0854.44
2009/04/23 15:38:53.0     203   -581    -33    616    617 160.7  -3.1  34152  289.42 0854.44
2009/04/23 15:38:53.1      72   -512   -111    518    530 172.0 -12.2  34150  289.40 0854.44
2009/04/23 15:38:53.2    -116   -357   -234    376    442 198.1 -39.4  34168  289.70 0854.44
2009/04/23 15:38:53.3    -195   -310    -47    367    371 212.1  -7.3  34164  289.65 0854.44
2009/04/23 15:38:53.4    -330   -615    -97    698    705 208.2  -7.9  34192  290.10 0854.44
2009/04/23 15:38:53.5    -313   -487     53    580    583 212.8   5.3  34190  290.07 0854.44
2009/04/23 15:38:53.6    -214   -374    -67    431    437 209.8  -8.9  34184  289.99 0854.44
2009/04/23 15:38:53.7    -228   -228   -102    323    339 225.0 -17.6  34182  289.94 0854.44
2009/04/23 15:38:53.8    -159   -188   -129    247    278 220.3 -34.2  34178  289.88 0854.44
2009/04/23 15:38:53.9    -397   -131   -121    419    436 251.7 -20.9  34188  290.04 0854.44
2009/04/23 15:38:54.0    -362   -361   -201    512    550 225.1 -26.9  34140  289.23 0854.44
2009/04/23 15:38:54.1    -438   -205   -148    484    506 244.9 -21.9  34156  289.52 0854.44
2009/04/23 15:38:54.2    -323   -292   -197    436    478 227.9 -30.4  34156  289.52 0854.39
2009/04/23 15:38:54.3    -144   -391    -30    417    419 200.3  -4.1  34166  289.68 0854.39
2009/04/23 15:38:54.4    -219   -348   -106    412    426 212.2 -14.5  34168  289.70 0854.39
2009/04/23 15:38:54.5     -17   -379   -196    380    427 182.6 -33.7  34166  289.66 0854.39
2009/04/23 15:38:54.6    -117   -325    -15    346    347 199.9  -2.6  34170  289.74 0854.39
2009/04/23 15:38:54.7    -377   -396   -173    548    574 223.6 -22.8  34156  289.51 0854.39
2009/04/23 15:38:54.8    -335   -273   -159    433    461 230.8 -25.4  34162  289.61 0854.39
2009/04/23 15:38:54.9    -351   -212   -155    411    439 238.9 -26.0  34176  289.83 0854.39
2009/04/23 15:38:55.0    -120   -300    -37    324    327 201.8  -6.6  34170  289.73 0854.39
2009/04/23 15:38:55.1     -80   -214    -28    229    231 200.5  -7.2  34164  289.65 0854.39
2009/04/23 15:38:55.2     -56   -185    -23    194    196 196.9  -6.9  34176  289.85 0854.39
2009/04/23 15:38:55.3    -115   -158    -65    196    207 216.1 -18.3  34178  289.89 0854.39
2009/04/23 15:38:55.4    -156   -122     32    199    202 232.0   9.3  34176  289.84 0854.39
2009/04/23 15:38:55.5     -19   -182    -53    184    192 186.0 -16.0  34164  289.65 0854.39
2009/04/23 15:38:55.6     -21   -137    -89    139    165 188.9 -40.0  34164  289.63 0854.39
2009/04/23 15:38:55.7      17   -177     21    178    180 174.4   6.9  34164  289.63 0854.39
2009/04/23 15:38:55.8     163   -240    -15    291    292 145.7  -3.1  34162  289.61 0854.39
2009/04/23 15:38:55.9      -7   -315    -50    316    321 181.4  -9.1  34164  289.64 0854.39
2009/04/23 15:38:56.0       5   -304    -11    305    306 178.9  -2.2  34166  289.68 0854.39
2009/04/23 15:38:56.1     128   -292      0    320    321 156.3   0.1  34166  289.66 0854.39
2009/04/23 15:38:56.2     180   -254    -39    312    315 144.6  -7.2  34166  289.66 0854.39
2009/04/23 15:38:56.3     165   -184      7    248    249 138.1   1.8  34162  289.61 0854.39
2009/04/23 15:38:56.4     244   -110    -64    268    276 114.4 -13.4  34162  289.59 0854.39
2009/04/23 15:38:56.5     316   -239   -162    397    428 127.1 -27.6  34164  289.63 0854.39
2009/04/23 15:38:56.6     172   -160    -38    236    240 132.9  -9.3  34158  289.53 0854.39
2009/04/23 15:38:56.7     -29   -154   -153    157    219 190.7 -53.8  34170  289.74 0854.39
2009/04/23 15:38:56.8     163   -209   -149    266    304 142.1 -35.8  34166  289.68 0854.39
2009/04/23 15:38:56.9      43   -341    -22    344    345 172.8  -3.7  34168  289.71 0854.39
2009/04/23 15:38:57.0     115   -378     -8    396    397 163.1  -1.3  34166  289.69 0854.39
2009/04/23 15:38:57.1      42   -349     75    352    361 173.0  12.1  34168  289.72 0854.39
2009/04/23 15:38:57.2      88   -338     71    350    358 165.3  11.5  34174  289.81 0854.39
2009/04/23 15:38:57.3      90   -378     91    389    400 166.6  13.3  34174  289.82 0854.39
2009/04/23 15:38:57.4     118   -357    128    377    399 161.7  18.8  34170  289.74 0854.39
2009/04/23 15:38:57.5      97   -398    114    410    426 166.2  15.6  34172  289.78 0854.39
2009/04/23 15:38:57.6     -58   -461    197    465    505 187.2  24.3  34170  289.74 0854.39
2009/04/23 15:38:57.7     -14   -466    229    467    520 181.8  28.1  34172  289.78 0854.39
2009/04/23 15:38:57.8    -103   -539    107    549    560 190.8  11.1  34170  289.74 0854.39
2009/04/23 15:38:57.9    -108   -524     46    536    539 191.7   5.0  34166  289.68 0854.39
2009/04/23 15:38:58.0     -19   -616    112    617    628 181.8  10.3  34164  289.65 0854.39
2009/04/23 15:38:58.1     -41   -594    122    596    609 184.0  11.6  34158  289.54 0854.40
2009/04/23 15:38:58.2     -57   -549    195    553    587 186.0  19.4  34168  289.71 0854.40
2009/04/23 15:38:58.3      13   -507    228    508    556 178.5  25.9  34166  289.67 0854.40
2009/04/23 15:38:58.4     -48   -555    194    558    591 185.0  19.2  34164  289.63 0854.40
2009/04/23 15:38:58.5       6   -410    218    411    465 179.1  30.2  34170  289.73 0854.40
2009/04/23 15:38:58.6     -18   -390    299    391    492 182.7  41.2  34178  289.87 0854.40
2009/04/23 15:38:58.7     143   -358    252    386    460 158.2  36.3  34182  289.95 0854.40
2009/04/23 15:38:58.8      72   -352    189    360    406 168.4  30.0  34170  289.74 0854.40
2009/04/23 15:38:58.9      74   -394    126    402    422 169.3  17.4  34170  289.73 0854.40
2009/04/23 15:38:59.0      75   -406    195    413    456 169.5  27.1  34168  289.72 0854.40
2009/04/23 15:38:59.1      49   -455     76    458    465 173.8   9.5  34166  289.66 0854.40
2009/04/23 15:38:59.2     191   -436     78    477    484 156.3   9.3  34166  289.69 0854.40
2009/04/23 15:38:59.3     103   -370    158    385    416 164.4  23.5  34166  289.66 0854.40
2009/04/23 15:38:59.4      52   -377    184    381    423 172.1  27.4  34162  289.61 0854.40
2009/04/23 15:38:59.5     -27   -440    173    441    473 183.6  22.5  34166  289.68 0854.40
2009/04/23 15:38:59.6    -126   -388     89    409    419 198.0  12.3  34178  289.88 0854.40
2009/04/23 15:38:59.7    -109   -343    165    360    396 197.7  26.2  34172  289.76 0854.40
2009/04/23 15:38:59.8    -112   -415    258    431    502 195.2  33.8  34182  289.96 0854.40
2009/04/23 15:38:59.9     -36   -314    331    317    458 186.7  51.3  34170  289.75 0854.40
2009/04/23 15:39:00.0     -48   -263    264    268    376 190.5  49.9  34178  289.89 0854.40
2009/04/23 15:39:00.1      61   -137    185    151    238 155.9  56.6  34178  289.89 0854.40
2009/04/23 15:39:00.2      60    -63    102     88    134 136.3  54.8  34190  290.09 0854.40
2009/04/23 15:39:00.3       9   -118     64    119    135 175.6  30.8  34180  289.92 0854.40
2009/04/23 15:39:00.4     -99   -338     60    353    359 196.4   9.7  34168  289.71 0854.40
2009/04/23 15:39:00.5     -57   -318    111    324    343 190.3  18.9  34168  289.71 0854.40
2009/04/23 15:39:00.6      47   -375    155    378    408 172.8  23.5  34168  289.71 0854.40
2009/04/23 15:39:00.7     -67   -506    158    511    535 187.6  17.2  34166  289.68 0854.40
2009/04/23 15:39:00.8     -81   -430    123    438    455 190.7  15.7  34170  289.73 0854.40
2009/04/23 15:39:00.9    -106   -410    150    424    450 194.5  19.5  34176  289.83 0854.40
2009/04/23 15:39:01.0      -1   -397     56    398    403 180.3   8.0  34178  289.89 0854.40
2009/04/23 15:39:01.1     -30   -487    110    488    501 183.6  12.8  34176  289.84 0854.42
2009/04/23 15:39:01.2      -4   -533    166    534    560 180.5  17.3  34174  289.82 0854.42
2009/04/23 15:39:01.3       7   -445    161    446    475 179.0  19.9  34178  289.89 0854.42
2009/04/23 15:39:01.4    -119   -401    147    419    445 196.5  19.3  34174  289.82 0854.42
2009/04/23 15:39:01.5     -29   -340     63    342    348 184.9  10.6  34182  289.93 0854.42
2009/04/23 15:39:01.6       6   -478    256    479    543 179.2  30.5  34184  289.99 0854.42
2009/04/23 15:39:01.7     111   -319    278    338    437 160.8  43.7  34184  289.97 0854.42
2009/04/23 15:39:01.8    -113   -402    304    418    516 195.8  39.7  34178  289.89 0854.42
2009/04/23 15:39:01.9    -135   -229     88    266    281 210.5  18.4  34174  289.81 0854.42
2009/04/23 15:39:02.0     -22   -111    125    114    169 191.5  53.0  34178  289.89 0854.42
2009/04/23 15:39:02.1    -160   -207    324    262    416 217.8  57.0  34174  289.82 0854.42
2009/04/23 15:39:02.2    -230   -372     65    438    443 211.7   8.5  34180  289.90 0854.42
2009/04/23 15:39:02.3    -390   -305     76    496    502 232.0   8.7  34196  290.18 0854.42
2009/04/23 15:39:02.4    -411   -203    200    459    500 243.7  25.1  34198  290.20 0854.42
2009/04/23 15:39:02.5    -262   -177     89    317    330 235.9  15.8  34198  290.20 0854.42
2009/04/23 15:39:02.6      48   -191    -25    198    200 165.7  -7.3  34170  289.74 0854.42
2009/04/23 15:39:02.7      32   -225     19    228    229 171.8   4.9  34172  289.79 0854.42
2009/04/23 15:39:02.8     -63   -124     30    140    144 207.2  12.2  34172  289.79 0854.42
2009/04/23 15:39:02.9      40   -125     52    132    141 162.2  23.0  34172  289.77 0854.42
2009/04/23 15:39:03.0    -142     38    114    147    186 285.0  42.0  34166  289.67 0854.42
2009/04/23 15:39:03.1     -60    178     80    188    204 341.3  24.6  34172  289.77 0854.47
2009/04/23 15:39:03.2     -37    -40    144     55    154 223.2  78.6  34190  290.08 0854.47
2009/04/23 15:39:03.3     -27   -173    109    176    207 188.9  35.0  34182  289.96 0854.47
2009/04/23 15:39:03.4     -48   -178     19    185    187 195.2   6.1  34172  289.77 0854.47
2009/04/23 15:39:03.5     -58   -175      8    185    186 198.5   2.5  34170  289.75 0854.47
2009/04/23 15:39:03.6    -141   -254    -48    291    295 209.0  -9.4  34172  289.76 0854.47
2009/04/23 15:39:03.7    -209   -185    -51    280    285 228.6 -10.4  34174  289.81 0854.47
2009/04/23 15:39:03.8    -175   -353    -62    395    400 206.4  -9.0  34172  289.79 0854.47
2009/04/23 15:39:03.9    -219   -470    -61    519    523 205.0  -6.8  34168  289.72 0854.47
2009/04/23 15:39:04.0    -289   -287   -122    408    426 225.2 -16.7  34172  289.77 0854.47
2009/04/23 15:39:04.1    -319   -124    -90    343    355 248.7 -14.8  34184  289.98 0854.47
2009/04/23 15:39:04.3    -226    -68   -224    237    326 253.2 -52.8  34182  289.95 0854.47
2009/04/23 15:39:04.4    -196     28   -106    199    225 278.4 -34.7  34186  290.02 0854.47
2009/04/23 15:39:04.5    -123   -106    -25    163    166 229.3  -9.0  34182  289.96 0854.47
2009/04/23 15:39:04.6     -69   -101    -10    123    124 214.3  -5.1  34184  289.97 0854.47
2009/04/23 15:39:04.7      66    -61     44     90    100 132.7  27.8  34182  289.96 0854.47
2009/04/23 15:39:04.8     148    -20    -13    150    151  98.0  -5.1  34182  289.94 0854.47
2009/04/23 15:39:04.9     151     23    132    153    202  81.2  45.6  34184  289.97 0854.47
2009/04/23 15:39:05.0     164     -6     76    165    181  92.4  26.4  34184  289.99 0854.47
2009/04/23 15:39:05.1     123    -52      6    134    135 113.1   2.8  34176  289.85 0854.47
2009/04/23 15:39:05.2      -7    -44    131     45    138 189.8  80.7  34186  290.02 0854.38
2009/04/23 15:39:05.3     -11     18    211     22    212 329.3  90.0  34202  290.30 0854.38
2009/04/23 15:39:05.4     132    -78    202    154    254 120.6  59.0  34188  290.06 0854.38
2009/04/23 15:39:05.5      18    -25    127     31    130 143.9  86.9  34188  290.04 0854.38
2009/04/23 15:39:05.6     -10     -9    153     14    153 226.7  90.0  34196  290.19 0854.38
2009/04/23 15:39:05.7     -87     72    199    113    228 309.6  68.1  34188  290.06 0854.38
2009/04/23 15:39:05.8    -202     80    185    218    285 291.7  44.8  34200  290.26 0854.38
2009/04/23 15:39:05.9    -228    200     64    304    311 311.3  12.0  34200  290.24 0854.38
2009/04/23 15:39:06.0    -161    102     66    191    203 302.4  19.2  34206  290.36 0854.38
2009/04/23 15:39:06.1     -15      4    -56     16     58 288.2 -86.2  34202  290.30 0854.38
2009/04/23 15:39:06.2      20    102     74    104    127  11.1  39.5  34214  290.48 0854.38
2009/04/23 15:39:06.3     200    -21    227    202    303  96.1  54.2  34180  289.90 0854.38
2009/04/23 15:39:06.4     205      0    264    206    334  90.0  58.0  34188  290.05 0854.38
2009/04/23 15:39:06.5     137     75    253    157    297  61.1  65.1  34198  290.20 0854.38
2009/04/23 15:39:06.6     -89    232    155    249    293 339.0  35.2  34192  290.10 0854.38
2009/04/23 15:39:06.7     -67    250     13    260    261 344.9   2.9  34196  290.19 0854.38
2009/04/23 15:39:06.8    -221    -74     -1    234    235 251.4  -0.3  34172  289.76 0854.38
2009/04/23 15:39:06.9    -288    -58    158    294    333 258.5  30.6  34190  290.09 0854.38
2009/04/23 15:39:07.0     -67   -171    283    184    337 201.4  64.1  34190  290.07 0854.38
2009/04/23 15:39:07.1    -129   -202    264    240    356 212.6  53.2  34184  289.98 0854.38
2009/04/23 15:39:07.2      -8   -109    207    110    234 184.5  69.8  34172  289.79 0854.30
2009/04/23 15:39:07.3     -58   -249    216    256    334 193.3  44.4  34164  289.63 0854.30
2009/04/23 15:39:07.4     -78    -60    127     99    161 232.2  58.2  34168  289.70 0854.30
2009/04/23 15:39:07.5      95     65     55    116    128  55.4  27.1  34184  289.97 0854.30
2009/04/23 15:39:07.6      -8     41    238     42    241 348.4  90.0  34198  290.21 0854.30
2009/04/23 15:39:07.7     -45     85    177     97    201 331.9  68.8  34186  290.02 0854.30
2009/04/23 15:39:07.8       0   -155    146    156    213 180.0  48.2  34178  289.87 0854.30
2009/04/23 15:39:07.9    -194   -156     31    250    252 231.1   7.2  34196  290.17 0854.30
2009/04/23 15:39:08.0      35     56     33     67     74  32.5  27.3  34194  290.16 0854.30
2009/04/23 15:39:08.1       0    -91     38     92     99 180.4  23.1  34192  290.11 0854.30
2009/04/23 15:39:08.2      -6    -50    104     51    115 187.1  72.8  34182  289.94 0854.30
2009/04/23 15:39:08.3    -297     25    -86    299    311 275.0 -20.7  34154  289.46 0854.30
2009/04/23 15:39:08.4     -18   -154    135    156    206 186.7  45.4  34176  289.84 0854.30
2009/04/23 15:39:08.5    -240   -282    189    371    416 220.4  29.2  34162  289.62 0854.30
2009/04/23 15:39:08.6     -10   -161    247    162    295 183.8  63.6  34170  289.73 0854.30
2009/04/23 15:39:08.7     -29   -529    468    530    707 183.2  45.9  34152  289.43 0854.30
2009/04/23 15:39:08.8      22   -671    405    672    784 178.1  33.8  34134  289.14 0854.30
2009/04/23 15:39:08.9      74   -561    263    566    624 172.4  26.6  34126  289.00 0854.30
2009/04/23 15:39:09.0     -73   -492     33    498    500 188.5   3.8  34116  288.83 0854.30
2009/04/23 15:39:09.1     -53   -531   -120    534    548 185.8 -12.7  34120  288.89 0854.30
2009/04/23 15:39:09.2    -131   -502   -106    519    530 194.7 -11.6  34116  288.82 0854.31
2009/04/23 15:39:09.3     -79   -315    -56    325    330 194.2  -9.9  34120  288.91 0854.31
2009/04/23 15:39:09.4      25   -300     37    302    305 175.1   7.1  34124  288.95 0854.31
2009/04/23 15:39:09.5      17   -252     34    253    256 176.0   7.8  34126  289.00 0854.31
2009/04/23 15:39:09.6      50   -294     37    299    302 170.2   7.1  34120  288.90 0854.31
2009/04/23 15:39:09.7      95   -408    292    419    510 166.9  38.4  34098  288.52 0854.31
2009/04/23 15:39:09.8      -5   -369    205    370    422 180.9  31.4  34106  288.65 0854.31
2009/04/23 15:39:09.9     198   -102    265    223    346 117.3  55.8  34126  289.00 0854.31
2009/04/23 15:39:10.0    -129   -360    217    383    440 199.8  32.1  34114  288.80 0854.31
2009/04/23 15:39:10.1    -166   -436    127    467    485 200.9  15.3  34116  288.84 0854.31
2009/04/23 15:39:10.2    -102   -503    124    514    529 191.5  13.6  34130  289.07 0854.31
2009/04/23 15:39:10.3     -23   -358    -59    359    364 183.8  -9.4  34130  289.06 0854.31
2009/04/23 15:39:10.4      10   -367   -111    368    384 178.4 -21.7  34122  288.93 0854.31
2009/04/23 15:39:10.5      64   -255    -41    263    267 165.8  -9.0  34132  289.09 0854.31
2009/04/23 15:39:10.6     115   -179    -20    213    215 147.3  -5.4  34130  289.06 0854.31
2009/04/23 15:39:10.7     206   -227     38    307    310 137.7   7.1  34134  289.14 0854.31
2009/04/23 15:39:10.8     220   -102      4    243    244 114.8   1.0  34134  289.14 0854.31
2009/04/23 15:39:10.9     205   -193    -30    282    284 133.2  -6.1  34134  289.12 0854.31
2009/04/23 15:39:11.0      96   -428     69    439    445 167.3   9.0  34128  289.04 0854.31
2009/04/23 15:39:11.1     143   -492    110    513    525 163.7  12.1  34124  288.96 0854.31
2009/04/23 15:39:11.2      70   -555    177    560    588 172.8  17.5  34124  288.97 0854.35
2009/04/23 15:39:11.3     -35   -503    514    505    720 184.0  50.6  34124  288.95 0854.35
2009/04/23 15:39:11.4     185   -437    221    475    523 157.1  26.9  34128  289.03 0854.35
2009/04/23 15:39:11.5     301   -460    300    550    626 146.8  31.0  34108  288.68 0854.35
2009/04/23 15:39:11.6     189   -387    347    431    553 153.9  42.8  34122  288.93 0854.35
2009/04/23 15:39:11.7     325   -267    174    421    455 129.4  23.7  34116  288.83 0854.35
2009/04/23 15:39:11.8     219   -445    121    497    512 153.8  13.7  34116  288.81 0854.35
2009/04/23 15:39:11.9     188   -615    120    644    656 163.0  10.6  34122  288.93 0854.35
2009/04/23 15:39:12.0     207   -556    218    594    632 159.6  21.0  34116  288.84 0854.35
2009/04/23 15:39:12.1      33   -669    242    670    713 177.1  19.9  34124  288.96 0854.35
2009/04/23 15:39:12.2      33   -568    239    570    618 176.6  24.2  34122  288.93 0854.35
2009/04/23 15:39:12.3     137   -387    -16    411    412 160.4  -2.2  34122  288.92 0854.35
2009/04/23 15:39:12.4     306   -534     95    616    624 150.2   8.8  34128  289.03 0854.35
2009/04/23 15:39:12.5     208   -498     95    540    549 157.3  10.0  34132  289.09 0854.35
2009/04/23 15:39:12.6     166   -250     -1    301    302 146.4  -0.3  34128  289.02 0854.35
2009/04/23 15:39:12.7     173   -516    134    545    562 161.4  13.8  34124  288.96 0854.35
2009/04/23 15:39:12.8      94   -850    121    856    865 173.7   8.1  34126  289.00 0854.35
2009/04/23 15:39:12.9     119   -629     42    641    643 169.3   3.8  34132  289.11 0854.35
2009/04/23 15:39:13.0     196   -578     87    611    618 161.2   8.1  34130  289.08 0854.35
2009/04/23 15:39:13.1     192   -440    167    481    510 156.4  19.2  34130  289.05 0854.35
2009/04/23 15:39:13.2      79   -292    223    303    376 164.8  39.9  34136  289.15 0854.38
2009/04/23 15:39:13.3      -4   -173    284    174    333 181.4  65.7  34140  289.22 0854.38
2009/04/23 15:39:13.4    -171   -442    308    475    566 201.2  36.0  34130  289.07 0854.38
2009/04/23 15:39:13.5    -114   -388    245    405    473 196.4  34.0  34134  289.12 0854.38
2009/04/23 15:39:13.6    -129   -273    210    303    368 205.3  38.0  34130  289.08 0854.38
2009/04/23 15:39:13.7    -172   -216    125    277    303 218.5  26.2  34136  289.15 0854.38
2009/04/23 15:39:13.8     -60   -173     32    184    187 199.2   9.9  34136  289.18 0854.38
2009/04/23 15:39:13.9      57    -21     54     61     81 110.8  46.4  34160  289.57 0854.38
2009/04/23 15:39:14.0      77    -72     97    106    143 133.1  47.9  34150  289.41 0854.38
2009/04/23 15:39:14.1      24    -24     93     34     99 135.0  79.7  34170  289.74 0854.38
2009/04/23 15:39:14.2     -53     53    -26     76     80 314.9 -23.8  34144  289.30 0854.38
2009/04/23 15:39:14.3    -290   -278    134    403    425 226.2  18.5  34132  289.09 0854.38
2009/04/23 15:39:14.4    -178   -371    230    412    471 205.7  31.6  34136  289.16 0854.38
2009/04/23 15:39:14.5     -31   -374    308    376    486 184.9  43.6  34136  289.16 0854.38
2009/04/23 15:39:14.6      -8   -540    294    541    615 180.9  30.9  34130  289.05 0854.38
2009/04/23 15:39:14.7      94   -496    274    505    574 169.2  30.9  34130  289.06 0854.38
2009/04/23 15:39:14.8     130   -546    296    562    635 166.6  30.0  34126  289.00 0854.38
2009/04/23 15:39:14.9      53   -565    297    568    640 174.6  29.8  34126  289.01 0854.38
2009/04/23 15:39:15.0     204   -647    367    679    771 162.5  30.8  34130  289.06 0854.38
2009/04/23 15:39:15.1     242   -552    252    604    654 156.3  24.1  34118  288.87 0854.38
2009/04/23 15:39:15.2     245   -510    201    567    601 154.3  20.4  34128  289.03 0854.40
2009/04/23 15:39:15.3     290   -526    286    601    665 151.1  27.3  34120  288.89 0854.40
2009/04/23 15:39:15.4     147   -521    266    542    603 164.2  28.2  34116  288.83 0854.40
2009/04/23 15:39:15.5      91   -503    318    512    602 169.7  34.9  34118  288.85 0854.40
2009/04/23 15:39:15.6     145   -629    286    646    706 167.0  25.5  34118  288.85 0854.40
2009/04/23 15:39:15.7     175   -653    338    676    755 165.0  28.6  34110  288.71 0854.40
2009/04/23 15:39:15.8     277   -692    489    746    891 158.2  36.4  34112  288.75 0854.40
2009/04/23 15:39:15.9     335   -595    452    684    819 150.6  36.6  34114  288.78 0854.40
2009/04/23 15:39:16.0     189   -398    420    441    609 154.5  48.5  34118  288.85 0854.40
2009/04/23 15:39:16.1     108   -324    325    342    471 161.4  48.5  34116  288.82 0854.40
2009/04/23 15:39:16.2     276   -415    209    499    541 146.4  24.1  34124  288.96 0854.40
2009/04/23 15:39:16.3       0   -346    215    347    408 179.9  34.9  34110  288.72 0854.40
2009/04/23 15:39:16.4     159   -115    152    197    248 125.9  41.7  34142  289.25 0854.40
2009/04/23 15:39:16.5      92   -200     -4    221    222 155.3  -1.3  34136  289.18 0854.40
2009/04/23 15:39:16.6     335   -357     46    490    493 136.8   5.4  34138  289.20 0854.40
2009/04/23 15:39:16.7     213   -313     54    379    383 145.7   8.2  34136  289.16 0854.40
2009/04/23 15:39:16.8      -2   -232    -92    233    250 180.7 -27.2  34140  289.24 0854.40
2009/04/23 15:39:16.9      44   -179   -121    185    221 166.2 -40.4  34138  289.19 0854.40
2009/04/23 15:39:17.0    -123    -48    -73    133    151 248.7 -35.7  34142  289.26 0854.40
2009/04/23 15:39:17.1     -97   -117    112    153    189 219.7  39.7  34136  289.18 0854.40
2009/04/23 15:39:17.2      59   -393     63    398    403 171.4   9.0  34132  289.11 0854.42
2009/04/23 15:39:17.3     117   -350    135    370    393 161.4  21.0  34132  289.10 0854.42
2009/04/23 15:39:17.4     363   -152    230    394    456 112.7  33.0  34124  288.95 0854.42
2009/04/23 15:39:17.5     268     45   -150    272    310  80.4 -35.8  34124  288.95 0854.42
2009/04/23 15:39:17.6     207     20   -192    209    283  84.3 -51.9  34138  289.19 0854.42
2009/04/23 15:39:17.7     149    146   -115    209    238  45.6 -35.8  34132  289.11 0854.42
2009/04/23 15:39:17.8     137    155      4    208    209  41.5   1.2  34130  289.06 0854.42
2009/04/23 15:39:17.9      97     36    155    104    186  69.6  63.4  34134  289.14 0854.42
2009/04/23 15:39:18.0      40   -101    221    109    246 158.2  71.9  34148  289.38 0854.42
2009/04/23 15:39:18.1       2     -8    160      9    160 161.5  90.0  34156  289.50 0854.42
2009/04/23 15:39:18.2      76      5    205     77    218  85.7  78.6  34146  289.33 0854.42
2009/04/23 15:39:18.3     -24     27     95     37    101 318.6  77.6  34154  289.46 0854.42
2009/04/23 15:39:18.4     -37     37    100     53    113 315.0  70.4  34156  289.50 0854.42
2009/04/23 15:39:18.5      61     63     64     88    108  44.1  39.7  34140  289.24 0854.42
2009/04/23 15:39:18.6      65      0    132     66    147  90.0  71.9  34146  289.35 0854.42
2009/04/23 15:39:18.7    -104    -51      4    117    118 243.8   2.3  34142  289.26 0854.42
2009/04/23 15:39:18.8     -31     34   -176     47    182 317.7 -89.3  34140  289.23 0854.42
2009/04/23 15:39:18.9      33     -6   -157     34    160 101.5 -90.0  34152  289.45 0854.42
2009/04/23 15:39:19.0      97     19   -134     99    166  78.6 -64.2  34140  289.24 0854.42
2009/04/23 15:39:19.1     108     15    -30    110    114  82.1 -20.2  34136  289.16 0854.42
2009/04/23 15:39:19.2     -65    320     97    327    342 348.4  16.5  34136  289.15 0854.43
2009/04/23 15:39:19.3    -221    179     18    285    286 309.1   3.8  34138  289.19 0854.43
2009/04/23 15:39:19.4    -434    -12    -24    435    436 268.4  -3.2  34138  289.21 0854.43
2009/04/23 15:39:19.5    -390    -91   -127    401    421 256.8 -17.6  34134  289.12 0854.43
2009/04/23 15:39:19.6    -389   -212   -108    444    457 241.4 -13.7  34128  289.04 0854.43
2009/04/23 15:39:19.7    -257   -200   -200    326    382 232.2 -38.8  34126  288.98 0854.43
2009/04/23 15:39:19.8    -463   -206    -40    507    509 246.0  -4.6  34130  289.06 0854.43
2009/04/23 15:39:19.9    -431   -116   -104    447    460 254.9 -13.2  34136  289.16 0854.43
2009/04/23 15:39:20.0    -477   -107   -242    489    545 257.3 -32.6  34148  289.38 0854.43
2009/04/23 15:39:20.1    -370   -149   -334    400    521 248.0 -48.5  34152  289.42 0854.43
2009/04/23 15:39:20.2    -292   -128   -247    319    403 246.3 -46.1  34148  289.37 0854.43
2009/04/23 15:39:20.3    -217     80    116    232    259 290.4  28.5  34128  289.02 0854.43
2009/04/23 15:39:20.4    -359    134     99    384    397 290.5  14.5  34146  289.35 0854.43
2009/04/23 15:39:20.5    -394     43    -57    397    402 276.4  -8.2  34152  289.43 0854.43
2009/04/23 15:39:20.6    -325     56    -39    330    333 279.8  -6.8  34152  289.42 0854.43
2009/04/23 15:39:20.7    -337     62    -81    343    353 280.5 -13.4  34144  289.30 0854.43
2009/04/23 15:39:20.8    -635   -129   -159    648    668 258.5 -13.8  34136  289.16 0854.43
2009/04/23 15:39:20.9    -740   -114   -184    749    772 261.2 -13.8  34140  289.23 0854.43
2009/04/23 15:39:21.0    -461   -246     30    523    524 241.9   3.3  34142  289.28 0854.43
2009/04/23 15:39:21.1    -216   -346     57    408    413 212.0   8.0  34140  289.22 0854.43
2009/04/23 15:39:21.2      60   -229    251    237    345 165.1  52.0  34152  289.42 0854.43
2009/04/23 15:39:21.3      89   -177    161    199    255 153.3  43.5  34152  289.42 0854.43
2009/04/23 15:39:21.4     174   -395    186    432    470 156.2  24.8  34142  289.26 0854.43
2009/04/23 15:39:21.5     204   -450    187    495    529 155.6  21.7  34136  289.17 0854.43
2009/04/23 15:39:21.6     305   -637    147    707    723 154.4  11.8  34126  289.00 0854.43
2009/04/23 15:39:21.7     348   -551    231    652    692 147.7  19.5  34128  289.02 0854.43
2009/04/23 15:39:21.8     360   -297    231    467    521 129.5  28.2  34134  289.13 0854.43
2009/04/23 15:39:21.9     239   -332    235    410    472 144.2  32.4  34132  289.09 0854.43
2009/04/23 15:39:22.0     338   -232    340    411    533 124.5  43.8  34120  288.90 0854.43
2009/04/23 15:39:22.1     135   -274    264    306    404 153.7  45.2  34130  289.06 0854.43
2009/04/23 15:39:22.2      44   -179    301    185    353 166.2  65.8  34136  289.15 0854.44
2009/04/23 15:39:22.3     -99    -21    224    102    246 258.1  74.0  34144  289.30 0854.44
2009/04/23 15:39:22.4    -148   -102    220    181    284 235.4  56.4  34130  289.05 0854.44
2009/04/23 15:39:22.5    -156     95    156    183    240 301.5  44.8  34136  289.18 0854.44
2009/04/23 15:39:22.6    -211     62     94    220    239 286.4  24.6  34140  289.22 0854.44
2009/04/23 15:39:22.7    -120    -49    -30    130    134 247.8 -13.3  34132  289.11 0854.44
2009/04/23 15:39:22.8    -158   -157    -32    223    226 225.2  -8.2  34126  288.99 0854.44
2009/04/23 15:39:22.9     -13   -346     64    347    353 182.2  10.6  34122  288.94 0854.44
2009/04/23 15:39:23.0     -18   -324     -7    325    326 183.2  -1.4  34120  288.88 0854.44
2009/04/23 15:39:23.1    -165   -139    -19    216    217 229.8  -5.2  34122  288.92 0854.44
2009/04/23 15:39:23.2    -106   -119     49    160    168 221.9  17.1  34128  289.02 0854.44
2009/04/23 15:39:23.3     -84   -427   -135    436    456 191.2 -22.2  34134  289.14 0854.44
2009/04/23 15:39:23.4    -188   -428   -176    468    500 203.7 -26.0  34134  289.12 0854.44
2009/04/23 15:39:23.5    -144   -360   -323    389    505 201.9 -48.2  34140  289.22 0854.44
2009/04/23 15:39:23.6     -49   -285   -201    290    352 189.8 -42.7  34136  289.16 0854.44
2009/04/23 15:39:23.7    -145   -312   -149    345    375 205.0 -29.3  34148  289.38 0854.44
2009/04/23 15:39:23.8    -105   -456   -108    468    481 193.0 -13.0  34142  289.25 0854.44
2009/04/23 15:39:23.9    -213   -384   -138    440    461 209.0 -22.5  34154  289.46 0854.44
2009/04/23 15:39:24.0    -281   -464   -183    543    573 211.2 -23.7  34138  289.21 0854.44
2009/04/23 15:39:24.1    -437   -450   -241    628    672 224.1 -26.5  34120  288.88 0854.44
2009/04/23 15:39:24.2    -267   -316   -139    414    437 220.2 -18.6  34126  289.00 0854.44
2009/04/23 15:39:24.3      53   -220     44    227    232 166.4  11.1  34132  289.09 0854.44
2009/04/23 15:39:24.4     -26   -492    229    493    543 183.1  26.9  34138  289.19 0854.44
2009/04/23 15:39:24.5    -270   -464    101    538    548 210.2  10.7  34130  289.07 0854.44
2009/04/23 15:39:24.6    -353   -363    -18    507    508 224.2  -2.1  34136  289.17 0854.44
2009/04/23 15:39:24.7    -330   -307   -191    451    489 227.1 -28.7  34130  289.05 0854.44
2009/04/23 15:39:24.8    -315   -382    -97    496    506 219.5 -11.1  34138  289.20 0854.44
2009/04/23 15:39:24.9    -277   -425   -119    508    522 213.1 -13.3  34142  289.27 0854.44
2009/04/23 15:39:25.0    -160   -473    -76    500    506 198.7  -8.7  34136  289.18 0854.44
2009/04/23 15:39:25.1    -225   -399     30    459    461 209.4   3.8  34138  289.19 0854.44
2009/04/23 15:39:25.2     -37   -473      5    475    476 184.5   0.7  34136  289.18 0854.44
2009/04/23 15:39:25.3    -134   -394     52    417    421 198.8   7.1  34132  289.09 0854.44
2009/04/23 15:39:25.4      48   -269    170    274    322 169.8  34.9  34144  289.29 0854.44
2009/04/23 15:39:25.5    -120   -480    129    495    512 194.1  14.6  34136  289.18 0854.44
2009/04/23 15:39:25.6     -13   -430    197    431    473 181.8  26.2  34142  289.26 0854.44
2009/04/23 15:39:25.7     -97   -502     81    512    519 191.0   9.0  34134  289.12 0854.44
2009/04/23 15:39:25.8    -185   -526    -36    558    560 199.4  -3.7  34136  289.16 0854.44
2009/04/23 15:39:25.9    -359   -416   -129    550    566 220.8 -13.3  34132  289.09 0854.44
2009/04/23 15:39:26.0    -223   -472     62    523    527 205.3   6.8  34124  288.96 0854.44
2009/04/23 15:39:26.1    -113   -480   -125    494    510 193.3 -14.3  34126  289.00 0854.45
2009/04/23 15:39:26.2    -273   -574   -106    636    645 205.5  -9.5  34124  288.96 0854.45
2009/04/23 15:39:26.3    -306   -479   -124    569    583 212.6 -12.4  34130  289.08 0854.45
2009/04/23 15:39:26.4    -323   -373   -104    494    505 220.9 -11.9  34128  289.03 0854.45
2009/04/23 15:39:26.5    -361   -335   -175    493    524 227.1 -19.6  34138  289.20 0854.45
2009/04/23 15:39:26.6    -297   -200   -117    359    378 236.0 -18.2  34138  289.21 0854.45
2009/04/23 15:39:26.7    -341    -36   -133    343    367 263.9 -26.7  34142  289.26 0854.45
2009/04/23 15:39:26.8    -206    -86   -101    224    245 247.2 -30.6  34146  289.32 0854.45
2009/04/23 15:39:26.9     -91   -185    -52    207    214 206.1 -14.3  34134  289.14 0854.45
2009/04/23 15:39:27.0      91   -204    -89    224    241 155.9 -27.2  34136  289.17 0854.45
2009/04/23 15:39:27.1     -41    -41   -123     58    135 225.0 -77.5  34146  289.33 0854.45
2009/04/23 15:39:27.2     -60     45    -32     75     81 306.9 -28.5  34146  289.33 0854.45
2009/04/23 15:39:27.3     -67    -26     -2     73     74 248.3  -2.2  34146  289.35 0854.45
2009/04/23 15:39:27.4    -186    136   -116    231    258 306.2 -32.9  34162  289.61 0854.45
2009/04/23 15:39:27.5    -100    139   -185    172    252 324.2 -56.6  34162  289.62 0854.45
2009/04/23 15:39:27.6     -92    286    -77    301    311 342.2 -14.5  34146  289.32 0854.45
2009/04/23 15:39:27.7    -140    235    -86    274    287 329.2 -22.5  34152  289.42 0854.45
2009/04/23 15:39:27.8     -96     84   -111    128    169 311.3 -49.8  34166  289.67 0854.45
2009/04/23 15:39:27.9    -121    194    -83    229    243 328.1 -25.1  34150  289.41 0854.45
2009/04/23 15:39:28.0    -207     42    -58    212    220 281.7 -15.4  34154  289.48 0854.45
2009/04/23 15:39:28.1     -35    118   -128    124    178 343.5 -55.3  34156  289.52 0854.46
2009/04/23 15:39:28.2      68    107    -71    127    145  32.5 -35.8  34146  289.35 0854.46
2009/04/23 15:39:28.3     107    167    -95    199    220  32.6 -31.7  34146  289.33 0854.46
2009/04/23 15:39:28.4      69    267     71    276    286  14.5  14.5  34144  289.31 0854.46
2009/04/23 15:39:28.5     149    102     97    181    205  55.6  30.3  34146  289.35 0854.46
2009/04/23 15:39:28.6     163     26     98    166    192  80.8  33.7  34148  289.36 0854.46
2009/04/23 15:39:28.7     245     73     60    256    263  73.4  13.2  34146  289.34 0854.46
2009/04/23 15:39:28.8     329      0    136    330    356  89.9  23.7  34146  289.35 0854.46
2009/04/23 15:39:28.9     126    -31    275    130    304 104.2  73.1  34160  289.58 0854.46
2009/04/23 15:39:29.0     232    -83    258    247    357 109.7  51.4  34148  289.37 0854.46
2009/04/23 15:39:29.1     102    -79    157    130    203 127.8  56.4  34152  289.45 0854.46
2009/04/23 15:39:29.2      71   -216    176    228    288 161.7  41.7  34148  289.37 0854.46
2009/04/23 15:39:29.3      -8   -205    167    206    265 182.5  43.5  34150  289.41 0854.46
2009/04/23 15:39:29.4     -18   -230    177    231    291 184.7  41.6  34150  289.39 0854.46
2009/04/23 15:39:29.5     139   -167    204    218    298 140.1  48.0  34144  289.31 0854.46
2009/04/23 15:39:29.6     201   -156    153    255    297 127.8  33.7  34144  289.29 0854.46
2009/04/23 15:39:29.7     164    -96     82    191    207 120.4  24.9  34148  289.38 0854.46
2009/04/23 15:39:29.8      24   -166     52    168    176 171.5  17.3  34150  289.41 0854.46
2009/04/23 15:39:29.9      -9   -189    115    190    222 182.9  34.2  34152  289.45 0854.46
2009/04/23 15:39:30.0     -90   -179    127    201    237 206.7  35.5  34156  289.52 0854.46
2009/04/23 15:39:30.1     -63   -180    158    191    247 199.4  43.7  34154  289.48 0854.45
2009/04/23 15:39:30.2     -31   -181    194    184    267 190.0  51.6  34166  289.68 0854.45
2009/04/23 15:39:30.3     -24   -149    207    152    256 189.3  60.5  34168  289.70 0854.45
2009/04/23 15:39:30.4       7   -138    181    139    228 176.9  58.5  34172  289.77 0854.45
2009/04/23 15:39:30.5      18   -236    189    237    303 175.5  42.8  34154  289.47 0854.45
2009/04/23 15:39:30.6      34   -170    241    174    297 168.7  60.6  34164  289.64 0854.45
2009/04/23 15:39:30.7      42   -296    263    300    398 171.9  45.8  34148  289.38 0854.45
2009/04/23 15:39:30.8      42   -349    233    352    422 173.0  36.5  34146  289.33 0854.45
2009/04/23 15:39:30.9      -3   -337    220    338    403 180.6  36.2  34146  289.32 0854.45
2009/04/23 15:39:31.0    -107   -356    190    372    417 196.8  29.2  34142  289.27 0854.45
2009/04/23 15:39:31.1      59   -291    118    298    320 168.4  22.8  34150  289.41 0854.45
2009/04/23 15:39:31.2     140   -204     89    248    263 145.5  20.2  34160  289.56 0854.45
2009/04/23 15:39:31.3     189   -171     81    256    269 132.2  17.7  34152  289.42 0854.45
2009/04/23 15:39:31.4     179   -114    102    213    236 122.4  27.3  34154  289.48 0854.45
2009/04/23 15:39:31.5     154   -103    -30    186    189 124.0  -9.3  34152  289.45 0854.45
2009/04/23 15:39:31.6     189   -243    -54    308    313 142.2 -10.1  34152  289.44 0854.45
2009/04/23 15:39:31.7     281   -247    -14    375    376 131.3  -2.2  34152  289.42 0854.45
2009/04/23 15:39:31.8     284   -230    -30    366    368 129.0  -4.8  34148  289.38 0854.45
2009/04/23 15:39:31.9     162   -273      6    318    319 149.3   1.2  34154  289.47 0854.45
2009/04/23 15:39:32.1     130   -244    -15    277    278 151.9  -3.3  34162  289.59 0854.45
2009/04/23 15:39:32.2      39   -266     50    269    274 171.5  10.6  34178  289.86 0854.47
2009/04/23 15:39:32.3      39   -280     95    283    299 172.0  18.6  34176  289.85 0854.47
2009/04/23 15:39:32.4     119   -233     16    262    263 152.8   3.6  34176  289.85 0854.47
2009/04/23 15:39:32.5     -46   -251    139    256    291 190.5  31.0  34166  289.66 0854.47
2009/04/23 15:39:32.6     -52   -255    175    261    314 191.6  37.2  34162  289.61 0854.47
2009/04/23 15:39:32.7      94   -336    185    350    395 164.3  30.2  34160  289.57 0854.47
2009/04/23 15:39:32.8      28   -282    102    284    301 174.2  20.4  34162  289.59 0854.47
2009/04/23 15:39:32.9     -49   -326    122    330    351 188.6  21.1  34162  289.62 0854.47
2009/04/23 15:39:33.0     -39   -252     91    256    272 188.9  19.6  34158  289.53 0854.47
2009/04/23 15:39:33.1     -18   -207     34    208    211 185.1   9.3  34164  289.65 0854.47
2009/04/23 15:39:33.2       3   -211     24    212    214 179.0   6.5  34162  289.60 0854.47
2009/04/23 15:39:33.3     -41   -185    -24    190    192 192.7  -7.3  34160  289.57 0854.47
2009/04/23 15:39:33.4    -123   -196     98    232    251 212.3  24.2  34156  289.49 0854.47
2009/04/23 15:39:33.5    -153   -205    105    256    276 216.7  23.4  34160  289.56 0854.47
2009/04/23 15:39:33.6    -209   -223      3    306    307 223.2   0.7  34168  289.71 0854.47
2009/04/23 15:39:33.7    -228   -123    -90    260    275 241.6 -24.4  34170  289.73 0854.47
2009/04/23 15:39:33.8    -296   -108    -93    316    329 250.0 -21.4  34162  289.59 0854.47
2009/04/23 15:39:33.9    -188    -15    -38    189    193 265.4 -11.6  34156  289.50 0854.47
2009/04/23 15:39:34.0    -124     58     21    138    140 295.2   9.0  34156  289.52 0854.47
2009/04/23 15:39:34.1     -77     64    -49    101    112 309.5 -31.7  34166  289.67 0854.47
2009/04/23 15:39:34.2      83    -31   -115     89    145 110.8 -62.9  34172  289.77 0854.48
2009/04/23 15:39:34.3     105   -139   -136    175    221 142.8 -46.1  34162  289.60 0854.48
2009/04/23 15:39:34.4     -91   -304   -120    318    339 196.7 -26.0  34154  289.47 0854.48
2009/04/23 15:39:34.5    -129   -197     11    236    237 213.2   2.8  34160  289.56 0854.48
2009/04/23 15:39:34.6    -117   -182     14    217    218 212.7   3.8  34160  289.58 0854.48
2009/04/23 15:39:34.7    -153    -62    116    166    202 247.8  38.4  34182  289.96 0854.48
2009/04/23 15:39:34.8    -184   -126     90    224    241 235.6  23.0  34172  289.78 0854.48
2009/04/23 15:39:34.9    -254    -45     80    259    272 259.9  17.3  34174  289.81 0854.48
2009/04/23 15:39:35.0    -243     33     88    246    261 277.9  20.2  34208  290.39 0854.48
2009/04/23 15:39:35.1    -249     89    111    265    287 289.7  24.1  34204  290.32 0854.48
2009/04/23 15:39:35.2    -188     68     47    201    207 290.0  13.2  34192  290.13 0854.48
2009/04/23 15:39:35.3    -152    -31     29    156    159 258.5  10.6  34186  290.01 0854.48
2009/04/23 15:39:35.4    -158     36     -6    163    164 282.8  -2.2  34180  289.92 0854.48
2009/04/23 15:39:35.5    -108     40     95    116    149 290.4  43.7  34188  290.06 0854.48
2009/04/23 15:39:35.6    -223      3     29    224    226 270.8   7.5  34192  290.11 0854.48
2009/04/23 15:39:35.7    -252     95     55    270    276 290.8  11.6  34180  289.92 0854.48
2009/04/23 15:39:35.8    -232    100    123    253    281 293.5  27.8  34206  290.34 0854.48
2009/04/23 15:39:35.9    -314    139    117    344    364 293.9  18.9  34242  290.96 0854.48
2009/04/23 15:39:36.0    -245    110     44    269    273 294.2   9.5  34238  290.88 0854.48
2009/04/23 15:39:36.1    -240    104     47    262    267 293.5  10.3  34234  290.82 0854.48
2009/04/23 15:39:36.2    -291     54     -1    296    297 280.6  -0.3  34250  291.09 0854.49
2009/04/23 15:39:36.3    -228     41    -75    232    244 280.4 -17.9  34250  291.10 0854.49
2009/04/23 15:39:36.4    -288     28     96    290    306 275.7  18.4  34242  290.95 0854.49
2009/04/23 15:39:36.5    -274    156     32    316    318 299.8   5.8  34242  290.95 0854.49
2009/04/23 15:39:36.6    -195     27    -10    197    198 277.9  -3.1  34232  290.81 0854.49
2009/04/23 15:39:36.7    -119   -253    117    280    303 205.3  24.1  34244  290.99 0854.49
2009/04/23 15:39:36.8    -272   -272    152    386    414 225.0  22.8  34206  290.36 0854.49
2009/04/23 15:39:36.9    -343   -266    252    435    502 232.2  32.8  34168  289.71 0854.49
2009/04/23 15:39:37.0    -226   -522    255    569    623 203.4  25.7  34182  289.93 0854.49
2009/04/23 15:39:37.1    -264   -415    239    493    547 212.5  27.8  34214  290.48 0854.49
2009/04/23 15:39:37.2    -283   -233     -4    367    368 230.5  -0.7  34258  291.25 0854.49
2009/04/23 15:39:37.3    -195   -191     13    274    275 225.6   2.8  34230  290.76 0854.49
2009/04/23 15:39:37.4    -272   -184    263    329    421 235.8  42.8  34176  289.84 0854.49
2009/04/23 15:39:37.5    -335   -200    -49    391    395 239.2  -7.2  34192  290.10 0854.49
2009/04/23 15:39:37.6    -488    -75    -58    494    498 261.2  -6.8  34182  289.93 0854.49
2009/04/23 15:39:37.7    -453    -51     33    456    458 263.5   4.2  34186  290.02 0854.49
2009/04/23 15:39:37.8    -602   -382    135    714    727 237.6  10.7  34232  290.78 0854.49
2009/04/23 15:39:37.9    -390   -470    142    611    628 219.7  13.1  34182  289.96 0854.49
2009/04/23 15:39:38.0    -386   -410    125    564    578 223.3  12.5  34202  290.27 0854.49
2009/04/23 15:39:38.1    -552   -248    -23    606    607 245.8  -2.2  34200  290.25 0854.49
2009/04/23 15:39:38.2    -492   -165    -37    520    522 251.4  -4.1  34200  290.24 0854.50
2009/04/23 15:39:38.3    -222    -73    143    234    274 251.8  34.4  34204  290.31 0854.50
2009/04/23 15:39:38.4    -123   -241    289    271    396 207.0  52.1  34192  290.11 0854.50
2009/04/23 15:39:38.5      13   -423    108    424    438 178.2  14.3  34178  289.87 0854.50
2009/04/23 15:39:38.6    -102   -309    123    326    348 198.4  21.6  34182  289.93 0854.50
2009/04/23 15:39:38.7     -25   -239    184    241    303 186.0  41.4  34186  290.00 0854.50
2009/04/23 15:39:38.8     -42   -333    114    336    355 187.2  18.8  34180  289.91 0854.50
2009/04/23 15:39:38.9     -88   -413     99    423    435 192.1  13.2  34170  289.75 0854.50
2009/04/23 15:39:39.0      98   -349    183    363    406 164.3  28.7  34172  289.77 0854.50
2009/04/23 15:39:39.1     110   -406     29    421    423 164.8   4.0  34170  289.73 0854.50
2009/04/23 15:39:39.2     174   -522     66    551    555 161.5   6.9  34168  289.70 0854.50
2009/04/23 15:39:39.3      55   -478    165    482    510 173.4  18.9  34176  289.83 0854.50
2009/04/23 15:39:39.4     296   -507    143    588    606 149.7  13.7  34162  289.59 0854.50
2009/04/23 15:39:39.5     369   -413    145    554    573 138.2  14.7  34148  289.38 0854.50
2009/04/23 15:39:39.6     166   -387     63    422    427 156.7   8.5  34154  289.48 0854.50
2009/04/23 15:39:39.7     276   -381    241    471    529 144.0  29.3  34156  289.50 0854.50
2009/04/23 15:39:39.8      56   -514     82    518    525 173.7   9.0  34158  289.53 0854.50
2009/04/23 15:39:39.9      12   -507    158    508    532 178.6  17.3  34152  289.43 0854.50
2009/04/23 15:39:40.0      54   -524    190    527    561 174.0  19.9  34156  289.50 0854.50
2009/04/23 15:39:40.1      70   -388    230    395    457 169.8  32.9  34160  289.58 0854.50
2009/04/23 15:39:40.2     -31   -364    241    366    438 185.0  36.5  34164  289.65 0854.49
2009/04/23 15:39:40.3     -29   -261    165    263    310 186.5  35.5  34174  289.80 0854.49
2009/04/23 15:39:40.4     144   -148    196    207    285 135.7  48.2  34174  289.81 0854.49
2009/04/23 15:39:40.5     169   -446    253    478    540 159.2  30.2  34170  289.74 0854.49
2009/04/23 15:39:40.6      32   -524    219    525    568 176.5  24.1  34172  289.79 0854.49
2009/04/23 15:39:40.7     -14   -381    149    382    410 182.1  22.4  34172  289.79 0854.49
2009/04/23 15:39:40.8      48   -356    274    360    452 172.3  41.2  34160  289.58 0854.49
2009/04/23 15:39:40.9     -91   -446    262    456    525 191.6  32.6  34156  289.52 0854.49
2009/04/23 15:39:41.0     -93   -481     68    490    495 191.0   8.0  34166  289.66 0854.49
2009/04/23 15:39:41.1      23   -154     57    156    166 171.5  20.4  34156  289.50 0854.49
2009/04/23 15:39:41.2     -17      5    145     18    146 288.6  90.0  34176  289.84 0854.48
2009/04/23 15:39:41.3     -23    -70    100     74    124 198.7  60.0  34182  289.96 0854.48
2009/04/23 15:39:41.4     -70    155    -82    171    189 335.7 -31.7  34168  289.72 0854.48
2009/04/23 15:39:41.5     -11    187    -66    188    200 356.4 -19.4  34204  290.31 0854.48
2009/04/23 15:39:41.6     156    144    -74    213    225  47.3 -23.6  34200  290.26 0854.48
2009/04/23 15:39:41.7     154    161     76    224    237  43.7  18.9  34178  289.89 0854.48
2009/04/23 15:39:41.8      70     90     88    115    144  37.8  41.2  34182  289.94 0854.48
2009/04/23 15:39:41.9       0    126     61    127    140   0.0  27.3  34182  289.96 0854.48
2009/04/23 15:39:42.0     -87    168     65    190    201 332.6  18.9  34182  289.94 0854.48
2009/04/23 15:39:42.1    -139    175     52    224    231 321.5  13.1  34184  289.99 0854.48
2009/04/23 15:39:42.2    -144    195    -15    243    244 323.5  -3.7  34186  290.00 0854.48
2009/04/23 15:39:42.3    -187     34    -58    191    200 280.4 -17.0  34170  289.74 0854.48
2009/04/23 15:39:42.4     -46    -92    -34    104    109 206.7 -23.8  34176  289.84 0854.48
2009/04/23 15:39:42.5     -44   -183     57    189    198 193.6  16.8  34190  290.09 0854.48
2009/04/23 15:39:42.6       6   -183     28    184    187 178.0   8.8  34182  289.96 0854.48
2009/04/23 15:39:42.7     126   -137    135    187    230 137.5  39.5  34176  289.84 0854.48
2009/04/23 15:39:42.8     186    -67    244    198    314 110.0  56.9  34166  289.66 0854.48
2009/04/23 15:39:42.9      38   -152    259    157    302 165.7  65.7  34164  289.64 0854.48
2009/04/23 15:39:43.0     -19   -331    270    332    427 183.4  43.5  34146  289.32 0854.48
2009/04/23 15:39:43.1    -135   -407    246    429    494 198.4  32.4  34136  289.15 0854.48
2009/04/23 15:39:43.2     181   -173    275    251    372 133.8  52.9  34168  289.71 0854.48
2009/04/23 15:39:43.3      -8     11    112     14    112 323.9  90.0  34168  289.72 0854.48
2009/04/23 15:39:43.4    -107     91     52    141    150 310.4  20.9  34180  289.91 0854.48
2009/04/23 15:39:43.5    -213     82      3    229    230 291.1   0.8  34156  289.50 0854.48
2009/04/23 15:39:43.6      89      4    122     90    151  87.4  60.5  34166  289.67 0854.48
2009/04/23 15:39:43.7     -41    -38    148     57    158 226.9  78.2  34174  289.82 0854.48
2009/04/23 15:39:43.8    -142    -53    142    152    208 249.6  48.0  34178  289.87 0854.48
2009/04/23 15:39:43.9     -81   -136    140    159    211 210.8  45.8  34154  289.46 0854.48
2009/04/23 15:39:44.0      67     37    169     77    185  61.1  73.8  34172  289.77 0854.48
2009/04/23 15:39:44.1      95    -52    250    109    272 118.9  75.0  34166  289.67 0854.48
2009/04/23 15:39:44.2    -338    113    214    357    416 288.5  33.7  34178  289.87 0854.48
2009/04/23 15:39:44.3     -92     10    176     93    199 276.6  70.0  34158  289.53 0854.48
2009/04/23 15:39:44.4     -53   -255    203    261    330 191.8  41.9  34186  290.02 0854.48
2009/04/23 15:39:44.5     -48   -121    235    131    269 201.8  68.8  34166  289.66 0854.48
2009/04/23 15:39:44.6    -163    -44    138    169    218 254.7  43.7  34174  289.82 0854.48
2009/04/23 15:39:44.7    -275    -91    102    290    308 251.6  19.4  34156  289.49 0854.48
2009/04/23 15:39:44.8    -174   -226    185    286    340 217.6  35.7  34130  289.07 0854.48
2009/04/23 15:39:44.9     -50   -244    283    250    377 191.6  54.2  34148  289.37 0854.48
2009/04/23 15:39:45.0    -116   -287    378    310    488 202.1  56.4  34146  289.34 0854.48
2009/04/23 15:39:45.1    -176   -227    408    288    499 217.8  61.4  34162  289.61 0854.48
2009/04/23 15:39:45.2     -15   -305    321    306    443 182.9  51.5  34148  289.38 0854.48
2009/04/23 15:39:45.3     225    -15    315    226    387  93.9  60.8  34158  289.54 0854.48
2009/04/23 15:39:45.4     276    154    194    317    371  60.9  34.3  34182  289.96 0854.48
2009/04/23 15:39:45.5    -202    340    -27    396    397 329.3  -4.0  34172  289.76 0854.48
2009/04/23 15:39:45.6     228     46     18    233    234  78.5   4.6  34170  289.73 0854.48
2009/04/23 15:39:45.7    -171   -326    331    369    495 207.6  46.6  34138  289.21 0854.48
2009/04/23 15:39:45.8      21    -32    336     39    338 145.7  90.0  34176  289.85 0854.48
2009/04/23 15:39:45.9     111   -100    305    150    339 132.2  72.1  34180  289.92 0854.48
2009/04/23 15:39:46.0       0    -56    178     57    186 179.1  81.8  34158  289.55 0854.48
2009/04/23 15:39:46.1     -30     13    259     33    261 293.5  90.0  34166  289.67 0854.48
2009/04/23 15:39:46.2     148    158    308    217    376  43.0  61.4  34168  289.72 0854.48
2009/04/23 15:39:46.3      -6     -6    238      9    238 226.7  90.0  34172  289.77 0854.48
2009/04/23 15:39:46.4      42     45    324     62    329  43.2  89.7  34178  289.86 0854.48
2009/04/23 15:39:46.5     -33   -239    359    242    432 188.0  62.7  34164  289.64 0854.48
2009/04/23 15:39:46.6     -26   -350    274    351    445 184.4  41.9  34140  289.24 0854.48
2009/04/23 15:39:46.7      62   -215    250    224    335 163.7  53.5  34160  289.56 0854.48
2009/04/23 15:39:46.8       9   -101    219    102    241 174.7  73.5  34168  289.70 0854.48
2009/04/23 15:39:46.9      57   -169    288    179    339 161.3  65.1  34150  289.39 0854.48
2009/04/23 15:39:47.0     280     35    269    283    390  82.8  48.6  34166  289.67 0854.48
2009/04/23 15:39:47.1      75     57    179     95    202  52.7  69.8  34174  289.80 0854.48
2009/04/23 15:39:47.2     300      0    260    301    397  90.0  45.2  34174  289.82 0854.47
2009/04/23 15:39:47.3      82    -69    176    108    206 130.4  65.4  34152  289.45 0854.47
2009/04/23 15:39:47.4    -201   -280    365    346    502 215.7  51.9  34132  289.09 0854.47
2009/04/23 15:39:47.5      28     10    123     30    126  70.0  86.9  34162  289.62 0854.47
2009/04/23 15:39:47.6      38     46    229     60    236  39.7  85.4  34182  289.94 0854.47
2009/04/23 15:39:47.7      26     26    146     37    150  45.1  85.9  34180  289.91 0854.47
2009/04/23 15:39:47.8     -47     20     -6     52     53 293.5  -7.2  34164  289.63 0854.47
2009/04/23 15:39:47.9    -228     48     73    234    246 281.9  17.3  34156  289.49 0854.47
2009/04/23 15:39:48.0    -141    -69      2    158    159 243.8   0.8  34134  289.13 0854.47
2009/04/23 15:39:48.1    -232   -311     90    389    400 216.7  13.1  34142  289.25 0854.47
2009/04/23 15:39:48.2    -221   -172     21    281    282 232.2   4.4  34150  289.41 0854.47
2009/04/23 15:39:48.3    -159   -204    -47    259    264 217.9 -10.3  34144  289.31 0854.47
2009/04/23 15:39:48.4      18     59    -41     62     74  16.9 -40.0  34150  289.41 0854.47
2009/04/23 15:39:48.5       0   -241     74    242    254 180.0  17.1  34146  289.34 0854.47
2009/04/23 15:39:48.6    -199   -187    110    274    295 226.9  23.1  34146  289.32 0854.47
2009/04/23 15:39:48.7    -350      9    234    351    421 271.6  36.7  34148  289.38 0854.47
2009/04/23 15:39:48.8    -434    271     29    512    513 302.0   3.3  34142  289.25 0854.47
2009/04/23 15:39:48.9    -307    275    -15    413    414 311.8  -2.1  34142  289.27 0854.47
2009/04/23 15:39:49.0    -366     59     -4    371    372 279.2  -0.7  34152  289.42 0854.47
2009/04/23 15:39:49.1    -196   -229    205    302    365 220.6  37.4  34150  289.40 0854.48
2009/04/23 15:39:49.2    -219   -123     92    252    268 240.7  20.9  34158  289.53 0854.48
2009/04/23 15:39:49.3      54   -155    179    165    243 160.8  52.2  34156  289.50 0854.48
2009/04/23 15:39:49.4    -175   -168    132    243    276 226.2  31.0  34134  289.12 0854.48
2009/04/23 15:39:49.5    -414     41     12    417    418 275.7   1.7  34162  289.60 0854.48
2009/04/23 15:39:49.6    -347     41    117    350    370 276.9  18.5  34164  289.65 0854.48
2009/04/23 15:39:49.7    -197    -60    169    207    267 253.1  43.7  34150  289.39 0854.48
2009/04/23 15:39:49.8    -100     -7    154    101    184 265.6  64.1  34158  289.55 0854.48
2009/04/23 15:39:49.9     -43    -41    161     60    171 226.0  78.9  34166  289.67 0854.48
2009/04/23 15:39:50.0    -327    -55    102    332    348 260.4  17.2  34158  289.55 0854.48
2009/04/23 15:39:50.1    -386    184     50    428    431 295.5   6.7  34168  289.70 0854.48
2009/04/23 15:39:50.2    -374    303    158    482    508 309.0  18.2  34162  289.61 0854.48
2009/04/23 15:39:50.3    -142    123    269    189    328 310.9  61.5  34172  289.76 0854.48
2009/04/23 15:39:50.4     -65     16    226     68    236 284.2  82.8  34178  289.89 0854.48
2009/04/23 15:39:50.5    -152    -72    209    169    268 244.6  56.6  34198  290.22 0854.48
2009/04/23 15:39:50.6    -214    108    255    241    350 296.9  51.9  34206  290.36 0854.48
2009/04/23 15:39:50.7    -226    102    168    249    300 294.4  37.3  34202  290.29 0854.48
2009/04/23 15:39:50.8    -290   -143    282    324    429 243.8  45.7  34220  290.60 0854.48
2009/04/23 15:39:50.9    -268     16    208    269    340 273.5  41.7  34214  290.49 0854.48
2009/04/23 15:39:51.0    -193   -131    152    234    279 235.8  36.3  34232  290.80 0854.48
2009/04/23 15:39:51.1    -146    -43    186    153    240 253.6  56.4  34234  290.82 0854.48
2009/04/23 15:39:51.2    -209    -83     96    226    245 248.3  24.6  34216  290.51 0854.48
2009/04/23 15:39:51.3    -145   -213    199    258    325 214.3  41.5  34204  290.31 0854.48
2009/04/23 15:39:51.4     -62   -230    229    239    331 195.2  48.7  34168  289.70 0854.48
2009/04/23 15:39:51.5    -286   -159    156    328    363 240.9  27.3  34154  289.47 0854.48
2009/04/23 15:39:51.6    -166   -116    -33    203    206 235.1  -9.3  34148  289.38 0854.48
2009/04/23 15:39:51.7    -117    -43    -39    125    130 249.6 -22.3  34150  289.40 0854.48
2009/04/23 15:39:51.8     -93     22    107     96    143 283.7  53.3  34158  289.53 0854.48
2009/04/23 15:39:51.9     -52    -21    107     57    121 247.4  69.8  34166  289.67 0854.48
2009/04/23 15:39:52.0      11    -58    127     60    140 168.5  73.1  34164  289.65 0854.48
2009/04/23 15:39:52.1      73   -205     26    218    220 160.2   6.9  34156  289.50 0854.48
2009/04/23 15:39:52.2      72   -138    -20    156    158 152.4  -7.3  34154  289.46 0854.48
2009/04/23 15:39:52.3      -1    -37    -49     38     62 182.7 -62.9  34150  289.41 0854.48
2009/04/23 15:39:52.4    -177    -84      2    196    197 244.6   0.8  34146  289.33 0854.48
2009/04/23 15:39:52.5    -117   -124     51    171    179 223.4  16.6  34162  289.60 0854.48
2009/04/23 15:39:52.6     -28    -76    102     82    130 200.5  56.4  34166  289.69 0854.48
2009/04/23 15:39:52.7     -97    -58     99    114    150 238.9  45.4  34174  289.82 0854.48
2009/04/23 15:39:52.8     -57    -54    124     79    147 226.8  64.7  34200  290.26 0854.48
2009/04/23 15:39:52.9    -138   -128     82    189    206 227.3  25.1  34174  289.80 0854.48
2009/04/23 15:39:53.0    -102   -104     34    146    150 224.5  13.2  34186  290.01 0854.48
2009/04/23 15:39:53.1     -78    -79     65    112    129 224.7  32.9  34182  289.94 0854.49
2009/04/23 15:39:53.2    -216    -72     76    228    241 251.6  18.6  34200  290.26 0854.49
2009/04/23 15:39:53.3    -266   -119    121    292    316 245.8  23.8  34188  290.05 0854.49
2009/04/23 15:39:53.4    -269    -54    144    275    310 258.6  29.5  34182  289.93 0854.49
2009/04/23 15:39:53.5    -189    -15    160    190    248 265.2  44.3  34180  289.91 0854.49
2009/04/23 15:39:53.6    -296   -192    123    353    375 237.0  19.3  34154  289.47 0854.49
2009/04/23 15:39:53.7    -163   -174    -65    239    248 223.2 -15.4  34160  289.58 0854.49
2009/04/23 15:39:53.8    -153   -108     -7    188    189 234.9  -2.2  34154  289.48 0854.49
2009/04/23 15:39:53.9    -131    -82     11    155    156 238.0   4.4  34154  289.48 0854.49
2009/04/23 15:39:54.0      12      4     51     13     52  71.8  85.9  34158  289.55 0854.49
2009/04/23 15:39:54.1     -36     50     21     62     66 324.0  19.4  34164  289.65 0854.49
2009/04/23 15:39:54.2     -57    129     66    142    156 335.9  26.6  34182  289.96 0854.49
2009/04/23 15:39:54.3     -89    123    -42    152    158 324.0 -15.5  34184  289.97 0854.49
2009/04/23 15:39:54.4    -181     13     22    182    184 274.1   6.9  34188  290.04 0854.49
2009/04/23 15:39:54.5    -213    -96     53    234    241 245.6  12.9  34174  289.81 0854.49
2009/04/23 15:39:54.6    -268    -23     35    270    273 265.0   7.5  34178  289.88 0854.49
2009/04/23 15:39:54.7    -252   -119     10    279    280 244.6   2.1  34160  289.56 0854.49
2009/04/23 15:39:54.8    -309   -192    -70    364    371 238.1 -11.0  34158  289.54 0854.49
2009/04/23 15:39:54.9    -288   -202    -25    353    354 234.9  -4.1  34162  289.59 0854.49
2009/04/23 15:39:55.0    -368   -165   -112    404    420 245.8 -15.5  34164  289.65 0854.49
2009/04/23 15:39:55.1    -280   -484   -101    560    570 210.0 -10.3  34192  290.13 0854.51
2009/04/23 15:39:55.2    -258   -385    166    464    492 213.8  20.4  34188  290.03 0854.51
2009/04/23 15:39:55.3    -250   -301    175    392    429 219.8  25.6  34184  289.99 0854.51
2009/04/23 15:39:55.4    -116   -291    114    314    334 201.8  20.8  34174  289.80 0854.51
2009/04/23 15:39:55.5    -130   -313     79    339    349 202.6  13.1  34172  289.77 0854.51
2009/04/23 15:39:55.6     -51   -249     59    255    262 191.6  13.2  34164  289.64 0854.51
2009/04/23 15:39:55.7     -88   -267    117    282    305 198.3  23.8  34168  289.70 0854.51
2009/04/23 15:39:55.8    -114   -307    130    328    352 200.4  22.9  34162  289.60 0854.51
2009/04/23 15:39:55.9    -106   -337    113    354    372 197.5  17.8  34170  289.74 0854.51
2009/04/23 15:39:56.0    -145   -330    118    361    380 203.8  18.2  34172  289.77 0854.51
2009/04/23 15:39:56.1     -15   -376    121    377    396 182.3  17.8  34168  289.72 0854.51
2009/04/23 15:39:56.2     -38   -468    172    470    500 184.7  21.0  34152  289.42 0854.51
2009/04/23 15:39:56.3     -58   -403    174    408    443 188.2  24.8  34154  289.48 0854.51
2009/04/23 15:39:56.4     -61   -394    138    399    423 188.9  19.1  34146  289.33 0854.51
2009/04/23 15:39:56.5     -69   -332     98    340    354 191.8  16.1  34150  289.40 0854.51
2009/04/23 15:39:56.6     -72   -298     62    307    314 193.6  11.5  34136  289.15 0854.51
2009/04/23 15:39:56.7     -55   -319     11    324    325 189.8   2.1  34150  289.41 0854.51
2009/04/23 15:39:56.8    -102   -236     40    258    262 203.4   9.0  34150  289.41 0854.51
2009/04/23 15:39:56.9     -97   -196    -83    219    234 206.5 -25.9  34154  289.46 0854.51
2009/04/23 15:39:57.0      -4   -255    -39    256    260 181.1  -8.8  34152  289.44 0854.51
2009/04/23 15:39:57.1     -88   -188    -74    208    220 205.2 -24.6  34152  289.43 0854.53
2009/04/23 15:39:57.2      28    -47    -40     55     68 149.3 -44.1  34156  289.50 0854.53
2009/04/23 15:39:57.3     124   -111     54    167    176 131.8  18.1  34150  289.41 0854.53
2009/04/23 15:39:57.4      83    -51    219     98    239 121.5  74.5  34190  290.09 0854.53
2009/04/23 15:39:57.5       5   -101    160    102    189 176.9  64.6  34204  290.33 0854.53
2009/04/23 15:39:57.6     -14      9    127     17    128 302.4  90.0  34230  290.75 0854.53
2009/04/23 15:39:57.7      76    -15    124     78    146 101.4  64.7  34222  290.62 0854.53
2009/04/23 15:39:57.8      99    -93     81    137    159 133.2  33.5  34198  290.23 0854.53
2009/04/23 15:39:57.9      28    -16     60     33     68 120.7  68.8  34202  290.28 0854.53
2009/04/23 15:39:58.0     -15      6     11     17     20 291.7  37.6  34178  289.87 0854.53
2009/04/23 15:39:58.1     -30     87    -64     93    112 340.8 -42.4  34182  289.94 0854.53
2009/04/23 15:39:58.2     -52    -52     -9     74     75 225.0  -7.3  34172  289.79 0854.53
2009/04/23 15:39:58.3    -110    -51     15    122    123 245.2   7.1  34168  289.72 0854.53
2009/04/23 15:39:58.4    -123    -33    -35    128    133 255.0 -15.4  34156  289.52 0854.53
2009/04/23 15:39:58.5     -71     40     34     82     88 299.3  23.6  34154  289.46 0854.53
2009/04/23 15:39:58.6    -171     34     81    175    192 281.2  27.0  34142  289.26 0854.53
2009/04/23 15:39:58.7     -92     66    123    114    167 305.9  52.5  34156  289.50 0854.53
2009/04/23 15:39:58.8    -110     37    124    117    170 288.6  52.0  34168  289.70 0854.53
2009/04/23 15:39:58.9    -196    130    163    236    286 303.7  37.8  34174  289.80 0854.53
2009/04/23 15:39:59.0     -68    132    192    149    243 332.8  58.5  34178  289.89 0854.53
2009/04/23 15:39:59.1     -38     80    180     89    200 334.1  71.9  34178  289.87 0854.51
2009/04/23 15:39:59.2     -76     72    178    105    206 313.6  66.8  34182  289.96 0854.51
2009/04/23 15:39:59.3     -44    157    190    164    250 344.2  54.8  34194  290.16 0854.51
2009/04/23 15:39:59.4    -131    -61    118    145    186 244.8  43.7  34176  289.85 0854.51
2009/04/23 15:39:59.5    -139   -277    109    311    330 206.7  19.3  34162  289.59 0854.51
2009/04/23 15:39:59.6    -130   -233    181    267    322 209.2  37.4  34154  289.47 0854.51
2009/04/23 15:39:59.7    -233   -266    185    354    399 221.2  30.0  34184  289.99 0854.51
2009/04/23 15:39:59.9    -173   -278    165    328    367 212.0  28.7  34200  290.25 0854.51
2009/04/23 15:40:00.0     -99   -329    199    344    397 196.8  32.7  34192  290.10 0854.51
2009/04/23 15:40:00.1     -91   -282    226    297    373 197.9  41.2  34198  290.21 0854.51
2009/04/23 15:40:00.2    -116   -264    228    289    368 203.8  42.3  34188  290.04 0854.51
2009/04/23 15:40:00.3     -91   -452    356    462    583 191.5  41.6  34176  289.85 0854.51
2009/04/23 15:40:00.4       1   -522    278    523    592 179.8  30.3  34140  289.24 0854.51
2009/04/23 15:40:00.5      50   -528    267    531    594 174.6  28.8  34156  289.49 0854.51
2009/04/23 15:40:00.6      -3   -435    228    436    492 180.5  29.8  34146  289.32 0854.51
2009/04/23 15:40:00.7     -16   -412     84    413    422 182.2  11.5  34144  289.29 0854.51
2009/04/23 15:40:00.8      28   -360     85    362    372 175.4  13.3  34148  289.37 0854.51
2009/04/23 15:40:00.9      71   -417    -41    424    427 170.3  -5.6  34146  289.33 0854.51
2009/04/23 15:40:01.0     209   -353     23    411    412 149.4   3.2  34154  289.46 0854.51
2009/04/23 15:40:01.1     110   -288   -108    309    328 159.1 -19.4  34152  289.44 0854.51
2009/04/23 15:40:01.2     155   -242   -133    288    317 147.4 -30.8  34142  289.27 0854.51
2009/04/23 15:40:01.3      40   -122    -89    129    156 161.7 -42.8  34148  289.38 0854.51
2009/04/23 15:40:01.4      58    -96   -125    113    168 148.8 -57.7  34148  289.36 0854.51
2009/04/23 15:40:01.5     194   -101    -68    219    230 117.5 -17.3  34156  289.52 0854.51
2009/04/23 15:40:01.6      87    -83    105    121    160 133.6  45.6  34146  289.33 0854.51
2009/04/23 15:40:01.7     -82   -241    223    255    338 198.9  45.7  34146  289.32 0854.51
2009/04/23 15:40:01.8     -37   -309    301    312    433 186.9  49.0  34144  289.30 0854.51
2009/04/23 15:40:01.9      98   -368    164    381    414 165.0  24.8  34142  289.26 0854.51
2009/04/23 15:40:02.0     -12   -410    290    411    503 181.8  38.6  34140  289.23 0854.51
2009/04/23 15:40:02.1     209   -253    134    329    355 140.5  23.4  34144  289.30 0854.51
2009/04/23 15:40:02.2     170   -387     59    423    428 156.3   8.0  34140  289.24 0854.51
2009/04/23 15:40:02.3     209   -277    231    348    417 143.0  36.5  34128  289.04 0854.51
2009/04/23 15:40:02.4     231   -258    193    347    397 138.1  31.5  34132  289.10 0854.51
2009/04/23 15:40:02.5     222   -339    354    406    538 146.8  45.6  34156  289.49 0854.51
2009/04/23 15:40:02.6      49   -404    318    408    517 173.0  42.0  34140  289.23 0854.51
2009/04/23 15:40:02.7     109   -350    316    367    484 162.6  45.1  34142  289.26 0854.51
2009/04/23 15:40:02.8     375   -229    175    440    473 121.4  22.9  34146  289.34 0854.51
2009/04/23 15:40:02.9     462   -269    140    535    554 120.2  14.7  34146  289.35 0854.51
2009/04/23 15:40:03.0     390   -337    140    516    535 130.8  15.2  34140  289.23 0854.51
2009/04/23 15:40:03.1     239   -311     68    393    399 142.4   9.9  34146  289.35 0854.51
2009/04/23 15:40:03.2     130   -162   -103    208    232 141.3 -32.4  34146  289.35 0854.51
2009/04/23 15:40:03.3     128   -163    -60    208    216 141.7 -20.7  34150  289.41 0854.51
2009/04/23 15:40:03.4      96   -175    -71    200    213 151.1 -19.6  34150  289.41 0854.51
2009/04/23 15:40:03.5      98   -130    -75    163    179 143.0 -31.0  34154  289.46 0854.51
2009/04/23 15:40:03.6      45   -180    -45    186    192 165.7 -13.7  34148  289.36 0854.51
2009/04/23 15:40:03.7       3   -197     51    198    205 179.1  14.5  34152  289.43 0854.51
2009/04/23 15:40:03.8     -29   -176     18    179    180 189.6   5.9  34148  289.38 0854.51
2009/04/23 15:40:03.9     -60   -178     10    188    189 198.7   3.1  34148  289.38 0854.51
2009/04/23 15:40:04.0      -7    -92    -16     93     95 184.9  -9.8  34152  289.45 0854.51
2009/04/23 15:40:04.1      41    -34    -41     54     67 129.5 -45.1  34158  289.55 0854.51
2009/04/23 15:40:04.2      -9    -64    -81     65    103 188.1 -61.3  34166  289.69 0854.50
2009/04/23 15:40:04.3     113   -244   -100    270    287 155.1 -25.4  34152  289.42 0854.50
2009/04/23 15:40:04.4      55   -266   -208    272    342 168.2 -45.7  34156  289.51 0854.50
2009/04/23 15:40:04.5    -183    -80    -31    200    203 246.3  -9.0  34150  289.40 0854.50
2009/04/23 15:40:04.6    -212     21    124    214    247 275.7  32.9  34162  289.59 0854.50
2009/04/23 15:40:04.7    -338     17    -13    339    340 273.0  -2.2  34154  289.48 0854.50
2009/04/23 15:40:04.8    -364    -81    -58    374    379 257.4  -8.9  34160  289.57 0854.50
2009/04/23 15:40:04.9    -295    -46    -93    299    314 261.0 -17.3  34162  289.61 0854.50
2009/04/23 15:40:05.0    -240    -93    -85    258    272 248.7 -18.3  34162  289.61 0854.50
2009/04/23 15:40:05.1    -157    -78    -87    176    196 243.4 -32.6  34160  289.57 0854.50
2009/04/23 15:40:05.2     -71    -45    -98     85    129 237.5 -59.2  34166  289.67 0854.50
2009/04/23 15:40:05.3     -56    -63   -137     85    161 221.9 -69.8  34172  289.77 0854.50
2009/04/23 15:40:05.4     191   -113   -181    223    287 120.7 -47.9  34162  289.61 0854.50
2009/04/23 15:40:05.5     324    -49    -93    328    340  98.7 -20.4  34144  289.30 0854.50
2009/04/23 15:40:05.6     358    -85     -2    369    370 103.4  -0.4  34158  289.55 0854.50
2009/04/23 15:40:05.7     358     97    -56    372    377  74.8  -8.6  34168  289.71 0854.50
2009/04/23 15:40:05.8     169    -70   -124    184    221 112.6 -41.7  34176  289.85 0854.50
2009/04/23 15:40:05.9     -60   -101   -154    118    194 210.7 -63.1  34176  289.84 0854.50
2009/04/23 15:40:06.0    -123    -89   -148    152    212 234.1 -54.2  34172  289.79 0854.50
2009/04/23 15:40:06.1     -11   -158   -159    159    224 184.0 -54.5  34164  289.63 0854.50
2009/04/23 15:40:06.2    -150    -16   -121    151    193 263.8 -47.7  34166  289.69 0854.50
2009/04/23 15:40:06.3    -196     46   -209    202    290 283.3 -55.3  34156  289.51 0854.50
2009/04/23 15:40:06.4    -181    141   -129    230    263 308.0 -36.0  34166  289.68 0854.50
2009/04/23 15:40:06.5    -245     87     71    261    271 289.7  15.3  34170  289.73 0854.50
2009/04/23 15:40:06.6    -207     27    109    209    235 277.5  29.5  34176  289.84 0854.50
2009/04/23 15:40:06.7    -278     65     28    286    288 283.2   5.7  34184  289.97 0854.50
2009/04/23 15:40:06.8    -130      8    133    131    186 273.5  50.4  34174  289.82 0854.50
2009/04/23 15:40:06.9    -250   -114    135    275    306 245.4  28.0  34174  289.80 0854.50
2009/04/23 15:40:07.0    -184   -117     80    219    233 237.6  20.7  34170  289.75 0854.50
2009/04/23 15:40:07.1     -93   -117    -73    150    166 218.7 -31.8  34170  289.75 0854.50
2009/04/23 15:40:07.2     114    -54     91    127    156 115.2  39.1  34168  289.70 0854.50
2009/04/23 15:40:07.3     -10     71    135     72    153 352.0  69.3  34184  289.97 0854.50
2009/04/23 15:40:07.4    -160     76     35    178    182 295.4  11.1  34176  289.85 0854.50
2009/04/23 15:40:07.5    -114     27    -69    118    136 283.7 -37.8  34186  290.02 0854.50
2009/04/23 15:40:07.6      64    -17    -83     67    106 105.1 -60.8  34194  290.14 0854.50
2009/04/23 15:40:07.7     259    -61   -106    267    287 103.3 -27.4  34166  289.66 0854.50
2009/04/23 15:40:07.8     288   -321     52    432    436 138.1   6.9  34150  289.41 0854.50
2009/04/23 15:40:07.9     322   -257    147    413    438 128.6  20.4  34148  289.38 0854.50
2009/04/23 15:40:08.0     175   -334    167    378    413 152.4  25.3  34152  289.43 0854.50
2009/04/23 15:40:08.1     222   -314    185    385    427 144.7  27.3  34152  289.43 0854.50
2009/04/23 15:40:08.2     322   -228    168    395    429 125.4  24.3  34158  289.55 0854.48
2009/04/23 15:40:08.3     450   -173    269    483    552 111.1  31.6  34182  289.94 0854.48
2009/04/23 15:40:08.4     116   -369    274    387    474 162.5  38.7  34170  289.73 0854.48
2009/04/23 15:40:08.5    -111   -425    189    440    478 194.7  24.8  34146  289.32 0854.48
2009/04/23 15:40:08.6    -105   -357      2    373    374 196.4   0.4  34162  289.62 0854.48
2009/04/23 15:40:08.7     200   -229      4    305    306 138.8   0.8  34164  289.64 0854.48
2009/04/23 15:40:08.8     163   -102     67    193    205 122.0  19.2  34180  289.92 0854.48
2009/04/23 15:40:08.9     154    -50     90    163    186 108.2  31.3  34178  289.87 0854.48
2009/04/23 15:40:09.0      49    -15    117     52    128 106.8  74.9  34186  290.02 0854.48
2009/04/23 15:40:09.1      -8   -111    119    112    163 184.5  51.6  34184  289.97 0854.48
2009/04/23 15:40:09.2     -71   -176    113    190    221 202.1  33.5  34168  289.72 0854.48
2009/04/23 15:40:09.3    -126   -123    -14    177    178 225.8  -4.6  34174  289.80 0854.48
2009/04/23 15:40:09.4     -87   -265      5    280    281 198.3   1.2  34162  289.59 0854.48
2009/04/23 15:40:09.5     -99   -398    -23    411    412 194.1  -3.3  34160  289.58 0854.48
2009/04/23 15:40:09.6     -92   -325    -43    338    341 195.8  -7.3  34156  289.52 0854.48
2009/04/23 15:40:09.7     -80   -241    -30    255    257 198.5  -6.9  34156  289.49 0854.48
2009/04/23 15:40:09.8     -39   -379    -94    382    394 186.0 -13.9  34162  289.60 0854.48
2009/04/23 15:40:09.9    -146   -314     -4    347    348 204.9  -0.7  34162  289.62 0854.48
2009/04/23 15:40:10.0     -64   -502    156    507    531 187.4  17.2  34160  289.58 0854.48
2009/04/23 15:40:10.1      -5   -463    150    464    488 180.7  17.9  34160  289.57 0854.48
2009/04/23 15:40:10.2     -17   -378    132    379    402 182.7  19.2  34160  289.57 0854.46
2009/04/23 15:40:10.3      -8   -456     33    457    459 181.1   4.2  34160  289.58 0854.46
2009/04/23 15:40:10.4      27   -339    -45    341    345 175.3  -7.6  34158  289.54 0854.46
2009/04/23 15:40:10.5     135   -284   -172    315    358 154.5 -35.4  34146  289.32 0854.46
2009/04/23 15:40:10.6     130   -339    119    364    383 159.0  18.1  34152  289.45 0854.46
2009/04/23 15:40:10.7     113   -529     46    542    545 167.9   4.9  34154  289.48 0854.46
2009/04/23 15:40:10.8      82   -539    199    546    581 171.3  20.9  34162  289.61 0854.46
2009/04/23 15:40:10.9      57   -455    164    459    487 172.8  20.4  34166  289.69 0854.46
2009/04/23 15:40:11.0     -45   -289   -105    293    311 188.9 -24.6  34164  289.64 0854.46
2009/04/23 15:40:11.1     -57   -263    -76    270    280 192.3 -20.4  34164  289.63 0854.46
2009/04/23 15:40:11.2     -94   -119    -23    152    154 218.3  -8.8  34160  289.57 0854.46
2009/04/23 15:40:11.3     -32     24    -18     41     44 306.9 -28.5  34170  289.74 0854.46
2009/04/23 15:40:11.4     -20   -162    -28    164    167 187.1  -9.8  34164  289.63 0854.46
2009/04/23 15:40:11.5      39   -260    -82    264    277 171.3 -17.3  34166  289.66 0854.46
2009/04/23 15:40:11.6     299    -50    -50    304    309  99.5  -9.3  34164  289.64 0854.46
2009/04/23 15:40:11.7     404    -22    168    405    438  93.2  23.8  34172  289.77 0854.46
2009/04/23 15:40:11.8     304      4     85    305    317  89.2  15.7  34170  289.73 0854.46
2009/04/23 15:40:11.9     196      1    -35    197    201  89.6 -10.1  34168  289.72 0854.46
2009/04/23 15:40:12.0     206   -170    184    268    325 129.6  37.8  34168  289.71 0854.46
2009/04/23 15:40:12.1     241   -291    268    379    464 140.4  38.7  34166  289.66 0854.46
2009/04/23 15:40:12.2     254   -394    244    470    529 147.2  29.6  34160  289.56 0854.46
2009/04/23 15:40:12.3     233   -417     39    478    480 150.8   4.7  34166  289.69 0854.46
2009/04/23 15:40:12.4     149   -472    -62    495    499 162.5  -7.2  34166  289.69 0854.46
2009/04/23 15:40:12.5     213   -497    -43    541    543 156.8  -4.6  34164  289.65 0854.46
2009/04/23 15:40:12.6     231   -343    -90    414    424 146.1 -12.4  34164  289.65 0854.46
2009/04/23 15:40:12.7     118   -436    -87    452    461 164.9 -10.9  34168  289.70 0854.46
2009/04/23 15:40:12.8     480   -539     84    723    728 138.3   6.7  34150  289.39 0854.46
2009/04/23 15:40:12.9     502   -424    -48    658    660 130.2  -4.2  34160  289.56 0854.46
2009/04/23 15:40:13.0     395   -320     71    509    515 129.0   8.0  34146  289.32 0854.46
2009/04/23 15:40:13.1     246   -374     71    448    454 146.6   9.0  34154  289.46 0854.46
2009/04/23 15:40:13.2     165   -407    140    440    462 157.9  17.7  34152  289.44 0854.46
2009/04/23 15:40:13.3      40   -527    222    529    573 175.6  24.1  34158  289.55 0854.46
2009/04/23 15:40:13.4     232   -801    183    834    854 163.8  12.4  34170  289.73 0854.46
2009/04/23 15:40:13.5     100   -404   -300    417    513 166.1 -43.7  34170  289.73 0854.46
2009/04/23 15:40:13.6     178   -526   -156    556    577 161.3 -20.3  34162  289.61 0854.46
2009/04/23 15:40:13.7     281   -584    -67    649    653 154.3  -5.9  34158  289.53 0854.46
2009/04/23 15:40:13.8     253   -590   -144    643    660 156.8 -12.7  34172  289.77 0854.46
2009/04/23 15:40:13.9     107   -479   -196    491    528 167.4 -27.4  34168  289.71 0854.46
2009/04/23 15:40:14.0     145   -642   -102    659    667 167.2  -8.8  34168  289.71 0854.46
2009/04/23 15:40:14.1     182   -576    -23    605    606 162.4  -2.2  34174  289.81 0854.46
2009/04/23 15:40:14.2      54   -532   -185    535    567 174.1 -19.1  34166  289.67 0854.43
2009/04/23 15:40:14.3     164   -451   -142    481    501 160.0 -21.2  34172  289.76 0854.43
2009/04/23 15:40:14.4     206   -438    -37    485    487 154.8  -4.4  34162  289.62 0854.43
2009/04/23 15:40:14.5     175   -453    142    486    507 158.8  16.3  34144  289.30 0854.43
2009/04/23 15:40:14.6     295   -371    186    475    510 141.5  22.5  34152  289.45 0854.43
2009/04/23 15:40:14.7     355   -294    334    461    569 129.6  39.5  34158  289.55 0854.43
2009/04/23 15:40:14.8     242   -192    320    310    445 128.4  50.9  34160  289.58 0854.43
2009/04/23 15:40:14.9     196   -142    319    243    401 126.0  59.0  34156  289.50 0854.43
2009/04/23 15:40:15.0     246   -338    254    419    489 143.9  34.1  34156  289.50 0854.43
2009/04/23 15:40:15.1     209   -410    259    461    528 152.9  31.7  34160  289.56 0854.43
2009/04/23 15:40:15.2     198   -318    165    375    409 148.0  25.2  34158  289.55 0854.43
2009/04/23 15:40:15.3     113   -416    151    432    458 164.7  19.3  34160  289.56 0854.43
2009/04/23 15:40:15.4     139   -391    283    416    503 160.4  37.4  34162  289.61 0854.43
2009/04/23 15:40:15.5     271   -333    211    430    478 140.8  28.0  34154  289.48 0854.43
2009/04/23 15:40:15.6     284   -266    228    390    451 133.2  33.0  34158  289.55 0854.43
2009/04/23 15:40:15.7     130   -285    265    314    410 155.5  44.5  34158  289.54 0854.43
2009/04/23 15:40:15.8      47   -318    258    322    412 171.5  42.8  34162  289.62 0854.43
2009/04/23 15:40:15.9      32   -294    292    296    415 173.8  49.9  34162  289.59 0854.43
2009/04/23 15:40:16.0       0   -345    325    346    474 180.0  48.0  34164  289.63 0854.43
2009/04/23 15:40:16.1      31   -421    353    423    550 175.8  44.2  34194  290.15 0854.43
2009/04/23 15:40:16.2     -52   -363    316    367    484 188.3  45.1  34210  290.41 0854.44
2009/04/23 15:40:16.3      23   -339    263    340    429 176.1  41.6  34172  289.77 0854.44
2009/04/23 15:40:16.4      10   -338    283    339    441 178.3  44.0  34172  289.78 0854.44
2009/04/23 15:40:16.5      21   -431    218    432    483 177.2  28.8  34164  289.64 0854.44
2009/04/23 15:40:16.6     -39   -469    266    471    540 184.9  31.9  34174  289.81 0854.44
2009/04/23 15:40:16.7      13   -503    272    504    572 178.5  30.8  34170  289.75 0854.44
2009/04/23 15:40:16.8     -18   -480    243    481    538 182.2  28.9  34170  289.74 0854.44
2009/04/23 15:40:16.9     -57   -409    230    414    473 188.0  31.5  34172  289.77 0854.44
2009/04/23 15:40:17.0     -95   -308    134    323    349 197.2  23.8  34172  289.76 0854.44
2009/04/23 15:40:17.1    -118   -294    192    317    370 201.9  34.2  34168  289.71 0854.44
2009/04/23 15:40:17.2    -189   -231     87    299    312 219.2  16.3  34170  289.75 0854.44
2009/04/23 15:40:17.3    -153   -240    115    285    307 212.5  23.1  34170  289.73 0854.44
2009/04/23 15:40:17.4      41   -196    191    201    277 168.0  48.5  34178  289.86 0854.44
2009/04/23 15:40:17.5      61   -207    273    216    348 163.5  57.7  34174  289.81 0854.44
2009/04/23 15:40:17.6     -15    -77    189     79    204 191.6  75.9  34200  290.26 0854.44
2009/04/23 15:40:17.7     -37   -144    172    149    227 194.7  54.8  34168  289.72 0854.44
2009/04/23 15:40:17.8    -114   -231    128    258    288 206.3  28.2  34158  289.53 0854.44
2009/04/23 15:40:17.9      23    -59    101     64    119 158.2  64.7  34172  289.79 0854.44
2009/04/23 15:40:18.0     107    -57    127    122    176 118.0  51.2  34176  289.84 0854.44
2009/04/23 15:40:18.1      13   -251     90    252    267 176.9  20.4  34160  289.58 0854.44
2009/04/23 15:40:18.2     -20   -352    114    353    372 183.4  17.9  34160  289.57 0854.44
2009/04/23 15:40:18.3      11   -288     58    289    295 177.8  11.4  34160  289.58 0854.44
2009/04/23 15:40:18.4      12   -402    202    403    450 178.2  28.6  34158  289.55 0854.44
2009/04/23 15:40:18.5     258   -469    105    536    547 151.1  11.1  34156  289.51 0854.44
2009/04/23 15:40:18.6     190   -443    -18    483    484 156.8  -2.2  34156  289.52 0854.44
2009/04/23 15:40:18.7     237   -430    -27    492    493 151.1  -3.2  34156  289.52 0854.44
2009/04/23 15:40:18.8     287   -435     25    522    523 146.6   2.8  34164  289.63 0854.44
2009/04/23 15:40:18.9     291   -430    142    520    540 145.9  15.3  34166  289.68 0854.44
2009/04/23 15:40:19.0     149   -315    113    349    367 154.7  18.0  34154  289.48 0854.44
2009/04/23 15:40:19.1      64   -329    151    336    368 168.9  25.9  34162  289.62 0854.44
2009/04/23 15:40:19.2      26   -439    -29    440    441 176.6  -3.8  34170  289.73 0854.44
2009/04/23 15:40:19.3     262   -396    -60    475    479 146.5  -7.2  34160  289.57 0854.44
2009/04/23 15:40:19.4      56   -301     -8    307    308 169.4  -1.6  34166  289.68 0854.44
2009/04/23 15:40:19.5       1   -278     68    279    288 179.8  13.7  34168  289.70 0854.44
2009/04/23 15:40:19.6     -35   -117     74    123    143 196.9  34.0  34170  289.74 0854.44
2009/04/23 15:40:19.7      28   -167     44    170    176 170.4  14.7  34170  289.74 0854.44
2009/04/23 15:40:19.8    -103   -120   -110    159    193 220.5 -42.2  34174  289.80 0854.44
2009/04/23 15:40:19.9    -233    -56     40    240    244 256.3   9.5  34168  289.71 0854.44
2009/04/23 15:40:20.0    -340   -166    152    379    408 243.9  23.0  34172  289.77 0854.44
2009/04/23 15:40:20.1    -309   -205     58    372    377 236.4   8.9  34184  289.98 0854.45
2009/04/23 15:40:20.2    -282    -19    -35    283    286 266.1  -7.2  34182  289.93 0854.45
2009/04/23 15:40:20.3    -258    -43    -90    262    278 260.5 -18.9  34172  289.76 0854.45
2009/04/23 15:40:20.4    -166     23     37    168    173 278.1  12.4  34176  289.85 0854.45
2009/04/23 15:40:20.5    -165     53     42    174    180 287.9  13.7  34176  289.85 0854.45
2009/04/23 15:40:20.6    -375    103   -125    390    409 285.4 -22.8  34188  290.04 0854.45
2009/04/23 15:40:20.7    -505    111    -86    518    526 282.4  -9.5  34202  290.28 0854.45
2009/04/23 15:40:20.8    -277     56    -87    283    296 281.5 -22.1  34190  290.09 0854.45
2009/04/23 15:40:20.9    -320     84    -50    331    335 284.8  -8.7  34194  290.16 0854.45
2009/04/23 15:40:21.0    -251    119   -128    278    306 295.4 -31.0  34196  290.17 0854.45
2009/04/23 15:40:21.1    -322    205   -112    382    398 302.5 -21.2  34172  289.79 0854.45
2009/04/23 15:40:21.2    -299    -60    -89    306    318 258.6 -21.0  34178  289.88 0854.45
2009/04/23 15:40:21.3    -422     12   -116    423    439 271.7 -15.4  34170  289.73 0854.45
2009/04/23 15:40:21.4    -231    -37    -63    235    244 260.8 -15.0  34188  290.03 0854.45
2009/04/23 15:40:21.5    -359   -337     10    493    494 226.9   1.2  34198  290.20 0854.45
2009/04/23 15:40:21.6    -518   -330     13    615    616 237.5   1.2  34214  290.50 0854.45
2009/04/23 15:40:21.7    -232   -363    161    431    460 212.6  21.5  34178  289.88 0854.45
2009/04/23 15:40:21.8    -227   -256    109    343    360 221.5  17.7  34188  290.04 0854.45
2009/04/23 15:40:21.9    -262    -32    -53    265    271 262.9 -11.5  34182  289.93 0854.45
2009/04/23 15:40:22.0    -210   -202    121    292    316 226.2  23.8  34178  289.86 0854.45
2009/04/23 15:40:22.1    -258   -258   -131    366    389 225.0 -19.7  34168  289.71 0854.41
2009/04/23 15:40:22.2    -232   -133    -19    268    269 240.2  -4.1  34160  289.58 0854.41
2009/04/23 15:40:22.3    -206   -125    147    242    283 238.7  34.2  34176  289.85 0854.41
2009/04/23 15:40:22.4    -108   -210    168    237    290 207.2  38.6  34178  289.86 0854.41
2009/04/23 15:40:22.5      15   -196    166    197    257 175.5  44.5  34178  289.88 0854.41
2009/04/23 15:40:22.6     201   -172    231    265    351 130.5  45.7  34172  289.78 0854.41
2009/04/23 15:40:22.7     233   -233    292    330    440 135.0  45.9  34182  289.95 0854.41
2009/04/23 15:40:22.8     147   -297    229    332    403 153.7  37.8  34172  289.79 0854.41
2009/04/23 15:40:22.9     124   -327    248    350    428 159.2  38.7  34162  289.61 0854.41
2009/04/23 15:40:23.0     -32   -230    267    233    354 188.1  54.4  34198  290.20 0854.41
2009/04/23 15:40:23.1     -74   -134    167    154    227 208.9  52.2  34212  290.45 0854.40
2009/04/23 15:40:23.2     -44   -239    250    244    349 190.6  50.7  34184  289.98 0854.40
2009/04/23 15:40:23.3      -3   -208    198    209    287 180.9  48.2  34170  289.73 0854.40
2009/04/23 15:40:23.4       0   -175    159    176    237 180.0  46.9  34168  289.70 0854.40
2009/04/23 15:40:23.5     -12   -149     67    150    164 184.9  25.7  34166  289.67 0854.40
2009/04/23 15:40:23.6      11   -179     51    180    188 176.4  15.8  34188  290.06 0854.40
2009/04/23 15:40:23.7      19   -141    160    143    214 172.0  53.7  34198  290.21 0854.40
2009/04/23 15:40:23.8     -36     46     35     59     68 322.2  34.4  34212  290.45 0854.40
2009/04/23 15:40:23.9    -169     16     10    170    171 275.5   3.6  34212  290.47 0854.40
2009/04/23 15:40:24.0     -96    184     81    208    223 332.4  22.3  34206  290.36 0854.40
2009/04/23 15:40:24.1    -114    206     71    236    247 331.0  16.8  34254  291.17 0854.40
2009/04/23 15:40:24.2    -116    223     -9    252    253 332.4  -2.2  34260  291.26 0854.40
2009/04/23 15:40:24.3    -266     71    -70    276    285 285.1 -14.4  34208  290.39 0854.40
2009/04/23 15:40:24.4    -176    115    -26    211    213 303.1  -7.2  34214  290.50 0854.40
2009/04/23 15:40:24.5    -195    195     -6    277    278 315.0  -1.3  34210  290.41 0854.40
2009/04/23 15:40:24.6    -164    241     62    292    299 325.7  12.1  34206  290.36 0854.40
2009/04/23 15:40:24.7    -184    329   -118    378    395 330.8 -22.4  34198  290.23 0854.40
2009/04/23 15:40:24.8    -171     43   -204    177    270 284.2 -59.2  34202  290.29 0854.40
2009/04/23 15:40:24.9     -63    -15   -123     65    139 255.8 -74.2  34194  290.14 0854.40
2009/04/23 15:40:25.0      15     45    -22     48     52  18.5 -31.5  34194  290.16 0854.40
2009/04/23 15:40:25.1      29     64     90     71    114  24.5  57.5  34198  290.21 0854.39
2009/04/23 15:40:25.2     250     95    242    268    361  69.2  46.8  34200  290.25 0854.39
2009/04/23 15:40:25.3     285    121    146    310    342  66.9  27.1  34198  290.23 0854.39
2009/04/23 15:40:25.4      68    184     86    197    214  20.3  25.1  34212  290.45 0854.39
2009/04/23 15:40:25.5     126    176    116    217    246  35.6  30.3  34212  290.46 0854.39
2009/04/23 15:40:25.6      45     94     98    105    143  25.4  48.0  34208  290.40 0854.39
2009/04/23 15:40:25.7     -71     84     21    111    114 319.9  11.1  34224  290.67 0854.39
2009/04/23 15:40:25.8     -22    100     74    103    126 347.5  39.5  34228  290.72 0854.39
2009/04/23 15:40:25.9       6    177     23    178    180   2.0   7.5  34222  290.62 0854.39
2009/04/23 15:40:26.0      37    183    -60    187    196  11.6 -22.8  34214  290.50 0854.39
2009/04/23 15:40:26.1     111    201     92    230    247  29.0  23.0  34212  290.44 0854.39
2009/04/23 15:40:26.2     109    229    119    254    280  25.6  27.0  34226  290.68 0854.39
2009/04/23 15:40:26.3     -25    251    191    253    317 354.2  40.9  34238  290.90 0854.39
2009/04/23 15:40:26.4      -5    215    192    216    288 358.6  45.9  34232  290.78 0854.39
2009/04/23 15:40:26.6     183    108    220    213    306  59.4  51.2  34220  290.58 0854.39
2009/04/23 15:40:26.7     258    164    224    306    379  57.6  39.7  34192  290.13 0854.39
2009/04/23 15:40:26.7     353    256    204    437    482  54.0  26.9  34180  289.91 0854.39
2009/04/23 15:40:26.8     437    175     31    471    473  68.2   3.8  34180  289.91 0854.39
2009/04/23 15:40:27.0     296    150      8    332    333  63.1   1.5  34168  289.72 0854.39
2009/04/23 15:40:27.1     272    321    198    422    466  40.3  27.1  34216  290.53 0854.39
2009/04/23 15:40:27.2     316    361    250    480    541  41.2  29.6  34224  290.67 0854.42
2009/04/23 15:40:27.3     282    351    229    451    505  38.7  29.1  34236  290.86 0854.42
2009/04/23 15:40:27.4     319    320     79    452    460  44.9  10.0  34192  290.11 0854.42
2009/04/23 15:40:27.5     460    287    -29    543    544  58.0  -3.1  34180  289.92 0854.42
2009/04/23 15:40:27.6     -33    296     28    298    300 353.5   5.4  34196  290.17 0854.42
2009/04/23 15:40:27.7     252    183    210    312    376  54.1  37.3  34204  290.32 0854.42
2009/04/23 15:40:27.8     245     62    109    253    275  75.6  25.1  34192  290.10 0854.42
2009/04/23 15:40:27.9     108    195    144    224    266  29.0  35.6  34204  290.31 0854.42
2009/04/23 15:40:28.0      91    254     77    271    282  19.8  16.0  34220  290.59 0854.42
2009/04/23 15:40:28.1     183    297     43    350    353  31.7   7.1  34198  290.21 0854.42
2009/04/23 15:40:28.2     349    185   -125    396    416  62.0 -17.6  34188  290.04 0854.42
2009/04/23 15:40:28.3     423    106    -13    437    438  75.9  -1.8  34200  290.24 0854.42
2009/04/23 15:40:28.4     304    149    -37    339    342  63.9  -6.2  34188  290.04 0854.42
2009/04/23 15:40:28.5     181    165    -27    246    248  47.7  -6.5  34192  290.12 0854.42
2009/04/23 15:40:28.6     214    147     13    260    261  55.4   2.9  34208  290.39 0854.42
2009/04/23 15:40:28.7     303    197     99    362    376  57.0  15.3  34202  290.28 0854.42
2009/04/23 15:40:28.8     295    126     38    321    324  66.8   6.8  34206  290.36 0854.42
2009/04/23 15:40:28.9     282     -8     94    283    299  91.7  18.4  34224  290.65 0854.42
2009/04/23 15:40:29.0     221    -73    101    233    253 108.4  25.1  34222  290.63 0854.42
2009/04/23 15:40:29.1     237    -59    137    245    280 104.1  31.6  34226  290.68 0854.42
2009/04/23 15:40:29.2     317     27    114    319    338  85.0  20.4  34228  290.74 0854.42
2009/04/23 15:40:29.3     335     29    107    337    354  84.9  17.7  34230  290.77 0854.42
2009/04/23 15:40:29.4     295     41    133    298    326  82.1  25.7  34234  290.82 0854.42
2009/04/23 15:40:29.5     338     15    199    339    393  87.4  33.1  34236  290.86 0854.42
2009/04/23 15:40:29.6     324      4    200    325    381  89.2  34.8  34240  290.93 0854.42
2009/04/23 15:40:29.7     282     40    223    285    361  81.9  42.1  34230  290.77 0854.42
2009/04/23 15:40:29.8     276     76    221    287    362  74.5  41.6  34244  291.00 0854.42
2009/04/23 15:40:29.9     362    163    164    398    430  65.7  23.8  34228  290.73 0854.42
2009/04/23 15:40:30.0     355    151    164    386    419  66.9  24.5  34198  290.22 0854.42
2009/04/23 15:40:30.1     305    110    167    325    365  70.2  29.3  34188  290.06 0854.42
2009/04/23 15:40:30.2     284    106    227    304    379  69.6  40.2  34190  290.08 0854.42
2009/04/23 15:40:30.3     279     69    193    288    346  76.1  36.9  34180  289.90 0854.42
2009/04/23 15:40:30.4     245     62    226    253    339  75.6  46.4  34202  290.29 0854.42
2009/04/23 15:40:30.5     237    111    132    262    293  64.8  29.1  34202  290.27 0854.42
2009/04/23 15:40:30.6     203    103    111    228    253  62.9  27.8  34202  290.27 0854.42
2009/04/23 15:40:30.7     194     42    122    199    233  77.6  35.0  34208  290.40 0854.42
2009/04/23 15:40:30.8     206      0     82    207    222  90.0  23.0  34206  290.35 0854.42
2009/04/23 15:40:30.9     262     66     31    271    273  75.9   6.7  34206  290.34 0854.42
2009/04/23 15:40:31.0     250    108     13    273    274  66.5   2.8  34200  290.24 0854.42
2009/04/23 15:40:31.1     258    132     12    290    291  62.9   2.5  34204  290.32 0854.42
2009/04/23 15:40:31.2     369     83    -97    379    392  77.3 -14.4  34176  289.84 0854.42
2009/04/23 15:40:31.3     314    -24      9    315    316  94.4   1.7  34160  289.56 0854.42
2009/04/23 15:40:31.4     256    -30     32    258    261  96.8   7.2  34162  289.61 0854.42
2009/04/23 15:40:31.5     225    -12    115    226    253  93.3  29.1  34168  289.70 0854.42
2009/04/23 15:40:31.6     169    -20    182    171    249  97.0  52.0  34192  290.11 0854.42
2009/04/23 15:40:31.7     130    -47    157    139    209 110.0  54.2  34194  290.14 0854.42
2009/04/23 15:40:31.8      80    -20    190     83    207 104.2  75.0  34208  290.40 0854.42
2009/04/23 15:40:31.9     104    -13    152    105    184  97.5  62.4  34200  290.25 0854.42
2009/04/23 15:40:32.0     161    -35    139    165    215 102.4  44.3  34196  290.18 0854.42
2009/04/23 15:40:32.1     293    -19    158    294    333  93.9  30.6  34162  289.61 0854.42
2009/04/23 15:40:32.2     319    -10    153    320    354  91.9  27.3  34164  289.64 0854.42
2009/04/23 15:40:32.3     292    -13    173    293    340  92.6  33.5  34174  289.80 0854.42
2009/04/23 15:40:32.4     428    -25    189    429    468  93.4  25.3  34182  289.95 0854.42
2009/04/23 15:40:32.5     456    177    169    490    519  68.8  19.1  34292  291.83 0854.42
2009/04/23 15:40:32.6     339     73     95    348    361  77.7  15.3  34302  291.98 0854.42
2009/04/23 15:40:32.7     366     24    144    367    394  86.2  22.5  34404  293.74 0854.42
2009/04/23 15:40:32.8     340     50    185    344    390  81.6  30.6  34294  291.86 0854.42
2009/04/23 15:40:32.9     373    -55    212    378    433  98.4  31.7  34188  290.05 0854.42
2009/04/23 15:40:33.0     404   -113    148    420    445 105.7  20.1  34218  290.56 0854.42
2009/04/23 15:40:33.1     526      0    222    527    571  90.0  24.2  34280  291.62 0854.42
2009/04/23 15:40:33.2     559    248    188    612    641  66.1  17.1  34280  291.61 0854.44
2009/04/23 15:40:33.3     436    162    217    466    514  69.6  26.7  34288  291.73 0854.44
2009/04/23 15:40:33.4     495    113    122    508    523  77.1  13.5  34282  291.66 0854.44
2009/04/23 15:40:33.5     467    250    149    530    551  61.8  15.8  34242  290.96 0854.44
2009/04/23 15:40:33.6     465    139    182    486    518  73.4  21.5  34400  293.64 0854.44
2009/04/23 15:40:33.7     467    167    140    497    517  70.3  15.8  34328  292.41 0854.44
2009/04/23 15:40:33.8     420    218     86    474    482  62.5  10.4  34252  291.12 0854.44
2009/04/23 15:40:33.9     351    167    122    389    408  64.5  17.4  34198  290.21 0854.44
2009/04/23 15:40:34.0     376    157    141    408    432  67.3  19.1  34224  290.67 0854.44
2009/04/23 15:40:34.1     386    169    129    422    442  66.3  17.1  34252  291.14 0854.44
2009/04/23 15:40:34.2     347    160    120    383    402  65.3  17.4  34322  292.31 0854.44
2009/04/23 15:40:34.3     354    118     73    374    382  71.6  11.1  34276  291.54 0854.44
2009/04/23 15:40:34.4     443    104     30    456    458  76.7   3.8  34252  291.12 0854.44
2009/04/23 15:40:34.5     355    112    115    373    391  72.5  17.2  34270  291.44 0854.44
2009/04/23 15:40:34.6     343     63     12    349    350  79.5   2.1  34232  290.79 0854.44
2009/04/23 15:40:34.7     362     45      0    365    366  82.9   0.0  34232  290.81 0854.44
2009/04/23 15:40:34.8     319    142    -59    350    355  66.0  -9.6  34222  290.62 0854.44
2009/04/23 15:40:34.9     314    126    -51    339    343  68.1  -8.7  34242  290.98 0854.44
2009/04/23 15:40:35.0     321     47    104    325    342  81.5  17.8  34298  291.93 0854.44
2009/04/23 15:40:35.1     290     21     95    291    307  85.7  18.1  34274  291.50 0854.44
2009/04/23 15:40:35.2     304     48     74    308    317  81.0  13.5  34232  290.78 0854.44
2009/04/23 15:40:35.3     292     64    116    300    321  77.6  22.2  34228  290.71 0854.44
2009/04/23 15:40:35.4     274     50    132    279    308  79.6  27.1  34198  290.20 0854.44
2009/04/23 15:40:35.5     298     84     95    310    325  74.1  17.1  34264  291.33 0854.44
2009/04/23 15:40:35.6     262    153    146    304    337  59.8  27.4  34358  292.94 0854.44
2009/04/23 15:40:35.7     316     50    185    320    369  81.0  32.8  34344  292.70 0854.44
2009/04/23 15:40:35.8     314     63    148    321    353  78.6  26.5  34250  291.11 0854.44
2009/04/23 15:40:35.9     341    143     99    370    384  67.2  15.0  34224  290.66 0854.44
2009/04/23 15:40:36.0     281    174     71    331    339  58.3  12.1  34218  290.57 0854.44
2009/04/23 15:40:36.1     296    144     70    330    338  64.1  12.0  34212  290.45 0854.44
2009/04/23 15:40:36.2     331     23     83    332    343  85.9  14.2  34276  291.54 0854.44
2009/04/23 15:40:36.3     234     87    140    250    286  69.6  31.6  34260  291.26 0854.44
2009/04/23 15:40:36.4     260     87    142    275    309  71.4  29.3  34278  291.58 0854.44
2009/04/23 15:40:36.5     230    131    121    265    291  60.2  26.2  34268  291.41 0854.44
2009/04/23 15:40:36.6     259     10    242    260    355  87.6  47.9  34324  292.36 0854.44
2009/04/23 15:40:36.7     258   -107    175    280    330 112.6  35.2  34266  291.38 0854.44
2009/04/23 15:40:36.8      91   -203    207    223    304 155.9  47.9  34284  291.68 0854.44
2009/04/23 15:40:36.9     183   -278    196    334    387 146.6  33.3  34220  290.59 0854.44
2009/04/23 15:40:37.0     239   -293    207    379    431 140.8  31.0  34214  290.48 0854.44
2009/04/23 15:40:37.1     135   -256    221    290    364 152.1  41.3  34184  289.98 0854.44
2009/04/23 15:40:37.2     208   -302    282    368    463 145.4  41.4  34198  290.21 0854.38
2009/04/23 15:40:37.3     304   -249    242    393    461 129.3  34.5  34182  289.94 0854.38
2009/04/23 15:40:37.4     284   -207    254    352    434 126.1  39.5  34178  289.87 0854.38
2009/04/23 15:40:37.5     214   -188    288    285    405 131.3  50.2  34202  290.27 0854.38
2009/04/23 15:40:37.6      47      2    181     48    187  87.4  85.2  34226  290.70 0854.38
2009/04/23 15:40:37.7      72    -51    188     89    208 125.5  73.1  34206  290.35 0854.38
2009/04/23 15:40:37.8      79      4    164     80    182  86.5  72.4  34192  290.11 0854.38
2009/04/23 15:40:37.9     132    -87    168    159    231 123.3  52.0  34194  290.14 0854.38
2009/04/23 15:40:38.0     117   -129    101    175    202 137.7  32.9  34186  290.02 0854.38
2009/04/23 15:40:38.1     104   -173     20    202    204 149.0   5.9  34186  290.02 0854.38
2009/04/23 15:40:38.2      21   -213    -27    215    217 174.2  -7.3  34184  289.99 0854.38
2009/04/23 15:40:38.3     -48   -198    -61    204    212 193.8 -21.7  34180  289.91 0854.38
2009/04/23 15:40:38.4     -35   -226    214    229    313 188.9  47.9  34188  290.05 0854.38
2009/04/23 15:40:38.5     -22   -137    175    139    223 189.3  57.7  34192  290.13 0854.38
2009/04/23 15:40:38.6      32   -104     72    110    131 162.6  36.0  34192  290.11 0854.38
2009/04/23 15:40:38.7      67   -109     50    129    138 148.4  22.5  34188  290.04 0854.38
2009/04/23 15:40:38.8      63   -233     28    242    244 164.9   6.7  34182  289.95 0854.38
2009/04/23 15:40:38.9     128   -269    106    299    317 154.5  20.2  34188  290.03 0854.38
2009/04/23 15:40:39.0      45   -303     94    307    322 171.5  17.0  34182  289.95 0854.38
2009/04/23 15:40:39.1      48   -283     61    288    295 170.3  12.1  34164  289.64 0854.38
2009/04/23 15:40:39.2      79   -205    165    220    275 158.8  40.7  34172  289.76 0854.34
2009/04/23 15:40:39.3     144   -222    201    265    332 147.0  41.1  34178  289.86 0854.34
2009/04/23 15:40:39.4      55   -121    159    133    207 155.5  56.1  34178  289.89 0854.34
2009/04/23 15:40:39.5     231   -297    221    377    437 142.1  33.1  34178  289.88 0854.34
2009/04/23 15:40:39.6     121   -276    235    302    382 156.3  41.9  34174  289.82 0854.34
2009/04/23 15:40:39.7      79   -266    239    278    366 163.3  45.1  34174  289.82 0854.34
2009/04/23 15:40:39.8      -7   -217    234    218    319 182.0  52.3  34174  289.81 0854.34
2009/04/23 15:40:39.9     -38   -273    326    276    427 188.1  55.6  34188  290.04 0854.34
2009/04/23 15:40:40.0      87   -225    219    242    326 158.8  46.8  34176  289.83 0854.34
2009/04/23 15:40:40.1      68   -195    148    207    254 160.8  39.1  34178  289.86 0854.34
2009/04/23 15:40:40.2      58   -299    200    305    364 168.9  36.3  34200  290.25 0854.34
2009/04/23 15:40:40.3      75   -228    209    241    319 161.7  45.5  34200  290.26 0854.34
2009/04/23 15:40:40.4      98   -208    200    231    305 154.7  45.4  34206  290.36 0854.34
2009/04/23 15:40:40.5      79   -198    164    214    269 158.2  41.6  34204  290.32 0854.34
2009/04/23 15:40:40.6      24   -238    107    240    262 174.0  25.3  34202  290.27 0854.34
2009/04/23 15:40:40.7       0   -251    155    252    295 180.1  34.5  34198  290.20 0854.34
2009/04/23 15:40:40.8      19   -279    199    280    343 176.0  39.1  34180  289.90 0854.34
2009/04/23 15:40:40.9      -7   -253    186    254    314 181.8  39.9  34174  289.81 0854.34
2009/04/23 15:40:41.0      31   -218    192    221    292 171.9  45.8  34178  289.88 0854.34
2009/04/23 15:40:41.1     -43   -236    251    241    347 190.5  51.3  34180  289.92 0854.34
2009/04/23 15:40:41.2     -49   -265    218    270    347 190.5  43.3  34178  289.88 0854.34
2009/04/23 15:40:41.3     -32   -208    184    211    279 188.9  45.8  34184  289.97 0854.34
2009/04/23 15:40:41.4     -41   -214    148    218    263 190.9  37.4  34180  289.92 0854.34
2009/04/23 15:40:41.5     -18   -238    170    239    293 184.4  39.1  34178  289.88 0854.34
2009/04/23 15:40:41.6       0   -239    193    240    307 180.1  43.0  34170  289.75 0854.34
2009/04/23 15:40:41.7      80   -257    196    270    333 162.6  39.7  34186  290.00 0854.34
2009/04/23 15:40:41.8      50   -268    191    273    333 169.3  38.6  34186  290.00 0854.34
2009/04/23 15:40:41.9      62   -217    172    226    284 164.0  41.4  34182  289.93 0854.34
2009/04/23 15:40:42.0      -8   -184    188    185    263 182.7  50.2  34178  289.86 0854.34
2009/04/23 15:40:42.1     -16   -217    157    218    268 184.4  39.5  34174  289.81 0854.34
2009/04/23 15:40:42.2    -108   -219    173    245    299 206.3  38.6  34174  289.81 0854.34
2009/04/23 15:40:42.3    -176   -170    163    246    295 226.0  36.5  34172  289.78 0854.34
2009/04/23 15:40:42.4    -172   -148    194    228    299 229.3  44.8  34182  289.95 0854.34
2009/04/23 15:40:42.5    -115   -137    157    180    238 220.1  45.6  34184  289.99 0854.34
2009/04/23 15:40:42.6    -105   -114    140    156    209 222.8  46.4  34190  290.09 0854.34
2009/04/23 15:40:42.7     -28   -105    115    109    158 195.2  51.4  34198  290.21 0854.34
2009/04/23 15:40:42.8      -2   -166    101    167    195 180.7  34.0  34192  290.13 0854.34
2009/04/23 15:40:42.9      10   -133    127    134    184 175.5  48.5  34196  290.18 0854.34
2009/04/23 15:40:43.0      16   -137    153    138    206 173.3  53.5  34190  290.09 0854.34
2009/04/23 15:40:43.1     -15   -129    162    130    207 186.7  57.1  34198  290.21 0854.34
2009/04/23 15:40:43.2     -68   -144    139    160    211 205.3  45.6  34190  290.09 0854.35
2009/04/23 15:40:43.3     -35   -107    137    113    177 198.3  56.3  34200  290.26 0854.35
2009/04/23 15:40:43.4      19    -83    101     86    132 166.6  55.4  34218  290.55 0854.35
2009/04/23 15:40:43.5      29   -125     70    129    146 166.6  30.8  34202  290.30 0854.35
2009/04/23 15:40:43.6      -6   -152     20    153    155 182.6   7.5  34200  290.26 0854.35
2009/04/23 15:40:43.7     -66   -165     10    178    179 201.8   3.3  34196  290.19 0854.35
2009/04/23 15:40:43.8     -41   -123     48    130    138 198.5  21.0  34192  290.13 0854.35
2009/04/23 15:40:43.9     -63   -123     37    139    145 207.1  15.2  34192  290.13 0854.35
2009/04/23 15:40:44.0     -38   -125     37    131    137 196.9  15.8  34194  290.14 0854.35
2009/04/23 15:40:44.1       1   -116     49    117    126 179.5  23.6  34194  290.14 0854.37
2009/04/23 15:40:44.2     -36   -100     52    107    118 200.0  27.8  34192  290.11 0854.37
2009/04/23 15:40:44.3     -34   -103     77    109    133 198.3  38.6  34194  290.14 0854.37
2009/04/23 15:40:44.4     -26    -59     43     65     77 203.6  35.6  34198  290.21 0854.37
2009/04/23 15:40:44.5      75     10     24     76     80  82.1  17.9  34200  290.26 0854.37
2009/04/23 15:40:44.6      98     43     69    108    128  66.0  35.5  34196  290.18 0854.37
2009/04/23 15:40:44.7      84     16    107     86    137  79.0  56.4  34210  290.41 0854.37
2009/04/23 15:40:44.8      21     21     84     31     89  45.1  79.7  34212  290.47 0854.37
2009/04/23 15:40:44.9      -1     33     65     34     73 357.4  70.8  34218  290.57 0854.37
2009/04/23 15:40:45.0      10     35     71     37     80  16.9  70.4  34216  290.53 0854.37
2009/04/23 15:40:45.1      -1    -18     52     19     55 184.5  81.2  34224  290.67 0854.37
2009/04/23 15:40:45.2      74     15     41     76     86  78.6  30.8  34296  291.89 0854.37
2009/04/23 15:40:45.3      53     84     46    100    110  32.6  27.1  34326  292.39 0854.37
2009/04/23 15:40:45.4      48    100     59    112    126  25.9  29.8  34326  292.39 0854.37
2009/04/23 15:40:45.5      51    109     23    121    124  25.3  11.1  34314  292.20 0854.37
2009/04/23 15:40:45.6      20     20     61     29     67  45.0  72.9  34308  292.08 0854.37
2009/04/23 15:40:45.7      -4     14     42     15     44 341.5  81.2  34302  291.98 0854.37
2009/04/23 15:40:45.8     -11      1     18     12     21 277.9  62.6  34296  291.88 0854.37
2009/04/23 15:40:45.9     -60    -18    -17     63     66 253.2 -15.4  34272  291.47 0854.37
2009/04/23 15:40:46.0     -93    -16     53     95    108 259.9  31.4  34252  291.13 0854.37
2009/04/23 15:40:46.1    -109    -42     34    117    122 248.7  16.3  34242  290.96 0854.41
2009/04/23 15:40:46.2     -79    -16    -17     81     83 258.1 -12.4  34246  291.04 0854.41
2009/04/23 15:40:46.3     -96      3    -48     97    108 272.1 -31.7  34254  291.18 0854.41
2009/04/23 15:40:46.4    -157     17    -42    158    164 276.4 -15.0  34256  291.21 0854.41
2009/04/23 15:40:46.5    -164     44    -44    170    176 285.1 -14.7  34210  290.41 0854.41
2009/04/23 15:40:46.6    -162    -19    -44    164    170 263.2 -15.2  34220  290.58 0854.41
2009/04/23 15:40:46.7     -58     17     16     61     64 286.8  15.2  34212  290.45 0854.41
2009/04/23 15:40:46.8     -93     -7     39     94    101 265.2  23.1  34220  290.60 0854.41
2009/04/23 15:40:46.9    -146    -36     -5    151    152 255.8  -2.2  34204  290.31 0854.41
2009/04/23 15:40:47.0    -181    -32     -1    184    185 259.9  -0.5  34186  290.02 0854.41
2009/04/23 15:40:47.1    -205    -30    -28    208    210 261.6  -7.7  34176  289.85 0854.41
2009/04/23 15:40:47.2    -228    -53    -49    235    241 256.8 -11.9  34194  290.14 0854.41
2009/04/23 15:40:47.3    -221    -65    -54    231    238 253.6 -13.3  34248  291.07 0854.41
2009/04/23 15:40:47.4    -159    -62     -4    171    172 248.7  -1.6  34288  291.76 0854.41
2009/04/23 15:40:47.5    -111    -96     17    148    150 229.1   6.9  34264  291.33 0854.41
2009/04/23 15:40:47.6    -101    -78     -5    128    129 232.2  -2.2  34272  291.49 0854.41
2009/04/23 15:40:47.7     -72    -68    -12    100    101 226.4  -7.3  34284  291.67 0854.41
2009/04/23 15:40:47.8     -56    -87     31    104    109 212.6  16.8  34294  291.84 0854.41
2009/04/23 15:40:47.9     -27    -69     49     75     89 201.8  36.0  34280  291.60 0854.41
2009/04/23 15:40:48.0     -15    -49     96     52    109 196.9  68.9  34256  291.21 0854.41
2009/04/23 15:40:48.1     -16     12     54     21     57 307.8  79.2  34268  291.40 0854.40
2009/04/23 15:40:48.2      40     63     61     75     96  32.5  43.7  34296  291.89 0854.40
2009/04/23 15:40:48.3      24     81     58     85    102  16.5  37.6  34290  291.79 0854.40
2009/04/23 15:40:48.4     -14     90     41     92    100 350.7  25.7  34282  291.66 0854.40
2009/04/23 15:40:48.5      11     43     54     45     70  14.3  56.3  34268  291.40 0854.40
2009/04/23 15:40:48.6      88     79     79    119    142  48.2  36.5  34248  291.06 0854.40
2009/04/23 15:40:48.8      63     84     81    106    133  37.0  41.6  34262  291.30 0854.40
2009/04/23 15:40:48.8      42    104     48    113    122  22.3  24.1  34256  291.21 0854.40
2009/04/23 15:40:48.9      61    107     35    124    129  29.9  15.8  34266  291.38 0854.40
2009/04/23 15:40:49.0      56     64     88     86    123  41.4  50.1  34274  291.52 0854.40
2009/04/23 15:40:49.1      46     46    104     66    123  45.0  64.7  34252  291.15 0854.40
2009/04/23 15:40:49.2      28     85     83     90    122  18.7  47.9  34238  290.89 0854.40
2009/04/23 15:40:49.3     -27     92     90     96    131 343.5  48.0  34246  291.03 0854.40
2009/04/23 15:40:49.4     -27    101    123    105    161 344.9  55.0  34254  291.16 0854.40
2009/04/23 15:40:49.5     -24    143    116    146    186 350.3  43.0  34282  291.66 0854.40
2009/04/23 15:40:49.6     112     65    124    130    179  59.8  48.7  34240  290.92 0854.40
2009/04/23 15:40:49.7     101     16    107    103    148  80.8  51.2  34228  290.74 0854.40
2009/04/23 15:40:49.8     115     69    125    135    183  58.9  47.9  34338  292.59 0854.40
2009/04/23 15:40:50.0     108     88    112    140    179  50.9  43.0  34368  293.12 0854.40
2009/04/23 15:40:50.0      61     73    112     96    147  39.6  55.4  34378  293.29 0854.40
2009/04/23 15:40:50.1      83     50    110     98    147  58.9  53.7  34358  292.93 0854.44
2009/04/23 15:40:50.2      92     59     73    110    132  57.5  36.5  34350  292.80 0854.44
2009/04/23 15:40:50.3       3     74     96     75    121   2.7  58.4  34376  293.24 0854.44
2009/04/23 15:40:50.4      78     93    114    122    166  40.1  47.9  34388  293.44 0854.44
2009/04/23 15:40:50.5      77     99    105    126    164  37.9  44.1  34392  293.53 0854.44
2009/04/23 15:40:50.6     160    119     95    200    221  53.4  27.2  34402  293.68 0854.44
2009/04/23 15:40:50.7     184    143     98    234    253  52.2  23.8  34408  293.80 0854.44
2009/04/23 15:40:50.8     127    162    121    207    239  38.1  33.1  34392  293.51 0854.44
2009/04/23 15:40:50.9     172    120    107    210    235  55.1  29.1  34372  293.17 0854.44
2009/04/23 15:40:51.0     146     83    165    169    236  60.2  49.2  34372  293.17 0854.44
2009/04/23 15:40:51.1     144     58    130    156    203  67.8  44.1  34326  292.39 0854.44
2009/04/23 15:40:51.2     158    147     65    217    227  47.1  16.8  34372  293.19 0854.44
2009/04/23 15:40:51.3     141    132     66    194    206  46.8  18.9  34376  293.24 0854.44
2009/04/23 15:40:51.4     157     52     97    166    192  71.6  33.1  34366  293.07 0854.44
2009/04/23 15:40:51.5     192     98     66    216    226  62.9  17.1  34372  293.19 0854.44
2009/04/23 15:40:51.6     117    117     40    166    171  45.0  13.7  34370  293.14 0854.44
2009/04/23 15:40:51.7      71    101     78    124    146  35.2  35.5  34366  293.09 0854.44
2009/04/23 15:40:51.8      98    101    140    142    199  44.1  50.0  34362  293.02 0854.44
2009/04/23 15:40:51.9      75    112    122    135    181  33.8  47.1  34368  293.10 0854.44
2009/04/23 15:40:52.0      88    129     87    157    179  34.2  31.4  34366  293.07 0854.44
2009/04/23 15:40:52.1     168    106     44    199    204  57.6  12.6  34380  293.31 0854.44
2009/04/23 15:40:52.2     150    197      0    248    249  37.4   0.0  34366  293.08 0854.44
2009/04/23 15:40:52.3     130    178    -15    221    222  36.1  -4.1  34382  293.34 0854.44
2009/04/23 15:40:52.4     138    146     77    202    216  43.4  22.0  34382  293.34 0854.44
2009/04/23 15:40:52.5     151     58    140    162    214  68.9  45.4  34378  293.27 0854.44
2009/04/23 15:40:52.6     111    131     99    172    198  40.3  32.7  34368  293.12 0854.44
2009/04/23 15:40:52.7     121     39    125    128    178  71.8  49.4  34372  293.17 0854.44
2009/04/23 15:40:52.8     149     91    122    175    213  58.5  38.0  34368  293.12 0854.44
2009/04/23 15:40:52.9     118     39    144    125    190  71.4  54.8  34364  293.05 0854.44
2009/04/23 15:40:53.0     154     97    122    183    219  57.8  37.0  34362  293.00 0854.44
2009/04/23 15:40:53.1     150     70    104    166    195  64.7  35.2  34366  293.07 0854.44
2009/04/23 15:40:53.2      99     44    145    109    181  66.0  59.4  34368  293.10 0854.44
2009/04/23 15:40:53.3      66     22    150     70    165  71.6  73.5  34364  293.05 0854.44
2009/04/23 15:40:53.4      37     20    113     43    120  62.0  78.2  34372  293.17 0854.44
2009/04/23 15:40:53.6      72    -24     78     77    109 108.6  49.7  34390  293.48 0854.44
2009/04/23 15:40:53.7     106    -34    107    112    154 108.2  49.0  34380  293.31 0854.44
2009/04/23 15:40:53.8      21    -96    142     99    173 167.5  62.1  34352  292.85 0854.44
2009/04/23 15:40:53.9      50    -77    138     93    166 147.0  63.2  34298  291.93 0854.44
2009/04/23 15:40:54.0      -1    -71    110     72    131 181.0  64.1  34288  291.76 0854.44
2009/04/23 15:40:54.1      70   -214    160    226    276 161.7  38.8  34226  290.70 0854.44
2009/04/23 15:40:54.2     112   -348    117    366    385 162.1  17.8  34232  290.81 0854.45
2009/04/23 15:40:54.3      80   -329     82    339    349 166.3  13.7  34232  290.79 0854.45
2009/04/23 15:40:54.4     130   -355    140    379    404 159.9  21.1  34212  290.45 0854.45
2009/04/23 15:40:54.5      71   -409    164    416    447 170.1  22.8  34214  290.50 0854.45
2009/04/23 15:40:54.6       3   -427    251    428    496 179.5  33.0  34226  290.69 0854.45
2009/04/23 15:40:54.7     236   -437    150    497    520 151.6  16.8  34212  290.47 0854.45
2009/04/23 15:40:54.8     155   -392    189    422    462 158.3  25.9  34210  290.43 0854.45
2009/04/23 15:40:54.9     169   -278     40    326    329 148.6   7.1  34208  290.39 0854.45
2009/04/23 15:40:55.0     164   -268    114    315    334 148.6  20.7  34216  290.51 0854.45
2009/04/23 15:40:55.1     325   -277     20    428    429 130.4   2.8  34204  290.33 0854.45
2009/04/23 15:40:55.2     188   -320    138    372    396 149.6  21.4  34188  290.04 0854.45
2009/04/23 15:40:55.3     201   -441    175    485    516 155.5  19.9  34196  290.17 0854.45
2009/04/23 15:40:55.4      64   -398    243    404    471 170.8  33.8  34226  290.68 0854.45
2009/04/23 15:40:55.5       0   -346    153    347    379 180.0  25.2  34192  290.11 0854.45
2009/04/23 15:40:55.6      64   -286     76    294    304 167.3  14.5  34198  290.20 0854.45
2009/04/23 15:40:55.7     143   -292     33    326    328 153.9   5.8  34208  290.37 0854.45
2009/04/23 15:40:55.8     163   -227     -5    280    281 144.2  -1.2  34204  290.32 0854.45
2009/04/23 15:40:55.9     140   -149    -70    205    216 136.8 -23.6  34216  290.53 0854.45
2009/04/23 15:40:56.0      89   -152    -29    177    180 149.7  -9.3  34214  290.48 0854.45
2009/04/23 15:40:56.1      52   -144    -45    154    161 159.9 -16.4  34210  290.43 0854.45
2009/04/23 15:40:56.2      62   -111    -16    128    130 150.6  -7.3  34208  290.40 0854.40
2009/04/23 15:40:56.3      20    -82    -10     85     86 165.7  -7.2  34208  290.38 0854.40
2009/04/23 15:40:56.4     -15    -76    -22     78     81 191.5 -20.7  34210  290.43 0854.40
2009/04/23 15:40:56.5      15    -46      2     49     50 161.7   2.9  34214  290.50 0854.40
2009/04/23 15:40:56.6      24    -37     -5     45     46 147.5  -7.3  34214  290.50 0854.40
2009/04/23 15:40:56.7      46    -38     19     61     64 129.6  17.3  34210  290.41 0854.40
2009/04/23 15:40:56.8      57     -7     18     58     61  97.9  17.3  34210  290.41 0854.40
2009/04/23 15:40:56.9      55    -14    -20     57     60 105.1 -23.3  34204  290.31 0854.40
2009/04/23 15:40:57.0      76    -64    -29    100    105 130.4 -16.0  34210  290.43 0854.40
2009/04/23 15:40:57.1      35    -74    -33     83     89 154.6 -26.9  34218  290.55 0854.40
2009/04/23 15:40:57.2      84   -144     21    167    169 149.7   7.5  34212  290.45 0854.40
2009/04/23 15:40:57.3     238   -343     90    418    428 145.3  12.3  34172  289.77 0854.40
2009/04/23 15:40:57.4     199   -360     99    412    424 151.0  13.6  34172  289.78 0854.40
2009/04/23 15:40:57.5     218   -420    138    474    494 152.5  16.3  34180  289.91 0854.40
2009/04/23 15:40:57.6     103   -398    173    412    446 165.5  24.1  34176  289.85 0854.40
2009/04/23 15:40:57.7      35   -285    143    288    321 172.9  28.5  34176  289.83 0854.40
2009/04/23 15:40:57.8     -79   -386    -60    395    400 191.6  -8.7  34178  289.87 0854.40
2009/04/23 15:40:57.9     -87   -422     84    432    441 191.7  11.1  34194  290.16 0854.40
2009/04/23 15:40:58.0      13   -405     -1    406    407 178.1  -0.2  34194  290.14 0854.40
2009/04/23 15:40:58.1     -79   -420   -110    428    443 190.7 -14.5  34194  290.14 0854.40
2009/04/23 15:40:58.2     -84   -349    -99    359    373 193.6 -15.5  34192  290.10 0854.37
2009/04/23 15:40:58.3     -81   -251    -77    264    275 197.9 -21.0  34188  290.03 0854.37
2009/04/23 15:40:58.4     100   -319    -43    335    338 162.5  -7.3  34182  289.94 0854.37
2009/04/23 15:40:58.5     -48   -312   -155    316    351 188.9 -32.5  34178  289.86 0854.37
2009/04/23 15:40:58.6    -127   -292    -61    319    325 203.6 -10.9  34182  289.95 0854.37
2009/04/23 15:40:58.7    -111   -254    -65    278    286 203.6 -13.3  34182  289.93 0854.37
2009/04/23 15:40:58.8      35   -285    -51    288    293 172.9 -10.1  34188  290.03 0854.37
2009/04/23 15:40:58.9     -31   -309    -19    311    312 185.8  -3.5  34184  289.97 0854.37
2009/04/23 15:40:59.0      73   -316     66    325    332 166.9  11.6  34172  289.79 0854.37
2009/04/23 15:40:59.1     118   -351     56    371    376 161.3   8.7  34184  289.98 0854.37
2009/04/23 15:40:59.2     149   -287    -12    324    325 152.6  -2.2  34182  289.93 0854.37
2009/04/23 15:40:59.3      85   -310    -15    322    323 164.6  -2.8  34188  290.05 0854.37
2009/04/23 15:40:59.4      44   -364   -116    367    385 173.0 -17.6  34188  290.04 0854.37
2009/04/23 15:40:59.5      42   -417   -107    420    434 174.2 -14.4  34198  290.22 0854.37
2009/04/23 15:40:59.6     -15   -483    -46    484    487 181.8  -5.5  34198  290.20 0854.37
2009/04/23 15:40:59.7    -101   -512     21    522    523 191.2   2.3  34196  290.18 0854.37
2009/04/23 15:40:59.8     -77   -543    -49    549    552 188.1  -5.2  34176  289.84 0854.37
2009/04/23 15:40:59.9     -76   -476    -27    483    484 189.1  -3.3  34186  290.00 0854.37
2009/04/23 15:41:00.0     -37   -480    -47    482    485 184.5  -5.6  34188  290.05 0854.37
2009/04/23 15:41:00.1    -150   -464    -10    488    489 197.9  -1.3  34200  290.25 0854.37
2009/04/23 15:41:00.2    -122   -512    -35    527    529 193.4  -3.8  34190  290.09 0854.37
2009/04/23 15:41:00.3     -11   -454    -24    455    456 181.4  -3.1  34178  289.88 0854.37
2009/04/23 15:41:00.4      31   -459    -59    461    465 176.1  -7.4  34178  289.87 0854.37
2009/04/23 15:41:00.5    -105   -494     64    506    511 192.0   7.2  34188  290.03 0854.37
2009/04/23 15:41:00.6     -58   -502     41    506    508 186.7   4.7  34178  289.89 0854.37
2009/04/23 15:41:00.7     -43   -426    -64    429    434 185.8  -8.6  34198  290.21 0854.37
2009/04/23 15:41:00.8     -27   -278    -77    280    291 185.6 -15.5  34194  290.15 0854.37
2009/04/23 15:41:00.9       2   -268      8    269    270 179.5   1.7  34194  290.14 0854.37
2009/04/23 15:41:01.0       0   -290     62    291    298 180.0  12.1  34196  290.19 0854.37
2009/04/23 15:41:01.1      80   -392      2    401    402 168.4   0.4  34192  290.11 0854.37
2009/04/23 15:41:01.2      24   -222     44    224    229 173.8  11.1  34180  289.92 0854.37
2009/04/23 15:41:01.3     -21   -100    -31    103    107 192.0 -22.3  34192  290.11 0854.37
2009/04/23 15:41:01.4      25    -30    -98     40    105 140.4 -81.4  34204  290.33 0854.37
2009/04/23 15:41:01.5     -38   -130   -152    136    203 196.5 -58.1  34208  290.40 0854.37
2009/04/23 15:41:01.6     -10    -76    -59     77     97 188.0 -46.1  34200  290.26 0854.37
2009/04/23 15:41:01.7     -79    -64    -88    102    134 230.9 -49.8  34204  290.31 0854.37
2009/04/23 15:41:01.8     -89    -40    -54     98    111 245.6 -35.8  34192  290.11 0854.37
2009/04/23 15:41:01.9     -48   -134     58    143    154 200.0  23.0  34190  290.08 0854.37
2009/04/23 15:41:02.0    -186   -153     56    242    249 230.5  13.2  34194  290.14 0854.37
2009/04/23 15:41:02.1    -416     30    -60    418    423 274.1  -8.2  34186  290.00 0854.37
2009/04/23 15:41:02.2    -311     23    143    312    343 274.3  26.5  34192  290.11 0854.35
2009/04/23 15:41:02.3    -120     99    108    156    189 309.6  38.0  34196  290.19 0854.35
2009/04/23 15:41:02.4    -105     18    110    107    153 279.7  50.2  34196  290.18 0854.35
2009/04/23 15:41:02.5    -103    -37    -30    110    114 250.0 -20.2  34190  290.09 0854.35
2009/04/23 15:41:02.6       6   -162     61    163    174 177.8  21.3  34182  289.94 0854.35
2009/04/23 15:41:02.7      42   -138    129    145    194 163.1  46.4  34176  289.84 0854.35
2009/04/23 15:41:02.8      10    -80    109     81    135 172.9  60.0  34182  289.96 0854.35
2009/04/23 15:41:02.9     -18    -33    108     38    114 209.0  81.2  34198  290.21 0854.35
2009/04/23 15:41:03.0      19     63     93     66    114  16.9  61.5  34194  290.16 0854.35
2009/04/23 15:41:03.1      -1    -72     89     73    115 180.9  56.4  34198  290.23 0854.35
2009/04/23 15:41:03.2      33   -100     82    106    134 161.7  41.7  34190  290.09 0854.35
2009/04/23 15:41:03.3      62    -45     48     77     90 126.0  35.5  34190  290.08 0854.35
2009/04/23 15:41:03.4     101    -40     47    109    118 111.8  25.1  34190  290.08 0854.35
2009/04/23 15:41:03.5     121    -23     66    124    140 101.0  30.8  34232  290.79 0854.35
2009/04/23 15:41:03.6     129     63    105    144    178  63.8  39.7  34302  291.98 0854.35
2009/04/23 15:41:03.7     196     31     85    199    216  80.8  24.6  34280  291.60 0854.35
2009/04/23 15:41:03.8     212     85    173    229    287  68.2  40.9  34294  291.85 0854.35
2009/04/23 15:41:03.9      86     26    159     90    182  73.2  68.1  34300  291.95 0854.35
2009/04/23 15:41:04.0     188    -68    141    200    244 110.0  38.6  34270  291.43 0854.35
2009/04/23 15:41:04.1     203    -65    152    214    262 107.9  38.8  34282  291.63 0854.35
2009/04/23 15:41:04.2     213    -73     75    226    239 109.1  18.4  34262  291.29 0854.35
2009/04/23 15:41:04.3     -19     30    123     36    128 327.5  83.3  34240  290.92 0854.35
2009/04/23 15:41:04.4      33     30    156     45    162  47.8  83.5  34258  291.23 0854.35
2009/04/23 15:41:04.5      85    -45     87     97    130 118.0  46.4  34248  291.08 0854.35
2009/04/23 15:41:04.6      89   -260    -66    275    283 161.1 -13.7  34184  289.98 0854.35
2009/04/23 15:41:04.7     122   -281    -84    307    318 156.6 -20.0  34182  289.93 0854.35
2009/04/23 15:41:04.8      84   -210    -83    227    241 158.2 -25.4  34184  289.98 0854.35
2009/04/23 15:41:04.9      51   -123      2    134    135 157.3   1.2  34186  290.01 0854.35
2009/04/23 15:41:05.0      81   -158     71    178    191 152.8  23.0  34192  290.11 0854.35
2009/04/23 15:41:05.1      67   -143     70    159    173 154.7  25.1  34198  290.23 0854.35
2009/04/23 15:41:05.2      31   -134     47    138    146 166.7  18.9  34212  290.47 0854.35
2009/04/23 15:41:05.3      32    -96     58    102    117 161.3  31.9  34230  290.75 0854.35
2009/04/23 15:41:05.4      22   -110    153    113    190 168.4  60.0  34246  291.03 0854.35
2009/04/23 15:41:05.5       2    -34     95     35    101 175.5  79.2  34254  291.18 0854.35
2009/04/23 15:41:05.6      12   -169     94    170    194 175.8  31.4  34220  290.60 0854.35
2009/04/23 15:41:05.7      57   -192     56    201    209 163.3  15.6  34218  290.55 0854.35
2009/04/23 15:41:05.8      55   -156     58    166    177 160.4  19.4  34220  290.60 0854.35
2009/04/23 15:41:05.9      57   -143     -7    155    156 158.2  -2.6  34196  290.19 0854.35
2009/04/23 15:41:06.0     104   -106    -21    149    151 135.5  -8.2  34182  289.96 0854.35
2009/04/23 15:41:06.1     100   -100     27    142    145 135.0  11.0  34180  289.91 0854.35
2009/04/23 15:41:06.2      62    -34     -5     71     72 118.9  -4.1  34174  289.82 0854.40
2009/04/23 15:41:06.3      87      0    -28     88     92  90.0 -23.3  34176  289.84 0854.40
2009/04/23 15:41:06.4      87     30    -11     93     94  70.9  -7.3  34166  289.67 0854.40
2009/04/23 15:41:06.5      83     18     29     86     91  77.6  18.9  34166  289.69 0854.40
2009/04/23 15:41:06.6      66     -5     57     67     87  94.4  44.8  34174  289.80 0854.40
2009/04/23 15:41:06.7      79    -36     81     88    119 114.8  47.9  34182  289.96 0854.40
2009/04/23 15:41:06.8      77    -23    106     81    133 106.8  58.5  34206  290.36 0854.40
2009/04/23 15:41:06.9      52   -143    126    153    198 159.9  43.7  34202  290.28 0854.40
2009/04/23 15:41:07.0      50   -161    178    169    245 162.6  51.6  34210  290.41 0854.40
2009/04/23 15:41:07.1      -7   -162    169    163    234 182.7  51.2  34198  290.21 0854.40
2009/04/23 15:41:07.2      25   -220    220    222    312 173.5  50.0  34198  290.20 0854.40
2009/04/23 15:41:07.3      25   -180    196    182    267 172.0  52.2  34200  290.24 0854.40
2009/04/23 15:41:07.4      11   -185    180    186    258 176.6  49.0  34198  290.20 0854.40
2009/04/23 15:41:07.5     -21    -78    187     81    203 195.1  75.0  34198  290.21 0854.40
2009/04/23 15:41:07.6     -63   -237    276    246    369 195.1  53.9  34192  290.13 0854.40
2009/04/23 15:41:07.7    -156   -199    204    253    325 218.1  43.1  34190  290.07 0854.40
2009/04/23 15:41:07.8    -140   -236    221    275    352 210.7  43.0  34194  290.15 0854.40
2009/04/23 15:41:07.9    -133   -241    211    276    347 208.9  41.3  34190  290.07 0854.40
2009/04/23 15:41:08.0     -16   -203    200    204    285 184.7  49.9  34190  290.09 0854.40
2009/04/23 15:41:08.1      28   -201    225    204    303 172.0  53.2  34190  290.09 0854.40
2009/04/23 15:41:08.2       0   -163    179    164    242 179.8  52.7  34194  290.16 0854.40
2009/04/23 15:41:08.3      30    -87    167     93    191 160.8  68.8  34200  290.26 0854.40
2009/04/23 15:41:08.4      67   -106    128    126    179 147.4  50.1  34198  290.23 0854.40
2009/04/23 15:41:08.5      11    -57    130     59    142 168.5  74.5  34194  290.16 0854.40
2009/04/23 15:41:08.6     -12   -225    175    226    285 183.1  41.7  34224  290.65 0854.40
2009/04/23 15:41:08.7     -73   -202    184    215    282 200.0  44.8  34210  290.42 0854.40
2009/04/23 15:41:08.8     -66   -185    150    197    247 199.8  41.2  34206  290.35 0854.40
2009/04/23 15:41:08.9     -31   -151    164    155    225 191.6  52.1  34212  290.47 0854.40
2009/04/23 15:41:09.0     -34   -169    194    173    259 191.6  53.7  34204  290.32 0854.40
2009/04/23 15:41:09.1     -46   -127    133    136    190 200.0  49.8  34200  290.26 0854.40
2009/04/23 15:41:09.2      13    172     16    173    174   4.4   5.4  34208  290.40 0854.39
2009/04/23 15:41:09.3       0     66    -18     67     70   0.0 -15.4  34214  290.48 0854.39
2009/04/23 15:41:09.4     -48     16     55     51     75 289.1  52.2  34218  290.55 0854.39
2009/04/23 15:41:09.5     -52     13     61     54     81 284.2  53.7  34216  290.52 0854.39
2009/04/23 15:41:09.6     -48    102     39    113    120 334.7  19.4  34210  290.43 0854.39
2009/04/23 15:41:09.7     -23    115    107    118    159 348.5  47.1  34232  290.81 0854.39
2009/04/23 15:41:09.8     101    154    110    185    215  33.4  33.5  34242  290.98 0854.39
2009/04/23 15:41:09.9     137    140     55    197    205  44.3  15.6  34234  290.84 0854.39
2009/04/23 15:41:10.0      91     91    -97    129    161  45.1 -45.3  34230  290.77 0854.39
2009/04/23 15:41:10.1     125    -49    -48    135    144 111.7 -19.6  34248  291.06 0854.39
2009/04/23 15:41:10.2      41    -64     71     77    104 147.4  47.9  34260  291.26 0854.39
2009/04/23 15:41:10.3      30      9    107     32    111  71.8  82.8  34292  291.81 0854.39
2009/04/23 15:41:10.4      49    -23     99     55    113 115.2  68.8  34292  291.81 0854.39
2009/04/23 15:41:10.5     122      9    104    123    161  85.7  44.5  34278  291.57 0854.39
2009/04/23 15:41:10.6      63     55     44     84     94  48.7  29.8  34242  290.96 0854.39
2009/04/23 15:41:10.7      -8    -14     71     17     73 209.0  86.9  34262  291.32 0854.39
2009/04/23 15:41:10.8     -30     27     65     41     76 312.2  64.7  34254  291.16 0854.39
2009/04/23 15:41:10.9     -22    -14     74     27     78 237.5  81.2  34244  291.01 0854.39
2009/04/23 15:41:11.0     -24    -27     43     37     56 221.4  54.3  34228  290.72 0854.39
2009/04/23 15:41:11.1      38    -17     33     42     53 114.4  43.7  34240  290.92 0854.39
2009/04/23 15:41:11.2      67    -22     19     71     74 108.6  15.2  34238  290.91 0854.39
2009/04/23 15:41:11.3      48    -75     40     90     98 147.4  25.7  34214  290.48 0854.39
2009/04/23 15:41:11.4      40    -71     66     82    105 150.1  43.3  34206  290.36 0854.39
2009/04/23 15:41:11.5     113    -22     36    116    122 101.4  17.3  34290  291.79 0854.39
2009/04/23 15:41:11.6     191      7    135    192    234  87.9  38.6  34310  292.13 0854.39
2009/04/23 15:41:11.7     217     20    178    219    282  84.5  43.3  34328  292.41 0854.39
2009/04/23 15:41:11.8     222     23     -1    224    225  83.9  -0.3  34338  292.59 0854.39
2009/04/23 15:41:11.9     258     96     86    276    290  69.6  17.3  34344  292.70 0854.39
2009/04/23 15:41:12.0     209     71     27    221    223  71.2   7.1  34346  292.73 0854.39
2009/04/23 15:41:12.1     205    151     38    255    258  53.6   8.5  34304  292.02 0854.39
2009/04/23 15:41:12.2     259    144     -6    297    298  60.9  -1.2  34286  291.70 0854.39
2009/04/23 15:41:12.3     292    130    -12    320    321  66.0  -2.2  34266  291.38 0854.39
2009/04/23 15:41:12.4     258    137     25    293    295  62.0   4.9  34280  291.61 0854.39
2009/04/23 15:41:12.5      64     90    -32    111    115  35.6 -20.7  34296  291.88 0854.39
2009/04/23 15:41:12.6      90      6    164     91    187  85.6  68.8  34306  292.05 0854.39
2009/04/23 15:41:12.7     227    -73    202    239    312 107.9  44.5  34308  292.07 0854.39
2009/04/23 15:41:12.8     187     -4    193    188    269  91.3  50.7  34330  292.47 0854.39
2009/04/23 15:41:12.9     272    155     97    314    329  60.2  17.3  34328  292.43 0854.39
2009/04/23 15:41:13.0     226    133     67    263    272  59.4  14.3  34348  292.77 0854.39
2009/04/23 15:41:13.1     158     73    152    175    231  65.2  45.6  34344  292.69 0854.38
2009/04/23 15:41:13.2      73     35    102     82    130  64.2  56.4  34340  292.63 0854.38
2009/04/23 15:41:13.3      74     52     98     91    133  54.9  52.2  34342  292.68 0854.38
2009/04/23 15:41:13.4     154     88    120    178    214  60.2  37.4  34306  292.06 0854.38
2009/04/23 15:41:13.5     120   -127    215    175    277 136.6  56.6  34258  291.22 0854.38
2009/04/23 15:41:13.6     276     99     87    294    307  70.3  16.5  34290  291.78 0854.38
2009/04/23 15:41:13.7     185    153    156    241    287  50.4  35.7  34300  291.96 0854.38
2009/04/23 15:41:13.8     247    102     61    268    275  67.4  12.9  34268  291.39 0854.38
2009/04/23 15:41:13.9     250    285    134    380    402  41.3  20.1  34304  292.03 0854.38
2009/04/23 15:41:14.0     263    203    121    333    354  52.4  20.9  34310  292.12 0854.38
2009/04/23 15:41:14.1     206    114    163    236    286  60.9  37.8  34296  291.89 0854.38
2009/04/23 15:41:14.2     321    137    257    350    434  66.8  39.8  34266  291.36 0854.38
2009/04/23 15:41:14.3     357     99    254    371    449  74.5  37.6  34286  291.70 0854.38
2009/04/23 15:41:14.4     289     40    256    292    388  82.1  45.8  34286  291.71 0854.38
2009/04/23 15:41:14.5     237     54    286    244    375  77.0  55.3  34294  291.86 0854.38
2009/04/23 15:41:14.6     208     95    223    229    319  65.4  49.4  34294  291.84 0854.38
2009/04/23 15:41:14.7     220    134    205    258    329  58.7  42.6  34246  291.04 0854.38
2009/04/23 15:41:14.8     212    169     93    272    288  51.4  18.9  34242  290.95 0854.38
2009/04/23 15:41:14.9     235    147    132    278    307  58.0  27.3  34260  291.27 0854.38
2009/04/23 15:41:15.0     156    228    105    277    296  34.5  22.0  34270  291.43 0854.38
2009/04/23 15:41:15.1     137    223    -10    263    264  31.6  -2.2  34270  291.43 0854.41
2009/04/23 15:41:15.2     114    146     -1    186    187  38.1  -0.5  34272  291.49 0854.41
2009/04/23 15:41:15.3     151    139    -46    206    212  47.3 -12.6  34252  291.13 0854.41
2009/04/23 15:41:15.4      58    145     -1    157    158  21.8  -0.5  34262  291.32 0854.41
2009/04/23 15:41:15.5      53    159     20    168    170  18.5   6.9  34266  291.37 0854.41
2009/04/23 15:41:15.6      37    174    -22    178    180  12.0  -7.2  34268  291.40 0854.41
2009/04/23 15:41:15.7      51    156      2    165    166  18.0   1.0  34268  291.40 0854.41
2009/04/23 15:41:15.8     101    134     75    168    183  37.0  25.7  34306  292.06 0854.41
2009/04/23 15:41:15.9      89     59     30    107    112  56.3  15.8  34294  291.84 0854.41
2009/04/23 15:41:16.0     127    130     60    183    193  44.3  18.4  34314  292.20 0854.41
2009/04/23 15:41:16.1     253    194    156    319    355  52.5  27.9  34322  292.31 0854.41
2009/04/23 15:41:16.2     246    268    187    365    410  42.5  29.3  34362  292.99 0854.41
2009/04/23 15:41:16.3     253    260    156    364    396  44.2  24.6  34340  292.63 0854.41
2009/04/23 15:41:16.4      20    195    202    197    282   6.0  50.7  34364  293.03 0854.41
2009/04/23 15:41:16.5     164    138    137    215    254  50.0  35.6  34316  292.21 0854.41
2009/04/23 15:41:16.6     111    178    150    210    258  31.9  39.3  34354  292.86 0854.41
2009/04/23 15:41:16.7      61     84    141    104    175  36.1  60.0  34354  292.88 0854.41
2009/04/23 15:41:16.8     121    129     53    178    186  43.2  16.6  34346  292.73 0854.41
2009/04/23 15:41:16.9      14    100     69    102    123   8.0  37.4  34378  293.29 0854.41
2009/04/23 15:41:17.0      48     65    -10     81     82  36.5  -7.7  34366  293.07 0854.41
2009/04/23 15:41:17.1      42     26    -28     50     57  57.6 -36.8  34370  293.15 0854.40
2009/04/23 15:41:17.2      77     -4    -10     78     79  93.5  -7.3  34384  293.39 0854.40
2009/04/23 15:41:17.3     119     37    -42    125    131  72.3 -23.6  34370  293.14 0854.40
2009/04/23 15:41:17.4     102     79     -7    130    131  52.2  -3.1  34382  293.34 0854.40
2009/04/23 15:41:17.5      31     91    -73     97    121  19.2 -45.6  34352  292.83 0854.40
2009/04/23 15:41:17.6       3     99   -225    100    246   1.8 -78.9  34220  290.58 0854.40
2009/04/23 15:41:17.7     135     63   -181    150    235  64.8 -60.7  34262  291.30 0854.40
2009/04/23 15:41:17.8     322    184    -12    371    372  60.3  -1.9  34324  292.36 0854.40
2009/04/23 15:41:17.9     270    309   -107    411    425  41.2 -14.6  34244  290.99 0854.40
2009/04/23 15:41:18.0     263    240   -109    357    374  47.6 -17.0  34258  291.25 0854.40
2009/04/23 15:41:18.1     221    285   -126    361    382  37.8 -24.0  34262  291.30 0854.40
2009/04/23 15:41:18.2      84    162   -179    183    255  27.6 -53.6  34218  290.54 0854.40
2009/04/23 15:41:18.3     185    202   -139    275    308  42.5 -33.5  34256  291.21 0854.40
2009/04/23 15:41:18.4     -33     70   -147     78    166 334.7 -74.2  34278  291.59 0854.40
2009/04/23 15:41:18.5       5    173   -186    174    254   1.8 -56.6  34238  290.91 0854.40
2009/04/23 15:41:18.6      51     83   -141     98    171  31.6 -66.5  34276  291.55 0854.40
2009/04/23 15:41:18.7      27   -106   -145    110    182 165.3 -63.6  34288  291.74 0854.40
2009/04/23 15:41:18.8      83     12    -73     84    111  81.2 -49.8  34282  291.64 0854.40
2009/04/23 15:41:18.9      99     73     96    124    156  53.6  42.0  34282  291.66 0854.40
2009/04/23 15:41:19.0      21   -123    122    125    174 170.2  49.8  34286  291.71 0854.40
2009/04/23 15:41:19.1    -174     17    155    175    233 275.7  45.9  34290  291.79 0854.39
2009/04/23 15:41:19.2     -40   -247    115    251    276 189.3  26.2  34286  291.72 0854.39
2009/04/23 15:41:19.3      56   -344    -97    349    362 170.7 -20.2  34272  291.49 0854.39
2009/04/23 15:41:19.4     240   -228   -159    332    368 133.6 -31.7  34262  291.32 0854.39
2009/04/23 15:41:19.5     229   -215   -118    315    336 133.1 -25.9  34264  291.34 0854.39
2009/04/23 15:41:19.6     223   -250    -18    336    337 138.3  -3.1  34270  291.45 0854.39
2009/04/23 15:41:19.8     180   -271     -2    326    327 146.4  -0.4  34266  291.38 0854.39
2009/04/23 15:41:19.9      95   -139    -52    169    176 145.5 -22.1  34260  291.26 0854.39
2009/04/23 15:41:20.0     -49   -243    -69    249    259 191.6 -15.5  34278  291.58 0854.39
2009/04/23 15:41:20.1     -54   -287    -94    293    308 190.7 -17.9  34284  291.67 0854.39
2009/04/23 15:41:20.2     -59   -208   -115    217    245 196.0 -34.6  34286  291.70 0854.39
2009/04/23 15:41:20.3     -27   -136    -82    139    161 191.5 -37.5  34280  291.60 0854.39
2009/04/23 15:41:20.4    -124   -234    -79    265    277 208.0 -16.6  34276  291.53 0854.39
2009/04/23 15:41:20.5    -165   -296    -58    340    346 209.2  -9.8  34268  291.42 0854.39
2009/04/23 15:41:20.6    -163   -336   -134    374    397 206.0 -24.8  34308  292.08 0854.39
2009/04/23 15:41:20.7    -183   -309   -164    360    395 210.7 -30.6  34294  291.86 0854.39
2009/04/23 15:41:20.8    -118   -232   -103    261    280 207.1 -27.4  34264  291.34 0854.39
2009/04/23 15:41:20.9      48    -57   -118     75    139 139.5 -69.1  34274  291.50 0854.39
2009/04/23 15:41:21.0      78    102    -45    129    137  37.4 -19.6  34266  291.37 0854.39
2009/04/23 15:41:21.1     -52    188    -65    196    206 344.6 -23.8  34270  291.43 0854.39
2009/04/23 15:41:21.2    -140    214     55    256    262 326.8  12.2  34268  291.39 0854.38
2009/04/23 15:41:21.3    -117    203    103    235    256 330.1  25.1  34270  291.44 0854.38
2009/04/23 15:41:21.4     -71    218    196    230    302 342.0  44.9  34278  291.56 0854.38
2009/04/23 15:41:21.5     -24    110    148    113    186 347.5  58.7  34278  291.59 0854.38
2009/04/23 15:41:21.6      16    -25    136     30    139 147.5  88.5  34292  291.83 0854.38
2009/04/23 15:41:21.7     -55   -162    192    172    257 198.7  53.3  34262  291.31 0854.38
2009/04/23 15:41:21.8      64   -237     95    246    263 164.9  22.0  34242  290.97 0854.38
2009/04/23 15:41:21.9       0   -197     75    198    211 180.0  21.5  34244  290.99 0854.38
2009/04/23 15:41:22.0     -46   -271     86    276    290 189.8  17.3  34234  290.82 0854.38
2009/04/23 15:41:22.1     -66   -290    104    298    315 192.9  20.1  34244  291.00 0854.38
2009/04/23 15:41:22.2     -26   -333    143    335    364 184.6  24.8  34250  291.11 0854.38
2009/04/23 15:41:22.3      19   -321    155    322    357 176.6  27.4  34256  291.20 0854.38
2009/04/23 15:41:22.4       4   -309    119    310    332 179.1  22.0  34264  291.33 0854.38
2009/04/23 15:41:22.5       0   -369     44    370    373 179.9   6.9  34264  291.34 0854.38
2009/04/23 15:41:22.6      -7   -356     79    357    366 181.2  12.6  34244  291.00 0854.38
2009/04/23 15:41:22.7     -18   -359     83    360    370 182.9  13.1  34252  291.13 0854.38
2009/04/23 15:41:22.8     -74   -343     54    352    357 192.3   8.8  34248  291.08 0854.38
2009/04/23 15:41:22.9     -69   -255     -5    265    266 195.2  -1.3  34214  290.48 0854.38
2009/04/23 15:41:23.0     114   -273    150    297    332 157.3  28.7  34252  291.12 0854.38
2009/04/23 15:41:23.1      34   -311    105    313    331 173.7  18.6  34252  291.12 0854.38
2009/04/23 15:41:23.2      25   -350    202    351    404 175.8  32.6  34260  291.27 0854.38
2009/04/23 15:41:23.3      34   -308    233    310    387 173.7  40.7  34254  291.17 0854.38
2009/04/23 15:41:23.4      28   -335    218    337    401 175.2  35.9  34260  291.28 0854.38
2009/04/23 15:41:23.5     -77   -351    164    360    395 192.4  26.2  34256  291.20 0854.38
2009/04/23 15:41:23.6     -60   -264     58    271    278 192.9  12.2  34254  291.17 0854.38
2009/04/23 15:41:23.7      56   -343    177    348    390 170.7  29.2  34254  291.17 0854.38
2009/04/23 15:41:23.8     -40   -366    145    369    396 186.3  22.7  34264  291.34 0854.38
2009/04/23 15:41:23.9      -6   -360    171    361    399 181.0  27.2  34268  291.39 0854.38
2009/04/23 15:41:24.0      24   -329    172    330    372 175.7  29.6  34258  291.22 0854.38
2009/04/23 15:41:24.1      67   -334    123    341    362 168.6  20.8  34250  291.10 0854.38
2009/04/23 15:41:24.2      64   -376    100    382    395 170.3  14.7  34248  291.08 0854.38
2009/04/23 15:41:24.3      -3   -348    116    349    369 180.6  18.5  34260  291.28 0854.38
2009/04/23 15:41:24.4     -16   -328    114    329    349 182.8  19.2  34258  291.23 0854.38
2009/04/23 15:41:24.5     -27   -273    122    275    300 185.8  25.2  34266  291.36 0854.38
2009/04/23 15:41:24.6     -15   -226    201    227    303 184.0  45.9  34236  290.87 0854.38
2009/04/23 15:41:24.7      -8   -271    179    272    325 181.8  36.4  34246  291.02 0854.38
2009/04/23 15:41:24.8     -51   -251    222    257    339 191.5  45.2  34236  290.85 0854.38
2009/04/23 15:41:24.9     -85   -186    199    205    285 204.5  49.2  34242  290.95 0854.38
2009/04/23 15:41:25.0     -95   -209    161    230    280 204.5  38.4  34250  291.10 0854.38
2009/04/23 15:41:25.1     -78   -244    139    257    292 197.8  31.3  34252  291.12 0854.38
2009/04/23 15:41:25.2     -63   -190    162    201    258 198.3  43.0  34254  291.16 0854.39
2009/04/23 15:41:25.3     -48   -145    172    153    230 198.5  54.0  34246  291.04 0854.39
2009/04/23 15:41:25.4     -64    -98    155    118    194 213.0  59.0  34246  291.03 0854.39
2009/04/23 15:41:25.5    -106    -58    171    121    209 241.2  61.3  34250  291.11 0854.39
2009/04/23 15:41:25.6     -46      1    125     47    133 271.7  79.1  34252  291.13 0854.39
2009/04/23 15:41:25.7      -1    -30    122     31    125 182.6  85.9  34266  291.37 0854.39
2009/04/23 15:41:25.8     -37    -43    156     57    166 220.5  79.7  34270  291.45 0854.39
2009/04/23 15:41:25.9     -97      5    113     98    149 273.0  54.8  34268  291.42 0854.39
2009/04/23 15:41:26.0     -47    -73    195     88    213 213.0  74.2  34260  291.26 0854.39
2009/04/23 15:41:26.1    -110   -117    178    161    240 223.2  53.3  34258  291.25 0854.39
2009/04/23 15:41:26.2     -41   -139    160    145    215 196.5  53.3  34256  291.21 0854.39
2009/04/23 15:41:26.3     -11   -151    181    152    236 184.4  55.6  34258  291.25 0854.39
2009/04/23 15:41:26.4     -24   -117    108    120    161 191.6  46.9  34234  290.82 0854.39
2009/04/23 15:41:26.5      13     21     92     25     95  32.5  84.9  34242  290.96 0854.39
2009/04/23 15:41:26.6     -29    -12     91     32     96 246.5  81.2  34238  290.91 0854.39
2009/04/23 15:41:26.7      32     15     98     36    104  64.7  79.7  34260  291.26 0854.39
2009/04/23 15:41:26.8     -30    -17      6     35     36 239.3  11.0  34250  291.09 0854.39
2009/04/23 15:41:26.9    -122    -28      3    126    127 256.7   1.8  34248  291.06 0854.39
2009/04/23 15:41:27.0    -182    115     27    216    218 302.4   7.2  34240  290.94 0854.39
2009/04/23 15:41:27.1    -125     91      0    155    156 306.0   0.2  34228  290.72 0854.39
2009/04/23 15:41:27.2    -126     21    -21    128    130 279.6  -9.4  34242  290.98 0854.43
2009/04/23 15:41:27.3     -89    -74     52    116    127 230.4  25.7  34246  291.03 0854.43
2009/04/23 15:41:27.4    -120   -187    144    223    265 212.6  35.6  34244  290.99 0854.43
2009/04/23 15:41:27.5    -207   -134     91    247    263 237.1  21.0  34262  291.29 0854.43
2009/04/23 15:41:27.6    -275     -6    -15    276    277 268.7  -3.1  34202  290.29 0854.43
2009/04/23 15:41:27.7    -276     -8    -10    277    278 268.3  -2.2  34196  290.19 0854.43
2009/04/23 15:41:27.8    -240    -42     34    244    247 259.9   8.0  34196  290.17 0854.43
2009/04/23 15:41:27.9    -219    -72     40    231    235 251.8   9.9  34182  289.95 0854.43
2009/04/23 15:41:28.0    -159    -70     28    174    177 246.0   9.3  34192  290.11 0854.43
2009/04/23 15:41:28.1    -100     41     17    109    111 292.6   9.0  34206  290.36 0854.43
2009/04/23 15:41:28.2     -98     98    -30    139    143 314.9 -12.4  34234  290.84 0854.43
2009/04/23 15:41:28.3     -28     98     44    102    111 344.0  25.1  34246  291.04 0854.43
2009/04/23 15:41:28.4       4     68     52     69     86   3.6  40.7  34272  291.49 0854.43
2009/04/23 15:41:28.5      -6     49     37     50     62 352.0  39.7  34268  291.42 0854.43
2009/04/23 15:41:28.6     -16     48     68     51     85 341.5  59.4  34266  291.38 0854.43
2009/04/23 15:41:28.7       0    126     67    127    143   0.0  30.3  34264  291.33 0854.43
2009/04/23 15:41:28.8     -28    110     56    114    127 345.7  28.2  34266  291.37 0854.43
2009/04/23 15:41:28.9     -11    109     64    110    127 354.2  32.9  34270  291.45 0854.43
2009/04/23 15:41:29.0     -53    133     55    144    154 338.1  21.5  34272  291.49 0854.43
2009/04/23 15:41:29.1     -63    125     61    141    153 333.3  25.1  34270  291.43 0854.43
2009/04/23 15:41:29.2     -80    162     40    181    186 333.7  12.6  34272  291.47 0854.45
2009/04/23 15:41:29.3    -100    211     11    234    235 334.7   2.8  34306  292.04 0854.45
2009/04/23 15:41:29.4     -73    211     -1    224    225 340.8  -0.5  34308  292.08 0854.45
2009/04/23 15:41:29.5     -92    174    -13    197    198 332.1  -3.9  34308  292.10 0854.45
2009/04/23 15:41:29.6    -110    152    -44    188    194 324.0 -13.4  34276  291.55 0854.45
2009/04/23 15:41:29.7     -74    114    -72    137    154 327.0 -34.2  34280  291.62 0854.45
2009/04/23 15:41:29.8     -84     61    -86    104    134 306.0 -48.2  34236  290.86 0854.45
2009/04/23 15:41:29.9    -103     34    -69    109    129 288.6 -39.9  34182  289.96 0854.45
2009/04/23 15:41:30.0     -74     67    -59    100    116 312.2 -38.4  34180  289.91 0854.45
2009/04/23 15:41:30.1      17     44    -39     48     61  21.8 -48.1  34182  289.96 0854.45
2009/04/23 15:41:30.2      50     60    -49     79     92  39.7 -39.9  34186  290.02 0854.46
2009/04/23 15:41:30.3     175     65    -34    187    191  69.4 -10.5  34252  291.13 0854.46
2009/04/23 15:41:30.4     212    106     66    238    248  63.4  15.6  34308  292.09 0854.46
2009/04/23 15:41:30.5     232    137     58    270    277  59.4  12.2  34322  292.33 0854.46
2009/04/23 15:41:30.6     416    107     83    430    439  75.5  11.0  34296  291.89 0854.46
2009/04/23 15:41:30.7     281     90     53    296    301  72.2  10.3  34292  291.82 0854.46
2009/04/23 15:41:30.8     276     77    189    287    343  74.3  36.4  34298  291.92 0854.46
2009/04/23 15:41:30.9     356    172    165    396    429  64.2  23.9  34314  292.20 0854.46
2009/04/23 15:41:31.0     402    180    181    441    476  65.8  23.6  34292  291.81 0854.46
2009/04/23 15:41:31.1     300    190    147    356    385  57.6  23.7  34282  291.66 0854.46
2009/04/23 15:41:31.2     351    165    250    388    461  64.8  35.6  34258  291.24 0854.46
2009/04/23 15:41:31.3     273    105    134    293    322  68.9  26.3  34268  291.39 0854.46
2009/04/23 15:41:31.4     432     18    155    433    459  87.6  20.6  34296  291.87 0854.46
2009/04/23 15:41:31.5     413     64     67    418    424  81.2   9.2  34282  291.63 0854.46
2009/04/23 15:41:31.6     479    -34     96    481    491  94.1  11.3  34268  291.41 0854.46
2009/04/23 15:41:31.7     414    -90    -13    424    425 102.4  -1.8  34266  291.36 0854.46
2009/04/23 15:41:31.8     434    -61      6    439    440  98.1   0.8  34252  291.14 0854.46
2009/04/23 15:41:31.9     369    -26     28    370    371  94.1   4.4  34274  291.52 0854.46
2009/04/23 15:41:32.0     388     -7     22    389    390  91.2   3.3  34264  291.34 0854.46
2009/04/23 15:41:32.1     348     40     34    351    353  83.3   5.7  34266  291.37 0854.46
2009/04/23 15:41:32.2     368     44     18    371    372  83.1   2.9  34258  291.25 0854.45
2009/04/23 15:41:32.3     285     11     82    286    298  87.6  16.0  34250  291.10 0854.45
2009/04/23 15:41:32.4     217     30    100    220    241  82.1  26.2  34260  291.27 0854.45
2009/04/23 15:41:32.5     291     45    -35    295    298  81.2  -6.9  34268  291.41 0854.45
2009/04/23 15:41:32.6     407     31     -8    409    410  85.6  -1.2  34272  291.46 0854.45
2009/04/23 15:41:32.7     459     47     18    462    463  84.1   2.2  34242  290.95 0854.45
2009/04/23 15:41:32.8     389    -73     49    396    400 100.7   7.1  34234  290.83 0854.45
2009/04/23 15:41:32.9     417     24    -13    418    419  86.6  -1.9  34222  290.61 0854.45
2009/04/23 15:41:33.0     321   -131    -13    347    348 112.3  -2.2  34242  290.96 0854.45
2009/04/23 15:41:33.1     329   -144    -25    360    361 113.7  -4.1  34254  291.17 0854.45
2009/04/23 15:41:33.2     277   -105     -2    297    298 110.8  -0.5  34250  291.10 0854.45
2009/04/23 15:41:33.3     174   -105      2    204    205 121.1   0.8  34242  290.98 0854.45
2009/04/23 15:41:33.4     268     28    -12    270    271  83.9  -2.6  34258  291.24 0854.45
2009/04/23 15:41:33.5     368    -40     -7    371    372  96.3  -1.1  34244  291.01 0854.45
2009/04/23 15:41:33.6     334    -58     -2    340    341  99.9  -0.4  34238  290.91 0854.45
2009/04/23 15:41:33.7     314     18      1    315    316  86.7   0.2  34240  290.92 0854.45
2009/04/23 15:41:33.8     224    -25     -8    226    227  96.4  -2.2  34222  290.62 0854.45
2009/04/23 15:41:33.9     165    -50     59    173    183 107.1  18.9  34234  290.84 0854.45
2009/04/23 15:41:34.0      78   -140    -15    161    162 151.0  -5.4  34232  290.81 0854.45
2009/04/23 15:41:34.1     180   -127    -63    221    230 125.3 -16.0  34234  290.84 0854.45
2009/04/23 15:41:34.2     148   -184    -36    237    240 141.3  -8.8  34222  290.61 0854.44
2009/04/23 15:41:34.3      82   -256    113    269    291 162.2  24.1  34232  290.78 0854.44
2009/04/23 15:41:34.4      50   -243     29    249    251 168.2   6.7  34234  290.83 0854.44
2009/04/23 15:41:34.5     103   -261    132    281    310 158.4  27.1  34242  290.97 0854.44
2009/04/23 15:41:34.6     126   -212    111    247    270 149.2  26.2  34242  290.97 0854.44
2009/04/23 15:41:34.7     150   -218     58    265    272 145.5  12.4  34228  290.73 0854.44
2009/04/23 15:41:34.8     147   -188     70    239    250 141.9  16.3  34224  290.66 0854.44
2009/04/23 15:41:34.9     188   -144     -9    237    238 127.5  -2.2  34220  290.59 0854.44
2009/04/23 15:41:35.0     117   -152    -17    192    193 142.4  -5.2  34224  290.65 0854.44
2009/04/23 15:41:35.1      94   -166      0    192    193 150.4  -0.3  34224  290.67 0854.44
2009/04/23 15:41:35.2      69   -125     33    143    147 151.0  13.2  34224  290.67 0854.44
2009/04/23 15:41:35.3      59   -139     13    152    153 156.8   5.0  34222  290.64 0854.44
2009/04/23 15:41:35.4     112   -194     61    225    234 149.9  15.3  34228  290.74 0854.44
2009/04/23 15:41:35.5     126   -160     76    204    217 141.7  21.3  34228  290.74 0854.44
2009/04/23 15:41:35.6     165   -137     20    215    217 129.6   5.4  34236  290.87 0854.44
2009/04/23 15:41:35.7     134   -116     53    178    186 130.9  16.6  34240  290.92 0854.44
2009/04/23 15:41:35.8     122   -143     86    189    207 139.5  26.2  34248  291.08 0854.44
2009/04/23 15:41:35.9     105   -119    120    159    199 138.6  40.9  34248  291.06 0854.44
2009/04/23 15:41:36.0     165   -132    128    212    247 128.6  34.2  34266  291.36 0854.44
2009/04/23 15:41:36.1     109   -142    117    180    214 142.4  35.6  34250  291.11 0854.44
2009/04/23 15:41:36.2     117   -129    112    175    207 137.7  35.6  34246  291.03 0854.43
2009/04/23 15:41:36.3      93   -117     86    150    172 141.3  32.7  34242  290.98 0854.43
2009/04/23 15:41:36.4      -9   -213     87    214    231 182.5  23.1  34256  291.21 0854.43
2009/04/23 15:41:36.5      14   -215    136    216    255 176.2  35.5  34260  291.26 0854.43
2009/04/23 15:41:36.6      20   -176    137    178    224 173.3  41.7  34256  291.20 0854.43
2009/04/23 15:41:36.7      -2    -83    160     84    180 181.4  70.0  34278  291.57 0854.43
2009/04/23 15:41:36.8      66   -200    160    211    264 161.5  40.9  34286  291.70 0854.43
2009/04/23 15:41:36.9      73   -164    149    180    233 155.9  43.7  34280  291.60 0854.43
2009/04/23 15:41:37.0      46    -28    149     55    158 121.5  78.9  34290  291.77 0854.43
2009/04/23 15:41:37.1      58   -156    193    167    255 159.5  54.8  34216  290.53 0854.43
2009/04/23 15:41:37.2      62   -233    222    242    328 165.1  47.5  34204  290.32 0854.43
2009/04/23 15:41:37.3      58   -156    190    167    252 159.5  54.3  34276  291.54 0854.43
2009/04/23 15:41:37.4     134    -68    259    151    299 117.0  67.0  34272  291.46 0854.43
2009/04/23 15:41:37.5      93      0    167     94    191  90.0  68.5  34258  291.23 0854.43
2009/04/23 15:41:37.6      25    -40    175     48    181 148.4  84.8  34280  291.60 0854.43
2009/04/23 15:41:37.7     -87     28     90     92    128 288.2  50.0  34286  291.72 0854.43
2009/04/23 15:41:37.8     -44     15     72     47     85 289.1  64.1  34282  291.66 0854.43
2009/04/23 15:41:37.9      28    -59     68     66     94 154.6  49.7  34276  291.54 0854.43
2009/04/23 15:41:38.0      43   -108     42    117    124 158.2  20.0  34238  290.89 0854.43
2009/04/23 15:41:38.1      27      9     57     29     63  70.0  71.9  34244  291.01 0854.43
2009/04/23 15:41:38.2     -57    -19     46     61     76 251.4  40.7  34244  290.99 0854.43
2009/04/23 15:41:38.3      59     26     31     65     72  65.6  27.2  34248  291.06 0854.43
2009/04/23 15:41:38.4      19     57     -3     61     62  18.5  -3.1  34242  290.98 0854.43
2009/04/23 15:41:38.5      34     55     -5     65     66  31.6  -5.2  34250  291.09 0854.43
2009/04/23 15:41:38.6      35     68    -27     77     81  27.2 -24.4  34254  291.18 0854.43
2009/04/23 15:41:38.7       9     74    -20     75     78   7.1 -15.5  34250  291.11 0854.43
2009/04/23 15:41:38.8       1    -33    -35     34     48 177.3 -53.5  34250  291.11 0854.43
2009/04/23 15:41:38.9     -12    -90     35     91     97 187.6  21.5  34254  291.18 0854.43
2009/04/23 15:41:39.0     -44   -131     47    139    147 198.5  18.9  34260  291.28 0854.43
2009/04/23 15:41:39.1     -85    -98     21    130    132 221.0   9.5  34264  291.33 0854.43
2009/04/23 15:41:39.2    -114   -100     -1    153    154 228.7  -0.7  34264  291.33 0854.43
2009/04/23 15:41:39.3     -49    -99     -4    111    112 206.3  -2.2  34248  291.08 0854.43
2009/04/23 15:41:39.4     -52     -9    -19     53     57 259.4 -19.6  34246  291.04 0854.43
2009/04/23 15:41:39.5     -66    -18    -44     69     81 254.9 -39.9  34248  291.08 0854.43
2009/04/23 15:41:39.6    -104    -63     82    122    146 238.5  37.0  34236  290.87 0854.43
2009/04/23 15:41:39.7     -76    -96     79    123    146 218.3  35.6  34240  290.94 0854.43
2009/04/23 15:41:39.8    -149      0    -44    150    156 270.0 -21.2  34292  291.81 0854.43
2009/04/23 15:41:39.9     -82     39    -52     92    105 295.8 -36.3  34276  291.55 0854.43
2009/04/23 15:41:40.0     -29      8     72     31     78 285.1  76.1  34254  291.16 0854.43
2009/04/23 15:41:40.1      77    -49     70     92    115 122.9  41.2  34258  291.25 0854.39
2009/04/23 15:41:40.2     -51    -47     48     70     84 226.8  37.6  34254  291.18 0854.39
2009/04/23 15:41:40.3     -86    -39     19     95     98 245.6  11.6  34266  291.37 0854.39
2009/04/23 15:41:40.4     -45    -39     16     60     63 228.7  15.3  34270  291.43 0854.39
2009/04/23 15:41:40.5     -62      0     28     63     68 269.1  25.1  34272  291.49 0854.39
2009/04/23 15:41:40.6    -170     55     42    179    184 288.2  13.2  34260  291.26 0854.39
2009/04/23 15:41:40.7    -132     96     57    164    174 306.2  19.2  34258  291.25 0854.39
2009/04/23 15:41:40.8    -156     83    106    177    206 298.0  33.5  34264  291.35 0854.39
2009/04/23 15:41:40.9    -187    160    121    247    275 310.5  28.2  34290  291.77 0854.39
2009/04/23 15:41:41.0    -223    199     53    300    305 311.8  10.1  34326  292.38 0854.39
2009/04/23 15:41:41.1    -163    179    121    243    271 317.7  28.2  34264  291.34 0854.39
2009/04/23 15:41:41.2    -144    143    119    203    235 314.8  32.9  34270  291.43 0854.39
2009/04/23 15:41:41.3     -88    143    113    168    202 328.4  37.0  34288  291.74 0854.39
2009/04/23 15:41:41.4     -64    126     91    142    168 332.9  35.6  34302  292.00 0854.39
2009/04/23 15:41:41.5     -40     53    124     67    140 323.0  68.9  34314  292.20 0854.39
2009/04/23 15:41:41.6     -54     69     97     88    130 321.7  53.3  34298  291.93 0854.39
2009/04/23 15:41:41.7     -48    -67     73     83    110 216.1  45.8  34312  292.15 0854.39
2009/04/23 15:41:41.8     -87   -192    117    212    242 204.5  31.4  34282  291.66 0854.39
2009/04/23 15:41:41.9    -185   -291     45    346    349 212.5   7.4  34228  290.71 0854.39
2009/04/23 15:41:42.0    -170   -116    -55    206    214 235.6 -15.0  34196  290.19 0854.39
2009/04/23 15:41:42.1      23   -142     50    144    153 170.7  19.4  34158  289.55 0854.35
2009/04/23 15:41:42.2     -61    -39    113     73    134 237.6  64.6  34156  289.52 0854.35
2009/04/23 15:41:42.3    -134      4    -32    135    139 272.1 -13.4  34126  288.99 0854.35
2009/04/23 15:41:42.4    -121      1    -49    122    131 270.8 -27.4  34118  288.86 0854.35
2009/04/23 15:41:42.5     -64    -46    -26     80     84 234.0 -23.8  34128  289.02 0854.35
2009/04/23 15:41:42.6     -65   -115    -50    133    142 209.4 -25.4  34150  289.40 0854.35
2009/04/23 15:41:42.7     -17   -122     22    124    126 188.0  10.1  34158  289.53 0854.35
2009/04/23 15:41:42.8       1   -148      7    149    150 179.5   2.8  34138  289.21 0854.35
2009/04/23 15:41:42.9       8   -183     69    184    196 177.3  21.5  34154  289.46 0854.35
2009/04/23 15:41:43.0      13   -178    121    179    216 175.8  37.4  34188  290.04 0854.35
2009/04/23 15:41:43.1     -16   -165    140    166    217 185.6  44.5  34184  289.97 0854.35
2009/04/23 15:41:43.2     -22   -105    127    108    166 192.0  55.6  34196  290.19 0854.35
2009/04/23 15:41:43.3       9    -58     91     59    108 171.1  64.6  34218  290.55 0854.35
2009/04/23 15:41:43.4      58     48     98     76    124  50.5  58.5  34216  290.52 0854.35
2009/04/23 15:41:43.5     163     86    115    185    217  62.2  35.2  34278  291.59 0854.35
2009/04/23 15:41:43.6     125    114    135    170    217  47.8  42.7  34310  292.13 0854.35
2009/04/23 15:41:43.7      99    105    170    145    223  43.2  55.4  34314  292.20 0854.35
2009/04/23 15:41:43.8     188    138    239    234    334  53.6  50.7  34298  291.90 0854.35
2009/04/23 15:41:43.9     383    223    214    444    492  59.8  27.7  34266  291.36 0854.35
2009/04/23 15:41:44.0     422    221    202    477    518  62.3  24.5  34318  292.24 0854.35
2009/04/23 15:41:44.1     376    273    255    465    530  54.0  31.3  34316  292.22 0854.35
2009/04/23 15:41:44.2     361    252    218    441    491  55.1  28.2  34306  292.04 0854.35
2009/04/23 15:41:44.3     398    181    150    438    464  65.6  18.9  34254  291.16 0854.35
2009/04/23 15:41:44.4     419    237     51    482    485  60.5   6.1  34256  291.19 0854.35
2009/04/23 15:41:44.5     304    321     61    443    448  43.5   7.9  34270  291.45 0854.35
2009/04/23 15:41:44.6     439    279    135    521    539  57.5  14.6  34292  291.82 0854.35
2009/04/23 15:41:44.7     722    204     36    751    752  74.2   2.8  34214  290.50 0854.35
2009/04/23 15:41:44.8     878     87    -26    883    884  84.3  -1.7  34220  290.59 0854.35
2009/04/23 15:41:44.9     433    173    227    467    519  68.2  27.8  34258  291.22 0854.35
2009/04/23 15:41:45.0     353    269    236    444    502  52.7  30.3  34250  291.10 0854.35
2009/04/23 15:41:45.1     372    457     73    590    595  39.1   7.1  34254  291.17 0854.35
2009/04/23 15:41:45.2     472    382    -56    608    611  51.0  -5.3  34212  290.44 0854.35
2009/04/23 15:41:45.3     577    273    -88    639    646  64.7  -7.9  34208  290.38 0854.35
2009/04/23 15:41:45.4     317    473    -97    570    579  33.8  -9.7  34262  291.32 0854.35
2009/04/23 15:41:45.5     392    449    -65    597    601  41.1  -6.3  34278  291.58 0854.35
2009/04/23 15:41:45.7     483    188    -25    519    520  68.7  -2.8  34256  291.21 0854.35
2009/04/23 15:41:45.7     456    351     71    576    581  52.4   7.1  34292  291.82 0854.35
2009/04/23 15:41:45.9     421    245    213    488    532  59.8  25.1  34332  292.50 0854.35
2009/04/23 15:41:45.9     559    208    -53    597    600  69.6  -5.1  34212  290.47 0854.35
2009/04/23 15:41:46.1     687    205     40    717    719  73.4   3.2  34208  290.40 0854.35
2009/04/23 15:41:46.2     664    236    177    705    727  70.4  14.2  34248  291.05 0854.34
2009/04/23 15:41:46.3     570     34    -94    572    580  86.5  -9.4  34222  290.61 0854.34
2009/04/23 15:41:46.4     282    -41   -104    286    304  98.4 -25.3  34228  290.71 0854.34
2009/04/23 15:41:46.5     160    182   -184    243    304  41.2 -45.3  34264  291.33 0854.34
2009/04/23 15:41:46.6     257    341   -151    428    453  37.0 -24.6  34278  291.57 0854.34
2009/04/23 15:41:46.7     155    341     -8    375    376  24.4  -1.3  34258  291.22 0854.34
2009/04/23 15:41:46.8     106    326    -28    343    345  18.0  -4.8  34268  291.39 0854.34
2009/04/23 15:41:46.9     241    351    -14    426    427  34.5  -1.9  34292  291.82 0854.34
2009/04/23 15:41:47.0     238    225     52    328    333  46.7   9.0  34296  291.88 0854.34
2009/04/23 15:41:47.1      -8    153    229    154    275 356.9  62.8  34320  292.30 0854.34
2009/04/23 15:41:47.2     301    128    102    328    344  67.0  17.3  34264  291.34 0854.34
2009/04/23 15:41:47.3     283    195     96    344    358  55.4  15.6  34242  290.96 0854.34
2009/04/23 15:41:47.4      91    250    170    267    316  20.0  35.5  34326  292.38 0854.34
2009/04/23 15:41:47.5     165    116     85    202    219  54.9  23.8  34234  290.84 0854.34
2009/04/23 15:41:47.6     179    207    181    274    328  40.8  36.5  34234  290.82 0854.34
2009/04/23 15:41:47.7     129    202    110    240    264  32.6  26.6  34208  290.39 0854.34
2009/04/23 15:41:47.8     187    226     46    294    298  39.6   8.9  34228  290.73 0854.34
2009/04/23 15:41:47.9     -50    299     91    304    318 350.4  16.8  34264  291.34 0854.34
2009/04/23 15:41:48.0     191    356      8    405    406  28.2   1.2  34258  291.24 0854.34
2009/04/23 15:41:48.1     279    196    -10    342    343  54.9  -1.7  34258  291.25 0854.34
2009/04/23 15:41:48.2     228    127    119    261    286  60.9  26.2  34256  291.19 0854.36
2009/04/23 15:41:48.3      -7    139     69    140    156 356.9  27.3  34266  291.37 0854.36
2009/04/23 15:41:48.4    -160    168     53    233    240 316.3  12.9  34276  291.55 0854.36
2009/04/23 15:41:48.5    -149    331     57    364    369 335.7   8.9  34258  291.23 0854.36
2009/04/23 15:41:48.6    -117    161     86    200    217 324.0  24.9  34258  291.23 0854.36
2009/04/23 15:41:48.7     -54    209    106    216    240 345.5  28.2  34262  291.31 0854.36
2009/04/23 15:41:48.8     103    138    149    173    228  36.7  45.1  34264  291.33 0854.36
2009/04/23 15:41:48.9      91    145     80    172    189  32.3  27.1  34262  291.32 0854.36
2009/04/23 15:41:49.0      80    157     77    177    193  27.2  24.9  34276  291.55 0854.36
2009/04/23 15:41:49.1     132    157    112    206    234  40.1  30.8  34274  291.52 0854.36
2009/04/23 15:41:49.2     145    253    120    292    315  29.8  23.7  34344  292.69 0854.36
2009/04/23 15:41:49.3     205    312    102    374    388  33.4  15.3  34344  292.71 0854.36
2009/04/23 15:41:49.4     224    370     45    433    436  31.2   6.0  34260  291.28 0854.36
2009/04/23 15:41:49.5     107    341    156    358    390  17.5  25.1  34330  292.46 0854.36
2009/04/23 15:41:49.6     177    268    207    322    382  33.4  35.6  34352  292.83 0854.36
2009/04/23 15:41:49.7     105    349    259    365    447  16.8  38.7  34332  292.50 0854.36
2009/04/23 15:41:49.8     220    357    309    420    521  31.7  40.0  34288  291.76 0854.36
2009/04/23 15:41:49.9     180    449    254    484    546  21.9  29.9  34288  291.76 0854.36
2009/04/23 15:41:50.0     236    119    236    265    354  63.1  46.3  34286  291.70 0854.36
2009/04/23 15:41:50.1     178    262    272    317    417  34.2  45.0  34288  291.74 0854.36
2009/04/23 15:41:50.2     303    455    373    547    662  33.7  37.7  34256  291.20 0854.37
2009/04/23 15:41:50.3     391    391    162    554    578  45.0  16.3  34286  291.70 0854.37
2009/04/23 15:41:50.4     400    179    165    439    468  65.9  21.5  34314  292.18 0854.37
2009/04/23 15:41:50.5     352    103    313    367    482  73.6  44.8  34310  292.13 0854.37
2009/04/23 15:41:50.6     360    106    278    376    467  73.6  40.1  34328  292.43 0854.37
2009/04/23 15:41:50.7     313    239    287    395    488  52.6  39.7  34290  291.79 0854.37
2009/04/23 15:41:50.8     288    359    126    461    478  38.8  15.3  34194  290.15 0854.37
2009/04/23 15:41:50.9     195    348    175    399    435  29.3  25.2  34184  289.97 0854.37
2009/04/23 15:41:51.0     244    412    245    480    538  30.7  29.2  34166  289.68 0854.37
2009/04/23 15:41:51.1     295    345    248    455    518  40.5  30.9  34158  289.54 0854.37
2009/04/23 15:41:51.2     358    233    101    428    440  56.9  13.3  34270  291.43 0854.40
2009/04/23 15:41:51.3     309    221     89    381    392  54.4  13.2  34250  291.11 0854.40
2009/04/23 15:41:51.4     234    267    148    356    385  41.3  23.8  34226  290.69 0854.40
2009/04/23 15:41:51.5     -71    700    255    704    748 354.2  20.9  34204  290.31 0854.40
2009/04/23 15:41:51.6    -230    689    228    727    762 341.5  17.4  34192  290.12 0854.40
2009/04/23 15:41:51.7    -447    274     -2    525    526 301.5  -0.3  34202  290.28 0854.40
2009/04/23 15:41:51.8    -265    163    -23    312    313 301.5  -4.2  34206  290.36 0854.40
2009/04/23 15:41:51.9    -125     33    -16    130    132 285.0  -7.2  34200  290.25 0854.40
2009/04/23 15:41:52.0      97    205    238    227    328  25.3  51.4  34238  290.88 0854.40
2009/04/23 15:41:52.1     301     26    199    303    362  85.0  36.4  34228  290.72 0854.40
2009/04/23 15:41:52.2     483      0     -2    484    485  90.1  -0.3  34228  290.71 0854.40
2009/04/23 15:41:52.3     281     66    128    289    316  76.8  25.3  34244  290.99 0854.40
2009/04/23 15:41:52.4     332     43    188    335    384  82.5  31.6  34244  291.01 0854.40
2009/04/23 15:41:52.5     323     81    112    334    353  75.8  18.6  34244  291.00 0854.40
2009/04/23 15:41:52.6     299     -4     84    300    312  90.8  15.7  34280  291.61 0854.40
2009/04/23 15:41:52.7     282     11     90    283    298  87.6  17.7  34288  291.73 0854.40
2009/04/23 15:41:52.8     308     -9     78    309    319  91.7  14.2  34290  291.78 0854.40
2009/04/23 15:41:52.9     327     32    140    329    357  84.3  24.5  34294  291.85 0854.40
2009/04/23 15:41:53.0     253      8     31    254    256  88.1   7.1  34262  291.29 0854.40
2009/04/23 15:41:53.1     293    -14     -6    294    295  92.8  -1.3  34256  291.19 0854.40
2009/04/23 15:41:53.2     155    -82     38    176    181 117.8  12.4  34256  291.21 0854.40
2009/04/23 15:41:53.3      91    -62     75    111    133 124.2  37.0  34266  291.37 0854.40
2009/04/23 15:41:53.4      55    -83    102    100    142 146.2  50.1  34304  292.03 0854.40
2009/04/23 15:41:53.5     -74   -148    131    166    211 206.5  42.4  34318  292.27 0854.40
2009/04/23 15:41:53.6    -139   -192    173    238    294 215.8  39.7  34324  292.36 0854.40
2009/04/23 15:41:53.7    -141   -193    166    240    291 216.1  37.8  34330  292.45 0854.40
2009/04/23 15:41:53.8    -132   -257    139    289    320 207.2  27.7  34278  291.56 0854.40
2009/04/23 15:41:53.9     -52   -238    154    244    288 192.4  35.5  34276  291.55 0854.40
2009/04/23 15:41:54.0     -68   -231    191    241    307 196.5  42.7  34276  291.53 0854.40
2009/04/23 15:41:54.1    -152   -327      3    361    362 205.0   0.5  34268  291.40 0854.40
2009/04/23 15:41:54.2    -185   -276     41    333    336 213.9   7.1  34264  291.35 0854.40
2009/04/23 15:41:54.3       0   -131    146    132    196 180.4  53.3  34286  291.71 0854.40
2009/04/23 15:41:54.4     103    -71    154    126    198 124.6  56.4  34266  291.38 0854.40
2009/04/23 15:41:54.5     123    -81    191    148    241 123.3  58.5  34260  291.28 0854.40
2009/04/23 15:41:54.6       1   -126    174    127    215 179.1  60.5  34272  291.47 0854.40
2009/04/23 15:41:54.7     -62   -247    209    255    329 194.3  43.7  34256  291.21 0854.40
2009/04/23 15:41:54.8     -33   -266    201    269    335 187.2  40.4  34262  291.31 0854.40
2009/04/23 15:41:54.9     -15   -238    162    239    288 183.6  37.4  34266  291.38 0854.40
2009/04/23 15:41:55.0     -82   -325    192    336    386 194.3  32.3  34268  291.39 0854.40
2009/04/23 15:41:55.1    -211   -305    145    372    399 214.7  22.3  34284  291.69 0854.40
2009/04/23 15:41:55.2    -208   -269     86    341    352 217.8  14.3  34272  291.47 0854.36
2009/04/23 15:41:55.3    -177   -200     66    268    277 221.4  13.9  34280  291.60 0854.36
2009/04/23 15:41:55.4    -177   -300     68    349    356 210.6  11.1  34284  291.68 0854.36
2009/04/23 15:41:55.5    -151   -207     85    257    271 216.1  18.4  34274  291.51 0854.36
2009/04/23 15:41:55.6    -110   -120     32    164    168 222.5  11.1  34278  291.59 0854.36
2009/04/23 15:41:55.7    -166    -59    110    177    208 250.5  35.0  34300  291.95 0854.36
2009/04/23 15:41:55.8    -219    -36     88    223    239 260.5  22.5  34288  291.75 0854.36
2009/04/23 15:41:55.9    -121   -113     13    166    167 226.9   4.6  34290  291.79 0854.36
2009/04/23 15:41:56.0    -154   -170     80    230    244 222.1  19.2  34258  291.22 0854.36
2009/04/23 15:41:56.1    -149   -211     56    259    266 215.2  12.2  34230  290.76 0854.36
2009/04/23 15:41:56.2    -136   -210     29    251    253 213.0   6.7  34228  290.73 0854.36
2009/04/23 15:41:56.3    -123   -183     66    221    231 214.1  16.6  34232  290.81 0854.36
2009/04/23 15:41:56.4     -75   -135     71    155    170 209.0  26.4  34252  291.13 0854.36
2009/04/23 15:41:56.5    -102   -225    105    248    269 204.5  24.2  34244  290.99 0854.36
2009/04/23 15:41:56.6    -156   -170     93    231    249 222.5  23.0  34262  291.31 0854.36
2009/04/23 15:41:56.7    -206   -151    111    256    279 233.8  25.1  34264  291.34 0854.36
2009/04/23 15:41:56.8    -142    -42     54    149    158 253.6  20.7  34276  291.55 0854.36
2009/04/23 15:41:56.9    -148   -121     63    192    203 230.9  18.1  34262  291.32 0854.36
2009/04/23 15:41:57.0     -29   -232     -5    234    235 187.3  -1.3  34240  290.93 0854.36
2009/04/23 15:41:57.1    -201    -31     -4    204    205 261.2  -1.3  34282  291.64 0854.36
2009/04/23 15:41:57.2     -84   -123    -82    150    170 214.3 -35.4  34262  291.30 0854.34
2009/04/23 15:41:57.3     -71   -201    -52    214    221 199.4 -13.7  34236  290.87 0854.34
2009/04/23 15:41:57.4    -145   -234      8    276    277 211.7   1.7  34222  290.63 0854.34
2009/04/23 15:41:57.5    -131   -315     84    342    353 202.6  13.8  34218  290.55 0854.34
2009/04/23 15:41:57.6    -130   -356    182    380    421 200.1  27.3  34230  290.77 0854.34
2009/04/23 15:41:57.7    -301   -269     76    404    412 228.2  10.7  34232  290.80 0854.34
2009/04/23 15:41:57.8    -290   -257     64    388    394 228.4   9.4  34222  290.64 0854.34
2009/04/23 15:41:57.9    -261   -200     71    329    337 232.5  12.3  34232  290.81 0854.34
2009/04/23 15:41:58.0    -182   -151    118    237    264 230.2  28.2  34230  290.76 0854.34
2009/04/23 15:41:58.1    -133    -73    127    152    198 241.2  44.3  34242  290.98 0854.34
2009/04/23 15:41:58.2     -60     97    108    115    157 328.4  48.2  34250  291.09 0854.34
2009/04/23 15:41:58.3    -175     31     80    178    195 280.1  26.2  34248  291.08 0854.34
2009/04/23 15:41:58.4    -157     21     36    159    164 277.9  12.9  34256  291.20 0854.34
2009/04/23 15:41:58.5     -82    139     41    162    168 329.3  14.3  34260  291.26 0854.34
2009/04/23 15:41:58.6    -133     68     18    150    152 297.1   7.1  34258  291.23 0854.34
2009/04/23 15:41:58.7    -135    134     45    191    197 314.9  13.2  34270  291.45 0854.34
2009/04/23 15:41:58.8     -66    -14     48     68     83 257.6  39.1  34278  291.57 0854.34
2009/04/23 15:41:58.9       0   -115    127    116    172 180.4  53.0  34264  291.33 0854.34
2009/04/23 15:41:59.0      64    -35    107     74    130 118.8  62.6  34244  290.99 0854.34
2009/04/23 15:41:59.1     -65     74    135     99    167 318.6  60.3  34260  291.28 0854.34
2009/04/23 15:41:59.2     -74    116    166    138    215 327.4  56.3  34254  291.16 0854.35
2009/04/23 15:41:59.3     -33    101    176    107    205 341.7  66.0  34254  291.16 0854.35
2009/04/23 15:41:59.4     109     74    205    132    243  55.8  64.6  34254  291.16 0854.35
2009/04/23 15:41:59.5      11     34    161     36    164  18.7  88.0  34260  291.26 0854.35
2009/04/23 15:41:59.6      72      5    159     73    174  85.7  73.5  34250  291.11 0854.35
2009/04/23 15:41:59.7     133      0    156    134    205  90.0  55.0  34236  290.87 0854.35
2009/04/23 15:41:59.8      -5    -35    157     36    161 188.0  87.5  34258  291.23 0854.35
2009/04/23 15:41:59.9     -10   -133    179    134    223 184.5  59.8  34262  291.32 0854.35
2009/04/23 15:42:00.0     -53   -202    221    210    304 194.9  52.0  34238  290.90 0854.35
2009/04/23 15:42:00.1      77   -211    222    225    316 160.0  49.8  34230  290.75 0854.35
2009/04/23 15:42:00.2      68   -207    188    219    288 161.7  44.9  34234  290.83 0854.35
2009/04/23 15:42:00.3     178    -92    212    201    292 117.3  51.6  34236  290.85 0854.35
2009/04/23 15:42:00.4     258    -85     78    272    284 108.4  16.0  34210  290.42 0854.35
2009/04/23 15:42:00.5     125   -103    125    162    204 129.5  41.6  34226  290.69 0854.35
2009/04/23 15:42:00.6      89     -4    127     90    155  93.0  61.1  34228  290.74 0854.35
2009/04/23 15:42:00.7      38    -69    145     79    165 151.0  69.1  34242  290.98 0854.35
2009/04/23 15:42:00.8      20   -203    131    205    243 174.2  35.6  34226  290.70 0854.35
2009/04/23 15:42:00.9       0   -204    112    205    233 179.8  31.3  34224  290.67 0854.35
2009/04/23 15:42:01.0      27    -57    102     64    120 154.5  64.7  34228  290.72 0854.35
2009/04/23 15:42:01.1     -44    -87     84     98    129 206.7  44.8  34232  290.79 0854.35
2009/04/23 15:42:01.2      48    -74     72     89    114 146.6  43.7  34232  290.79 0854.39
2009/04/23 15:42:01.3       0    -46     77     47     90 180.9  65.1  34244  290.99 0854.39
2009/04/23 15:42:01.4      21   -134    105    136    171 171.1  41.7  34234  290.82 0854.39
2009/04/23 15:42:01.5    -114   -206    196    236    306 208.9  43.8  34224  290.66 0854.39
2009/04/23 15:42:01.6     -49   -188    150    195    246 194.7  41.7  34232  290.79 0854.39
2009/04/23 15:42:01.7     -12   -172     -6    173    174 184.0  -2.1  34228  290.72 0854.39
2009/04/23 15:42:01.8     -44   -237     47    242    247 190.7  11.0  34232  290.78 0854.39
2009/04/23 15:42:01.9    -150   -309    -43    344    347 206.0  -7.2  34224  290.67 0854.39
2009/04/23 15:42:02.0     -66   -280    -15    288    289 193.3  -3.1  34236  290.87 0854.39
2009/04/23 15:42:02.1     -33   -307     66    309    317 186.2  12.2  34234  290.83 0854.39
2009/04/23 15:42:02.2     -39   -251     -1    255    256 188.9  -0.3  34232  290.78 0854.39
2009/04/23 15:42:02.3      17   -168      0    169    170 174.0   0.2  34232  290.81 0854.39
2009/04/23 15:42:02.4     -13   -187    -52    188    196 184.2 -15.5  34242  290.96 0854.39
2009/04/23 15:42:02.5     -32   -156    -73    160    175 191.6 -30.6  34254  291.18 0854.39
2009/04/23 15:42:02.6      -8   -116     31    117    122 184.0  15.2  34244  291.01 0854.39
2009/04/23 15:42:02.7     -36    -96     53    103    115 200.5  29.3  34248  291.06 0854.39
2009/04/23 15:42:02.8     -66   -295     34    303    305 192.7   6.5  34238  290.88 0854.39
2009/04/23 15:42:02.9     -70   -362      9    369    370 191.0   1.5  34230  290.76 0854.39
2009/04/23 15:42:03.0     -18   -319    -12    320    321 183.4  -2.3  34234  290.83 0854.39
2009/04/23 15:42:03.1     -96   -290     79    306    317 198.5  14.6  34232  290.80 0854.39
2009/04/23 15:42:03.2       4   -298     57    299    305 179.1  10.8  34238  290.88 0854.43
2009/04/23 15:42:03.3      42   -350     26    353    354 173.1   4.2  34232  290.81 0854.43
2009/04/23 15:42:03.4      31   -389     -1    391    392 175.3  -0.3  34232  290.79 0854.43
2009/04/23 15:42:03.5      69   -369     20    376    377 169.4   3.1  34232  290.81 0854.43
2009/04/23 15:42:03.6     102   -378     16    392    393 164.9   2.4  34228  290.74 0854.43
2009/04/23 15:42:03.7      70   -330     17    338    339 168.0   2.9  34230  290.77 0854.43
2009/04/23 15:42:03.8     -11   -360     37    361    363 181.9   6.0  34232  290.81 0854.43
2009/04/23 15:42:03.9      16   -210    125    211    245 175.6  33.5  34230  290.75 0854.43
2009/04/23 15:42:04.0      93   -198    108    219    244 154.8  28.2  34224  290.65 0854.43
2009/04/23 15:42:04.1     178   -198    228    267    351 138.1  45.0  34230  290.76 0854.43
2009/04/23 15:42:04.2     204   -162    171    261    312 128.4  36.0  34226  290.70 0854.43
2009/04/23 15:42:04.3     226   -286    122    365    386 141.7  18.6  34212  290.47 0854.43
2009/04/23 15:42:04.4     245   -134    236    280    366 118.6  44.4  34230  290.76 0854.43
2009/04/23 15:42:04.5     270   -337    144    433    457 141.3  18.4  34202  290.29 0854.43
2009/04/23 15:42:04.6     187   -368    158    413    442 153.0  22.0  34214  290.50 0854.43
2009/04/23 15:42:04.7     162   -292    252    335    419 151.0  40.6  34214  290.49 0854.43
2009/04/23 15:42:04.8     151   -183    209    238    316 140.4  45.8  34224  290.65 0854.43
2009/04/23 15:42:04.9      69   -334    164    342    379 168.3  27.3  34200  290.25 0854.43
2009/04/23 15:42:05.0     124   -302    109    327    345 157.7  18.5  34214  290.49 0854.43
2009/04/23 15:42:05.1      96   -278    138    295    325 160.8  27.0  34204  290.31 0854.43
2009/04/23 15:42:05.2     108   -335    177    353    394 162.1  28.7  34208  290.38 0854.43
2009/04/23 15:42:05.3      93   -279    219    295    367 161.5  40.2  34222  290.64 0854.43
2009/04/23 15:42:05.4      99   -319    217    335    399 162.7  36.0  34204  290.33 0854.43
2009/04/23 15:42:05.5      41   -258    190    262    323 170.9  39.7  34200  290.26 0854.43
2009/04/23 15:42:05.6      57   -170    106    180    208 161.5  33.5  34196  290.19 0854.43
2009/04/23 15:42:05.7     121      1    216    122    248  89.2  68.1  34256  291.20 0854.43
2009/04/23 15:42:05.8      61     96    192    114    223  32.5  66.7  34248  291.06 0854.43
2009/04/23 15:42:05.9      59    130    148    143    205  24.5  51.2  34266  291.38 0854.43
2009/04/23 15:42:06.0      88    174    148    196    245  27.0  40.9  34276  291.55 0854.43
2009/04/23 15:42:06.1     215    179    128    280    307  50.2  26.4  34320  292.30 0854.43
2009/04/23 15:42:06.2     256    152    184    298    350  59.3  35.0  34318  292.24 0854.43
2009/04/23 15:42:06.3     188    143    140    237    275  52.7  33.4  34322  292.33 0854.43
2009/04/23 15:42:06.4     143    172    153    224    271  39.7  37.4  34338  292.60 0854.43
2009/04/23 15:42:06.5      98    148    183    178    255  33.6  50.9  34354  292.86 0854.43
2009/04/23 15:42:06.6      99     87    148    133    198  48.7  53.5  34348  292.76 0854.43
2009/04/23 15:42:06.7      75     33    130     83    154  66.0  64.7  34362  293.02 0854.43
2009/04/23 15:42:06.8      27    132     95    135    165  11.6  38.6  34342  292.68 0854.43
2009/04/23 15:42:06.9      23    173     91    175    197   7.8  29.5  34340  292.64 0854.43
2009/04/23 15:42:07.0      -9    123    130    124    179 355.5  51.4  34348  292.78 0854.43
2009/04/23 15:42:07.1     -67    146     25    161    164 335.1   9.0  34342  292.68 0854.43
2009/04/23 15:42:07.2      23     69     25     73     78  18.5  18.9  34342  292.68 0854.43
2009/04/23 15:42:07.3     145     47     52    153    162  71.8  18.9  34332  292.51 0854.43
2009/04/23 15:42:07.4     146     85    106    170    200  59.8  35.0  34352  292.83 0854.43
2009/04/23 15:42:07.5     229     99     68    250    260  66.5  15.3  34318  292.24 0854.43
2009/04/23 15:42:07.6     256     20     16    257    258  85.4   3.6  34308  292.07 0854.43
2009/04/23 15:42:07.7     219     66     26    229    231  73.2   6.7  34372  293.17 0854.43
2009/04/23 15:42:07.8     257     36    163    260    306  82.0  35.5  34394  293.54 0854.43
2009/04/23 15:42:07.9     214     40    228    218    315  79.4  51.4  34382  293.34 0854.43
2009/04/23 15:42:08.0      71    -59    154     93    179 130.0  66.2  34388  293.44 0854.43
2009/04/23 15:42:08.1      71    -73    158    103    188 135.9  64.4  34384  293.39 0854.43
2009/04/23 15:42:08.2      74     20    239     77    251  74.9  81.2  34358  292.95 0854.43
2009/04/23 15:42:08.3     138     21    174    140    223  81.2  56.9  34298  291.91 0854.43
2009/04/23 15:42:08.4     137    -10    166    138    215  94.3  56.3  34312  292.15 0854.43
2009/04/23 15:42:08.5     204      2     17    205    206  89.2   5.0  34292  291.83 0854.43
2009/04/23 15:42:08.6     211     26     42    213    218  82.8  11.1  34296  291.88 0854.43
2009/04/23 15:42:08.7     128     42     47    135    144  71.8  19.4  34274  291.50 0854.43
2009/04/23 15:42:08.8     219     50     11    225    226  77.0   2.9  34270  291.45 0854.43
2009/04/23 15:42:08.9     517    -96    290    526    600 100.6  31.4  34272  291.49 0854.43
2009/04/23 15:42:09.0     295    238    121    380    399  51.1  17.7  34268  291.39 0854.43
2009/04/23 15:42:09.1     369      0    370    370    523  90.0  50.1  34322  292.33 0854.43
2009/04/23 15:42:09.2     186    165    306    249    394  48.4  56.8  34314  292.20 0854.43
2009/04/23 15:42:09.3      13    147    131    148    197   5.3  46.2  34318  292.25 0854.43
2009/04/23 15:42:09.4       9    293    159    294    334   1.8  30.7  34304  292.02 0854.43
2009/04/23 15:42:09.5      31     99    165    104    195  17.4  64.7  34304  292.01 0854.43
2009/04/23 15:42:09.6     -12     86    111     87    141 351.5  57.9  34298  291.91 0854.43
2009/04/23 15:42:09.7     -43   -111    131    120    177 201.4  52.7  34318  292.27 0854.43
2009/04/23 15:42:09.8      24   -315    222    317    387 175.5  38.5  34308  292.07 0854.43
2009/04/23 15:42:09.9     -85   -279    234    292    374 197.0  43.0  34312  292.17 0854.43
2009/04/23 15:42:10.0    -174   -256    222    310    381 214.3  39.3  34298  291.90 0854.43
2009/04/23 15:42:10.1     -79   -389    234    397    460 191.5  33.3  34274  291.50 0854.43
2009/04/23 15:42:10.2       0   -299    231    300    378 180.1  41.5  34282  291.64 0854.43
2009/04/23 15:42:10.3    -141   -276    133    311    338 207.1  24.6  34312  292.15 0854.43
2009/04/23 15:42:10.4    -136   -366    160    391    422 200.4  23.5  34268  291.40 0854.43
2009/04/23 15:42:10.5     -38   -317    228    320    392 186.9  39.1  34230  290.76 0854.43
2009/04/23 15:42:10.6      -3   -362    207    363    417 180.6  32.3  34216  290.52 0854.43
2009/04/23 15:42:10.7      -4   -331    244    332    412 180.8  39.9  34220  290.60 0854.43
2009/04/23 15:42:10.8     -59   -360    309    365    478 189.4  44.5  34278  291.57 0854.43
2009/04/23 15:42:10.9    -109   -413    335    428    543 194.8  42.0  34308  292.09 0854.43
2009/04/23 15:42:11.0     -93   -348    312    361    477 195.0  45.2  34254  291.18 0854.43
2009/04/23 15:42:11.1     -46   -320    345    324    473 188.2  52.1  34248  291.07 0854.43
2009/04/23 15:42:11.2     -22   -323    344    324    472 183.9  52.0  34230  290.77 0854.43
2009/04/23 15:42:11.3     131   -370    272    393    477 160.5  38.0  34256  291.21 0854.43
2009/04/23 15:42:11.4     327   -202    314    385    496 121.7  43.4  34270  291.45 0854.43
2009/04/23 15:42:11.5     376   -152    256    406    479 112.1  35.3  34226  290.70 0854.43
2009/04/23 15:42:11.6     288   -250    253    382    458 130.9  36.5  34206  290.34 0854.43
2009/04/23 15:42:11.7      64   -295    262    303    400 167.6  45.2  34256  291.20 0854.43
2009/04/23 15:42:11.8      18    -69    209     72    221 164.9  81.0  34270  291.43 0854.43
2009/04/23 15:42:11.9      19    -23    189     31    191 140.3  90.0  34286  291.71 0854.43
2009/04/23 15:42:12.0      34    -80    171     88    192 156.8  71.1  34262  291.30 0854.43
2009/04/23 15:42:12.1     176   -131    259    220    339 126.6  55.5  34280  291.60 0854.43
2009/04/23 15:42:12.2     120     11    296    121    319  84.3  76.7  34284  291.68 0854.43
2009/04/23 15:42:12.3     219     51    318    226    390  76.7  61.3  34346  292.73 0854.43
2009/04/23 15:42:12.4     182     -9    345    183    390  93.0  69.9  34334  292.53 0854.43
2009/04/23 15:42:12.6     496    215    189    541    574  66.5  19.3  34188  290.06 0854.43
2009/04/23 15:42:12.7     490    241    187    547    579  63.8  18.9  34158  289.53 0854.43
2009/04/23 15:42:12.8     467    251    177    531    561  61.7  18.5  34158  289.53 0854.43
2009/04/23 15:42:12.9     472    300    197    560    593  57.5  20.1  34158  289.54 0854.43
2009/04/23 15:42:13.0     493    407    288    640    701  50.5  25.9  34170  289.73 0854.43
2009/04/23 15:42:13.1     637    362    258    733    777  60.4  20.1  34170  289.73 0854.43
2009/04/23 15:42:13.2     607    288    336    672    751  64.6  28.6  34166  289.66 0854.43
2009/04/23 15:42:13.3     549    551    329    778    844  44.9  24.3  34156  289.52 0854.43
2009/04/23 15:42:13.4     531    343    293    633    697  57.2  26.6  34152  289.44 0854.43
2009/04/23 15:42:13.5     493    271    449    563    720  61.2  42.7  34164  289.65 0854.43
2009/04/23 15:42:13.6     282    426    213    512    554  33.5  24.1  34194  290.14 0854.43
2009/04/23 15:42:13.7      77    378    278    386    475  11.6  39.3  34192  290.11 0854.43
2009/04/23 15:42:13.8     229    331    272    403    486  34.8  37.2  34180  289.92 0854.43
2009/04/23 15:42:13.9     334    379    228    506    554  41.4  25.9  34176  289.84 0854.43
2009/04/23 15:42:14.0     269    284    174    392    428  43.4  25.3  34180  289.92 0854.43
2009/04/23 15:42:14.1     239    243    200    342    396  44.5  33.0  34184  289.99 0854.43
2009/04/23 15:42:14.2     191    291    209    349    406  33.3  33.7  34186  290.01 0854.43
2009/04/23 15:42:14.3     185    239    165    303    345  37.8  31.0  34176  289.84 0854.43
2009/04/23 15:42:14.4     135     98     90    167    189  54.0  30.8  34184  289.99 0854.43
2009/04/23 15:42:14.5     226    129    155    261    303  60.2  33.5  34184  289.97 0854.43
2009/04/23 15:42:14.6     174    169     92    243    259  45.8  21.7  34182  289.93 0854.43
2009/04/23 15:42:14.7     100    181     82    208    223  29.0  22.8  34182  289.94 0854.43
2009/04/23 15:42:14.8      70    148     58    164    175  25.4  19.6  34178  289.89 0854.43
2009/04/23 15:42:14.9     -51    364    -39    368    371 351.9  -6.1  34178  289.86 0854.43
2009/04/23 15:42:15.0     246    246     91    349    361  45.0  14.7  34176  289.84 0854.43
2009/04/23 15:42:15.1     218     74    248    231    338  71.2  52.2  34182  289.93 0854.43
2009/04/23 15:42:15.2     233    -35    268    236    357  98.6  54.2  34238  290.90 0854.43
2009/04/23 15:42:15.3     267    -25    260    269    374  95.5  49.0  34240  290.93 0854.43
2009/04/23 15:42:15.4     341    -42    212    344    404  97.1  34.6  34274  291.51 0854.43
2009/04/23 15:42:15.5     305    -30    107    307    326  95.7  19.2  34214  290.48 0854.43
2009/04/23 15:42:15.6     143   -142     79    202    216 134.7  22.8  34254  291.18 0854.43
2009/04/23 15:42:15.7     176   -135    156    222    271 127.5  38.6  34248  291.05 0854.43
2009/04/23 15:42:15.8     158   -157    130    224    258 134.8  32.7  34246  291.02 0854.43
2009/04/23 15:42:15.9     226    -66    107    236    259 106.4  26.2  34220  290.59 0854.43
2009/04/23 15:42:16.0     279    -57     30    285    287 101.7   6.1  34226  290.68 0854.43
2009/04/23 15:42:16.1     360   -216     -9    421    422 121.0  -1.3  34236  290.85 0854.43
2009/04/23 15:42:16.2     249   -258   -109    359    375 136.1 -21.8  34218  290.55 0854.43
2009/04/23 15:42:16.3     275   -140     16    309    310 117.1   3.1  34254  291.16 0854.43
2009/04/23 15:42:16.4     384    -66     60    390    395  99.8   8.8  34252  291.13 0854.43
2009/04/23 15:42:16.5     279     -8     55    280    286  91.7  11.1  34242  290.97 0854.43
2009/04/23 15:42:16.6     177    -48     48    184    191 105.3  14.7  34242  290.98 0854.43
2009/04/23 15:42:16.7     129   -156     41    203    208 140.3  11.4  34228  290.72 0854.43
2009/04/23 15:42:16.8     143   -186    228    235    327 142.4  49.2  34238  290.88 0854.43
2009/04/23 15:42:16.9     202   -146    187    250    312 126.0  40.4  34236  290.85 0854.43
2009/04/23 15:42:17.0      42   -127    240    134    274 161.5  68.8  34256  291.21 0854.43
2009/04/23 15:42:17.1      52   -158     91    167    190 161.7  31.0  34232  290.79 0854.43
2009/04/23 15:42:17.2    -121   -204    140    238    276 210.7  33.4  34248  291.05 0854.43
2009/04/23 15:42:17.3     -55   -180     66    189    201 197.2  19.2  34246  291.03 0854.43
2009/04/23 15:42:17.4     111   -171     10    205    206 147.0   2.8  34232  290.81 0854.43
2009/04/23 15:42:17.5      75   -222     47    235    240 161.3  11.4  34224  290.65 0854.43
2009/04/23 15:42:17.6       5   -194     81    195    211 178.4  23.8  34226  290.69 0854.43
2009/04/23 15:42:17.7    -107   -194    109    222    247 208.9  28.2  34238  290.90 0854.43
2009/04/23 15:42:17.8     -94   -213     29    233    235 203.8   7.2  34234  290.82 0854.43
2009/04/23 15:42:17.9     -84   -235     77    250    262 199.8  17.3  34224  290.65 0854.43
2009/04/23 15:42:18.0    -112   -301     36    322    325 200.5   6.4  34252  291.14 0854.43
2009/04/23 15:42:18.1    -202   -284     67    349    356 215.5  11.0  34264  291.35 0854.43
2009/04/23 15:42:18.2    -192   -231     38    301    304 219.6   7.2  34252  291.14 0854.44
2009/04/23 15:42:18.3    -159   -218    120    270    295 216.1  25.3  34224  290.66 0854.44
2009/04/23 15:42:18.4    -191   -225    113    296    316 220.3  21.8  34242  290.97 0854.44
2009/04/23 15:42:18.5     -75   -212    186    226    292 199.6  43.7  34226  290.68 0854.44
2009/04/23 15:42:18.6      -8   -131    176    132    220 183.6  59.4  34236  290.86 0854.44
2009/04/23 15:42:18.7     -27   -133    144    136    198 191.5  52.0  34232  290.81 0854.44
2009/04/23 15:42:18.8     -43   -128    168    136    216 198.7  56.6  34228  290.72 0854.44
2009/04/23 15:42:18.9     -36   -133    169    138    218 195.2  56.4  34228  290.74 0854.44
2009/04/23 15:42:19.0      19   -160     71    162    176 173.1  25.1  34218  290.57 0854.44
2009/04/23 15:42:19.1      10   -170     95    171    195 176.4  31.4  34216  290.53 0854.44
2009/04/23 15:42:19.2      31   -155    127    159    203 168.4  42.7  34216  290.53 0854.44
2009/04/23 15:42:19.3      39   -180    127    185    224 167.7  37.6  34210  290.41 0854.44
2009/04/23 15:42:19.4      34   -244    132    247    280 171.9  30.3  34198  290.22 0854.44
2009/04/23 15:42:19.5     -19   -334    212    335    396 183.4  35.3  34202  290.28 0854.44
2009/04/23 15:42:19.6     -93   -396    141    407    432 193.3  19.2  34202  290.28 0854.44
2009/04/23 15:42:19.7      37   -370    184    372    415 174.2  28.2  34202  290.27 0854.44
2009/04/23 15:42:19.8      27   -348    198    350    402 175.5  32.0  34208  290.37 0854.44
2009/04/23 15:42:19.9     -25   -368    107    369    385 183.9  16.1  34208  290.37 0854.44
2009/04/23 15:42:20.0       2   -311     65    312    319 179.5  11.8  34202  290.29 0854.44
2009/04/23 15:42:20.1      25   -330     70    331    339 175.7  12.0  34202  290.27 0854.44
2009/04/23 15:42:20.2       4   -307     -6    308    309 179.1  -1.2  34206  290.34 0854.44
2009/04/23 15:42:20.3      88   -266     60    281    288 161.5  12.2  34206  290.34 0854.44
2009/04/23 15:42:20.4     167   -298    140    342    369 150.7  23.6  34202  290.30 0854.44
2009/04/23 15:42:20.5     207   -290    189    357    403 144.4  30.2  34202  290.27 0854.44
2009/04/23 15:42:20.6     223   -337    142    405    430 146.5  19.3  34212  290.46 0854.44
2009/04/23 15:42:20.7     218   -314    201    383    432 145.3  30.0  34212  290.44 0854.44
2009/04/23 15:42:20.8     219   -264    193    344    394 140.3  31.7  34222  290.64 0854.44
2009/04/23 15:42:20.9     368   -166    126    404    424 114.3  17.3  34224  290.65 0854.44
2009/04/23 15:42:21.0     269   -319    -19    418    419 139.8  -2.7  34216  290.53 0854.44
2009/04/23 15:42:21.1     281   -423     -6    508    509 146.4  -0.7  34206  290.35 0854.44
2009/04/23 15:42:21.2     201   -363     97    416    428 151.0  13.1  34200  290.26 0854.44
2009/04/23 15:42:21.3     135   -310     74    339    348 156.5  12.4  34204  290.33 0854.44
2009/04/23 15:42:21.4     136   -253    -11    288    289 151.7  -2.2  34214  290.48 0854.44
2009/04/23 15:42:21.5      59   -218      3    226    227 164.9   1.0  34218  290.57 0854.44
2009/04/23 15:42:21.6     140   -107    -30    177    180 127.5  -9.6  34214  290.48 0854.44
2009/04/23 15:42:21.7     137   -166    -34    216    219 140.6  -9.0  34210  290.41 0854.44
2009/04/23 15:42:21.8      92   -108    -48    143    150 139.5 -23.6  34214  290.50 0854.44
2009/04/23 15:42:21.9     108    -89    -48    141    148 129.5 -23.3  34212  290.47 0854.44
2009/04/23 15:42:22.0      92   -145    -51    173    180 147.5 -21.5  34218  290.55 0854.44
2009/04/23 15:42:22.1      43   -131    -49    138    147 161.7 -19.6  34214  290.50 0854.44
2009/04/23 15:42:22.2       5   -111    125    112    167 177.3  53.5  34220  290.58 0854.45
2009/04/23 15:42:22.3    -107   -219    134    244    278 206.1  31.3  34232  290.80 0854.45
2009/04/23 15:42:22.4    -247   -193     74    314    323 232.0  13.3  34248  291.07 0854.45
2009/04/23 15:42:22.5    -170   -226    240    284    371 217.0  44.4  34228  290.71 0854.45
2009/04/23 15:42:22.6    -178    -86    131    198    237 244.2  36.5  34238  290.91 0854.45
2009/04/23 15:42:22.7     -15    -76     88     78    117 191.5  53.7  34230  290.77 0854.45
2009/04/23 15:42:22.8     181     -8     63    182    193  92.8  19.2  34220  290.60 0854.45
2009/04/23 15:42:22.9     198    -31     22    201    203  99.0   6.5  34222  290.64 0854.45
2009/04/23 15:42:23.0     282    -47     14    287    288  99.6   2.9  34198  290.22 0854.45
2009/04/23 15:42:23.1     293      4    -64    294    302  89.2 -12.4  34210  290.41 0854.45
2009/04/23 15:42:23.2     231     22    -71    233    244  84.5 -17.0  34210  290.42 0854.45
2009/04/23 15:42:23.3     208   -120    -25    241    243 120.0  -6.1  34210  290.41 0854.45
2009/04/23 15:42:23.4     106   -223     92    248    264 154.5  21.3  34208  290.39 0854.45
2009/04/23 15:42:23.5      65   -274    152    282    320 166.6  30.8  34194  290.15 0854.45
2009/04/23 15:42:23.6      -8   -295     72    296    305 181.6  13.7  34198  290.22 0854.45
2009/04/23 15:42:23.7     -73   -229     51    241    247 197.8  12.1  34198  290.20 0854.45
2009/04/23 15:42:23.8    -252   -267     10    368    369 223.4   1.7  34202  290.27 0854.45
2009/04/23 15:42:23.9     -75   -232     83    244    259 197.9  18.9  34206  290.36 0854.45
2009/04/23 15:42:24.0    -106   -317     82    335    345 198.5  13.8  34202  290.30 0854.45
2009/04/23 15:42:24.1    -230   -373    102    439    451 211.6  13.1  34208  290.38 0854.45
2009/04/23 15:42:24.2    -156   -163     79    226    240 223.7  19.4  34194  290.14 0854.44
2009/04/23 15:42:24.3    -202   -353    143    407    432 209.8  19.4  34204  290.31 0854.44
2009/04/23 15:42:24.4     -99   -349    172    363    401 195.9  27.2  34202  290.27 0854.44
2009/04/23 15:42:24.5    -111   -278    112    300    320 201.8  21.4  34204  290.31 0854.44
2009/04/23 15:42:24.6    -145   -213    259    258    365 214.3  50.1  34200  290.25 0854.44
2009/04/23 15:42:24.7     -82   -206    219    223    312 201.8  49.7  34216  290.51 0854.44
2009/04/23 15:42:24.8    -103   -186    100    213    235 209.0  27.0  34222  290.62 0854.44
2009/04/23 15:42:24.9     -71    -14     48     73     87 258.5  36.0  34224  290.65 0854.44
2009/04/23 15:42:25.0     -46     21     22     51     55 295.4  25.1  34238  290.91 0854.44
2009/04/23 15:42:25.1     110    110     48    156    164  45.0  17.1  34294  291.84 0854.44
2009/04/23 15:42:25.2     185     72    135    199    240  68.5  37.6  34308  292.08 0854.44
2009/04/23 15:42:25.3     117      9    109    118    160  85.2  47.7  34286  291.72 0854.44
2009/04/23 15:42:25.4     -39   -131     26    137    140 196.9  11.1  34292  291.83 0854.44
2009/04/23 15:42:25.5    -131   -117    -37    177    181 228.2 -11.9  34286  291.71 0854.44
2009/04/23 15:42:25.6     -79    -83    -36    115    120 223.7 -22.3  34260  291.26 0854.44
2009/04/23 15:42:25.7     -52   -101    -38    114    121 207.2 -18.7  34222  290.62 0854.44
2009/04/23 15:42:25.8    -124   -248     40    278    281 206.5   8.2  34226  290.68 0854.44
2009/04/23 15:42:25.9    -167   -177    124    244    273 223.3  29.2  34250  291.09 0854.44
2009/04/23 15:42:26.0     -94   -198    134    220    257 205.3  34.4  34258  291.24 0854.44
2009/04/23 15:42:26.1    -167   -261     58    311    317 212.6  10.6  34210  290.41 0854.44
2009/04/23 15:42:26.2    -155   -323     15    359    360 205.7   2.5  34202  290.27 0854.44
2009/04/23 15:42:26.3    -138   -307     -8    337    338 204.2  -1.4  34198  290.23 0854.44
2009/04/23 15:42:26.4    -171   -248    188    302    355 214.5  35.0  34210  290.43 0854.44
2009/04/23 15:42:26.5    -209   -337    190    397    440 211.9  27.3  34222  290.63 0854.44
2009/04/23 15:42:26.6    -173   -310    118    356    376 209.2  18.4  34212  290.47 0854.44
2009/04/23 15:42:26.7     -62   -251    158    259    303 194.0  34.4  34246  291.04 0854.44
2009/04/23 15:42:26.8    -188   -294    221    350    413 212.6  35.5  34228  290.71 0854.44
2009/04/23 15:42:26.9    -182   -368    202    411    457 206.3  28.1  34212  290.44 0854.44
2009/04/23 15:42:27.0     -71   -386    188    393    435 190.5  27.3  34216  290.51 0854.44
2009/04/23 15:42:27.1    -117   -325    179    346    389 199.9  29.3  34228  290.71 0854.44
2009/04/23 15:42:27.2    -114   -363    207    381    433 197.5  31.0  34228  290.73 0854.44
2009/04/23 15:42:27.3    -105   -396    230    410    470 194.9  31.9  34232  290.80 0854.44
2009/04/23 15:42:27.4     -54   -408    182    412    450 187.6  25.2  34220  290.60 0854.44
2009/04/23 15:42:27.5      14   -361    229    362    428 177.7  35.5  34234  290.84 0854.44
2009/04/23 15:42:27.6      13   -395    157    396    425 178.1  22.9  34218  290.56 0854.44
2009/04/23 15:42:27.7      20   -443    194    444    484 177.3  25.2  34228  290.74 0854.44
2009/04/23 15:42:27.8      73   -431    222    438    491 170.3  28.9  34212  290.44 0854.44
2009/04/23 15:42:27.9     122   -350    258    371    451 160.7  38.4  34208  290.38 0854.44
2009/04/23 15:42:28.0     196   -235    209    307    371 140.1  37.6  34210  290.43 0854.44
2009/04/23 15:42:28.1      69   -173    204    187    276 158.1  52.7  34212  290.44 0854.44
2009/04/23 15:42:28.2      45   -197    171    203    265 167.1  44.3  34230  290.75 0854.43
2009/04/23 15:42:28.3      45   -214    154    219    267 168.0  38.6  34206  290.36 0854.43
2009/04/23 15:42:28.4      33   -182    148    186    237 169.5  42.7  34208  290.40 0854.43
2009/04/23 15:42:28.5     172   -102     29    201    204 120.7   8.2  34204  290.33 0854.43
2009/04/23 15:42:28.6     197    -39    -15    201    202 101.4  -4.4  34206  290.35 0854.43
2009/04/23 15:42:28.7     140    -19     12    142    143  97.9   5.0  34202  290.28 0854.43
2009/04/23 15:42:28.8     119    -56    109    132    171 115.3  43.7  34204  290.33 0854.43
2009/04/23 15:42:28.9     142   -117    -37    185    189 129.5 -11.6  34206  290.36 0854.43
2009/04/23 15:42:29.0     143   -139      2    200    201 134.0   0.7  34208  290.40 0854.43
2009/04/23 15:42:29.1     131   -117      0    176    177 131.8   0.2  34206  290.36 0854.43
2009/04/23 15:42:29.2     129   -100     24    164    166 127.8   8.5  34210  290.41 0854.43
2009/04/23 15:42:29.3      60   -138     58    151    161 156.3  22.0  34202  290.30 0854.43
2009/04/23 15:42:29.4      80   -201    137    217    256 158.2  35.5  34208  290.39 0854.43
2009/04/23 15:42:29.5      81   -286    122    298    322 164.2  23.5  34212  290.44 0854.43
2009/04/23 15:42:29.6      52   -324    114    329    349 170.9  19.2  34214  290.50 0854.43
2009/04/23 15:42:29.7     -27   -230     -9    232    233 186.9  -2.2  34210  290.43 0854.43
2009/04/23 15:42:29.8     -84   -197     26    215    217 203.2   7.1  34206  290.36 0854.43
2009/04/23 15:42:29.9     -13   -123    -78    124    146 186.2 -39.9  34214  290.50 0854.43
2009/04/23 15:42:30.0      25    -82      5     86     87 162.6   3.8  34214  290.50 0854.43
2009/04/23 15:42:30.1      84    -28     20     89     92 108.4  12.6  34214  290.48 0854.43
2009/04/23 15:42:30.2      73      0    119     74    140  90.0  64.7  34218  290.57 0854.44
2009/04/23 15:42:30.3      41     60     77     73    106  34.3  51.6  34224  290.65 0854.44
2009/04/23 15:42:30.4       7     95     44     96    105   4.5  26.6  34230  290.75 0854.44
2009/04/23 15:42:30.5     -19     71    -29     74     79 344.9 -26.4  34222  290.62 0854.44
2009/04/23 15:42:30.6     -13     13    -27     19     33 313.3 -64.9  34224  290.67 0854.44
2009/04/23 15:42:30.7      19    -20    -20     28     34 136.6 -42.0  34224  290.67 0854.44
2009/04/23 15:42:30.8      30    -58    -31     66     72 152.8 -31.5  34228  290.72 0854.44
2009/04/23 15:42:30.9     -50    -21      0     55     56 246.5   0.8  34220  290.60 0854.44
2009/04/23 15:42:31.0    -174    -87     50    195    202 243.4  14.5  34212  290.47 0854.44
2009/04/23 15:42:31.1    -155    -42     88    161    183 254.9  31.3  34218  290.55 0854.44
2009/04/23 15:42:31.2    -151      0     47    152    160 270.0  17.3  34212  290.45 0854.44
2009/04/23 15:42:31.3    -120    108      4    162    163 312.2   1.6  34214  290.50 0854.44
2009/04/23 15:42:31.4     -72    108     16    131    133 326.2   7.1  34216  290.53 0854.44
2009/04/23 15:42:31.5    -296     92     12    310    311 287.3   2.3  34212  290.46 0854.44
2009/04/23 15:42:31.6    -374    -40   -170    377    413 263.8 -30.4  34218  290.54 0854.44
2009/04/23 15:42:31.7    -312     -4   -202    313    372 269.1 -40.1  34178  289.87 0854.44
2009/04/23 15:42:31.8    -417   -119    -39    434    436 254.0  -5.2  34206  290.36 0854.44
2009/04/23 15:42:31.9    -296    -65    -16    304    305 257.6  -3.1  34200  290.26 0854.44
2009/04/23 15:42:32.0    -408   -171   -104    443    456 247.3 -13.3  34200  290.26 0854.44
2009/04/23 15:42:32.1    -418    -98     68    430    436 256.8   9.0  34232  290.78 0854.44
2009/04/23 15:42:32.2    -482   -105    -64    494    499 257.6  -7.5  34196  290.17 0854.42
2009/04/23 15:42:32.3    -308   -270     68    410    416 228.7   9.5  34168  289.72 0854.42
2009/04/23 15:42:32.4    -173   -272    155    323    358 212.5  27.4  34178  289.87 0854.42
2009/04/23 15:42:32.5    -277   -185    108    334    352 236.3  18.0  34178  289.86 0854.42
2009/04/23 15:42:32.6    -424    -26   -126    425    443 266.4 -21.5  34188  290.05 0854.42
2009/04/23 15:42:32.7    -456    -32    -81    458    466 266.0 -10.1  34208  290.39 0854.42
2009/04/23 15:42:32.8    -347    -48   -100    351    364 262.0 -20.7  34204  290.33 0854.42
2009/04/23 15:42:32.9     -30   -178     -7    181    182 189.8  -2.2  34192  290.11 0854.42
2009/04/23 15:42:33.0       0   -331    114    332    352 180.0  18.9  34184  289.98 0854.42
2009/04/23 15:42:33.1      59   -184    209    194    285 162.2  52.2  34194  290.14 0854.42
2009/04/23 15:42:33.2      36     12    161     38    165  71.6  86.9  34204  290.33 0854.42
2009/04/23 15:42:33.3    -109     26     99    113    150 283.7  45.8  34190  290.09 0854.42
2009/04/23 15:42:33.4     -66    125     96    142    171 331.9  37.3  34196  290.18 0854.42
2009/04/23 15:42:33.5    -163    137     89    214    231 310.0  23.6  34198  290.21 0854.42
2009/04/23 15:42:33.6    -178    148    113    232    258 309.6  27.8  34192  290.10 0854.42
2009/04/23 15:42:33.7    -106    112    150    155    215 316.7  49.4  34198  290.23 0854.42
2009/04/23 15:42:33.8    -126     76     96    148    176 301.1  36.0  34196  290.19 0854.42
2009/04/23 15:42:33.9    -305    -36   -193    308    363 263.2 -39.6  34164  289.65 0854.42
2009/04/23 15:42:34.0    -381   -126     14    402    403 251.6   2.1  34172  289.77 0854.42
2009/04/23 15:42:34.1    -368    -29    -35    370    372 265.4  -5.5  34180  289.91 0854.42
2009/04/23 15:42:34.2    -375    -92   -106    387    402 256.1 -15.4  34182  289.96 0854.42
2009/04/23 15:42:34.3    -243   -190    -39    309    312 232.0  -7.3  34178  289.88 0854.42
2009/04/23 15:42:34.4    -216     44     41    221    225 281.7  10.6  34184  289.97 0854.42
2009/04/23 15:42:34.5    -206     86    148    224    268 292.6  36.5  34190  290.09 0854.42
2009/04/23 15:42:34.6    -214     43    149    219    264 281.5  37.6  34192  290.10 0854.42
2009/04/23 15:42:34.7    -310    -99    123    326    348 252.2  21.6  34196  290.18 0854.42
2009/04/23 15:42:34.8    -298   -115    153    320    354 248.9  27.3  34228  290.71 0854.42
2009/04/23 15:42:34.9    -266   -103    113    286    307 248.7  23.0  34228  290.71 0854.42
2009/04/23 15:42:35.0    -210   -184    234    280    364 228.7  44.1  34214  290.49 0854.42
2009/04/23 15:42:35.1    -133   -196    204    238    313 214.2  45.1  34218  290.56 0854.42
2009/04/23 15:42:35.2    -117    -43    180    125    219 249.6  62.1  34222  290.62 0854.42
2009/04/23 15:42:35.3    -180     68    139    193    237 290.8  39.5  34206  290.36 0854.42
2009/04/23 15:42:35.4    -121      9     87    122    149 274.4  39.5  34216  290.53 0854.42
2009/04/23 15:42:35.5    -141   -107    111    178    209 232.7  35.2  34230  290.75 0854.42
2009/04/23 15:42:35.6    -148   -119    181    191    263 231.1  48.5  34218  290.56 0854.42
2009/04/23 15:42:35.7    -149    -59     89    161    183 248.3  31.4  34210  290.41 0854.42
2009/04/23 15:42:35.8     -64   -106     50    124    133 211.2  23.0  34204  290.31 0854.42
2009/04/23 15:42:35.9    -143    -38     40    149    155 255.0  15.3  34208  290.40 0854.42
2009/04/23 15:42:36.0    -111    -30     33    116    121 254.9  16.3  34208  290.38 0854.42
2009/04/23 15:42:36.1    -220     59     98    228    248 285.0  24.9  34214  290.48 0854.42
2009/04/23 15:42:36.2    -240     46     58    245    252 281.0  13.5  34214  290.49 0854.42
2009/04/23 15:42:36.3    -212     13     55    213    221 273.7  14.5  34214  290.48 0854.42
2009/04/23 15:42:36.4     -75   -182     90    197    216 202.5  26.2  34186  290.02 0854.42
2009/04/23 15:42:36.5       6   -230    100    231    251 178.4  24.9  34188  290.05 0854.42
2009/04/23 15:42:36.6      39   -129    153    135    204 163.1  54.2  34192  290.11 0854.42
2009/04/23 15:42:36.7     -33   -158    195    162    253 191.8  56.3  34190  290.09 0854.42
2009/04/23 15:42:36.8     -15   -197    185    198    270 184.5  47.9  34196  290.17 0854.42
2009/04/23 15:42:36.9      16   -215    199    216    293 175.5  47.9  34200  290.26 0854.42
2009/04/23 15:42:37.0     -68   -253    230    263    349 195.2  45.6  34194  290.15 0854.42
2009/04/23 15:42:37.1      -7   -246    166    247    297 181.8  37.3  34188  290.05 0854.42
2009/04/23 15:42:37.2     -41   -188    157    193    248 192.3  43.5  34194  290.16 0854.42
2009/04/23 15:42:37.3       0   -178    189    179    260 180.0  52.0  34208  290.39 0854.42
2009/04/23 15:42:37.4     -48   -226    212    232    314 192.0  47.1  34198  290.22 0854.42
2009/04/23 15:42:37.5     -77   -278    100    289    307 195.6  19.2  34188  290.03 0854.42
2009/04/23 15:42:37.6    -132   -222    126    259    288 210.7  27.8  34182  289.95 0854.42
2009/04/23 15:42:37.7    -162   -195    138    254    289 219.6  31.0  34186  290.00 0854.42
2009/04/23 15:42:37.8    -216   -154     44    266    270 234.5   9.5  34184  289.97 0854.42
2009/04/23 15:42:37.9    -154    -83     56    176    185 241.6  17.9  34180  289.92 0854.42
2009/04/23 15:42:38.0     -63   -125    103    141    174 206.7  39.9  34184  289.99 0854.42
2009/04/23 15:42:38.1     -97   -160     94    188    210 211.2  28.5  34196  290.18 0854.42
2009/04/23 15:42:38.2    -110   -142     58    180    190 217.8  17.9  34194  290.16 0854.42
2009/04/23 15:42:38.3    -140   -220     19    262    263 212.5   4.2  34184  289.98 0854.42
2009/04/23 15:42:38.4    -194   -175     15    262    263 227.8   3.3  34176  289.85 0854.42
2009/04/23 15:42:38.5    -215   -241    -10    324    325 221.7  -1.9  34192  290.12 0854.42
2009/04/23 15:42:38.6    -176   -291    -10    341    342 211.1  -1.8  34192  290.11 0854.42
2009/04/23 15:42:38.7    -174   -286     16    335    336 211.3   2.8  34204  290.32 0854.42
2009/04/23 15:42:38.8    -156   -282      9    323    324 209.0   1.7  34188  290.05 0854.42
2009/04/23 15:42:38.9     -81   -277     34    289    292 196.3   6.9  34192  290.10 0854.42
2009/04/23 15:42:39.0     -21   -242    101    244    264 185.1  23.6  34198  290.20 0854.42
2009/04/23 15:42:39.1      21   -279     69    280    289 175.6  13.9  34186  290.02 0854.41
2009/04/23 15:42:39.2      72   -304    -17    313    314 166.6  -3.1  34184  289.98 0854.41
2009/04/23 15:42:39.3      80   -409    113    417    433 168.9  15.2  34186  290.00 0854.41
2009/04/23 15:42:39.4     141   -345    135    373    396 157.7  20.8  34188  290.04 0854.41
2009/04/23 15:42:39.5     165   -284    112    329    348 149.7  18.9  34182  289.96 0854.41
2009/04/23 15:42:39.6     117   -116    117    165    202 134.7  38.8  34188  290.04 0854.41
2009/04/23 15:42:39.7      46    -93    102    104    145 153.7  50.0  34192  290.13 0854.41
2009/04/23 15:42:39.9     -24    -79     86     83    119 197.4  50.7  34196  290.19 0854.41
2009/04/23 15:42:40.0     -19    -30     40     36     53 212.5  52.2  34198  290.21 0854.41
2009/04/23 15:42:40.1    -103     48     18    114    116 295.2   9.0  34188  290.06 0854.41
2009/04/23 15:42:40.2    -131     43    -32    138    142 288.2 -13.3  34192  290.11 0854.41
2009/04/23 15:42:40.3     -54     91    -69    107    127 329.3 -40.0  34192  290.13 0854.41
2009/04/23 15:42:40.4     -64     58    -43     87     97 312.2 -32.2  34194  290.14 0854.41
2009/04/23 15:42:40.5    -117     77    -81    141    162 303.3 -37.1  34192  290.13 0854.41
2009/04/23 15:42:40.6    -132    104    -57    169    179 308.4 -18.7  34200  290.25 0854.41
2009/04/23 15:42:40.7    -340     47   -123    344    366 277.9 -19.7  34182  289.96 0854.41
2009/04/23 15:42:40.8    -155     72      5    172    173 295.1   1.8  34190  290.09 0854.41
2009/04/23 15:42:40.9    -159     12     85    160    181 274.4  30.3  34200  290.26 0854.41
2009/04/23 15:42:41.0    -230   -104    -22    253    255 245.6  -5.1  34204  290.31 0854.41
2009/04/23 15:42:41.1    -196   -104      4    222    223 242.0   1.2  34212  290.45 0854.41
2009/04/23 15:42:41.2    -209   -151    -29    259    261 234.1  -6.5  34214  290.48 0854.41
2009/04/23 15:42:41.3    -160    -28     -6    163    164 259.9  -2.2  34212  290.47 0854.41
2009/04/23 15:42:41.4    -102    -40   -132    110    171 248.3 -60.5  34192  290.13 0854.41
2009/04/23 15:42:41.5    -178    -86    -88    198    216 244.2 -29.7  34204  290.31 0854.41
2009/04/23 15:42:41.6    -291    -10    -16    292    293 267.9  -3.2  34224  290.65 0854.41
2009/04/23 15:42:41.7     -68     15     29     70     75 282.4  23.1  34220  290.60 0854.41
2009/04/23 15:42:41.8      89   -138     75    165    181 147.3  26.2  34202  290.30 0854.41
2009/04/23 15:42:41.9     143   -256    104    294    313 150.8  19.6  34190  290.07 0854.41
2009/04/23 15:42:42.0      99   -297    110    314    333 161.5  19.3  34194  290.14 0854.41
2009/04/23 15:42:42.1     168   -242    -56    295    301 145.3 -10.9  34194  290.14 0854.41
2009/04/23 15:42:42.2     366   -174     90    406    416 115.5  12.5  34188  290.04 0854.41
2009/04/23 15:42:42.3      60   -321    247    327    409 169.3  40.7  34188  290.04 0854.41
2009/04/23 15:42:42.4      31   -287    164    289    332 173.7  32.1  34192  290.10 0854.41
2009/04/23 15:42:42.5      61   -299    171    306    350 168.4  31.6  34150  289.40 0854.41
2009/04/23 15:42:42.6     -98   -369    236    382    449 195.0  34.8  34184  289.97 0854.41
2009/04/23 15:42:42.7    -156   -382    219    413    467 202.3  30.2  34188  290.05 0854.41
2009/04/23 15:42:42.8    -179   -231    174    293    340 217.9  33.6  34188  290.05 0854.41
2009/04/23 15:42:42.9    -147   -308    173    342    383 205.5  28.9  34178  289.86 0854.41
2009/04/23 15:42:43.0    -247   -375    -86    450    459 213.4 -10.9  34182  289.95 0854.41
2009/04/23 15:42:43.1    -153   -377    136    407    430 202.1  18.6  34186  290.02 0854.41
2009/04/23 15:42:43.2     -81   -235    200    249    319 199.2  42.9  34194  290.14 0854.42
2009/04/23 15:42:43.3     -61   -178    127    189    227 198.9  37.3  34198  290.21 0854.42
2009/04/23 15:42:43.4     -62   -300    148    307    340 191.8  27.4  34190  290.08 0854.42
2009/04/23 15:42:43.5    -217   -607     67    645    649 199.7   6.0  34194  290.16 0854.42
2009/04/23 15:42:43.6    -177   -454    -61    488    492 201.3  -7.2  34204  290.32 0854.42
2009/04/23 15:42:43.7    -263   -628      4    681    682 202.7   0.4  34174  289.82 0854.42
2009/04/23 15:42:43.8    -257   -582    115    637    648 203.8  10.2  34190  290.09 0854.42
2009/04/23 15:42:43.9    -292   -323     46    436    439 222.2   6.1  34170  289.75 0854.42
2009/04/23 15:42:44.0    -379   -565    168    681    702 213.9  13.9  34192  290.10 0854.42
2009/04/23 15:42:44.1    -698   -521   -225    872    901 233.3 -14.5  34156  289.49 0854.42
2009/04/23 15:42:44.2    -285   -393   -137    486    504 216.0 -20.4  34166  289.69 0854.42
2009/04/23 15:42:44.3    -315   -121     28    338    340 249.0   4.9  34176  289.84 0854.42
2009/04/23 15:42:44.4    -246   -377    176    451    484 213.1  22.4  34188  290.05 0854.42
2009/04/23 15:42:44.5    -235   -207     15    314    315 228.7   2.9  34198  290.20 0854.42
2009/04/23 15:42:44.6    -428    -72    137    435    457 260.4  17.5  34204  290.31 0854.42
2009/04/23 15:42:44.7    -307   -136    -19    336    337 246.0  -3.3  34198  290.20 0854.42
2009/04/23 15:42:44.8    -335   -225    -95    404    416 236.0 -13.3  34184  289.99 0854.42
2009/04/23 15:42:44.9    -414      4    121    415    433 270.6  16.3  34192  290.12 0854.42
2009/04/23 15:42:45.0    -318     44     18    322    323 278.0   3.3  34194  290.15 0854.42
2009/04/23 15:42:45.1    -344    -64     -8    350    351 259.4  -1.4  34198  290.20 0854.42
2009/04/23 15:42:45.2    -190   -190     58    270    277 225.0  12.2  34188  290.05 0854.42
2009/04/23 15:42:45.3    -287    -67     -5    295    296 256.7  -1.2  34196  290.17 0854.42
2009/04/23 15:42:45.4    -393     -4     21    394    395 269.4   3.1  34194  290.16 0854.42
2009/04/23 15:42:45.5    -344   -146   -156    374    405 247.0 -28.5  34180  289.91 0854.42
2009/04/23 15:42:45.6    -492     28   -241    493    548 273.3 -32.5  34140  289.24 0854.42
2009/04/23 15:42:45.7    -582   -126   -291    596    663 257.7 -32.4  34148  289.38 0854.42
2009/04/23 15:42:45.8    -567    -20    139    568    585 267.9  13.8  34182  289.93 0854.42
2009/04/23 15:42:45.9    -457   -272    -32    532    533 239.3  -3.5  34202  290.30 0854.42
2009/04/23 15:42:46.0    -565   -203   -119    601    613 250.2 -11.2  34192  290.10 0854.42
2009/04/23 15:42:46.1    -689    -49   -191    691    716 265.9 -20.1  34166  289.69 0854.42
2009/04/23 15:42:46.2    -714   -141   -211    728    757 258.8 -20.9  34178  289.87 0854.42
2009/04/23 15:42:46.3    -624    -61   -263    628    680 264.4 -28.5  34170  289.75 0854.42
2009/04/23 15:42:46.4    -480     43   -215    482    527 275.2 -30.1  34152  289.45 0854.42
2009/04/23 15:42:46.5    -463   -124    -37    480    482 255.0  -4.5  34200  290.25 0854.42
2009/04/23 15:42:46.6    -548   -129   -269    564    624 256.7 -31.7  34142  289.27 0854.42
2009/04/23 15:42:46.7    -215   -255   -187    334    382 220.2 -35.9  34186  290.01 0854.42
2009/04/23 15:42:46.8    -458    -38   -131    460    478 265.2 -20.7  34162  289.59 0854.42
2009/04/23 15:42:46.9    -505    -38   -181    507    539 265.6 -19.7  34162  289.60 0854.42
2009/04/23 15:42:47.0    -546   -116   -219    559    600 258.0 -26.9  34170  289.73 0854.42
2009/04/23 15:42:47.1    -524    -95   -264    533    594 259.7 -32.6  34148  289.36 0854.42
2009/04/23 15:42:47.2    -589    -62   -278    593    654 263.9 -31.4  34146  289.35 0854.43
2009/04/23 15:42:47.3    -559      9   -262    560    618 271.0 -31.5  34110  288.71 0854.43
2009/04/23 15:42:47.4    -481      0   -269    482    551 270.0 -36.0  34082  288.26 0854.43
2009/04/23 15:42:47.5    -429     32   -253    431    499 274.4 -37.4  34084  288.30 0854.43
2009/04/23 15:42:47.6    -406     52   -302    410    509 277.4 -44.5  34100  288.56 0854.43
2009/04/23 15:42:47.7    -341     67   -247    348    426 281.1 -43.2  34110  288.72 0854.43
2009/04/23 15:42:47.8    -290     58   -226    296    372 281.5 -45.7  34106  288.66 0854.43
2009/04/23 15:42:47.9    -271    108   -225    293    369 291.8 -45.9  34110  288.72 0854.43
2009/04/23 15:42:48.0    -229    122   -253    260    362 298.0 -53.6  34116  288.84 0854.43
2009/04/23 15:42:48.1    -251    114   -180    276    329 294.4 -40.4  34134  289.12 0854.43
2009/04/23 15:42:48.2    -306    292   -419    424    596 313.7 -54.3  34152  289.45 0854.43
2009/04/23 15:42:48.3    -161    310   -352    350    496 332.5 -54.5  34158  289.53 0854.43
2009/04/23 15:42:48.4    -339    179   -181    384    424 297.9 -31.5  34142  289.27 0854.43
2009/04/23 15:42:48.5    -300    117   -235    323    399 291.3 -44.1  34154  289.47 0854.43
2009/04/23 15:42:48.6    -204    129   -255    242    351 302.5 -56.0  34138  289.20 0854.43
2009/04/23 15:42:48.7    -142     86   -228    167    282 301.1 -64.9  34144  289.29 0854.43
2009/04/23 15:42:48.8    -256    130   -278    288    400 297.0 -53.5  34154  289.48 0854.43
2009/04/23 15:42:48.9    -338    225   -344    407    532 303.7 -48.8  34132  289.10 0854.43
2009/04/23 15:42:49.0    -313    216   -305    381    488 304.6 -47.2  34134  289.12 0854.43
2009/04/23 15:42:49.1    -324     75   -298    333    446 283.2 -50.8  34142  289.27 0854.43
2009/04/23 15:42:49.2     -55     64   -166     85    186 319.0 -75.5  34152  289.43 0854.44
2009/04/23 15:42:49.3     -25    230   -197    232    304 353.8 -48.9  34146  289.34 0854.44
2009/04/23 15:42:49.4      32    195   -180    198    267   9.3 -51.5  34146  289.32 0854.44
2009/04/23 15:42:49.5    -373    105   -251    388    462 285.8 -40.1  34154  289.48 0854.44
2009/04/23 15:42:49.6    -271    165   -269    318    416 301.3 -48.9  34144  289.30 0854.44
2009/04/23 15:42:49.7    -342    141   -272    370    459 292.4 -44.3  34156  289.49 0854.44
2009/04/23 15:42:49.8    -342    169   -241    382    451 296.3 -39.9  34162  289.61 0854.44
2009/04/23 15:42:49.9    -300     44   -310    304    434 278.4 -55.0  34158  289.54 0854.44
2009/04/23 15:42:50.0    -182     83   -226    201    302 294.6 -58.1  34164  289.64 0854.44
2009/04/23 15:42:50.1    -202     98   -276    225    356 296.0 -61.0  34160  289.58 0854.44
2009/04/23 15:42:50.2    -435     48   -344    438    556 276.4 -46.6  34146  289.35 0854.44
2009/04/23 15:42:50.3    -274    -81   -384    286    478 253.4 -64.1  34168  289.70 0854.44
2009/04/23 15:42:50.4     -38     59   -220     71    231 327.5 -85.4  34168  289.72 0854.44
2009/04/23 15:42:50.5    -148     88   -358    173    397 300.7 -76.8  34148  289.38 0854.44
2009/04/23 15:42:50.6      88    106    -77    139    158  39.7 -36.0  34152  289.45 0854.44
2009/04/23 15:42:50.7      65    216    -58    226    234  16.9 -14.4  34156  289.52 0854.44
2009/04/23 15:42:50.8    -103    271   -107    291    310 339.1 -25.4  34156  289.49 0854.44
2009/04/23 15:42:50.9    -182    115    -51    216    223 302.4 -13.4  34158  289.53 0854.44
2009/04/23 15:42:51.0    -145    166    -52    221    228 319.0 -13.4  34170  289.74 0854.44
2009/04/23 15:42:51.1     125    179   -255    219    336  35.0 -59.4  34172  289.76 0854.44
2009/04/23 15:42:51.2     178    -51   -100    186    211 106.2 -35.0  34162  289.62 0854.44
2009/04/23 15:42:51.3     365    110     14    382    383  73.2   2.2  34164  289.65 0854.44
2009/04/23 15:42:51.4     227    109    -78    253    264  64.2 -22.3  34164  289.63 0854.44
2009/04/23 15:42:51.5     374    194    106    422    436  62.6  14.2  34176  289.83 0854.44
2009/04/23 15:42:51.6     326    207    -35    387    389  57.6  -5.2  34178  289.87 0854.44
2009/04/23 15:42:51.7     398    181    208    438    484  65.5  27.3  34186  290.01 0854.44
2009/04/23 15:42:51.8     376    171    156    414    442  65.6  21.7  34208  290.38 0854.44
2009/04/23 15:42:51.9     351    196    -37    403    405  60.8  -5.3  34182  289.95 0854.44
2009/04/23 15:42:52.0     426     86    110    435    449  78.6  14.3  34182  289.95 0854.44
2009/04/23 15:42:52.1     422     99    158    434    461  76.8  20.9  34172  289.77 0854.44
2009/04/23 15:42:52.2     385    111    213    401    454  73.8  30.3  34184  289.99 0854.44
2009/04/23 15:42:52.3     392     22    180    393    432  86.7  26.3  34200  290.24 0854.44
2009/04/23 15:42:52.4     343    -88    167    355    392 104.4  27.1  34174  289.82 0854.44
2009/04/23 15:42:52.5     305    -59     58    311    317 101.0  10.6  34172  289.76 0854.44
2009/04/23 15:42:52.6     219   -214    107    307    326 134.4  19.2  34180  289.90 0854.44
2009/04/23 15:42:52.7     270   -222    123    350    370 129.5  20.1  34172  289.79 0854.44
2009/04/23 15:42:52.8     371   -119    151    390    418 107.8  22.2  34174  289.82 0854.44
2009/04/23 15:42:52.9     453   -221    226    505    553 116.0  25.7  34172  289.77 0854.44
2009/04/23 15:42:53.0     420   -170    253    454    519 112.1  31.5  34168  289.71 0854.44
2009/04/23 15:42:53.1     264    -74    312    275    415 105.7  54.2  34172  289.77 0854.44
2009/04/23 15:42:53.2      91    -57    251    108    273 122.0  75.5  34196  290.18 0854.45
2009/04/23 15:42:53.3     323   -104    216    340    402 107.9  35.5  34202  290.27 0854.45
2009/04/23 15:42:53.4     328   -253    173    415    449 127.7  24.1  34192  290.11 0854.45
2009/04/23 15:42:53.5     208      0    258    209    332  90.1  56.9  34204  290.32 0854.45
2009/04/23 15:42:53.6     211    -92    236    231    330 113.6  50.6  34236  290.87 0854.45
2009/04/23 15:42:53.7     148      2    200    149    249  89.2  59.6  34250  291.11 0854.45
2009/04/23 15:42:53.8     143     36    200    148    248  75.8  59.8  34256  291.21 0854.45
2009/04/23 15:42:53.9      37     59    173     70    186  32.5  77.0  34268  291.42 0854.45
2009/04/23 15:42:54.0      49     -8    175     50    182  99.7  84.1  34266  291.38 0854.45
2009/04/23 15:42:54.1     -11      3     97     12     97 288.4  90.0  34240  290.92 0854.45
2009/04/23 15:42:54.2      98    -32    185    104    212 108.2  68.3  34254  291.16 0854.45
2009/04/23 15:42:54.3     253   -102    243    273    365 112.0  46.3  34222  290.64 0854.45
2009/04/23 15:42:54.4     263   -252    277    365    458 133.7  40.9  34170  289.75 0854.45
2009/04/23 15:42:54.5     101    -95    263    139    297 133.1  69.9  34174  289.80 0854.45
2009/04/23 15:42:54.6     124   -150    249    195    316 140.3  58.0  34198  290.22 0854.45
2009/04/23 15:42:54.7     173   -387    288    424    512 155.9  37.4  34204  290.32 0854.45
2009/04/23 15:42:54.8      71   -148    249    165    298 154.4  63.6  34238  290.90 0854.45
2009/04/23 15:42:54.9     140   -100    252    173    305 125.7  62.6  34242  290.97 0854.45
2009/04/23 15:42:55.0      17     -2    239     18    239  97.9  90.0  34180  289.92 0854.45
2009/04/23 15:42:55.1      37    139    310    145    342  15.2  73.1  34216  290.53 0854.45
2009/04/23 15:42:55.2       9    -46    309     47    312 168.4  90.0  34314  292.18 0854.42
2009/04/23 15:42:55.3     184   -349    399    395    561 152.1  50.2  34234  290.83 0854.42
2009/04/23 15:42:55.4     370   -377    265    529    591 135.6  28.7  34312  292.16 0854.42
2009/04/23 15:42:55.5     287   -636     98    698    706 155.7   8.0  34280  291.61 0854.42
2009/04/23 15:42:55.6     121   -594    141    607    624 168.4  13.1  34228  290.71 0854.42
2009/04/23 15:42:55.7     -29   -315    296    317    433 185.4  47.9  34188  290.04 0854.42
2009/04/23 15:42:55.8     -28   -369    180    370    411 184.4  27.9  34178  289.87 0854.42
2009/04/23 15:42:55.9     -23   -300     34    301    303 184.5   6.5  34186  290.00 0854.42
2009/04/23 15:42:56.0     140   -131    105    193    219 133.1  31.3  34204  290.33 0854.42
2009/04/23 15:42:56.1      84   -192    163    210    265 156.2  41.7  34196  290.17 0854.42
2009/04/23 15:42:56.2     168   -123    171    209    270 126.4  43.7  34194  290.14 0854.41
2009/04/23 15:42:56.3     -87   -286    233    300    379 196.9  41.7  34162  289.62 0854.41
2009/04/23 15:42:56.4     -67   -322    182    329    375 191.8  31.4  34162  289.60 0854.41
2009/04/23 15:42:56.5     159   -386    196    418    461 157.5  27.1  34158  289.55 0854.41
2009/04/23 15:42:56.6     279   -261    328    383    504 133.1  44.9  34160  289.56 0854.41
2009/04/23 15:42:56.7     184   -412    306    452    545 155.9  37.4  34166  289.69 0854.41
2009/04/23 15:42:56.8     244   -347    273    425    505 144.9  35.6  34162  289.61 0854.41
2009/04/23 15:42:56.9     361   -258    195    444    484 125.6  25.2  34168  289.71 0854.41
2009/04/23 15:42:57.0     251   -176    194    307    363 125.1  35.5  34160  289.57 0854.41
2009/04/23 15:42:57.1      34   -311    296    313    430 173.7  48.0  34164  289.65 0854.41
2009/04/23 15:42:57.2     115   -343    302    362    471 161.4  44.2  34168  289.70 0854.41
2009/04/23 15:42:57.3     199   -375    308    425    524 152.0  39.5  34148  289.37 0854.41
2009/04/23 15:42:57.4     202   -463    192    506    541 156.4  21.8  34158  289.53 0854.41
2009/04/23 15:42:57.5     244   -466    163    527    552 152.4  17.2  34152  289.45 0854.41
2009/04/23 15:42:57.6     198   -457    174    499    529 156.6  19.3  34158  289.54 0854.41
2009/04/23 15:42:57.7     246   -416    183    484    517 149.4  21.6  34158  289.54 0854.41
2009/04/23 15:42:57.8     240   -407    212    473    518 149.4  25.8  34156  289.49 0854.41
2009/04/23 15:42:57.9     274   -425    304    506    590 147.2  33.8  34142  289.26 0854.41
2009/04/23 15:42:58.0      53   -429    160    433    461 172.9  21.0  34162  289.60 0854.41
2009/04/23 15:42:58.1      63   -355     25    361    362 169.9   4.0  34164  289.65 0854.41
2009/04/23 15:42:58.2      74   -312     28    321    323 166.6   5.1  34164  289.64 0854.40
2009/04/23 15:42:58.3     106   -293     -3    312    313 160.0  -0.7  34158  289.54 0854.40
2009/04/23 15:42:58.4      94   -267      4    284    285 160.6   0.8  34158  289.54 0854.40
2009/04/23 15:42:58.5      65   -243     96    252    269 164.9  22.0  34170  289.73 0854.40
2009/04/23 15:42:58.6     -11   -258     70    259    269 182.5  15.2  34176  289.83 0854.40
2009/04/23 15:42:58.7      92   -532    116    541    554 170.1  12.2  34170  289.75 0854.40
2009/04/23 15:42:58.8      12   -432    288    433    520 178.3  36.9  34166  289.66 0854.40
2009/04/23 15:42:58.9      -4   -349    258    350    434 180.8  40.0  34176  289.83 0854.40
2009/04/23 15:42:59.0    -103   -369    206    384    435 195.7  30.6  34164  289.65 0854.40
2009/04/23 15:42:59.1      94   -525    230    534    581 169.8  24.8  34174  289.80 0854.40
2009/04/23 15:42:59.2     -14   -588    209    589    624 181.4  20.3  34172  289.76 0854.40
2009/04/23 15:42:59.3      48   -409    129    412    432 173.3  17.4  34174  289.82 0854.40
2009/04/23 15:42:59.4      88   -425    161    435    463 168.2  21.1  34174  289.82 0854.40
2009/04/23 15:42:59.5     245   -217    -18    328    329 131.5  -3.3  34184  289.97 0854.40
2009/04/23 15:42:59.6      29   -271   -134    273    304 173.8 -32.2  34180  289.92 0854.40
2009/04/23 15:42:59.7       1   -328    -17    329    330 179.7  -3.0  34172  289.76 0854.40
2009/04/23 15:42:59.8    -384   -228   -147    447    470 239.3 -23.3  34188  290.05 0854.40
2009/04/23 15:42:59.9    -312   -266   -142    411    435 229.6 -19.1  34194  290.14 0854.40
2009/04/23 15:43:00.0    -203   -251     13    324    325 219.0   2.4  34196  290.17 0854.40
2009/04/23 15:43:00.1    -293   -163    130    336    360 240.9  22.2  34198  290.23 0854.40
2009/04/23 15:43:00.2    -208   -207     -3    294    295 225.1  -0.7  34206  290.36 0854.40
2009/04/23 15:43:00.4    -212   -300     16    368    369 215.3   2.5  34194  290.15 0854.40
2009/04/23 15:43:00.4    -196   -247   -109    316    335 218.5 -19.1  34190  290.07 0854.40
2009/04/23 15:43:00.5    -241   -246    -59    345    350 224.3  -9.7  34188  290.04 0854.40
2009/04/23 15:43:00.6    -147   -195     87    245    261 217.0  19.6  34198  290.22 0854.40
2009/04/23 15:43:00.7    -119   -154     60    195    205 217.8  17.3  34212  290.45 0854.40
2009/04/23 15:43:00.8     -18    -91     80     93    122 191.5  45.8  34206  290.36 0854.40
2009/04/23 15:43:00.9     -15    -75     72     77    105 191.6  48.0  34226  290.69 0854.40
2009/04/23 15:43:01.0       0    -47      0     48     49 180.0  -0.3  34220  290.58 0854.40
2009/04/23 15:43:01.1     -15    -33    -60     37     70 205.3 -69.1  34218  290.55 0854.40
2009/04/23 15:43:01.2      -4    -54    -84     55    100 184.5 -68.5  34200  290.26 0854.40
2009/04/23 15:43:01.3    -106   -160   -165    193    253 213.6 -49.2  34194  290.14 0854.40
2009/04/23 15:43:01.4     -76    -81   -218    112    245 223.2 -75.2  34208  290.38 0854.40
2009/04/23 15:43:01.6     -64    -81   -158    104    189 218.3 -68.3  34208  290.40 0854.40
2009/04/23 15:43:01.6    -137    -54    -81    148    168 248.2 -35.4  34210  290.41 0854.40
2009/04/23 15:43:01.7    -188    -78    -77    204    218 247.4 -25.9  34212  290.45 0854.40
2009/04/23 15:43:01.8    -110     -4    -69    111    130 267.9 -39.9  34200  290.25 0854.40
2009/04/23 15:43:01.9    -104    -20   -114    106    155 259.0 -56.6  34204  290.31 0854.40
2009/04/23 15:43:02.0    -122      2    -76    123    144 271.3 -39.9  34192  290.11 0854.40
2009/04/23 15:43:02.1    -242    -39      3    246    247 260.8   0.8  34190  290.09 0854.40
2009/04/23 15:43:02.2    -226    -16    -28    227    229 265.9  -7.2  34190  290.09 0854.41
2009/04/23 15:43:02.3    -196    -38    -24    200    202 258.8  -6.9  34188  290.06 0854.41
2009/04/23 15:43:02.4    -202    -56    -29    210    213 254.3  -8.0  34186  290.01 0854.41
2009/04/23 15:43:02.5    -166    -75    -65    183    195 245.6 -19.7  34186  290.01 0854.41
2009/04/23 15:43:02.6    -136    -69    -22    153    155 242.9  -8.2  34184  289.99 0854.41
2009/04/23 15:43:02.8     -77   -170     -3    187    188 204.5  -1.1  34184  289.97 0854.41
2009/04/23 15:43:02.8    -134   -256     14    289    290 207.6   2.9  34180  289.92 0854.41
2009/04/23 15:43:02.9     -67   -189    125    201    236 199.6  34.8  34184  289.99 0854.41
2009/04/23 15:43:03.0    -114   -224     96    252    269 207.1  22.0  34182  289.95 0854.41
2009/04/23 15:43:03.1     -54   -201    174    209    271 195.1  43.8  34196  290.19 0854.41
2009/04/23 15:43:03.2       8   -108    138    109    175 175.6  57.7  34196  290.18 0854.41
2009/04/23 15:43:03.3      48   -213    159    219    270 167.3  39.5  34194  290.15 0854.41
2009/04/23 15:43:03.4      62   -155    156    168    229 158.2  47.9  34194  290.16 0854.41
2009/04/23 15:43:03.5     198    -94    130    220    255 115.3  33.5  34196  290.17 0854.41
2009/04/23 15:43:03.6      68   -108    159    128    204 147.9  57.1  34198  290.21 0854.41
2009/04/23 15:43:03.7     143   -196    158    243    289 143.9  36.0  34190  290.09 0854.41
2009/04/23 15:43:03.8     222   -236    160    325    362 136.8  28.1  34182  289.94 0854.41
2009/04/23 15:43:04.0     221   -387    154    446    472 150.2  19.1  34188  290.04 0854.41
2009/04/23 15:43:04.0     260   -376    159    458    485 145.4  19.2  34186  290.00 0854.41
2009/04/23 15:43:04.1     253   -321    145    409    433 141.8  20.4  34176  289.85 0854.41
2009/04/23 15:43:04.2     302   -272    141    407    431 132.1  19.2  34190  290.09 0854.41
2009/04/23 15:43:04.3     390   -261    -18    470    471 123.9  -2.2  34178  289.88 0854.41
2009/04/23 15:43:04.4     173   -362     31    402    404 154.4   4.5  34182  289.94 0854.41
2009/04/23 15:43:04.5      98   -279     41    296    299 160.6   8.0  34176  289.83 0854.41
2009/04/23 15:43:04.6     127   -289     97    316    331 156.2  17.1  34170  289.75 0854.41
2009/04/23 15:43:04.7     119   -297     55    321    326 158.2   9.9  34172  289.78 0854.41
2009/04/23 15:43:04.8      37   -242     38    245    249 171.3   9.0  34172  289.76 0854.41
2009/04/23 15:43:04.9      81   -191     53    208    215 156.8  14.3  34174  289.80 0854.41
2009/04/23 15:43:05.0     -36   -135     14    140    141 195.2   5.9  34174  289.80 0854.41
2009/04/23 15:43:05.1     -72   -126   -101    146    177 209.9 -42.4  34176  289.84 0854.41
2009/04/23 15:43:05.2     -58   -123   -115    137    178 205.3 -48.7  34182  289.94 0854.41
2009/04/23 15:43:05.3    -115   -106    -70    157    171 227.3 -30.1  34180  289.92 0854.41
2009/04/23 15:43:05.4    -138   -102    -49    172    178 233.6 -20.4  34180  289.91 0854.41
2009/04/23 15:43:05.5    -133    -21    -39    135    140 260.8 -20.7  34184  289.97 0854.41
2009/04/23 15:43:05.6    -167    -15      6    168    169 264.5   2.1  34180  289.92 0854.41
2009/04/23 15:43:05.7    -113     46     99    123    157 292.2  43.3  34192  290.11 0854.41
2009/04/23 15:43:05.8     -87    -41    127     97    159 244.6  58.7  34206  290.35 0854.41
2009/04/23 15:43:05.9     -96    -12    118     97    152 262.5  56.4  34194  290.16 0854.41
2009/04/23 15:43:06.0     -81    -40     85     91    124 243.8  48.5  34192  290.13 0854.41
2009/04/23 15:43:06.1      -4    -28     72     29     77 189.8  77.1  34202  290.30 0854.42
2009/04/23 15:43:06.2       8     -1     91      9     91 101.5  90.0  34208  290.38 0854.42
2009/04/23 15:43:06.3      29     24     84     38     92  50.4  74.0  34206  290.36 0854.42
2009/04/23 15:43:06.4      -3    -32     94     33     99 186.2  80.7  34210  290.43 0854.42
2009/04/23 15:43:06.5     -12    -54     83     56    100 192.5  63.2  34216  290.52 0854.42
2009/04/23 15:43:06.6     -22    -11     67     25     71 242.9  79.2  34212  290.45 0854.42
2009/04/23 15:43:06.7       9      3     78     10     78  68.3  90.0  34228  290.72 0854.42
2009/04/23 15:43:06.8       7     -6     62     10     62 133.1  90.0  34226  290.69 0854.42
2009/04/23 15:43:06.9       4     -8     66     10     66 151.0  90.0  34220  290.60 0854.42
2009/04/23 15:43:07.0     -53     29     49     61     78 298.9  43.7  34216  290.52 0854.42
2009/04/23 15:43:07.1     -82     39     63     92    111 295.8  37.6  34204  290.33 0854.42
2009/04/23 15:43:07.2     -76     76     47    108    117 314.9  25.1  34206  290.35 0854.42
2009/04/23 15:43:07.3     -69     60     10     92     93 311.3   6.5  34206  290.36 0854.42
2009/04/23 15:43:07.4     -76     25     19     81     84 288.4  13.2  34198  290.23 0854.42
2009/04/23 15:43:07.5    -124     33     42    129    136 285.0  18.4  34208  290.38 0854.42
2009/04/23 15:43:07.7    -114     78     55    139    149 304.6  23.0  34232  290.81 0854.42
2009/04/23 15:43:07.8     -79    155     57    175    185 332.8  18.1  34210  290.41 0854.42
2009/04/23 15:43:07.9     -63    134     52    149    159 334.7  19.4  34226  290.70 0854.42
2009/04/23 15:43:08.0     -75    103    -31    128    132 324.0 -13.9  34238  290.91 0854.42
2009/04/23 15:43:08.1     -88     50    -82    102    130 299.8 -48.1  34256  291.21 0854.42
2009/04/23 15:43:08.2       1     78    -80     79    112   0.9 -54.1  34256  291.21 0854.42
2009/04/23 15:43:08.3      23    131    -99    134    166  10.2 -44.8  34246  291.03 0854.42
2009/04/23 15:43:08.4     -64    203     -8    213    214 342.4  -2.2  34238  290.91 0854.42
2009/04/23 15:43:08.5     -43    145     52    152    161 343.5  19.2  34246  291.04 0854.42
2009/04/23 15:43:08.6     -39    156     39    162    167 345.7  13.5  34248  291.08 0854.42
2009/04/23 15:43:08.7       2    189     78    190    205   0.7  23.6  34274  291.52 0854.42
2009/04/23 15:43:08.8      77    151    167    170    238  27.2  49.8  34278  291.57 0854.42
2009/04/23 15:43:08.9     129     71    120    148    190  61.2  43.7  34260  291.28 0854.42
2009/04/23 15:43:09.0       6    102    126    103    162   3.6  56.6  34270  291.43 0854.42
2009/04/23 15:43:09.1     -58     67    122     89    151 319.0  60.5  34298  291.91 0854.42
2009/04/23 15:43:09.2     -76     87    125    116    170 319.0  52.5  34294  291.86 0854.42
2009/04/23 15:43:09.3     -72     67     92     99    135 313.1  47.9  34296  291.89 0854.42
2009/04/23 15:43:09.4    -152    -43    151    159    219 254.1  48.5  34296  291.88 0854.42
2009/04/23 15:43:09.5    -135   -109    153    174    231 230.9  45.8  34284  291.67 0854.42
2009/04/23 15:43:09.6    -156   -115    148    195    244 233.6  41.2  34312  292.15 0854.42
2009/04/23 15:43:09.7    -203    -96    151    225    270 244.6  36.7  34310  292.13 0854.42
2009/04/23 15:43:09.8    -208     35    156    211    262 279.7  39.9  34302  291.99 0854.42
2009/04/23 15:43:09.9    -139   -111    197    179    266 231.4  53.2  34294  291.84 0854.42
2009/04/23 15:43:10.0    -195   -168    224    258    341 229.3  45.5  34276  291.53 0854.42
2009/04/23 15:43:10.1     -32    -67    199     75    212 205.4  78.9  34288  291.74 0854.42
2009/04/23 15:43:10.2     110    -50    170    121    208 114.4  61.1  34294  291.86 0854.43
2009/04/23 15:43:10.3      37   -182    153    186    240 168.4  43.7  34234  290.82 0854.43
2009/04/23 15:43:10.4     192   -324     91    377    388 149.3  13.7  34202  290.27 0854.43
2009/04/23 15:43:10.5     119   -289    102    313    330 157.5  18.1  34198  290.22 0854.43
2009/04/23 15:43:10.6       3   -248     77    249    261 179.3  17.3  34202  290.29 0854.43
2009/04/23 15:43:10.7       9   -319     99    320    336 178.3  17.3  34198  290.23 0854.43
2009/04/23 15:43:10.8     -67   -381    220    387    445 190.0  32.3  34208  290.38 0854.43
2009/04/23 15:43:10.9     -95   -287    263    303    401 198.3  45.5  34214  290.49 0854.43
2009/04/23 15:43:11.0      31   -362    322    364    485 175.0  46.2  34206  290.34 0854.43
2009/04/23 15:43:11.1      41   -529    369    531    646 175.5  38.3  34204  290.31 0854.43
2009/04/23 15:43:11.2     118   -365    300    384    487 162.1  42.0  34206  290.34 0854.43
2009/04/23 15:43:11.3      20   -399    215    400    454 177.1  30.7  34198  290.22 0854.43
2009/04/23 15:43:11.4     -71   -351    199    359    410 191.6  31.4  34214  290.49 0854.43
2009/04/23 15:43:11.5    -116   -271    249    295    386 203.2  44.4  34238  290.88 0854.43
2009/04/23 15:43:11.6     -74   -206    248    219    330 199.8  54.2  34204  290.31 0854.43
2009/04/23 15:43:11.7     -27   -186    236    189    302 188.5  57.5  34238  290.90 0854.43
2009/04/23 15:43:11.8    -119   -228    376    258    456 207.6  62.5  34242  290.98 0854.43
2009/04/23 15:43:11.9     -41    -83    252     93    268 206.7  79.2  34224  290.67 0854.43
2009/04/23 15:43:12.0       0      0    238      1    238  90.0  90.0  34222  290.62 0854.43
2009/04/23 15:43:12.1      -8    -43    193     44    197 190.7  87.5  34226  290.70 0854.43
2009/04/23 15:43:12.2     102   -310    205    327    385 161.7  35.3  34210  290.43 0854.44
2009/04/23 15:43:12.3     226   -159    112    277    298 125.1  23.1  34222  290.61 0854.44
2009/04/23 15:43:12.4     150   -236     44    280    284 147.5   9.0  34208  290.37 0854.44
2009/04/23 15:43:12.5     -79   -327    166    337    375 193.7  28.1  34198  290.21 0854.44
2009/04/23 15:43:12.6      -6   -432    238    433    494 180.9  31.3  34206  290.34 0854.44
2009/04/23 15:43:12.7      22   -300    268    301    403 175.6  46.3  34208  290.40 0854.44
2009/04/23 15:43:12.8     235   -387    261    453    522 148.7  32.7  34222  290.61 0854.44
2009/04/23 15:43:12.9     145   -416    195    441    482 160.7  25.6  34208  290.37 0854.44
2009/04/23 15:43:13.0       2   -337    229    338    408 179.5  37.3  34208  290.40 0854.44
2009/04/23 15:43:13.1     160   -265    249    310    397 148.8  42.8  34226  290.69 0854.44
2009/04/23 15:43:13.2     297   -178    230    347    416 120.9  36.6  34204  290.33 0854.44
2009/04/23 15:43:13.3     167   -289    250    334    417 150.0  40.6  34194  290.16 0854.44
2009/04/23 15:43:13.4     104   -191    246    218    328 151.3  54.0  34204  290.32 0854.44
2009/04/23 15:43:13.5      46   -335    313    339    461 172.1  47.7  34196  290.19 0854.44
2009/04/23 15:43:13.6     278   -317    345    422    545 138.7  43.6  34192  290.10 0854.44
2009/04/23 15:43:13.7     334   -277    285    435    520 129.7  36.5  34186  290.00 0854.44
2009/04/23 15:43:13.8     271   -144    268    308    408 118.0  45.5  34194  290.15 0854.44
2009/04/23 15:43:13.9      15   -244    204    245    318 176.4  44.1  34194  290.14 0854.44
2009/04/23 15:43:14.0     123   -322     49    345    349 159.0   8.2  34196  290.18 0854.44
2009/04/23 15:43:14.1     209   -342     66    401    407 148.6   9.3  34194  290.16 0854.44
2009/04/23 15:43:14.2     218   -326    233    393    456 146.2  33.5  34174  289.80 0854.44
2009/04/23 15:43:14.3      78    -81    203    113    232 136.3  68.8  34188  290.04 0854.44
2009/04/23 15:43:14.4     129   -591    147    606    624 167.6  13.7  34182  289.94 0854.44
2009/04/23 15:43:14.5      26   -480     21    481    482 176.9   2.5  34182  289.95 0854.44
2009/04/23 15:43:14.6     165   -377     -3    412    413 156.3  -0.5  34182  289.95 0854.44
2009/04/23 15:43:14.7     310   -351    102    469    481 138.5  12.3  34180  289.91 0854.44
2009/04/23 15:43:14.8     256   -362    129    444    463 144.8  16.3  34192  290.11 0854.44
2009/04/23 15:43:14.9     191   -313     20    367    368 148.6   3.2  34194  290.15 0854.44
2009/04/23 15:43:15.0      92   -420     18    431    432 167.6   2.5  34192  290.12 0854.44
2009/04/23 15:43:15.1     148   -130     65    198    209 131.3  18.1  34192  290.11 0854.44
2009/04/23 15:43:15.2     113   -151    159    189    246 143.3  44.5  34190  290.09 0854.44
2009/04/23 15:43:15.3     138   -232     84    270    283 149.3  17.3  34190  290.09 0854.44
2009/04/23 15:43:15.4     216   -203    125    297    322 133.2  24.2  34188  290.05 0854.44
2009/04/23 15:43:15.5     253   -196    161    321    359 127.7  28.7  34184  289.98 0854.44
2009/04/23 15:43:15.6     246   -233    236    340    413 133.5  38.3  34178  289.89 0854.44
2009/04/23 15:43:15.7     164   -311    163    352    387 152.1  26.9  34190  290.08 0854.44
2009/04/23 15:43:15.8      68   -362    225    369    432 169.3  34.3  34172  289.78 0854.44
2009/04/23 15:43:15.9     143   -249    276    288    398 150.2  49.0  34182  289.94 0854.44
2009/04/23 15:43:16.0     203   -152    242    254    350 126.9  48.6  34178  289.88 0854.44
2009/04/23 15:43:16.1      31    -41    157     52    165 142.2  80.7  34202  290.28 0854.44
2009/04/23 15:43:16.2      86   -118     98    147    176 144.0  36.7  34204  290.33 0854.49
2009/04/23 15:43:16.3     399    -67    458    405    611  99.6  54.2  34208  290.40 0854.49
2009/04/23 15:43:16.4     429     87    379    438    579  78.5  45.2  34210  290.43 0854.49
2009/04/23 15:43:16.5     495    188    263    530    591  69.2  28.2  34216  290.51 0854.49
2009/04/23 15:43:16.6     398     -4    334    399    520  90.6  44.1  34228  290.71 0854.49
2009/04/23 15:43:16.7     543   -129    255    559    614 103.4  26.2  34210  290.42 0854.49
2009/04/23 15:43:16.8     433   -134    266    454    526 107.2  33.1  34224  290.66 0854.49
2009/04/23 15:43:16.9     444   -339    325    559    646 127.4  32.8  34198  290.20 0854.49
2009/04/23 15:43:17.0     438   -416    290    605    670 133.5  27.4  34168  289.72 0854.49
2009/04/23 15:43:17.1     370   -433    309    570    648 139.5  30.8  34178  289.86 0854.49
2009/04/23 15:43:17.2     330   -445    344    555    652 143.5  34.8  34182  289.94 0854.49
2009/04/23 15:43:17.3     305   -509    396    594    713 149.1  36.9  34186  290.02 0854.49
2009/04/23 15:43:17.4     418   -418    428    592    730 135.0  39.5  34216  290.51 0854.49
2009/04/23 15:43:17.5     201   -695    439    724    846 163.9  34.1  34180  289.91 0854.49
2009/04/23 15:43:17.6     210   -778    309    807    864 164.9  22.1  34170  289.75 0854.49
2009/04/23 15:43:17.7     489   -757     36    902    903 147.1   2.3  34178  289.89 0854.49
2009/04/23 15:43:17.8     570   -698    115    902    910 140.8   7.3  34180  289.90 0854.49
2009/04/23 15:43:17.9     362   -574     60    679    682 147.8   5.1  34176  289.83 0854.49
2009/04/23 15:43:18.0     317   -508     78    599    605 148.0   7.4  34168  289.71 0854.49
2009/04/23 15:43:18.1     228   -516    100    565    574 156.2  10.1  34172  289.78 0854.49
2009/04/23 15:43:18.2     115   -341    -52    361    365 161.3  -8.2  34182  289.94 0854.49
2009/04/23 15:43:18.3      63   -153    -54    166    174 157.5 -23.8  34184  289.99 0854.49
2009/04/23 15:43:18.4     -67   -394     20    400    401 189.8   2.9  34190  290.08 0854.49
2009/04/23 15:43:18.5     -66   -403   -129    409    429 189.4 -17.5  34192  290.12 0854.49
2009/04/23 15:43:18.6      14   -478   -165    479    507 178.3 -19.1  34192  290.13 0854.49
2009/04/23 15:43:18.7      89   -500    -26    508    509 169.9  -3.0  34188  290.03 0854.49
2009/04/23 15:43:18.8     119   -572     10    585    586 168.2   1.0  34184  289.97 0854.49
2009/04/23 15:43:18.9      62   -570     45    574    576 173.8   4.6  34182  289.95 0854.49
2009/04/23 15:43:19.0      19   -633    -24    634    635 178.2  -2.2  34180  289.92 0854.49
2009/04/23 15:43:19.1      31   -557    -94    558    566 176.8  -9.6  34180  289.90 0854.49
2009/04/23 15:43:19.2     -49   -490    -35    493    495 185.8  -4.1  34184  289.98 0854.47
2009/04/23 15:43:19.3    -135   -569     11    585    586 193.4   1.1  34186  290.02 0854.47
2009/04/23 15:43:19.4    -127   -622      7    636    637 191.6   0.7  34178  289.89 0854.47
2009/04/23 15:43:19.5      -8   -607    -89    608    615 180.8  -8.4  34170  289.73 0854.47
2009/04/23 15:43:19.6     -38   -553   -165    555    580 184.0 -16.6  34156  289.49 0854.47
2009/04/23 15:43:19.7     -59   -460   -132    464    483 187.3 -15.9  34152  289.44 0854.47
2009/04/23 15:43:19.8      85   -455   -160    463    489 169.4 -24.3  34152  289.42 0854.47
2009/04/23 15:43:19.9     171   -453   -163    485    511 159.3 -23.7  34150  289.40 0854.47
2009/04/23 15:43:20.0      99   -446   -148    458    482 167.4 -17.9  34144  289.30 0854.47
2009/04/23 15:43:20.1      67   -462   -164    467    496 171.7 -19.4  34146  289.34 0854.47
2009/04/23 15:43:20.2      61   -435   -155    440    467 172.0 -19.4  34146  289.34 0854.47
2009/04/23 15:43:20.3       0   -402   -141    403    427 179.9 -19.3  34152  289.43 0854.47
2009/04/23 15:43:20.4      -6   -394   -125    395    414 180.9 -22.6  34154  289.48 0854.47
2009/04/23 15:43:20.5     135   -442    -31    463    465 163.0  -3.9  34146  289.34 0854.47
2009/04/23 15:43:20.6     111   -419    -17    434    435 165.1  -2.3  34152  289.43 0854.47
2009/04/23 15:43:20.7      58   -468    -37    472    474 172.9  -4.6  34158  289.54 0854.47
2009/04/23 15:43:20.8      65   -595    140    599    616 173.7  13.2  34178  289.88 0854.47
2009/04/23 15:43:20.9      91   -540    176    548    576 170.4  17.8  34174  289.80 0854.47
2009/04/23 15:43:21.0     125   -544    130    559    574 167.0  13.1  34182  289.95 0854.47
2009/04/23 15:43:21.1     266   -440    161    515    540 148.8  17.4  34186  290.02 0854.47
2009/04/23 15:43:21.2     280   -644      0    703    704 156.5   0.0  34172  289.76 0854.42
2009/04/23 15:43:21.3     413   -484    136    637    652 139.5  12.1  34172  289.77 0854.42
2009/04/23 15:43:21.4     136   -285    383    316    496 154.5  56.4  34140  289.24 0854.42
2009/04/23 15:43:21.5    -399   -424    269    583    642 223.2  26.5  34148  289.37 0854.42
2009/04/23 15:43:21.6    -336   -216   -126    400    420 237.2 -17.5  34152  289.43 0854.42
2009/04/23 15:43:21.7    -488   -584   -188    762    785 219.9 -13.9  34138  289.19 0854.42
2009/04/23 15:43:21.8    -570   -878   -151   1048   1060 213.0  -8.2  34100  288.56 0854.42
2009/04/23 15:43:21.9    -574   -738   -265    936    972 217.9 -20.5  34126  288.99 0854.42
2009/04/23 15:43:22.0    -529   -739    -59    909    911 215.6  -3.7  34134  289.12 0854.42
2009/04/23 15:43:22.1    -537   -600   -192    806    829 221.8 -13.4  34120  288.91 0854.42
2009/04/23 15:43:22.2    -297   -527    -41    606    608 209.4  -3.9  34142  289.27 0854.42
2009/04/23 15:43:22.3    -145   -556   -110    575    586 194.7 -10.9  34130  289.08 0854.42
2009/04/23 15:43:22.4    -136   -565    -54    582    585 193.5  -5.4  34132  289.10 0854.42
2009/04/23 15:43:22.5    -452   -540    -76    705    710 219.9  -6.2  34146  289.33 0854.42
2009/04/23 15:43:22.6    -508   -528   -218    733    765 223.9 -16.6  34144  289.29 0854.42
2009/04/23 15:43:22.7    -603   -603   -173    853    871 225.0 -11.5  34136  289.17 0854.42
2009/04/23 15:43:22.8    -324   -527    -96    619    627 211.6  -8.8  34142  289.26 0854.42
2009/04/23 15:43:22.9    -515   -442   -164    679    699 229.4 -13.6  34144  289.29 0854.42
2009/04/23 15:43:23.0    -524   -573   -198    777    802 222.4 -14.3  34132  289.10 0854.42
2009/04/23 15:43:23.1    -322   -620   -148    699    715 207.5 -12.0  34140  289.22 0854.42
2009/04/23 15:43:23.2    -504   -482   -213    698    729 226.3 -21.8  34130  289.08 0854.40
2009/04/23 15:43:23.3    -493   -564   -266    750    797 221.1 -19.6  34134  289.12 0854.40
2009/04/23 15:43:23.4    -474   -536   -202    716    745 221.5 -15.8  34132  289.11 0854.40
2009/04/23 15:43:23.5    -333   -443   -177    555    582 217.0 -22.9  34134  289.12 0854.40
2009/04/23 15:43:23.6     -89   -598   -127    605    619 188.5 -11.9  34136  289.16 0854.40
2009/04/23 15:43:23.7    -176   -579   -151    606    625 197.0 -14.1  34142  289.26 0854.40
2009/04/23 15:43:23.8    -165   -523   -194    549    583 197.6 -19.5  34140  289.22 0854.40
2009/04/23 15:43:23.9    -202   -671   -120    701    712 196.8  -9.8  34146  289.33 0854.40
2009/04/23 15:43:24.0    -292   -618    -54    684    687 205.3  -4.6  34132  289.10 0854.40
2009/04/23 15:43:24.1    -282   -461   -140    541    559 211.5 -14.5  34138  289.21 0854.40
2009/04/23 15:43:24.2    -304   -447   -201    541    577 214.3 -25.7  34138  289.21 0854.40
2009/04/23 15:43:24.3    -303   -366   -131    476    493 219.7 -20.0  34144  289.30 0854.40
2009/04/23 15:43:24.4    -326   -347    -22    477    478 223.2  -2.7  34152  289.44 0854.40
2009/04/23 15:43:24.5    -276   -514     37    584    586 208.3   3.6  34148  289.36 0854.40
2009/04/23 15:43:24.6    -317   -482      3    578    579 213.4   0.4  34148  289.37 0854.40
2009/04/23 15:43:24.7    -397   -504    -74    642    647 218.2  -6.6  34158  289.55 0854.40
2009/04/23 15:43:24.8    -473   -275    -42    548    550 239.8  -4.5  34156  289.50 0854.40
2009/04/23 15:43:24.9    -316   -400     -2    510    511 218.3  -0.3  34142  289.27 0854.40
2009/04/23 15:43:25.0    -170   -265     22    316    317 212.7   4.0  34138  289.20 0854.40
2009/04/23 15:43:25.1    -182   -135     99    228    248 233.4  25.1  34144  289.29 0854.40
2009/04/23 15:43:25.2    -206    -44    183    211    279 257.8  45.6  34156  289.51 0854.40
2009/04/23 15:43:25.3    -164    -16    162    165    231 264.1  49.8  34174  289.82 0854.40
2009/04/23 15:43:25.4     -98     -4     97     99    138 267.4  49.9  34172  289.79 0854.40
2009/04/23 15:43:25.5      45   -240    145    245    284 169.4  33.4  34156  289.51 0854.40
2009/04/23 15:43:25.6     -27   -318    192    320    373 184.9  33.7  34154  289.48 0854.40
2009/04/23 15:43:25.7      76   -194    151    209    257 158.6  39.5  34154  289.47 0854.40
2009/04/23 15:43:25.8      68   -183     79    196    211 159.5  23.0  34146  289.33 0854.40
2009/04/23 15:43:25.9      30   -467    220    468    517 176.3  27.1  34148  289.37 0854.40
2009/04/23 15:43:26.0      79   -395    161    403    433 168.6  23.0  34144  289.29 0854.40
2009/04/23 15:43:26.1     165   -166     90    235    251 135.2  22.0  34148  289.37 0854.40
2009/04/23 15:43:26.2      40   -120    266    127    294 161.3  72.8  34186  290.00 0854.40
2009/04/23 15:43:26.3     306     -1    256    307    399  90.4  44.1  34184  289.98 0854.40
2009/04/23 15:43:26.4     399   -126    174    419    453 107.5  23.8  34188  290.04 0854.40
2009/04/23 15:43:26.5     361     30    121    363    383  85.2  18.5  34238  290.91 0854.40
2009/04/23 15:43:26.6     254     -6     81    255    268  91.5  17.7  34232  290.78 0854.40
2009/04/23 15:43:26.7     279   -270    140    389    413 134.0  20.7  34196  290.19 0854.40
2009/04/23 15:43:26.8     340   -381    170    511    539 138.2  18.4  34178  289.89 0854.40
2009/04/23 15:43:26.9     217   -459    346    508    614 154.7  37.6  34210  290.41 0854.40
2009/04/23 15:43:27.0     587   -541    387    799    887 132.7  27.7  34176  289.83 0854.40
2009/04/23 15:43:27.1     481   -255    291    545    617 117.9  30.3  34178  289.88 0854.40
2009/04/23 15:43:27.2     335   -431    336    547    641 142.2  34.4  34148  289.36 0854.40
2009/04/23 15:43:27.3     412   -323    385    524    650 128.1  39.9  34170  289.75 0854.40
2009/04/23 15:43:27.4     371   -182    357    414    546 116.2  45.2  34176  289.83 0854.40
2009/04/23 15:43:27.5      64     38    203     75    216  59.3  78.9  34182  289.96 0854.40
2009/04/23 15:43:27.6     267   -254    166    369    404 133.6  25.9  34188  290.06 0854.40
2009/04/23 15:43:27.7     359   -234    140    429    452 123.1  18.1  34184  289.99 0854.40
2009/04/23 15:43:27.8     281   -202    237    347    420 125.7  37.6  34178  289.89 0854.40
2009/04/23 15:43:27.9     399   -145    154    425    453 110.1  19.9  34170  289.75 0854.40
2009/04/23 15:43:28.0     470   -270    158    543    566 119.9  16.3  34166  289.68 0854.40
2009/04/23 15:43:28.1     183   -363    296    407    503 153.3  39.7  34174  289.81 0854.40
2009/04/23 15:43:28.2     231   -216    251    317    404 133.1  42.6  34182  289.93 0854.40
2009/04/23 15:43:28.3     326   -250    281    411    497 127.5  37.6  34178  289.86 0854.40
2009/04/23 15:43:28.4     375   -122    376    395    545 108.1  48.5  34172  289.78 0854.40
2009/04/23 15:43:28.5     288   -202    304    353    465 125.1  45.1  34174  289.80 0854.40
2009/04/23 15:43:28.6     332    -97    240    346    421 106.3  38.4  34166  289.69 0854.40
2009/04/23 15:43:28.7     275    -68    188    284    340 104.1  36.5  34166  289.68 0854.40
2009/04/23 15:43:28.8     137    -64    221    152    268 115.3  62.4  34184  289.97 0854.40
2009/04/23 15:43:28.9     395   -169    239    430    491 113.2  31.4  34176  289.84 0854.40
2009/04/23 15:43:29.0     249   -126    260    280    382 116.9  47.9  34182  289.96 0854.40
2009/04/23 15:43:29.1     151    -81    189    172    255 118.4  53.2  34176  289.85 0854.40
2009/04/23 15:43:29.2      85    -53    167    101    195 122.0  66.2  34182  289.96 0854.39
2009/04/23 15:43:29.3      17   -114    153    116    192 171.5  59.0  34190  290.09 0854.39
2009/04/23 15:43:29.4     -65   -176    242    188    306 200.3  58.4  34190  290.09 0854.39
2009/04/23 15:43:29.5     -18   -128    227    130    261 188.0  67.7  34200  290.25 0854.39
2009/04/23 15:43:29.6    -150      2    123    151    194 270.9  43.7  34210  290.41 0854.39
2009/04/23 15:43:29.7    -236     -2    122    237    266 269.4  29.3  34226  290.68 0854.39
2009/04/23 15:43:29.8    -120    -99    151    156    217 230.5  49.0  34226  290.70 0854.39
2009/04/23 15:43:29.9    -152    -97    178    181    253 237.6  49.8  34218  290.55 0854.39
2009/04/23 15:43:30.0    -127   -109    185    168    249 229.3  53.3  34210  290.41 0854.39
2009/04/23 15:43:30.1    -150     -2    193    151    245 269.2  57.9  34216  290.53 0854.39
2009/04/23 15:43:30.2    -242    -44    173    247    301 259.6  38.5  34212  290.44 0854.39
2009/04/23 15:43:30.3    -211     33    125    214    247 279.0  33.1  34204  290.31 0854.39
2009/04/23 15:43:30.4     -68     45     19     82     85 303.3  13.2  34230  290.77 0854.39
2009/04/23 15:43:30.5    -125     38      4    131    132 287.3   1.8  34244  290.99 0854.39
2009/04/23 15:43:30.6    -116     26     65    119    135 282.8  31.4  34224  290.65 0854.39
2009/04/23 15:43:30.7    -184     94     30    207    210 297.1   8.2  34232  290.81 0854.39
2009/04/23 15:43:30.8    -275    167     88    322    334 301.3  15.3  34240  290.94 0854.39
2009/04/23 15:43:30.9    -207    174    -70    271    280 310.2 -14.5  34248  291.07 0854.39
2009/04/23 15:43:31.0    -217    216    -32    307    309 314.9  -6.1  34248  291.05 0854.39
2009/04/23 15:43:31.1    -186    274   -101    332    348 325.8 -17.0  34228  290.71 0854.37
2009/04/23 15:43:31.2    -298    256    -55    393    397 310.7  -8.0  34224  290.66 0854.37
2009/04/23 15:43:31.3    -227    251    -37    339    342 317.8  -6.3  34220  290.60 0854.37
2009/04/23 15:43:31.4    -306    253   -126    398    418 309.6 -17.6  34184  289.99 0854.37
2009/04/23 15:43:31.5    -310    352    -67    470    475 318.6  -8.2  34120  288.90 0854.37
2009/04/23 15:43:31.6    -218    449   -150    500    522 334.1 -21.7  34114  288.78 0854.37
2009/04/23 15:43:31.7     -15    394     47    395    398 357.8   6.9  34126  288.98 0854.37
2009/04/23 15:43:31.8     -14     32    336     35    337 336.4  90.0  34156  289.51 0854.37
2009/04/23 15:43:31.9    -174   -239    183    296    348 216.1  34.9  34140  289.23 0854.37
2009/04/23 15:43:32.0    -273   -364    -41    456    458 216.9  -5.2  34212  290.46 0854.37
2009/04/23 15:43:32.1    -295   -374    -93    477    487 218.2 -11.1  34162  289.62 0854.37
2009/04/23 15:43:32.2    -286   -409   -109    500    512 215.0 -12.4  34124  288.95 0854.37
2009/04/23 15:43:32.3    -390   -659    -83    766    771 210.7  -6.2  34150  289.41 0854.37
2009/04/23 15:43:32.4    -592   -485   -321    766    830 230.7 -28.6  34126  288.98 0854.37
2009/04/23 15:43:32.5    -580   -265   -427    638    767 245.4 -41.4  34130  289.06 0854.37
2009/04/23 15:43:32.6    -719   -239   -256    758    800 251.6 -23.8  34122  288.93 0854.37
2009/04/23 15:43:32.7    -758   -388   -434    852    956 242.9 -33.5  34118  288.85 0854.37
2009/04/23 15:43:32.8    -440   -451   -500    631    805 224.3 -46.7  34116  288.82 0854.37
2009/04/23 15:43:32.9    -237   -525   -538    577    788 204.3 -52.2  34136  289.15 0854.37
2009/04/23 15:43:33.0    -223   -511   -529    558    768 203.6 -52.7  34130  289.08 0854.37
2009/04/23 15:43:33.1    -175   -575   -410    602    728 196.9 -42.0  34140  289.22 0854.36
2009/04/23 15:43:33.2    -395   -510   -116    646    657 217.8 -10.2  34144  289.31 0854.36
2009/04/23 15:43:33.3    -669   -227   -230    707    744 251.2 -18.0  34232  290.78 0854.36
2009/04/23 15:43:33.4    -828   -278   -300    874    924 251.4 -24.1  34206  290.34 0854.36
2009/04/23 15:43:33.5    -753    -95   -379    760    849 262.8 -32.9  34228  290.72 0854.36
2009/04/23 15:43:33.6    -561   -218   -195    603    634 248.7 -17.9  34178  289.89 0854.36
2009/04/23 15:43:33.7    -597   -271   -188    656    682 245.6 -20.7  34176  289.85 0854.36
2009/04/23 15:43:33.8    -555    186   -402    586    710 288.6 -42.2  34230  290.77 0854.36
2009/04/23 15:43:33.9    -792     45   -342    794    864 273.3 -29.2  34228  290.73 0854.36
2009/04/23 15:43:34.0    -630     19   -366    631    729 271.8 -37.1  34224  290.66 0854.36
2009/04/23 15:43:34.1    -402     40   -167    405    438 275.8 -28.1  34222  290.61 0854.36
2009/04/23 15:43:34.2    -650    215   -365    685    776 288.3 -34.7  34198  290.23 0854.36
2009/04/23 15:43:34.3    -736    243   -306    776    834 288.3 -27.1  34182  289.96 0854.36
2009/04/23 15:43:34.4    -541     21   -377    542    660 272.3 -42.7  34178  289.89 0854.36
2009/04/23 15:43:34.5    -464    -54   -226    468    519 263.3 -32.1  34170  289.74 0854.36
2009/04/23 15:43:34.6    -492   -188    -77    527    533 249.1  -8.4  34186  290.01 0854.36
2009/04/23 15:43:34.7    -477   -116    -91    491    500 256.3 -10.5  34188  290.05 0854.36
2009/04/23 15:43:34.8    -210   -208   -159    296    336 225.2 -35.1  34170  289.75 0854.36
2009/04/23 15:43:34.9    -119   -337    -65    358    364 199.6 -10.4  34178  289.87 0854.36
2009/04/23 15:43:35.1      -3   -374    -61    375    381 180.6  -9.3  34166  289.67 0854.36
2009/04/23 15:43:35.1      44   -286    -42    290    294 171.1  -8.2  34166  289.68 0854.39
2009/04/23 15:43:35.2      43   -457   -113    460    474 174.6 -13.9  34174  289.81 0854.39
2009/04/23 15:43:35.3      -6   -275     -6    276    277 181.4  -1.3  34176  289.83 0854.39
2009/04/23 15:43:35.5     115   -245    145    271    307 154.8  30.6  34164  289.63 0854.39
2009/04/23 15:43:35.6     282      1    219    283    357  89.6  41.7  34172  289.79 0854.39
2009/04/23 15:43:35.7     147   -104    228    181    291 125.3  57.5  34178  289.88 0854.39
2009/04/23 15:43:35.8     423   -255    171    495    524 121.1  19.1  34172  289.79 0854.39
2009/04/23 15:43:35.9     451   -163    254    480    543 109.9  30.2  34176  289.84 0854.39
2009/04/23 15:43:36.0     291     63    167    298    341  77.7  31.7  34166  289.68 0854.39
2009/04/23 15:43:36.1     404   -181    356    443    568 114.2  42.8  34162  289.62 0854.39
2009/04/23 15:43:36.2     399    138    450    423    617  70.9  52.1  34180  289.92 0854.39
2009/04/23 15:43:36.3     310    241    436    393    586  52.1  53.4  34164  289.63 0854.39
2009/04/23 15:43:36.4     236    356    431    428    607  33.5  50.2  34246  291.04 0854.39
2009/04/23 15:43:36.5     338    407    318    530    618  39.7  33.7  34178  289.88 0854.39
2009/04/23 15:43:36.6     346    307    276    463    539  48.5  33.5  34166  289.67 0854.39
2009/04/23 15:43:36.7     486    370    457    612    763  52.7  40.5  34158  289.54 0854.39
2009/04/23 15:43:36.8     595    423    256    731    774  54.6  20.0  34206  290.35 0854.39
2009/04/23 15:43:36.9     489    154    171    513    542  72.5  18.5  34234  290.84 0854.39
2009/04/23 15:43:37.0     401     17    266    402    482  87.5  36.5  34236  290.85 0854.39
2009/04/23 15:43:37.1     253      6    269    254    369  88.5  51.9  34212  290.47 0854.39
2009/04/23 15:43:37.2     257    -49    290    262    390 100.8  53.3  34218  290.57 0854.44
2009/04/23 15:43:37.3     187   -293    309    348    465 147.4  46.1  34220  290.60 0854.44
2009/04/23 15:43:37.4      45   -481    371    484    609 174.6  41.4  34192  290.12 0854.44
2009/04/23 15:43:37.5       6   -431    215    432    482 179.1  28.4  34180  289.91 0854.44
2009/04/23 15:43:37.6    -132   -421    -39    442    444 197.4  -5.1  34200  290.26 0854.44
2009/04/23 15:43:37.7      13   -296    -84    297    308 177.3 -20.4  34216  290.53 0854.44
2009/04/23 15:43:37.8      71   -310   -133    319    345 167.1 -28.3  34206  290.35 0854.44
2009/04/23 15:43:37.9    -172   -417     38    452    454 202.4   4.9  34186  290.02 0854.44
2009/04/23 15:43:38.0    -171   -375     67    413    419 204.5   9.2  34194  290.14 0854.44
2009/04/23 15:43:38.1    -138   -303    -92    334    347 204.5 -15.5  34196  290.18 0854.44
2009/04/23 15:43:38.2    -105   -243    -35    265    268 203.4  -7.7  34200  290.24 0854.46
2009/04/23 15:43:38.3    -106   -135     56    172    182 218.3  18.1  34202  290.30 0854.46
2009/04/23 15:43:38.4     -92      7     25     93     97 274.4  15.3  34204  290.31 0854.46
2009/04/23 15:43:38.5    -110      9     30    111    116 274.8  15.3  34208  290.38 0854.46
2009/04/23 15:43:38.6    -331      0    102    332    348 270.1  17.2  34206  290.35 0854.46
2009/04/23 15:43:38.7    -358    122    127    379    400 288.8  18.6  34224  290.66 0854.46
2009/04/23 15:43:38.8    -338    208    138    398    422 301.6  19.2  34230  290.77 0854.46
2009/04/23 15:43:38.9    -490    294    -87    572    579 301.0  -8.7  34244  291.00 0854.46
2009/04/23 15:43:39.0    -475    258    -48    541    544 298.5  -5.1  34232  290.79 0854.46
2009/04/23 15:43:39.1    -383    259    166    463    491 304.1  20.4  34236  290.86 0854.46
2009/04/23 15:43:39.2    -425    239     66    488    493 299.4   7.8  34228  290.74 0854.46
2009/04/23 15:43:39.3    -702     57    -27    705    706 274.7  -2.2  34192  290.11 0854.46
2009/04/23 15:43:39.4    -646   -137    -86    661    667 258.0  -7.5  34178  289.88 0854.46
2009/04/23 15:43:39.5    -564    101    -31    574    575 280.2  -3.2  34190  290.07 0854.46
2009/04/23 15:43:39.6    -300    185     80    353    362 301.7  12.8  34202  290.27 0854.46
2009/04/23 15:43:39.7    -461    244    -20    522    523 297.9  -2.3  34212  290.46 0854.46
2009/04/23 15:43:39.8    -197    416    157    461    488 334.7  18.8  34234  290.83 0854.46
2009/04/23 15:43:39.9    -233    272    169    359    396 319.5  27.1  34264  291.35 0854.46
2009/04/23 15:43:40.0     -56    206    -15    214    215 344.6  -4.1  34256  291.20 0854.46
2009/04/23 15:43:40.1     -16     48    143     51    151 341.3  80.2  34260  291.28 0854.46
2009/04/23 15:43:40.2      86    203    279    221    355  22.9  57.8  34302  291.99 0854.47
2009/04/23 15:43:40.3    -292    212    169    361    398 306.0  27.0  34278  291.56 0854.47
2009/04/23 15:43:40.4    -280     57    -87    286    298 281.7 -21.8  34288  291.73 0854.47
2009/04/23 15:43:40.5    -160   -182    181    243    303 221.4  40.6  34292  291.82 0854.47
2009/04/23 15:43:40.6     270    -63    313    278    418 103.2  54.0  34264  291.34 0854.47
2009/04/23 15:43:40.7     159    -96    316    186    366 121.1  66.8  34278  291.56 0854.47
2009/04/23 15:43:40.8      44     12    292     46    295  74.1  90.0  34262  291.31 0854.47
2009/04/23 15:43:40.9     326     74    406    335    526  77.2  56.4  34218  290.57 0854.47
2009/04/23 15:43:41.0     318     51    405    323    518  80.8  57.5  34206  290.34 0854.47
2009/04/23 15:43:41.1     352      3    374    353    514  89.5  52.0  34202  290.27 0854.47
2009/04/23 15:43:41.2     611     54    396    614    730  84.9  35.9  34206  290.34 0854.47
2009/04/23 15:43:41.3     724     85    333    729    801  83.3  26.3  34142  289.27 0854.47
2009/04/23 15:43:41.4     418    -67    302    424    520  99.2  39.1  34208  290.39 0854.47
2009/04/23 15:43:41.5     167   -121    268    207    338 126.0  58.6  34214  290.48 0854.47
2009/04/23 15:43:41.6     345    -76    514    354    624 102.5  62.2  34214  290.50 0854.47
2009/04/23 15:43:41.7     472     39    314    474    568  85.2  36.6  34218  290.57 0854.47
2009/04/23 15:43:41.8     669   -381    401    771    869 119.7  29.6  34158  289.53 0854.47
2009/04/23 15:43:41.9     805   -143    134    818    830 100.1   9.3  34192  290.13 0854.47
2009/04/23 15:43:42.0     535   -414    230    677    716 127.8  18.8  34094  288.45 0854.47
2009/04/23 15:43:42.1     -89   -363    466    374    597 193.8  57.3  34102  288.58 0854.47
2009/04/23 15:43:42.2    -158   -401    258    431    502 201.5  33.8  34110  288.74 0854.49
2009/04/23 15:43:42.3     -27   -504    184    505    537 183.1  20.9  34120  288.91 0854.49
2009/04/23 15:43:42.4     -17   -726    113    727    736 181.4   8.9  34126  288.98 0854.49
2009/04/23 15:43:42.5    -171  -1066    219   1080   1102 189.1  11.5  34124  288.96 0854.49
2009/04/23 15:43:42.6    -257  -1030    100   1062   1068 194.0   5.4  34114  288.79 0854.49
2009/04/23 15:43:42.7    -431  -1179     68   1256   1259 200.1   3.1  34106  288.67 0854.49
2009/04/23 15:43:42.8    -567  -1081    -48   1221   1222 207.7  -2.3  34122  288.94 0854.49
2009/04/23 15:43:42.9    -526   -631    105    822    829 219.8   7.3  34136  289.16 0854.49
2009/04/23 15:43:43.0    -755   -724    -49   1047   1049 226.2  -2.7  34102  288.60 0854.49
2009/04/23 15:43:43.1    -796   -419   -153    900    913 242.2  -9.7  34120  288.90 0854.49
2009/04/23 15:43:43.2    -670   -414    -66    788    791 238.3  -4.8  34116  288.83 0854.49
2009/04/23 15:43:43.3    -776   -468    -77    907    911 238.9  -4.9  34124  288.95 0854.49
2009/04/23 15:43:43.4    -579   -588     41    826    828 224.5   2.9  34128  289.03 0854.49
2009/04/23 15:43:43.5    -637   -780    105   1008   1014 219.2   6.0  34120  288.91 0854.49
2009/04/23 15:43:43.6    -565   -493    170    751    771 228.9  12.8  34110  288.72 0854.49
2009/04/23 15:43:43.7    -620   -585   -111    853    861 226.7  -7.5  34112  288.77 0854.49
2009/04/23 15:43:43.8    -528   -553    110    765    774 223.7   8.2  34114  288.80 0854.49
2009/04/23 15:43:43.9    -132   -769   -112    781    790 189.8  -8.2  34104  288.64 0854.49
2009/04/23 15:43:44.0    -188   -823    129    845    855 192.9   8.7  34120  288.88 0854.49
2009/04/23 15:43:44.1    -148   -617    194    635    665 193.5  17.0  34126  288.98 0854.49
2009/04/23 15:43:44.2    -196   -632    144    662    678 197.3  12.3  34132  289.10 0854.48
2009/04/23 15:43:44.3    -217   -448     62    499    503 205.9   7.1  34126  289.01 0854.48
2009/04/23 15:43:44.4    -166   -559     50    584    587 196.5   5.0  34116  288.83 0854.48
2009/04/23 15:43:44.5      91   -451    192    461    499 168.6  24.1  34112  288.76 0854.48
2009/04/23 15:43:44.6      72   -553    389    558    680 172.6  38.3  34136  289.15 0854.48
2009/04/23 15:43:44.7     151   -515    303    537    616 163.6  31.9  34156  289.52 0854.48
2009/04/23 15:43:44.8     -12   -360    127    361    382 182.0  20.1  34136  289.18 0854.48
2009/04/23 15:43:44.9     105   -289    209    308    372 160.0  37.4  34162  289.62 0854.48
2009/04/23 15:43:45.0     -55    -64    113     85    141 220.5  59.4  34144  289.30 0854.48
2009/04/23 15:43:45.1     -49     35    -59     61     84 306.0 -54.4  34152  289.45 0854.48
2009/04/23 15:43:45.2      20     54    -94     58    110  20.9 -69.1  34152  289.45 0854.48
2009/04/23 15:43:45.3     118    120    -47    169    175  44.3 -20.4  34138  289.21 0854.48
2009/04/23 15:43:45.4     181    165   -147    246    286  47.7 -37.9  34132  289.10 0854.48
2009/04/23 15:43:45.5     168     26   -148    170    225  81.2 -50.0  34106  288.65 0854.48
2009/04/23 15:43:45.6     131     -3    -41    132    139  91.7 -17.6  34114  288.79 0854.48
2009/04/23 15:43:45.7      17    -42    -33     46     56 157.3 -43.0  34102  288.60 0854.48
2009/04/23 15:43:45.8    -132    -44     73    140    157 251.4  29.5  34114  288.80 0854.48
2009/04/23 15:43:45.9    -147   -188     86    239    255 218.1  19.9  34136  289.17 0854.48
2009/04/23 15:43:46.0      -8   -261     41    262    266 181.8   9.0  34140  289.24 0854.48
2009/04/23 15:43:46.1    -465     97   -185    476    510 281.8 -26.8  34142  289.27 0854.48
2009/04/23 15:43:46.2    -434   -280   -188    517    550 237.2 -25.3  34140  289.24 0854.48
2009/04/23 15:43:46.3    -579   -374     28    690    691 237.1   2.4  34156  289.51 0854.48
2009/04/23 15:43:46.4    -632   -105   -225    641    680 260.5 -19.4  34126  289.00 0854.48
2009/04/23 15:43:46.5    -339   -199    -47    394    397 239.6  -6.9  34142  289.26 0854.48
2009/04/23 15:43:46.6    -326   -473     90    575    583 214.6   8.9  34130  289.05 0854.48
2009/04/23 15:43:46.7    -250   -379    227    455    508 213.4  28.6  34138  289.20 0854.48
2009/04/23 15:43:46.8    -200   -551    203    587    622 200.0  19.1  34136  289.17 0854.48
2009/04/23 15:43:46.9    -100   -430    165    442    471 193.1  21.5  34138  289.21 0854.48
2009/04/23 15:43:47.0    -119   -224    297    254    390 208.0  55.3  34152  289.43 0854.48
2009/04/23 15:43:47.1     -75   -212    223    226    317 199.6  49.8  34164  289.63 0854.48
2009/04/23 15:43:47.2    -115   -317    278    338    437 200.0  43.7  34158  289.53 0854.48
2009/04/23 15:43:47.3    -102   -241    201    262    330 202.9  41.4  34156  289.49 0854.48
2009/04/23 15:43:47.4     -51   -318    208    323    384 189.1  35.6  34152  289.43 0854.48
2009/04/23 15:43:47.5     -62   -349    154    355    386 190.1  25.0  34152  289.43 0854.48
2009/04/23 15:43:47.6    -265   -220     56    345    350 230.4   9.2  34152  289.42 0854.48
2009/04/23 15:43:47.7    -121    -77     46    144    152 237.6  17.9  34172  289.77 0854.48
2009/04/23 15:43:47.8     -65     42     96     78    123 303.3  56.4  34166  289.69 0854.48
2009/04/23 15:43:47.9    -120    132     -7    179    180 317.7  -2.2  34170  289.74 0854.48
2009/04/23 15:43:48.0     -86    316    114    328    348 344.7  19.2  34178  289.86 0854.48
2009/04/23 15:43:48.1    -217    448    -82    499    506 334.1  -9.4  34178  289.88 0854.48
2009/04/23 15:43:48.2    -199    375    -50    425    429 332.0  -6.8  34162  289.60 0854.46
2009/04/23 15:43:48.3    -153    153    125    217    250 315.0  32.4  34166  289.68 0854.46
2009/04/23 15:43:48.4     -67    -48    113     83    140 234.1  60.5  34176  289.84 0854.46
2009/04/23 15:43:48.5      54    -18     99     58    114 108.6  66.8  34172  289.77 0854.46
2009/04/23 15:43:48.6     244     66     39    253    257  74.7   8.9  34150  289.41 0854.46
2009/04/23 15:43:48.7     102     34     62    108    124  71.6  32.9  34152  289.43 0854.46
2009/04/23 15:43:48.8      91    -75    114    119    164 129.5  49.2  34176  289.85 0854.46
2009/04/23 15:43:48.9      60    -47    131     77    151 127.8  66.8  34178  289.89 0854.46
2009/04/23 15:43:49.0     -62    -29    135     69    151 244.6  71.0  34224  290.67 0854.46
2009/04/23 15:43:49.1      46    323    212    327    389   8.1  35.6  34242  290.98 0854.46
2009/04/23 15:43:49.2     120    310    242    333    411  21.2  39.7  34174  289.82 0854.46
2009/04/23 15:43:49.3     174    172     56    245    252  45.3  12.9  34206  290.36 0854.46
2009/04/23 15:43:49.4     316    364   -138    483    503  41.0 -16.0  34220  290.59 0854.46
2009/04/23 15:43:49.5     152    453   -160    478    505  18.6 -18.6  34134  289.13 0854.46
2009/04/23 15:43:49.6     412    540   -176    680    703  37.3 -14.5  34202  290.27 0854.46
2009/04/23 15:43:49.7     559    286    -19    628    629  62.9  -1.8  34230  290.77 0854.46
2009/04/23 15:43:49.8     347    568   -211    666    699  31.4 -17.6  34174  289.80 0854.46
2009/04/23 15:43:49.9     293    571    -85    642    648  27.2  -7.6  34178  289.89 0854.46
2009/04/23 15:43:50.0     339    522    -47    623    625  33.0  -4.4  34176  289.84 0854.46
2009/04/23 15:43:50.1     166    533   -316    559    642  17.3 -36.4  34148  289.37 0854.46
2009/04/23 15:43:50.2     446    424    -77    616    621  46.5  -7.2  34152  289.45 0854.46
2009/04/23 15:43:50.3     507    426   -222    663    700  50.0 -18.6  34142  289.27 0854.46
2009/04/23 15:43:50.4     424    532    148    681    698  38.5  12.3  34174  289.80 0854.46
2009/04/23 15:43:50.5     365    591    206    695    725  31.7  16.5  34172  289.78 0854.46
2009/04/23 15:43:50.6     359    400     55    538    541  41.9   5.9  34174  289.82 0854.46
2009/04/23 15:43:50.7     486    348    -23    598    599  54.4  -2.2  34156  289.49 0854.46
2009/04/23 15:43:50.8     393    348   -109    526    538  48.5 -11.8  34170  289.75 0854.46
2009/04/23 15:43:50.9     202    387   -178    437    471  27.7 -27.9  34152  289.44 0854.46
2009/04/23 15:43:51.0      -4    142   -222    143    264 358.2 -69.0  34128  289.02 0854.46
2009/04/23 15:43:51.1    -264    116   -239    289    375 293.7 -48.2  34122  288.94 0854.46
2009/04/23 15:43:51.2    -252    218   -100    334    349 310.9 -16.7  34132  289.11 0854.46
2009/04/23 15:43:51.3    -303     79   -134    314    341 284.6 -29.0  34130  289.08 0854.46
2009/04/23 15:43:51.4    -160      9     30    161    164 273.5  10.6  34138  289.19 0854.46
2009/04/23 15:43:51.5    -182    104    -25    210    212 299.8  -6.9  34156  289.50 0854.46
2009/04/23 15:43:51.6    -165     92    -38    190    194 299.3 -11.3  34162  289.62 0854.46
2009/04/23 15:43:51.7     -86     86     92    122    152 315.0  40.7  34162  289.62 0854.46
2009/04/23 15:43:51.8     -51    109     46    121    129 334.7  21.0  34168  289.70 0854.46
2009/04/23 15:43:51.9     141    141    102    200    224  45.1  29.2  34152  289.45 0854.46
2009/04/23 15:43:52.0      67    179    120    192    226  20.5  35.5  34152  289.43 0854.46
2009/04/23 15:43:52.1      -8    105    102    106    147 355.5  49.0  34156  289.50 0854.46
2009/04/23 15:43:52.2    -104    210     24    235    237 333.5   5.9  34156  289.51 0854.46
2009/04/23 15:43:52.3      23    143     37    145    150   9.3  14.3  34162  289.60 0854.46
2009/04/23 15:43:52.4      73     50    156     89    179  55.4  68.1  34172  289.77 0854.46
2009/04/23 15:43:52.5     238     48    130    243    275  78.5  30.3  34184  289.97 0854.46
2009/04/23 15:43:52.6     277     69    155    286    325  75.8  30.8  34194  290.15 0854.46
2009/04/23 15:43:52.7     166     70     48    181    188  67.2  15.0  34178  289.89 0854.46
2009/04/23 15:43:52.8      98    148     97    178    202  33.6  31.3  34262  291.30 0854.46
2009/04/23 15:43:52.9      20    170    141    172    222   6.7  43.7  34248  291.06 0854.46
2009/04/23 15:43:53.0      25    -88    129     92    158 164.0  61.1  34254  291.18 0854.46
2009/04/23 15:43:53.1     -35   -149    155    154    218 193.4  50.1  34230  290.77 0854.46
2009/04/23 15:43:53.2     -44   -160    164    167    234 195.6  49.9  34224  290.65 0854.46
2009/04/23 15:43:53.3     -77   -263    266    275    382 196.3  49.0  34268  291.39 0854.46
2009/04/23 15:43:53.4     -55   -234    233    241    335 193.4  49.1  34260  291.26 0854.46
2009/04/23 15:43:53.5     -72   -268    365    278    458 195.1  59.1  34258  291.23 0854.46
2009/04/23 15:43:53.6    -232   -252    350    343    490 222.6  50.7  34218  290.56 0854.46
2009/04/23 15:43:53.7    -375   -311    302    488    573 230.4  34.8  34248  291.08 0854.46
2009/04/23 15:43:53.8    -174   -359    249    400    471 205.9  34.8  34208  290.39 0854.46
2009/04/23 15:43:53.9     -66   -411    272    417    497 189.2  36.0  34188  290.06 0854.46
2009/04/23 15:43:54.0      11   -217    294    218    366 176.9  59.9  34184  289.98 0854.46
2009/04/23 15:43:54.1       7   -420    -58    421    425 179.0  -7.9  34172  289.77 0854.46
2009/04/23 15:43:54.2      63   -234      3    243    244 164.9   0.7  34172  289.78 0854.46
2009/04/23 15:43:54.3     156   -147    -52    215    222 133.3 -13.7  34176  289.84 0854.46
2009/04/23 15:43:54.4     117   -162    -33    201    204 144.2  -9.4  34186  290.01 0854.46
2009/04/23 15:43:54.5      97     26     72    101    124  74.9  39.1  34200  290.25 0854.46
2009/04/23 15:43:54.6     270    -14     35    271    274  93.0   7.5  34192  290.12 0854.46
2009/04/23 15:43:54.7     247      0      9    248    249  90.0   2.1  34186  290.02 0854.46
2009/04/23 15:43:54.8     167     -6    147    168    223  92.4  45.8  34176  289.84 0854.46
2009/04/23 15:43:54.9      48    -12    124     50    133 104.2  77.1  34184  289.99 0854.46
2009/04/23 15:43:55.0      -5    -74    111     75    133 184.5  63.2  34188  290.06 0854.46
2009/04/23 15:43:55.1    -152   -123     45    196    202 231.1  12.9  34182  289.94 0854.46
2009/04/23 15:43:55.2    -253    -49     31    258    260 259.0   6.9  34180  289.92 0854.46
2009/04/23 15:43:55.3    -168   -107     17    200    201 237.6   4.9  34182  289.94 0854.46
2009/04/23 15:43:55.4     -86    -53     35    102    108 238.5  18.9  34174  289.82 0854.46
2009/04/23 15:43:55.5     -36     74      4     83     84 334.1   3.3  34172  289.79 0854.46
2009/04/23 15:43:55.6      16    -12      0     21     22 127.8  -2.2  34178  289.87 0854.46
2009/04/23 15:43:55.7       0   -145    123    146    190 180.0  44.1  34176  289.85 0854.46
2009/04/23 15:43:55.8     -94   -478    174    488    518 191.1  20.4  34174  289.81 0854.46
2009/04/23 15:43:55.9     -60   -505    109    509    521 186.8  12.1  34152  289.45 0854.46
2009/04/23 15:43:56.0     170   -473    306    503    588 160.2  34.1  34164  289.65 0854.46
2009/04/23 15:43:56.1      93   -645    340    652    735 171.8  29.8  34142  289.25 0854.46
2009/04/23 15:43:56.2     180   -562     93    591    599 162.2   9.0  34156  289.49 0854.48
2009/04/23 15:43:56.3    -108   -529   -103    541    551 191.6 -10.8  34146  289.33 0854.48
2009/04/23 15:43:56.4    -141   -605     51    622    625 193.2   4.7  34136  289.15 0854.48
2009/04/23 15:43:56.5     -65   -562     99    566    575 186.7  10.0  34160  289.56 0854.48
2009/04/23 15:43:56.6      62   -567    156    571    592 173.7  15.3  34156  289.49 0854.48
2009/04/23 15:43:56.7     -89   -295    333    309    454 196.9  52.2  34160  289.58 0854.48
2009/04/23 15:43:56.8     -55   -207    263    215    339 194.9  56.5  34158  289.54 0854.48
2009/04/23 15:43:56.9    -128   -385    159    406    436 198.4  22.5  34152  289.43 0854.48
2009/04/23 15:43:57.0    -105   -232    254    255    359 204.5  50.0  34158  289.54 0854.48
2009/04/23 15:43:57.1      31   -340    169    342    381 174.7  28.1  34152  289.42 0854.48
2009/04/23 15:43:57.2    -124    -68    232    142    272 241.1  65.4  34154  289.47 0854.48
2009/04/23 15:43:57.3    -257   -155    169    301    345 238.9  31.7  34148  289.38 0854.48
2009/04/23 15:43:57.4    -374   -150     82    404    413 248.1  11.6  34140  289.22 0854.48
2009/04/23 15:43:57.5    -785    -25    152    786    801 268.1  11.0  34154  289.46 0854.48
2009/04/23 15:43:57.6    -870   -409   -111    962    969 244.8  -6.6  34138  289.21 0854.48
2009/04/23 15:43:57.7    -917   -314   -211    970    993 251.1 -12.3  34138  289.20 0854.48
2009/04/23 15:43:57.8    -661    -76    239    666    707 263.4  20.7  34140  289.24 0854.48
2009/04/23 15:43:57.9    -756     35      6    757    758 272.7   0.5  34138  289.19 0854.48
2009/04/23 15:43:58.0    -652   -403     -7    767    768 238.3  -0.6  34140  289.24 0854.48
2009/04/23 15:43:58.1    -752   -320   -123    818    828 246.9  -8.6  34146  289.33 0854.46
2009/04/23 15:43:58.2    -759   -315   -267    822    865 247.4 -18.0  34136  289.15 0854.46
2009/04/23 15:43:58.3    -432   -237    -27    493    494 241.2  -3.2  34128  289.03 0854.46
2009/04/23 15:43:58.4    -781   -144    -57    795    797 259.5  -4.1  34152  289.42 0854.46
2009/04/23 15:43:58.5    -599    -26    -61    600    604 267.5  -5.8  34142  289.25 0854.46
2009/04/23 15:43:58.6    -672   -222    238    708    748 251.7  18.6  34156  289.50 0854.46
2009/04/23 15:43:58.7    -500   -315    107    592    602 237.8  10.3  34152  289.42 0854.46
2009/04/23 15:43:58.8    -728   -234    -62    765    768 252.2  -4.7  34146  289.33 0854.46
2009/04/23 15:43:58.9    -923   -327   -111    980    987 250.5  -6.5  34150  289.41 0854.46
2009/04/23 15:43:59.0    -814   -201    130    839    849 256.1   8.8  34138  289.19 0854.46
2009/04/23 15:43:59.1    -834   -366     62    912    915 246.3   3.9  34134  289.14 0854.46
2009/04/23 15:43:59.2    -849   -151    -84    863    868 259.9  -5.6  34136  289.15 0854.46
2009/04/23 15:43:59.3    -769   -225     72    802    806 253.7   5.2  34152  289.43 0854.46
2009/04/23 15:43:59.4    -945   -442     34   1044   1045 244.9   1.9  34158  289.55 0854.46
2009/04/23 15:43:59.5    -701   -410    197    813    837 239.7  13.7  34120  288.91 0854.46
2009/04/23 15:43:59.6    -802   -445     11    918    919 241.0   0.7  34134  289.12 0854.46
2009/04/23 15:43:59.7    -595   -211   -155    632    651 250.4 -13.8  34142  289.25 0854.46
2009/04/23 15:43:59.8    -675    -94   -134    682    696 262.0 -11.1  34156  289.51 0854.46
2009/04/23 15:43:59.9    -581   -277    -45    644    646 244.5  -4.0  34168  289.70 0854.46
2009/04/23 15:44:00.0    -420   -374    -32    563    564 228.3  -3.3  34156  289.50 0854.46
2009/04/23 15:44:00.1    -469   -299    157    557    579 237.5  15.8  34170  289.73 0854.46
2009/04/23 15:44:00.2    -441    -55     87    445    454 262.9  11.1  34150  289.39 0854.46
2009/04/23 15:44:00.3    -628    241    -10    673    674 291.1  -0.9  34156  289.49 0854.46
2009/04/23 15:44:00.4    -570    -65   -129    574    589 263.4 -12.7  34150  289.41 0854.46
2009/04/23 15:44:00.5    -889   -179   -287    907    952 258.6 -17.6  34152  289.44 0854.46
2009/04/23 15:44:00.6    -719    -55    195    721    748 265.6  15.1  34146  289.34 0854.46
2009/04/23 15:44:00.7    -813     63    117    816    825 274.5   8.2  34166  289.67 0854.46
2009/04/23 15:44:00.8    -755     46   -145    757    771 273.5 -10.9  34170  289.73 0854.46
2009/04/23 15:44:00.9    -512   -149   -178    534    562 253.7 -23.6  34172  289.77 0854.46
2009/04/23 15:44:01.0    -526   -201   -175    564    591 249.1 -17.3  34190  290.08 0854.46
2009/04/23 15:44:01.1    -418   -298   -213    514    556 234.5 -28.2  34192  290.13 0854.46
2009/04/23 15:44:01.2    -351   -238   -247    425    491 235.8 -37.3  34188  290.05 0854.46
2009/04/23 15:44:01.3    -531   -226   -120    578    591 247.0 -11.8  34160  289.58 0854.46
2009/04/23 15:44:01.4   -1022   -138   -407   1032   1109 262.3 -27.1  34166  289.67 0854.46
2009/04/23 15:44:01.5    -434   -434   -185    615    642 225.0 -21.7  34168  289.72 0854.46
2009/04/23 15:44:01.7     120   -543     52    557    560 167.5   5.4  34124  288.97 0854.46
2009/04/23 15:44:01.7    -232   -491    -39    544    546 205.3  -4.1  34170  289.74 0854.46
2009/04/23 15:44:01.9      64   -450    346    455    571 171.9  41.2  34166  289.68 0854.46
2009/04/23 15:44:01.9       8   -304    454    305    546 178.4  63.1  34172  289.78 0854.46
2009/04/23 15:44:02.0     -28   -151    317    154    352 190.7  72.4  34190  290.09 0854.46
2009/04/23 15:44:02.1     -32   -124    415    129    434 194.7  82.4  34204  290.33 0854.46
2009/04/23 15:44:02.2    -102   -223    514    246    569 204.5  72.8  34192  290.13 0854.46
2009/04/23 15:44:02.3    -229   -280    466    362    590 219.3  58.4  34182  289.96 0854.46
2009/04/23 15:44:02.5    -349    132    121    374    394 290.7  18.0  34162  289.62 0854.46
2009/04/23 15:44:02.6    -337    307      0    457    458 312.3   0.1  34170  289.73 0854.46
2009/04/23 15:44:02.7    -101    175    127    203    239 329.9  35.0  34166  289.67 0854.46
2009/04/23 15:44:02.8      52    142    -33    152    156  20.1 -12.4  34158  289.55 0854.46
2009/04/23 15:44:02.9     128   -111    -27    170    173 131.1  -9.0  34172  289.79 0854.46
2009/04/23 15:44:03.0       1   -125   -123    126    176 179.1 -53.8  34166  289.69 0854.46
2009/04/23 15:44:03.1    -150   -298    189    334    383 206.7  32.0  34188  290.03 0854.46
2009/04/23 15:44:03.2    -197    -92   -171    218    277 244.8 -46.1  34164  289.63 0854.46
2009/04/23 15:44:03.3    -382   -160   -176    415    450 247.3 -28.7  34166  289.66 0854.46
2009/04/23 15:44:03.4    -469   -293   -153    554    575 238.0 -15.5  34192  290.11 0854.46
2009/04/23 15:44:03.5    -115   -304     88    326    338 200.7  15.2  34196  290.18 0854.46
2009/04/23 15:44:03.6     -84   -325     19    336    337 194.6   3.3  34188  290.04 0854.46
2009/04/23 15:44:03.7    -394   -311     60    502    506 231.7   6.9  34174  289.81 0854.46
2009/04/23 15:44:03.8    -508   -419    -13    659    660 230.5  -1.2  34186  290.00 0854.46
2009/04/23 15:44:03.9    -510   -349   -111    619    630 235.6 -10.2  34192  290.11 0854.46
2009/04/23 15:44:04.0    -331   -386    -22    509    510 220.6  -2.5  34168  289.71 0854.46
2009/04/23 15:44:04.1    -272   -499     85    569    576 208.6   8.5  34180  289.90 0854.46
2009/04/23 15:44:04.2    -319   -444    102    547    557 215.7  10.6  34164  289.63 0854.46
2009/04/23 15:44:04.3    -313   -504     -3    594    595 211.9  -0.4  34150  289.39 0854.46
2009/04/23 15:44:04.4    -387   -697    -31    798    799 209.0  -2.2  34154  289.46 0854.46
2009/04/23 15:44:04.5    -312   -494     52    585    588 212.3   5.1  34142  289.27 0854.46
2009/04/23 15:44:04.6    -247   -603   -166    652    673 202.3 -14.3  34144  289.31 0854.46
2009/04/23 15:44:04.7      40   -517   -151    519    540 175.5 -21.1  34156  289.51 0854.46
2009/04/23 15:44:04.8     -95   -345    189    359    405 195.5  30.1  34156  289.50 0854.46
2009/04/23 15:44:04.9    -292   -421    365    513    629 214.8  39.0  34144  289.30 0854.46
2009/04/23 15:44:05.0    -328   -464    122    569    583 215.3  12.1  34146  289.34 0854.46
2009/04/23 15:44:05.1    -383   -518   -232    645    686 216.5 -19.8  34134  289.14 0854.46
2009/04/23 15:44:05.2     -47   -563    221    566    607 184.9  22.5  34148  289.37 0854.45
2009/04/23 15:44:05.3    -651   -429    -80    780    785 236.6  -5.9  34172  289.76 0854.45
2009/04/23 15:44:05.4    -791   -473   -159    922    936 239.1  -9.8  34142  289.27 0854.45
2009/04/23 15:44:05.5    -510  -1097   -113   1210   1216 204.9  -5.4  34134  289.14 0854.45
2009/04/23 15:44:05.6    -415   -829   -197    928    949 206.6 -12.0  34130  289.08 0854.45
2009/04/23 15:44:05.7    -564   -685   -368    888    961 219.5 -28.2  34124  288.96 0854.45
2009/04/23 15:44:05.8   -1021   -133   -452   1030   1124 262.5 -29.7  34138  289.21 0854.45
2009/04/23 15:44:05.9    -952   -556   -268   1103   1136 239.7 -13.7  34116  288.81 0854.45
2009/04/23 15:44:06.0    -307   -553   -280    633    692 209.0 -29.7  34132  289.10 0854.45
2009/04/23 15:44:06.1    -447   -815   -256    930    965 208.7 -15.4  34166  289.69 0854.45
2009/04/23 15:44:06.2    -287   -693   -137    751    764 202.5 -10.4  34148  289.38 0854.45
2009/04/23 15:44:06.3    -415   -500    -78    650    655 219.7  -6.9  34142  289.26 0854.45
2009/04/23 15:44:06.4    -145   -904   -299    916    964 189.1 -18.1  34162  289.61 0854.45
2009/04/23 15:44:06.5    -304   -977   -363   1024   1087 197.3 -19.5  34130  289.05 0854.45
2009/04/23 15:44:06.6    -184   -907   -445    926   1027 191.5 -31.9  34112  288.75 0854.45
2009/04/23 15:44:06.7     243  -1145   -361   1171   1225 168.0 -22.1  34138  289.21 0854.45
2009/04/23 15:44:06.8     185  -1118   -179   1134   1149 170.6  -9.0  34126  289.01 0854.45
2009/04/23 15:44:06.9      89  -1203      6   1207   1208 175.8   0.3  34154  289.48 0854.45
2009/04/23 15:44:07.0     -27  -1243    -43   1244   1245 181.3  -2.0  34164  289.63 0854.45
2009/04/23 15:44:07.1    -115  -1237     54   1243   1244 185.3   2.5  34156  289.51 0854.45
2009/04/23 15:44:07.2    -180   -965    -75    982    985 190.6  -4.4  34166  289.66 0854.47
2009/04/23 15:44:07.3      40   -766    -92    767    773 177.0  -6.9  34158  289.54 0854.47
2009/04/23 15:44:07.4      94  -1011    126   1016   1024 174.7   7.1  34144  289.30 0854.47
2009/04/23 15:44:07.5    -133   -949     20    959    960 188.0   1.2  34158  289.55 0854.47
2009/04/23 15:44:07.6      84  -1107     34   1110   1111 175.6   1.8  34160  289.58 0854.47
2009/04/23 15:44:07.7      64  -1020    111   1023   1030 176.4   6.2  34178  289.89 0854.47
2009/04/23 15:44:07.8    -357   -759     27    839    840 205.2   1.9  34146  289.34 0854.47
2009/04/23 15:44:07.9    -418   -641   -138    766    779 213.1 -10.3  34166  289.66 0854.47
2009/04/23 15:44:08.0    -357  -1028   -241   1089   1116 199.2 -12.5  34134  289.14 0854.47
2009/04/23 15:44:08.1    -287   -884   -217    930    956 198.0 -13.2  34152  289.44 0854.47
2009/04/23 15:44:08.2    -584   -935   -105   1103   1109 212.0  -5.5  34174  289.80 0854.47
2009/04/23 15:44:08.3    -455   -814   -106    933    940 209.2  -6.5  34170  289.73 0854.47
2009/04/23 15:44:08.4    -458   -518    -51    692    694 221.5  -4.2  34156  289.51 0854.47
2009/04/23 15:44:08.5    -440   -582    -48    730    732 217.1  -3.8  34188  290.05 0854.47
2009/04/23 15:44:08.6    -382   -909    128    987    996 202.8   7.4  34140  289.22 0854.47
2009/04/23 15:44:08.7    -175   -684    137    707    721 194.4  11.0  34168  289.71 0854.47
2009/04/23 15:44:08.8     158   -492    141    517    536 162.2  15.3  34148  289.38 0854.47
2009/04/23 15:44:08.9     274   -536    201    603    636 152.9  18.5  34156  289.50 0854.47
2009/04/23 15:44:09.0     618   -407    222    741    774 123.4  16.7  34170  289.75 0854.47
2009/04/23 15:44:09.1     619   -285    327    682    756 114.7  27.3  34146  289.35 0854.47
2009/04/23 15:44:09.2     438   -799    151    912    925 151.3   9.4  34146  289.33 0854.48
2009/04/23 15:44:09.3     543   -811    -68    977    980 146.2  -4.0  34134  289.14 0854.48
2009/04/23 15:44:09.4     310   -622    232    695    733 153.5  18.5  34150  289.39 0854.48
2009/04/23 15:44:09.5     435   -515    275    675    728 139.8  23.5  34130  289.05 0854.48
2009/04/23 15:44:09.6     465   -463    321    657    731 134.9  28.0  34132  289.11 0854.48
2009/04/23 15:44:09.7     492   -519    281    716    769 136.6  22.7  34158  289.55 0854.48
2009/04/23 15:44:09.8     422   -435    338    607    694 135.9  31.5  34162  289.60 0854.48
2009/04/23 15:44:09.9     494   -276    215    566    605 119.2  21.8  34144  289.30 0854.48
2009/04/23 15:44:10.0     491    -68    281    496    570  97.9  32.0  34130  289.06 0854.48
2009/04/23 15:44:10.1     203    -86    246    221    330 113.1  53.5  34150  289.41 0854.48
2009/04/23 15:44:10.2     368     41    319    371    489  83.5  45.1  34180  289.90 0854.48
2009/04/23 15:44:10.3     301     50    420    306    519  80.5  60.5  34166  289.66 0854.48
2009/04/23 15:44:10.4     200     45    367    206    420  77.2  68.5  34174  289.82 0854.48
2009/04/23 15:44:10.5     -77    120    287    143    320 327.4  71.7  34188  290.03 0854.48
2009/04/23 15:44:10.6     113     29    320    117    340  75.4  79.3  34182  289.93 0854.48
2009/04/23 15:44:10.7       1   -103    300    104    317 179.0  80.4  34182  289.95 0854.48
2009/04/23 15:44:10.8      45     81    301     93    315  29.0  82.4  34184  289.98 0854.48
2009/04/23 15:44:10.9     395    165    581    429    722  67.3  60.0  34190  290.08 0854.48
2009/04/23 15:44:11.0     507    -30    535    508    737  93.4  51.9  34170  289.75 0854.48
2009/04/23 15:44:11.1     416    -26    443    417    608  93.6  52.1  34168  289.70 0854.48
2009/04/23 15:44:11.2     438    -17    359    439    567  92.3  43.6  34152  289.45 0854.48
2009/04/23 15:44:11.3     302    -81    367    313    482 105.0  55.4  34160  289.58 0854.48
2009/04/23 15:44:11.4    -148   -353    416    384    566 202.8  52.7  34182  289.96 0854.48
2009/04/23 15:44:11.5     399   -274    270    485    555 124.5  31.5  34134  289.14 0854.48
2009/04/23 15:44:11.6     332    -44    270    335    430  97.7  42.9  34152  289.45 0854.48
2009/04/23 15:44:11.7     254    110    274    278    390  66.5  49.9  34156  289.52 0854.48
2009/04/23 15:44:11.8     265    280    230    386    449  43.4  33.5  34164  289.65 0854.48
2009/04/23 15:44:11.9     355    207    261    412    487  59.7  35.5  34148  289.36 0854.48
2009/04/23 15:44:12.0     327    158    217    364    423  64.2  33.6  34166  289.68 0854.48
2009/04/23 15:44:12.1     523    154    103    546    556  73.6  10.7  34150  289.41 0854.48
2009/04/23 15:44:12.2     660    153    172    678    700  76.9  14.3  34220  290.60 0854.48
2009/04/23 15:44:12.3     558    137    188    575    606  76.2  18.1  34238  290.88 0854.48
2009/04/23 15:44:12.4     683    282    257    740    783  67.5  20.0  34274  291.52 0854.48
2009/04/23 15:44:12.5     681    242    327    723    793  70.4  26.0  34292  291.83 0854.48
2009/04/23 15:44:12.6     785    220    465    816    939  74.3  32.2  34298  291.92 0854.48
2009/04/23 15:44:12.7     666    515    434    843    948  52.3  29.4  34188  290.04 0854.48
2009/04/23 15:44:12.8     610    472    227    772    805  52.3  16.4  34152  289.42 0854.48
2009/04/23 15:44:12.9     717    421    283    832    880  59.6  18.8  34152  289.43 0854.48
2009/04/23 15:44:13.0     538    531    263    757    802  45.4  19.2  34150  289.39 0854.48
2009/04/23 15:44:13.1     545    655     89    853    858  39.8   6.0  34142  289.26 0854.48
2009/04/23 15:44:13.2     522   1017    -77   1144   1147  27.2  -3.9  34142  289.28 0854.51
2009/04/23 15:44:13.3     660    821    -43   1054   1055  38.8  -2.4  34148  289.38 0854.51
2009/04/23 15:44:13.4     219    958    -38    983    984  12.9  -2.2  34156  289.50 0854.51
2009/04/23 15:44:13.5      -4    754    -97    755    762 359.6  -7.4  34170  289.73 0854.51
2009/04/23 15:44:13.6    -100    907     15    913    914 353.7   1.0  34148  289.38 0854.51
2009/04/23 15:44:13.7    -337    819   -128    886    896 337.6  -8.2  34146  289.35 0854.51
2009/04/23 15:44:13.8    -313    666     57    736    739 334.8   4.5  34150  289.40 0854.51
2009/04/23 15:44:13.9     -51    709    130    711    723 355.9  10.4  34158  289.55 0854.51
2009/04/23 15:44:14.0    -121    549     95    563    572 347.5   9.6  34146  289.35 0854.51
2009/04/23 15:44:14.1    -408    421   -268    587    645 315.9 -30.7  34158  289.53 0854.51
2009/04/23 15:44:14.2    -367      4   -232    368    435 270.7 -39.7  34186  290.00 0854.51
2009/04/23 15:44:14.3      37    -75   -188     84    205 153.3 -78.9  34200  290.26 0854.51
2009/04/23 15:44:14.4      16   -164   -280    165    325 174.2 -71.3  34206  290.34 0854.51
2009/04/23 15:44:14.5      62      0   -338     63    343  90.0 -90.0  34208  290.37 0854.51
2009/04/23 15:44:14.6     -59   -179   -429    189    468 198.3 -79.2  34214  290.49 0854.51
2009/04/23 15:44:14.7     138   -169   -427    219    479 140.6 -75.2  34204  290.33 0854.51
2009/04/23 15:44:14.8     424   -247   -436    491    656 120.2 -50.6  34198  290.20 0854.51
2009/04/23 15:44:14.9     134   -303   -379    332    503 156.2 -58.8  34172  289.78 0854.51
2009/04/23 15:44:15.0     238   -584   -380    631    736 157.8 -38.2  34182  289.94 0854.51
2009/04/23 15:44:15.1     393   -308   -358    500    614 128.1 -43.6  34190  290.08 0854.51
2009/04/23 15:44:15.2     323   -291   -294    435    525 132.0 -41.8  34184  289.98 0854.51
2009/04/23 15:44:15.3     256   -186    -95    317    332 126.0 -16.8  34184  289.98 0854.51
2009/04/23 15:44:15.4     278   -132     15    309    310 115.5   2.9  34182  289.93 0854.51
2009/04/23 15:44:15.5     334    -30    -80    336    346  95.2 -13.4  34184  289.99 0854.51
2009/04/23 15:44:15.6     433      7    132    434    454  89.0  17.0  34176  289.83 0854.51
2009/04/23 15:44:15.7     473   -198     61    513    517 112.7   6.9  34182  289.93 0854.51
2009/04/23 15:44:15.8     272   -214   -149    347    377 128.2 -29.2  34166  289.69 0854.51
2009/04/23 15:44:15.9     525    199   -201    562    597  69.2 -19.7  34178  289.86 0854.51
2009/04/23 15:44:16.0     646     79   -111    651    661  83.0  -9.7  34176  289.85 0854.51
2009/04/23 15:44:16.1     719     -1    112    720    729  90.1   8.9  34178  289.89 0854.51
2009/04/23 15:44:16.2     409     46    -80    412    420  83.5 -11.1  34182  289.95 0854.51
2009/04/23 15:44:16.3     216   -156    -97    267    284 125.9 -25.3  34182  289.95 0854.51
2009/04/23 15:44:16.4     324   -195    -20    379    380 121.1  -3.1  34174  289.82 0854.51
2009/04/23 15:44:16.5     324    -45   -117    328    348  97.9 -24.7  34178  289.86 0854.51
2009/04/23 15:44:16.6     308    -89    -92    321    333 106.2 -20.5  34174  289.82 0854.51
2009/04/23 15:44:16.7     251   -181    -33    310    312 125.9  -6.2  34176  289.83 0854.51
2009/04/23 15:44:16.8     310   -181     22    360    361 120.3   3.6  34182  289.93 0854.51
2009/04/23 15:44:16.9     141   -117     65    184    195 129.8  20.0  34172  289.79 0854.51
2009/04/23 15:44:17.0     142    -56     15    153    154 111.7   5.9  34176  289.84 0854.51
2009/04/23 15:44:17.1     -47   -154    105    162    193 196.9  35.6  34184  289.99 0854.51
2009/04/23 15:44:17.2     -29   -172    152    175    231 189.6  45.6  34200  290.25 0854.51
2009/04/23 15:44:17.3    -138   -270    166    304    346 207.1  31.3  34198  290.23 0854.51
2009/04/23 15:44:17.4     -48   -235    176    240    297 191.6  39.7  34196  290.19 0854.51
2009/04/23 15:44:17.5     -88   -243    150    259    299 200.0  32.7  34208  290.37 0854.51
2009/04/23 15:44:17.6      54   -345     57    350    355 171.1   9.3  34194  290.16 0854.51
2009/04/23 15:44:17.7      62   -329     44    335    338 169.2   7.6  34198  290.20 0854.51
2009/04/23 15:44:17.8     -15   -240    -17    241    242 183.8  -4.1  34186  290.02 0854.51
2009/04/23 15:44:17.9      -5   -160     95    161    186 181.8  33.5  34198  290.21 0854.51
2009/04/23 15:44:18.0      79   -245    137    258    292 162.0  30.3  34222  290.63 0854.51
2009/04/23 15:44:18.1     140   -285    128    318    342 153.7  23.1  34212  290.47 0854.51
2009/04/23 15:44:18.2     146   -212     71    258    268 145.3  15.6  34196  290.19 0854.51
2009/04/23 15:44:18.3     191    -89     97    211    232 115.1  26.6  34224  290.67 0854.51
2009/04/23 15:44:18.4     173   -133    189    219    289 127.7  45.4  34286  291.70 0854.51
2009/04/23 15:44:18.5     251   -116    230    277    360 114.8  44.0  34246  291.03 0854.51
2009/04/23 15:44:18.6     142   -110    208    180    275 127.8  54.6  34274  291.50 0854.51
2009/04/23 15:44:18.7      21      7    140     23    141  71.4  90.0  34260  291.26 0854.51
2009/04/23 15:44:18.8      41     14    148     44    154  70.9  82.7  34248  291.08 0854.51
2009/04/23 15:44:18.9     162    -14    218    163    272  95.0  59.8  34242  290.95 0854.51
2009/04/23 15:44:19.0     225   -114    244    253    351 117.0  49.0  34208  290.39 0854.51
2009/04/23 15:44:19.1      98    -62    238    117    265 122.4  72.1  34218  290.55 0854.51
2009/04/23 15:44:19.2     124    -72    194    144    241 120.2  59.8  34202  290.30 0854.48
2009/04/23 15:44:19.3     136   -137    188    194    270 135.1  49.2  34196  290.19 0854.48
2009/04/23 15:44:19.4     285     56    266    291    394  78.8  47.0  34190  290.08 0854.48
2009/04/23 15:44:19.5     427     63    194    432    473  81.5  25.8  34180  289.92 0854.48
2009/04/23 15:44:19.6     222    -41    116    226    254 100.6  29.3  34204  290.32 0854.48
2009/04/23 15:44:19.7      75    -52    117     92    148 124.6  57.9  34206  290.36 0854.48
2009/04/23 15:44:19.8      93     18    164     95    189  78.5  67.5  34220  290.58 0854.48
2009/04/23 15:44:19.9     162     16    186    163    247  84.1  54.3  34212  290.45 0854.48
2009/04/23 15:44:20.0     249     40     78    253    265  80.8  17.3  34204  290.31 0854.48
2009/04/23 15:44:20.1     229   -117     33    258    261 117.0   7.5  34214  290.49 0854.48
2009/04/23 15:44:20.2      13   -191    139    192    237 176.0  39.5  34194  290.16 0854.48
2009/04/23 15:44:20.3     -59   -230     93    238    255 194.5  22.8  34166  289.68 0854.48
2009/04/23 15:44:20.4     -47   -143     39    151    157 198.3  14.7  34158  289.53 0854.48
2009/04/23 15:44:20.5     -34   -103     49    109    119 198.3  25.7  34158  289.53 0854.48
2009/04/23 15:44:20.6     -51    -32     21     61     65 237.6  18.9  34154  289.48 0854.48
2009/04/23 15:44:20.7     -53      0     26     54     59 270.0  27.3  34152  289.45 0854.48
2009/04/23 15:44:20.8     -87     53     75    103    127 301.5  39.7  34152  289.45 0854.48
2009/04/23 15:44:20.9    -161     87     85    184    202 298.4  26.4  34162  289.60 0854.48
2009/04/23 15:44:21.0    -199     77     17    214    215 291.3   4.6  34156  289.52 0854.48
2009/04/23 15:44:21.1    -110    168    -34    201    205 326.8  -9.8  34180  289.92 0854.48
2009/04/23 15:44:21.2     -12    164    -44    165    171 355.5 -15.2  34174  289.82 0854.45
2009/04/23 15:44:21.3       4    253     30    254    256   1.0   6.9  34166  289.68 0854.45
2009/04/23 15:44:21.4    -145    195     66    244    253 323.3  15.3  34174  289.81 0854.45
2009/04/23 15:44:21.5    -208     35     49    211    217 279.6  13.2  34156  289.52 0854.45
2009/04/23 15:44:21.6    -226     35    126    229    261 279.0  31.4  34168  289.71 0854.45
2009/04/23 15:44:21.7    -314    -44    -21    318    319 262.0  -3.8  34160  289.56 0854.45
2009/04/23 15:44:21.8    -323    158   -128    360    383 296.1 -19.7  34192  290.13 0854.45
2009/04/23 15:44:21.9    -293    141    -41    326    329 295.7  -7.3  34196  290.17 0854.45
2009/04/23 15:44:22.0    -334    -61    -43    340    343 259.6  -7.3  34188  290.03 0854.45
2009/04/23 15:44:22.1    -482    -91   -142    491    512 259.3 -16.2  34146  289.32 0854.45
2009/04/23 15:44:22.2    -606   -247   -190    655    682 247.8 -16.2  34136  289.17 0854.42
2009/04/23 15:44:22.3    -503   -236   -192    556    589 244.8 -19.1  34164  289.63 0854.42
2009/04/23 15:44:22.4    -268   -224   -110    350    368 230.2 -17.5  34166  289.67 0854.42
2009/04/23 15:44:22.5    -545   -126    -21    560    561 257.0  -2.2  34148  289.38 0854.42
2009/04/23 15:44:22.6    -386    177   -144    425    448 294.7 -23.5  34160  289.56 0854.42
2009/04/23 15:44:22.7    -382    109    -17    398    399 285.9  -2.5  34178  289.87 0854.42
2009/04/23 15:44:22.8    -536   -123     26    551    552 257.0   2.8  34162  289.60 0854.42
2009/04/23 15:44:22.9    -628   -335    -93    712    718 241.9  -7.5  34132  289.11 0854.42
2009/04/23 15:44:23.0    -620   -367    -56    721    724 239.4  -4.5  34136  289.18 0854.42
2009/04/23 15:44:23.1    -543   -346   -106    645    654 237.5  -9.4  34138  289.20 0854.42
2009/04/23 15:44:23.2    -432   -432    175    611    636 225.0  16.0  34190  290.09 0854.42
2009/04/23 15:44:23.3    -509   -494    -55    710    713 225.9  -4.5  34116  288.84 0854.42
2009/04/23 15:44:23.4    -632   -350   -200    723    751 241.0 -15.5  34116  288.82 0854.42
2009/04/23 15:44:23.5    -700   -371   -276    793    839 242.1 -24.4  34136  289.16 0854.42
2009/04/23 15:44:23.6    -809   -545   -125    976    984 236.0  -7.3  34150  289.41 0854.42
2009/04/23 15:44:23.7    -584   -485     25    760    761 230.3   1.9  34136  289.18 0854.42
2009/04/23 15:44:23.8    -679   -335   -250    758    799 243.7 -18.3  34126  288.98 0854.42
2009/04/23 15:44:23.9    -739   -392   -213    837    864 242.0 -14.3  34138  289.21 0854.42
2009/04/23 15:44:24.0    -796   -495   -207    938    961 238.1 -12.5  34136  289.15 0854.42
2009/04/23 15:44:24.1    -699   -350   -279    782    831 243.4 -19.7  34130  289.08 0854.42
2009/04/23 15:44:24.2    -555   -178   -279    583    646 252.2 -31.8  34136  289.18 0854.41
2009/04/23 15:44:24.3    -551   -152   -286    572    639 254.5 -33.0  34132  289.09 0854.41
2009/04/23 15:44:24.4    -558    -52   -363    561    668 264.6 -40.4  34158  289.55 0854.41
2009/04/23 15:44:24.5    -397   -130   -432    418    601 251.8 -55.6  34154  289.46 0854.41
2009/04/23 15:44:24.6    -379    -73   -377    387    540 259.0 -53.7  34150  289.40 0854.41
2009/04/23 15:44:24.7    -201     60   -340    210    399 286.6 -69.8  34146  289.32 0854.41
2009/04/23 15:44:24.8     -35     38   -269     52    273 317.7 -90.0  34146  289.33 0854.41
2009/04/23 15:44:24.9     -50    -64   -232     82    246 218.3 -84.6  34144  289.30 0854.41
2009/04/23 15:44:25.0    -286    -54   -346    292    452 259.2 -60.1  34140  289.24 0854.41
2009/04/23 15:44:25.1      36    -87   -242     95    259 157.3 -82.0  34142  289.28 0854.41
2009/04/23 15:44:25.2     292    -89   -172    306    351 107.1 -36.3  34138  289.20 0854.41
2009/04/23 15:44:25.3     589   -136   -189    605    633 103.0 -22.4  34142  289.26 0854.41
2009/04/23 15:44:25.4     397     80   -316    405    513  78.5 -46.1  34146  289.34 0854.41
2009/04/23 15:44:25.5     484    -15   -239    485    540  91.8 -32.6  34148  289.38 0854.41
2009/04/23 15:44:25.6     737      9   -151    738    754  89.3 -11.6  34142  289.28 0854.41
2009/04/23 15:44:25.7     642   -207    104    675    683 107.9   8.8  34144  289.29 0854.41
2009/04/23 15:44:25.8     415    -77   -149    423    449 100.6 -19.4  34150  289.41 0854.41
2009/04/23 15:44:25.9     547     49      0    550    551  84.8   0.0  34148  289.36 0854.41
2009/04/23 15:44:26.0     852     79    232    857    889  84.7  15.2  34162  289.59 0854.41
2009/04/23 15:44:26.1     615    -13    250    616    664  91.3  23.4  34154  289.47 0854.41
2009/04/23 15:44:26.2     535   -178    137    564    581 108.4  13.7  34134  289.14 0854.40
2009/04/23 15:44:26.3     483     49    278    486    559  84.1  32.3  34144  289.29 0854.40
2009/04/23 15:44:26.4     275     -8    122    276    301  91.7  25.2  34152  289.44 0854.40
2009/04/23 15:44:26.5     358    184    365    403    543  62.7  46.9  34172  289.76 0854.40
2009/04/23 15:44:26.6     406    141    196    430    472  70.8  26.2  34158  289.55 0854.40
2009/04/23 15:44:26.7     600    199    374    633    735  71.6  33.3  34224  290.66 0854.40
2009/04/23 15:44:26.8     639    152    386    657    762  76.6  33.3  34218  290.54 0854.40
2009/04/23 15:44:26.9     499     87    362    507    622  80.1  39.1  34168  289.71 0854.40
2009/04/23 15:44:27.0     485    308    317    575    656  57.6  31.3  34150  289.40 0854.40
2009/04/23 15:44:27.1     609    314    123    686    698  62.7  10.2  34180  289.92 0854.40
2009/04/23 15:44:27.2     379    416     96    563    572  42.3   9.7  34150  289.39 0854.40
2009/04/23 15:44:27.3     385    410    132    563    579  43.2  13.3  34130  289.08 0854.40
2009/04/23 15:44:27.4     271    404    158    487    513  33.8  18.0  34130  289.08 0854.40
2009/04/23 15:44:27.5     296    382    287    484    562  37.8  33.5  34142  289.28 0854.40
2009/04/23 15:44:27.6     427    347     98    551    560  50.9  10.1  34140  289.24 0854.40
2009/04/23 15:44:27.7     254    422    222    493    540  31.1  25.9  34162  289.62 0854.40
2009/04/23 15:44:27.8     377    294      9    479    480  52.0   1.1  34192  290.13 0854.40
2009/04/23 15:44:27.9     390    269      6    475    476  55.4   0.8  34182  289.95 0854.40
2009/04/23 15:44:28.0     282    307    -60    418    423  42.6  -8.3  34190  290.09 0854.40
2009/04/23 15:44:28.2     239    238    -22    338    339  45.2  -3.7  34196  290.18 0854.42
2009/04/23 15:44:28.3     167    237    -16    291    292  35.2  -3.2  34184  289.97 0854.42
2009/04/23 15:44:28.4     268    179     74    323    332  56.3  12.9  34168  289.71 0854.42
2009/04/23 15:44:28.5     407    244     36    475    477  59.1   4.4  34188  290.06 0854.42
2009/04/23 15:44:28.6     550    244    170    602    626  66.0  15.8  34190  290.08 0854.42
2009/04/23 15:44:28.7     585    272    225    646    684  65.1  20.0  34226  290.68 0854.42
2009/04/23 15:44:28.8     548    158    269    571    631  73.9  27.1  34212  290.47 0854.42
2009/04/23 15:44:28.9     470    160    199    497    535  71.2  23.0  34182  289.96 0854.42
2009/04/23 15:44:29.0     362    183    103    406    419  63.2  14.3  34192  290.12 0854.42
2009/04/23 15:44:29.1     291    211     32    360    362  54.1   5.1  34208  290.37 0854.42
2009/04/23 15:44:29.2     226    129    -14    261    262  60.2  -3.2  34242  290.97 0854.42
2009/04/23 15:44:29.3      65    208    124    219    251  17.4  32.3  34260  291.26 0854.42
2009/04/23 15:44:29.4     195    126    222    233    321  57.1  48.6  34234  290.83 0854.42
2009/04/23 15:44:29.5     121    129    185    178    256  43.2  51.2  34244  291.00 0854.42
2009/04/23 15:44:29.6     368    164    217    404    458  65.9  30.7  34278  291.57 0854.42
2009/04/23 15:44:29.7     269    205    129    339    362  52.7  21.8  34268  291.39 0854.42
2009/04/23 15:44:29.8     339    452    117    566    579  36.9  11.7  34192  290.10 0854.42
2009/04/23 15:44:29.9     496    536    157    731    748  42.8  12.2  34156  289.51 0854.42
2009/04/23 15:44:30.0     424    512    138    665    680  39.6  11.8  34142  289.27 0854.42
2009/04/23 15:44:30.1     259    543    279    602    663  25.5  26.6  34142  289.26 0854.42
2009/04/23 15:44:30.2     422    462    254    626    675  42.4  23.4  34142  289.26 0854.45
2009/04/23 15:44:30.3     213    536    122    577    591  21.7  12.0  34142  289.27 0854.45
2009/04/23 15:44:30.4     199    488    202    528    565  22.2  22.0  34136  289.16 0854.45
2009/04/23 15:44:30.5     132    506    248    524    579  14.7  27.2  34146  289.33 0854.45
2009/04/23 15:44:30.6    -325    439    121    547    561 323.5  12.5  34142  289.26 0854.45
2009/04/23 15:44:30.7    -648    413   -197    769    794 302.5 -14.4  34134  289.12 0854.45
2009/04/23 15:44:30.8    -559    351   -179    661    686 302.1 -15.2  34126  289.00 0854.45
2009/04/23 15:44:30.9    -677    388   -241    781    817 299.8 -22.2  34128  289.04 0854.45
2009/04/23 15:44:31.0    -457    489    -73    670    675 317.0  -6.2  34150  289.41 0854.45
2009/04/23 15:44:31.1    -380    387    -73    543    548 315.6  -7.7  34152  289.43 0854.45
2009/04/23 15:44:31.2    -417    478    -50    635    638 318.9  -4.6  34154  289.47 0854.45
2009/04/23 15:44:31.3    -571    212    130    610    624 290.4  12.1  34162  289.60 0854.45
2009/04/23 15:44:31.4    -817    190    140    839    851 283.1   9.5  34162  289.61 0854.45
2009/04/23 15:44:31.5   -1074    215   -183   1096   1112 281.3  -9.5  34162  289.60 0854.45
2009/04/23 15:44:31.6    -732     44   -168    734    753 273.5 -12.9  34162  289.60 0854.45
2009/04/23 15:44:31.7    -427   -237    196    489    526 240.9  23.0  34172  289.78 0854.45
2009/04/23 15:44:31.8     270    767    255    814    854  19.4  17.4  34148  289.36 0854.45
2009/04/23 15:44:31.9      12    858    102    859    866   0.8   6.8  34150  289.39 0854.45
2009/04/23 15:44:32.0     -51    578    110    581    592 354.9  10.7  34174  289.81 0854.45
2009/04/23 15:44:32.1     184    723    385    747    840  14.3  29.4  34142  289.28 0854.45
2009/04/23 15:44:32.2     -88    719    560    725    916 353.0  41.6  34176  289.85 0854.47
2009/04/23 15:44:32.3    -117    653    161    664    684 349.8  13.7  34154  289.48 0854.47
2009/04/23 15:44:32.4     266    424     98    501    511  32.1  11.1  34144  289.30 0854.47
2009/04/23 15:44:32.5    -201    468    -74    510    516 336.7  -8.3  34142  289.27 0854.47
2009/04/23 15:44:32.6    -228    293    212    372    428 322.2  32.3  34152  289.44 0854.47
2009/04/23 15:44:32.7    -125    558    -12    572    573 347.3  -1.3  34218  290.54 0854.47
2009/04/23 15:44:32.8     -81    613     31    619    620 352.4   2.9  34170  289.74 0854.47
2009/04/23 15:44:32.9     -24    713     52    714    716 358.0   4.2  34178  289.88 0854.47
2009/04/23 15:44:33.0      56    726     37    729    730   4.5   2.9  34182  289.96 0854.47
2009/04/23 15:44:33.1     894    628     62   1093   1095  54.9   3.3  34206  290.36 0854.47
2009/04/23 15:44:33.2     927    488   -190   1048   1066  62.2 -10.3  34164  289.63 0854.47
2009/04/23 15:44:33.3    1155    371    159   1214   1225  72.2   7.5  34216  290.52 0854.47
2009/04/23 15:44:33.4    1287     -2    404   1288   1350  90.1  17.4  34174  289.80 0854.47
2009/04/23 15:44:33.5     725    455   -237    856    889  57.9 -15.5  34168  289.71 0854.47
2009/04/23 15:44:33.6     619    892    135   1087   1096  34.8   7.1  34154  289.48 0854.47
2009/04/23 15:44:33.7     649    802    -61   1032   1034  39.0  -3.4  34154  289.47 0854.47
2009/04/23 15:44:33.8     545    395    -85    674    680  54.0  -7.2  34138  289.21 0854.47
2009/04/23 15:44:33.9     605    464    145    763    777  52.5  10.8  34170  289.73 0854.47
2009/04/23 15:44:34.0     856    642    260   1071   1103  53.1  13.7  34172  289.79 0854.47
2009/04/23 15:44:34.1     972    293    554   1016   1157  73.2  31.0  34260  291.28 0854.47
2009/04/23 15:44:34.2     972    394    530   1049   1175  67.9  28.9  34180  289.92 0854.47
2009/04/23 15:44:34.3    1085    232    731   1110   1329  77.9  36.5  34226  290.69 0854.47
2009/04/23 15:44:34.4     620    811    313   1021   1069  37.4  17.1  34112  288.75 0854.47
2009/04/23 15:44:34.5     652    558    241    859    893  49.5  15.7  34146  289.35 0854.47
2009/04/23 15:44:34.6     830    336    205    896    920  67.9  12.9  34132  289.09 0854.47
2009/04/23 15:44:34.7     934    311    382    985   1056  71.5  22.3  34130  289.05 0854.47
2009/04/23 15:44:34.8     448    728    351    855    924  31.6  23.6  34110  288.72 0854.47
2009/04/23 15:44:34.9     744    517    526    907   1048  55.2  32.7  34156  289.49 0854.47
2009/04/23 15:44:35.0     664    365    716    758   1042  61.2  48.2  34134  289.13 0854.47
2009/04/23 15:44:35.1     828    556    554    998   1141  56.1  31.5  34112  288.77 0854.47
2009/04/23 15:44:35.2     670    657    549    939   1087  45.6  33.0  34138  289.21 0854.47
2009/04/23 15:44:35.3     295    605    563    674    878  26.0  44.1  34198  290.21 0854.47
2009/04/23 15:44:35.4     802    394    297    894    943  63.8  18.4  34126  289.01 0854.47
2009/04/23 15:44:35.5     625    635    173    892    909  44.5  11.0  34126  289.01 0854.47
2009/04/23 15:44:35.6     457    440    157    635    655  46.1  13.9  34144  289.31 0854.47
2009/04/23 15:44:35.7     586    613    120    849    858  43.7   8.1  34144  289.31 0854.47
2009/04/23 15:44:35.8     518    624     77    812    816  39.7   5.4  34136  289.16 0854.47
2009/04/23 15:44:35.9     653    554     73    857    861  49.7   4.9  34132  289.10 0854.47
2009/04/23 15:44:36.0     560    548     60    784    787  45.6   4.4  34156  289.51 0854.47
2009/04/23 15:44:36.1     724    468    -17    863    864  57.1  -1.2  34150  289.39 0854.47
2009/04/23 15:44:36.2     385    548     74    670    675  35.1   6.4  34144  289.29 0854.47
2009/04/23 15:44:36.3     337    496     30    600    601  34.2   2.9  34154  289.47 0854.47
2009/04/23 15:44:36.4     437    333    140    550    568  52.7  14.3  34166  289.68 0854.47
2009/04/23 15:44:36.5     570    397    321    695    765  55.1  26.6  34242  290.97 0854.47
2009/04/23 15:44:36.6     377    613    125    720    731  31.6   9.9  34216  290.52 0854.47
2009/04/23 15:44:36.7     617    649    156    896    910  43.6   9.9  34184  289.97 0854.47
2009/04/23 15:44:36.8     583    771    336    967   1024  37.1  19.2  34142  289.26 0854.47
2009/04/23 15:44:36.9     511    810    275    958    997  32.2  16.0  34272  291.46 0854.47
2009/04/23 15:44:37.0     666    625    269    914    953  46.8  16.4  34250  291.10 0854.47
2009/04/23 15:44:37.1     676    631    218    925    951  47.0  13.3  34196  290.17 0854.47
2009/04/23 15:44:37.2     690    648    111    947    954  46.8   6.7  34184  289.98 0854.47
2009/04/23 15:44:37.3     896    494     91   1023   1028  61.1   5.1  34202  290.30 0854.47
2009/04/23 15:44:37.4     859    311    252    914    949  70.1  15.4  34248  291.05 0854.47
2009/04/23 15:44:37.5     871    459    138    985    995  62.2   8.0  34216  290.53 0854.47
2009/04/23 15:44:37.6     714    373    105    806    813  62.4   7.4  34198  290.23 0854.47
2009/04/23 15:44:37.7     867    266    161    908    923  72.9  10.1  34238  290.89 0854.47
2009/04/23 15:44:37.8     900    244    198    933    955  74.8  12.0  34228  290.73 0854.47
2009/04/23 15:44:37.9     573    549    161    794    810  46.2  11.5  34194  290.16 0854.47
2009/04/23 15:44:38.0     561    642     79    853    858  41.1   5.3  34146  289.34 0854.47
2009/04/23 15:44:38.1     561    643     41    854    856  41.1   2.8  34124  288.95 0854.47
2009/04/23 15:44:38.2     467    437     26    640    641  46.9   2.3  34182  289.96 0854.46
2009/04/23 15:44:38.3     651    416     31    773    774  57.4   2.3  34264  291.34 0854.46
2009/04/23 15:44:38.4     659    277    -12    716    717  67.2  -1.0  34244  291.01 0854.46
2009/04/23 15:44:38.5     548    276    201    614    647  63.3  18.2  34254  291.18 0854.46
2009/04/23 15:44:38.6     747    263    155    792    808  70.6  11.1  34230  290.76 0854.46
2009/04/23 15:44:38.7     372    397    240    545    595  43.1  25.2  34230  290.76 0854.46
2009/04/23 15:44:38.8     365    362    239    515    567  45.2  26.6  34210  290.43 0854.46
2009/04/23 15:44:38.9     385    281    111    477    490  53.9  13.1  34202  290.30 0854.46
2009/04/23 15:44:39.0     536    290    255    610    661  61.6  24.1  34220  290.59 0854.46
2009/04/23 15:44:39.1     366    187    246    412    479  62.9  33.7  34264  291.35 0854.46
2009/04/23 15:44:39.2     443    -45    321    446    549  95.9  39.3  34272  291.49 0854.46
2009/04/23 15:44:39.3     360     91    316    372    488  75.7  44.7  34274  291.50 0854.46
2009/04/23 15:44:39.4     259     56    345    266    435  77.8  58.5  34262  291.30 0854.46
2009/04/23 15:44:39.5     494    161    312    520    606  71.9  33.7  34220  290.59 0854.46
2009/04/23 15:44:39.6     496     22    230    497    547  87.4  26.5  34246  291.04 0854.46
2009/04/23 15:44:39.7     578     62    269    582    641  83.8  26.6  34262  291.32 0854.46
2009/04/23 15:44:39.8     517    111    306    529    611  77.8  32.7  34294  291.85 0854.46
2009/04/23 15:44:39.9     430     79    327    438    546  79.5  40.6  34336  292.56 0854.46
2009/04/23 15:44:40.0     440     90    325    450    555  78.4  39.5  34286  291.71 0854.46
2009/04/23 15:44:40.1     363    156    193    396    440  66.8  27.9  34264  291.35 0854.46
2009/04/23 15:44:40.2     401     87    225    411    468  77.7  31.0  34286  291.70 0854.47
2009/04/23 15:44:40.3     446     41    308    449    544  84.7  37.7  34324  292.36 0854.47
2009/04/23 15:44:40.4     242    187    313    306    437  52.3  50.7  34342  292.65 0854.47
2009/04/23 15:44:40.5     328    158    362    365    514  64.3  49.9  34362  292.99 0854.47
2009/04/23 15:44:40.6     299    138    239    330    407  65.3  39.5  34334  292.54 0854.47
2009/04/23 15:44:40.7     265     76    383    276    472  74.0  60.8  34298  291.92 0854.47
2009/04/23 15:44:40.8     471     88    187    480    515  79.4  22.4  34298  291.93 0854.47
2009/04/23 15:44:40.9     229     82    219    244    327  70.3  46.6  34284  291.68 0854.47
2009/04/23 15:44:41.0     259    162    288    306    420  58.0  48.0  34296  291.88 0854.47
2009/04/23 15:44:41.1     206     75    298    220    370  69.8  60.3  34272  291.48 0854.47
2009/04/23 15:44:41.2     147    265    181    304    353  29.0  33.5  34318  292.24 0854.47
2009/04/23 15:44:41.3     162    272    262    317    411  30.8  43.7  34302  292.00 0854.47
2009/04/23 15:44:41.4      74    220    272    233    358  18.7  55.3  34284  291.68 0854.47
2009/04/23 15:44:41.5     129    148    223    197    297  41.2  54.2  34300  291.94 0854.47
2009/04/23 15:44:41.6      75     90    166    118    203  39.6  61.3  34304  292.01 0854.47
2009/04/23 15:44:41.7     175    128    181    217    282  53.8  43.8  34308  292.07 0854.47
2009/04/23 15:44:41.8     125    129    215    180    280  44.1  56.1  34288  291.75 0854.47
2009/04/23 15:44:41.9     199     68    288    211    357  71.2  60.4  34256  291.21 0854.47
2009/04/23 15:44:42.0     172    252    125    306    330  34.3  23.5  34232  290.78 0854.47
2009/04/23 15:44:42.1     162      5    163    163    230  87.9  50.1  34252  291.15 0854.47
2009/04/23 15:44:42.2     -42    165    118    171    207 345.7  37.8  34268  291.40 0854.48
2009/04/23 15:44:42.3      49     -9    164     50    171 100.6  82.5  34260  291.26 0854.48
2009/04/23 15:44:42.4    -111    -72    108    133    171 237.1  43.5  34254  291.16 0854.48
2009/04/23 15:44:42.5    -123     70    -39    142    148 299.8 -15.5  34240  290.92 0854.48
2009/04/23 15:44:42.6    -164    -13     37    165    170 265.2  12.6  34254  291.16 0854.48
2009/04/23 15:44:42.7    -130    -43    -39    138    144 251.4 -16.0  34258  291.25 0854.48
2009/04/23 15:44:42.8    -105   -146      8    181    182 215.8   2.8  34268  291.40 0854.48
2009/04/23 15:44:42.9     -99   -147    -65    178    189 214.1 -25.1  34266  291.37 0854.48
2009/04/23 15:44:43.0    -142   -134   -117    196    228 226.7 -37.9  34260  291.28 0854.48
2009/04/23 15:44:43.1    -242    -78    -17    255    256 252.1  -3.9  34260  291.27 0854.48
2009/04/23 15:44:43.2    -291   -147   -115    327    346 243.1 -24.4  34188  290.04 0854.48
2009/04/23 15:44:43.3    -115    168    144    204    249 325.5  38.6  34202  290.29 0854.48
2009/04/23 15:44:43.4     -53     33    100     63    118 302.4  64.7  34214  290.50 0854.48
2009/04/23 15:44:43.5      75     92    160    119    199  39.2  59.8  34230  290.77 0854.48
2009/04/23 15:44:43.6      13   -161    226    162    278 175.1  60.8  34208  290.39 0854.48
2009/04/23 15:44:43.7     -19   -249    226    250    337 184.5  46.9  34216  290.51 0854.48
2009/04/23 15:44:43.8      42   -355    212    358    416 173.1  33.5  34214  290.49 0854.48
2009/04/23 15:44:43.9     146   -391    157    418    446 159.4  21.4  34214  290.50 0854.48
2009/04/23 15:44:44.0      70   -254    115    264    287 164.4  25.1  34210  290.41 0854.48
2009/04/23 15:44:44.1      51   -381    151    385    413 172.3  22.7  34218  290.56 0854.48
2009/04/23 15:44:44.2     -13   -357     53    358    362 182.1   8.5  34214  290.49 0854.48
2009/04/23 15:44:44.3    -106   -294      9    313    314 200.0   1.7  34214  290.49 0854.48
2009/04/23 15:44:44.4     -83   -296     84    308    320 195.8  15.3  34218  290.54 0854.48
2009/04/23 15:44:44.5    -118   -329     95    350    363 199.8  15.3  34232  290.79 0854.48
2009/04/23 15:44:44.6    -121   -320    176    343    385 200.8  29.3  34240  290.93 0854.48
2009/04/23 15:44:44.7    -193   -314    216    369    427 211.7  33.0  34242  290.97 0854.48
2009/04/23 15:44:44.8    -138   -292    195    323    377 205.3  34.0  34236  290.86 0854.48
2009/04/23 15:44:44.9    -409   -286    116    500    514 235.0  13.1  34236  290.86 0854.48
2009/04/23 15:44:45.0    -403   -352    104    536    546 228.9  11.0  34250  291.09 0854.48
2009/04/23 15:44:45.1    -398   -165     33    432    434 247.4   4.4  34250  291.11 0854.48
2009/04/23 15:44:45.2     -78   -224    228    238    329 199.2  49.0  34242  290.97 0854.47
2009/04/23 15:44:45.3    -136   -554    276    571    634 193.8  27.7  34230  290.77 0854.47
2009/04/23 15:44:45.4       7   -489    314    490    581 179.1  35.6  34214  290.50 0854.47
2009/04/23 15:44:45.5      20   -568    318    569    651 177.9  31.6  34238  290.88 0854.47
2009/04/23 15:44:45.6     -54   -581    204    584    619 185.4  19.3  34240  290.92 0854.47
2009/04/23 15:44:45.7     225   -604    228    645    684 159.5  20.2  34254  291.16 0854.47
2009/04/23 15:44:45.8      82   -507    180    514    544 170.8  20.0  34218  290.57 0854.47
2009/04/23 15:44:45.9      57   -566    239    569    617 174.2  24.2  34206  290.34 0854.47
2009/04/23 15:44:46.0     231   -293    151    374    403 141.8  23.1  34198  290.20 0854.47
2009/04/23 15:44:46.1     263   -221      4    344    345 130.0   0.7  34194  290.16 0854.47
2009/04/23 15:44:46.2      70   -231     75    242    254 163.1  17.3  34202  290.29 0854.47
2009/04/23 15:44:46.3      59   -194    174    203    267 163.1  44.9  34222  290.63 0854.47
2009/04/23 15:44:46.4     -63   -386    252    392    466 189.3  35.6  34206  290.36 0854.47
2009/04/23 15:44:46.5    -173   -543    257    570    625 197.7  25.9  34212  290.47 0854.47
2009/04/23 15:44:46.6    -183   -535    230    566    610 198.9  23.2  34186  290.02 0854.47
2009/04/23 15:44:46.7    -239   -451    -39    511    513 208.0  -4.4  34172  289.76 0854.47
2009/04/23 15:44:46.8    -327   -226    141    398    423 235.4  19.6  34188  290.04 0854.47
2009/04/23 15:44:46.9    -139   -204    -68    248    258 214.3 -15.4  34200  290.24 0854.47
2009/04/23 15:44:47.0       0   -491     37    492    494 179.9   4.4  34172  289.79 0854.47
2009/04/23 15:44:47.1      35   -436     94    438    449 175.3  12.2  34160  289.56 0854.47
2009/04/23 15:44:47.2     272   -287    205    396    445 136.6  29.3  34154  289.46 0854.48
2009/04/23 15:44:47.3     124    -68    236    142    275 118.8  66.4  34180  289.92 0854.48
2009/04/23 15:44:47.4     123    -64    193    139    237 117.5  60.6  34164  289.63 0854.48
2009/04/23 15:44:47.5     321   -260    200    414    459 129.0  27.4  34180  289.90 0854.48
2009/04/23 15:44:47.6     315   -462    273    560    623 145.7  27.8  34164  289.63 0854.48
2009/04/23 15:44:47.7     512   -411    114    657    668 128.8   9.9  34158  289.54 0854.48
2009/04/23 15:44:47.8     540   -559     89    778    784 136.0   6.6  34154  289.46 0854.48
2009/04/23 15:44:47.9     494   -610    143    785    798 141.0  10.4  34148  289.37 0854.48
2009/04/23 15:44:48.0     570   -646    108    862    869 138.6   7.2  34150  289.41 0854.48
2009/04/23 15:44:48.1     238   -630    170    674    696 159.3  14.2  34148  289.38 0854.48
2009/04/23 15:44:48.2     177   -473    180    506    537 159.4  20.4  34166  289.67 0854.48
2009/04/23 15:44:48.3     179   -527     93    557    565 161.2   9.5  34162  289.60 0854.48
2009/04/23 15:44:48.4     365   -500   -138    620    636 143.9 -12.6  34152  289.45 0854.48
2009/04/23 15:44:48.5     117   -432    -64    448    453 164.8  -8.2  34162  289.61 0854.48
2009/04/23 15:44:48.6     453   -490    -85    668    674 137.2  -7.3  34164  289.65 0854.48
2009/04/23 15:44:48.7     394   -453   -134    601    616 139.0 -12.6  34166  289.68 0854.48
2009/04/23 15:44:48.8     378   -194     -8    426    427 117.2  -1.1  34174  289.82 0854.48
2009/04/23 15:44:48.9     415   -104     20    428    429 104.2   2.8  34160  289.56 0854.48
2009/04/23 15:44:49.0     280   -391     62    482    487 144.4   7.4  34156  289.50 0854.48
2009/04/23 15:44:49.1     408   -558    148    692    708 143.8  12.1  34152  289.42 0854.48
2009/04/23 15:44:49.2     384   -397    184    553    584 136.0  18.5  34146  289.34 0854.50
2009/04/23 15:44:49.3     467   -361    201    591    625 127.8  18.8  34148  289.36 0854.50
2009/04/23 15:44:49.4     174   -308    101    354    369 150.5  15.9  34152  289.43 0854.50
2009/04/23 15:44:49.5     178   -376     -8    417    418 154.6  -1.2  34134  289.14 0854.50
2009/04/23 15:44:49.6     492   -356     -5    608    609 125.9  -0.5  34150  289.39 0854.50
2009/04/23 15:44:49.7     387    -12    230    388    451  91.9  33.4  34152  289.43 0854.50
2009/04/23 15:44:49.8     290   -237     -8    375    376 129.2  -1.3  34156  289.52 0854.50
2009/04/23 15:44:49.9     188   -153   -152    243    286 129.1 -39.6  34156  289.49 0854.50
2009/04/23 15:44:50.0     218    -26   -113    220    247  96.8 -33.7  34156  289.51 0854.50
2009/04/23 15:44:50.1     385   -180    -61    426    431 115.1  -8.3  34148  289.36 0854.50
2009/04/23 15:44:50.2     366   -140    -17    392    393 111.0  -2.5  34154  289.48 0854.50
2009/04/23 15:44:50.3     285    -71     -1    294    295 104.1  -0.3  34154  289.47 0854.50
2009/04/23 15:44:50.4     286   -159    147    328    359 119.1  25.7  34152  289.42 0854.50
2009/04/23 15:44:50.5     295    183    -95    348    361  58.3 -15.4  34148  289.37 0854.50
2009/04/23 15:44:50.6     249    -11    -13    250    251  92.6  -3.1  34152  289.42 0854.50
2009/04/23 15:44:50.7     267      0    -97    268    285  90.0 -25.3  34150  289.41 0854.50
2009/04/23 15:44:50.8     386   -114     20    403    404 106.5   2.9  34142  289.26 0854.50
2009/04/23 15:44:50.9     227    -78     71    241    252 109.1  16.4  34154  289.46 0854.50
2009/04/23 15:44:51.0     293    -26      6    295    296  95.2   1.2  34154  289.47 0854.50
2009/04/23 15:44:51.1     235     10      6    236    237  87.4   1.6  34156  289.51 0854.50
2009/04/23 15:44:51.2     163     10     70    164    178  86.5  24.3  34152  289.45 0854.53
2009/04/23 15:44:51.3     114    -23    152    117    191 101.5  58.5  34156  289.52 0854.53
2009/04/23 15:44:51.4      34    -54    193     65    203 147.5  81.2  34162  289.62 0854.53
2009/04/23 15:44:51.5     277     68    201    286    349  76.1  38.5  34154  289.48 0854.53
2009/04/23 15:44:51.6      52    -38    197     65    207 126.0  80.7  34170  289.75 0854.53
2009/04/23 15:44:51.7     270      0    283    271    391  90.0  51.4  34162  289.62 0854.53
2009/04/23 15:44:51.8     275    -68    210    284    353 104.1  40.2  34154  289.48 0854.53
2009/04/23 15:44:51.9     411    100    173    423    457  76.3  23.4  34150  289.39 0854.53
2009/04/23 15:44:52.0     176     94    -28    200    203  61.8  -8.0  34154  289.46 0854.53
2009/04/23 15:44:52.1     134   -104     84    170    189 127.8  28.0  34150  289.41 0854.53
2009/04/23 15:44:52.2     195    -55    147    203    250 105.9  39.7  34164  289.64 0854.53
2009/04/23 15:44:52.3     228   -229     13    324    325 135.1   2.3  34160  289.56 0854.53
2009/04/23 15:44:52.4     191   -433     45    474    477 156.2   5.4  34162  289.61 0854.53
2009/04/23 15:44:52.5     315   -587    129    667    680 151.8  11.0  34158  289.53 0854.53
2009/04/23 15:44:52.6     125   -464    130    481    499 164.9  15.1  34156  289.49 0854.53
2009/04/23 15:44:52.7     211   -704    280    735    786 163.3  22.0  34166  289.66 0854.53
2009/04/23 15:44:52.8     235   -615    176    659    683 159.1  15.0  34160  289.58 0854.53
2009/04/23 15:44:52.9     200   -561    414    596    725 160.3  38.3  34170  289.75 0854.53
2009/04/23 15:44:53.0     210   -564    364    603    704 159.5  34.0  34148  289.36 0854.53
2009/04/23 15:44:53.1     157   -471    435    497    660 161.5  45.7  34154  289.47 0854.53
2009/04/23 15:44:53.2      94   -518    411    527    668 169.7  41.9  34166  289.69 0854.53
2009/04/23 15:44:53.3     295   -404     -6    501    502 143.9  -0.7  34146  289.34 0854.53
2009/04/23 15:44:53.4     107   -529   -161    540    564 168.5 -16.6  34154  289.46 0854.53
2009/04/23 15:44:53.5      10   -517   -172    518    545 178.8 -23.7  34158  289.53 0854.53
2009/04/23 15:44:53.6    -252   -350   -133    432    452 215.8 -21.9  34164  289.63 0854.53
2009/04/23 15:44:53.7    -399   -172   -174    435    468 246.6 -27.4  34154  289.48 0854.53
2009/04/23 15:44:53.8    -339    -38    -26    342    344 263.5  -4.5  34158  289.55 0854.53
2009/04/23 15:44:53.9     -63   -210    291    220    364 196.7  59.2  34178  289.86 0854.53
2009/04/23 15:44:54.0     105   -165    193    196    275 147.4  49.9  34174  289.81 0854.53
2009/04/23 15:44:54.1     186   -156    214    244    324 130.0  45.7  34168  289.70 0854.53
2009/04/23 15:44:54.2     178   -167    193    245    311 133.1  42.2  34170  289.75 0854.53
2009/04/23 15:44:54.3     206   -142    187    251    313 124.6  40.6  34164  289.64 0854.53
2009/04/23 15:44:54.4     187   -127    143    227    268 124.2  35.5  34170  289.73 0854.53
2009/04/23 15:44:54.5     362    -84    221    372    432 103.2  33.5  34164  289.65 0854.53
2009/04/23 15:44:54.6     296   -187    186    351    397 122.2  30.2  34168  289.71 0854.53
2009/04/23 15:44:54.7     255   -537    370    595    700 154.6  34.9  34154  289.48 0854.53
2009/04/23 15:44:54.8     181   -302    173    353    393 149.0  28.1  34156  289.52 0854.53
2009/04/23 15:44:55.0      34   -311     17    313    314 173.7   3.3  34154  289.46 0854.53
2009/04/23 15:44:55.1     549   -279     49    616    619 117.0   4.6  34152  289.45 0854.53
2009/04/23 15:44:55.2     471   -223     53    522    525 115.3   5.8  34162  289.60 0854.51
2009/04/23 15:44:55.3     294    -89     40    308    311 106.8   7.4  34158  289.54 0854.51
2009/04/23 15:44:55.4     171   -252    158    305    343 145.7  29.4  34156  289.52 0854.51
2009/04/23 15:44:55.5     175   -192     16    260    261 137.7   3.6  34164  289.63 0854.51
2009/04/23 15:44:55.6     -30   -175     82    178    195 189.8  26.4  34160  289.58 0854.51
2009/04/23 15:44:55.7    -137   -160    -67    211    221 220.5 -23.0  34162  289.62 0854.51
2009/04/23 15:44:55.8     -77   -186     81    202    217 202.5  23.0  34162  289.62 0854.51
2009/04/23 15:44:55.9      13   -182      8    183    184 175.8   2.5  34166  289.67 0854.51
2009/04/23 15:44:56.0      39   -216     26    220    222 169.8   6.9  34166  289.67 0854.51
2009/04/23 15:44:56.1     116   -295      0    318    319 158.4   0.1  34166  289.66 0854.51
2009/04/23 15:44:56.2     113   -401    -75    417    424 164.2 -10.3  34164  289.65 0854.51
2009/04/23 15:44:56.3     123   -547      2    561    562 167.3   0.2  34160  289.58 0854.51
2009/04/23 15:44:56.4     183   -597    -82    625    631 163.0  -7.5  34152  289.42 0854.51
2009/04/23 15:44:56.5      38   -505   -135    507    525 175.6 -15.0  34160  289.56 0854.51
2009/04/23 15:44:56.6      92   -647    -25    654    655 171.9  -2.2  34152  289.45 0854.51
2009/04/23 15:44:56.7     -53   -654    -42    657    659 184.7  -3.7  34156  289.51 0854.51
2009/04/23 15:44:56.8    -186   -678    -43    704    706 195.4  -3.5  34152  289.42 0854.51
2009/04/23 15:44:56.9     -84   -602    -82    609    615 188.0  -7.7  34148  289.37 0854.51
2009/04/23 15:44:57.0     -14   -595   -159    596    617 181.4 -15.0  34148  289.36 0854.51
2009/04/23 15:44:57.1      24   -531   -157    532    555 177.4 -16.5  34152  289.43 0854.51
2009/04/23 15:44:57.2     -91   -432   -132    442    462 191.9 -16.6  34162  289.61 0854.47
2009/04/23 15:44:57.3      41   -545    -80    547    553 175.6  -8.4  34144  289.31 0854.47
2009/04/23 15:44:57.4      61   -430    -24    435    436 171.9  -3.3  34152  289.43 0854.47
2009/04/23 15:44:57.5      60   -368    -73    374    382 170.7 -11.1  34162  289.60 0854.47
2009/04/23 15:44:57.6     -66   -370    -32    377    379 190.2  -4.9  34168  289.72 0854.47
2009/04/23 15:44:57.7     -89   -242    205    259    330 200.3  42.6  34156  289.51 0854.47
2009/04/23 15:44:57.8    -186   -131     71    228    240 234.7  17.4  34156  289.51 0854.47
2009/04/23 15:44:57.9     -31    -93    -90     99    133 198.7 -51.9  34168  289.72 0854.47
2009/04/23 15:44:58.0     -95   -119   -132    153    202 218.7 -50.0  34168  289.72 0854.47
2009/04/23 15:44:58.1      -2   -150   -142    151    207 181.0 -52.4  34162  289.62 0854.47
2009/04/23 15:44:58.2     190   -230    -86    299    312 140.4 -16.0  34158  289.53 0854.47
2009/04/23 15:44:58.3     212   -158    -73    265    276 126.6 -15.5  34154  289.46 0854.47
2009/04/23 15:44:58.4     219   -140    -35    261    264 122.6  -7.7  34152  289.44 0854.47
2009/04/23 15:44:58.5     169   -159    -66    233    242 133.3 -20.7  34156  289.51 0854.47
2009/04/23 15:44:58.6     171   -171   -124    242    271 135.0 -33.7  34154  289.47 0854.47
2009/04/23 15:44:58.7     180   -186    -81    260    273 135.9 -17.3  34154  289.47 0854.47
2009/04/23 15:44:58.8     219   -126    -22    253    255 120.0  -5.1  34158  289.53 0854.47
2009/04/23 15:44:58.9     183    -68     32    196    199 110.4   9.5  34156  289.52 0854.47
2009/04/23 15:44:59.0     119     39    -35    126    131  71.8 -15.5  34158  289.53 0854.47
2009/04/23 15:44:59.1      55     35    -14     66     68  57.6 -12.4  34158  289.53 0854.47
2009/04/23 15:44:59.2      39     89     -5     98     99  23.6  -3.1  34160  289.57 0854.43
2009/04/23 15:44:59.3      23     70     26     74     79  18.3  19.4  34160  289.57 0854.43
2009/04/23 15:44:59.4      41    107      3    115    116  20.9   1.8  34162  289.60 0854.43
2009/04/23 15:44:59.5      97    117     21    153    155  39.6   8.0  34158  289.53 0854.43
2009/04/23 15:44:59.6      88     88    -34    125    130  45.0 -15.4  34166  289.67 0854.43
2009/04/23 15:44:59.7     164    -24    155    166    227  98.6  47.9  34170  289.75 0854.43
2009/04/23 15:44:59.8      83    -16    107     85    136 101.0  56.9  34178  289.87 0854.43
2009/04/23 15:44:59.9      20     19    108     28    111  46.7  84.9  34188  290.06 0854.43
2009/04/23 15:45:00.0     -36    -36    157     52    165 225.0  80.7  34180  289.91 0854.43
2009/04/23 15:45:00.1      33   -301    282    303    413 173.7  47.9  34166  289.69 0854.43
2009/04/23 15:45:00.2     -83   -408    263    417    493 191.6  35.3  34166  289.67 0854.43
2009/04/23 15:45:00.3    -126   -292    276    319    421 203.4  45.2  34162  289.62 0854.43
2009/04/23 15:45:00.4     -31   -168    279    172    327 190.7  65.6  34174  289.80 0854.43
2009/04/23 15:45:00.5      25   -139    171    142    222 169.8  56.3  34166  289.69 0854.43
2009/04/23 15:45:00.6      25     14    180     29    182  61.1  90.0  34182  289.96 0854.43
2009/04/23 15:45:00.7     -47    112    224    122    255 337.3  69.1  34188  290.04 0854.43
2009/04/23 15:45:00.8     234   -106    207    257    329 114.4  43.1  34168  289.71 0854.43
2009/04/23 15:45:00.9     314    -58    114    320    339 100.6  20.3  34168  289.72 0854.43
2009/04/23 15:45:01.0     263      0     24    264    266  90.0   5.2  34178  289.86 0854.43
2009/04/23 15:45:01.1     217     36     84    221    236  80.5  22.0  34246  291.03 0854.43
2009/04/23 15:45:01.2     360    -97     79    374    383 105.2  12.0  34182  289.93 0854.42
2009/04/23 15:45:01.3     249   -126    174    280    329 116.9  35.1  34156  289.51 0854.42
2009/04/23 15:45:01.4     175    -45    202    181    271 104.6  53.5  34168  289.71 0854.42
2009/04/23 15:45:01.5     171    119    -47    209    215  55.1 -12.9  34170  289.75 0854.42
2009/04/23 15:45:01.6     131     52   -142    142    200  68.3 -54.5  34214  290.48 0854.42
2009/04/23 15:45:01.7     198    139    -44    242    246  54.9 -10.4  34230  290.76 0854.42
2009/04/23 15:45:01.8     360      4    190    361    407  89.3  30.0  34196  290.18 0854.42
2009/04/23 15:45:01.9     232      8    -88    233    249  87.9 -25.9  34180  289.92 0854.42
2009/04/23 15:45:02.0     135   -113    -34    177    181 130.0 -10.9  34174  289.80 0854.42
2009/04/23 15:45:02.1     -24    -75     31     79     84 197.8  22.0  34170  289.75 0854.42
2009/04/23 15:45:02.2      54    -37    166     66    178 125.1  77.1  34178  289.87 0854.42
2009/04/23 15:45:02.3     205    -15     63    206    216  94.4  17.1  34172  289.77 0854.42
2009/04/23 15:45:02.4     154    -84     -8    176    177 118.6  -2.6  34168  289.70 0854.42
2009/04/23 15:45:02.5      96   -101    -18    140    142 136.7  -7.7  34176  289.84 0854.42
2009/04/23 15:45:02.6      90   -109      1    142    143 140.3   0.7  34172  289.77 0854.42
2009/04/23 15:45:02.7      15    -85    -15     87     89 169.8  -9.8  34172  289.77 0854.42
2009/04/23 15:45:02.8     -21   -110     24    113    116 191.1  12.2  34170  289.74 0854.42
2009/04/23 15:45:02.9     -31    -31     85     44     95 225.0  70.8  34182  289.94 0854.42
2009/04/23 15:45:03.0      29    106     81    111    137  15.6  39.7  34190  290.08 0854.42
2009/04/23 15:45:03.1     -32     10     42     34     54 288.4  56.4  34186  290.02 0854.42
2009/04/23 15:45:03.2      42     -3     49     43     65  95.2  53.3  34184  289.97 0854.43
2009/04/23 15:45:03.3      85    -11     79     86    116  97.5  47.9  34186  290.02 0854.43
2009/04/23 15:45:03.4      62   -164    135    176    221 159.3  41.6  34190  290.09 0854.43
2009/04/23 15:45:03.5      32   -254    128    257    287 172.8  28.2  34178  289.88 0854.43
2009/04/23 15:45:03.6     -17   -189     41    190    195 185.3  12.2  34182  289.96 0854.43
2009/04/23 15:45:03.7       0   -114     49    115    125 179.5  24.6  34188  290.06 0854.43
2009/04/23 15:45:03.8     -12   -103      5    104    105 186.7   2.8  34192  290.11 0854.43
2009/04/23 15:45:03.9      44    -35     49     57     75 128.6  44.8  34200  290.25 0854.43
2009/04/23 15:45:04.0     -41     89     41     99    107 335.1  23.1  34206  290.36 0854.43
2009/04/23 15:45:04.1       3      3     31      5     31  45.0  90.0  34202  290.30 0854.43
2009/04/23 15:45:04.2     109     45    -19    119    121  67.4  -9.4  34192  290.11 0854.45
2009/04/23 15:45:04.3     120    127      3    176    177  43.4   1.2  34208  290.38 0854.45
2009/04/23 15:45:04.4     118    215    -37    246    249  28.7  -8.6  34208  290.37 0854.45
2009/04/23 15:45:04.5     -15    170    -83    171    190 354.9 -31.8  34194  290.14 0854.45
2009/04/23 15:45:04.6      39    141    -49    147    154  15.6 -23.6  34196  290.19 0854.45
2009/04/23 15:45:04.7      56    120    -31    133    137  25.3 -13.4  34198  290.23 0854.45
2009/04/23 15:45:04.8      73    129     12    149    150  29.4   5.0  34208  290.40 0854.45
2009/04/23 15:45:04.9     142    -10     96    143    172  94.4  36.7  34206  290.35 0854.45
2009/04/23 15:45:05.0     163     -2     79    164    182  90.8  27.3  34204  290.31 0854.45
2009/04/23 15:45:05.1     203   -141    117    248    274 124.9  27.1  34194  290.15 0854.45
2009/04/23 15:45:05.2      66   -150    166    165    234 156.2  50.1  34202  290.28 0854.45
2009/04/23 15:45:05.3     -32   -167    197    171    260 190.9  54.6  34210  290.41 0854.45
2009/04/23 15:45:05.4     -15   -204    226    205    305 184.4  53.3  34214  290.48 0854.45
2009/04/23 15:45:05.5      51   -298    216    303    372 170.2  39.2  34208  290.37 0854.45
2009/04/23 15:45:05.6      17   -397    221    398    455 177.5  31.4  34198  290.21 0854.45
2009/04/23 15:45:05.7      67   -492    241    497    552 172.2  27.8  34234  290.82 0854.45
2009/04/23 15:45:05.8     161   -420    165    450    479 159.0  21.0  34230  290.76 0854.45
2009/04/23 15:45:05.9     110   -381    262    397    475 163.9  36.5  34246  291.02 0854.45
2009/04/23 15:45:06.0     201   -369    225    421    477 151.4  30.3  34214  290.48 0854.45
2009/04/23 15:45:06.1     139   -397    213    421    471 160.7  28.9  34208  290.38 0854.45
2009/04/23 15:45:06.2     -18   -468    329    469    572 182.3  38.5  34190  290.09 0854.56
2009/04/23 15:45:06.3      34   -558    412    560    695 176.5  40.0  34194  290.15 0854.56
2009/04/23 15:45:06.4     -82   -651    212    657    691 187.2  17.9  34190  290.07 0854.56
2009/04/23 15:45:06.5    -175   -594    314    620    694 196.4  28.9  34210  290.41 0854.56
2009/04/23 15:45:06.6    -177   -509    180    540    570 199.2  18.5  34204  290.33 0854.56
2009/04/23 15:45:06.7    -275   -515    205    584    618 208.1  20.0  34214  290.49 0854.56
2009/04/23 15:45:06.8    -279   -463    118    541    554 211.1  12.4  34202  290.28 0854.56
2009/04/23 15:45:06.9    -204   -385   -142    436    459 208.0 -18.1  34180  289.90 0854.56
2009/04/23 15:45:07.0    -193   -392    -14    438    439 206.3  -1.9  34202  290.28 0854.56
2009/04/23 15:45:07.1    -298   -451     31    541    542 213.5   3.3  34196  290.18 0854.56
2009/04/23 15:45:07.2    -234   -403    -77    467    474 210.1  -9.4  34172  289.76 0854.56
2009/04/23 15:45:07.3    -213   -375    -28    432    433 209.7  -3.8  34172  289.77 0854.56
2009/04/23 15:45:07.4    -118   -312    -38    334    337 200.8  -6.5  34192  290.13 0854.56
2009/04/23 15:45:07.5     102   -357     21    372    373 164.0   3.2  34146  289.32 0854.56
2009/04/23 15:45:07.6     148   -318     84    351    361 155.0  13.5  34122  288.94 0854.56
2009/04/23 15:45:07.7     230   -373    156    439    467 148.4  19.6  34132  289.11 0854.56
2009/04/23 15:45:07.8     125   -399    217    419    471 162.6  29.5  34142  289.26 0854.56
2009/04/23 15:45:07.9     139   -500    142    520    540 164.4  15.3  34158  289.55 0854.56
2009/04/23 15:45:08.0      96   -336    -22    350    351 164.0  -3.7  34168  289.71 0854.56
2009/04/23 15:45:08.1     169   -278    -64    326    333 148.6 -11.2  34172  289.76 0854.56
2009/04/23 15:45:08.2      81   -258     69    271    280 162.6  14.3  34160  289.58 0854.36
2009/04/23 15:45:08.3     190   -229    197    298    357 140.4  36.6  34150  289.40 0854.36
2009/04/23 15:45:08.4     248    -85    141    263    298 109.1  30.6  34138  289.20 0854.36
2009/04/23 15:45:08.5     197   -237    272    309    411 140.4  45.9  34148  289.38 0854.36
2009/04/23 15:45:08.6     167   -340    204    379    430 153.8  30.6  34154  289.48 0854.36
2009/04/23 15:45:08.7     280   -297     43    409    412 136.7   6.1  34162  289.60 0854.36
2009/04/23 15:45:08.8     173   -369   -121    408    426 154.8 -16.5  34168  289.72 0854.36
2009/04/23 15:45:08.9     -16   -366    -39    367    370 182.5  -6.1  34162  289.59 0854.36
2009/04/23 15:45:09.0      65   -339     26    346    347 169.1   4.3  34154  289.47 0854.36
2009/04/23 15:45:09.1       9   -323     45    324    328 178.3   7.9  34162  289.59 0854.36
2009/04/23 15:45:09.2     -97   -293    119    309    331 198.5  22.3  34164  289.64 0854.36
2009/04/23 15:45:09.3      62   -303    173    310    355 168.4  31.6  34162  289.62 0854.36
2009/04/23 15:45:09.4      31   -288     90    290    304 173.7  17.3  34162  289.61 0854.36
2009/04/23 15:45:09.5     -38   -426    -76    428    435 185.2 -10.1  34162  289.61 0854.36
2009/04/23 15:45:09.6     -76   -402    -31    410    412 190.7  -4.4  34164  289.63 0854.36
2009/04/23 15:45:09.7     -56   -283    -26    289    291 191.3  -5.2  34160  289.56 0854.36
2009/04/23 15:45:09.8     -29   -168    -39    171    176 190.0 -12.9  34164  289.63 0854.36
2009/04/23 15:45:09.9      60   -182    -34    192    196 161.5 -10.1  34164  289.65 0854.36
2009/04/23 15:45:10.0      30   -104     35    109    115 163.5  17.9  34166  289.67 0854.36
2009/04/23 15:45:10.1      31    -14     85     35     91 115.3  76.6  34170  289.75 0854.36
2009/04/23 15:45:10.2      17     55    112     58    126  17.8  70.8  34188  290.04 0854.38
2009/04/23 15:45:10.3     143    -39    176    149    230 105.5  55.8  34168  289.72 0854.38
2009/04/23 15:45:10.4     173   -388    133    425    446 155.9  17.4  34156  289.49 0854.38
2009/04/23 15:45:10.5     116   -540    -16    553    554 167.9  -1.7  34156  289.51 0854.38
2009/04/23 15:45:10.6     238   -491    -39    546    548 154.1  -4.1  34158  289.55 0854.38
2009/04/23 15:45:10.7     225   -406    -32    465    467 151.0  -4.0  34162  289.59 0854.38
2009/04/23 15:45:10.8     214   -316   -149    382    410 145.8 -26.8  34158  289.55 0854.38
2009/04/23 15:45:10.9     137   -242   -144    279    313 150.4 -33.8  34150  289.39 0854.38
2009/04/23 15:45:11.0     122   -229   -106    260    280 151.9 -27.8  34154  289.47 0854.38
2009/04/23 15:45:11.1     113   -229    -91    256    272 153.7 -19.7  34160  289.58 0854.38
2009/04/23 15:45:11.2      43   -400   -126    403    422 173.8 -22.4  34164  289.63 0854.38
2009/04/23 15:45:11.3     190   -403   -160    446    473 154.7 -25.0  34162  289.59 0854.38
2009/04/23 15:45:11.4     135   -480   -158    499    523 164.2 -22.6  34150  289.40 0854.38
2009/04/23 15:45:11.5     254   -442    -45    510    513 150.1  -5.1  34132  289.10 0854.38
2009/04/23 15:45:11.6     254   -514    -52    574    577 153.7  -5.2  34140  289.24 0854.38
2009/04/23 15:45:11.7     304   -476     35    566    568 147.4   3.6  34126  289.01 0854.38
2009/04/23 15:45:11.8     211   -310     -7    376    377 145.7  -1.2  34126  288.98 0854.38
2009/04/23 15:45:11.9     116   -322    -83    343    353 160.1 -13.7  34126  288.98 0854.38
2009/04/23 15:45:12.0     146   -323    -99    355    368 155.7 -20.3  34134  289.13 0854.38
2009/04/23 15:45:12.1     167   -435    -48    467    470 159.0  -6.0  34156  289.52 0854.38
2009/04/23 15:45:12.2     121   -397    -71    416    422 163.0  -9.7  34158  289.55 0854.45
2009/04/23 15:45:12.3     183   -344     33    390    392 151.9   4.9  34136  289.18 0854.45
2009/04/23 15:45:12.4     242   -379     16    450    451 147.4   2.1  34140  289.24 0854.45
2009/04/23 15:45:12.5     188   -411     56    453    457 155.4   7.1  34136  289.17 0854.45
2009/04/23 15:45:12.6     313   -450     76    549    555 145.2   7.9  34132  289.09 0854.45
2009/04/23 15:45:12.7     247   -408     74    477    483 148.8   8.9  34132  289.10 0854.45
2009/04/23 15:45:12.8     222   -358    157    422    450 148.3  21.4  34128  289.04 0854.45
2009/04/23 15:45:12.9     211   -310    192    376    422 145.7  29.2  34128  289.04 0854.45
2009/04/23 15:45:13.0     186   -248    133    311    338 143.1  24.6  34138  289.21 0854.45
2009/04/23 15:45:13.1     211   -192     30    286    288 132.4   6.1  34148  289.36 0854.45
2009/04/23 15:45:13.2     256   -174    -34    310    312 124.2  -6.3  34154  289.46 0854.45
2009/04/23 15:45:13.3     352   -131    -15    376    377 110.4  -2.3  34154  289.48 0854.45
2009/04/23 15:45:13.4     379    -79    -49    388    392 101.8  -7.2  34154  289.47 0854.45
2009/04/23 15:45:13.5     318    -38    -25    321    323  97.0  -4.6  34154  289.47 0854.45
2009/04/23 15:45:13.6     253    -44    103    257    276  99.9  23.0  34156  289.49 0854.45
2009/04/23 15:45:13.7     208   -140     91    251    266 124.0  20.9  34160  289.58 0854.45
2009/04/23 15:45:13.8     247   -108     95    270    287 113.6  19.4  34154  289.47 0854.45
2009/04/23 15:45:13.9     182     48    140    189    235  75.2  40.4  34158  289.53 0854.45
2009/04/23 15:45:14.0     140     81    123    162    203  59.8  40.9  34160  289.57 0854.45
2009/04/23 15:45:14.1      65     65     70     93    116  45.0  40.7  34164  289.63 0854.45
2009/04/23 15:45:14.2      11     36     46     38     59  16.9  56.4  34172  289.77 0854.49
2009/04/23 15:45:14.3     106     20    131    108    169  79.0  56.4  34158  289.53 0854.49
2009/04/23 15:45:14.4     190     54    195    198    277  74.1  49.9  34162  289.59 0854.49
2009/04/23 15:45:14.5     118   -211    171    242    296 150.8  38.6  34148  289.36 0854.49
2009/04/23 15:45:14.6      93   -246    232    264    351 159.3  45.8  34146  289.34 0854.49
2009/04/23 15:45:14.7      72    -80    224    108    248 138.1  72.7  34152  289.45 0854.49
2009/04/23 15:45:14.8     201   -328    139    385    409 148.5  20.8  34138  289.21 0854.49
2009/04/23 15:45:14.9     170   -316    156    359    391 151.7  25.0  34136  289.16 0854.49
2009/04/23 15:45:15.0     179   -230    150    292    328 142.2  29.3  34140  289.22 0854.49
2009/04/23 15:45:15.1     130   -275    192    305    360 154.7  35.3  34136  289.18 0854.49
2009/04/23 15:45:15.2      29   -314    319    316    449 174.7  50.2  34142  289.26 0854.49
2009/04/23 15:45:15.3     124   -371    324    392    508 161.4  43.8  34152  289.42 0854.49
2009/04/23 15:45:15.4     251   -347    314    429    531 144.2  39.7  34142  289.27 0854.49
2009/04/23 15:45:15.5     141   -160    289    214    359 138.6  60.1  34146  289.32 0854.49
2009/04/23 15:45:15.6     252   -366    340    445    560 145.5  41.2  34142  289.26 0854.49
2009/04/23 15:45:15.7     249   -294    272    386    472 139.8  38.6  34140  289.22 0854.49
2009/04/23 15:45:15.8     150   -468    390    492    627 162.2  42.4  34140  289.24 0854.49
2009/04/23 15:45:15.9     220   -446    377    498    624 153.7  40.9  34162  289.59 0854.49
2009/04/23 15:45:16.0     275   -357    259    451    520 142.4  32.4  34162  289.61 0854.49
2009/04/23 15:45:16.1     229   -291    202    371    422 141.7  30.9  34146  289.34 0854.49
2009/04/23 15:45:16.2     337    -79    153    347    379 103.3  25.2  34148  289.38 0854.52
2009/04/23 15:45:16.3     311    -22    157    312    349  94.1  28.6  34148  289.37 0854.52
2009/04/23 15:45:16.4     286     -9     35    287    290  91.9   7.1  34148  289.36 0854.52
2009/04/23 15:45:16.5     186     47     47    193    199  75.6  13.7  34146  289.35 0854.52
2009/04/23 15:45:16.6     221    106    -21    246    248  64.2  -5.1  34174  289.81 0854.52
2009/04/23 15:45:16.7     341     32    -97    343    357  84.5 -15.9  34166  289.67 0854.52
2009/04/23 15:45:16.8     308    -14    -39    309    312  92.6  -7.3  34154  289.47 0854.52
2009/04/23 15:45:16.9     201     15     29    202    205  85.7   8.2  34160  289.57 0854.52
2009/04/23 15:45:17.0     142     47     70    150    165  71.4  26.6  34162  289.62 0854.52
2009/04/23 15:45:17.1     182    -13    123    183    220  94.1  37.3  34152  289.45 0854.52
2009/04/23 15:45:17.2      82   -172    173    191    257 154.5  47.0  34156  289.51 0854.52
2009/04/23 15:45:17.3     107   -359    296    375    477 163.3  42.2  34150  289.39 0854.52
2009/04/23 15:45:17.4     118   -380     91    398    409 162.7  12.9  34146  289.34 0854.52
2009/04/23 15:45:17.6      12   -155    -57    156    166 175.5 -24.8  34150  289.40 0854.52
2009/04/23 15:45:17.6      -2   -147    -83    148    169 181.0 -36.3  34148  289.36 0854.52
2009/04/23 15:45:17.7     136   -151     35    204    208 137.9   9.9  34146  289.35 0854.52
2009/04/23 15:45:17.8     206   -206     72    292    301 135.0  13.9  34148  289.37 0854.52
2009/04/23 15:45:17.9     159   -250    175    297    344 147.5  33.3  34144  289.30 0854.52
2009/04/23 15:45:18.0     263   -274    195    380    427 136.2  29.3  34152  289.43 0854.52
2009/04/23 15:45:18.1     238   -236    239    336    412 134.7  39.1  34150  289.40 0854.52
2009/04/23 15:45:18.2      77   -211    248    225    334 160.0  53.3  34156  289.51 0854.43
2009/04/23 15:45:18.3     -11    -87    114     88    144 187.6  58.5  34152  289.45 0854.43
2009/04/23 15:45:18.4     121   -175    163    214    269 145.3  41.2  34160  289.58 0854.43
2009/04/23 15:45:18.5      18    -15    121     24    123 131.3  89.1  34168  289.72 0854.43
2009/04/23 15:45:18.6      89    -79    107    120    160 131.8  46.4  34164  289.63 0854.43
2009/04/23 15:45:18.7      57    -12     63     59     86 102.4  51.6  34164  289.63 0854.43
2009/04/23 15:45:18.8       9     21     42     24     48  23.6  66.8  34162  289.62 0854.43
2009/04/23 15:45:18.9      -3      3    -21      5     21 315.0 -90.0  34164  289.63 0854.43
2009/04/23 15:45:19.0     -17     22    -24     28     36 322.2 -50.2  34168  289.70 0854.43
2009/04/23 15:45:19.1       8     43     22     44     49  10.7  27.3  34166  289.67 0854.43
2009/04/23 15:45:19.2     121     72     74    141    159  59.3  29.8  34152  289.45 0854.43
2009/04/23 15:45:19.3     103    149    120    182    218  34.5  36.5  34170  289.74 0854.43
2009/04/23 15:45:19.4     128    129    101    183    209  44.8  31.4  34158  289.53 0854.43
2009/04/23 15:45:19.5     191    140    113    237    262  53.8  27.3  34202  290.29 0854.43
2009/04/23 15:45:19.6     145    214    -37    259    262  34.3  -8.2  34270  291.43 0854.43
2009/04/23 15:45:19.7      74    169     44    185    191  23.6  13.5  34294  291.86 0854.43
2009/04/23 15:45:19.8       5    121     43    122    130   2.7  19.4  34274  291.50 0854.43
2009/04/23 15:45:19.9      69     49     72     85    111  54.5  44.3  34210  290.41 0854.43
2009/04/23 15:45:20.0     103    103     92    147    173  45.0  35.5  34174  289.80 0854.43
2009/04/23 15:45:20.1      39    195     73    199    211  11.5  21.0  34220  290.60 0854.43
2009/04/23 15:45:20.2     155    146     97    214    234  46.7  26.2  34226  290.70 0854.50
2009/04/23 15:45:20.3     224    153     94    272    289  55.6  19.2  34332  292.48 0854.50
2009/04/23 15:45:20.4     155     44    107    162    194  74.1  36.0  34280  291.60 0854.50
2009/04/23 15:45:20.5      46    -22    181     52    188 116.2  83.9  34178  289.87 0854.50
2009/04/23 15:45:20.6      76    -20    156     79    174 105.1  71.4  34198  290.23 0854.50
2009/04/23 15:45:20.7      42    -13    120     45    128 107.7  79.1  34198  290.21 0854.50
2009/04/23 15:45:20.8      11    -49    154     51    162 167.5  81.0  34192  290.11 0854.50
2009/04/23 15:45:20.9     145    -39    216    151    263 105.1  61.7  34200  290.26 0854.50
2009/04/23 15:45:21.0      86     32    195     92    215  69.6  73.1  34308  292.10 0854.50
2009/04/23 15:45:21.2      98      0    122     99    157  90.0  56.9  34260  291.26 0854.50
2009/04/23 15:45:21.2     118    -62    118    134    178 118.0  46.2  34222  290.62 0854.50
2009/04/23 15:45:21.4      19     63    121     66    137  16.9  68.9  34328  292.44 0854.50
2009/04/23 15:45:21.5     -59     84    100    103    143 324.8  49.4  34328  292.42 0854.50
2009/04/23 15:45:21.6     -40     95     90    104    137 337.3  45.8  34346  292.73 0854.50
2009/04/23 15:45:21.7     -49    136     41    145    151 339.9  16.0  34344  292.71 0854.50
2009/04/23 15:45:21.8     -62    164    111    176    208 339.3  35.5  34346  292.73 0854.50
2009/04/23 15:45:21.9    -130    160     60    207    216 320.8  16.3  34358  292.93 0854.50
2009/04/23 15:45:22.0    -269      8    -55    270    276 271.9 -11.6  34266  291.38 0854.50
2009/04/23 15:45:22.1    -207     54   -129    215    250 284.8 -38.6  34192  290.12 0854.50
2009/04/23 15:45:22.2    -261    186   -151    321    354 305.5 -31.5  34210  290.43 0854.48
2009/04/23 15:45:22.3    -243    216   -188    326    376 311.7 -37.1  34172  289.79 0854.48
2009/04/23 15:45:22.4    -183    108   -241    213    321 300.7 -58.4  34142  289.25 0854.48
2009/04/23 15:45:22.5     -89     73   -168    116    204 309.5 -66.8  34146  289.35 0854.48
2009/04/23 15:45:22.6    -263    -57   -121    270    295 257.6 -30.1  34170  289.75 0854.48
2009/04/23 15:45:22.7    -269     25   -139    271    304 275.5 -33.6  34156  289.51 0854.48
2009/04/23 15:45:22.8    -138     85   -200    163    258 301.8 -61.0  34142  289.26 0854.48
2009/04/23 15:45:22.9     -77     93   -115    122    167 320.4 -52.6  34150  289.40 0854.48
2009/04/23 15:45:23.0      -4     44    -46     45     64 353.8 -53.5  34154  289.48 0854.48
2009/04/23 15:45:23.1     -57    -83    -29    101    105 214.7 -21.2  34152  289.45 0854.48
2009/04/23 15:45:23.2    -216   -247    -59    329    335 221.1 -10.2  34198  290.23 0854.48
2009/04/23 15:45:23.3    -346   -488     24    599    600 215.3   2.3  34180  289.90 0854.48
2009/04/23 15:45:23.4    -444   -443   -146    628    645 225.1 -13.2  34144  289.30 0854.48
2009/04/23 15:45:23.5    -158   -446   -152    474    497 199.5 -22.9  34170  289.74 0854.48
2009/04/23 15:45:23.6     -31   -419    -77    421    428 184.2 -10.4  34160  289.56 0854.48
2009/04/23 15:45:23.7      46   -249   -303    254    395 169.5 -60.2  34172  289.79 0854.48
2009/04/23 15:45:23.8     140   -461   -240    482    538 163.1 -32.9  34162  289.62 0854.48
2009/04/23 15:45:23.9     300   -414    -41    512    514 144.0  -4.6  34156  289.50 0854.48
2009/04/23 15:45:24.0     378   -254    119    456    472 124.0  14.7  34148  289.37 0854.48
2009/04/23 15:45:24.1      51    -65    343     83    352 141.7  86.6  34160  289.56 0854.48
2009/04/23 15:45:24.2    -127     30    278    131    307 283.3  73.1  34198  290.22 0854.53
2009/04/23 15:45:24.3     -82    -31    221     88    237 249.2  77.1  34190  290.09 0854.53
2009/04/23 15:45:24.4    -260   -113    105    284    302 246.5  21.0  34196  290.19 0854.53
2009/04/23 15:45:24.5    -178   -138     54    226    233 232.3  13.5  34194  290.16 0854.53
2009/04/23 15:45:24.6    -145   -181     80    232    246 218.7  19.2  34164  289.64 0854.53
2009/04/23 15:45:24.7    -215    210     93    301    316 314.4  17.2  34172  289.78 0854.53
2009/04/23 15:45:24.8    -441     24     55    442    446 273.2   7.1  34186  290.00 0854.53
2009/04/23 15:45:24.9    -392     -2   -105    393    407 269.7 -15.0  34208  290.38 0854.53
2009/04/23 15:45:25.0    -346     84     83    357    367 283.7  13.1  34208  290.37 0854.53
2009/04/23 15:45:25.1    -210     -4    -13    211    212 268.7  -3.7  34176  289.84 0854.53
2009/04/23 15:45:25.2    -167    -53    -56    176    185 252.3 -17.9  34182  289.96 0854.53
2009/04/23 15:45:25.3    -135     86   -115    161    197 302.6 -43.7  34182  289.94 0854.53
2009/04/23 15:45:25.4     -50    -16    -42     53     67 251.4 -47.1  34178  289.89 0854.53
2009/04/23 15:45:25.5       0      0    -17      1     17  90.0 -90.0  34192  290.11 0854.53
2009/04/23 15:45:25.6       2     92    -11     93     94   1.8  -7.2  34188  290.04 0854.53
2009/04/23 15:45:25.7     -93     77   -114    121    166 309.6 -52.9  34184  289.97 0854.53
2009/04/23 15:45:25.8    -305    -67    -90    313    325 257.6 -20.9  34200  290.26 0854.53
2009/04/23 15:45:25.9    -342    132   -101    367    380 291.2 -20.0  34198  290.23 0854.53
2009/04/23 15:45:26.0    -511    102    -29    522    523 281.4  -3.2  34200  290.24 0854.53
2009/04/23 15:45:26.1    -542    135     28    559    560 284.1   2.9  34206  290.36 0854.53
2009/04/23 15:45:26.2    -520     68     15    525    526 277.5   1.7  34216  290.52 0854.47
2009/04/23 15:45:26.3    -496    188    -69    531    536 290.8  -7.5  34206  290.36 0854.47
2009/04/23 15:45:26.4    -444    321    -21    549    550 305.9  -2.2  34228  290.74 0854.47
2009/04/23 15:45:26.5    -370     79    -99    379    392 282.1 -14.7  34204  290.32 0854.47
2009/04/23 15:45:26.6    -229     40    -54    233    240 279.9 -13.2  34208  290.37 0854.47
2009/04/23 15:45:26.7    -267    -27   -105    269    288 264.1 -26.7  34204  290.32 0854.47
2009/04/23 15:45:26.8    -205    162     90    262    278 308.2  18.9  34206  290.36 0854.47
2009/04/23 15:45:26.9    -266    294     10    397    398 317.9   1.5  34210  290.43 0854.47
2009/04/23 15:45:27.0    -309    252   -110    399    415 309.2 -15.5  34220  290.58 0854.47
2009/04/23 15:45:27.1    -207    363    -92    419    430 330.3 -12.4  34214  290.50 0854.47
2009/04/23 15:45:27.2    -312    181   -124    361    382 300.1 -19.0  34224  290.67 0854.48
2009/04/23 15:45:27.3    -229    124    -64    261    269 298.6 -13.9  34206  290.36 0854.48
2009/04/23 15:45:27.4    -174    287     93    336    349 328.7  15.6  34218  290.55 0854.48
2009/04/23 15:45:27.5    -334    279     93    436    446 309.8  12.1  34226  290.70 0854.48
2009/04/23 15:45:27.6    -290    298    123    416    434 315.8  16.5  34220  290.58 0854.48
2009/04/23 15:45:27.7    -326    257    -13    416    417 308.2  -1.8  34220  290.60 0854.48
2009/04/23 15:45:27.8    -403    287    -26    496    497 305.5  -3.0  34232  290.78 0854.48
2009/04/23 15:45:27.9    -228    236     -6    329    330 316.0  -1.1  34230  290.76 0854.48
2009/04/23 15:45:28.0       8    436    -37    437    439   1.1  -4.9  34262  291.31 0854.48
2009/04/23 15:45:28.1      63    412    -52    417    421   8.7  -7.2  34252  291.14 0854.48
2009/04/23 15:45:28.2      58    326     -6    332    333  10.2  -1.2  34238  290.89 0854.48
2009/04/23 15:45:28.3      28    349    166    351    388   4.7  27.1  34238  290.89 0854.48
2009/04/23 15:45:28.4     147    261    164    300    341  29.4  31.0  34240  290.93 0854.48
2009/04/23 15:45:28.5      78    258    175    270    321  16.9  35.9  34284  291.67 0854.48
2009/04/23 15:45:28.6      93    269    205    285    351  19.2  39.3  34318  292.27 0854.48
2009/04/23 15:45:28.7      18    198     -7    199    200   5.3  -2.2  34296  291.88 0854.48
2009/04/23 15:45:28.8     -48    223     40    229    233 347.7   9.9  34256  291.21 0854.48
2009/04/23 15:45:28.9       0    238     72    239    250   0.2  16.8  34272  291.46 0854.48
2009/04/23 15:45:29.0       2    188    140    189    235   0.9  40.4  34274  291.50 0854.48
2009/04/23 15:45:29.1     130    110    232    171    288  49.8  60.3  34288  291.75 0854.48
2009/04/23 15:45:29.2     170    155    148    231    274  47.6  35.6  34290  291.77 0854.48
2009/04/23 15:45:29.3     153    238     77    284    295  32.7  15.2  34344  292.70 0854.48
2009/04/23 15:45:29.4     212    219     34    305    307  44.1   6.5  34376  293.23 0854.48
2009/04/23 15:45:29.5     267    187     66    327    334  55.0  11.6  34388  293.45 0854.48
2009/04/23 15:45:29.6     217    278    111    353    371  38.0  17.4  34344  292.70 0854.48
2009/04/23 15:45:29.7     379    318      8    495    496  50.0   1.0  34280  291.61 0854.48
2009/04/23 15:45:29.8     706    300    -72    768    772  67.0  -5.4  34186  290.02 0854.48
2009/04/23 15:45:29.9     545    334     83    640    646  58.5   7.5  34170  289.74 0854.48
2009/04/23 15:45:30.0     409    192    -23    453    454  64.8  -3.0  34184  289.99 0854.48
2009/04/23 15:45:30.1      91    291    151    306    341  17.4  28.2  34172  289.76 0854.48
2009/04/23 15:45:30.2      -3    351    179    352    394 359.4  29.2  34188  290.06 0854.48
2009/04/23 15:45:30.3      69    271     99    280    296  14.3  20.0  34192  290.10 0854.48
2009/04/23 15:45:30.4     512    232    137    563    580  65.6  13.7  34196  290.19 0854.48
2009/04/23 15:45:30.5     330    277    152    431    458  50.0  19.4  34282  291.63 0854.48
2009/04/23 15:45:30.6     130    352    201    376    426  20.3  30.3  34308  292.09 0854.48
2009/04/23 15:45:30.7     222    378    282    439    521  30.5  35.6  34312  292.14 0854.48
2009/04/23 15:45:30.8    -103    342    143    358    385 343.2  23.0  34308  292.10 0854.48
2009/04/23 15:45:30.9    -190    137   -158    235    283 305.9 -41.7  34250  291.09 0854.48
2009/04/23 15:45:31.0     245      9    -58    246    253  87.9 -13.3  34260  291.26 0854.48
2009/04/23 15:45:31.1     117      7   -103    118    156  86.5 -50.2  34250  291.09 0854.48
2009/04/23 15:45:31.2     298      0    146    299    332  90.0  27.9  34236  290.87 0854.49
2009/04/23 15:45:31.3      -7     60    272     61    278 352.9  88.0  34284  291.67 0854.49
2009/04/23 15:45:31.4      12    -14    267     19    267 140.4  90.0  34272  291.47 0854.49
2009/04/23 15:45:31.5     -14    250    181    251    309 356.6  39.5  34278  291.56 0854.49
2009/04/23 15:45:31.6     -44    322    124    325    347 352.2  21.8  34268  291.42 0854.49
2009/04/23 15:45:31.7      27    362    156    363    395   4.4  24.8  34224  290.66 0854.49
2009/04/23 15:45:31.8      24    314     13    316    317   4.5   2.5  34248  291.07 0854.49
2009/04/23 15:45:31.9     263    397     53    477    480  33.5   6.4  34278  291.56 0854.49
2009/04/23 15:45:32.0     123    331     94    354    367  20.5  14.9  34248  291.06 0854.49
2009/04/23 15:45:32.1     -93    128   -108    159    192 324.0 -41.4  34246  291.03 0854.49
2009/04/23 15:45:32.2    -377    143   -178    404    441 290.8 -29.6  34200  290.26 0854.49
2009/04/23 15:45:32.3    -454    119   -217    470    517 284.7 -31.0  34178  289.89 0854.49
2009/04/23 15:45:32.4    -410     76   -180    418    455 280.6 -29.3  34168  289.70 0854.49
2009/04/23 15:45:32.5    -290    -21   -169    291    336 265.7 -37.2  34182  289.93 0854.49
2009/04/23 15:45:32.6    -213    -64      1    223    224 253.2   0.5  34190  290.08 0854.49
2009/04/23 15:45:32.7    -227    -68     79    238    251 253.2  18.5  34232  290.80 0854.49
2009/04/23 15:45:32.8    -126   -140    154    189    243 221.9  43.3  34236  290.87 0854.49
2009/04/23 15:45:32.9    -140   -155    199    210    289 222.1  48.5  34232  290.78 0854.49
2009/04/23 15:45:33.0    -149     46    189    157    245 287.3  56.3  34242  290.96 0854.49
2009/04/23 15:45:33.1    -163   -182    203    245    318 221.9  44.0  34232  290.80 0854.49
2009/04/23 15:45:33.2      82   -167    209    187    280 153.7  53.5  34220  290.59 0854.46
2009/04/23 15:45:33.3     154     11    305    155    342  85.6  71.1  34222  290.61 0854.46
2009/04/23 15:45:33.4      84      3    286     85    298  87.9  83.1  34236  290.87 0854.46
2009/04/23 15:45:33.5     -45    117    286    126    312 338.6  74.9  34236  290.87 0854.46
2009/04/23 15:45:33.6     -26    578     83    579    586 357.4   8.2  34232  290.81 0854.46
2009/04/23 15:45:33.7      80    467    197    475    514   9.8  23.9  34236  290.85 0854.46
2009/04/23 15:45:33.8     145    307    257    340    426  25.3  40.8  34202  290.30 0854.46
2009/04/23 15:45:33.9     231    220    206    320    380  46.4  35.6  34212  290.47 0854.46
2009/04/23 15:45:34.0     217    191     -9    290    291  48.7  -1.8  34212  290.44 0854.46
2009/04/23 15:45:34.1     281     -4    181    282    335  90.8  35.6  34238  290.90 0854.46
2009/04/23 15:45:34.2     195     51    120    202    234  75.2  33.5  34240  290.92 0854.46
2009/04/23 15:45:34.3     162     70     25    177    179  66.7   8.2  34236  290.86 0854.46
2009/04/23 15:45:34.4     153     63    108    166    198  67.6  36.3  34250  291.11 0854.46
2009/04/23 15:45:34.5     226     22    112    228    254  84.3  28.2  34264  291.34 0854.46
2009/04/23 15:45:34.6     116    -59    123    131    179 117.1  48.2  34260  291.26 0854.46
2009/04/23 15:45:34.7      18    -82    107     85    136 167.5  56.9  34260  291.26 0854.46
2009/04/23 15:45:34.8     -44    -10     67     46     81 256.7  62.1  34256  291.20 0854.46
2009/04/23 15:45:34.9      86   -119    147    148    208 144.0  50.0  34258  291.25 0854.46
2009/04/23 15:45:35.0     208    -86    197    226    299 112.6  45.8  34252  291.14 0854.46
2009/04/23 15:45:35.1     111   -133    255    174    308 140.4  62.6  34254  291.17 0854.46
2009/04/23 15:45:35.2      42   -186    219    191    290 167.1  54.3  34250  291.09 0854.43
2009/04/23 15:45:35.3     -42   -120    205    128    241 199.2  64.9  34242  290.96 0854.43
2009/04/23 15:45:35.4      60   -238    151    246    288 165.7  34.4  34236  290.87 0854.43
2009/04/23 15:45:35.5      12    -31    164     34    167 158.2  89.0  34250  291.11 0854.43
2009/04/23 15:45:35.6      21   -127    188    129    228 170.3  62.6  34240  290.92 0854.43
2009/04/23 15:45:35.7     -19    -30    131     36    135 212.5  84.8  34248  291.06 0854.43
2009/04/23 15:45:35.8     105    -47     97    116    151 114.4  43.8  34260  291.26 0854.43
2009/04/23 15:45:35.9      27   -161    118    164    202 170.4  39.3  34252  291.13 0854.43
2009/04/23 15:45:36.0       2   -145    118    146    187 179.1  43.5  34246  291.04 0854.43
2009/04/23 15:45:36.1     -60   -126    131    140    191 205.5  48.0  34252  291.13 0854.43
2009/04/23 15:45:36.2     -67   -141    156    157    221 205.3  50.0  34256  291.20 0854.43
2009/04/23 15:45:36.3     -74   -102     95    127    158 216.1  40.7  34254  291.18 0854.43
2009/04/23 15:45:36.4     -72      5    104     73    127 274.4  62.1  34258  291.25 0854.43
2009/04/23 15:45:36.5    -138     34    129    143    192 284.2  47.1  34264  291.35 0854.43
2009/04/23 15:45:36.6     -97     44    178    107    207 294.8  66.4  34270  291.43 0854.43
2009/04/23 15:45:36.7      12     58     99     60    115  12.5  65.1  34258  291.25 0854.43
2009/04/23 15:45:36.8     -26     82    124     87    151 342.2  61.5  34246  291.04 0854.43
2009/04/23 15:45:36.9     -55     35     50     66     82 302.4  41.2  34252  291.15 0854.43
2009/04/23 15:45:37.0     -82     75     66    112    130 312.7  33.5  34254  291.18 0854.43
2009/04/23 15:45:37.1    -155     92    186    181    259 300.9  50.9  34276  291.53 0854.43
2009/04/23 15:45:37.2    -176    136    173    223    282 307.8  41.7  34264  291.33 0854.40
2009/04/23 15:45:37.3    -207    127    243    243    343 301.5  50.1  34266  291.36 0854.40
2009/04/23 15:45:37.4    -161    171    219    236    321 316.7  47.8  34262  291.31 0854.40
2009/04/23 15:45:37.5    -128    207     70    244    254 328.3  16.0  34244  290.99 0854.40
2009/04/23 15:45:37.6    -279    255    -60    379    384 312.4  -9.0  34258  291.22 0854.40
2009/04/23 15:45:37.7    -342    232    -20    414    415 304.2  -2.8  34286  291.72 0854.40
2009/04/23 15:45:37.8    -389    248    -22    462    463 302.5  -2.8  34276  291.55 0854.40
2009/04/23 15:45:37.9    -301    256    -33    396    398 310.4  -4.8  34268  291.42 0854.40
2009/04/23 15:45:38.0    -305    269    -13    408    409 311.4  -1.9  34260  291.28 0854.40
2009/04/23 15:45:38.1    -311    203    -14    372    373 303.2  -2.2  34262  291.30 0854.40
2009/04/23 15:45:38.2    -339    225     12    408    409 303.6   1.8  34252  291.14 0854.40
2009/04/23 15:45:38.3    -432    142    -61    455    460 288.2  -7.7  34216  290.51 0854.40
2009/04/23 15:45:38.4    -320    163     40    360    363 297.1   6.4  34220  290.60 0854.40
2009/04/23 15:45:38.5    -216    266   -116    343    363 320.9 -18.8  34238  290.89 0854.40
2009/04/23 15:45:38.6    -202    201   -258    286    385 314.9 -51.2  34174  289.82 0854.40
2009/04/23 15:45:38.7    -132    144   -207    196    285 317.5 -56.4  34146  289.32 0854.40
2009/04/23 15:45:38.8     -40    197   -165    201    260 348.5 -48.1  34144  289.29 0854.40
2009/04/23 15:45:38.9      50    199    -94    206    226  14.3 -30.8  34146  289.35 0854.40
2009/04/23 15:45:39.0      97    138     33    169    173  35.2  11.1  34152  289.45 0854.40
2009/04/23 15:45:39.1      77     70    105    105    148  47.8  50.1  34168  289.72 0854.40
2009/04/23 15:45:39.2      51     -5    155     52    163  96.1  81.0  34200  290.26 0854.30
2009/04/23 15:45:39.3     -47     -3    131     48    139 265.6  79.2  34260  291.28 0854.30
2009/04/23 15:45:39.4      79     22    108     83    136  74.1  58.5  34284  291.69 0854.30
2009/04/23 15:45:39.5      46     86    177     98    202  28.5  68.8  34302  291.98 0854.30
2009/04/23 15:45:39.6      12    -59    135     61    148 168.5  74.0  34298  291.91 0854.30
2009/04/23 15:45:39.7     137     66    203    153    254  64.2  59.4  34300  291.96 0854.30
2009/04/23 15:45:39.8     153     29    209    156    260  79.0  59.6  34266  291.37 0854.30
2009/04/23 15:45:39.9      96    144    255    174    308  33.8  62.6  34290  291.78 0854.30
2009/04/23 15:45:40.0      67    181    197    194    276  20.5  50.4  34252  291.12 0854.30
2009/04/23 15:45:40.1      59    107    227    123    258  28.9  69.1  34254  291.16 0854.30
2009/04/23 15:45:40.2     186     86    313    206    374  65.2  63.7  34242  290.97 0854.30
2009/04/23 15:45:40.3     268    126    191    297    353  64.8  35.7  34290  291.78 0854.30
2009/04/23 15:45:40.4     219     74    337    232    409  71.2  62.5  34278  291.57 0854.30
2009/04/23 15:45:40.5     324    283    189    431    470  48.8  25.2  34294  291.86 0854.30
2009/04/23 15:45:40.6     133    225    170    262    312  30.7  36.2  34308  292.07 0854.30
2009/04/23 15:45:40.7     150    235    194    279    339  32.6  38.3  34330  292.45 0854.30
2009/04/23 15:45:40.8     135    304    177    333    377  24.1  30.3  34338  292.61 0854.30
2009/04/23 15:45:40.9     250    238    214    346    406  46.5  34.8  34322  292.34 0854.30
2009/04/23 15:45:41.0     313    218    206    382    434  55.1  30.7  34326  292.38 0854.30
2009/04/23 15:45:41.1     298    196    223    357    420  56.6  35.2  34314  292.19 0854.30
2009/04/23 15:45:41.2     166    204    219    264    343  39.2  43.8  34300  291.94 0854.22
2009/04/23 15:45:41.3     199    135    246    241    344  55.9  50.7  34290  291.78 0854.22
2009/04/23 15:45:41.4     211    107    231    237    330  62.9  49.4  34290  291.77 0854.22
2009/04/23 15:45:41.5      80    115    192    141    238  34.7  60.3  34322  292.34 0854.22
2009/04/23 15:45:41.6     155    132    239    204    314  49.6  55.4  34324  292.35 0854.22
2009/04/23 15:45:41.7     222    158    259    273    376  54.5  48.4  34322  292.34 0854.22
2009/04/23 15:45:41.8     316    193    218    371    430  58.6  33.3  34324  292.35 0854.22
2009/04/23 15:45:41.9     214    167    304    272    407  52.0  53.7  34322  292.34 0854.22
2009/04/23 15:45:42.0     158    143    228    214    312  48.0  52.0  34316  292.23 0854.22
2009/04/23 15:45:42.1      31    119    193    124    229  14.7  64.6  34292  291.83 0854.22
2009/04/23 15:45:42.2     152     99    207    182    275  56.7  54.3  34296  291.87 0854.22
2009/04/23 15:45:42.3     190    114    243    222    329  59.1  52.9  34276  291.55 0854.22
2009/04/23 15:45:42.4      39    309    252    312    401   7.3  43.1  34268  291.42 0854.22
2009/04/23 15:45:42.5     243    295    221    383    442  39.5  32.7  34256  291.19 0854.22
2009/04/23 15:45:42.6     267    271    199    381    429  44.6  29.8  34244  290.99 0854.22
2009/04/23 15:45:42.7     255    185    220    316    385  54.1  38.3  34272  291.49 0854.22
2009/04/23 15:45:42.8     167    216    138    274    306  37.8  28.7  34274  291.50 0854.22
2009/04/23 15:45:42.9     369     88    123    380    400  76.6  18.0  34330  292.46 0854.22
2009/04/23 15:45:43.0     182     59     39    192    197  71.8  11.6  34330  292.47 0854.22
2009/04/23 15:45:43.1      73    108    212    131    249  34.3  65.4  34292  291.81 0854.22
2009/04/23 15:45:43.2     242    186    149    306    340  52.5  27.8  34326  292.39 0854.24
2009/04/23 15:45:43.3     498    212    207    542    580  67.0  22.0  34338  292.61 0854.24
2009/04/23 15:45:43.4     312    274    379    416    562  48.7  47.0  34252  291.15 0854.24
2009/04/23 15:45:43.5     465    174    325    497    593  69.4  36.4  34266  291.37 0854.24
2009/04/23 15:45:43.6     561    304    119    639    650  61.5  10.6  34268  291.39 0854.24
2009/04/23 15:45:43.7     649    154    223    668    705  76.6  18.5  34276  291.53 0854.24
2009/04/23 15:45:43.8     677     76    271    682    733  83.5  23.0  34262  291.29 0854.24
2009/04/23 15:45:43.9     618    205    263    652    703  71.6  23.2  34276  291.55 0854.24
2009/04/23 15:45:44.0     397    457    222    606    645  41.0  21.0  34220  290.59 0854.24
2009/04/23 15:45:44.1     396    531     67    663    667  36.8   5.8  34254  291.16 0854.24
2009/04/23 15:45:44.2     442    189    207    481    523  66.8  24.9  34276  291.53 0854.24
2009/04/23 15:45:44.3     527    160     11    552    553  73.1   1.2  34230  290.75 0854.24
2009/04/23 15:45:44.4     519    372    -50    639    642  54.4  -4.5  34248  291.06 0854.24
2009/04/23 15:45:44.5     578    212     18    617    618  69.8   1.7  34318  292.27 0854.24
2009/04/23 15:45:44.6     521    171     96    549    558  71.8  10.0  34298  291.93 0854.24
2009/04/23 15:45:44.7     497   -167    -29    525    526 108.6  -3.2  34288  291.74 0854.24
2009/04/23 15:45:44.8     667    157    114    686    696  76.7   9.4  34286  291.70 0854.24
2009/04/23 15:45:44.9     878    321    201    936    958  69.9  12.2  34292  291.80 0854.24
2009/04/23 15:45:45.0     851    265    173    892    909  72.7  11.0  34248  291.07 0854.24
2009/04/23 15:45:45.1     709    183    195    733    759  75.5  14.9  34278  291.59 0854.24
2009/04/23 15:45:45.2     632    -47    360    634    729  94.3  32.2  34290  291.78 0854.27
2009/04/23 15:45:45.3     570     64    266    574    632  83.5  26.6  34250  291.11 0854.27
2009/04/23 15:45:45.4     540     34    336    542    637  86.4  34.8  34282  291.63 0854.27
2009/04/23 15:45:45.5     477    -65    328    482    583  97.8  37.6  34262  291.31 0854.27
2009/04/23 15:45:45.6     587    -17    196    588    621  91.7  18.5  34260  291.27 0854.27
2009/04/23 15:45:45.7     601    -62    162    605    627  95.9  15.0  34252  291.15 0854.27
2009/04/23 15:45:45.8     613    -61    175    617    642  95.7  15.9  34274  291.50 0854.27
2009/04/23 15:45:45.9     630    -61    128    634    647  95.6  11.5  34246  291.03 0854.27
2009/04/23 15:45:46.0     529    -80     47    536    539  98.6   5.1  34274  291.50 0854.27
2009/04/23 15:45:46.1     516    114     62    529    533  77.5   6.7  34238  290.89 0854.27
2009/04/23 15:45:46.2     664    180   -113    689    699  74.8  -9.4  34214  290.49 0854.27
2009/04/23 15:45:46.3     653    371     57    752    754  60.4   4.4  34198  290.23 0854.27
2009/04/23 15:45:46.4     546    387     42    670    672  54.6   3.6  34204  290.33 0854.27
2009/04/23 15:45:46.5     494    247    235    553    600  63.4  24.5  34240  290.92 0854.27
2009/04/23 15:45:46.6     413    126    271    432    509  73.0  35.1  34252  291.15 0854.27
2009/04/23 15:45:46.7     274    202    321    341    468  53.5  48.2  34262  291.29 0854.27
2009/04/23 15:45:46.8     297    452    307    541    622  33.3  32.1  34264  291.34 0854.27
2009/04/23 15:45:46.9     264    249    248    363    439  46.7  37.6  34276  291.53 0854.27
2009/04/23 15:45:47.0     363    372    160    520    545  44.3  17.1  34250  291.11 0854.27
2009/04/23 15:45:47.1     264    441    139    514    533  30.9  15.2  34258  291.25 0854.27
2009/04/23 15:45:47.2     299    342    143    455    478  41.1  17.5  34248  291.05 0854.33
2009/04/23 15:45:47.3     290    374    256    474    538  37.8  30.8  34236  290.86 0854.33
2009/04/23 15:45:47.4     409    564    252    697    742  36.0  19.9  34250  291.10 0854.33
2009/04/23 15:45:47.6     557    390     84    680    686  55.0   7.1  34240  290.94 0854.33
2009/04/23 15:45:47.7     333    446    -71    557    562  36.7  -7.3  34224  290.65 0854.33
2009/04/23 15:45:47.8     308    289     51    423    427  46.8   6.9  34230  290.77 0854.33
2009/04/23 15:45:47.9     263    132    120    295    318  63.4  23.4  34226  290.68 0854.33
2009/04/23 15:45:48.0     284    104    140    303    333  69.8  26.5  34246  291.04 0854.33
2009/04/23 15:45:48.1     328    -26     50    330    334  94.6   8.7  34254  291.18 0854.33
2009/04/23 15:45:48.2     315     18    110    316    334  86.7  20.0  34264  291.35 0854.32
2009/04/23 15:45:48.3     301     61    101    308    325  78.6  18.2  34266  291.36 0854.32
2009/04/23 15:45:48.4     298     80    123    309    332  75.0  23.0  34256  291.19 0854.32
2009/04/23 15:45:48.5     306     18    182    307    356  86.6  33.5  34274  291.52 0854.32
2009/04/23 15:45:48.6     379     19    147    380    407  87.1  22.2  34280  291.61 0854.32
2009/04/23 15:45:48.7     343     77    136    352    377  77.3  22.3  34292  291.81 0854.32
2009/04/23 15:45:48.8     240    117    121    268    294  64.0  26.2  34316  292.23 0854.32
2009/04/23 15:45:48.9     124    102    191    161    249  50.5  55.6  34308  292.10 0854.32
2009/04/23 15:45:49.0     340     82    158    350    384  76.4  26.0  34296  291.88 0854.32
2009/04/23 15:45:49.1     202     95    246    224    332  64.8  53.0  34270  291.44 0854.32
2009/04/23 15:45:49.2     119     51    168    130    212  66.5  58.5  34280  291.62 0854.32
2009/04/23 15:45:49.3     288    112    305    310    434  68.7  49.8  34322  292.31 0854.32
2009/04/23 15:45:49.4     423    120    297    440    530  74.1  37.3  34330  292.46 0854.32
2009/04/23 15:45:49.5     377    193    316    424    528  62.8  40.4  34326  292.39 0854.32
2009/04/23 15:45:49.6     355    110    277    372    463  72.7  40.2  34298  291.91 0854.32
2009/04/23 15:45:49.7     464    -32    288    466    547  94.0  34.6  34292  291.81 0854.32
2009/04/23 15:45:49.8     468    -21    266    469    539  92.6  32.0  34332  292.48 0854.32
2009/04/23 15:45:49.9     472     -4    415    473    629  90.6  45.8  34342  292.67 0854.32
2009/04/23 15:45:50.0     337      8    274    338    435  88.6  43.1  34334  292.54 0854.32
2009/04/23 15:45:50.1     442     53    235    446    504  83.1  30.1  34308  292.07 0854.32
2009/04/23 15:45:50.2     327      7    233    328    402  88.7  38.8  34288  291.74 0854.30
2009/04/23 15:45:50.3     143    -42    225    150    270 106.4  63.6  34284  291.68 0854.30
2009/04/23 15:45:50.4      25      1    162     26    164  87.4  90.0  34312  292.15 0854.30
2009/04/23 15:45:50.5     156    -14    233    157    280  95.2  62.8  34306  292.06 0854.30
2009/04/23 15:45:50.6     206    -92    189    226    294 114.2  43.8  34286  291.72 0854.30
2009/04/23 15:45:50.7     103   -255    217    276    351 157.9  42.2  34252  291.12 0854.30
2009/04/23 15:45:50.8     105   -252    172    274    323 157.3  35.2  34272  291.48 0854.30
2009/04/23 15:45:50.9     110   -218    201    245    316 153.3  43.5  34282  291.65 0854.30
2009/04/23 15:45:51.0      -2   -287    229    288    367 180.5  42.6  34260  291.27 0854.30
2009/04/23 15:45:51.1      -9   -378    222    379    439 181.5  33.3  34246  291.02 0854.30
2009/04/23 15:45:51.2      53   -251    240    257    351 168.0  47.9  34288  291.73 0854.30
2009/04/23 15:45:51.3      63   -229    238    238    336 164.4  50.1  34284  291.68 0854.30
2009/04/23 15:45:51.4      64   -194    189    205    278 161.5  47.9  34278  291.56 0854.30
2009/04/23 15:45:51.5      26   -189    151    191    243 172.0  42.4  34236  290.87 0854.30
2009/04/23 15:45:51.6      70   -180    160    194    251 158.6  43.8  34252  291.12 0854.30
2009/04/23 15:45:51.7      13   -285    185    286    340 177.3  35.7  34240  290.93 0854.30
2009/04/23 15:45:51.8      56   -256    219    263    342 167.5  43.8  34248  291.07 0854.30
2009/04/23 15:45:51.9      38   -242    252    246    352 171.1  50.7  34234  290.82 0854.30
2009/04/23 15:45:52.0     -22   -317    295    318    433 184.0  47.8  34228  290.74 0854.30
2009/04/23 15:45:52.1    -178   -345    319    389    503 207.3  43.7  34232  290.81 0854.30
2009/04/23 15:45:52.2    -462   -303    199    553    587 236.7  20.8  34242  290.95 0854.35
2009/04/23 15:45:52.3    -392   -343    227    521    568 228.8  25.1  34234  290.82 0854.35
2009/04/23 15:45:52.4    -454   -241    121    515    529 242.0  13.2  34212  290.46 0854.35
2009/04/23 15:45:52.5    -267   -215    234    344    416 231.2  37.6  34222  290.62 0854.35
2009/04/23 15:45:52.6    -175   -241    270    298    402 216.0  46.9  34232  290.81 0854.35
2009/04/23 15:45:52.7     -84   -109    265    138    298 217.8  70.6  34244  291.00 0854.35
2009/04/23 15:45:52.8    -120   -193    216    228    314 211.9  48.5  34222  290.61 0854.35
2009/04/23 15:45:52.9    -177   -292    134    342    367 211.2  22.5  34220  290.59 0854.35
2009/04/23 15:45:53.0      84   -178     53    198    205 154.6  15.0  34228  290.72 0854.35
2009/04/23 15:45:53.1      84     69     21    109    112  50.5  11.1  34232  290.81 0854.35
2009/04/23 15:45:53.2     133     89     -6    161    162  56.3  -2.2  34230  290.75 0854.35
2009/04/23 15:45:53.3      68   -261    -24    270    272 165.3  -5.2  34224  290.65 0854.35
2009/04/23 15:45:53.4    -148   -290   -115    326    345 207.1 -24.5  34222  290.62 0854.35
2009/04/23 15:45:53.5    -418   -206    -53    467    471 243.7  -6.5  34216  290.51 0854.35
2009/04/23 15:45:53.6    -459    -93    -35    469    471 258.6  -4.4  34228  290.73 0854.35
2009/04/23 15:45:53.7    -466   -100   -132    477    496 257.8 -15.5  34222  290.64 0854.35
2009/04/23 15:45:53.8    -307   -178   -161    356    390 239.9 -30.4  34202  290.30 0854.35
2009/04/23 15:45:53.9    -320   -139   -114    349    367 246.5 -23.5  34210  290.43 0854.35
2009/04/23 15:45:54.0    -259   -113   -240    283    371 246.3 -48.9  34196  290.18 0854.35
2009/04/23 15:45:54.1    -371     18   -217    372    430 272.9 -37.4  34206  290.36 0854.35
2009/04/23 15:45:54.2    -248   -141    -57    286    292 240.3 -11.3  34208  290.39 0854.36
2009/04/23 15:45:54.3     -82   -213    -31    229    232 201.2  -7.7  34226  290.69 0854.36
2009/04/23 15:45:54.4      -8   -296     21    297    298 181.6   4.2  34216  290.51 0854.36
2009/04/23 15:45:54.5     -84   -172    -56    192    200 206.1 -21.5  34218  290.57 0854.36
2009/04/23 15:45:54.6    -138   -233    -78    271    283 210.7 -16.0  34214  290.48 0854.36
2009/04/23 15:45:54.7    -185   -267   -102    326    341 214.7 -22.6  34202  290.30 0854.36
2009/04/23 15:45:54.8    -327   -249    -85    412    421 232.7 -11.8  34208  290.39 0854.36
2009/04/23 15:45:54.9    -452   -336   -156    564    586 233.4 -15.5  34186  290.02 0854.36
2009/04/23 15:45:55.0    -368   -305   -138    479    498 230.3 -20.8  34178  289.89 0854.36
2009/04/23 15:45:55.1    -345   -170   -199    385    433 243.8 -33.7  34168  289.72 0854.36
2009/04/23 15:45:55.2    -269   -189   -246    329    410 234.9 -45.0  34130  289.08 0854.36
2009/04/23 15:45:55.3    -273   -129   -185    303    355 244.7 -38.7  34164  289.64 0854.36
2009/04/23 15:45:55.4    -243   -112   -186    268    326 245.2 -42.7  34166  289.68 0854.36
2009/04/23 15:45:55.5    -211    -77   -131    225    260 249.8 -37.5  34174  289.81 0854.36
2009/04/23 15:45:55.6    -235    -73   -102    247    267 252.7 -28.0  34168  289.70 0854.36
2009/04/23 15:45:55.7    -278   -153   -101    318    333 241.2 -22.5  34178  289.87 0854.36
2009/04/23 15:45:55.8    -273   -198   -100    338    352 234.1 -21.4  34174  289.81 0854.36
2009/04/23 15:45:55.9    -307   -111   -103    327    342 250.1 -22.6  34158  289.55 0854.36
2009/04/23 15:45:56.0    -355   -136   -173    381    418 248.9 -30.6  34180  289.90 0854.36
2009/04/23 15:45:56.1    -431   -131   -200    451    493 253.1 -30.0  34178  289.89 0854.36
2009/04/23 15:45:56.2    -533   -196   -180    568    595 249.8 -22.8  34194  290.15 0854.39
2009/04/23 15:45:56.3    -509   -381   -143    637    653 233.2 -12.7  34242  290.96 0854.39
2009/04/23 15:45:56.4    -469   -363   -203    594    629 232.3 -18.9  34208  290.40 0854.39
2009/04/23 15:45:56.5    -410   -322   -164    522    547 231.8 -22.5  34184  289.99 0854.39
2009/04/23 15:45:56.6    -347   -163    -85    384    394 244.8 -12.6  34198  290.23 0854.39
2009/04/23 15:45:56.7    -362   -115   -120    380    398 252.3 -22.6  34178  289.89 0854.39
2009/04/23 15:45:56.8    -429    -73    -63    436    441 260.3  -8.2  34190  290.07 0854.39
2009/04/23 15:45:56.9    -217   -313     40    382    385 214.8   6.0  34222  290.62 0854.39
2009/04/23 15:45:57.0     -85    -71   -116    111    160 230.0 -55.8  34224  290.67 0854.39
2009/04/23 15:45:57.1      14      8     53     17     55  61.1  80.7  34222  290.64 0854.39
2009/04/23 15:45:57.2    -210     22    152    212    260 276.1  39.3  34224  290.65 0854.39
2009/04/23 15:45:57.3    -221    -59    141    229    268 254.9  34.8  34222  290.61 0854.39
2009/04/23 15:45:57.4    -268    -50     18    273    274 259.4   3.9  34224  290.65 0854.39
2009/04/23 15:45:57.5    -192     29    -27    195    197 278.6  -8.0  34228  290.74 0854.39
2009/04/23 15:45:57.6      15     31      3     35     36  25.5   4.9  34228  290.74 0854.39
2009/04/23 15:45:57.7      51      3     36     52     63  85.6  38.6  34234  290.82 0854.39
2009/04/23 15:45:57.8     148      2    121    149    191  89.2  43.7  34220  290.58 0854.39
2009/04/23 15:45:57.9     238     56    181    245    304  76.7  40.1  34210  290.41 0854.39
2009/04/23 15:45:58.0     210    108    -58    237    245  62.7 -13.9  34206  290.36 0854.39
2009/04/23 15:45:58.1     241     18    -82    242    256  85.7 -18.9  34200  290.24 0854.39
2009/04/23 15:45:58.2     234     70     86    245    260  73.2  19.4  34200  290.24 0854.42
2009/04/23 15:45:58.3     120     43    219    128    253  70.1  67.2  34214  290.48 0854.42
2009/04/23 15:45:58.4      31     40    194     51    200  37.8  85.2  34212  290.47 0854.42
2009/04/23 15:45:58.5     -84      2    116     85    143 271.7  60.5  34220  290.58 0854.42
2009/04/23 15:45:58.6     -80    -88    117    119    166 222.3  49.8  34204  290.33 0854.42
2009/04/23 15:45:58.7    -161   -252    116    300    321 212.6  22.2  34186  290.00 0854.42
2009/04/23 15:45:58.8    -157   -223     40    273    277 215.2   8.5  34184  289.98 0854.42
2009/04/23 15:45:58.9    -228   -288   -130    368    391 218.3 -19.6  34192  290.10 0854.42
2009/04/23 15:45:59.0    -206   -159   -150    261    301 232.3 -36.8  34194  290.15 0854.42
2009/04/23 15:45:59.1    -152   -290    -12    328    329 207.6  -2.2  34196  290.17 0854.42
2009/04/23 15:45:59.2     -63   -388    156    394    423 189.2  22.9  34200  290.26 0854.42
2009/04/23 15:45:59.3    -123   -431    110    449    463 195.9  13.8  34196  290.19 0854.42
2009/04/23 15:45:59.4    -102   -276    103    295    313 200.3  19.3  34202  290.29 0854.42
2009/04/23 15:45:59.5    -105   -314    211    332    393 198.6  35.5  34200  290.25 0854.42
2009/04/23 15:45:59.6    -119   -296    199    320    376 201.9  35.0  34216  290.52 0854.42
2009/04/23 15:45:59.7     -98   -246    151    266    305 201.8  32.1  34200  290.26 0854.42
2009/04/23 15:45:59.8    -305   -234    128    385    406 232.5  18.4  34202  290.28 0854.42
2009/04/23 15:45:59.9    -485   -339    -25    592    593 235.0  -2.5  34208  290.37 0854.42
2009/04/23 15:46:00.0    -312   -239    165    394    427 232.5  24.1  34226  290.68 0854.42
2009/04/23 15:46:00.1    -250   -629     -3    677    678 201.7  -0.3  34194  290.16 0854.42
2009/04/23 15:46:00.2    -117   -606    -89    618    625 191.0  -8.2  34198  290.20 0854.39
2009/04/23 15:46:00.3    -123   -579   -118    593    605 192.0 -11.3  34198  290.20 0854.39
2009/04/23 15:46:00.4    -222   -465   -151    516    538 205.5 -16.4  34196  290.19 0854.39
2009/04/23 15:46:00.5    -130   -421    -92    441    451 197.2 -11.8  34192  290.12 0854.39
2009/04/23 15:46:00.6    -126   -514    -82    530    537 193.8  -8.8  34196  290.19 0854.39
2009/04/23 15:46:00.7    -223   -461     39    513    515 205.9   4.4  34198  290.23 0854.39
2009/04/23 15:46:00.8    -223   -451   -164    504    530 206.3 -18.0  34176  289.85 0854.39
2009/04/23 15:46:00.9    -176   -378   -120    418    434 205.0 -20.8  34172  289.78 0854.39
2009/04/23 15:46:01.0     -30   -509   -112    510    523 183.4 -12.4  34174  289.81 0854.39
2009/04/23 15:46:01.1     -44   -475    -87    478    486 185.3 -10.4  34146  289.34 0854.39
2009/04/23 15:46:01.2     -60   -526    -45    530    533 186.6  -4.9  34180  289.90 0854.39
2009/04/23 15:46:01.3     -96   -551    112    560    572 189.9  11.3  34186  290.01 0854.39
2009/04/23 15:46:01.4    -140   -556     -4    574    575 194.2  -0.5  34152  289.44 0854.39
2009/04/23 15:46:01.5    -131   -556    -59    572    575 193.3  -5.9  34108  288.70 0854.39
2009/04/23 15:46:01.6    -143   -500    101    521    531 196.0  11.0  34172  289.79 0854.39
2009/04/23 15:46:01.7    -136   -361     83    386    395 200.7  12.2  34172  289.76 0854.39
2009/04/23 15:46:01.8      43   -335     57    338    343 172.7   9.7  34192  290.10 0854.39
2009/04/23 15:46:01.9     105   -352     70    368    375 163.4  10.8  34208  290.38 0854.39
2009/04/23 15:46:02.0     127   -360    118    382    400 160.5  17.2  34212  290.47 0854.39
2009/04/23 15:46:02.1      81   -294    102    306    323 164.6  18.4  34208  290.37 0854.39
2009/04/23 15:46:02.2     -18   -333    100    334    349 183.1  16.7  34212  290.45 0854.41
2009/04/23 15:46:02.3     -84   -382     30    392    394 192.4   4.5  34182  289.96 0854.41
2009/04/23 15:46:02.4    -122   -405    -54    424    428 196.8  -7.3  34074  288.11 0854.41
2009/04/23 15:46:02.5    -129   -416    -97    436    447 197.3 -12.6  34074  288.12 0854.41
2009/04/23 15:46:02.6    -122   -425    -99    443    454 196.1 -12.6  34080  288.23 0854.41
2009/04/23 15:46:02.7     -72   -425    -60    432    437 189.6  -7.9  34080  288.21 0854.41
2009/04/23 15:46:02.8     -46   -401    -66    404    410 186.6  -9.3  34096  288.50 0854.41
2009/04/23 15:46:02.9     143   -366   -110    394    410 158.6 -15.7  34186  290.02 0854.41
2009/04/23 15:46:03.0      41   -342    -70    345    352 173.1 -11.5  34164  289.64 0854.41
2009/04/23 15:46:03.1      57   -251     36    258    261 167.1   8.0  34180  289.92 0854.41
2009/04/23 15:46:03.2     -50   -248     59    253    260 191.5  13.2  34202  290.29 0854.41
2009/04/23 15:46:03.3       0   -213     37    214    218 180.2   9.9  34196  290.19 0854.41
2009/04/23 15:46:03.4     128   -207    -53    244    250 148.3 -12.4  34156  289.49 0854.41
2009/04/23 15:46:03.5      39   -317    -90    320    332 172.9 -20.3  34130  289.05 0854.41
2009/04/23 15:46:03.6      41   -349    -19    352    353 173.2  -3.1  34146  289.33 0854.41
2009/04/23 15:46:03.7     102   -368    -39    382    384 164.5  -5.9  34082  288.25 0854.41
2009/04/23 15:46:03.8     102   -380    -28    394    395 164.9  -4.1  34080  288.22 0854.41
2009/04/23 15:46:03.9     103   -359    -11    374    375 164.0  -1.8  34074  288.13 0854.41
2009/04/23 15:46:04.0     121   -365     10    385    386 161.5   1.5  34074  288.13 0854.41
2009/04/23 15:46:04.1     116   -367     18    386    387 162.4   2.8  34074  288.11 0854.41
2009/04/23 15:46:04.2     104   -375     33    390    392 164.5   5.0  34082  288.25 0854.43
2009/04/23 15:46:04.3      97   -392     91    404    415 166.0  12.8  34124  288.97 0854.43
2009/04/23 15:46:04.4      84   -381    138    391    414 167.5  20.2  34128  289.02 0854.43
2009/04/23 15:46:04.5      88   -457    101    466    477 169.1  12.3  34138  289.20 0854.43
2009/04/23 15:46:04.6     114   -421    123    437    455 164.9  15.8  34132  289.09 0854.43
2009/04/23 15:46:04.7      67   -328     70    335    343 168.4  11.8  34134  289.13 0854.43
2009/04/23 15:46:04.8      13   -402    143    403    428 178.1  19.6  34136  289.17 0854.43
2009/04/23 15:46:04.9     -37   -490    178    492    523 184.4  20.9  34136  289.15 0854.43
2009/04/23 15:46:05.0     -29   -483     64    484    489 183.5   7.6  34132  289.10 0854.43
2009/04/23 15:46:05.1     -58   -420    133    424    445 187.9  17.4  34142  289.26 0854.43
2009/04/23 15:46:05.2     -54   -437     69    441    447 187.1   9.0  34144  289.31 0854.43
2009/04/23 15:46:05.3    -124   -300    -12    325    326 202.5  -2.2  34166  289.68 0854.43
2009/04/23 15:46:05.4     -82   -345     11    355    356 193.5   1.9  34176  289.84 0854.43
2009/04/23 15:46:05.5    -116   -349     88    368    379 198.4  13.6  34166  289.69 0854.43
2009/04/23 15:46:05.6     -98   -289     88    306    319 198.7  16.0  34162  289.61 0854.43
2009/04/23 15:46:05.7     -67   -355     87    362    373 190.7  13.6  34156  289.50 0854.43
2009/04/23 15:46:05.8    -184   -396     48    437    440 205.0   6.4  34148  289.36 0854.43
2009/04/23 15:46:05.9    -117   -408     59    425    430 196.1   8.0  34144  289.29 0854.43
2009/04/23 15:46:06.0     -73   -364    176    372    411 191.3  27.2  34154  289.48 0854.43
2009/04/23 15:46:06.1     -47   -281    131    286    314 189.6  26.3  34170  289.75 0854.43
2009/04/23 15:46:06.2       3   -250    141    251    287 179.3  31.9  34178  289.88 0854.41
2009/04/23 15:46:06.3     -52   -261    130    267    296 191.3  27.8  34180  289.92 0854.41
2009/04/23 15:46:06.4     -39   -254     60    258    266 188.9  13.2  34174  289.80 0854.41
2009/04/23 15:46:06.5     -56   -276      8    282    283 191.6   1.8  34162  289.61 0854.41
2009/04/23 15:46:06.6     -78   -344    -13    353    354 192.9  -2.1  34174  289.81 0854.41
2009/04/23 15:46:06.7     -42   -283    -74    287    297 188.5 -14.5  34180  289.90 0854.41
2009/04/23 15:46:06.8      20   -318      6    319    320 176.4   1.1  34168  289.71 0854.41
2009/04/23 15:46:06.9      -8   -296     28    297    299 181.6   5.4  34168  289.70 0854.41
2009/04/23 15:46:07.0      15   -379     65    380    386 177.7   9.7  34166  289.67 0854.41
2009/04/23 15:46:07.1      -6   -514    110    515    527 180.7  12.1  34158  289.55 0854.41
2009/04/23 15:46:07.2       8   -555    182    556    586 179.1  18.2  34160  289.56 0854.41
2009/04/23 15:46:07.3     -38   -419    140    421    445 185.3  18.5  34158  289.53 0854.41
2009/04/23 15:46:07.4     -48   -462     82    465    473 186.0  10.0  34160  289.57 0854.41
2009/04/23 15:46:07.5       6   -434     68    435    441 179.1   8.9  34166  289.66 0854.41
2009/04/23 15:46:07.6      22   -404     67    405    411 176.8   9.5  34162  289.60 0854.41
2009/04/23 15:46:07.7       3   -455      5    456    457 179.5   0.7  34162  289.61 0854.41
2009/04/23 15:46:07.8      70   -439     80    445    453 170.9  10.2  34160  289.56 0854.41
2009/04/23 15:46:07.9      52   -397    193    401    445 172.4  27.4  34154  289.48 0854.41
2009/04/23 15:46:08.0       5   -380     68    381    388 179.1  10.1  34162  289.60 0854.41
2009/04/23 15:46:08.1    -160   -464     -2    492    493 199.1  -0.3  34160  289.56 0854.41
2009/04/23 15:46:08.2    -190   -440    -44    480    483 203.4  -5.3  34168  289.71 0854.38
2009/04/23 15:46:08.3    -276   -382    -84    472    480 215.9 -10.1  34192  290.12 0854.38
2009/04/23 15:46:08.4    -247   -263   -110    362    379 223.2 -17.0  34174  289.82 0854.38
2009/04/23 15:46:08.5    -190   -230   -122    299    322 219.6 -27.9  34158  289.53 0854.38
2009/04/23 15:46:08.6    -245   -120    -37    274    277 243.8  -7.7  34168  289.70 0854.38
2009/04/23 15:46:08.7    -241   -159     -1    290    291 236.5  -0.3  34176  289.85 0854.38
2009/04/23 15:46:08.8    -244   -157    -30    291    293 237.1  -6.1  34184  289.98 0854.38
2009/04/23 15:46:08.9    -349   -108    -82    366    376 252.8 -12.7  34174  289.82 0854.38
2009/04/23 15:46:09.0    -466   -104   -132    478    497 257.4 -15.5  34140  289.23 0854.38
2009/04/23 15:46:09.1    -448    -91   -150    458    483 258.5 -18.2  34140  289.22 0854.38
2009/04/23 15:46:09.2    -508     46   -145    511    532 275.2 -15.9  34138  289.21 0854.38
2009/04/23 15:46:09.3    -356     68    -12    363    364 280.9  -1.9  34166  289.69 0854.38
2009/04/23 15:46:09.4    -239    -82    -27    253    255 250.9  -6.2  34170  289.75 0854.38
2009/04/23 15:46:09.5    -281   -255    -56    380    385 227.7  -8.4  34168  289.71 0854.38
2009/04/23 15:46:09.6    -185   -281     -4    337    338 213.4  -0.7  34176  289.84 0854.38
2009/04/23 15:46:09.7    -170   -140     51    221    227 230.4  13.2  34170  289.74 0854.38
2009/04/23 15:46:09.8     -43   -210    109    215    241 191.6  29.1  34162  289.61 0854.38
2009/04/23 15:46:09.9    -127   -222     84    256    270 209.8  18.1  34164  289.63 0854.38
2009/04/23 15:46:10.0    -159   -403    104    434    447 201.5  13.5  34152  289.44 0854.38
2009/04/23 15:46:10.1     -78   -399     10    407    408 191.1   1.5  34154  289.46 0854.38
2009/04/23 15:46:10.2     -50   -394    -31    398    400 187.3  -4.6  34160  289.57 0854.30
2009/04/23 15:46:10.3     -41   -385    -16    388    389 186.2  -2.5  34166  289.67 0854.30
2009/04/23 15:46:10.4      17   -378    -62    379    385 177.4  -9.3  34162  289.62 0854.30
2009/04/23 15:46:10.5      84   -415    -14    424    425 168.5  -1.9  34172  289.77 0854.30
2009/04/23 15:46:10.6     129   -434    -17    453    454 163.4  -2.2  34148  289.36 0854.30
2009/04/23 15:46:10.7      57   -501    -77    505    511 173.4  -8.7  34152  289.45 0854.30
2009/04/23 15:46:10.8      41   -573    -22    575    576 175.9  -2.2  34148  289.36 0854.30
2009/04/23 15:46:10.9      47   -549    -21    552    553 175.0  -2.2  34132  289.11 0854.30
2009/04/23 15:46:11.0      -7   -479    -74    480    486 180.9  -8.8  34136  289.17 0854.30
2009/04/23 15:46:11.1     -59   -565     -2    569    570 186.0  -0.3  34132  289.10 0854.30
2009/04/23 15:46:11.2     -88   -584      2    591    592 188.6   0.2  34134  289.12 0854.26
2009/04/23 15:46:11.3    -174   -521    -44    550    552 198.5  -4.6  34128  289.02 0854.26
2009/04/23 15:46:11.4     -98   -479    -21    490    491 191.6  -2.5  34134  289.12 0854.26
2009/04/23 15:46:11.5     -79   -538     22    544    545 188.4   2.3  34138  289.19 0854.26
2009/04/23 15:46:11.6    -103   -553     18    563    564 190.6   1.9  34138  289.21 0854.26
2009/04/23 15:46:11.7     -50   -646    -74    649    654 184.5  -6.6  34136  289.18 0854.26
2009/04/23 15:46:11.8      40   -679   -112    681    691 176.6  -9.3  34132  289.09 0854.26
2009/04/23 15:46:11.9     110   -661    -64    671    675 170.5  -5.5  34142  289.26 0854.26
2009/04/23 15:46:12.0     -14   -702    -23    703    704 181.2  -1.9  34130  289.08 0854.26
2009/04/23 15:46:12.1       1   -637    -44    638    640 179.9  -4.0  34140  289.23 0854.26
2009/04/23 15:46:12.2    -117   -604    -24    616    617 191.0  -2.2  34140  289.23 0854.26
2009/04/23 15:46:12.3    -284   -610    -49    673    675 205.0  -4.2  34120  288.88 0854.26
2009/04/23 15:46:12.4    -264   -500     43    566    568 207.9   4.4  34124  288.96 0854.26
2009/04/23 15:46:12.5    -126   -583     62    597    601 192.3   6.0  34126  289.00 0854.26
2009/04/23 15:46:12.6     -41   -496     88    498    506 184.8  10.1  34132  289.10 0854.26
2009/04/23 15:46:12.7     -59   -363    -14    368    369 189.3  -2.2  34116  288.82 0854.26
2009/04/23 15:46:12.8    -212   -373    -45    430    433 209.7  -6.1  34124  288.95 0854.26
2009/04/23 15:46:12.9    -134   -395    -10    418    419 198.8  -1.4  34120  288.90 0854.26
2009/04/23 15:46:13.0    -125   -389     23    409    410 197.9   3.2  34116  288.83 0854.26
2009/04/23 15:46:13.1    -149   -331    -27    364    365 204.3  -4.4  34114  288.79 0854.26
2009/04/23 15:46:13.2    -134   -285    -30    315    317 205.2  -5.5  34114  288.80 0854.27
2009/04/23 15:46:13.3    -110   -283    -35    304    307 201.4  -6.7  34120  288.90 0854.27
2009/04/23 15:46:13.4     -75   -236    -54    248    254 197.8 -12.4  34116  288.81 0854.27
2009/04/23 15:46:13.5     -54   -190    -43    198    203 196.0 -12.4  34114  288.80 0854.27
2009/04/23 15:46:13.6     -58   -217    -51    225    231 195.1 -12.9  34118  288.87 0854.27
2009/04/23 15:46:13.7     -81   -235    -46    249    254 199.2 -10.5  34126  288.98 0854.27
2009/04/23 15:46:13.8     -57   -224    -29    232    234 194.3  -7.3  34124  288.95 0854.27
2009/04/23 15:46:13.9     -94   -225      3    244    245 202.7   0.7  34114  288.80 0854.27
2009/04/23 15:46:14.0     -47   -233     16    238    239 191.5   3.9  34128  289.02 0854.27
2009/04/23 15:46:14.1     -14   -188      0    189    190 184.4  -0.3  34136  289.16 0854.27
2009/04/23 15:46:14.2      15   -181     47    182    189 175.1  14.7  34138  289.19 0854.27
2009/04/23 15:46:14.3     -55   -169     34    178    182 198.0  11.0  34140  289.23 0854.27
2009/04/23 15:46:14.4     -46   -136    104    144    177 198.7  39.5  34140  289.23 0854.27
2009/04/23 15:46:14.5     -17    -67     92     70    115 194.3  59.0  34138  289.21 0854.27
2009/04/23 15:46:14.6      17    -54     59     57     82 161.7  50.7  34144  289.30 0854.27
2009/04/23 15:46:14.7       0   -242     36    243    246 180.2   8.5  34130  289.05 0854.27
2009/04/23 15:46:14.8     -14   -417     32    418    420 182.0   4.4  34134  289.12 0854.27
2009/04/23 15:46:14.9      27   -408    -67    409    415 176.2  -9.3  34132  289.11 0854.27
2009/04/23 15:46:15.0    -145   -433    -18    457    458 198.6  -2.3  34140  289.24 0854.27
2009/04/23 15:46:15.1    -100   -485      6    496    497 191.7   0.7  34152  289.44 0854.27
2009/04/23 15:46:15.2     -27   -596    -36    597    599 182.7  -3.5  34160  289.56 0854.29
2009/04/23 15:46:15.4    -122   -477    -19    493    494 194.4  -2.2  34156  289.49 0854.29
2009/04/23 15:46:15.5    -134   -309     68    337    344 203.5  11.5  34158  289.55 0854.29
2009/04/23 15:46:15.6    -503   -534   -149    734    749 223.3 -11.5  34148  289.36 0854.29
2009/04/23 15:46:15.7    -541   -514   -215    747    777 226.5 -20.8  34150  289.40 0854.29
2009/04/23 15:46:15.8    -451   -436   -207    628    661 226.0 -23.5  34156  289.50 0854.29
2009/04/23 15:46:15.9    -430   -371    167    568    593 229.2  16.4  34146  289.34 0854.29
2009/04/23 15:46:16.0    -335   -434    216    549    589 217.7  22.7  34154  289.47 0854.29
2009/04/23 15:46:16.1    -374   -360      0    520    521 226.1   0.0  34152  289.45 0854.29
2009/04/23 15:46:16.2    -280   -223   -139    359    384 231.5 -26.7  34158  289.54 0854.29
2009/04/23 15:46:16.3    -136   -196   -112    239    263 214.7 -31.5  34156  289.49 0854.29
2009/04/23 15:46:16.4    -160   -329     72    367    375 206.0  11.1  34162  289.60 0854.29
2009/04/23 15:46:16.5    -102   -395    119    408    426 194.5  16.3  34150  289.39 0854.29
2009/04/23 15:46:16.6    -356   -519    130    630    644 214.5  11.7  34152  289.42 0854.29
2009/04/23 15:46:16.7    -218   -461    138    510    529 205.3  15.1  34156  289.50 0854.29
2009/04/23 15:46:16.8    -250   -556     84    610    616 204.2   7.9  34154  289.48 0854.29
2009/04/23 15:46:16.9     -25   -473     97    474    485 183.1  11.6  34154  289.47 0854.29
2009/04/23 15:46:17.0      67   -481    150    486    509 172.0  17.2  34162  289.61 0854.29
2009/04/23 15:46:17.1      98   -293   -129    310    335 161.5 -28.2  34154  289.46 0854.29
2009/04/23 15:46:17.2     145   -106    -96    180    204 126.2 -35.0  34166  289.67 0854.30
2009/04/23 15:46:17.3      -3   -103     35    104    110 181.8  18.9  34156  289.50 0854.30
2009/04/23 15:46:17.4    -125   -313    101    338    353 201.8  16.6  34164  289.65 0854.30
2009/04/23 15:46:17.5     -70   -342     75    350    359 191.6  12.2  34162  289.62 0854.30
2009/04/23 15:46:17.6    -122   -291    119    316    337 202.7  21.6  34162  289.60 0854.30
2009/04/23 15:46:17.7    -295   -129    -93    323    337 246.3 -16.2  34178  289.86 0854.30
2009/04/23 15:46:17.8    -346   -201    -58    401    406 239.8  -8.2  34180  289.90 0854.30
2009/04/23 15:46:17.9    -187   -379     59    423    428 206.3   8.0  34184  289.97 0854.30
2009/04/23 15:46:18.0    -204   -415    -82    463    471 206.2 -10.1  34176  289.83 0854.30
2009/04/23 15:46:18.1    -275   -108      5    296    297 248.5   1.0  34186  290.00 0854.30
2009/04/23 15:46:18.2    -328   -204    -35    387    389 238.1  -5.2  34178  289.89 0854.30
2009/04/23 15:46:18.3    -384    -42    214    387    442 263.6  31.4  34174  289.82 0854.30
2009/04/23 15:46:18.4    -123   -169     57    210    218 216.1  15.3  34170  289.75 0854.30
2009/04/23 15:46:18.5    -163   -240     25    291    293 214.2   5.0  34164  289.64 0854.30
2009/04/23 15:46:18.6     -31   -208    -63    211    221 188.7 -16.8  34166  289.67 0854.30
2009/04/23 15:46:18.7      78   -190    -26    206    208 157.7  -7.3  34164  289.65 0854.30
2009/04/23 15:46:18.8     141   -132     18    194    195 133.1   5.4  34168  289.72 0854.30
2009/04/23 15:46:18.9     181   -122     39    219    223 124.1  10.1  34168  289.72 0854.30
2009/04/23 15:46:19.0     268    -15     42    269    273  93.3   9.0  34172  289.78 0854.30
2009/04/23 15:46:19.1     276    -60     46    283    287 102.4   9.3  34170  289.73 0854.30
2009/04/23 15:46:19.2     251    -72    107    262    283 106.0  23.1  34184  289.97 0854.32
2009/04/23 15:46:19.3     218    -85    175    235    293 111.3  40.4  34186  290.02 0854.32
2009/04/23 15:46:19.4     191   -330    188    382    425 150.0  28.2  34174  289.82 0854.32
2009/04/23 15:46:19.5     152   -502    281    525    595 163.1  30.3  34174  289.80 0854.32
2009/04/23 15:46:19.6     105   -459    380    471    605 167.1  43.0  34164  289.63 0854.32
2009/04/23 15:46:19.7     424   -502    298    658    722 139.8  26.0  34162  289.61 0854.32
2009/04/23 15:46:19.8     420   -622    235    751    788 145.9  17.4  34162  289.59 0854.32
2009/04/23 15:46:19.9     168   -567    139    592    609 163.5  13.2  34162  289.59 0854.32
2009/04/23 15:46:20.0     168   -523     30    550    551 162.2   3.1  34164  289.65 0854.32
2009/04/23 15:46:20.1     119   -469    166    485    513 165.7  18.9  34160  289.56 0854.32
2009/04/23 15:46:20.2      67   -616    297    620    687 173.8  27.3  34168  289.70 0854.32
2009/04/23 15:46:20.3       2   -577    177    578    605 179.8  17.0  34174  289.80 0854.32
2009/04/23 15:46:20.4     -52   -566    218    569    609 185.3  22.1  34180  289.90 0854.32
2009/04/23 15:46:20.5     -66   -255    173    264    315 194.5  36.4  34170  289.73 0854.32
2009/04/23 15:46:20.6      94   -431    115    442    457 167.6  14.6  34170  289.75 0854.32
2009/04/23 15:46:20.7    -112   -321    -54    341    346 199.3  -9.0  34168  289.72 0854.32
2009/04/23 15:46:20.8    -115   -415    -31    431    433 195.5  -4.1  34166  289.68 0854.32
2009/04/23 15:46:20.9    -102   -651     56    660    663 188.9   4.9  34172  289.78 0854.32
2009/04/23 15:46:21.0       4   -763     53    764    766 179.7   4.0  34174  289.80 0854.32
2009/04/23 15:46:21.1       1   -661     58    662    665 179.9   5.1  34188  290.04 0854.32
2009/04/23 15:46:21.2      55   -550    -54    553    556 174.2  -5.6  34176  289.84 0854.35
2009/04/23 15:46:21.3      14   -487   -148    488    509 178.3 -21.7  34182  289.95 0854.35
2009/04/23 15:46:21.4     158   -313   -207    351    407 153.2 -37.8  34184  289.98 0854.35
2009/04/23 15:46:21.5     253   -333    -16    419    420 142.7  -2.2  34178  289.87 0854.35
2009/04/23 15:46:21.6     193   -273    120    335    355 144.7  20.6  34174  289.82 0854.35
2009/04/23 15:46:21.7      55   -377    256    382    459 171.7  37.0  34180  289.92 0854.35
2009/04/23 15:46:21.8     -22   -374    228    375    438 183.4  34.2  34176  289.83 0854.35
2009/04/23 15:46:21.9     263   -534    -78    596    601 153.8  -7.5  34166  289.66 0854.35
2009/04/23 15:46:22.0     516   -551     39    755    756 136.9   3.0  34174  289.80 0854.35
2009/04/23 15:46:22.1     430   -557      0    704    705 142.3   0.0  34180  289.91 0854.35
2009/04/23 15:46:22.2     457   -544     32    711    712 140.0   2.6  34172  289.76 0854.35
2009/04/23 15:46:22.3     522   -463    150    698    715 131.6  12.2  34168  289.72 0854.35
2009/04/23 15:46:22.4     571   -448    130    726    738 128.1  10.2  34164  289.65 0854.35
2009/04/23 15:46:22.5     527   -473    190    709    734 131.9  15.0  34168  289.72 0854.35
2009/04/23 15:46:22.6     409   -372    162    554    578 132.3  16.3  34170  289.73 0854.35
2009/04/23 15:46:22.7     281   -282    158    399    429 135.1  22.8  34170  289.75 0854.35
2009/04/23 15:46:22.8     320   -247    154    405    433 127.6  21.8  34174  289.82 0854.35
2009/04/23 15:46:22.9     272   -233     65    359    365 130.6  10.3  34170  289.74 0854.35
2009/04/23 15:46:23.0     232   -176    168    292    336 127.1  32.6  34176  289.83 0854.35
2009/04/23 15:46:23.1     386   -216    181    443    478 119.3  23.6  34176  289.83 0854.35
2009/04/23 15:46:23.2     342   -198    226    396    455 120.1  32.3  34172  289.77 0854.36
2009/04/23 15:46:23.3     267    -93    258    283    382 109.3  47.1  34172  289.77 0854.36
2009/04/23 15:46:23.4     349   -152    284    381    475 113.6  40.4  34180  289.92 0854.36
2009/04/23 15:46:23.5     183   -524    335    556    649 160.7  33.8  34166  289.69 0854.36
2009/04/23 15:46:23.6     172   -558    212    585    623 162.8  19.9  34164  289.64 0854.36
2009/04/23 15:46:23.7      10   -493      8    494    495 178.7   1.0  34172  289.76 0854.36
2009/04/23 15:46:23.8      58   -429    -71    433    439 172.2  -9.3  34166  289.68 0854.36
2009/04/23 15:46:23.9     173   -232     45    290    294 143.3   8.8  34164  289.64 0854.36
2009/04/23 15:46:24.0     381   -180     20    422    423 115.4   2.8  34166  289.68 0854.36
2009/04/23 15:46:24.1     171   -260    213    312    377 146.6  37.6  34158  289.54 0854.36
2009/04/23 15:46:24.2      58   -110     80    125    148 151.9  35.6  34166  289.69 0854.36
2009/04/23 15:46:24.3     220    -35     11    223    224  99.2   2.9  34168  289.72 0854.36
2009/04/23 15:46:24.4     199    -72     68    212    223 109.9  17.9  34176  289.84 0854.36
2009/04/23 15:46:24.5     286   -140    106    319    337 116.2  18.4  34172  289.76 0854.36
2009/04/23 15:46:24.6     271    -59    -82    278    291 102.4 -16.5  34176  289.85 0854.36
2009/04/23 15:46:24.7     287   -182    -67    340    347 122.4 -11.2  34178  289.86 0854.36
2009/04/23 15:46:24.8     311   -138    -13    341    342 113.9  -2.2  34178  289.87 0854.36
2009/04/23 15:46:24.9     294   -117     -3    317    318 111.8  -0.6  34172  289.76 0854.36
2009/04/23 15:46:25.0     249     57     61    256    264  77.0  13.5  34174  289.81 0854.36
2009/04/23 15:46:25.1     165   -257    322    306    444 147.3  51.6  34160  289.58 0854.36
2009/04/23 15:46:25.2      75    -45    266     88    280 121.1  80.7  34174  289.80 0854.36
2009/04/23 15:46:25.3     105     -8    346    106    361  94.4  82.4  34184  289.97 0854.36
2009/04/23 15:46:25.4     124   -544    -70    559    564 167.1  -7.2  34168  289.72 0854.36
2009/04/23 15:46:25.5     167   -382   -124    418    437 156.4 -16.5  34174  289.82 0854.36
2009/04/23 15:46:25.6      83     12   -271     84    283  81.2 -86.7  34160  289.56 0854.36
2009/04/23 15:46:25.7     312    276   -113    417    433  48.5 -15.2  34174  289.82 0854.36
2009/04/23 15:46:25.8     298    204    -42    362    365  55.6  -6.7  34170  289.74 0854.36
2009/04/23 15:46:25.9     164    218    131    274    303  37.0  27.3  34170  289.75 0854.36
2009/04/23 15:46:26.0     124    232    132    264    295  28.1  28.5  34180  289.92 0854.36
2009/04/23 15:46:26.1      94    172    161    197    254  28.7  43.7  34182  289.95 0854.36
2009/04/23 15:46:26.2      55    213     86    221    237  14.5  22.3  34180  289.92 0854.36
2009/04/23 15:46:26.3      52    258      9    264    265  11.6   2.1  34178  289.88 0854.36
2009/04/23 15:46:26.4     155    346     18    380    381  24.2   2.8  34178  289.87 0854.36
2009/04/23 15:46:26.5     169    232      6    288    289  36.1   1.2  34174  289.81 0854.36
2009/04/23 15:46:26.6     106    176     47    206    212  31.2  12.9  34170  289.74 0854.36
2009/04/23 15:46:26.7     392    141    129    417    437  70.2  17.3  34166  289.68 0854.36
2009/04/23 15:46:26.8     326    -64    212    333    394 101.1  35.5  34158  289.55 0854.36
2009/04/23 15:46:26.9     133   -172    260    218    339 142.2  55.8  34174  289.81 0854.36
2009/04/23 15:46:27.0      10     24    195     27    196  23.6  90.0  34198  290.21 0854.36
2009/04/23 15:46:27.1     237   -300    323    383    501 141.6  44.3  34178  289.86 0854.36
2009/04/23 15:46:27.2     309   -358    373    474    603 139.2  42.2  34148  289.36 0854.39
2009/04/23 15:46:27.3     283   -367    371    464    594 142.3  42.7  34152  289.43 0854.39
2009/04/23 15:46:27.4     255   -335    352    422    549 142.7  44.1  34152  289.45 0854.39
2009/04/23 15:46:27.5     281   -440    317    523    611 147.4  34.1  34156  289.51 0854.39
2009/04/23 15:46:27.6     261   -478    350    545    647 151.4  35.7  34138  289.21 0854.39
2009/04/23 15:46:27.7     132   -291    369    320    488 155.5  54.8  34160  289.56 0854.39
2009/04/23 15:46:27.8     388   -329    472    509    694 130.3  47.7  34172  289.79 0854.39
2009/04/23 15:46:27.9     268   -433    167    510    537 148.3  18.2  34158  289.55 0854.39
2009/04/23 15:46:28.0     103   -435     21    448    449 166.6   2.8  34152  289.44 0854.39
2009/04/23 15:46:28.1      90   -480   -151    489    512 169.3 -17.2  34156  289.50 0854.39
2009/04/23 15:46:28.2      42   -327   -221    330    397 172.6 -41.4  34162  289.59 0854.39
2009/04/23 15:46:28.3      38   -222   -217    226    313 170.3 -53.2  34162  289.61 0854.39
2009/04/23 15:46:28.4     233    -47   -190    238    304 101.5 -47.2  34210  290.41 0854.39
2009/04/23 15:46:28.5      40    -17   -105     44    113 113.5 -81.0  34206  290.35 0854.39
2009/04/23 15:46:28.6      55    -50    -19     75     78 132.2 -14.5  34198  290.21 0854.39
2009/04/23 15:46:28.7     -79   -111     26    137    140 215.6  11.1  34184  289.99 0854.39
2009/04/23 15:46:28.8      19    -11     -9     23     24 120.7 -25.4  34176  289.85 0854.39
2009/04/23 15:46:28.9      82     -5      0     83     84  93.5  -0.3  34186  290.02 0854.39
2009/04/23 15:46:29.0      89      8     72     90    115  84.8  43.7  34188  290.04 0854.39
2009/04/23 15:46:29.1     129    -14     42    130    137  96.6  17.9  34174  289.80 0854.39
2009/04/23 15:46:29.2      97     -7     87     98    131  94.4  45.9  34166  289.67 0854.38
2009/04/23 15:46:29.3     202    -34     -1    205    206  99.7  -0.5  34180  289.91 0854.38
2009/04/23 15:46:29.4     138   -294     83    326    337 154.8  14.3  34172  289.76 0854.38
2009/04/23 15:46:29.5     215   -156    -34    266    269 126.0  -7.3  34180  289.90 0854.38
2009/04/23 15:46:29.6     184   -162    -50    246    252 131.4 -11.6  34178  289.88 0854.38
2009/04/23 15:46:29.7     125   -254     25    284    286 153.7   5.2  34172  289.76 0854.38
2009/04/23 15:46:29.8      66   -267    -10    276    277 166.0  -2.2  34172  289.78 0854.38
2009/04/23 15:46:29.9     121   -251    -35    279    282 154.1  -7.3  34172  289.78 0854.38
2009/04/23 15:46:30.0     129   -343   -145    367    394 159.4 -27.2  34164  289.64 0854.38
2009/04/23 15:46:30.1     206   -414   -144    463    484 153.5 -22.3  34162  289.61 0854.38
2009/04/23 15:46:30.2     260   -417   -147    492    514 148.0 -16.6  34158  289.54 0854.38
2009/04/23 15:46:30.3     250   -326   -122    412    430 142.5 -16.5  34154  289.48 0854.38
2009/04/23 15:46:30.4     219   -342    -31    407    409 147.4  -4.5  34158  289.55 0854.38
2009/04/23 15:46:30.5     262   -263     51    372    376 135.1   7.8  34152  289.43 0854.38
2009/04/23 15:46:30.6     305   -225     71    380    387 126.4  10.7  34154  289.48 0854.38
2009/04/23 15:46:30.7     215   -140     80    257    270 123.1  17.4  34156  289.49 0854.38
2009/04/23 15:46:30.8     164   -367    -97    402    414 155.9 -13.7  34162  289.60 0854.38
2009/04/23 15:46:30.9     282   -405     46    494    497 145.2   5.4  34156  289.49 0854.38
2009/04/23 15:46:31.0     137   -414    142    437    460 161.7  18.0  34162  289.60 0854.38
2009/04/23 15:46:31.1      43   -411     31    414    416 173.9   4.3  34166  289.68 0854.38
2009/04/23 15:46:31.2     -35   -459     46    461    464 184.5   5.8  34162  289.60 0854.39
2009/04/23 15:46:31.3      68   -424    -39    430    432 170.8  -5.2  34168  289.72 0854.39
2009/04/23 15:46:31.4     143   -454    -13    477    478 162.5  -1.6  34166  289.66 0854.39
2009/04/23 15:46:31.5     151   -514    -20    536    537 163.6  -2.2  34166  289.67 0854.39
2009/04/23 15:46:31.6     176   -513     -8    543    544 161.0  -0.9  34162  289.60 0854.39
2009/04/23 15:46:31.7     210   -464     46    510    513 155.6   5.2  34156  289.49 0854.39
2009/04/23 15:46:31.8     268   -476     85    547    554 150.6   8.9  34162  289.62 0854.39
2009/04/23 15:46:31.9     236   -426     76    488    495 151.0   8.9  34168  289.71 0854.39
2009/04/23 15:46:32.0     159   -393    200    425    469 157.9  27.0  34166  289.66 0854.39
2009/04/23 15:46:32.1     125   -397    -23    417    418 162.5  -3.2  34162  289.60 0854.39
2009/04/23 15:46:32.2     189   -403    -24    446    447 154.8  -3.2  34168  289.72 0854.40
2009/04/23 15:46:32.3     200   -439      6    483    484 155.5   0.8  34162  289.59 0854.40
2009/04/23 15:46:32.4     234   -396      6    461    462 149.4   0.8  34136  289.16 0854.40
2009/04/23 15:46:32.5     316   -417     25    524    525 142.8   2.8  34146  289.35 0854.40
2009/04/23 15:46:32.6     341   -307     89    460    469 132.0  11.0  34136  289.15 0854.40
2009/04/23 15:46:32.7     268   -367    -23    455    456 143.8  -3.0  34144  289.31 0854.40
2009/04/23 15:46:32.8     322   -207     70    384    391 122.8  10.3  34146  289.33 0854.40
2009/04/23 15:46:32.9     427   -280     82    511    518 123.3   9.2  34164  289.64 0854.40
2009/04/23 15:46:33.0     365   -184   -122    409    426 116.8 -21.6  34166  289.68 0854.40
2009/04/23 15:46:33.1     306   -199    -26    366    367 123.1  -4.1  34168  289.72 0854.40
2009/04/23 15:46:33.2     287   -238    -14    374    375 129.7  -2.3  34174  289.81 0854.40
2009/04/23 15:46:33.3     292   -206    -24    358    359 125.2  -3.9  34164  289.65 0854.40
2009/04/23 15:46:33.4     313   -169     42    356    359 118.4   6.9  34162  289.62 0854.40
2009/04/23 15:46:33.5     329   -106     66    346    353 107.9  10.8  34154  289.47 0854.40
2009/04/23 15:46:33.6     292   -130     95    320    334 114.0  16.6  34162  289.60 0854.40
2009/04/23 15:46:33.7     270    -67    162    279    322 104.1  32.9  34162  289.59 0854.40
2009/04/23 15:46:33.8     235    -93    173    253    306 111.7  37.6  34164  289.63 0854.40
2009/04/23 15:46:33.9     224   -102    164    247    296 114.4  36.5  34160  289.58 0854.40
2009/04/23 15:46:34.0     173    -69    154    187    242 112.0  43.7  34170  289.74 0854.40
2009/04/23 15:46:34.1     185   -122    168    222    278 123.5  40.9  34168  289.70 0854.40
2009/04/23 15:46:34.2     217   -137    140    257    292 122.2  31.3  34168  289.70 0854.42
2009/04/23 15:46:34.3     215    -43     94    220    239 101.4  24.6  34158  289.53 0854.42
2009/04/23 15:46:34.4     214    -28     65    216    226  97.5  16.8  34154  289.46 0854.42
2009/04/23 15:46:34.5     234      0    102    235    256  90.0  25.1  34164  289.64 0854.42
2009/04/23 15:46:34.6     159    -32      3    163    164 101.5   1.2  34158  289.55 0854.42
2009/04/23 15:46:34.7     177    -41     36    182    186 103.3  11.4  34154  289.48 0854.42
2009/04/23 15:46:34.8     208     26     57    210    218  82.8  15.2  34180  289.92 0854.42
2009/04/23 15:46:34.9     168     -8     90    169    191  93.0  30.3  34234  290.84 0854.42
2009/04/23 15:46:35.0     133     65     22    149    151  63.8   8.5  34242  290.96 0854.42
2009/04/23 15:46:35.1     201     57     65    209    219  74.1  17.3  34228  290.74 0854.42
2009/04/23 15:46:35.2     231     56     91    238    254  76.3  22.0  34282  291.65 0854.42
2009/04/23 15:46:35.3     183     60    157    193    248  71.6  43.5  34262  291.30 0854.42
2009/04/23 15:46:35.4      73     41    148     84    170  60.7  68.1  34258  291.23 0854.42
2009/04/23 15:46:35.5      98     75    139    124    186  52.7  53.7  34256  291.20 0854.42
2009/04/23 15:46:35.6     131     39    134    137    191  73.2  49.4  34248  291.08 0854.42
2009/04/23 15:46:35.7     186    -17    165    187    249  95.5  45.9  34178  289.87 0854.42
2009/04/23 15:46:35.8      39    -41    117     57    130 136.8  72.8  34184  289.97 0854.42
2009/04/23 15:46:35.9    -104     34    106    110    152 288.2  49.4  34218  290.55 0854.42
2009/04/23 15:46:36.0    -107    259    165    281    325 337.5  33.1  34218  290.56 0854.42
2009/04/23 15:46:36.1     -67    263    198    272    336 345.7  39.7  34230  290.76 0854.42
2009/04/23 15:46:36.2     161    194    157    253    297  39.6  35.0  34214  290.49 0854.39
2009/04/23 15:46:36.3     101    148    103    180    207  34.3  32.4  34232  290.79 0854.39
2009/04/23 15:46:36.4     -15    188     61    189    199 355.3  18.1  34204  290.31 0854.39
2009/04/23 15:46:36.5     118    284    -30    308    310  22.7  -5.6  34228  290.73 0854.39
2009/04/23 15:46:36.6     281    401      0    490    491  35.0   0.0  34162  289.62 0854.39
2009/04/23 15:46:36.7     268    395     15    478    479  34.2   1.9  34210  290.42 0854.39
2009/04/23 15:46:36.8     444    404     36    601    603  47.7   3.5  34182  289.93 0854.39
2009/04/23 15:46:36.9     260    394     62    473    477  33.4   7.5  34152  289.42 0854.39
2009/04/23 15:46:37.0     259    483    124    549    563  28.2  12.8  34192  290.11 0854.39
2009/04/23 15:46:37.1     330    383     27    506    507  40.8   3.1  34222  290.64 0854.39
2009/04/23 15:46:37.2     259    316      5    409    410  39.3   0.8  34168  289.72 0854.39
2009/04/23 15:46:37.3     174    295      0    343    344  30.6   0.0  34152  289.45 0854.39
2009/04/23 15:46:37.4     161    181     43    243    247  41.7  10.1  34150  289.39 0854.39
2009/04/23 15:46:37.5     -36    152     47    157    165 346.4  16.8  34152  289.43 0854.39
2009/04/23 15:46:37.6      -5    272     20    273    274 358.9   4.4  34140  289.24 0854.39
2009/04/23 15:46:37.7     205    247     16    322    323  39.6   2.9  34180  289.92 0854.39
2009/04/23 15:46:37.8     166    276     28    323    325  31.0   5.1  34188  290.03 0854.39
2009/04/23 15:46:37.9     113    280     88    303    316  22.1  16.3  34172  289.76 0854.39
2009/04/23 15:46:38.0     319    307     62    443    448  46.1   8.0  34160  289.58 0854.39
2009/04/23 15:46:38.1     390    130    145    412    437  71.6  19.4  34232  290.80 0854.39
2009/04/23 15:46:38.2     423    216    106    476    488  62.9  12.6  34124  288.96 0854.40
2009/04/23 15:46:38.3     397    338    210    522    562  49.6  23.1  34130  289.06 0854.40
2009/04/23 15:46:38.4     305    423    101    522    532  35.9  11.0  34130  289.07 0854.40
2009/04/23 15:46:38.5     201    307     96    368    381  33.2  14.6  34126  289.01 0854.40
2009/04/23 15:46:38.6      89    277     79    292    303  17.9  15.2  34138  289.20 0854.40
2009/04/23 15:46:38.7     144    170     98    224    244  40.3  25.2  34134  289.12 0854.40
2009/04/23 15:46:38.8     154    163     -4    225    226  43.2  -1.3  34134  289.13 0854.40
2009/04/23 15:46:38.9     110    247     38    271    274  24.1   8.0  34136  289.15 0854.40
2009/04/23 15:46:39.0      19    251     68    252    262   4.5  15.2  34134  289.12 0854.40
2009/04/23 15:46:39.1      72    218    133    230    265  18.3  32.7  34148  289.36 0854.40
2009/04/23 15:46:39.2     127    200     79    238    252  32.5  18.5  34126  288.98 0854.40
2009/04/23 15:46:39.3     211    210      4    298    299  45.2   0.8  34162  289.59 0854.40
2009/04/23 15:46:39.4     226    193     28    298    300  49.6   5.4  34200  290.26 0854.40
2009/04/23 15:46:39.5     145    220     38    264    267  33.4   8.2  34170  289.73 0854.40
2009/04/23 15:46:39.6     233    268     42    356    359  41.0   6.8  34208  290.37 0854.40
2009/04/23 15:46:39.7     372    210     57    428    432  60.6   7.6  34176  289.83 0854.40
2009/04/23 15:46:39.8     267    233    128    355    378  48.9  19.9  34168  289.72 0854.40
2009/04/23 15:46:39.9     281    268     44    389    392  46.4   6.5  34204  290.32 0854.40
2009/04/23 15:46:40.0     225    138    166    265    312  58.5  35.0  34292  291.82 0854.40
2009/04/23 15:46:40.1     263    208    146    336    366  51.6  25.1  34268  291.42 0854.40
2009/04/23 15:46:40.2     254    172    159    307    345  55.9  29.5  34250  291.10 0854.41
2009/04/23 15:46:40.3     305     97    189    321    372  72.3  33.1  34236  290.86 0854.41
2009/04/23 15:46:40.4     465    132    113    484    498  74.1  13.2  34234  290.83 0854.41
2009/04/23 15:46:40.5     482    144     77    504    510  73.4   8.7  34232  290.81 0854.41
2009/04/23 15:46:40.6     433     97    134    444    464  77.3  16.8  34232  290.78 0854.41
2009/04/23 15:46:40.7     412     58     83    417    426  82.0  11.3  34232  290.80 0854.41
2009/04/23 15:46:40.8     179     96    200    204    285  61.8  49.9  34318  292.26 0854.41
2009/04/23 15:46:40.9     191    100    196    216    291  62.2  47.0  34302  291.99 0854.41
2009/04/23 15:46:41.0     -51     -2    129     52    139 267.4  77.1  34324  292.35 0854.41
2009/04/23 15:46:41.1     202     12    167    203    262  86.5  43.7  34262  291.31 0854.41
2009/04/23 15:46:41.2     214    113     30    243    245  62.1   7.2  34270  291.43 0854.41
2009/04/23 15:46:41.3     183    100    108    209    235  61.1  29.3  34260  291.26 0854.41
2009/04/23 15:46:41.4     359     74     90    367    378  78.2  13.8  34262  291.32 0854.41
2009/04/23 15:46:41.5     398    111     61    414    419  74.3   8.5  34254  291.18 0854.41
2009/04/23 15:46:41.6     443     47    108    446    459  83.9  13.7  34262  291.29 0854.41
2009/04/23 15:46:41.7     446     65    182    451    486  81.6  23.2  34268  291.41 0854.41
2009/04/23 15:46:41.8     418    145    212    443    491  70.8  27.3  34176  289.83 0854.41
2009/04/23 15:46:41.9     372     76    171    380    416  78.4  25.9  34236  290.85 0854.41
2009/04/23 15:46:42.0     343     62    160    349    383  79.7  26.5  34210  290.43 0854.41
2009/04/23 15:46:42.1     337    123    132    359    382  69.9  21.0  34190  290.08 0854.41
2009/04/23 15:46:42.2     317    239    160    398    428  53.0  23.0  34168  289.70 0854.39
2009/04/23 15:46:42.3     253    133    174    287    335  62.2  34.1  34178  289.88 0854.39
2009/04/23 15:46:42.4     227    147    154    271    311  56.9  32.3  34214  290.48 0854.39
2009/04/23 15:46:42.5     206     67    145    217    260  71.8  36.7  34238  290.90 0854.39
2009/04/23 15:46:42.6     240     56     69    247    257  76.8  15.8  34180  289.92 0854.39
2009/04/23 15:46:42.7     225     86     89    242    257  68.9  21.0  34148  289.37 0854.39
2009/04/23 15:46:42.8     270     11    149    271    309  87.6  31.3  34152  289.44 0854.39
2009/04/23 15:46:42.9     293      3    172    294    340  89.4  33.1  34172  289.78 0854.39
2009/04/23 15:46:43.0     392     57    168    397    431  81.6  24.3  34164  289.63 0854.39
2009/04/23 15:46:43.1     355    -55    184    360    404  98.8  29.2  34206  290.35 0854.39
2009/04/23 15:46:43.3     358    -77    190    367    413 102.2  29.4  34198  290.21 0854.39
2009/04/23 15:46:43.4     223    -31    126    226    258  98.0  31.4  34174  289.80 0854.39
2009/04/23 15:46:43.5     217    -77    190    231    299 109.7  43.7  34210  290.41 0854.39
2009/04/23 15:46:43.6     265    -37    231    268    353  98.0  45.2  34220  290.58 0854.39
2009/04/23 15:46:43.7     261    -20    143    262    298  94.4  31.3  34226  290.70 0854.39
2009/04/23 15:46:43.8     130    -51    165    140    216 111.7  55.6  34218  290.55 0854.39
2009/04/23 15:46:43.9     162     20    108    164    196  82.8  36.5  34220  290.58 0854.39
2009/04/23 15:46:44.0     138     32    150    142    206  76.7  52.0  34240  290.94 0854.39
2009/04/23 15:46:44.1      56      0    147     57    157  90.0  77.8  34238  290.89 0854.39
2009/04/23 15:46:44.2     182      0    112    183    214  90.0  34.8  34232  290.81 0854.39
2009/04/23 15:46:44.3     198      9     -7    199    200  87.4  -2.2  34224  290.65 0854.39
2009/04/23 15:46:44.4     178     70     44    192    198  68.3  13.1  34212  290.47 0854.39
2009/04/23 15:46:44.5     124     77     17    147    149  58.0   6.9  34212  290.47 0854.39
2009/04/23 15:46:44.6      94     52      5    108    109  61.2   2.9  34204  290.33 0854.39
2009/04/23 15:46:44.7     107     14     -4    109    110  82.1  -2.2  34200  290.25 0854.39
2009/04/23 15:46:44.8      48     40    -23     63     67  50.4 -24.4  34212  290.47 0854.39
2009/04/23 15:46:44.9      58     36    -13     69     71  57.6 -11.3  34218  290.57 0854.39
2009/04/23 15:46:45.0      73      0     -4     74     75  90.0  -3.2  34218  290.57 0854.39
2009/04/23 15:46:45.1      44     -6     -4     45     46  97.9  -5.2  34224  290.67 0854.39
2009/04/23 15:46:45.2      29     -9     15     31     34 108.4  27.2  34228  290.72 0854.39
2009/04/23 15:46:45.3      61    -23     64     66     91 110.8  50.0  34236  290.87 0854.39
2009/04/23 15:46:45.4      50    -63     77     81    111 141.7  48.5  34244  291.01 0854.39
2009/04/23 15:46:45.5      12   -119     60    120    134 174.2  28.7  34232  290.81 0854.39
2009/04/23 15:46:45.6     -56   -278    172    284    332 191.5  34.1  34240  290.93 0854.39
2009/04/23 15:46:45.7    -143   -257     16    295    296 209.0   3.1  34256  291.21 0854.39
2009/04/23 15:46:45.8     -97   -321    -22    336    337 196.8  -3.9  34242  290.96 0854.39
2009/04/23 15:46:45.9      11   -369      4    370    371 178.2   0.7  34220  290.60 0854.39
2009/04/23 15:46:46.0      15   -338    105    339    356 177.4  17.3  34218  290.54 0854.39
2009/04/23 15:46:46.1    -119   -332    125    353    374 199.8  20.3  34208  290.38 0854.39
2009/04/23 15:46:46.2     173   -301    135    348    373 150.1  22.4  34192  290.13 0854.37
2009/04/23 15:46:46.3     117   -362     15    381    382 162.1   2.4  34222  290.62 0854.37
2009/04/23 15:46:46.4      64   -252    202    261    330 165.7  41.7  34202  290.27 0854.37
2009/04/23 15:46:46.5       2   -180    270    181    325 179.3  63.2  34208  290.39 0854.37
2009/04/23 15:46:46.6     -50   -185    230    192    299 195.2  56.3  34198  290.22 0854.37
2009/04/23 15:46:46.7      58   -310    199    316    373 169.4  35.3  34202  290.30 0854.37
2009/04/23 15:46:46.8    -129   -401    213    422    472 197.9  28.8  34192  290.11 0854.37
2009/04/23 15:46:46.9    -157   -488    296    513    592 197.9  32.6  34186  290.02 0854.37
2009/04/23 15:46:47.0    -205   -460    110    504    517 204.1  12.4  34186  290.01 0854.37
2009/04/23 15:46:47.1    -284   -376    148    472    495 217.0  17.4  34178  289.88 0854.37
2009/04/23 15:46:47.2    -228   -303     -1    380    381 217.0  -0.3  34182  289.96 0854.37
2009/04/23 15:46:47.3    -127   -381     38    402    404 198.5   5.5  34180  289.92 0854.37
2009/04/23 15:46:47.4    -255   -286    -21    384    385 221.8  -3.2  34172  289.79 0854.37
2009/04/23 15:46:47.5    -122   -233    -24    264    266 207.6  -5.2  34186  290.00 0854.37
2009/04/23 15:46:47.6    -214    -30    -48    217    223 262.0 -12.6  34186  290.01 0854.37
2009/04/23 15:46:47.7      86   -183    -56    203    211 154.8 -15.4  34186  290.02 0854.37
2009/04/23 15:46:47.8      86     84    -58    121    134  45.9 -31.7  34192  290.11 0854.37
2009/04/23 15:46:47.9      34    100    -88    106    137  19.2 -48.2  34196  290.18 0854.37
2009/04/23 15:46:48.0      12     -4    -88     13     88 108.6 -90.0  34194  290.14 0854.37
2009/04/23 15:46:48.1    -102    -67    107    123    163 236.7  45.8  34202  290.28 0854.37
2009/04/23 15:46:48.2    -261    -31     71    263    273 263.2  15.2  34202  290.27 0854.38
2009/04/23 15:46:48.3    -318     66    -89    325    338 281.9 -15.4  34202  290.27 0854.38
2009/04/23 15:46:48.4    -342   -114   -109    361    377 251.5 -21.7  34218  290.55 0854.38
2009/04/23 15:46:48.5    -302     42    -99    306    322 278.0 -18.1  34208  290.39 0854.38
2009/04/23 15:46:48.6    -378     41    -52    381    385 276.3  -7.9  34208  290.40 0854.38
2009/04/23 15:46:48.7    -197   -196   -273    279    390 225.1 -54.1  34186  290.01 0854.38
2009/04/23 15:46:48.8    -451   -125    -94    469    479 254.5 -11.3  34188  290.03 0854.38
2009/04/23 15:46:48.9    -324   -247   -140    408    432 232.7 -18.9  34196  290.17 0854.38
2009/04/23 15:46:49.0    -313   -162    -77    353    362 242.6 -12.4  34206  290.35 0854.38
2009/04/23 15:46:49.1    -299   -142    -73    332    341 244.6 -12.5  34194  290.16 0854.38
2009/04/23 15:46:49.2    -172   -275    -62    325    331 212.1 -10.8  34190  290.08 0854.38
2009/04/23 15:46:49.3    -165   -195     30    256    258 220.3   6.9  34182  289.93 0854.38
2009/04/23 15:46:49.4    -283   -102   -216    302    371 250.1 -43.7  34194  290.16 0854.38
2009/04/23 15:46:49.5    -431    -56   -228    435    491 262.6 -34.3  34192  290.13 0854.38
2009/04/23 15:46:49.6    -291    -87   -175    304    350 253.2 -37.1  34188  290.04 0854.38
2009/04/23 15:46:49.7    -125   -137   -123    186    222 222.5 -40.7  34192  290.11 0854.38
2009/04/23 15:46:49.8    -267   -186   -297    326    441 235.1 -51.4  34178  289.87 0854.38
2009/04/23 15:46:49.9    -260   -261   -239    369    439 224.8 -40.3  34190  290.07 0854.38
2009/04/23 15:46:50.0    -167   -201    -87    262    276 219.6 -23.8  34182  289.95 0854.38
2009/04/23 15:46:50.1    -105   -300   -177    319    364 199.4 -35.9  34192  290.13 0854.38
2009/04/23 15:46:50.2    -178   -285   -249    337    419 212.0 -44.4  34186  290.01 0854.36
2009/04/23 15:46:50.3      18   -457   -237    458    515 177.7 -33.8  34172  289.79 0854.36
2009/04/23 15:46:50.4     114   -358   -141    376    401 162.3 -25.8  34168  289.72 0854.36
2009/04/23 15:46:50.5     169   -180   -167    248    298 136.8 -41.8  34170  289.75 0854.36
2009/04/23 15:46:50.6    -294   -295   -175    417    452 224.9 -28.5  34176  289.83 0854.36
2009/04/23 15:46:50.7     -81   -537   -168    544    569 188.6 -22.2  34160  289.58 0854.36
2009/04/23 15:46:50.8    -174   -273   -140    324    352 212.5 -29.4  34176  289.84 0854.36
2009/04/23 15:46:50.9     -93   -215   -156    235    282 203.4 -40.9  34168  289.70 0854.36
2009/04/23 15:46:51.0     293   -143    -95    327    340 116.0 -21.1  34166  289.69 0854.36
2009/04/23 15:46:51.1     247   -205   -114    322    341 129.6 -24.5  34168  289.71 0854.36
2009/04/23 15:46:51.2     122    -41   -142    129    191 108.6 -57.4  34174  289.80 0854.36
2009/04/23 15:46:51.3    -346     69    -47    353    357 281.4  -7.7  34178  289.86 0854.36
2009/04/23 15:46:51.4    -417    -49   -219    420    473 263.2 -34.2  34202  290.29 0854.36
2009/04/23 15:46:51.5    -231     85   -128    247    278 290.2 -33.7  34198  290.22 0854.36
2009/04/23 15:46:51.6     -56   -236    -99    243    262 193.4 -27.5  34200  290.26 0854.36
2009/04/23 15:46:51.7     -83   -161   -123    182    219 207.2 -41.8  34190  290.09 0854.36
2009/04/23 15:46:51.8    -490   -169    -20    519    520 250.9  -2.2  34172  289.77 0854.36
2009/04/23 15:46:51.9    -387   -133    -86    410    420 250.9 -11.9  34170  289.73 0854.36
2009/04/23 15:46:52.0    -332   -104    -44    348    351 252.6  -7.3  34174  289.81 0854.36
2009/04/23 15:46:52.1    -409    -18   -122    410    428 267.4 -16.6  34172  289.77 0854.36
2009/04/23 15:46:52.2    -244    -19    -31    245    248 265.4  -7.3  34180  289.92 0854.33
2009/04/23 15:46:52.3    -204      0    -64    205    215 270.0 -17.5  34174  289.80 0854.33
2009/04/23 15:46:52.4    -105     22   -142    108    178 281.9 -63.4  34174  289.80 0854.33
2009/04/23 15:46:52.5    -120    -99    -60    156    167 230.5 -26.4  34176  289.84 0854.33
2009/04/23 15:46:52.6     -12   -103     66    104    123 186.7  35.5  34178  289.89 0854.33
2009/04/23 15:46:52.7      62    -93     39    112    119 146.2  19.4  34172  289.79 0854.33
2009/04/23 15:46:52.8       3    -68     81     69    106 177.3  55.4  34178  289.89 0854.33
2009/04/23 15:46:52.9      58   -123     46    137    145 154.6  18.9  34176  289.85 0854.33
2009/04/23 15:46:53.0      64    -67     19     94     97 136.3  11.6  34174  289.80 0854.33
2009/04/23 15:46:53.1      74    -88    -26    116    119 139.9 -12.9  34176  289.85 0854.33
2009/04/23 15:46:53.2      86   -110     57    140    151 142.1  23.1  34178  289.87 0854.32
2009/04/23 15:46:53.3     -15   -199     74    200    213 184.4  21.0  34174  289.80 0854.32
2009/04/23 15:46:53.4     -25   -218    194    220    293 186.7  45.9  34184  289.98 0854.32
2009/04/23 15:46:53.5     -96   -209     45    231    236 204.7  11.1  34182  289.93 0854.32
2009/04/23 15:46:53.6     -11    -85   -187     86    205 187.6 -77.9  34188  290.06 0854.32
2009/04/23 15:46:53.7     157   -157   -148    223    267 134.9 -40.9  34180  289.90 0854.32
2009/04/23 15:46:53.8     -30   -183   -152    186    240 189.3 -48.1  34188  290.06 0854.32
2009/04/23 15:46:53.9      43   -211    -93    216    235 168.4 -29.3  34186  290.02 0854.32
2009/04/23 15:46:54.0      76   -273    -79    284    294 164.4 -20.0  34184  289.97 0854.32
2009/04/23 15:46:54.1      70   -179    -58    193    202 158.6 -17.0  34180  289.92 0854.32
2009/04/23 15:46:54.2     126   -143    -57    191    199 138.6 -21.7  34182  289.96 0854.32
2009/04/23 15:46:54.3      42   -168    -53    174    182 165.7 -17.0  34184  289.97 0854.32
2009/04/23 15:46:54.4     -21    -63    -46     67     81 198.3 -42.4  34190  290.09 0854.32
2009/04/23 15:46:54.5      13   -150   -107    151    185 174.7 -43.2  34184  289.99 0854.32
2009/04/23 15:46:54.6     -64   -125   -120    141    185 207.1 -49.2  34188  290.04 0854.32
2009/04/23 15:46:54.7      24   -139   -102    142    174 170.2 -43.5  34186  290.01 0854.32
2009/04/23 15:46:54.8      95   -181    -86    205    222 152.4 -28.2  34184  289.97 0854.32
2009/04/23 15:46:54.9     113    -56    -26    127    130 116.6 -11.9  34180  289.92 0854.32
2009/04/23 15:46:55.0     -81     34   -115     89    145 293.1 -62.9  34190  290.08 0854.32
2009/04/23 15:46:55.1     -58     30   -211     66    221 298.0 -86.4  34188  290.04 0854.32
2009/04/23 15:46:55.2    -136   -136   -200    193    277 224.9 -55.6  34190  290.09 0854.36
2009/04/23 15:46:55.3     -70   -207   -189    219    289 198.7 -49.8  34190  290.09 0854.36
2009/04/23 15:46:55.4     198   -273   -119    338    359 144.0 -19.4  34174  289.81 0854.36
2009/04/23 15:46:55.5     163   -179   -107    243    265 137.7 -29.7  34188  290.05 0854.36
2009/04/23 15:46:55.6     104   -190    -68    217    228 151.3 -17.6  34192  290.13 0854.36
2009/04/23 15:46:55.7     166   -252    -19    303    304 146.6  -3.7  34182  289.95 0854.36
2009/04/23 15:46:55.8     121   -362     63    382    388 161.4   9.4  34182  289.94 0854.36
2009/04/23 15:46:55.9     166   -533     78    559    565 162.7   8.0  34174  289.82 0854.36
2009/04/23 15:46:56.0     203   -486    118    527    541 157.3  12.6  34172  289.77 0854.36
2009/04/23 15:46:56.1      62   -504      7    508    509 172.9   0.9  34186  290.01 0854.36
2009/04/23 15:46:56.2     163   -432     37    462    464 159.3   4.7  34182  289.95 0854.36
2009/04/23 15:46:56.3      83   -406    -29    415    417 168.4  -4.1  34186  290.00 0854.36
2009/04/23 15:46:56.4     102   -309    106    326    343 161.7  18.0  34182  289.93 0854.36
2009/04/23 15:46:56.5     115   -362    150    380    408 162.3  22.7  34178  289.87 0854.36
2009/04/23 15:46:56.6     167   -286    162    332    369 149.8  27.9  34182  289.94 0854.36
2009/04/23 15:46:56.7     252   -226    221    339    404 131.9  36.3  34184  289.99 0854.36
2009/04/23 15:46:56.8     258   -224    245    342    420 131.0  39.3  34182  289.96 0854.36
2009/04/23 15:46:56.9     161   -302    116    343    363 152.0  18.8  34178  289.89 0854.36
2009/04/23 15:46:57.0       5   -246    151    247    289 178.6  34.4  34182  289.95 0854.36
2009/04/23 15:46:57.1      43   -427    155    430    458 174.2  19.9  34182  289.94 0854.36
2009/04/23 15:46:57.2     -16   -417    214    418    469 182.3  29.3  34188  290.04 0854.40
2009/04/23 15:46:57.3      96   -490    130    500    517 168.9  14.6  34182  289.93 0854.40
2009/04/23 15:46:57.4      -6   -420    225    421    477 180.9  30.3  34184  289.97 0854.40
2009/04/23 15:46:57.5     -42   -552    276    554    618 184.4  28.4  34184  289.98 0854.40
2009/04/23 15:46:57.6    -164   -463    251    492    552 199.6  29.2  34182  289.96 0854.40
2009/04/23 15:46:57.7    -179   -533    222    563    605 198.6  22.8  34182  289.95 0854.40
2009/04/23 15:46:57.8    -198   -478    209    518    558 202.5  23.1  34182  289.96 0854.40
2009/04/23 15:46:57.9    -156   -485    282    510    582 197.9  31.4  34180  289.90 0854.40
2009/04/23 15:46:58.0    -218   -516    230    561    606 202.9  23.5  34190  290.07 0854.40
2009/04/23 15:46:58.1    -193   -445    172    486    516 203.5  19.5  34196  290.17 0854.40
2009/04/23 15:46:58.2     -85   -436    241    445    506 191.1  30.8  34202  290.27 0854.40
2009/04/23 15:46:58.3     -93   -357    237    369    438 194.7  35.6  34194  290.14 0854.40
2009/04/23 15:46:58.4    -247   -422    115    490    504 210.4  13.2  34188  290.03 0854.40
2009/04/23 15:46:58.5    -211   -267    118    341    362 218.4  19.2  34190  290.08 0854.40
2009/04/23 15:46:58.6    -162   -263     63    309    316 211.6  11.6  34190  290.09 0854.40
2009/04/23 15:46:58.7     -21   -278    157    279    320 184.5  32.0  34202  290.29 0854.40
2009/04/23 15:46:58.8    -177   -134    136    223    261 232.9  34.4  34196  290.17 0854.40
2009/04/23 15:46:58.9    -158   -127    118    203    234 231.1  32.9  34198  290.21 0854.40
2009/04/23 15:46:59.0    -236    -63     97    245    263 254.9  22.8  34204  290.31 0854.40
2009/04/23 15:46:59.1    -392     -6     65    393    399 269.0   9.5  34216  290.52 0854.40
2009/04/23 15:46:59.2    -342     90    125    354    376 284.8  19.5  34220  290.59 0854.30
2009/04/23 15:46:59.3    -337    -19     -2    338    339 266.7  -0.5  34202  290.30 0854.30
2009/04/23 15:46:59.4    -319     88     -9    332    333 285.5  -1.6  34230  290.76 0854.30
2009/04/23 15:46:59.5    -119   -176   -122    213    245 214.3 -36.7  34204  290.31 0854.30
2009/04/23 15:46:59.6     -92   -142    -98    170    196 213.0 -36.8  34198  290.23 0854.30
2009/04/23 15:46:59.7    -219     44     52    224    230 281.5  13.1  34208  290.40 0854.30
2009/04/23 15:46:59.8    -247    -98    -63    266    274 248.3 -13.4  34218  290.54 0854.30
2009/04/23 15:46:59.9    -333    -16    -16    334    335 267.2  -2.8  34210  290.43 0854.30
2009/04/23 15:47:00.0    -166     35    -23    170    172 281.9  -7.7  34190  290.08 0854.30
2009/04/23 15:47:00.1    -263    -68    -49    272    277 255.4 -10.4  34196  290.19 0854.30
2009/04/23 15:47:00.2    -333      3   -127    334    357 270.6 -26.1  34186  290.01 0854.30
2009/04/23 15:47:00.3    -517     19   -241    518    571 272.1 -31.1  34190  290.07 0854.30
2009/04/23 15:47:00.4    -298   -194    -38    356    359 236.9  -6.2  34208  290.37 0854.30
2009/04/23 15:47:00.5    -255   -235    114    348    367 227.3  18.2  34218  290.55 0854.30
2009/04/23 15:47:00.6    -284   -270     79    392    400 226.5  11.5  34230  290.76 0854.30
2009/04/23 15:47:00.7    -481   -182     28    515    516 249.2   3.1  34226  290.68 0854.30
2009/04/23 15:47:00.8    -410   -269     64    491    496 236.7   7.5  34222  290.61 0854.30
2009/04/23 15:47:00.9    -489   -223    -95    538    547 245.5 -10.1  34196  290.19 0854.30
2009/04/23 15:47:01.0    -501   -122    -71    516    521 256.3  -7.9  34226  290.69 0854.30
2009/04/23 15:47:01.1    -565   -236     96    613    621 247.3   8.9  34214  290.48 0854.30
2009/04/23 15:47:01.2    -435   -370     83    572    579 229.6   8.3  34218  290.54 0854.24
2009/04/23 15:47:01.3    -349   -230     44    419    422 236.6   6.1  34226  290.68 0854.24
2009/04/23 15:47:01.4    -407   -285    -21    497    498 235.0  -2.5  34262  291.29 0854.24
2009/04/23 15:47:01.5    -329   -357    156    486    511 222.7  17.8  34206  290.35 0854.24
2009/04/23 15:47:01.6     -41   -485     41    487    489 184.9   4.9  34212  290.44 0854.24
2009/04/23 15:47:01.7     -94   -412    -23    423    424 192.9  -3.2  34206  290.34 0854.24
2009/04/23 15:47:01.8    -116   -363     18    382    383 197.8   2.8  34222  290.62 0854.24
2009/04/23 15:47:01.9    -163   -402     68    434    440 202.1   8.9  34226  290.70 0854.24
2009/04/23 15:47:02.0     -90   -391    -28    402    403 193.0  -4.0  34230  290.77 0854.24
2009/04/23 15:47:02.1     182   -328     45    376    379 151.0   6.9  34220  290.60 0854.24
2009/04/23 15:47:02.2     137   -369    112    394    410 159.6  15.9  34220  290.58 0854.24
2009/04/23 15:47:02.3     -34   -174    194    178    263 191.1  52.5  34228  290.73 0854.24
2009/04/23 15:47:02.4      39   -123    201    130    239 162.2  64.1  34230  290.77 0854.24
2009/04/23 15:47:02.5      81   -123    160    148    217 146.6  52.2  34232  290.81 0854.24
2009/04/23 15:47:02.6      16   -256    218    257    337 176.4  44.7  34224  290.66 0854.24
2009/04/23 15:47:02.7      59   -266    228    273    355 167.3  44.2  34210  290.43 0854.24
2009/04/23 15:47:02.8      71   -134    192    152    244 151.9  57.5  34224  290.65 0854.24
2009/04/23 15:47:02.9     172    -57    173    182    251 108.6  48.7  34224  290.67 0854.24
2009/04/23 15:47:03.0     255    -45    205    260    331 100.1  42.2  34220  290.58 0854.24
2009/04/23 15:47:03.1     188    -52    143    196    242 105.7  39.7  34220  290.60 0854.24
2009/04/23 15:47:03.2      83    -25    109     87    139 106.8  56.9  34228  290.72 0854.27
2009/04/23 15:47:03.3     -84     27     93     89    128 288.2  51.2  34248  291.08 0854.27
2009/04/23 15:47:03.4     -38     74     58     84    102 332.4  38.6  34232  290.81 0854.27
2009/04/23 15:47:03.5      77     49     41     92    100  57.6  25.7  34232  290.79 0854.27
2009/04/23 15:47:03.6      70      5     25     71     76  85.7  19.4  34232  290.79 0854.27
2009/04/23 15:47:03.7      97     55    -35    112    118  60.2 -17.6  34226  290.69 0854.27
2009/04/23 15:47:03.8    -104    127     -2    165    166 320.8  -0.7  34226  290.69 0854.27
2009/04/23 15:47:03.9    -124    136    133    185    227 317.7  39.5  34262  291.32 0854.27
2009/04/23 15:47:04.0    -157     89    119    181    216 299.8  36.5  34258  291.25 0854.27
2009/04/23 15:47:04.1    -174     41     45    179    185 283.3  14.3  34250  291.11 0854.27
2009/04/23 15:47:04.2    -197     92     57    218    226 295.2  14.7  34264  291.33 0854.27
2009/04/23 15:47:04.3    -205    135     -3    246    247 303.3  -0.7  34280  291.61 0854.27
2009/04/23 15:47:04.4    -133    182     -1    226    227 323.7  -0.3  34272  291.49 0854.27
2009/04/23 15:47:04.5     -13    192    -26    193    195 356.0  -7.7  34262  291.30 0854.27
2009/04/23 15:47:04.6       8    203    -41    204    209   2.5 -11.3  34270  291.45 0854.27
2009/04/23 15:47:04.7      75    137     78    157    175  28.9  28.2  34284  291.67 0854.27
2009/04/23 15:47:04.8     233    175    191    292    348  53.2  36.0  34250  291.10 0854.27
2009/04/23 15:47:04.9     606    169     82    630    636  74.4   7.5  34236  290.86 0854.27
2009/04/23 15:47:05.0     632    292     46    697    699  65.2   3.8  34256  291.20 0854.27
2009/04/23 15:47:05.1     547    225    106    592    602  67.6  10.2  34212  290.47 0854.27
2009/04/23 15:47:05.2     468    191    155    506    530  67.8  17.1  34214  290.48 0854.28
2009/04/23 15:47:05.3     566    216    190    606    636  69.1  17.4  34232  290.81 0854.28
2009/04/23 15:47:05.4     512    197     61    549    553  68.9   6.4  34210  290.41 0854.28
2009/04/23 15:47:05.5     530     -8     39    531    533  90.9   4.2  34272  291.48 0854.28
2009/04/23 15:47:05.6     590     42     28    592    593  85.9   2.8  34258  291.22 0854.28
2009/04/23 15:47:05.7     857    202    -48    881    883  76.7  -3.1  34218  290.57 0854.28
2009/04/23 15:47:05.8     736     57     12    739    740  85.5   1.0  34228  290.72 0854.28
2009/04/23 15:47:05.9     481    205     73    523    529  66.9   8.0  34202  290.28 0854.28
2009/04/23 15:47:06.0     382    314    169    495    524  50.5  18.9  34222  290.64 0854.28
2009/04/23 15:47:06.1     379    340    154    510    533  48.1  16.8  34202  290.28 0854.28
2009/04/23 15:47:06.2     603    272    154    662    680  65.7  13.1  34158  289.54 0854.28
2009/04/23 15:47:06.3     544    153    176    566    593  74.3  17.3  34146  289.34 0854.28
2009/04/23 15:47:06.4     475    224    188    526    558  64.7  20.4  34182  289.96 0854.28
2009/04/23 15:47:06.5     446    313    187    546    578  54.9  18.9  34220  290.58 0854.28
2009/04/23 15:47:06.6     252    264    162    366    400  43.7  25.6  34218  290.57 0854.28
2009/04/23 15:47:06.7     345    343    120    487    502  45.2  13.9  34234  290.83 0854.28
2009/04/23 15:47:06.8     311    352    199    470    510  41.5  24.3  34258  291.22 0854.28
2009/04/23 15:47:06.9     418    329    178    533    563  51.8  18.5  34240  290.94 0854.28
2009/04/23 15:47:07.0     467    225    183    519    551  64.2  19.4  34232  290.79 0854.28
2009/04/23 15:47:07.1     403    198    215    450    498  63.8  27.3  34232  290.78 0854.28
2009/04/23 15:47:07.2     381    180    242    422    486  64.6  32.6  34232  290.79 0854.32
2009/04/23 15:47:07.3     390    215    148    446    470  61.2  18.4  34260  291.26 0854.32
2009/04/23 15:47:07.4     586    220    188    627    655  69.4  16.7  34316  292.22 0854.32
2009/04/23 15:47:07.5     617    289    306    682    747  64.9  25.8  34302  292.00 0854.32
2009/04/23 15:47:07.6     517    152    383    539    661  73.6  39.0  34300  291.95 0854.32
2009/04/23 15:47:07.7     348     19    391    349    524  86.7  53.9  34252  291.12 0854.32
2009/04/23 15:47:07.8     269     98     -1    287    288  70.0  -0.3  34280  291.61 0854.32
2009/04/23 15:47:07.9     291    207   -185    358    402  54.5 -33.7  34270  291.44 0854.32
2009/04/23 15:47:08.0     483    191    -22    520    521  68.4  -2.5  34192  290.13 0854.32
2009/04/23 15:47:08.1     424    108     17    438    439  75.7   2.3  34222  290.63 0854.32
2009/04/23 15:47:08.2     442    -33    193    444    484  94.4  25.1  34228  290.71 0854.32
2009/04/23 15:47:08.3     332     -8     39    333    336  91.5   6.7  34268  291.42 0854.32
2009/04/23 15:47:08.4     397    228     15    459    460  60.1   1.9  34216  290.51 0854.32
2009/04/23 15:47:08.5     392   -136    130    416    437 109.2  17.4  34260  291.26 0854.32
2009/04/23 15:47:08.6     549    -51    234    552    599  95.3  24.5  34294  291.85 0854.32
2009/04/23 15:47:08.7     563     33    188    565    596  86.6  18.5  34300  291.95 0854.32
2009/04/23 15:47:08.8     523     88    208    531    570  80.4  22.5  34198  290.21 0854.32
2009/04/23 15:47:08.9     537    163    152    562    583  73.1  15.2  34176  289.85 0854.32
2009/04/23 15:47:09.0     540    121    135    554    571  77.3  13.7  34246  291.03 0854.32
2009/04/23 15:47:09.1     432    -72    152    438    464  99.5  19.2  34256  291.19 0854.28
2009/04/23 15:47:09.2     427   -107     73    441    448 104.1   9.5  34258  291.24 0854.28
2009/04/23 15:47:09.3     341    -29    117    343    363  94.9  18.9  34250  291.11 0854.28
2009/04/23 15:47:09.4     302    -76     42    312    315 104.2   7.8  34198  290.20 0854.28
2009/04/23 15:47:09.5     246      0    123    247    275  90.0  28.2  34232  290.80 0854.28
2009/04/23 15:47:09.6     349     23    256    350    433  86.2  39.7  34242  290.95 0854.28
2009/04/23 15:47:09.7     191    -13    239    192    306  94.1  57.1  34200  290.26 0854.28
2009/04/23 15:47:09.8      85    -20    181     88    201 103.3  72.4  34198  290.23 0854.28
2009/04/23 15:47:09.9      10     66    254     67    262   8.9  84.9  34224  290.65 0854.28
2009/04/23 15:47:10.0    -234    -30    135    236    271 262.5  32.4  34214  290.48 0854.28
2009/04/23 15:47:10.1    -458     -7    166    459    488 269.0  20.7  34240  290.93 0854.28
2009/04/23 15:47:10.2    -413    159    -64    443    448 291.1  -8.2  34216  290.51 0854.28
2009/04/23 15:47:10.3    -365    230   -187    432    470 302.2 -29.3  34168  289.72 0854.28
2009/04/23 15:47:10.4    -335    184   -212    383    437 298.8 -35.8  34152  289.43 0854.28
2009/04/23 15:47:10.5    -367    162   -255    402    476 293.9 -39.9  34168  289.70 0854.28
2009/04/23 15:47:10.6    -262     87   -252    277    374 288.4 -51.4  34156  289.52 0854.28
2009/04/23 15:47:10.7     -79    118   -199    143    245 326.2 -65.0  34160  289.58 0854.28
2009/04/23 15:47:10.8      84    108   -131    138    190  37.9 -52.9  34158  289.55 0854.28
2009/04/23 15:47:11.0     199   -124   -132    235    269 122.0 -36.0  34160  289.58 0854.28
2009/04/23 15:47:11.1     147   -202   -104    251    271 143.9 -28.0  34156  289.49 0854.28
2009/04/23 15:47:11.2      61   -207    -12    216    217 163.5  -3.2  34160  289.57 0854.33
2009/04/23 15:47:11.3      69    -67     16     97     99 134.0   9.5  34164  289.65 0854.33
2009/04/23 15:47:11.4      -8    -88    -78     89    118 185.8 -50.2  34172  289.79 0854.33
2009/04/23 15:47:11.5     -74    -22    -69     78    104 253.2 -51.3  34180  289.91 0854.33
2009/04/23 15:47:11.6     -29     62    -80     69    105 334.7 -59.2  34186  290.02 0854.33
2009/04/23 15:47:11.7     -24    107    -36    110    115 347.1 -23.8  34192  290.13 0854.33
2009/04/23 15:47:11.8    -121    142     21    187    189 319.5   6.5  34202  290.30 0854.33
2009/04/23 15:47:11.9    -118     23     86    121    148 281.4  39.1  34214  290.48 0854.33
2009/04/23 15:47:12.0       9    -17    125     20    126 151.0  90.0  34192  290.13 0854.33
2009/04/23 15:47:12.1      12    -72    142     74    160 170.2  70.4  34212  290.47 0854.33
2009/04/23 15:47:12.2      15   -280    332    281    434 176.9  55.5  34188  290.06 0854.33
2009/04/23 15:47:12.3    -296   -202    243    359    433 235.7  37.4  34212  290.44 0854.33
2009/04/23 15:47:12.4    -213   -187      4    284    285 228.7   0.8  34214  290.49 0854.33
2009/04/23 15:47:12.5     162    -65    221    175    281 112.0  57.7  34200  290.24 0854.33
2009/04/23 15:47:12.6      -3   -180    334    181    379 181.0  69.1  34206  290.34 0854.33
2009/04/23 15:47:12.7       3   -317    381    318    496 179.3  56.1  34184  289.99 0854.33
2009/04/23 15:47:12.8    -189   -432    367    472    597 203.7  41.7  34216  290.53 0854.33
2009/04/23 15:47:12.9    -199   -422    297    467    553 205.3  35.5  34200  290.26 0854.33
2009/04/23 15:47:13.0    -206   -324    239    385    453 212.5  34.9  34212  290.44 0854.33
2009/04/23 15:47:13.1    -108   -227    183    252    311 205.4  39.5  34224  290.65 0854.33
2009/04/23 15:47:13.2      -2    -44    189     45    194 182.7  86.9  34230  290.77 0854.37
2009/04/23 15:47:13.3     -48    -16     41     51     65 250.9  43.7  34216  290.53 0854.37
2009/04/23 15:47:13.4    -194     33    124    197    232 279.9  35.5  34222  290.62 0854.37
2009/04/23 15:47:13.5    -186     34     45    190    196 280.4  13.5  34226  290.69 0854.37
2009/04/23 15:47:13.6    -137     49      7    146    147 289.9   2.9  34234  290.82 0854.37
2009/04/23 15:47:13.7    -188   -162     86    249    264 229.3  19.2  34230  290.75 0854.37
2009/04/23 15:47:13.8    -355   -241     87    430    439 235.8  11.5  34238  290.90 0854.37
2009/04/23 15:47:13.9    -236   -252     85    346    357 223.0  13.9  34228  290.72 0854.37
2009/04/23 15:47:14.0    -303   -392    -67    496    501 217.8  -7.7  34242  290.98 0854.37
2009/04/23 15:47:14.1    -158   -508    141    532    551 197.3  14.9  34216  290.52 0854.37
2009/04/23 15:47:14.2    -156   -371    164    403    435 202.8  23.4  34212  290.44 0854.38
2009/04/23 15:47:14.3    -342   -448    193    564    597 217.4  18.9  34212  290.46 0854.38
2009/04/23 15:47:14.4    -337   -470    196    579    612 215.7  18.7  34220  290.58 0854.38
2009/04/23 15:47:14.5    -429   -517     22    673    674 219.7   1.9  34214  290.49 0854.38
2009/04/23 15:47:14.6    -325   -463     92    567    575 215.1   9.2  34198  290.20 0854.38
2009/04/23 15:47:14.7    -391   -487     91    625    632 218.7   8.3  34206  290.35 0854.38
2009/04/23 15:47:14.8    -339   -289     13    446    447 229.6   1.7  34214  290.48 0854.38
2009/04/23 15:47:14.9    -341   -315    -62    465    470 227.2  -7.6  34232  290.81 0854.38
2009/04/23 15:47:15.0    -359   -421    -37    554    556 220.4  -3.9  34208  290.38 0854.38
2009/04/23 15:47:15.1    -467   -487   -117    676    687 223.8  -9.9  34224  290.66 0854.38
2009/04/23 15:47:15.2    -381   -474   -214    609    646 218.8 -19.4  34212  290.47 0854.38
2009/04/23 15:47:15.3    -431   -312   -229    533    580 234.1 -29.2  34186  290.01 0854.38
2009/04/23 15:47:15.4    -331   -145   -280    362    457 246.4 -46.1  34206  290.34 0854.38
2009/04/23 15:47:15.5    -385   -256   -183    463    497 236.3 -27.2  34218  290.54 0854.38
2009/04/23 15:47:15.6    -649    -58   -198    652    682 264.8 -16.9  34216  290.51 0854.38
2009/04/23 15:47:15.7    -602   -177   -162    628    649 253.6 -14.5  34212  290.47 0854.38
2009/04/23 15:47:15.8    -592    -96   -196    600    631 260.8 -23.2  34208  290.37 0854.38
2009/04/23 15:47:15.9    -566   -207    -13    603    604 249.9  -1.3  34218  290.56 0854.38
2009/04/23 15:47:16.0    -411   -252   -136    483    502 238.5 -15.8  34234  290.83 0854.38
2009/04/23 15:47:16.1    -373   -280    -18    467    468 233.1  -2.2  34222  290.62 0854.38
2009/04/23 15:47:16.2     -32   -499    -63    501    505 183.7  -7.2  34192  290.12 0854.39
2009/04/23 15:47:16.3       3   -369   -137    370    394 179.5 -25.7  34190  290.08 0854.39
2009/04/23 15:47:16.4     -96   -338    -80    352    362 195.9 -12.9  34186  290.01 0854.39
2009/04/23 15:47:16.5    -147   -444      3    468    469 198.4   0.4  34182  289.95 0854.39
2009/04/23 15:47:16.6      59   -411    -16    416    417 171.8  -2.2  34196  290.19 0854.39
2009/04/23 15:47:16.7     143   -350    -48    379    383 157.8  -7.2  34206  290.35 0854.39
2009/04/23 15:47:16.8     220   -378    -64    438    443 149.7  -8.4  34196  290.19 0854.39
2009/04/23 15:47:16.9     167   -318    -82    360    370 152.3 -12.9  34194  290.15 0854.39
2009/04/23 15:47:17.0     109   -347    -33    364    366 162.5  -5.2  34192  290.13 0854.39
2009/04/23 15:47:17.1     128   -473     95    491    501 164.9  11.0  34178  289.88 0854.39
2009/04/23 15:47:17.2      75   -442    105    449    462 170.3  13.2  34174  289.80 0854.39
2009/04/23 15:47:17.3     157   -381     67    413    419 157.6   9.2  34178  289.87 0854.39
2009/04/23 15:47:17.4     282   -341    176    443    476 140.4  22.8  34228  290.73 0854.39
2009/04/23 15:47:17.5     214   -343    356    405    539 148.0  45.8  34226  290.69 0854.39
2009/04/23 15:47:17.6      66   -343    312    350    468 169.1  46.3  34234  290.82 0854.39
2009/04/23 15:47:17.7     154   -216    222    266    346 144.4  44.0  34234  290.83 0854.39
2009/04/23 15:47:17.8     232    -64     98    241    260 105.5  23.1  34212  290.46 0854.39
2009/04/23 15:47:17.9     147    -53    153    157    219 110.0  49.4  34228  290.74 0854.39
2009/04/23 15:47:18.0     214    -22    206    216    298  96.1  48.7  34226  290.70 0854.39
2009/04/23 15:47:18.1     200   -145    113    248    272 126.0  26.2  34196  290.17 0854.39
2009/04/23 15:47:18.2      41    -91    197    100    220 155.5  71.1  34208  290.38 0854.41
2009/04/23 15:47:18.3    -116   -243    291    270    396 205.6  52.3  34210  290.43 0854.41
2009/04/23 15:47:18.4    -114   -214    245    243    345 208.1  50.1  34214  290.48 0854.41
2009/04/23 15:47:18.5    -137   -248    135    284    314 209.0  27.2  34210  290.42 0854.41
2009/04/23 15:47:18.6    -164   -192     91    253    268 220.5  20.4  34216  290.51 0854.41
2009/04/23 15:47:18.7    -123   -202     89    237    253 211.4  21.3  34222  290.61 0854.41
2009/04/23 15:47:18.8     -95   -152     60    180    190 211.9  18.6  34214  290.50 0854.41
2009/04/23 15:47:18.9     -85   -201      8    219    220 202.9   2.1  34210  290.43 0854.41
2009/04/23 15:47:19.0     -58   -223    -30    231    233 194.7  -7.5  34200  290.26 0854.41
2009/04/23 15:47:19.1     -56   -194    -40    203    208 196.3 -11.3  34206  290.36 0854.41
2009/04/23 15:47:19.2      19   -251    -16    252    253 175.5  -3.7  34212  290.44 0854.41
2009/04/23 15:47:19.3     107   -225    -61    250    258 154.5 -13.7  34204  290.31 0854.41
2009/04/23 15:47:19.4     -71   -210    -72    222    234 198.7 -17.9  34202  290.30 0854.41
2009/04/23 15:47:19.5     -85   -134    -15    159    160 212.5  -5.6  34204  290.33 0854.41
2009/04/23 15:47:19.6     -78   -146     57    166    176 208.1  19.2  34212  290.47 0854.41
2009/04/23 15:47:19.7     -15   -138     72    139    156 186.2  29.3  34200  290.26 0854.41
2009/04/23 15:47:19.8     -92   -151     85    178    197 211.4  27.2  34196  290.19 0854.41
2009/04/23 15:47:19.9      43   -119     97    127    159 159.9  41.4  34208  290.40 0854.41
2009/04/23 15:47:20.0      85     78     54    116    127  47.3  27.1  34198  290.21 0854.41
2009/04/23 15:47:20.1       4    -22     24     23     33 168.4  48.2  34196  290.18 0854.41
2009/04/23 15:47:20.2       2   -224    131    225    260 179.3  33.1  34178  289.86 0854.40
2009/04/23 15:47:20.3      55   -396    140    400    424 172.1  19.3  34178  289.88 0854.40
2009/04/23 15:47:20.4      31   -307    158    309    347 174.2  29.2  34172  289.76 0854.40
2009/04/23 15:47:20.5     143   -285    106    320    338 153.3  18.4  34162  289.62 0854.40
2009/04/23 15:47:20.6      57   -415    139    419    442 172.1  18.4  34154  289.48 0854.40
2009/04/23 15:47:20.7     -46   -429     63    432    437 186.2   8.3  34160  289.56 0854.40
2009/04/23 15:47:20.8      25   -356    140    357    383 175.9  22.7  34162  289.59 0854.40
2009/04/23 15:47:20.9      41   -285    175    289    337 171.8  34.1  34162  289.59 0854.40
2009/04/23 15:47:21.0      97   -205    139    227    266 154.7  34.5  34168  289.70 0854.40
2009/04/23 15:47:21.1      71   -214    104    226    248 161.5  26.6  34146  289.34 0854.40
2009/04/23 15:47:21.2     -69   -269    145    278    313 194.5  29.6  34158  289.53 0854.40
2009/04/23 15:47:21.3      73   -140    157    159    223 152.4  50.0  34160  289.58 0854.40
2009/04/23 15:47:21.4     117   -187    217    221    309 147.9  49.9  34172  289.78 0854.40
2009/04/23 15:47:21.5      53   -195    188    203    276 164.8  47.9  34196  290.17 0854.40
2009/04/23 15:47:21.6      51    -93    172    107    202 151.0  64.9  34178  289.87 0854.40
2009/04/23 15:47:21.7      35   -123    142    129    191 164.0  53.0  34176  289.84 0854.40
2009/04/23 15:47:21.8     119    -11    159    120    199  95.7  59.2  34176  289.84 0854.40
2009/04/23 15:47:21.9     349    -17    165    350    386  92.9  27.1  34162  289.59 0854.40
2009/04/23 15:47:22.0     141    -51    190    151    242 110.0  57.7  34160  289.57 0854.40
2009/04/23 15:47:22.1     128     -5    158    129    203  92.6  56.6  34154  289.48 0854.40
2009/04/23 15:47:22.2     154      0     98    155    183  90.4  35.5  34156  289.50 0854.40
2009/04/23 15:47:22.3     135    126     75    185    199  46.9  23.4  34162  289.60 0854.40
2009/04/23 15:47:22.4     268    103     39    288    291  68.9   7.8  34162  289.61 0854.40
2009/04/23 15:47:22.5     240     27     82    242    256  83.4  18.9  34170  289.75 0854.40
2009/04/23 15:47:22.6     264    103    150    284    321  68.7  30.2  34176  289.83 0854.40
2009/04/23 15:47:22.7     308     89    167    321    361  73.8  29.5  34162  289.60 0854.40
2009/04/23 15:47:22.8     266    106    199    287    349  68.2  38.0  34188  290.06 0854.40
2009/04/23 15:47:22.9     191     18    169    192    255  84.5  45.8  34202  290.29 0854.40
2009/04/23 15:47:23.0     -41    -15    121     44    128 250.0  79.2  34202  290.28 0854.40
2009/04/23 15:47:23.1     -49     13    123     51    133 285.1  76.6  34196  290.18 0854.40
2009/04/23 15:47:23.2     -17    -14    155     23    156 230.5  90.0  34184  289.97 0854.40
2009/04/23 15:47:23.3    -193    133    112    235    260 304.6  27.2  34180  289.92 0854.40
2009/04/23 15:47:23.4    -192     54    114    200    230 285.9  32.1  34168  289.70 0854.40
2009/04/23 15:47:23.5    -130    -39    171    136    218 253.2  57.7  34172  289.79 0854.40
2009/04/23 15:47:23.6    -170    129    178    214    278 307.3  43.8  34184  289.97 0854.40
2009/04/23 15:47:23.7      50    -50    108     72    129 134.9  63.2  34208  290.40 0854.40
2009/04/23 15:47:23.8     -22     -7     86     24     89 251.8  83.9  34202  290.30 0854.40
2009/04/23 15:47:23.9    -201    -95     87    223    239 244.7  22.3  34206  290.34 0854.40
2009/04/23 15:47:24.0    -156   -170    103    231    252 222.5  25.7  34192  290.10 0854.40
2009/04/23 15:47:24.1      24   -225    128    227    260 173.8  31.6  34186  290.00 0854.40
2009/04/23 15:47:24.2    -158   -218     68    270    279 215.8  14.3  34184  289.98 0854.41
2009/04/23 15:47:24.3     -66   -332    201    339    394 191.4  33.5  34172  289.76 0854.41
2009/04/23 15:47:24.4     -17   -261    173    262    313 183.8  36.7  34180  289.92 0854.41
2009/04/23 15:47:24.5     210    -69    271    222    350 108.2  56.4  34186  290.02 0854.41
2009/04/23 15:47:24.6      98    -33    189    104    215 108.6  68.9  34188  290.04 0854.41
2009/04/23 15:47:24.7       7   -155    188    156    244 177.3  56.3  34194  290.14 0854.41
2009/04/23 15:47:24.8     134    -29    168    138    217 102.4  56.4  34192  290.11 0854.41
2009/04/23 15:47:24.9     -16    -41    146     45    152 201.8  82.3  34198  290.23 0854.41
2009/04/23 15:47:25.0     -24      8    150     26    152 288.4  90.0  34194  290.16 0854.41
2009/04/23 15:47:25.1      26     25    127     37    132  46.7  82.8  34206  290.36 0854.41
2009/04/23 15:47:25.2      21   -112    139    115    180 169.3  56.3  34194  290.16 0854.41
2009/04/23 15:47:25.3     191    -51    230    198    303 105.1  55.3  34198  290.20 0854.41
2009/04/23 15:47:25.4     119     16    216    121    247  82.0  68.5  34210  290.41 0854.41
2009/04/23 15:47:25.5      11    -17    141     21    142 145.7  90.0  34200  290.25 0854.41
2009/04/23 15:47:25.6     125   -174    157    215    266 144.4  39.7  34182  289.95 0854.41
2009/04/23 15:47:25.7     118   -147    129    189    228 141.3  37.6  34180  289.91 0854.41
2009/04/23 15:47:25.8      52   -196    202    203    286 165.1  50.0  34194  290.15 0854.41
2009/04/23 15:47:25.9      43   -192    152    197    248 167.1  41.7  34184  289.98 0854.41
2009/04/23 15:47:26.0      46   -229     24    234    236 168.5   6.0  34156  289.51 0854.41
2009/04/23 15:47:26.1      86   -230     38    246    250 159.5   8.9  34162  289.59 0854.41
2009/04/23 15:47:26.2      10   -147    115    148    187 176.0  42.2  34168  289.72 0854.46
2009/04/23 15:47:26.3      95   -156     74    183    197 148.6  23.1  34170  289.75 0854.46
2009/04/23 15:47:26.4     -14   -240     51    241    247 183.5  12.0  34168  289.71 0854.46
2009/04/23 15:47:26.5     -34   -243    109    246    269 188.0  25.7  34178  289.86 0854.46
2009/04/23 15:47:26.6       4   -253     88    254    269 179.0  19.2  34176  289.83 0854.46
2009/04/23 15:47:26.7     -41   -239    109    243    266 189.8  26.2  34172  289.78 0854.46
2009/04/23 15:47:26.8     -53   -198    145    206    251 195.2  38.5  34186  290.02 0854.46
2009/04/23 15:47:26.9     -30   -201     94    204    224 188.5  27.0  34178  289.87 0854.46
2009/04/23 15:47:27.0      -4   -236    158    237    284 181.1  37.0  34174  289.81 0854.46
2009/04/23 15:47:27.1    -104   -252     96    273    290 202.5  19.4  34178  289.88 0854.46
2009/04/23 15:47:27.2     -50   -280     99    285    302 190.2  19.2  34190  290.09 0854.46
2009/04/23 15:47:27.3     -45   -221     63    226    235 191.6  15.6  34194  290.16 0854.46
2009/04/23 15:47:27.4     -41   -186     96    191    213 192.7  28.7  34204  290.31 0854.46
2009/04/23 15:47:27.5      11   -181     73    182    196 176.4  23.0  34198  290.23 0854.46
2009/04/23 15:47:27.6      45   -210     92    215    233 167.7  24.3  34200  290.25 0854.46
2009/04/23 15:47:27.7      -6   -144     77    145    164 182.7  30.3  34198  290.23 0854.46
2009/04/23 15:47:27.8      -1   -114     79    115    139 180.9  37.6  34202  290.30 0854.46
2009/04/23 15:47:27.9      -4   -122     73    123    143 182.2  33.5  34204  290.33 0854.46
2009/04/23 15:47:28.0     -58   -193    130    202    240 196.9  35.7  34186  290.02 0854.46
2009/04/23 15:47:28.1    -134   -269    144    301    333 206.5  27.3  34186  290.02 0854.46
2009/04/23 15:47:28.2     -49   -259     56    264    271 190.9  12.1  34186  290.00 0854.50
2009/04/23 15:47:28.3     167   -250    103    301    319 146.2  18.9  34184  289.97 0854.50
2009/04/23 15:47:28.4     -30   -328    163    330    368 185.4  28.1  34178  289.86 0854.50
2009/04/23 15:47:28.5     -94   -352    148    365    393 195.1  23.2  34184  289.98 0854.50
2009/04/23 15:47:28.6     -41   -357    198    360    410 186.6  31.3  34192  290.13 0854.50
2009/04/23 15:47:28.7     -83   -358    202    368    419 193.2  31.3  34190  290.09 0854.50
2009/04/23 15:47:28.8     -77   -342    205    351    406 192.7  33.0  34202  290.28 0854.50
2009/04/23 15:47:28.9     -80   -221    175    236    293 200.0  40.1  34200  290.26 0854.50
2009/04/23 15:47:29.0    -170   -153     80    229    243 228.0  19.4  34198  290.22 0854.50
2009/04/23 15:47:29.1    -161   -142     90    216    234 228.6  23.8  34206  290.36 0854.50
2009/04/23 15:47:29.2     -13   -177    141    178    227 184.2  42.7  34228  290.72 0854.50
2009/04/23 15:47:29.3     -14   -166    114    167    202 184.9  37.6  34230  290.77 0854.50
2009/04/23 15:47:29.4      -2   -131     91    132    160 181.0  38.0  34260  291.26 0854.50
2009/04/23 15:47:29.5     -22    -76    105     80    132 196.0  58.5  34264  291.35 0854.50
2009/04/23 15:47:29.6      26     -2      1     27     28  96.1   2.9  34260  291.28 0854.50
2009/04/23 15:47:29.7      28    -23     -1     37     38 129.5  -2.2  34260  291.28 0854.50
2009/04/23 15:47:29.8    -151   -180    147    236    278 220.1  35.0  34212  290.44 0854.50
2009/04/23 15:47:29.9      31   -143    206    147    253 167.5  61.3  34244  290.99 0854.50
2009/04/23 15:47:30.0    -140   -151    127    207    242 222.8  34.5  34226  290.69 0854.50
2009/04/23 15:47:30.1    -135   -158    156    208    260 220.5  40.7  34194  290.15 0854.50
2009/04/23 15:47:30.2     -91   -142     75    169    184 212.6  25.7  34188  290.06 0854.52
2009/04/23 15:47:30.3      21   -165    148    167    223 172.7  46.2  34196  290.19 0854.52
2009/04/23 15:47:30.4     -26   -187    127    189    227 188.0  37.3  34192  290.11 0854.52
2009/04/23 15:47:30.5     -81   -167    204    186    276 205.9  53.0  34202  290.29 0854.52
2009/04/23 15:47:30.6    -130   -161     73    208    221 219.0  19.4  34188  290.04 0854.52
2009/04/23 15:47:30.7    -118   -162     38    201    205 216.0  10.8  34192  290.11 0854.52
2009/04/23 15:47:30.8     -67   -186     34    198    202 199.8   9.9  34188  290.04 0854.52
2009/04/23 15:47:30.9     -64   -178     26    190    192 200.0   8.0  34186  290.02 0854.52
2009/04/23 15:47:31.0    -130   -214     55    251    258 211.2  12.4  34190  290.07 0854.52
2009/04/23 15:47:31.1     -69   -186     62    199    209 200.5  17.3  34184  289.99 0854.52
2009/04/23 15:47:31.2     -20   -142     89    144    169 188.0  34.8  34190  290.09 0854.52
2009/04/23 15:47:31.3      -1   -145    118    146    187 180.5  43.5  34196  290.18 0854.52
2009/04/23 15:47:31.4       0   -172    116    173    208 180.2  37.0  34198  290.21 0854.52
2009/04/23 15:47:31.5     -36   -214     78    218    231 189.6  20.4  34226  290.69 0854.52
2009/04/23 15:47:31.6      -3   -222     70    223    234 180.9  17.4  34212  290.47 0854.52
2009/04/23 15:47:31.7      16   -195     27    196    198 175.3   8.0  34222  290.62 0854.52
2009/04/23 15:47:31.8     100   -204     28    228    230 153.7   7.2  34222  290.64 0854.52
2009/04/23 15:47:31.9     165   -202      9    262    263 140.8   2.1  34210  290.42 0854.52
2009/04/23 15:47:32.0      94   -316     24    330    331 163.4   4.2  34186  290.01 0854.52
2009/04/23 15:47:32.1      43   -339     60    342    348 172.7  10.0  34168  289.71 0854.52
2009/04/23 15:47:32.2      95   -313     51    328    333 163.1   8.9  34162  289.62 0854.52
2009/04/23 15:47:32.3     126   -290     68    317    325 156.4  12.2  34162  289.61 0854.52
2009/04/23 15:47:32.4     115   -250     53    276    282 155.3  11.0  34164  289.63 0854.52
2009/04/23 15:47:32.5      72   -238    114    249    273 163.0  26.2  34164  289.64 0854.52
2009/04/23 15:47:32.6      36   -211    141    215    257 170.2  36.5  34168  289.70 0854.52
2009/04/23 15:47:32.7      44   -206    140    211    253 167.7  36.5  34174  289.80 0854.52
2009/04/23 15:47:32.8      52   -192    114    199    229 164.8  32.4  34172  289.79 0854.52
2009/04/23 15:47:32.9      38   -157    119    162    201 166.2  39.9  34172  289.79 0854.52
2009/04/23 15:47:33.0       1   -116     98    117    152 179.5  43.8  34172  289.79 0854.52
2009/04/23 15:47:33.1     -12   -108     95    109    144 186.7  45.8  34174  289.80 0854.52
2009/04/23 15:47:33.2      -3    -84    105     85    135 182.2  56.4  34180  289.92 0854.52
2009/04/23 15:47:33.3     -18    -68     98     71    121 195.1  60.5  34186  290.01 0854.52
2009/04/23 15:47:33.4     -41   -163    102    169    197 194.3  33.7  34170  289.75 0854.52
2009/04/23 15:47:33.5       6   -166     63    167    178 177.8  21.7  34168  289.72 0854.52
2009/04/23 15:47:33.6     -61   -171    109    182    212 199.8  34.0  34180  289.91 0854.52
2009/04/23 15:47:33.7     -81   -191     96    208    229 203.2  27.0  34176  289.84 0854.52
2009/04/23 15:47:33.8     -74   -186    170    201    263 201.8  44.5  34176  289.83 0854.52
2009/04/23 15:47:33.9    -109   -134    131    173    217 219.2  40.9  34182  289.94 0854.52
2009/04/23 15:47:34.0     -35    -89    129     96    160 201.4  59.8  34186  290.02 0854.52
2009/04/23 15:47:34.1       0      7    155      8    155 357.3  90.0  34214  290.50 0854.52
2009/04/23 15:47:34.2       5    -70    182     71    195 175.5  78.2  34200  290.26 0854.49
2009/04/23 15:47:34.3     -23    -67     84     72    110 199.2  55.4  34194  290.14 0854.49
2009/04/23 15:47:34.4     -62    -41      5     75     76 236.7   3.8  34186  290.02 0854.49
2009/04/23 15:47:34.5      12     45     -2     47     48  15.1  -3.1  34186  290.02 0854.49
2009/04/23 15:47:34.6     100      7     66    101    120  85.6  36.0  34198  290.21 0854.49
2009/04/23 15:47:34.7     134    -49    119    143    186 110.4  43.8  34224  290.67 0854.49
2009/04/23 15:47:34.8     109     34    126    115    170  72.3  53.0  34244  291.01 0854.49
2009/04/23 15:47:34.9     151     99    119    181    216  56.7  36.5  34274  291.50 0854.49
2009/04/23 15:47:35.0     165    114    141    201    245  55.4  38.6  34292  291.81 0854.49
2009/04/23 15:47:35.1      71     82    143    109    179  41.0  59.0  34292  291.83 0854.49
2009/04/23 15:47:35.2      89     93    120    129    176  43.7  47.9  34298  291.93 0854.50
2009/04/23 15:47:35.3     108     83     98    137    168  52.3  39.1  34310  292.13 0854.50
2009/04/23 15:47:35.4      87     87     98    124    158  45.0  42.4  34300  291.95 0854.50
2009/04/23 15:47:35.5      25    127    100    130    164  11.5  41.4  34320  292.29 0854.50
2009/04/23 15:47:35.6     -91     97     24    134    137 316.8  10.1  34276  291.55 0854.50
2009/04/23 15:47:35.7    -151      2     52    152    161 270.8  18.9  34266  291.37 0854.50
2009/04/23 15:47:35.8    -152     27     96    155    182 280.1  35.0  34296  291.89 0854.50
2009/04/23 15:47:35.9    -145     29     71    148    164 281.4  27.4  34338  292.59 0854.50
2009/04/23 15:47:36.0     -15      4     86     16     87 285.1  90.0  34344  292.71 0854.50
2009/04/23 15:47:36.1      77     63     58    100    115  50.5  33.5  34372  293.17 0854.50
2009/04/23 15:47:36.2     116    163     91    201    220  35.4  26.2  34366  293.07 0854.50
2009/04/23 15:47:36.3     154    205    117    257    282  36.9  26.2  34374  293.22 0854.50
2009/04/23 15:47:36.4     203    208    163    291    333  44.3  31.6  34396  293.59 0854.50
2009/04/23 15:47:36.5     128    272    130    301    327  25.3  24.8  34400  293.64 0854.50
2009/04/23 15:47:36.6     244    244    220    346    410  45.0  35.5  34382  293.35 0854.50
2009/04/23 15:47:36.7     292    163    263    335    425  60.7  42.2  34336  292.56 0854.50
2009/04/23 15:47:36.8     263    166    233    312    389  57.8  40.2  34324  292.37 0854.50
2009/04/23 15:47:36.9     170    108    190    202    277  57.5  48.0  34308  292.07 0854.50
2009/04/23 15:47:37.0     250    146    231    290    370  59.6  42.6  34316  292.22 0854.50
2009/04/23 15:47:37.2     179    130    226    222    316  54.0  50.6  34290  291.78 0854.50
2009/04/23 15:47:37.2     143    -52    201    153    252 110.0  59.0  34294  291.86 0854.51
2009/04/23 15:47:37.4     129   -100    149    164    221 127.8  47.1  34286  291.71 0854.51
2009/04/23 15:47:37.5      80    -68    185    106    213 130.4  67.5  34268  291.40 0854.51
2009/04/23 15:47:37.6       7     36    141     37    145  11.6  84.9  34254  291.18 0854.51
2009/04/23 15:47:37.7      17    -64    180     67    192 164.9  78.9  34202  290.28 0854.51
2009/04/23 15:47:37.8     -32      0    206     33    208 270.8  90.0  34234  290.82 0854.51
2009/04/23 15:47:37.9     -34      0    218     35    220 269.1  90.0  34254  291.16 0854.51
2009/04/23 15:47:38.0     197   -258    207    325    385 142.6  35.6  34198  290.20 0854.51
2009/04/23 15:47:38.1     189   -282    140    340    367 146.1  23.6  34182  289.93 0854.51
2009/04/23 15:47:38.2     233   -251     66    343    350 137.2  11.0  34184  289.98 0854.51
2009/04/23 15:47:38.3     156   -327    200    363    414 154.5  31.3  34184  289.99 0854.51
2009/04/23 15:47:38.4     131   -243    274    277    389 151.7  49.9  34188  290.06 0854.51
2009/04/23 15:47:38.5     133   -423    317    444    545 162.5  39.1  34208  290.39 0854.51
2009/04/23 15:47:38.6     103   -366    311    381    491 164.2  43.5  34216  290.53 0854.51
2009/04/23 15:47:38.7     204   -431    251    478    539 154.6  29.9  34182  289.94 0854.51
2009/04/23 15:47:38.8     257   -407    267    482    551 147.8  31.4  34176  289.85 0854.51
2009/04/23 15:47:38.9     125   -460    237    477    532 164.7  28.4  34182  289.95 0854.51
2009/04/23 15:47:39.0      70   -360    286    367    465 168.9  41.7  34184  289.99 0854.51
2009/04/23 15:47:39.1      74   -361    270    369    457 168.3  39.7  34198  290.22 0854.51
2009/04/23 15:47:39.2     122   -426    284    444    527 164.0  35.6  34198  290.20 0854.51
2009/04/23 15:47:39.3      28   -399    226    400    459 176.0  32.0  34182  289.94 0854.49
2009/04/23 15:47:39.4      21   -469    164    470    498 177.4  19.3  34188  290.05 0854.49
2009/04/23 15:47:39.5      21   -381     12    382    383 176.8   1.9  34198  290.20 0854.49
2009/04/23 15:47:39.6     -25   -400     63    401    407 183.6   9.0  34200  290.26 0854.49
2009/04/23 15:47:39.7     -14   -335     89    336    348 182.5  14.9  34220  290.59 0854.49
2009/04/23 15:47:39.8     209   -337    -11    397    398 148.1  -1.6  34202  290.30 0854.49
2009/04/23 15:47:39.9     145   -385    -13    412    413 159.3  -1.9  34204  290.33 0854.49
2009/04/23 15:47:40.0     146   -286    109    322    341 152.9  18.8  34212  290.47 0854.49
2009/04/23 15:47:40.1     223   -324    136    394    417 145.4  19.1  34206  290.36 0854.49
2009/04/23 15:47:40.2     186   -358     24    404    405 152.5   3.5  34202  290.28 0854.49
2009/04/23 15:47:40.3      12   -292     -6    293    294 177.5  -1.3  34206  290.36 0854.49
2009/04/23 15:47:40.4    -144   -149    -73    208    220 224.1 -24.0  34202  290.28 0854.49
2009/04/23 15:47:40.5     -69    -83    -50    109    119 219.6 -30.6  34206  290.35 0854.49
2009/04/23 15:47:40.6     -28   -113    -61    117    131 194.3 -33.7  34206  290.35 0854.49
2009/04/23 15:47:40.7      32   -156    -53    160    168 168.4 -23.6  34200  290.25 0854.49
2009/04/23 15:47:40.8      19   -147    -69    149    164 172.4 -31.0  34196  290.18 0854.49
2009/04/23 15:47:40.9      16   -148    -72    149    165 173.8 -32.2  34192  290.11 0854.49
2009/04/23 15:47:41.0      79   -240   -102    253    272 161.7 -27.4  34172  289.76 0854.49
2009/04/23 15:47:41.1      84   -210    -50    227    233 158.1 -12.6  34164  289.65 0854.49
2009/04/23 15:47:41.2      74   -169    -43    185    190 156.4 -13.2  34166  289.69 0854.49
2009/04/23 15:47:41.3     -24   -199    -38    201    205 187.1 -10.9  34168  289.70 0854.47
2009/04/23 15:47:41.4     -50   -138   -107    147    181 200.0 -44.1  34184  289.97 0854.47
2009/04/23 15:47:41.5     -49   -147    -75    156    173 198.7 -31.7  34176  289.85 0854.47
2009/04/23 15:47:41.6       0    -99   -124    100    159 180.0 -61.5  34178  289.87 0854.47
2009/04/23 15:47:41.7      -9   -133   -142    134    195 184.0 -56.4  34180  289.91 0854.47
2009/04/23 15:47:41.8      63    -58    -61     86    105 132.7 -43.5  34182  289.94 0854.47
2009/04/23 15:47:41.9     165    -90    -68    189    200 118.6 -24.8  34174  289.80 0854.47
2009/04/23 15:47:42.0     209   -133    -98    248    266 122.5 -27.4  34170  289.73 0854.47
2009/04/23 15:47:42.1     275    -55   -166    281    326 101.4 -37.7  34172  289.76 0854.47
2009/04/23 15:47:42.2     314    -87    -12    326    327 105.5  -2.2  34164  289.63 0854.47
2009/04/23 15:47:42.3     272   -129     47    302    306 115.5   9.0  34168  289.71 0854.47
2009/04/23 15:47:42.4     291    -96     62    307    314 108.4  11.4  34162  289.61 0854.47
2009/04/23 15:47:42.5     321   -185     52    371    375 119.9   8.1  34164  289.65 0854.47
2009/04/23 15:47:42.6     241   -174    132    298    325 125.9  25.6  34178  289.86 0854.47
2009/04/23 15:47:42.7     136   -133    159    191    248 134.4  43.8  34178  289.89 0854.47
2009/04/23 15:47:42.8     -12    -36    106     38    112 198.5  80.2  34196  290.19 0854.47
2009/04/23 15:47:42.9     -91     49     77    104    129 298.4  40.1  34188  290.04 0854.47
2009/04/23 15:47:43.0     -84     89     24    123    126 316.7  11.0  34186  290.02 0854.47
2009/04/23 15:47:43.1     -76     25    -48     81     94 288.4 -38.4  34192  290.13 0854.47
2009/04/23 15:47:43.2     -16    -25    -57     30     64 212.5 -74.2  34188  290.06 0854.47
2009/04/23 15:47:43.3      68   -119    -84    138    161 150.1 -38.6  34186  290.02 0854.47
2009/04/23 15:47:43.4      87   -215    -22    233    235 157.9  -5.6  34176  289.85 0854.47
2009/04/23 15:47:43.5     124   -112   -139    168    218 132.0 -48.1  34160  289.57 0854.47
2009/04/23 15:47:43.6     193    -51    -25    200    202 104.8  -7.3  34170  289.75 0854.47
2009/04/23 15:47:43.7     211      3     10    212    213  89.2   2.9  34178  289.89 0854.47
2009/04/23 15:47:43.8     205     21     56    207    215  83.9  15.3  34176  289.85 0854.47
2009/04/23 15:47:43.9     214     -3    124    215    248  90.8  32.4  34184  289.98 0854.47
2009/04/23 15:47:44.0     233     21    179    234    294  84.8  41.4  34212  290.46 0854.47
2009/04/23 15:47:44.1     232     -7    127    233    265  91.9  31.0  34214  290.48 0854.47
2009/04/23 15:47:44.2     164      1    134    165    212  89.4  43.7  34246  291.04 0854.47
2009/04/23 15:47:44.3     164     10    206    165    263  86.3  57.1  34356  292.89 0854.47
2009/04/23 15:47:44.4      68     36    147     78    166  62.0  69.8  34324  292.35 0854.47
2009/04/23 15:47:44.5      41     -9    140     42    146 102.4  82.8  34352  292.83 0854.47
2009/04/23 15:47:44.6     -11     11    104     16    105 315.0  90.0  34358  292.93 0854.47
2009/04/23 15:47:44.7     -24    -42     78     49     92 210.7  64.7  34312  292.17 0854.47
2009/04/23 15:47:44.8     -44   -123    118    131    176 200.0  46.9  34264  291.33 0854.47
2009/04/23 15:47:44.9    -125   -150      9    196    197 219.9   2.9  34248  291.08 0854.47
2009/04/23 15:47:45.0    -130   -116     11    175    176 228.2   3.6  34238  290.89 0854.47
2009/04/23 15:47:45.1    -108    -78     41    134    141 234.1  17.3  34234  290.84 0854.47
2009/04/23 15:47:45.2    -166    -43    -31    172    175 255.2 -10.5  34226  290.69 0854.47
2009/04/23 15:47:45.3    -154    -67    -13    169    170 246.5  -4.6  34216  290.52 0854.47
2009/04/23 15:47:45.4    -107    -71     31    129    133 236.3  13.7  34212  290.47 0854.47
2009/04/23 15:47:45.5     -83    -91    151    124    195 222.3  56.4  34250  291.09 0854.47
2009/04/23 15:47:45.6     -81    -51    105     97    142 237.6  52.2  34268  291.40 0854.47
2009/04/23 15:47:45.7    -105   -106     30    150    154 224.9  11.4  34228  290.74 0854.47
2009/04/23 15:47:45.8     -37   -111    121    118    169 198.7  50.7  34230  290.77 0854.47
2009/04/23 15:47:45.9     -31   -158    110    162    195 191.1  37.6  34220  290.60 0854.47
2009/04/23 15:47:46.0     -38   -174    106    179    208 192.3  33.5  34218  290.55 0854.47
2009/04/23 15:47:46.1      20   -142    155    144    211 172.0  52.2  34238  290.91 0854.47
2009/04/23 15:47:46.2      48   -213    164    219    273 167.1  40.7  34230  290.76 0854.47
2009/04/23 15:47:46.3     113   -237    184    263    320 154.4  38.4  34210  290.42 0854.47
2009/04/23 15:47:46.4     152   -151     60    215    224 134.9  15.8  34202  290.28 0854.47
2009/04/23 15:47:46.5       5   -190    158    191    247 178.4  43.7  34242  290.98 0854.47
2009/04/23 15:47:46.6      50   -346     91    350    362 171.8  14.6  34222  290.62 0854.47
2009/04/23 15:47:46.7     100   -502    157    513    537 168.7  17.0  34188  290.06 0854.47
2009/04/23 15:47:46.8      65   -568    134    572    588 173.4  13.2  34174  289.81 0854.47
2009/04/23 15:47:46.9     -65   -658    132    662    676 185.7  11.3  34176  289.85 0854.47
2009/04/23 15:47:47.0     -70   -694    196    698    726 185.8  15.7  34178  289.88 0854.47
2009/04/23 15:47:47.1    -147   -663     28    680    681 192.5   2.4  34172  289.78 0854.47
2009/04/23 15:47:47.2    -221   -783    326    814    876 195.8  23.0  34166  289.68 0854.47
2009/04/23 15:47:47.3    -374   -672    480    770    907 209.1  34.9  34156  289.49 0854.49
2009/04/23 15:47:47.4    -146   -389    373    416    558 200.7  46.4  34186  290.00 0854.49
2009/04/23 15:47:47.5    -140   -593    263    610    664 193.3  24.9  34174  289.81 0854.49
2009/04/23 15:47:47.6     -40   -520    276    522    590 184.5  30.2  34174  289.81 0854.49
2009/04/23 15:47:47.7     221   -470    340    520    621 154.8  36.3  34164  289.63 0854.49
2009/04/23 15:47:47.8     214   -153    350    264    438 125.5  59.4  34178  289.86 0854.49
2009/04/23 15:47:47.9     130   -695    147    707    723 169.4  11.8  34170  289.74 0854.49
2009/04/23 15:47:48.0     353   -509    -79    620    626 145.3  -7.3  34172  289.76 0854.49
2009/04/23 15:47:48.1     430   -351      3    556    557 129.2   0.3  34164  289.65 0854.49
2009/04/23 15:47:48.2     320   -106    297    338    449 108.4  45.8  34172  289.78 0854.49
2009/04/23 15:47:48.3     180   -304    101    354    369 149.4  15.9  34176  289.84 0854.49
2009/04/23 15:47:48.4      87   -413    116    423    439 168.1  15.4  34182  289.94 0854.49
2009/04/23 15:47:48.5      39   -504    247    506    563 175.5  27.9  34174  289.82 0854.49
2009/04/23 15:47:48.6     -57   -447    247    451    514 187.4  31.3  34164  289.64 0854.49
2009/04/23 15:47:48.7     -81   -690    103    695    703 186.7   8.5  34152  289.44 0854.49
2009/04/23 15:47:48.8    -135   -636     33    651    652 192.1   2.9  34150  289.40 0854.49
2009/04/23 15:47:48.9    -148   -795    141    809    822 190.6   9.9  34152  289.45 0854.49
2009/04/23 15:47:49.0     -54   -668    136    671    685 184.7  11.5  34148  289.38 0854.49
2009/04/23 15:47:49.1      10   -530    114    531    544 178.9  12.1  34168  289.70 0854.49
2009/04/23 15:47:49.2    -143   -353    196    381    428 202.1  29.3  34172  289.78 0854.48
2009/04/23 15:47:49.3    -335   -260    -23    425    426 232.2  -3.2  34150  289.41 0854.48
2009/04/23 15:47:49.4    -140   -421    191    444    483 198.5  24.8  34158  289.54 0854.48
2009/04/23 15:47:49.5     -35   -363     57    365    370 185.6   8.9  34158  289.55 0854.48
2009/04/23 15:47:49.6     -54   -265    -82    271    284 191.6 -16.8  34168  289.71 0854.48
2009/04/23 15:47:49.7      44   -433    -51    436    439 174.1  -6.7  34162  289.61 0854.48
2009/04/23 15:47:49.8    -281   -314    -71    422    429 221.9  -9.6  34160  289.56 0854.48
2009/04/23 15:47:49.9     172   -456    147    488    510 159.3  16.8  34146  289.34 0854.48
2009/04/23 15:47:50.0     -86   -176    214    196    290 206.1  52.7  34180  289.90 0854.48
2009/04/23 15:47:50.1    -109    -36    -26    116    119 251.4 -12.9  34182  289.94 0854.48
2009/04/23 15:47:50.2    -169   -131      0    215    216 232.2   0.2  34178  289.87 0854.48
2009/04/23 15:47:50.3     121   -189    158    225    274 147.4  38.6  34182  289.95 0854.48
2009/04/23 15:47:50.4     184   -578    256    607    658 162.3  24.3  34174  289.81 0854.48
2009/04/23 15:47:50.5     235   -361     78    431    439 146.9  10.3  34186  290.02 0854.48
2009/04/23 15:47:50.6     176   -313   -100    360    374 150.7 -15.5  34184  289.99 0854.48
2009/04/23 15:47:50.7     105   -142    -47    177    184 143.5 -15.0  34180  289.91 0854.48
2009/04/23 15:47:50.8     101    -54     78    115    138 118.4  37.6  34182  289.94 0854.48
2009/04/23 15:47:50.9      61    -26     83     67    106 113.5  56.4  34182  289.96 0854.48
2009/04/23 15:47:51.0     -20     75    112     78    136 344.9  61.5  34214  290.48 0854.48
2009/04/23 15:47:51.1    -103     16      5    105    106 279.2   2.8  34206  290.36 0854.48
2009/04/23 15:47:51.2       9    138    -53    139    148   4.0 -26.4  34194  290.14 0854.44
2009/04/23 15:47:51.3     120    201    -38    235    239  30.8  -9.4  34186  290.02 0854.44
2009/04/23 15:47:51.4      41    345     27    348    350   6.8   4.6  34192  290.11 0854.44
2009/04/23 15:47:51.5     255    264    151    368    397  44.0  23.6  34168  289.72 0854.44
2009/04/23 15:47:51.6     164    289    244    333    412  29.5  39.8  34172  289.76 0854.44
2009/04/23 15:47:51.7      38     30    157     49    164  52.2  81.8  34182  289.96 0854.44
2009/04/23 15:47:51.8     104      7    251    105    272  85.7  76.1  34172  289.77 0854.44
2009/04/23 15:47:51.9    -147     40    156    153    218 285.5  50.4  34172  289.77 0854.44
2009/04/23 15:47:52.0    -236     18    107    237    260 274.4  26.2  34170  289.75 0854.44
2009/04/23 15:47:52.1    -156   -237    242    285    373 213.4  44.5  34174  289.82 0854.44
2009/04/23 15:47:52.2     137   -298    400    329    517 155.3  56.4  34154  289.48 0854.44
2009/04/23 15:47:52.3     -74   -505    297    511    591 188.4  32.9  34162  289.60 0854.44
2009/04/23 15:47:52.4       6   -178    303    179    351 177.8  66.8  34174  289.80 0854.44
2009/04/23 15:47:52.5     137    -36     55    142    152 105.1  22.0  34170  289.74 0854.44
2009/04/23 15:47:52.6     177    -45    185    183    260 104.4  50.1  34172  289.76 0854.44
2009/04/23 15:47:52.7      93    -87    212    128    247 133.1  66.0  34174  289.80 0854.44
2009/04/23 15:47:52.8     446   -381    435    587    730 130.5  40.2  34166  289.66 0854.44
2009/04/23 15:47:52.9     267   -632    468    687    831 157.1  37.4  34164  289.64 0854.44
2009/04/23 15:47:53.0     184   -627    108    654    664 163.6   9.4  34164  289.63 0854.44
2009/04/23 15:47:53.1    -221   -529     93    574    582 202.7   9.2  34172  289.78 0854.44
2009/04/23 15:47:53.2    -177   -464    197    497    534 200.9  22.9  34158  289.53 0854.42
2009/04/23 15:47:53.3     171   -375     93    413    424 155.5  12.8  34158  289.53 0854.42
2009/04/23 15:47:53.4     307    -77    384    317    497 104.2  56.4  34140  289.24 0854.42
2009/04/23 15:47:53.5     351    -55     -1    356    357  99.0  -0.2  34158  289.54 0854.42
2009/04/23 15:47:53.6     213   -374    168    431    462 150.3  22.5  34152  289.44 0854.42
2009/04/23 15:47:53.7     456   -110    161    470    497 103.6  18.9  34156  289.49 0854.42
2009/04/23 15:47:53.8     242   -243    204    344    399 135.1  33.5  34148  289.38 0854.42
2009/04/23 15:47:53.9     284   -224     52    363    367 128.3   8.2  34138  289.21 0854.42
2009/04/23 15:47:54.0     400   -194    152    445    471 115.9  18.9  34152  289.44 0854.42
2009/04/23 15:47:54.1     194   -260    176    325    369 143.3  30.9  34152  289.45 0854.42
2009/04/23 15:47:54.2     229   -165    220    283    358 125.7  41.7  34144  289.30 0854.42
2009/04/23 15:47:54.3      72   -218    -95    230    248 161.7 -28.0  34130  289.07 0854.42
2009/04/23 15:47:54.4    -120   -319   -167    342    380 200.7 -32.2  34144  289.30 0854.42
2009/04/23 15:47:54.5    -102    -43   -211    111    238 246.9 -74.4  34144  289.30 0854.42
2009/04/23 15:47:54.6      78    -68    -68    104    124 131.3 -40.4  34148  289.38 0854.42
2009/04/23 15:47:54.7     114      0     79    115    139  90.0  37.6  34136  289.18 0854.42
2009/04/23 15:47:54.8     321     81    258    332    420  75.7  41.9  34138  289.20 0854.42
2009/04/23 15:47:54.9     274    397    229    483    534  34.6  27.3  34140  289.23 0854.42
2009/04/23 15:47:55.0     249    108    421    272    501  66.5  64.3  34132  289.11 0854.42
2009/04/23 15:47:55.1     646  -1000    633   1191   1348 147.1  30.2  34116  288.83 0854.42
2009/04/23 15:47:55.2     367   -694    150    786    801 152.1  10.8  34120  288.88 0854.43
2009/04/23 15:47:55.3     726   -622    166    957    972 130.6   9.9  34098  288.52 0854.43
2009/04/23 15:47:55.4     660   -465    517    808    959 125.2  35.6  34090  288.40 0854.43
2009/04/23 15:47:55.5      36    -93    335    100    349 158.6  83.0  34086  288.31 0854.43
2009/04/23 15:47:55.6     431   -352    234    557    604 129.2  24.1  34112  288.76 0854.43
2009/04/23 15:47:55.7     349   -546    272    649    703 147.4  24.2  34094  288.44 0854.43
2009/04/23 15:47:55.8     182   -355    166    400    433 152.8  23.9  34102  288.60 0854.43
2009/04/23 15:47:55.9     359   -233    494    429    654 123.0  54.8  34102  288.59 0854.43
2009/04/23 15:47:56.0      76    -59    293     97    308 127.8  80.7  34116  288.81 0854.43
2009/04/23 15:47:56.1     294     78    416    305    515  75.0  60.4  34120  288.89 0854.43
2009/04/23 15:47:56.2     336     47    274    340    436  81.9  43.0  34108  288.70 0854.38
2009/04/23 15:47:56.3     434   -116    -64    450    455 105.0  -8.1  34112  288.77 0854.38
2009/04/23 15:47:56.4     171   -213    205    274    342 141.2  40.6  34096  288.49 0854.38
2009/04/23 15:47:56.5     259   -277    327    380    501 136.9  45.0  34100  288.54 0854.38
2009/04/23 15:47:56.6     -53   -487    342    490    597 186.3  38.5  34108  288.69 0854.38
2009/04/23 15:47:56.7    -110   -368     19    385    386 196.6   2.9  34102  288.60 0854.38
2009/04/23 15:47:56.8      89   -352     42    364    367 165.7   6.7  34090  288.40 0854.38
2009/04/23 15:47:56.9     156   -282    306    323    444 151.1  48.4  34084  288.28 0854.38
2009/04/23 15:47:57.0      73   -208    445    221    496 160.6  71.8  34100  288.56 0854.38
2009/04/23 15:47:57.1      94   -280    349    296    457 161.3  55.5  34122  288.92 0854.38
2009/04/23 15:47:57.2    -134   -545    337    562    655 193.8  33.8  34098  288.52 0854.38
2009/04/23 15:47:57.3      44   -358    124    361    382 172.9  19.1  34100  288.57 0854.38
2009/04/23 15:47:57.4      70   -137     94    154    180 152.9  34.4  34102  288.60 0854.38
2009/04/23 15:47:57.5     285    174    386    334    510  58.6  54.8  34114  288.78 0854.38
2009/04/23 15:47:57.6       8     90    342     91    353   5.3  85.1  34122  288.92 0854.38
2009/04/23 15:47:57.7     -11   -113    362    114    379 185.8  81.9  34138  289.19 0854.38
2009/04/23 15:47:57.8     137    290    341    321    468  25.3  52.0  34126  289.00 0854.38
2009/04/23 15:47:57.9     406    190    295    449    537  65.0  36.4  34102  288.59 0854.38
2009/04/23 15:47:58.0     344    344    283    487    563  45.0  32.9  34148  289.36 0854.38
2009/04/23 15:47:58.1     109    104    273    151    311  46.4  68.6  34166  289.66 0854.38
2009/04/23 15:47:58.2      73     30    287     80    297  67.4  84.6  34178  289.86 0854.36
2009/04/23 15:47:58.3      33     40    196     52    202  39.6  84.9  34170  289.74 0854.36
2009/04/23 15:47:58.4     -89   -219    220    237    323 202.1  47.7  34106  288.65 0854.36
2009/04/23 15:47:58.5     -58    -48    209     76    222 230.4  79.2  34150  289.40 0854.36
2009/04/23 15:47:58.6      17    161    126    162    205   6.2  42.0  34116  288.82 0854.36
2009/04/23 15:47:58.7    -344   -396     68    525    530 221.0   7.4  34104  288.63 0854.36
2009/04/23 15:47:58.8    -139   -208    321    251    407 213.8  58.0  34114  288.79 0854.36
2009/04/23 15:47:58.9     -99   -362    597    376    705 195.3  64.9  34114  288.79 0854.36
2009/04/23 15:47:59.0     -28    301    310    303    433 354.7  50.8  34106  288.66 0854.36
2009/04/23 15:47:59.1     -52    175    277    183    331 343.3  63.5  34126  289.00 0854.36
2009/04/23 15:47:59.2     134    184    218    229    316  36.1  48.5  34104  288.61 0854.36
2009/04/23 15:47:59.3     -58   -145    254    157    298 201.8  65.4  34104  288.63 0854.36
2009/04/23 15:47:59.4      44   -193    142    198    243 167.1  39.1  34110  288.72 0854.36
2009/04/23 15:47:59.5      33   -122     82    127    151 164.9  35.6  34112  288.75 0854.36
2009/04/23 15:47:59.6     213    176     85    277    290  50.5  17.1  34126  288.98 0854.36
2009/04/23 15:47:59.7      93    341    132    354    377  15.3  21.4  34156  289.50 0854.36
2009/04/23 15:47:59.8     117    147    244    188    308  38.5  58.5  34184  289.97 0854.36
2009/04/23 15:47:59.9      -4    107    309    108    327 357.8  80.4  34224  290.66 0854.36
2009/04/23 15:48:00.0     155     36    338    160    373  76.7  72.9  34186  290.02 0854.36
2009/04/23 15:48:00.1    -199   -172    241    264    357 229.1  47.1  34118  288.86 0854.36
2009/04/23 15:48:00.2     212    -61     62    221    230 106.2  15.8  34124  288.96 0854.35
2009/04/23 15:48:00.3      90   -271    101    286    304 161.5  19.6  34120  288.88 0854.35
2009/04/23 15:48:00.4       9   -278    218    279    354 178.0  42.0  34112  288.77 0854.35
2009/04/23 15:48:00.5      57    -21    153     61    164 110.8  77.6  34126  288.99 0854.35
2009/04/23 15:48:00.6     -55   -138    269    149    307 201.8  68.8  34116  288.81 0854.35
2009/04/23 15:48:00.7    -417   -156    -58    446    450 249.4  -7.5  34102  288.60 0854.35
2009/04/23 15:48:00.8    -311    -86    -30    323    325 254.5  -5.3  34112  288.75 0854.35
2009/04/23 15:48:00.9    -377    -22   -114    378    395 266.6 -16.8  34116  288.82 0854.35
2009/04/23 15:48:01.0    -227    192   -152    298    334 310.2 -33.6  34114  288.80 0854.35
2009/04/23 15:48:01.1     -34    453    -75    455    462 355.7  -9.4  34118  288.87 0854.35
2009/04/23 15:48:01.2     118    297     38    320    323  21.8   6.9  34124  288.97 0854.35
2009/04/23 15:48:01.3      -6    -70    189     71    201 185.3  78.6  34130  289.06 0854.35
2009/04/23 15:48:01.4      45    -55     71     72    101 140.4  50.0  34140  289.23 0854.35
2009/04/23 15:48:01.5     110   -170    -53    203    210 147.0 -14.7  34134  289.13 0854.35
2009/04/23 15:48:01.6     146   -267    -21    305    306 151.3  -4.1  34114  288.80 0854.35
2009/04/23 15:48:01.7      46   -521   -166    524    550 174.9 -17.6  34110  288.74 0854.35
2009/04/23 15:48:01.8     191   -525   -123    560    574 160.0 -12.4  34088  288.36 0854.35
2009/04/23 15:48:01.9     -10   -367    228    368    432 181.7  34.8  34130  289.05 0854.35
2009/04/23 15:48:02.0      47   -218    145    224    266 167.7  35.6  34138  289.20 0854.35
2009/04/23 15:48:02.1       7   -237     91    238    254 178.2  22.0  34136  289.15 0854.35
2009/04/23 15:48:02.2    -104   -200     87    226    242 207.4  22.0  34178  289.86 0854.37
2009/04/23 15:48:02.3    -338    -97    122    352    373 253.9  19.2  34166  289.69 0854.37
2009/04/23 15:48:02.4    -116   -211    230    242    333 208.9  48.5  34192  290.12 0854.37
2009/04/23 15:48:02.5    -127   -315    289    340    446 202.1  44.8  34152  289.43 0854.37
2009/04/23 15:48:02.6      31   -459    350    461    578 176.1  41.1  34110  288.74 0854.37
2009/04/23 15:48:02.7     102   -523    188    534    567 168.9  19.4  34106  288.67 0854.37
2009/04/23 15:48:02.8      49   -419     86    422    431 173.3  11.6  34116  288.82 0854.37
2009/04/23 15:48:02.9      24   -316     60    318    324 175.5  10.8  34118  288.87 0854.37
2009/04/23 15:48:03.0      96   -173     70    198    211 151.0  19.6  34122  288.94 0854.37
2009/04/23 15:48:03.1     140      6     67    141    156  87.4  27.2  34128  289.02 0854.37
2009/04/23 15:48:03.2      91     75    174    119    210  50.4  62.6  34202  290.30 0854.37
2009/04/23 15:48:03.3    -207    103     58    232    240 296.6  14.2  34174  289.80 0854.37
2009/04/23 15:48:03.5    -171     27    -98    174    199 279.0 -36.3  34144  289.31 0854.37
2009/04/23 15:48:03.5    -241     91   -118    258    283 290.8 -30.8  34120  288.88 0854.37
2009/04/23 15:48:03.6    -151    183    -93    238    255 320.4 -27.2  34152  289.42 0854.37
2009/04/23 15:48:03.8    -168    147     41    224    228 311.3  10.6  34146  289.35 0854.37
2009/04/23 15:48:03.9    -348    187     34    396    398 298.3   5.0  34182  289.96 0854.37
2009/04/23 15:48:04.0    -315    157    115    353    372 296.5  18.1  34162  289.62 0854.37
2009/04/23 15:48:04.1    -114   -343     37    362    365 198.5   6.0  34182  289.96 0854.37
2009/04/23 15:48:04.2    -298   -390    -39    492    494 217.4  -4.6  34156  289.50 0854.37
2009/04/23 15:48:04.3     -79   -517     21    523    524 188.7   2.4  34128  289.02 0854.35
2009/04/23 15:48:04.4    -135   -436     88    457    466 197.3  11.0  34122  288.92 0854.35
2009/04/23 15:48:04.5    -140   -584    130    601    616 193.5  12.3  34118  288.86 0854.35
2009/04/23 15:48:04.6     -95   -546    271    555    617 189.9  27.9  34120  288.88 0854.35
2009/04/23 15:48:04.7     -84   -415    403    424    584 191.5  48.5  34118  288.87 0854.35
2009/04/23 15:48:04.8      30   -221    232    224    322 172.2  51.2  34112  288.76 0854.35
2009/04/23 15:48:04.9     143   -137    240    199    311 133.8  56.3  34112  288.75 0854.35
2009/04/23 15:48:05.0     116   -419     75    435    442 164.5   9.9  34106  288.67 0854.35
2009/04/23 15:48:05.1     -31   -569    -37    570    572 183.1  -3.8  34106  288.66 0854.35
2009/04/23 15:48:05.2     -55   -298    -33    304    306 190.6  -6.2  34106  288.66 0854.35
2009/04/23 15:48:05.3       5    -80    -32     81     87 176.0 -26.4  34102  288.60 0854.35
2009/04/23 15:48:05.4     -16   -113    120    115    166 188.0  51.2  34118  288.86 0854.35
2009/04/23 15:48:05.5      32   -259    135    262    294 172.9  29.3  34114  288.80 0854.35
2009/04/23 15:48:05.6    -114   -223    206    251    324 207.2  43.7  34114  288.80 0854.35
2009/04/23 15:48:05.7    -127   -201    187    238    302 212.3  42.2  34124  288.95 0854.35
2009/04/23 15:48:05.8    -207   -326    180    387    426 212.5  27.0  34112  288.77 0854.35
2009/04/23 15:48:05.9    -292    -29    182    294    345 264.3  34.9  34118  288.86 0854.35
2009/04/23 15:48:06.0    -156    146    141    215    257 313.1  36.5  34130  289.05 0854.35
2009/04/23 15:48:06.1      70   -230     -4    241    242 163.1  -1.1  34128  289.03 0854.35
2009/04/23 15:48:06.2      24   -535    110    536    548 177.4  11.7  34108  288.69 0854.35
2009/04/23 15:48:06.3    -172   -688     88    710    716 194.1   7.1  34110  288.71 0854.32
2009/04/23 15:48:06.4    -134   -633    227    648    686 192.0  20.1  34118  288.85 0854.32
2009/04/23 15:48:06.5    -222   -636    179    674    698 199.3  14.9  34120  288.88 0854.32
2009/04/23 15:48:06.6     -88   -699    253    705    749 187.2  20.7  34108  288.70 0854.32
2009/04/23 15:48:06.7     334   -754    390    825    912 156.1  27.1  34108  288.69 0854.32
2009/04/23 15:48:06.8     137   -606    246    622    668 167.2  22.8  34104  288.62 0854.32
2009/04/23 15:48:06.9      36   -576    362    578    682 176.4  35.0  34118  288.86 0854.32
2009/04/23 15:48:07.0     -46   -499     82    502    509 185.4   9.3  34110  288.74 0854.32
2009/04/23 15:48:07.1     -32   -332     -6    334    335 185.6  -1.1  34112  288.76 0854.32
2009/04/23 15:48:07.2       8   -498    135    499    518 179.0  15.1  34114  288.79 0854.32
2009/04/23 15:48:07.3    -223   -852    -40    881    882 194.7  -2.6  34116  288.83 0854.32
2009/04/23 15:48:07.4    -279   -902    331    945   1001 197.2  20.1  34108  288.69 0854.32
2009/04/23 15:48:07.5    -312  -1068    325   1113   1160 196.3  16.3  34128  289.03 0854.32
2009/04/23 15:48:07.6    -194  -1100    435   1118   1199 190.0  22.4  34106  288.67 0854.32
2009/04/23 15:48:07.7    -427   -951    181   1043   1059 204.2   9.9  34084  288.29 0854.32
2009/04/23 15:48:07.8    -413  -1072    282   1149   1184 201.1  13.8  34106  288.67 0854.32
2009/04/23 15:48:07.9    -353   -838    338    910    970 202.8  21.4  34106  288.66 0854.32
2009/04/23 15:48:08.0    -725   -896    114   1153   1159 219.0   5.7  34086  288.33 0854.32
2009/04/23 15:48:08.1    -447  -1103    344   1191   1240 202.1  16.1  34112  288.77 0854.32
2009/04/23 15:48:08.2    -172   -932    399    948   1028 190.5  24.2  34110  288.73 0854.32
2009/04/23 15:48:08.3    -232   -747    374    783    867 197.3  27.3  34106  288.66 0854.29
2009/04/23 15:48:08.4    -212   -658    414    692    806 197.9  33.7  34110  288.71 0854.29
2009/04/23 15:48:08.5    -228   -705    567    741    933 197.9  41.3  34110  288.71 0854.29
2009/04/23 15:48:08.6    -360   -692    462    781    907 207.5  33.4  34106  288.66 0854.29
2009/04/23 15:48:08.7    -181   -752    428    774    884 193.6  31.4  34108  288.68 0854.29
2009/04/23 15:48:08.8    -144   -873    515    885   1023 189.4  32.9  34102  288.60 0854.29
2009/04/23 15:48:08.9    -381   -906    146    983    994 202.8   8.5  34106  288.65 0854.29
2009/04/23 15:48:09.0    -288   -794    166    845    862 200.0  11.1  34102  288.58 0854.29
2009/04/23 15:48:09.1    -145   -731    124    746    757 191.2   9.5  34114  288.79 0854.29
2009/04/23 15:48:09.2     -20   -457    -42    458    461 182.6  -5.3  34104  288.61 0854.29
2009/04/23 15:48:09.3      37   -424     82    426    434 174.9  11.0  34098  288.53 0854.29
2009/04/23 15:48:09.4      63   -539    113    543    555 173.3  11.8  34112  288.75 0854.29
2009/04/23 15:48:09.5    -164   -732     32    751    752 192.7   2.5  34102  288.58 0854.29
2009/04/23 15:48:09.6    -333   -957    338   1014   1070 199.2  18.5  34092  288.43 0854.29
2009/04/23 15:48:09.7    -214   -604    181    641    667 199.5  15.8  34112  288.77 0854.29
2009/04/23 15:48:09.8    -141   -351    272    379    466 201.9  39.3  34112  288.75 0854.29
2009/04/23 15:48:09.9     222   -229    280    319    424 135.9  45.8  34120  288.88 0854.29
2009/04/23 15:48:10.0      63   -444    181    449    484 171.9  23.1  34118  288.86 0854.29
2009/04/23 15:48:10.1      14   -848     34    849    850 179.0   2.3  34126  289.00 0854.29
2009/04/23 15:48:10.2    -190   -896    259    917    954 192.0  15.8  34140  289.22 0854.29
2009/04/23 15:48:10.3    -243   -776    216    814    843 197.4  14.9  34130  289.08 0854.28
2009/04/23 15:48:10.4    -351   -633    262    724    769 209.0  20.9  34150  289.41 0854.28
2009/04/23 15:48:10.5    -224   -287    300    365    472 218.0  43.6  34136  289.16 0854.28
2009/04/23 15:48:10.6     216     60    142    225    266  74.5  35.5  34148  289.37 0854.28
2009/04/23 15:48:10.7     217     -8    290    218    362  92.1  59.3  34148  289.37 0854.28
2009/04/23 15:48:10.8    -144   -370    359    398    535 201.3  46.8  34146  289.34 0854.28
2009/04/23 15:48:10.9     342   -256    111    428    443 126.8  14.6  34138  289.19 0854.28
2009/04/23 15:48:11.0     291    -87     20    304    305 106.8   3.9  34132  289.10 0854.28
2009/04/23 15:48:11.1     301     80    -49    312    316  75.0  -9.0  34130  289.07 0854.28
2009/04/23 15:48:11.2     193    212    -79    287    298  42.3 -15.4  34140  289.22 0854.28
2009/04/23 15:48:11.3     178    138    -16    226    227  52.3  -4.1  34148  289.36 0854.28
2009/04/23 15:48:11.4      49     60     74     78    107  39.6  48.5  34154  289.46 0854.28
2009/04/23 15:48:11.5      -6     79     -6     80     81 355.6  -4.6  34150  289.41 0854.28
2009/04/23 15:48:11.6      49    344     81    348    358   8.1  13.2  34152  289.42 0854.28
2009/04/23 15:48:11.7    -103    444    111    456    470 346.9  13.7  34150  289.39 0854.28
2009/04/23 15:48:11.8     -89    425    196    435    477 348.1  25.9  34136  289.16 0854.28
2009/04/23 15:48:11.9     -76    294    158    304    342 345.5  29.6  34136  289.16 0854.28
2009/04/23 15:48:12.0     199    199    320    282    426  45.0  54.2  34142  289.28 0854.28
2009/04/23 15:48:12.1     149     12    290    150    326  85.2  70.6  34138  289.19 0854.28
2009/04/23 15:48:12.2    -157   -260    254    304    396 211.2  44.2  34120  288.88 0854.28
2009/04/23 15:48:12.3     -39   -146    206    152    256 195.1  60.3  34128  289.02 0854.25
2009/04/23 15:48:12.4     -80   -165    290    184    343 205.9  64.7  34128  289.03 0854.25
2009/04/23 15:48:12.5     -15     -1    201     16    201 265.6  90.0  34140  289.24 0854.25
2009/04/23 15:48:12.6      -9     74    280     75    289 352.9  84.9  34178  289.88 0854.25
2009/04/23 15:48:12.7     -76    176    260    192    323 336.6  59.9  34156  289.51 0854.25
2009/04/23 15:48:12.8    -310    260    190    405    447 310.0  27.1  34144  289.31 0854.25
2009/04/23 15:48:12.9    -250   -343    257    425    496 216.1  34.1  34142  289.28 0854.25
2009/04/23 15:48:13.0    -275   -368     20    460    461 216.8   2.5  34114  288.80 0854.25
2009/04/23 15:48:13.1    -194   -203    -25    282    284 223.7  -5.2  34114  288.80 0854.25
2009/04/23 15:48:13.2     -80    118      7    143    144 325.8   2.8  34132  289.09 0854.25
2009/04/23 15:48:13.3      85     85     21    121    123  45.0  10.1  34138  289.21 0854.25
2009/04/23 15:48:13.4    -101     78    293    128    319 307.7  75.0  34174  289.80 0854.25
2009/04/23 15:48:13.5     103    -59    114    119    164 119.8  49.2  34162  289.62 0854.25
2009/04/23 15:48:13.6     124     75     41    146    152  58.9  15.8  34154  289.46 0854.25
2009/04/23 15:48:13.7     140     19     40    142    148  82.1  15.8  34172  289.79 0854.25
2009/04/23 15:48:13.8     168     32    -72    172    186  79.0 -28.5  34186  290.01 0854.25
2009/04/23 15:48:13.9     269    170    -24    319    320  57.6  -4.4  34192  290.12 0854.25
2009/04/23 15:48:14.0     263    104    -58    284    291  68.3 -11.6  34170  289.73 0854.25
2009/04/23 15:48:14.1      34    243     91    246    262   8.0  21.0  34168  289.71 0854.25
2009/04/23 15:48:14.2     -61    171    105    182    210 340.2  32.7  34182  289.94 0854.25
2009/04/23 15:48:14.3     -63    176    190    188    267 340.2  50.1  34246  291.04 0854.25
2009/04/23 15:48:14.4     -92    110    180    144    230 319.9  56.9  34248  291.08 0854.25
2009/04/23 15:48:14.5     -30    209    131    212    249 351.8  34.8  34240  290.92 0854.25
2009/04/23 15:48:14.6    -258     50    165    263    310 281.0  35.5  34166  289.68 0854.25
2009/04/23 15:48:14.7    -255      0    141    256    292 270.0  31.4  34170  289.75 0854.25
2009/04/23 15:48:14.8       6    -18    156     19    157 161.5  90.0  34228  290.72 0854.25
2009/04/23 15:48:14.9     121     44    173    129    215  70.0  59.8  34230  290.75 0854.25
2009/04/23 15:48:15.0     127    187    133    227    263  34.3  33.4  34242  290.95 0854.25
2009/04/23 15:48:15.1     142    272    152    308    343  27.6  28.1  34236  290.86 0854.25
2009/04/23 15:48:15.2     -13    158    159    159    224 355.1  50.1  34254  291.16 0854.25
2009/04/23 15:48:15.3       0   -114    159    115    196 180.5  60.5  34214  290.50 0854.25
2009/04/23 15:48:15.4    -248   -281     88    375    386 221.4  13.2  34256  291.20 0854.25
2009/04/23 15:48:15.5     -14   -455    158    456    483 181.8  19.2  34242  290.95 0854.25
2009/04/23 15:48:15.6     -87   -557    379    564    679 188.9  37.2  34242  290.98 0854.25
2009/04/23 15:48:15.7     -48   -469    473    472    668 185.9  50.1  34242  290.97 0854.25
2009/04/23 15:48:15.8     -48   -582    502    585    770 184.8  44.9  34222  290.61 0854.25
2009/04/23 15:48:15.9    -179   -716    592    738    946 194.1  42.9  34142  289.28 0854.25
2009/04/23 15:48:16.0    -347   -867    618    935   1120 201.8  36.6  34208  290.38 0854.25
2009/04/23 15:48:16.1    -583   -762    333    960   1016 217.4  20.0  34176  289.83 0854.25
2009/04/23 15:48:16.2    -585   -589    299    831    883 224.8  20.7  34182  289.93 0854.26
2009/04/23 15:48:16.3    -586   -515    288    781    832 228.7  21.1  34178  289.89 0854.26
2009/04/23 15:48:16.4    -668   -576   -186    883    903 229.2 -11.9  34166  289.67 0854.26
2009/04/23 15:48:16.5    -753   -697   -111   1027   1034 227.2  -6.2  34192  290.10 0854.26
2009/04/23 15:48:16.6    -894   -612   -103   1084   1090 235.6  -5.5  34192  290.12 0854.26
2009/04/23 15:48:16.7    -728   -584   -220    934    960 231.3 -13.3  34196  290.18 0854.26
2009/04/23 15:48:16.8    -210   -555     77    594    599 200.8   7.5  34176  289.83 0854.26
2009/04/23 15:48:16.9    -200   -489    134    529    546 202.3  14.3  34164  289.65 0854.26
2009/04/23 15:48:17.0    -373   -568     65    680    684 213.3   5.5  34132  289.10 0854.26
2009/04/23 15:48:17.1    -181   -521    140    552    570 199.2  14.3  34144  289.31 0854.26
2009/04/23 15:48:17.2    -103   -952    106    958    964 186.2   6.4  34162  289.60 0854.25
2009/04/23 15:48:17.3    -102  -1012     -4   1018   1019 185.8  -0.3  34156  289.52 0854.25
2009/04/23 15:48:17.4     -16   -931     22    932    933 181.0   1.4  34160  289.56 0854.25
2009/04/23 15:48:17.5    -215   -748    157    779    795 196.1  11.4  34172  289.76 0854.25
2009/04/23 15:48:17.6     -33   -773    222    774    806 182.5  16.0  34136  289.17 0854.25
2009/04/23 15:48:17.7     -49   -704    242    706    747 184.0  18.9  34136  289.18 0854.25
2009/04/23 15:48:17.8     -89   -445    288    454    537 191.4  35.5  34130  289.06 0854.25
2009/04/23 15:48:17.9     -98   -489    344    499    606 191.3  37.8  34140  289.22 0854.25
2009/04/23 15:48:18.0     -71   -418    371    425    564 189.7  45.7  34126  288.99 0854.25
2009/04/23 15:48:18.1      -6   -259    282    260    383 181.4  52.5  34150  289.40 0854.25
2009/04/23 15:48:18.2      -8   -401    280    402    489 181.2  38.5  34146  289.33 0854.25
2009/04/23 15:48:18.3      16   -375    230    376    440 177.5  34.4  34134  289.12 0854.25
2009/04/23 15:48:18.4      -9   -642    147    643    660 180.8  12.9  34130  289.06 0854.25
2009/04/23 15:48:18.5     -16   -509    293    510    588 181.9  32.4  34146  289.33 0854.25
2009/04/23 15:48:18.6      -7   -373    374    374    528 181.2  50.1  34156  289.50 0854.25
2009/04/23 15:48:18.7       6   -371    263    372    455 179.0  38.7  34148  289.36 0854.25
2009/04/23 15:48:18.8    -124   -390    218    410    464 197.7  30.3  34154  289.48 0854.25
2009/04/23 15:48:18.9    -147   -367    233    396    459 201.9  33.4  34156  289.49 0854.25
2009/04/23 15:48:19.0     -13   -243    272    244    365 183.1  53.6  34162  289.59 0854.25
2009/04/23 15:48:19.1     -45     32    215     56    222 306.0  85.2  34156  289.52 0854.25
2009/04/23 15:48:19.2     -75      2    214     76    227 271.7  79.7  34158  289.53 0854.26
2009/04/23 15:48:19.3     -79    -81    280    114    302 224.5  77.0  34164  289.63 0854.26
2009/04/23 15:48:19.4    -194      2    103    195    220 270.8  30.1  34154  289.48 0854.26
2009/04/23 15:48:19.5     -88   -340    -60    352    358 194.6  -9.8  34138  289.21 0854.26
2009/04/23 15:48:19.6     -75   -418   -127    425    444 190.2 -16.6  34132  289.09 0854.26
2009/04/23 15:48:19.7    -147   -386     12    414    415 200.9   1.7  34140  289.24 0854.26
2009/04/23 15:48:19.8    -315   -349    -54    471    475 222.1  -6.6  34146  289.34 0854.26
2009/04/23 15:48:19.9    -286   -261     90    388    399 227.7  13.1  34132  289.10 0854.26
2009/04/23 15:48:20.0    -480   -198   -158    520    544 247.6 -17.0  34152  289.45 0854.26
2009/04/23 15:48:20.1    -540   -180   -189    570    600 251.6 -23.7  34158  289.54 0854.26
2009/04/23 15:48:20.2    -283   -280   -321    399    512 225.3 -47.4  34166  289.66 0854.26
2009/04/23 15:48:20.3     -90   -365   -199    376    425 193.9 -34.6  34158  289.53 0854.26
2009/04/23 15:48:20.4     -76   -609     88    614    621 187.2   8.2  34142  289.26 0854.26
2009/04/23 15:48:20.5    -212   -563     79    602    608 200.7   7.5  34146  289.34 0854.26
2009/04/23 15:48:20.6    -418   -588    160    722    740 215.4  12.5  34140  289.24 0854.26
2009/04/23 15:48:20.7    -506   -574     68    766    770 221.4   5.1  34140  289.24 0854.26
2009/04/23 15:48:20.8    -657   -534     80    847    851 230.9   5.4  34164  289.65 0854.26
2009/04/23 15:48:20.9    -723   -482     49    870    872 236.3   3.3  34166  289.67 0854.26
2009/04/23 15:48:21.0    -648   -462     55    796    798 234.5   4.0  34166  289.66 0854.26
2009/04/23 15:48:21.1    -581   -412     93    713    719 234.6   7.5  34184  289.98 0854.26
2009/04/23 15:48:21.2    -725   -391    137    824    836 241.6   9.5  34192  290.11 0854.28
2009/04/23 15:48:21.3    -545   -313    229    629    669 240.1  21.0  34184  289.97 0854.28
2009/04/23 15:48:21.4    -344   -523    344    627    715 213.3  31.2  34162  289.61 0854.28
2009/04/23 15:48:21.5    -283   -495    177    571    598 209.8  17.3  34168  289.71 0854.28
2009/04/23 15:48:21.6    -296   -384    175    485    516 217.6  19.9  34176  289.84 0854.28
2009/04/23 15:48:21.7    -287   -431    399    519    654 213.7  41.5  34170  289.75 0854.28
2009/04/23 15:48:21.8    -206   -458    335    503    604 204.2  36.9  34160  289.58 0854.28
2009/04/23 15:48:21.9    -100   -659    237    667    707 188.7  20.4  34172  289.77 0854.28
2009/04/23 15:48:22.0       9   -733    324    734    802 179.3  25.5  34154  289.46 0854.28
2009/04/23 15:48:22.1    -137   -678    259    692    738 191.5  21.6  34148  289.37 0854.28
2009/04/23 15:48:22.2    -186   -619     83    647    653 196.8   7.3  34152  289.43 0854.28
2009/04/23 15:48:22.3     -35   -590    199    592    625 183.4  18.6  34148  289.37 0854.28
2009/04/23 15:48:22.4      64   -571     17    575    576 173.5   1.8  34144  289.29 0854.28
2009/04/23 15:48:22.5    -198   -441   -138    484    504 204.2 -15.9  34156  289.50 0854.28
2009/04/23 15:48:22.6     206   -493   -148    535    556 157.3 -15.5  34160  289.58 0854.28
2009/04/23 15:48:22.7     328   -686    -58    761    763 154.4  -4.4  34136  289.18 0854.28
2009/04/23 15:48:22.8     297   -628    -75    695    700 154.7  -6.2  34148  289.37 0854.28
2009/04/23 15:48:22.9      40   -520     -2    522    523 175.5  -0.3  34154  289.46 0854.28
2009/04/23 15:48:23.0    -124   -627    187    640    667 191.2  16.3  34144  289.31 0854.28
2009/04/23 15:48:23.1     -54   -675    231    678    717 184.6  18.8  34136  289.17 0854.28
2009/04/23 15:48:23.2     135   -613    225    628    667 167.5  20.7  34142  289.26 0854.27
2009/04/23 15:48:23.3      38   -602    189    604    634 176.4  17.4  34138  289.20 0854.27
2009/04/23 15:48:23.4     128   -677    158    690    708 169.3  12.9  34140  289.23 0854.27
2009/04/23 15:48:23.5     233   -925     66    954    957 165.8   4.0  34138  289.20 0854.27
2009/04/23 15:48:23.6      20   -721   -196    722    749 178.4 -15.2  34144  289.29 0854.27
2009/04/23 15:48:23.7     168   -563   -190    588    617 163.3 -23.0  34148  289.37 0854.27
2009/04/23 15:48:23.8     -49   -764   -234    766    802 183.7 -17.0  34132  289.10 0854.27
2009/04/23 15:48:23.9    -206   -866   -210    891    916 193.4 -13.3  34140  289.24 0854.27
2009/04/23 15:48:24.0    -206  -1025   -225   1046   1071 191.4 -12.2  34142  289.28 0854.27
2009/04/23 15:48:24.1    -244   -849   -230    884    914 196.1 -14.6  34164  289.63 0854.27
2009/04/23 15:48:24.2    -109   -947   -327    954   1009 186.6 -19.0  34148  289.37 0854.27
2009/04/23 15:48:24.3    -290  -1093   -360   1131   1187 194.9 -17.7  34144  289.29 0854.27
2009/04/23 15:48:24.4    -193   -907   -277    928    968 192.0 -21.5  34134  289.12 0854.27
2009/04/23 15:48:24.5     -64   -835   -151    838    852 184.4 -10.3  34130  289.05 0854.27
2009/04/23 15:48:24.6    -132   -808   -253    819    858 189.3 -17.2  34138  289.21 0854.27
2009/04/23 15:48:24.7      -8   -860   -201    861    885 180.6 -13.2  34130  289.06 0854.27
2009/04/23 15:48:24.8     -21   -710    -69    711    715 181.7  -5.6  34132  289.10 0854.27
2009/04/23 15:48:24.9     187   -899   -288    919    964 168.2 -17.4  34128  289.03 0854.27
2009/04/23 15:48:25.0     131   -777   -249    789    828 170.4 -17.5  34124  288.96 0854.27
2009/04/23 15:48:25.1     188   -886    -72    906    909 168.0  -4.6  34126  289.01 0854.27
2009/04/23 15:48:25.2       5   -682   -115    683    693 179.5  -9.6  34136  289.16 0854.25
2009/04/23 15:48:25.3     133   -797     -8    808    809 170.5  -0.6  34130  289.06 0854.25
2009/04/23 15:48:25.4      70   -674   -202    678    708 174.0 -16.6  34140  289.22 0854.25
2009/04/23 15:48:25.5       3   -684   -153    685    702 179.7 -12.6  34140  289.22 0854.25
2009/04/23 15:48:25.6     -20   -563    -76    564    570 182.1  -7.7  34138  289.19 0854.25
2009/04/23 15:48:25.7     158   -363    -37    396    398 156.5  -5.4  34138  289.21 0854.25
2009/04/23 15:48:25.8    -415   -300   -161    513    538 234.1 -17.5  34126  289.01 0854.25
2009/04/23 15:48:25.9    -161   -273     81    318    329 210.6  14.4  34148  289.37 0854.25
2009/04/23 15:48:26.0    -137   -362   -173    388    424 200.8 -30.1  34144  289.31 0854.25
2009/04/23 15:48:26.1     -79   -588   -140    594    611 187.7 -13.3  34142  289.27 0854.25
2009/04/23 15:48:26.2    -220   -165   -138    276    308 233.2 -32.9  34146  289.34 0854.25
2009/04/23 15:48:26.3      37   -711    -33    712    713 177.0  -2.7  34146  289.33 0854.25
2009/04/23 15:48:26.4    -371   -959   -122   1029   1037 201.2  -6.8  34144  289.30 0854.25
2009/04/23 15:48:26.5    -277   -770   -289    819    868 199.8 -24.6  34130  289.07 0854.25
2009/04/23 15:48:26.6    -339   -730   -352    805    878 204.9 -29.6  34136  289.17 0854.25
2009/04/23 15:48:26.7    -180   -773   -436    794    905 193.2 -35.7  34136  289.18 0854.25
2009/04/23 15:48:26.8     128   -820   -363    831    906 171.1 -29.6  34150  289.40 0854.25
2009/04/23 15:48:26.9     382   -689   -235    789    823 151.0 -21.5  34142  289.26 0854.25
2009/04/23 15:48:27.0     569   -731    -86    927    932 142.1  -5.3  34140  289.22 0854.25
2009/04/23 15:48:27.1     594   -615     43    856    858 136.0   2.9  34140  289.22 0854.25
2009/04/23 15:48:27.2     552   -403    205    684    715 126.1  16.7  34142  289.25 0854.27
2009/04/23 15:48:27.3     386   -623    245    733    774 148.2  18.5  34146  289.33 0854.27
2009/04/23 15:48:27.4      37   -829    211    830    857 177.4  14.3  34146  289.32 0854.27
2009/04/23 15:48:27.5      56  -1209   -200   1211   1228 177.3  -9.4  34144  289.31 0854.27
2009/04/23 15:48:27.6      91  -1048   -293   1053   1093 175.0 -20.2  34152  289.42 0854.27
2009/04/23 15:48:27.7    -134   -898   -307    908    959 188.5 -18.7  34154  289.46 0854.27
2009/04/23 15:48:27.8    -170   -944   -204    960    982 190.2 -12.0  34160  289.57 0854.27
2009/04/23 15:48:27.9    -282   -945   -207    987   1009 196.6 -11.9  34164  289.63 0854.27
2009/04/23 15:48:28.0    -228   -795   -271    828    871 196.0 -23.2  34168  289.71 0854.27
2009/04/23 15:48:28.1    -342   -694   -193    774    798 206.3 -14.0  34164  289.64 0854.27
2009/04/23 15:48:28.2    -383   -841    -43    925    927 204.5  -2.7  34156  289.50 0854.27
2009/04/23 15:48:28.3    -456   -770   -188    895    915 210.7 -11.9  34170  289.75 0854.27
2009/04/23 15:48:28.4    -363   -317    -76    483    490 228.9  -9.0  34170  289.73 0854.27
2009/04/23 15:48:28.5    -537   -767   -321    937    991 215.0 -18.9  34164  289.65 0854.27
2009/04/23 15:48:28.6    -412   -864   -139    958    969 205.5  -8.3  34156  289.52 0854.27
2009/04/23 15:48:28.7    -374   -667   -225    765    798 209.3 -16.4  34164  289.63 0854.27
2009/04/23 15:48:28.8    -396   -659   -156    770    786 211.0 -11.5  34166  289.69 0854.27
2009/04/23 15:48:28.9    -489   -802   -278    940    981 211.4 -16.5  34152  289.45 0854.27
2009/04/23 15:48:29.0    -272   -778   -231    825    857 199.3 -15.7  34164  289.65 0854.27
2009/04/23 15:48:29.1    -109   -629    -82    639    645 189.9  -7.4  34164  289.64 0854.27
2009/04/23 15:48:29.2     -44   -687   -113    689    699 183.7  -9.4  34166  289.66 0854.26
2009/04/23 15:48:29.3     -47   -623   -124    625    638 184.4 -11.2  34172  289.76 0854.26
2009/04/23 15:48:29.4     111   -523   -244    535    588 168.0 -30.6  34166  289.69 0854.26
2009/04/23 15:48:29.5     152   -597   -219    617    655 165.7 -19.6  34158  289.53 0854.26
2009/04/23 15:48:29.7      71   -501   -210    507    548 171.9 -28.3  34156  289.50 0854.26
2009/04/23 15:48:29.8     -32   -387   -248    389    461 184.8 -40.0  34160  289.58 0854.26
2009/04/23 15:48:29.8     -51   -496   -215    499    543 186.0 -29.3  34166  289.67 0854.26
2009/04/23 15:48:29.9      60   -554   -155    558    580 173.8 -15.5  34174  289.80 0854.26
2009/04/23 15:48:30.1      62   -570   -161    574    597 173.8 -15.7  34170  289.73 0854.26
2009/04/23 15:48:30.2    -211   -695      9    727    728 196.9   0.7  34168  289.72 0854.26
2009/04/23 15:48:30.3    -238   -736    -60    774    777 197.9  -4.5  34170  289.73 0854.26
2009/04/23 15:48:30.4    -116   -680   -206    690    721 189.7 -16.6  34168  289.72 0854.26
2009/04/23 15:48:30.5    -168   -652   -157    674    692 194.5 -13.1  34170  289.73 0854.26
2009/04/23 15:48:30.6    -209   -662   -111    695    705 197.5  -9.1  34192  290.13 0854.26
2009/04/23 15:48:30.7    -224   -543   -122    588    601 202.4 -11.8  34202  290.29 0854.26
2009/04/23 15:48:30.8    -263   -439   -239    512    565 210.9 -31.4  34190  290.07 0854.26
2009/04/23 15:48:30.9    -323   -335   -215    466    513 224.0 -30.9  34178  289.88 0854.26
2009/04/23 15:48:31.0    -280   -252   -126    377    398 228.0 -18.6  34172  289.77 0854.26
2009/04/23 15:48:31.1      12   -353     37    354    357 178.0   6.1  34180  289.91 0854.26
2009/04/23 15:48:31.2      42   -242    147    246    286 170.0  33.5  34174  289.80 0854.26
2009/04/23 15:48:31.3    -215   -151    -18    263    264 234.9  -4.1  34176  289.83 0854.26
2009/04/23 15:48:31.4    -100    -41    -46    109    118 247.4 -28.5  34176  289.85 0854.26
2009/04/23 15:48:31.5    -120   -102    -79    158    176 229.6 -32.6  34170  289.75 0854.26
2009/04/23 15:48:31.6     -37    -37    -43     53     68 225.0 -48.1  34170  289.74 0854.26
2009/04/23 15:48:31.7     -17    -54     55     57     79 198.3  49.4  34164  289.65 0854.26
2009/04/23 15:48:31.8     -87   -157    -54    180    189 209.0 -16.8  34168  289.70 0854.26
2009/04/23 15:48:31.9     -76   -207    -25    221    223 200.3  -6.5  34160  289.57 0854.26
2009/04/23 15:48:32.0    -155   -154     66    219    229 225.2  16.8  34164  289.65 0854.26
2009/04/23 15:48:32.1    -204    -48     98    210    231 256.7  27.1  34166  289.69 0854.26
2009/04/23 15:48:32.2    -308     30     46    310    314 275.7   8.5  34164  289.63 0854.26
2009/04/23 15:48:32.3     -72    -20     90     75    117 254.1  56.3  34170  289.74 0854.26
2009/04/23 15:48:32.4    -138   -213   -162    255    302 213.0 -39.9  34168  289.70 0854.26
2009/04/23 15:48:32.5     -80    -85    -90    118    148 223.3 -46.0  34168  289.70 0854.26
2009/04/23 15:48:32.6     -22   -202   -128    204    240 186.3 -39.9  34164  289.65 0854.26
2009/04/23 15:48:32.7    -121   -338   -229    360    426 199.7 -39.9  34166  289.68 0854.26
2009/04/23 15:48:32.8    -122   -369   -242    389    458 198.4 -39.4  34162  289.61 0854.26
2009/04/23 15:48:32.9    -251   -428   -100    497    507 210.4 -11.5  34162  289.62 0854.26
2009/04/23 15:48:33.0    -234   -450     40    508    510 207.5   4.6  34162  289.59 0854.26
2009/04/23 15:48:33.1    -100   -360     15    374    375 195.6   2.4  34166  289.69 0854.26
2009/04/23 15:48:33.2     -76   -375    -66    383    389 191.6  -9.9  34158  289.54 0854.26
2009/04/23 15:48:33.3    -106   -305   -130    324    349 199.2 -27.4  34158  289.55 0854.28
2009/04/23 15:48:33.4    -149   -244    -90    286    301 211.4 -17.6  34162  289.59 0854.28
2009/04/23 15:48:33.5      33   -275      1    277    278 173.1   0.2  34158  289.53 0854.28
2009/04/23 15:48:33.6     194   -461   -139    501    520 157.2 -15.5  34166  289.66 0854.28
2009/04/23 15:48:33.7     127   -472    -31    490    491 164.9  -3.7  34162  289.61 0854.28
2009/04/23 15:48:33.8     217   -592    -51    631    634 159.8  -4.7  34162  289.60 0854.28
2009/04/23 15:48:33.9     182   -666     26    691    692 164.7   2.2  34162  289.61 0854.28
2009/04/23 15:48:34.0     138   -705    250    719    762 168.9  19.2  34148  289.36 0854.28
2009/04/23 15:48:34.1      -9   -686    325    687    759 180.8  27.1  34170  289.73 0854.28
2009/04/23 15:48:34.2     -48   -585    317    588    668 184.7  30.7  34168  289.72 0854.28
2009/04/23 15:48:34.3     152   -229    283    275    394 146.4  50.9  34182  289.94 0854.28
2009/04/23 15:48:34.4     147   -390    299    418    513 159.3  39.1  34162  289.59 0854.28
2009/04/23 15:48:34.5      56   -527    268    531    594 173.9  28.8  34156  289.49 0854.28
2009/04/23 15:48:34.6      50   -334    288    338    444 171.4  44.8  34162  289.61 0854.28
2009/04/23 15:48:34.7     -79   -508    171    515    543 188.9  18.4  34162  289.60 0854.28
2009/04/23 15:48:34.8     147   -483    310    505    592 163.1  34.4  34166  289.67 0854.28
2009/04/23 15:48:34.9      26   -600    294    601    669 177.5  28.0  34168  289.70 0854.28
2009/04/23 15:48:35.0    -111   -730    263    739    784 188.7  20.4  34172  289.78 0854.28
2009/04/23 15:48:35.1      89   -639    217    646    682 172.0  18.6  34152  289.44 0854.28
2009/04/23 15:48:35.2     211   -644    275    678    731 161.8  23.2  34172  289.79 0854.28
2009/04/23 15:48:35.3      41   -533    262    535    595 175.5  28.0  34160  289.56 0854.32
2009/04/23 15:48:35.4      85   -497    348    505    613 170.2  37.9  34164  289.63 0854.32
2009/04/23 15:48:35.5      16   -415    321    416    525 177.8  41.6  34168  289.71 0854.32
2009/04/23 15:48:35.6      50   -401    383    405    557 172.9  48.4  34178  289.86 0854.32
2009/04/23 15:48:35.7    -106   -474    397    486    627 192.6  43.4  34170  289.73 0854.32
2009/04/23 15:48:35.8      -7   -445    380    446    585 181.0  44.8  34170  289.75 0854.32
2009/04/23 15:48:35.9     -39   -326    391    329    511 186.9  55.8  34174  289.82 0854.32
2009/04/23 15:48:36.0     -70   -430    238    436    496 189.3  31.0  34162  289.62 0854.32
2009/04/23 15:48:36.1     -97   -590    100    599    608 189.3   9.5  34154  289.47 0854.32
2009/04/23 15:48:36.2     -58   -632     92    635    642 185.3   8.3  34146  289.35 0854.32
2009/04/23 15:48:36.3      67   -362    203    369    421 169.5  31.3  34152  289.43 0854.32
2009/04/23 15:48:36.4      -4   -386     57    387    392 180.7   8.5  34162  289.60 0854.32
2009/04/23 15:48:36.5      83   -241     60    256    263 160.9  13.2  34164  289.64 0854.32
2009/04/23 15:48:36.6      58   -175     64    185    196 161.5  19.2  34162  289.60 0854.32
2009/04/23 15:48:36.7      24    -73     99     77    125 161.7  58.4  34158  289.53 0854.32
2009/04/23 15:48:36.8     174     58     72    184    197  71.6  22.5  34160  289.58 0854.32
2009/04/23 15:48:36.9     165    -89    203    188    276 118.4  52.2  34164  289.63 0854.32
2009/04/23 15:48:37.0      79   -303      9    314    315 165.3   1.7  34158  289.54 0854.32
2009/04/23 15:48:37.1      84   -312    -17    324    325 164.8  -3.0  34152  289.42 0854.32
2009/04/23 15:48:37.2     -23   -402    -71    403    410 183.4 -10.1  34154  289.46 0854.32
2009/04/23 15:48:37.3    -204   -738    -42    766    768 195.5  -3.2  34156  289.50 0854.30
2009/04/23 15:48:37.4    -246   -889    -51    923    925 195.5  -3.2  34158  289.55 0854.30
2009/04/23 15:48:37.5    -100   -713    123    721    732 188.0   9.7  34142  289.27 0854.30
2009/04/23 15:48:37.6    -105   -802    183    809    830 187.5  12.8  34150  289.40 0854.30
2009/04/23 15:48:37.7    -216   -664   -108    699    708 198.0  -8.8  34124  288.95 0854.30
2009/04/23 15:48:37.8    -129   -423     -8    443    444 197.0  -1.2  34138  289.19 0854.30
2009/04/23 15:48:37.9     -59   -424     23    429    430 188.0   3.1  34148  289.38 0854.30
2009/04/23 15:48:38.0    -100   -262    108    281    301 200.9  22.1  34146  289.34 0854.30
2009/04/23 15:48:38.1     246   -130     28    279    281 118.0   5.9  34154  289.47 0854.30
2009/04/23 15:48:38.2     111   -471     45    484    487 166.7   5.4  34142  289.28 0854.30
2009/04/23 15:48:38.3     324   -298    166    441    471 132.7  21.5  34146  289.33 0854.33
2009/04/23 15:48:38.4     196   -277    128    340    363 144.6  21.6  34146  289.33 0854.33
2009/04/23 15:48:38.5     202   -203    271    287    394 135.1  48.4  34142  289.26 0854.33
2009/04/23 15:48:38.6     338    -69     56    346    351 101.6   9.2  34138  289.21 0854.33
2009/04/23 15:48:38.7     180    174   -108    251    273  46.0 -29.0  34150  289.39 0854.33
2009/04/23 15:48:38.8     184    -14    -54    185    192  94.4 -21.2  34146  289.35 0854.33
2009/04/23 15:48:38.9     154     75     96    172    196  63.8  31.6  34150  289.40 0854.33
2009/04/23 15:48:39.0      -3    -47    230     48    234 184.5  88.8  34156  289.52 0854.33
2009/04/23 15:48:39.1    -441     20    -37    442    444 272.7  -4.8  34138  289.21 0854.33
2009/04/23 15:48:39.2    -439     42   -266    442    515 275.5 -38.4  34142  289.28 0854.33
2009/04/23 15:48:39.3    -289    268    -15    395    396 312.9  -2.3  34138  289.21 0854.33
2009/04/23 15:48:39.4     -33    148   -247    152    290 347.1 -69.8  34144  289.31 0854.33
2009/04/23 15:48:39.5     -23   -136     49    139    148 189.8  19.4  34138  289.19 0854.33
2009/04/23 15:48:39.6     -15   -399     81    400    409 182.2  11.5  34130  289.07 0854.33
2009/04/23 15:48:39.7      79   -411   -164    419    449 169.0 -27.1  34140  289.22 0854.33
2009/04/23 15:48:39.8    -199   -138   -270    243    363 235.1 -57.9  34136  289.15 0854.33
2009/04/23 15:48:39.9    -512    -39   -285    514    587 265.6 -35.8  34126  289.01 0854.33
2009/04/23 15:48:40.0    -333   -321   -137    463    482 226.1 -21.2  34134  289.13 0854.33
2009/04/23 15:48:40.1    -438   -459     47    635    637 223.7   4.2  34112  288.77 0854.33
2009/04/23 15:48:40.2    -114   -310    280    331    433 200.3  44.5  34136  289.17 0854.33
2009/04/23 15:48:40.3    -311   -208     88    375    386 236.3  13.2  34136  289.18 0854.35
2009/04/23 15:48:40.4     -80    -62   -235    102    256 232.2 -79.4  34122  288.92 0854.35
2009/04/23 15:48:40.5    -151     35    139    156    208 283.2  46.4  34128  289.04 0854.35
2009/04/23 15:48:40.6     -41     20    243     46    247 296.2  90.0  34154  289.48 0854.35
2009/04/23 15:48:40.7     -89   -334    172    346    386 195.1  28.4  34132  289.11 0854.35
2009/04/23 15:48:40.8      -1   -364    147    365    393 180.3  23.1  34124  288.96 0854.35
2009/04/23 15:48:40.9     -10    -51    148     53    157 191.5  79.7  34128  289.04 0854.35
2009/04/23 15:48:41.0     -78    307   -101    317    333 345.7 -17.7  34132  289.09 0854.35
2009/04/23 15:48:41.1    -297    359   -120    467    483 320.4 -14.5  34128  289.03 0854.35
2009/04/23 15:48:41.2    -440    497   -207    665    697 318.5 -17.3  34120  288.88 0854.35
2009/04/23 15:48:41.3    -213    411   -184    463    498 332.6 -27.4  34118  288.86 0854.35
2009/04/23 15:48:41.4     -23     78    -63     82    103 343.5 -46.1  34116  288.82 0854.35
2009/04/23 15:48:41.5      68   -288     72    297    306 166.6  13.7  34136  289.17 0854.35
2009/04/23 15:48:41.6      29   -256    183    258    316 173.5  38.8  34132  289.10 0854.35
2009/04/23 15:48:41.7     262   -541    106    602    612 154.1  10.0  34126  288.98 0854.35
2009/04/23 15:48:41.8     284   -671     55    729    731 157.1   4.3  34120  288.88 0854.35
2009/04/23 15:48:41.9     543   -624   -151    828    842 139.0 -10.4  34120  288.90 0854.35
2009/04/23 15:48:42.0     768   -407     57    870    872 117.9   3.8  34120  288.88 0854.35
2009/04/23 15:48:42.1     612   -190   -111    641    651 107.3  -9.9  34126  288.99 0854.35
2009/04/23 15:48:42.2      16   -270    -93    271    286 176.5 -23.8  34134  289.12 0854.36
2009/04/23 15:48:42.3    -165   -307   -171    349    388 208.4 -32.3  34130  289.06 0854.36
2009/04/23 15:48:42.4    -242   -541    -50    593    596 204.1  -4.9  34128  289.02 0854.36
2009/04/23 15:48:42.5    -263   -485     98    552    561 208.5  10.1  34126  289.01 0854.36
2009/04/23 15:48:42.6    -208   -455    158    501    526 204.6  17.5  34126  288.98 0854.36
2009/04/23 15:48:42.7    -160   -245    292    293    413 213.2  50.0  34132  289.10 0854.36
2009/04/23 15:48:42.8    -215   -318    280    384    475 214.1  39.7  34136  289.16 0854.36
2009/04/23 15:48:42.9    -161   -403    264    435    508 201.9  34.0  34136  289.18 0854.36
2009/04/23 15:48:43.0     -17   -560    -30    561    562 181.8  -3.1  34128  289.04 0854.36
2009/04/23 15:48:43.1     -38   -534     12    536    537 184.1   1.4  34142  289.28 0854.36
2009/04/23 15:48:43.2     138   -314     67    344    351 156.3  11.1  34138  289.20 0854.36
2009/04/23 15:48:43.3      90   -146    117    172    208 148.1  37.4  34136  289.18 0854.36
2009/04/23 15:48:43.4     -31     15      5     35     36 295.4   9.0  34150  289.40 0854.36
2009/04/23 15:48:43.5      18     46    -98     50    110  21.8 -75.8  34144  289.30 0854.36
2009/04/23 15:48:43.6    -100    -72   -176    124    215 234.0 -65.5  34144  289.31 0854.36
2009/04/23 15:48:43.7    -255    -73     -5    266    267 254.0  -1.3  34140  289.22 0854.36
2009/04/23 15:48:43.8    -225   -103    -88    248    263 245.4 -24.4  34142  289.25 0854.36
2009/04/23 15:48:43.9    -212   -164   -220    269    347 232.3 -48.0  34142  289.27 0854.36
2009/04/23 15:48:44.0      16   -643    -70    644    648 178.5  -6.3  34126  288.98 0854.36
2009/04/23 15:48:44.1      49   -431    -84    434    443 173.4 -11.0  34126  289.00 0854.36
2009/04/23 15:48:44.2     214   -651    122    686    697 161.8  10.1  34132  289.10 0854.35
2009/04/23 15:48:44.3    -126   -607    -60    621    625 191.8  -5.6  34136  289.18 0854.35
2009/04/23 15:48:44.4     -74   -522     69    528    533 188.1   7.5  34122  288.94 0854.35
2009/04/23 15:48:44.5    -155   -672    179    690    713 193.0  14.6  34142  289.28 0854.35
2009/04/23 15:48:44.6      59   -799    364    802    880 175.8  26.2  34132  289.09 0854.35
2009/04/23 15:48:44.7     113   -492    345    505    611 167.0  37.6  34138  289.20 0854.35
2009/04/23 15:48:44.8     104   -526    -98    537    546 168.8 -10.4  34138  289.21 0854.35
2009/04/23 15:48:44.9     403   -413    -41    578    580 135.7  -4.1  34136  289.17 0854.35
2009/04/23 15:48:45.0     580   -320    230    663    701 118.9  20.0  34138  289.21 0854.35
2009/04/23 15:48:45.1     412   -277    226    497    545 124.0  26.2  34144  289.31 0854.35
2009/04/23 15:48:45.2     405   -552    239    686    726 143.7  20.0  34124  288.96 0854.35
2009/04/23 15:48:45.3     246   -481     61    541    545 152.9   6.5  34144  289.31 0854.35
2009/04/23 15:48:45.4     404   -520     56    659    662 142.2   4.9  34138  289.21 0854.35
2009/04/23 15:48:45.5     507   -540   -173    741    761 136.8 -13.2  34142  289.28 0854.35
2009/04/23 15:48:45.6     181   -917   -180    935    953 168.8 -10.9  34156  289.51 0854.35
2009/04/23 15:48:45.7     182   -420   -200    458    499 156.6 -29.6  34126  288.98 0854.35
2009/04/23 15:48:45.8     326   -836      1    898    899 158.7   0.1  34142  289.25 0854.35
2009/04/23 15:48:45.9     257   -777     25    819    820 161.7   1.8  34136  289.16 0854.35
2009/04/23 15:48:46.0     239   -598    266    645    697 158.2  23.6  34118  288.85 0854.35
2009/04/23 15:48:46.1     472   -666    497    817    956 144.7  34.2  34130  289.06 0854.35
2009/04/23 15:48:46.2     512   -658     34    834    835 142.1   2.3  34136  289.18 0854.32
2009/04/23 15:48:46.3     607   -887    -21   1075   1076 145.6  -1.2  34134  289.12 0854.32
2009/04/23 15:48:46.4     322   -497   -167    593    617 147.0 -15.8  34136  289.15 0854.32
2009/04/23 15:48:46.5     217   -485     69    532    537 155.9   7.4  34136  289.16 0854.32
2009/04/23 15:48:46.6     215   -581    206    620    654 159.7  18.4  34132  289.11 0854.32
2009/04/23 15:48:46.7     338   -634    403    719    824 151.9  31.7  34122  288.93 0854.32
2009/04/23 15:48:46.8     230   -912    382    941   1015 165.8  23.4  34118  288.87 0854.32
2009/04/23 15:48:46.9     410   -812    396    910    992 153.2  25.1  34108  288.69 0854.32
2009/04/23 15:48:47.0      22   -853    377    854    933 178.5  25.3  34130  289.07 0854.32
2009/04/23 15:48:47.1      96  -1059    355   1064   1123 174.8  18.5  34124  288.96 0854.32
2009/04/23 15:48:47.2     305   -831    229    886    916 159.8  14.5  34118  288.87 0854.32
2009/04/23 15:48:47.3     392   -852    212    938    962 155.3  12.8  34110  288.74 0854.32
2009/04/23 15:48:47.4     324   -837    378    898    974 158.8  24.2  34116  288.81 0854.32
2009/04/23 15:48:47.5     -38   -751    390    752    847 182.9  29.6  34126  288.99 0854.32
2009/04/23 15:48:47.6     291   -838    518    888   1028 160.8  32.9  34122  288.94 0854.32
2009/04/23 15:48:47.7     132   -867    375    878    954 171.3  24.5  34118  288.86 0854.32
2009/04/23 15:48:47.8    -177   -753    253    774    815 193.3  18.1  34116  288.81 0854.32
2009/04/23 15:48:47.9    -132   -866    256    876    913 188.7  16.3  34122  288.94 0854.32
2009/04/23 15:48:48.0     109   -981    138    988    998 173.6   8.0  34126  288.98 0854.32
2009/04/23 15:48:48.1      41  -1132    -95   1133   1137 177.9  -4.8  34106  288.66 0854.32
2009/04/23 15:48:48.2     180  -1057    -77   1073   1076 170.3  -4.1  34098  288.51 0854.22
2009/04/23 15:48:48.3      32  -1043    -63   1044   1046 178.2  -3.5  34120  288.89 0854.22
2009/04/23 15:48:48.4     133  -1075    -90   1084   1088 172.9  -4.8  34118  288.86 0854.22
2009/04/23 15:48:48.5     167   -647    130    669    682 165.5  11.0  34118  288.85 0854.22
2009/04/23 15:48:48.6     174   -782    479    802    934 167.4  33.6  34120  288.91 0854.22
2009/04/23 15:48:48.7     420   -855    306    953   1001 153.8  17.8  34122  288.92 0854.22
2009/04/23 15:48:48.8      70   -692    205    696    726 174.2  16.4  34114  288.79 0854.22
2009/04/23 15:48:48.9     372   -600    -55    706    709 148.2  -4.5  34114  288.79 0854.22
2009/04/23 15:48:49.0     357  -1044    -24   1104   1105 161.1  -1.3  34112  288.77 0854.22
2009/04/23 15:48:49.1     373  -1014    -32   1081   1082 159.8  -1.7  34112  288.76 0854.22
2009/04/23 15:48:49.2     280  -1116    -70   1151   1154 165.9  -3.5  34120  288.91 0854.22
2009/04/23 15:48:49.3     -16  -1043   -134   1044   1053 180.9  -7.4  34108  288.68 0854.22
2009/04/23 15:48:49.4       3   -553   -168    554    580 179.7 -16.9  34128  289.03 0854.22
2009/04/23 15:48:49.5     220   -551     92    594    601 158.2   8.8  34114  288.80 0854.22
2009/04/23 15:48:49.6      34   -491    383    493    624 176.0  41.9  34126  288.98 0854.22
2009/04/23 15:48:49.7      -7   -408    436    409    597 181.1  52.1  34104  288.62 0854.22
2009/04/23 15:48:49.8     191   -584    314    615    690 161.9  29.2  34132  289.10 0854.22
2009/04/23 15:48:49.9     187   -364    454    410    611 152.8  53.3  34126  289.01 0854.22
2009/04/23 15:48:50.0     284    148    420    321    528  62.5  59.0  34134  289.12 0854.22
2009/04/23 15:48:50.1     275    324    -48    426    429  40.3  -6.5  34130  289.07 0854.22
2009/04/23 15:48:50.2      70    245    -33    255    258  16.1  -7.5  34126  288.98 0854.17
2009/04/23 15:48:50.3     -94    100    120    138    182 316.8  45.8  34136  289.16 0854.17
2009/04/23 15:48:50.4    -140      0    -97    141    171 269.6 -42.2  34132  289.09 0854.17
2009/04/23 15:48:50.5     -69     53   -170     88    191 307.8 -75.0  34136  289.18 0854.17
2009/04/23 15:48:50.6    -202    286   -141    351    378 324.8 -27.4  34138  289.21 0854.17
2009/04/23 15:48:50.7     227    -17   -216    228    314  94.3 -52.9  34136  289.17 0854.17
2009/04/23 15:48:50.8     306     13   -205    307    369  87.5 -41.3  34120  288.89 0854.17
2009/04/23 15:48:50.9     207    243   -252    320    407  40.5 -46.7  34130  289.08 0854.17
2009/04/23 15:48:51.0    -108     33   -327    114    346 287.3 -84.8  34134  289.14 0854.17
2009/04/23 15:48:51.1    -795    -69   -369    799    880 265.0 -31.0  34128  289.02 0854.17
2009/04/23 15:48:51.2    -881   -266   -440    921   1020 253.2 -31.8  34122  288.92 0854.17
2009/04/23 15:48:51.3    -718   -533   -345    895    959 233.4 -26.7  34110  288.71 0854.17
2009/04/23 15:48:51.4    -680   -354   -260    767    809 242.5 -23.8  34126  288.98 0854.17
2009/04/23 15:48:51.5    -409   -394   -333    569    659 226.1 -37.4  34122  288.93 0854.17
2009/04/23 15:48:51.6    -439   -453   -226    632    671 224.1 -25.0  34138  289.21 0854.17
2009/04/23 15:48:51.7    -593    -26    -92    594    601 267.4  -8.8  34124  288.97 0854.17
2009/04/23 15:48:51.8       3   -327    -23    328    329 179.4  -4.0  34126  289.00 0854.17
2009/04/23 15:48:51.9    -348   -137   -330    375    499 248.5 -50.2  34134  289.12 0854.17
2009/04/23 15:48:52.0      30   -385   -133    387    409 175.5 -24.0  34138  289.21 0854.17
2009/04/23 15:48:52.1     185   -572   -245    602    649 162.1 -27.8  34118  288.86 0854.17
2009/04/23 15:48:52.2     124   -674   -223    686    721 169.5 -23.1  34116  288.83 0854.17
2009/04/23 15:48:52.3     137   -578   -161    595    617 166.6 -15.2  34118  288.85 0854.17
2009/04/23 15:48:52.4     224   -473   -172    524    552 154.7 -18.2  34120  288.89 0854.17
2009/04/23 15:48:52.5     174   -424   -183    459    494 157.7 -27.4  34132  289.10 0854.17
2009/04/23 15:48:52.6      41   -490   -175    492    523 175.1 -19.6  34120  288.91 0854.17
2009/04/23 15:48:52.7     -97   -323   -144    338    367 196.7 -29.0  34110  288.71 0854.17
2009/04/23 15:48:52.8    -103   -602     31    612    613 189.8   2.9  34098  288.51 0854.17
2009/04/23 15:48:52.9    -115   -786   -114    795    804 188.4  -8.2  34120  288.90 0854.17
2009/04/23 15:48:53.0    -404   -662     20    776    777 211.4   1.5  34152  289.44 0854.17
2009/04/23 15:48:53.1    -253   -528    126    586    600 205.7  12.2  34156  289.52 0854.17
2009/04/23 15:48:53.2    -194   -724    109    750    759 195.0   8.3  34148  289.38 0854.17
2009/04/23 15:48:53.3    -353   -541     68    647    651 213.1   6.1  34144  289.31 0854.17
2009/04/23 15:48:53.4     103   -899    284    905    949 173.4  17.4  34130  289.08 0854.17
2009/04/23 15:48:53.5     -16   -833     34    834    835 181.2   2.3  34144  289.31 0854.17
2009/04/23 15:48:53.6      68   -784     67    788    792 175.0   4.9  34150  289.41 0854.17
2009/04/23 15:48:53.7      -5   -801    109    802    810 180.4   7.8  34156  289.52 0854.17
2009/04/23 15:48:53.8     -47   -846    440    848    955 183.2  29.6  34136  289.17 0854.17
2009/04/23 15:48:53.9    -122   -597    471    610    770 191.6  41.6  34176  289.83 0854.17
2009/04/23 15:48:54.0     127   -296    360    323    483 156.8  53.7  34182  289.94 0854.17
2009/04/23 15:48:54.1     -13   -311    349    312    468 182.5  53.7  34202  290.29 0854.17
2009/04/23 15:48:54.2    -112   -320    323    340    468 199.3  48.5  34204  290.33 0854.17
2009/04/23 15:48:54.3    -260   -224    147    344    374 229.2  24.6  34202  290.27 0854.17
2009/04/23 15:48:54.4    -225      0    -37    226    230 270.0  -9.3  34178  289.87 0854.17
2009/04/23 15:48:54.5    -310     24     85    312    324 274.6  15.3  34190  290.09 0854.17
2009/04/23 15:48:54.6    -470    110    149    483    506 283.3  17.2  34178  289.88 0854.17
2009/04/23 15:48:54.7    -448    158    115    476    490 289.5  13.6  34180  289.91 0854.17
2009/04/23 15:48:54.8    -158     12    199    159    254 274.4  57.3  34202  290.28 0854.17
2009/04/23 15:48:54.9     -24   -100    232    103    253 193.8  74.5  34198  290.21 0854.17
2009/04/23 15:48:55.0     -57    -41    147     71    163 234.1  72.4  34198  290.23 0854.17
2009/04/23 15:48:55.1    -205    -72    152    218    265 250.5  38.5  34200  290.26 0854.17
2009/04/23 15:48:55.2    -107     83     71    136    153 307.7  29.8  34202  290.28 0854.17
2009/04/23 15:48:55.3     -89    241    148    258    297 339.7  32.4  34190  290.07 0854.17
2009/04/23 15:48:55.4    -138    379     91    404    415 340.0  12.8  34212  290.46 0854.17
2009/04/23 15:48:55.5    -256    352    112    436    451 323.9  14.4  34170  289.75 0854.17
2009/04/23 15:48:55.6    -219    -23    260    221    341 263.9  55.5  34208  290.37 0854.17
2009/04/23 15:48:55.7    -143    241    329    281    432 329.3  55.3  34202  290.30 0854.17
2009/04/23 15:48:55.8    -144    118    243    187    306 309.5  58.5  34202  290.29 0854.17
2009/04/23 15:48:55.9     -75     29    169     81    187 291.3  72.8  34194  290.14 0854.17
2009/04/23 15:48:56.0     -12   -115    140    116    181 186.2  56.3  34210  290.43 0854.17
2009/04/23 15:48:56.1    -135   -135    124    192    228 224.9  35.6  34204  290.33 0854.17
2009/04/23 15:48:56.2    -239    -48    134    244    278 258.5  31.3  34218  290.56 0854.20
2009/04/23 15:48:56.4    -117   -247    236    274    361 205.3  45.2  34162  289.62 0854.20
2009/04/23 15:48:56.5     -64   -270    172    278    326 193.4  34.9  34170  289.75 0854.20
2009/04/23 15:48:56.6     -16   -276    129    277    305 183.5  27.1  34180  289.90 0854.20
2009/04/23 15:48:56.7      43   -307     74    311    320 172.0  13.5  34178  289.86 0854.20
2009/04/23 15:48:56.8      50   -347    153    351    382 171.8  25.2  34170  289.74 0854.20
2009/04/23 15:48:56.9     121   -233    202    263    331 152.4  41.3  34188  290.03 0854.20
2009/04/23 15:48:57.0     283   -168    317    330    457 120.7  48.8  34202  290.29 0854.20
2009/04/23 15:48:57.1      58   -176    182    186    260 161.5  49.8  34186  290.02 0854.20
2009/04/23 15:48:57.2     -26   -218    224    220    313 186.9  50.6  34182  289.93 0854.20
2009/04/23 15:48:57.3     -24   -225    185    227    292 186.2  43.7  34170  289.73 0854.20
2009/04/23 15:48:57.4     -92   -352    282    364    460 194.8  41.7  34154  289.46 0854.20
2009/04/23 15:48:57.5      17   -561    150    562    582 178.2  15.0  34154  289.47 0854.20
2009/04/23 15:48:57.6     -11   -480    140    481    502 181.4  16.3  34150  289.39 0854.20
2009/04/23 15:48:57.7     -35   -505     83    507    514 184.0   9.3  34150  289.39 0854.20
2009/04/23 15:48:57.8     114   -438     62    453    458 165.4   7.8  34158  289.55 0854.20
2009/04/23 15:48:57.9     192   -368     23    416    417 152.4   3.3  34152  289.44 0854.20
2009/04/23 15:48:58.0     174   -211    151    274    312 140.4  31.3  34158  289.54 0854.20
2009/04/23 15:48:58.1     -66   -352    247    359    435 190.7  37.8  34154  289.48 0854.20
2009/04/23 15:48:58.2      29   -429    155    430    457 176.1  20.7  34154  289.48 0854.20
2009/04/23 15:48:58.3     -83   -429     61    438    443 191.0   8.0  34156  289.51 0854.16
2009/04/23 15:48:58.4    -105   -509    101    520    530 191.7  11.0  34158  289.53 0854.16
2009/04/23 15:48:58.5    -186   -633    140    660    675 196.4  12.0  34164  289.63 0854.16
2009/04/23 15:48:58.6    -158   -463     25    490    491 198.9   3.0  34156  289.50 0854.16
2009/04/23 15:48:58.7    -112   -488     79    501    508 193.0   9.0  34156  289.49 0854.16
2009/04/23 15:48:58.8    -111   -425     22    440    441 194.6   2.9  34158  289.55 0854.16
2009/04/23 15:48:58.9     -40   -298    -27    301    303 187.8  -5.2  34162  289.59 0854.16
2009/04/23 15:48:59.0     -33   -232      2    235    236 188.1   0.7  34158  289.54 0854.16
2009/04/23 15:48:59.1     169   -140    149    220    265 129.8  37.3  34162  289.59 0854.16
2009/04/23 15:48:59.2     207   -150    109    256    278 126.0  24.3  34162  289.61 0854.16
2009/04/23 15:48:59.3     207    -90    133    226    262 113.5  33.4  34164  289.64 0854.17
2009/04/23 15:48:59.4     181   -247    269    307    408 143.7  45.8  34152  289.43 0854.17
2009/04/23 15:48:59.5     176   -354     93    396    407 153.6  13.3  34160  289.58 0854.17
2009/04/23 15:48:59.6     286   -135     19    317    318 115.4   3.5  34150  289.41 0854.17
2009/04/23 15:48:59.7     147   -222      3    267    268 146.4   0.8  34156  289.51 0854.17
2009/04/23 15:48:59.8     114   -206   -120    236    264 151.0 -33.5  34160  289.56 0854.17
2009/04/23 15:48:59.9     140   -191    -76    238    249 143.7 -22.9  34160  289.58 0854.17
2009/04/23 15:49:00.0     -18   -422   -102    423    436 182.5 -13.6  34160  289.56 0854.17
2009/04/23 15:49:00.1     149   -600     25    619    620 166.0   2.4  34162  289.60 0854.17
2009/04/23 15:49:00.2     260   -580     52    636    639 155.8   4.7  34162  289.59 0854.17
2009/04/23 15:49:00.3     215   -590     35    629    631 160.0   3.2  34154  289.48 0854.17
2009/04/23 15:49:00.4     113   -535    -59    548    552 168.0  -6.2  34156  289.50 0854.17
2009/04/23 15:49:00.5     149   -526     11    547    548 164.1   1.2  34144  289.29 0854.17
2009/04/23 15:49:00.6    -165   -580    -53    604    607 195.9  -5.1  34138  289.20 0854.17
2009/04/23 15:49:00.7     -62   -600    284    604    667 185.9  27.0  34132  289.09 0854.17
2009/04/23 15:49:00.8      42   -748    166    750    769 176.7  12.5  34152  289.45 0854.17
2009/04/23 15:49:00.9     195   -565    266    598    654 160.9  25.7  34142  289.28 0854.17
2009/04/23 15:49:01.0     381   -404    240    556    605 136.7  25.0  34146  289.32 0854.17
2009/04/23 15:49:01.1     201   -396    180    445    480 153.0  23.4  34146  289.35 0854.17
2009/04/23 15:49:01.2     317   -587    267    668    719 151.6  23.0  34156  289.49 0854.17
2009/04/23 15:49:01.3     280   -357    156    455    482 141.9  18.9  34152  289.42 0854.20
2009/04/23 15:49:01.4     456   -293    428    543    691 122.8  42.1  34162  289.59 0854.20
2009/04/23 15:49:01.5     349     52     50    353    357  81.4   8.1  34156  289.50 0854.20
2009/04/23 15:49:01.6     337   -204    301    395    496 121.2  41.2  34140  289.23 0854.20
2009/04/23 15:49:01.7     161   -507    344    533    634 162.3  35.9  34146  289.34 0854.20
2009/04/23 15:49:01.8     368   -355     72    512    518 134.0   8.0  34160  289.57 0854.20
2009/04/23 15:49:01.9     349   -345    152    491    515 134.7  17.2  34152  289.42 0854.20
2009/04/23 15:49:02.0     193   -230    -17    301    302 140.1  -3.3  34154  289.46 0854.20
2009/04/23 15:49:02.1     246   -281    163    374    407 138.8  25.1  34156  289.50 0854.20
2009/04/23 15:49:02.2     269   -213    208    344    401 128.4  34.0  34156  289.50 0854.20
2009/04/23 15:49:02.3      47   -277     40    282    285 170.2   8.2  34166  289.66 0854.20
2009/04/23 15:49:02.4     -83   -249    140    263    297 198.5  30.3  34162  289.61 0854.20
2009/04/23 15:49:02.5      19   -292    244    293    381 176.2  43.8  34158  289.54 0854.20
2009/04/23 15:49:02.6     127   -379    296    400    497 161.4  40.1  34160  289.57 0854.20
2009/04/23 15:49:02.7      62   -246    272    254    372 165.7  52.2  34156  289.52 0854.20
2009/04/23 15:49:02.8      61   -103    252    120    279 149.3  72.8  34164  289.64 0854.20
2009/04/23 15:49:02.9     -49     81    177     95    200 328.8  69.6  34170  289.75 0854.20
2009/04/23 15:49:03.0     -33    -58    203     67    213 209.9  80.7  34178  289.87 0854.20
2009/04/23 15:49:03.1     -58   -161    219    172    278 199.8  58.2  34166  289.68 0854.20
2009/04/23 15:49:03.2      42   -250    201    254    323 170.3  42.4  34156  289.49 0854.20
2009/04/23 15:49:03.3     -51   -240    260    246    357 192.0  51.9  34160  289.56 0854.22
2009/04/23 15:49:03.4     -23    -70    254     74    264 198.7  83.5  34178  289.89 0854.22
2009/04/23 15:49:03.5      51     20    151     55    160  68.3  79.5  34172  289.79 0854.22
2009/04/23 15:49:03.6    -202    214    132    295    323 316.7  25.8  34158  289.53 0854.22
2009/04/23 15:49:03.7    -354     -7    -37    355    358 268.8  -6.1  34176  289.84 0854.22
2009/04/23 15:49:03.8    -346      4     17    347    348 270.8   2.9  34172  289.79 0854.22
2009/04/23 15:49:03.9    -364     12    128    365    387 271.9  19.4  34182  289.94 0854.22
2009/04/23 15:49:04.0    -319     93     22    333    334 286.3   3.8  34188  290.04 0854.22
2009/04/23 15:49:04.1    -288     86     22    301    302 286.6   4.2  34174  289.80 0854.22
2009/04/23 15:49:04.2    -260     72     28    270    272 285.5   6.1  34180  289.90 0854.22
2009/04/23 15:49:04.3    -337   -141    149    366    395 247.3  23.5  34164  289.65 0854.22
2009/04/23 15:49:04.4    -200   -367    239    418    481 208.6  32.3  34182  289.95 0854.22
2009/04/23 15:49:04.5    -122   -291    293    316    430 202.7  47.7  34218  290.57 0854.22
2009/04/23 15:49:04.6       6   -240    249    241    346 178.4  51.1  34228  290.73 0854.22
2009/04/23 15:49:04.7     -15   -196    231    197    303 184.4  55.4  34202  290.29 0854.22
2009/04/23 15:49:04.8     -67   -286    294    294    415 193.3  50.1  34202  290.27 0854.22
2009/04/23 15:49:04.9     -84   -321    331    332    468 194.8  50.0  34184  289.99 0854.22
2009/04/23 15:49:05.0     -63   -210    206    220    301 196.7  48.0  34194  290.14 0854.22
2009/04/23 15:49:05.1     -30   -115    241    119    268 194.7  71.9  34202  290.30 0854.22
2009/04/23 15:49:05.2     -87   -123    209    151    257 215.2  60.6  34218  290.57 0854.22
2009/04/23 15:49:05.3     -67   -142    221    158    271 205.3  61.1  34204  290.31 0854.22
2009/04/23 15:49:05.4     161     12    181    162    242  85.6  53.5  34220  290.58 0854.22
2009/04/23 15:49:05.5     310    143    261    342    430  65.3  41.3  34232  290.78 0854.22
2009/04/23 15:49:05.6     318    210    141    382    407  56.6  21.1  34226  290.69 0854.22
2009/04/23 15:49:05.7      91    122    128    153    199  36.5  44.1  34244  291.01 0854.22
2009/04/23 15:49:05.8    -145    115    107    186    214 308.4  32.7  34242  290.96 0854.22
2009/04/23 15:49:05.9     -65    -77    123    101    159 220.1  56.4  34192  290.11 0854.22
2009/04/23 15:49:06.0     -53     31     90     62    109 300.7  62.1  34188  290.06 0854.22
2009/04/23 15:49:06.1    -140     76     85    160    181 298.4  30.3  34200  290.25 0854.22
2009/04/23 15:49:06.2     -86    -81     49    119    128 226.8  23.6  34188  290.04 0854.22
2009/04/23 15:49:06.3     -97    -36     13    104    105 249.2   7.5  34198  290.23 0854.22
2009/04/23 15:49:06.4    -141     75      9    160    161 298.2   3.3  34198  290.23 0854.22
2009/04/23 15:49:06.5    -136    214     74    254    265 327.5  16.4  34200  290.26 0854.22
2009/04/23 15:49:06.6    -162    131    152    209    258 308.9  39.7  34210  290.41 0854.22
2009/04/23 15:49:06.7     -54    288     94    294    309 349.3  17.8  34220  290.58 0854.22
2009/04/23 15:49:06.8     138    371     31    397    399  20.5   4.5  34242  290.98 0854.22
2009/04/23 15:49:06.9     166    235     77    288    299  35.2  15.0  34264  291.33 0854.22
2009/04/23 15:49:07.0      18    241     64    242    251   4.4  15.0  34258  291.24 0854.22
2009/04/23 15:49:07.1     124    206    132    241    274  31.2  31.3  34274  291.50 0854.22
2009/04/23 15:49:07.2     249    248    149    352    382  45.1  24.3  34220  290.60 0854.22
2009/04/23 15:49:07.3     227    138    153    266    306  58.7  32.4  34208  290.39 0854.24
2009/04/23 15:49:07.4     177     55    152    186    240  72.7  43.7  34250  291.09 0854.24
2009/04/23 15:49:07.5     244     74    205    256    327  73.1  42.9  34234  290.83 0854.24
2009/04/23 15:49:07.6     224     20    195    225    297  84.8  45.6  34252  291.12 0854.24
2009/04/23 15:49:07.7      91   -165    217    189    287 151.1  54.3  34216  290.53 0854.24
2009/04/23 15:49:07.8     136    -62    190    150    242 114.4  57.9  34240  290.92 0854.24
2009/04/23 15:49:07.9    -100    -63    114    119    164 237.5  49.2  34222  290.62 0854.24
2009/04/23 15:49:08.0      -9    -73    108     74    130 187.1  62.6  34216  290.52 0854.24
2009/04/23 15:49:08.1     -73   -133     98    152    180 208.9  35.7  34214  290.50 0854.24
2009/04/23 15:49:08.2      56    -14     27     58     63 104.2  26.2  34222  290.64 0854.24
2009/04/23 15:49:08.3     -30    -48    -18     57     59 212.5 -22.8  34218  290.57 0854.24
2009/04/23 15:49:08.4      11      3    -97     12     97  71.6 -90.0  34228  290.72 0854.24
2009/04/23 15:49:08.5      35     64    -50     74     89  29.0 -41.4  34226  290.69 0854.24
2009/04/23 15:49:08.6      72     -8     63     73     96  97.0  45.4  34220  290.60 0854.24
2009/04/23 15:49:08.7      12    -36     56     38     67 161.5  62.6  34228  290.74 0854.24
2009/04/23 15:49:08.8     -93   -113    135    147    199 219.6  47.5  34206  290.36 0854.24
2009/04/23 15:49:08.9    -238   -324     38    403    405 216.3   5.4  34192  290.11 0854.24
2009/04/23 15:49:09.0    -222   -303     88    376    387 216.3  13.2  34182  289.93 0854.24
2009/04/23 15:49:09.1    -205   -321     34    382    384 212.6   5.1  34176  289.84 0854.24
2009/04/23 15:49:09.2    -203   -268    -24    337    338 217.1  -4.1  34178  289.89 0854.26
2009/04/23 15:49:09.3     -48   -338    -19    342    343 188.2  -3.2  34164  289.64 0854.26
2009/04/23 15:49:09.4      86   -260     37    274    277 161.7   7.8  34168  289.70 0854.26
2009/04/23 15:49:09.5     -63   -253    -25    261    263 194.2  -5.6  34170  289.75 0854.26
2009/04/23 15:49:09.6     104   -347      5    363    364 163.3   0.8  34164  289.65 0854.26
2009/04/23 15:49:09.7      75   -364     63    372    378 168.3   9.7  34166  289.69 0854.26
2009/04/23 15:49:09.8      62   -316     30    323    325 168.9   5.5  34152  289.42 0854.26
2009/04/23 15:49:09.9     123   -324     67    347    354 159.2  11.0  34150  289.40 0854.26
2009/04/23 15:49:10.0     104   -193    168    220    276 151.7  41.4  34152  289.42 0854.26
2009/04/23 15:49:10.1      84   -178    203    197    282 154.7  50.7  34164  289.63 0854.26
2009/04/23 15:49:10.2       9   -131    133    132    187 176.0  50.1  34176  289.85 0854.26
2009/04/23 15:49:10.3     -63   -144    117    158    196 203.7  40.4  34164  289.65 0854.26
2009/04/23 15:49:10.4     -48   -195    106    201    227 194.0  30.1  34162  289.60 0854.26
2009/04/23 15:49:10.5     -35   -175     61    179    190 191.5  18.9  34162  289.62 0854.26
2009/04/23 15:49:10.6    -128   -118     -4    175    176 227.3  -1.6  34158  289.55 0854.26
2009/04/23 15:49:10.7     -54    -37     -1     66     67 234.9  -1.2  34164  289.63 0854.26
2009/04/23 15:49:10.8     -83     28      0     88     89 288.6  -0.3  34166  289.67 0854.26
2009/04/23 15:49:10.9    -166      0    -91    167    190 270.0 -35.4  34176  289.84 0854.26
2009/04/23 15:49:11.0    -152    -59    -58    164    173 248.7 -24.4  34176  289.85 0854.26
2009/04/23 15:49:11.1    -217    -71    -61    229    238 251.8 -15.0  34186  290.00 0854.26
2009/04/23 15:49:11.2    -164     26    -99    167    194 279.2 -38.1  34216  290.53 0854.29
2009/04/23 15:49:11.3    -169   -168   -153    239    283 225.1 -40.0  34168  289.70 0854.29
2009/04/23 15:49:11.4    -118   -118    -72    168    182 225.1 -28.7  34164  289.63 0854.29
2009/04/23 15:49:11.5    -120   -113    -63    166    177 226.7 -26.1  34170  289.74 0854.29
2009/04/23 15:49:11.6     -83    -45     -2     95     96 241.6  -1.8  34196  290.18 0854.29
2009/04/23 15:49:11.7      -4    -83     79     84    115 183.1  48.0  34198  290.21 0854.29
2009/04/23 15:49:11.8     -35   -106    115    112    160 198.3  50.7  34198  290.21 0854.29
2009/04/23 15:49:11.9      16     -7    113     18    114 115.3  90.0  34198  290.21 0854.29
2009/04/23 15:49:12.0     141     66     75    156    173  64.7  27.3  34186  290.01 0854.29
2009/04/23 15:49:12.1     194     65     55    205    213  71.4  15.2  34170  289.75 0854.29
2009/04/23 15:49:12.2     155     44     55    162    172  74.1  18.9  34190  290.08 0854.29
2009/04/23 15:49:12.3     113     38    182    120    218  71.4  63.6  34176  289.84 0854.29
2009/04/23 15:49:12.4     178     87    119    199    231  63.8  34.0  34174  289.80 0854.29
2009/04/23 15:49:12.5     195    122     31    231    234  58.0   7.8  34168  289.72 0854.29
2009/04/23 15:49:12.6     187     28     87    190    208  81.4  26.4  34172  289.79 0854.29
2009/04/23 15:49:12.7     143     -4    109    144    180  91.7  40.9  34170  289.74 0854.29
2009/04/23 15:49:12.8      37    -44     90     58    107 140.3  64.6  34176  289.84 0854.29
2009/04/23 15:49:12.9      51   -120     67    131    147 156.8  29.2  34162  289.60 0854.29
2009/04/23 15:49:13.0      -6   -133     82    134    157 182.6  34.4  34164  289.65 0854.29
2009/04/23 15:49:13.1     -81   -157      0    177    178 207.4  -0.3  34162  289.62 0854.29
2009/04/23 15:49:13.2    -178   -140    -58    227    235 231.8 -14.3  34166  289.69 0854.31
2009/04/23 15:49:13.3     -86    -88     31    124    128 224.5  14.3  34164  289.63 0854.31
2009/04/23 15:49:13.4     -47     28     60     55     81 300.7  52.7  34168  289.72 0854.31
2009/04/23 15:49:13.5     -31    -55    126     64    141 209.0  71.0  34170  289.74 0854.31
2009/04/23 15:49:13.6     -59   -220    107    228    251 195.2  27.1  34166  289.68 0854.31
2009/04/23 15:49:13.7     -57   -179    114    189    220 197.8  33.7  34164  289.63 0854.31
2009/04/23 15:49:13.8     -50   -140    162    149    220 200.0  52.5  34158  289.55 0854.31
2009/04/23 15:49:13.9    -137   -256    195    291    350 208.1  36.9  34172  289.77 0854.31
2009/04/23 15:49:14.0    -271   -320    104    420    433 220.2  13.9  34170  289.73 0854.31
2009/04/23 15:49:14.1    -241   -341    134    418    440 215.2  17.8  34174  289.82 0854.31
2009/04/23 15:49:14.2    -190   -298     54    354    359 212.5   8.8  34174  289.82 0854.31
2009/04/23 15:49:14.3    -208   -182     48    277    282 228.7  10.0  34176  289.83 0854.31
2009/04/23 15:49:14.4    -143    -97     12    173    174 235.8   4.2  34178  289.89 0854.31
2009/04/23 15:49:14.5     -31   -154    180    158    239 191.6  54.3  34180  289.91 0854.31
2009/04/23 15:49:14.6     -31    -44     98     55    112 215.2  68.8  34198  290.23 0854.31
2009/04/23 15:49:14.7     -31    -48    101     58    116 212.6  67.7  34210  290.43 0854.31
2009/04/23 15:49:14.8       2    -42     95     43    104 176.4  74.0  34204  290.33 0854.31
2009/04/23 15:49:14.9      50      7    131     51    140  81.2  77.1  34224  290.67 0854.31
2009/04/23 15:49:15.0     133     79    120    155    196  59.3  41.7  34210  290.43 0854.31
2009/04/23 15:49:15.1      63     41     36     76     84  56.7  27.2  34234  290.82 0854.31
2009/04/23 15:49:15.2      15     21     36     26     44  36.1  60.5  34242  290.96 0854.31
2009/04/23 15:49:15.3     -33    -40     28     53     59 219.6  30.3  34240  290.94 0854.31
2009/04/23 15:49:15.4     -30   -139    156    143    211 192.5  52.7  34204  290.33 0854.31
2009/04/23 15:49:15.5     -96   -153    -20    181    183 212.1  -6.5  34198  290.23 0854.31
2009/04/23 15:49:15.6       5   -181    -61    182    191 178.2 -23.6  34216  290.53 0854.31
2009/04/23 15:49:15.7      90   -177      3    199    200 152.8   1.0  34202  290.28 0854.31
2009/04/23 15:49:15.8     102   -205    -82    230    245 153.5 -19.7  34188  290.05 0854.31
2009/04/23 15:49:15.9     157   -254    -31    299    301 148.3  -6.1  34180  289.92 0854.31
2009/04/23 15:49:16.0     103   -480     47    491    494 167.9   5.5  34172  289.79 0854.31
2009/04/23 15:49:16.1       0   -264    255    265    367 180.0  49.0  34178  289.86 0854.31
2009/04/23 15:49:16.2     -87   -206    270    224    350 202.9  56.2  34182  289.95 0854.31
2009/04/23 15:49:16.3     -93    -31    200     99    223 251.6  71.9  34178  289.89 0854.31
2009/04/23 15:49:16.4     -41   -285    257    289    386 188.2  46.3  34174  289.82 0854.31
2009/04/23 15:49:16.5    -241   -508     77    563    569 205.4   7.8  34170  289.75 0854.31
2009/04/23 15:49:16.6    -105   -324    111    341    359 198.1  18.1  34168  289.71 0854.31
2009/04/23 15:49:16.7     -59   -385    150    390    417 188.8  22.1  34162  289.61 0854.31
2009/04/23 15:49:16.8     -38   -614    220    616    655 183.6  19.7  34162  289.62 0854.31
2009/04/23 15:49:16.9     -40   -678    246    680    724 183.4  19.9  34144  289.30 0854.31
2009/04/23 15:49:17.0     -24   -788    334    789    856 181.8  24.4  34144  289.31 0854.31
2009/04/23 15:49:17.1     -34   -796    236    797    832 182.5  16.5  34140  289.23 0854.31
2009/04/23 15:49:17.2    -219   -622    312    660    730 199.4  27.1  34150  289.40 0854.28
2009/04/23 15:49:17.3    -162   -552    280    576    640 196.4  27.8  34142  289.28 0854.28
2009/04/23 15:49:17.4    -215   -645    217    681    715 198.5  17.7  34150  289.40 0854.28
2009/04/23 15:49:17.5     171   -635    161    658    678 164.9  13.8  34150  289.41 0854.28
2009/04/23 15:49:17.6     283   -609    106    672    681 155.1   9.0  34160  289.58 0854.28
2009/04/23 15:49:17.7     277   -424    187    507    540 146.8  21.1  34158  289.55 0854.28
2009/04/23 15:49:17.8     228   -425    262    483    549 151.8  30.8  34140  289.24 0854.28
2009/04/23 15:49:17.9     207   -384    262    437    509 151.6  33.7  34150  289.39 0854.28
2009/04/23 15:49:18.0     163   -471    256    499    560 160.8  29.2  34170  289.75 0854.28
2009/04/23 15:49:18.1     100   -507    383    517    643 168.8  40.2  34196  290.17 0854.28
2009/04/23 15:49:18.2     -86   -506    249    514    571 189.7  27.8  34176  289.84 0854.28
2009/04/23 15:49:18.3      66   -388    263    394    473 170.2  37.0  34170  289.75 0854.28
2009/04/23 15:49:18.4      28   -350    312    352    470 175.3  46.2  34174  289.82 0854.28
2009/04/23 15:49:18.5      90   -329    271    342    436 164.7  42.3  34178  289.88 0854.28
2009/04/23 15:49:18.6      39   -371    219    374    433 173.9  33.1  34194  290.16 0854.28
2009/04/23 15:49:18.7      57   -309    252    315    403 169.5  42.8  34220  290.60 0854.28
2009/04/23 15:49:18.8      32   -321    305    323    444 174.2  48.2  34216  290.51 0854.28
2009/04/23 15:49:18.9     152   -369    173    400    435 157.5  25.0  34190  290.09 0854.28
2009/04/23 15:49:19.0      85   -372    181    382    422 167.0  27.2  34176  289.83 0854.28
2009/04/23 15:49:19.1     119   -524    278    538    605 167.2  29.3  34156  289.52 0854.28
2009/04/23 15:49:19.2      81   -503    307    510    595 170.8  34.0  34140  289.22 0854.30
2009/04/23 15:49:19.3      58   -481    287    485    563 173.0  33.5  34142  289.28 0854.30
2009/04/23 15:49:19.4      43   -457    279    460    537 174.6  34.1  34146  289.32 0854.30
2009/04/23 15:49:19.5     -30   -495    449    496    669 183.5  46.8  34152  289.42 0854.30
2009/04/23 15:49:19.6     -26   -530    448    531    694 182.9  44.3  34152  289.42 0854.30
2009/04/23 15:49:19.7     -73   -521    306    527    609 188.0  32.8  34162  289.59 0854.30
2009/04/23 15:49:19.8    -222   -530    218    575    614 202.7  21.8  34172  289.78 0854.30
2009/04/23 15:49:19.9     -56   -341    252    346    428 189.3  39.7  34160  289.56 0854.30
2009/04/23 15:49:20.0     -30   -322    266    324    419 185.3  43.7  34152  289.45 0854.30
2009/04/23 15:49:20.1     -78   -214    212    228    311 200.1  47.9  34160  289.58 0854.30
2009/04/23 15:49:20.2     -18   -136    138    138    195 187.6  50.1  34152  289.45 0854.30
2009/04/23 15:49:20.3     -63    -46    127     79    149 234.1  64.7  34168  289.72 0854.30
2009/04/23 15:49:20.4      25    -30    107     40    114 140.3  79.7  34160  289.57 0854.30
2009/04/23 15:49:20.5       8    278     54    279    285   1.8  11.1  34158  289.54 0854.30
2009/04/23 15:49:20.6    -340    158     18    376    377 295.0   2.8  34180  289.91 0854.30
2009/04/23 15:49:20.7    -461    193    -48    500    503 292.7  -5.6  34192  290.13 0854.30
2009/04/23 15:49:20.8    -522    251     10    580    581 295.7   1.0  34182  289.93 0854.30
2009/04/23 15:49:20.9    -351    172    -65    391    397 296.1  -9.5  34178  289.87 0854.30
2009/04/23 15:49:21.0    -387    133   -198    410    455 289.1 -32.1  34172  289.77 0854.30
2009/04/23 15:49:21.1    -517     20   -145    518    539 272.2 -15.7  34170  289.74 0854.30
2009/04/23 15:49:21.2    -330    -91   -213    343    403 254.6 -39.3  34170  289.74 0854.30
2009/04/23 15:49:21.3    -349     12   -224    350    415 272.0 -40.0  34184  289.98 0854.30
2009/04/23 15:49:21.4    -288   -118   -210    312    376 247.6 -41.7  34174  289.82 0854.30
2009/04/23 15:49:21.5    -166     25   -210    168    268 278.8 -61.5  34162  289.61 0854.30
2009/04/23 15:49:21.6     -30    150   -174    154    232 348.4 -58.4  34180  289.91 0854.30
2009/04/23 15:49:21.7     -23    142   -227    144    268 350.7 -69.1  34186  290.00 0854.30
2009/04/23 15:49:21.8       5     77   -126     78    148   4.4 -69.1  34174  289.82 0854.30
2009/04/23 15:49:21.9      64     22     13     68     70  70.9  11.1  34180  289.92 0854.30
2009/04/23 15:49:22.0      -8   -113   -105    114    154 184.5 -52.3  34184  289.97 0854.30
2009/04/23 15:49:22.1    -174    -21    -81    176    193 263.0 -31.0  34172  289.77 0854.30
2009/04/23 15:49:22.2     -50    152    -37    161    166 341.7 -12.9  34174  289.80 0854.30
2009/04/23 15:49:22.3      53     72     12     90     91  36.5   8.0  34180  289.91 0854.30
2009/04/23 15:49:22.4      82    -10    -12     83     84  97.5  -8.2  34176  289.84 0854.30
2009/04/23 15:49:22.5     107     31     49    112    122  73.6  25.1  34182  289.94 0854.30
2009/04/23 15:49:22.6     108    -83     63    137    150 127.8  27.1  34180  289.91 0854.30
2009/04/23 15:49:22.7      25   -215    -27    217    219 173.3  -7.3  34176  289.84 0854.30
2009/04/23 15:49:22.8     118   -427      8    444    445 164.5   1.1  34152  289.44 0854.30
2009/04/23 15:49:22.9     241   -465    109    524    536 152.6  11.8  34152  289.43 0854.30
2009/04/23 15:49:23.0     165   -612    -12    635    636 164.9  -1.2  34156  289.52 0854.30
2009/04/23 15:49:23.2     -66   -609     40    613    615 186.2   3.8  34166  289.69 0854.30
2009/04/23 15:49:23.3     -58   -406    -11    411    412 188.2  -1.6  34150  289.41 0854.30
2009/04/23 15:49:23.4     141   -471    -58    492    496 163.3  -6.8  34146  289.35 0854.30
2009/04/23 15:49:23.5     132   -609      7    624    625 167.7   0.7  34148  289.37 0854.30
2009/04/23 15:49:23.6      44   -582    136    584    600 175.6  13.1  34142  289.25 0854.30
2009/04/23 15:49:23.7     -44   -528     69    530    535 184.8   7.4  34148  289.36 0854.30
2009/04/23 15:49:23.8     -28   -402     21    403    404 184.1   3.0  34146  289.34 0854.30
2009/04/23 15:49:23.9     -52   -340    153    344    376 188.8  25.3  34158  289.55 0854.30
2009/04/23 15:49:24.0      -5   -352    146    353    382 180.9  23.7  34166  289.69 0854.30
2009/04/23 15:49:24.1     -46   -357    145    360    388 187.4  23.0  34166  289.67 0854.30
2009/04/23 15:49:24.2      51   -428    174    432    465 173.2  23.1  34176  289.85 0854.30
2009/04/23 15:49:24.3      -4   -430    290    431    519 180.6  37.2  34178  289.86 0854.25
2009/04/23 15:49:24.4     -78   -456    248    463    525 189.8  30.5  34178  289.86 0854.25
2009/04/23 15:49:24.5    -123   -405    294    424    515 197.0  38.0  34192  290.12 0854.25
2009/04/23 15:49:24.6    -115   -371    348    389    521 197.3  46.4  34162  289.59 0854.25
2009/04/23 15:49:24.7     -73   -319    253    328    414 192.9  41.6  34164  289.64 0854.25
2009/04/23 15:49:24.8    -135   -303    129    332    356 204.1  22.4  34154  289.47 0854.25
2009/04/23 15:49:24.9     -26   -260    212    262    337 185.8  43.3  34170  289.75 0854.25
2009/04/23 15:49:25.0      58   -292    188    298    352 168.7  35.3  34170  289.74 0854.25
2009/04/23 15:49:25.1     178   -253    103    310    327 144.8  18.5  34162  289.61 0854.25
2009/04/23 15:49:25.2     240   -276    151    367    396 139.0  23.7  34158  289.55 0854.25
2009/04/23 15:49:25.3     231   -183    101    295    312 128.4  18.9  34166  289.66 0854.25
2009/04/23 15:49:25.4     283    -93    104    298    315 108.2  20.1  34160  289.56 0854.25
2009/04/23 15:49:25.5     205   -101    132    229    264 116.4  32.4  34166  289.66 0854.25
2009/04/23 15:49:25.6      51    -90    165    104    195 150.6  64.7  34164  289.63 0854.25
2009/04/23 15:49:25.7      88   -214    146    232    274 157.7  35.5  34164  289.64 0854.25
2009/04/23 15:49:25.8      43   -194    124    199    234 167.3  35.5  34164  289.65 0854.25
2009/04/23 15:49:25.9      97   -211    165    233    285 155.3  38.6  34162  289.61 0854.25
2009/04/23 15:49:26.0      10   -256    239    257    350 177.8  47.9  34154  289.47 0854.25
2009/04/23 15:49:26.1     -40   -172    127    177    217 193.1  39.5  34164  289.65 0854.25
2009/04/23 15:49:26.2    -107   -243    180    266    321 203.8  37.3  34162  289.61 0854.25
2009/04/23 15:49:26.3    -228   -145     45    271    275 237.5   9.5  34164  289.63 0854.19
2009/04/23 15:49:26.4    -226   -141     37    267    270 238.0   8.0  34162  289.61 0854.19
2009/04/23 15:49:26.5    -228    -37    124    232    263 260.8  30.6  34164  289.64 0854.19
2009/04/23 15:49:26.6    -248     81    -14    262    263 288.2  -3.1  34174  289.81 0854.19
2009/04/23 15:49:26.7    -108   -101     77    149    167 226.9  29.5  34164  289.63 0854.19
2009/04/23 15:49:26.8    -106   -223     90    248    263 205.5  20.7  34164  289.63 0854.19
2009/04/23 15:49:26.9    -135   -214     95    254    271 212.3  21.0  34164  289.64 0854.19
2009/04/23 15:49:27.0    -142   -287     -1    321    322 206.3  -0.2  34156  289.49 0854.19
2009/04/23 15:49:27.1    -279    -18    -77    280    291 266.3 -15.5  34166  289.68 0854.19
2009/04/23 15:49:27.2    -236    -55   -151    243    286 256.7 -39.4  34164  289.64 0854.19
2009/04/23 15:49:27.3    -147     21    -18    149    151 278.4  -7.2  34158  289.53 0854.19
2009/04/23 15:49:27.4    -207   -155   -125    259    287 233.2 -31.8  34168  289.70 0854.19
2009/04/23 15:49:27.5    -401   -169   -179    436    471 247.2 -28.0  34174  289.80 0854.19
2009/04/23 15:49:27.6    -430    -59    -99    435    447 262.1 -12.9  34152  289.43 0854.19
2009/04/23 15:49:27.7    -337   -158   -151    373    402 244.9 -27.8  34178  289.87 0854.19
2009/04/23 15:49:27.8    -442   -309   -196    540    574 235.0 -25.3  34126  288.99 0854.19
2009/04/23 15:49:27.9    -608   -330   -279    692    746 241.5 -27.5  34156  289.50 0854.19
2009/04/23 15:49:28.0    -610   -345   -249    701    745 240.5 -19.6  34172  289.78 0854.19
2009/04/23 15:49:28.1    -483   -141   -302    504    587 253.7 -38.0  34136  289.18 0854.19
2009/04/23 15:49:28.2    -309   -445    -68    542    547 214.8  -7.2  34180  289.92 0854.19
2009/04/23 15:49:28.3    -175   -397   -144    435    458 203.8 -23.8  34172  289.77 0854.17
2009/04/23 15:49:28.4    -440   -202    -62    485    489 245.3  -7.3  34188  290.03 0854.17
2009/04/23 15:49:28.5    -444   -306   -109    540    551 235.4 -11.5  34184  289.99 0854.17
2009/04/23 15:49:28.6    -479   -230    -88    532    540 244.3  -9.5  34176  289.85 0854.17
2009/04/23 15:49:28.7    -448   -378     51    587    590 229.8   5.0  34178  289.88 0854.17
2009/04/23 15:49:28.8    -524   -289    -13    599    600 241.1  -1.3  34170  289.73 0854.17
2009/04/23 15:49:28.9    -455   -217     77    505    511 244.5   8.7  34172  289.79 0854.17
2009/04/23 15:49:29.0    -304   -303      1    430    431 225.1   0.2  34174  289.80 0854.17
2009/04/23 15:49:29.1    -158   -288    -43    329    332 208.9  -7.6  34166  289.67 0854.17
2009/04/23 15:49:29.2    -145   -111    106    183    211 232.5  32.9  34154  289.46 0854.17
2009/04/23 15:49:29.3    -246    -63     14    254    255 255.6   3.3  34158  289.54 0854.17
2009/04/23 15:49:29.4    -194   -136     66    238    248 234.9  15.6  34156  289.51 0854.17
2009/04/23 15:49:29.5    -265   -140    -32    300    302 242.1  -6.2  34160  289.58 0854.17
2009/04/23 15:49:29.6    -179   -114    -28    213    215 237.5  -7.7  34156  289.52 0854.17
2009/04/23 15:49:29.7     -31   -334    114    336    356 185.3  18.8  34164  289.64 0854.17
2009/04/23 15:49:29.8      73   -314     63    323    330 166.9  11.1  34158  289.54 0854.17
2009/04/23 15:49:29.9      85   -158     99    180    205 151.5  31.4  34164  289.63 0854.17
2009/04/23 15:49:30.0    -169   -299    104    344    360 209.5  16.8  34164  289.64 0854.17
2009/04/23 15:49:30.1    -270   -165    -86    317    329 238.5 -15.2  34156  289.51 0854.17
2009/04/23 15:49:30.2    -340     31    -32    342    344 275.4  -5.5  34142  289.26 0854.17
2009/04/23 15:49:30.3    -573     48   -201    576    610 274.9 -24.4  34162  289.59 0854.13
2009/04/23 15:49:30.4    -559    -24   -183    560    589 267.5 -23.2  34154  289.46 0854.13
2009/04/23 15:49:30.5    -542    -72    -99    547    556 262.4 -10.3  34160  289.57 0854.13
2009/04/23 15:49:30.6    -578   -185    202    608    641 252.2  18.4  34152  289.45 0854.13
2009/04/23 15:49:30.7    -410   -397     74    571    576 225.9   7.5  34148  289.37 0854.13
2009/04/23 15:49:30.8    -257   -402     36    478    480 212.6   4.3  34150  289.39 0854.13
2009/04/23 15:49:30.9    -249   -567    -79    620    626 203.7  -7.3  34156  289.50 0854.13
2009/04/23 15:49:31.0    -188   -507     67    542    547 200.4   7.1  34152  289.45 0854.13
2009/04/23 15:49:31.1    -168   -626    135    649    664 195.0  11.8  34144  289.31 0854.13
2009/04/23 15:49:31.2     -72   -458    121    464    480 189.0  14.7  34154  289.47 0854.13
2009/04/23 15:49:31.3    -228   -419     94    478    488 208.6  11.1  34162  289.59 0854.13
2009/04/23 15:49:31.4    -273   -388      5    475    476 215.1   0.7  34154  289.47 0854.13
2009/04/23 15:49:31.5    -358   -235   -164    429    459 236.7 -26.4  34162  289.61 0854.13
2009/04/23 15:49:31.6    -192   -255    -99    320    336 217.0 -17.3  34154  289.48 0854.13
2009/04/23 15:49:31.7    -437    -33   -282    439    521 265.7 -40.0  34176  289.83 0854.13
2009/04/23 15:49:31.8    -289   -158   -112    330    349 241.4 -18.8  34160  289.57 0854.13
2009/04/23 15:49:31.9     -74    -82   -195    111    224 222.3 -72.5  34192  290.13 0854.13
2009/04/23 15:49:32.0      19   -135   -134    137    191 171.9 -53.8  34186  290.02 0854.13
2009/04/23 15:49:32.1     145   -200    -59    248    255 144.0 -13.4  34158  289.54 0854.13
2009/04/23 15:49:32.2     216    -96    -96    237    255 114.0 -27.5  34160  289.56 0854.13
2009/04/23 15:49:32.3      98      0    -54     99    112  90.0 -35.7  34162  289.62 0854.15
2009/04/23 15:49:32.4     112    -76      1    136    137 124.2   0.8  34162  289.60 0854.15
2009/04/23 15:49:32.5      -5   -306    120    307    329 181.1  22.3  34146  289.34 0854.15
2009/04/23 15:49:32.6      79   -313    154    324    358 165.7  27.3  34146  289.35 0854.15
2009/04/23 15:49:32.7     -12   -265    157    266    308 182.6  33.4  34148  289.37 0854.15
2009/04/23 15:49:32.8     -56   -233    114    240    265 193.6  27.2  34152  289.42 0854.15
2009/04/23 15:49:32.9    -188   -349     56    397    402 208.4   8.1  34142  289.26 0854.15
2009/04/23 15:49:33.0     -76   -464     66    471    476 189.3   8.0  34146  289.34 0854.15
2009/04/23 15:49:33.1     -52   -573    163    576    599 185.2  15.8  34142  289.27 0854.15
2009/04/23 15:49:33.2     106   -446    292    459    544 166.6  35.5  34144  289.30 0854.15
2009/04/23 15:49:33.3     105   -456    247    469    530 167.0  30.1  34142  289.28 0854.15
2009/04/23 15:49:33.4     113   -265    271    289    396 156.8  48.0  34138  289.21 0854.15
2009/04/23 15:49:33.5      68   -273    140    282    314 166.0  28.4  34136  289.15 0854.15
2009/04/23 15:49:33.6     -65   -279    109    287    307 193.3  22.0  34140  289.24 0854.15
2009/04/23 15:49:33.7     -92   -280    100    295    312 198.3  18.8  34150  289.41 0854.15
2009/04/23 15:49:33.8      52   -292    142    297    329 169.8  27.3  34152  289.44 0854.15
2009/04/23 15:49:33.9     192   -363    151    411    437 152.1  21.0  34138  289.19 0854.15
2009/04/23 15:49:34.0     272   -339    242    435    497 141.3  31.5  34128  289.03 0854.15
2009/04/23 15:49:34.1     361   -229    271    428    506 122.4  35.5  34136  289.18 0854.15
2009/04/23 15:49:34.2     389    -22    165    390    423  93.3  24.3  34138  289.21 0854.15
2009/04/23 15:49:34.3     324    -70    106    332    349 102.3  17.7  34126  289.01 0854.20
2009/04/23 15:49:34.4     207   -101    200    231    305 116.0  45.4  34138  289.19 0854.20
2009/04/23 15:49:34.5       0    -61    113     62    128 179.1  68.9  34150  289.40 0854.20
2009/04/23 15:49:34.6     118    -48     55    128    139 112.2  24.6  34146  289.35 0854.20
2009/04/23 15:49:34.7     166    -17    128    167    210  96.1  41.6  34150  289.40 0854.20
2009/04/23 15:49:34.8     200     92    101    221    242  65.2  26.2  34152  289.42 0854.20
2009/04/23 15:49:34.9      88    129    125    157    200  34.2  42.7  34156  289.52 0854.20
2009/04/23 15:49:35.0     115    132    158    176    236  41.2  46.9  34154  289.46 0854.20
2009/04/23 15:49:35.1     143     81    194    165    254  60.2  55.4  34158  289.55 0854.20
2009/04/23 15:49:35.2     203     35    251    207    325  80.1  56.4  34156  289.51 0854.20
2009/04/23 15:49:35.3     126     52    303    137    332  67.4  74.0  34166  289.66 0854.20
2009/04/23 15:49:35.4       8    -51    209     52    215 171.1  86.4  34168  289.70 0854.20
2009/04/23 15:49:35.5     -16   -117    195    119    228 188.0  65.7  34164  289.65 0854.20
2009/04/23 15:49:35.6      -1     18    151     19    152 355.5  90.0  34170  289.74 0854.20
2009/04/23 15:49:35.7    -129   -403    343    424    545 197.8  43.3  34126  289.00 0854.20
2009/04/23 15:49:35.8    -130   -367    414    390    568 199.5  52.1  34134  289.12 0854.20
2009/04/23 15:49:35.9      -1   -332    350    333    483 180.2  51.6  34134  289.14 0854.20
2009/04/23 15:49:36.0     233     61    238    241    338  75.2  49.8  34152  289.42 0854.20
2009/04/23 15:49:36.1     -80   -251    362    264    448 197.8  60.5  34148  289.37 0854.20
2009/04/23 15:49:36.2    -150   -361    234    392    456 202.6  33.5  34134  289.12 0854.29
2009/04/23 15:49:36.3     -22   -124      6    127    128 190.2   2.9  34152  289.45 0854.29
2009/04/23 15:49:36.4     270    171    193    320    373  57.6  33.8  34158  289.55 0854.29
2009/04/23 15:49:36.5     289    155    141    328    357  61.8  24.8  34158  289.55 0854.29
2009/04/23 15:49:36.6     231     89    -16    248    249  68.9  -3.7  34154  289.46 0854.29
2009/04/23 15:49:36.7     174    144     11    226    227  50.4   2.8  34162  289.60 0854.29
2009/04/23 15:49:36.8     294    172    236    341    414  59.7  38.0  34200  290.25 0854.29
2009/04/23 15:49:36.9     254     73    252    265    365  74.0  48.5  34154  289.48 0854.29
2009/04/23 15:49:37.0     -38     14    224     41    227 290.8  90.0  34174  289.80 0854.29
2009/04/23 15:49:37.1    -243    -85    144    258    295 250.7  31.4  34162  289.59 0854.29
2009/04/23 15:49:37.2    -282      8     90    283    298 271.7  17.7  34166  289.68 0854.29
2009/04/23 15:49:37.3    -276     56      8    282    283 281.5   1.8  34168  289.70 0854.29
2009/04/23 15:49:37.4    -191     52    -71    199    212 285.3 -19.6  34166  289.69 0854.29
2009/04/23 15:49:37.5    -178     74    -39    193    198 292.6 -11.6  34166  289.69 0854.29
2009/04/23 15:49:37.6    -284   -201     61    349    355 234.7  10.0  34154  289.47 0854.29
2009/04/23 15:49:37.7    -282   -365    -18    462    463 217.7  -2.2  34152  289.43 0854.29
2009/04/23 15:49:37.8    -179   -424     65    461    466 202.9   8.1  34140  289.24 0854.29
2009/04/23 15:49:37.9     -42   -607     72    609    614 184.0   6.8  34140  289.22 0854.29
2009/04/23 15:49:38.0    -237   -576     38    624    626 202.4   3.5  34132  289.09 0854.29
2009/04/23 15:49:38.1    -180   -442      5    478    479 202.2   0.7  34138  289.20 0854.29
2009/04/23 15:49:38.2     -89   -370     18    381    382 193.6   2.8  34136  289.18 0854.29
2009/04/23 15:49:38.3     195   -141    146    241    281 125.9  34.2  34144  289.31 0854.29
2009/04/23 15:49:38.4     276    -81    208    288    355 106.4  39.5  34148  289.38 0854.29
2009/04/23 15:49:38.5     353     -7    265    354    442  91.2  40.7  34146  289.33 0854.29
2009/04/23 15:49:38.6     185   -401    326    442    549 155.2  40.1  34136  289.15 0854.29
2009/04/23 15:49:38.7     344   -457     57    573    576 143.0   5.7  34120  288.90 0854.29
2009/04/23 15:49:38.8     424   -377     97    568    577 131.7   9.7  34130  289.07 0854.29
2009/04/23 15:49:38.9     319   -101   -115    335    354 107.6 -24.0  34128  289.04 0854.29
2009/04/23 15:49:39.0      56    -16   -151     59    162 105.9 -82.2  34132  289.11 0854.29
2009/04/23 15:49:39.1     -44    -47     15     65     67 223.2  13.2  34118  288.87 0854.29
2009/04/23 15:49:39.2     -35   -323     88    325    337 186.3  15.3  34128  289.03 0854.29
2009/04/23 15:49:39.3     -36   -291    121    294    317 187.1  23.6  34128  289.03 0854.29
2009/04/23 15:49:39.4     -55   -250    -23    257    259 192.4  -5.2  34136  289.17 0854.29
2009/04/23 15:49:39.5     -50   -235    -52    241    247 192.0 -12.4  34146  289.34 0854.29
2009/04/23 15:49:39.6     -15   -157     54    158    168 185.6  18.9  34140  289.24 0854.29
2009/04/23 15:49:39.7     212   -288     20    358    359 143.6   3.3  34142  289.25 0854.29
2009/04/23 15:49:39.8     190   -190    110    269    290 135.0  23.4  34140  289.22 0854.29
2009/04/23 15:49:39.9     254   -101    160    274    317 111.8  33.0  34136  289.15 0854.29
2009/04/23 15:49:40.0     156   -189    156    246    291 140.4  35.5  34138  289.19 0854.29
2009/04/23 15:49:40.1      -5   -336     33    337    339 181.0   5.7  34136  289.15 0854.29
2009/04/23 15:49:40.2    -105   -195   -154    222    270 208.3 -42.4  34118  288.87 0854.28
2009/04/23 15:49:40.3     -87    112   -155    142    210 322.2 -57.1  34124  288.97 0854.28
2009/04/23 15:49:40.4      40    123     79    130    152  18.3  34.4  34130  289.06 0854.28
2009/04/23 15:49:40.5     113    165     64    201    211  34.5  17.7  34128  289.02 0854.28
2009/04/23 15:49:40.6      63    167     85    179    198  20.7  27.3  34132  289.11 0854.28
2009/04/23 15:49:40.7     -41    124    187    131    228 341.7  61.5  34124  288.97 0854.28
2009/04/23 15:49:40.8    -158    213    166    266    313 323.5  35.0  34144  289.31 0854.28
2009/04/23 15:49:40.9     -40    199    118    204    235 348.5  32.4  34140  289.24 0854.28
2009/04/23 15:49:41.0     153    126    213    199    291  50.5  52.1  34134  289.12 0854.28
2009/04/23 15:49:41.1      97     70    226    121    256  54.1  69.6  34136  289.18 0854.28
2009/04/23 15:49:41.2      44    146    166    153    225  17.0  52.5  34136  289.18 0854.32
2009/04/23 15:49:41.3      23    117    155    120    196  11.5  58.5  34136  289.16 0854.32
2009/04/23 15:49:41.4     187     35    245    191    310  79.2  58.4  34134  289.12 0854.32
2009/04/23 15:49:41.5     374   -167    183    410    448 114.1  25.7  34126  288.99 0854.32
2009/04/23 15:49:41.6     159    -82    359    180    401 117.3  71.7  34126  288.98 0854.32
2009/04/23 15:49:41.7     -13     39    207     42    211 341.5  89.1  34136  289.16 0854.32
2009/04/23 15:49:41.8     -40     37    222     55    228 313.1  86.2  34124  288.96 0854.32
2009/04/23 15:49:41.9      90     74    263    117    287  50.4  74.5  34136  289.15 0854.32
2009/04/23 15:49:42.0     173    -51    288    181    340 106.6  64.8  34124  288.95 0854.32
2009/04/23 15:49:42.1     -56     49    227     75    239 311.3  81.0  34144  289.31 0854.32
2009/04/23 15:49:42.2     -38    -90    258     98    275 203.2  78.2  34132  289.10 0854.32
2009/04/23 15:49:42.3      66     64    275     93    290  46.0  81.2  34138  289.20 0854.32
2009/04/23 15:49:42.4       5   -169    338    170    378 178.2  71.4  34128  289.02 0854.32
2009/04/23 15:49:42.5    -120   -477    371    492    616 194.2  40.7  34108  288.70 0854.32
2009/04/23 15:49:42.6    -118   -478    334    493    595 193.9  37.4  34114  288.79 0854.32
2009/04/23 15:49:42.7     -77   -501    352    507    617 188.8  38.1  34112  288.76 0854.32
2009/04/23 15:49:42.8    -268   -504    307    571    648 208.0  30.7  34110  288.72 0854.32
2009/04/23 15:49:42.9    -125   -546    180    561    590 192.9  17.8  34124  288.95 0854.32
2009/04/23 15:49:43.0    -192   -430    142    472    493 204.1  16.8  34124  288.95 0854.32
2009/04/23 15:49:43.1     -84   -210    218    227    314 201.8  48.8  34130  289.05 0854.32
2009/04/23 15:49:43.2    -137   -179    258    226    342 217.4  54.6  34130  289.07 0854.29
2009/04/23 15:49:43.3    -139   -227    142    267    302 211.4  30.3  34126  289.00 0854.29
2009/04/23 15:49:43.4     -89   -124     85    153    175 215.6  31.6  34126  289.01 0854.29
2009/04/23 15:49:43.5    -207   -282    168    350    388 216.3  27.3  34122  288.93 0854.29
2009/04/23 15:49:43.6    -257   -266     38    371    374 224.0   6.0  34104  288.64 0854.29
2009/04/23 15:49:43.7    -202   -196      4    282    283 225.8   0.8  34106  288.65 0854.29
2009/04/23 15:49:43.8    -246    -80    -14    259    260 251.8  -3.2  34112  288.75 0854.29
2009/04/23 15:49:43.9    -365     79    111    374    391 282.3  16.5  34138  289.20 0854.29
2009/04/23 15:49:44.0    -354     98    122    368    388 285.5  18.4  34156  289.50 0854.29
2009/04/23 15:49:44.1    -428   -119    -17    445    446 254.4  -2.2  34140  289.24 0854.29
2009/04/23 15:49:44.2    -504   -187    -54    538    541 249.6  -5.8  34146  289.35 0854.29
2009/04/23 15:49:44.3    -487   -327    159    587    609 236.1  15.2  34146  289.34 0854.29
2009/04/23 15:49:44.4    -317     -8    153    318    352 268.5  27.4  34138  289.21 0854.29
2009/04/23 15:49:44.5    -502    124     11    518    519 283.9   1.2  34126  289.01 0854.29
2009/04/23 15:49:44.6    -611    184   -108    639    649 286.8  -9.6  34136  289.16 0854.29
2009/04/23 15:49:44.7    -669    164    -62    689    692 283.8  -5.2  34134  289.14 0854.29
2009/04/23 15:49:44.8    -535    168     76    561    567 287.5   7.8  34144  289.31 0854.29
2009/04/23 15:49:44.9    -624    132   -207    639    672 282.0 -18.0  34116  288.82 0854.29
2009/04/23 15:49:45.0    -624     65   -269    628    683 276.0 -29.0  34120  288.88 0854.29
2009/04/23 15:49:45.1    -545    208    -68    584    589 290.9  -6.7  34152  289.44 0854.29
2009/04/23 15:49:45.2    -514    215   -240    558    607 292.7 -29.3  34136  289.15 0854.27
2009/04/23 15:49:45.3    -552    250   -191    607    637 294.4 -17.5  34138  289.21 0854.27
2009/04/23 15:49:45.4    -587    251   -202    639    671 293.2 -17.5  34124  288.95 0854.27
2009/04/23 15:49:45.5    -768   -155   -235    784    818 258.6 -21.6  34138  289.20 0854.27
2009/04/23 15:49:45.6    -804   -238   -240    839    872 253.5 -20.7  34136  289.17 0854.27
2009/04/23 15:49:45.7    -726   -221   -277    760    808 253.1 -25.3  34106  288.66 0854.27
2009/04/23 15:49:45.8    -677   -123   -233    689    727 259.7 -23.8  34104  288.62 0854.27
2009/04/23 15:49:45.9    -594   -223    -43    635    637 249.4  -3.9  34128  289.03 0854.27
2009/04/23 15:49:46.0    -202   -277   -103    344    360 216.1 -16.7  34142  289.25 0854.27
2009/04/23 15:49:46.1      -7   -378   -124    379    398 181.2 -23.3  34154  289.47 0854.27
2009/04/23 15:49:46.2    -158   -266    108    310    329 210.7  19.2  34166  289.66 0854.27
2009/04/23 15:49:46.3    -181   -359     44    403    406 206.7   6.4  34158  289.53 0854.27
2009/04/23 15:49:46.4    -202   -480   -169    521    547 202.8 -23.0  34112  288.77 0854.27
2009/04/23 15:49:46.5    -139   -534   -204    552    588 194.7 -25.7  34118  288.85 0854.27
2009/04/23 15:49:46.6     166   -316   -154    358    389 152.3 -29.2  34130  289.06 0854.27
2009/04/23 15:49:46.7     118   -249     14    276    277 154.7   2.9  34134  289.12 0854.27
2009/04/23 15:49:46.8     -84   -195    -72    213    225 203.4 -18.7  34114  288.79 0854.27
2009/04/23 15:49:46.9    -280   -404   -160    492    518 214.7 -18.0  34124  288.95 0854.27
2009/04/23 15:49:47.0    -329   -349   -161    480    507 223.3 -18.6  34114  288.78 0854.27
2009/04/23 15:49:47.1    -205   -292     -5    357    358 215.1  -0.9  34116  288.84 0854.27
2009/04/23 15:49:47.2     -77   -269    133    280    309 196.1  27.2  34124  288.95 0854.23
2009/04/23 15:49:47.3      29   -313    299    315    434 174.7  48.5  34120  288.91 0854.23
2009/04/23 15:49:47.4      91   -445    252    455    520 168.4  31.4  34116  288.84 0854.23
2009/04/23 15:49:47.5     138   -433    122    455    472 162.3  15.0  34130  289.08 0854.23
2009/04/23 15:49:47.6     191   -356     20    405    406 151.8   2.9  34128  289.04 0854.23
2009/04/23 15:49:47.7     284   -377    -13    473    474 143.0  -1.6  34124  288.95 0854.23
2009/04/23 15:49:47.8     108   -326   -120    344    364 161.5 -24.4  34128  289.03 0854.23
2009/04/23 15:49:47.9      32   -371   -206    373    426 175.0 -35.8  34126  289.00 0854.23
2009/04/23 15:49:48.0      18   -393   -247    394    465 177.3 -39.7  34122  288.94 0854.23
2009/04/23 15:49:48.1    -125   -487   -388    503    635 194.4 -45.9  34116  288.83 0854.23
2009/04/23 15:49:48.2     -18   -581   -171    582    607 181.8 -16.4  34128  289.02 0854.23
2009/04/23 15:49:48.3      63   -579   -160    583    605 173.8 -15.4  34136  289.17 0854.23
2009/04/23 15:49:48.4      49   -564   -162    567    590 175.0 -16.0  34138  289.19 0854.23
2009/04/23 15:49:48.5     201   -482    -80    523    530 157.3  -8.7  34110  288.74 0854.23
2009/04/23 15:49:48.6     281   -481    -50    558    561 149.7  -5.2  34112  288.77 0854.23
2009/04/23 15:49:48.7     192   -576    -84    608    614 161.5  -7.9  34114  288.78 0854.23
2009/04/23 15:49:48.8     278   -458    -83    536    543 148.7  -8.8  34120  288.91 0854.23
2009/04/23 15:49:48.9     -17   -550    -50    551    554 181.8  -5.2  34116  288.82 0854.23
2009/04/23 15:49:49.0       3   -436     13    437    438 179.5   1.8  34120  288.89 0854.23
2009/04/23 15:49:49.1      47   -692    -57    694    697 176.1  -4.7  34110  288.73 0854.23
2009/04/23 15:49:49.2      29   -644    -70    645    649 177.4  -6.3  34110  288.71 0854.25
2009/04/23 15:49:49.3     -14   -693    -22    694    695 181.2  -1.9  34106  288.65 0854.25
2009/04/23 15:49:49.4    -262   -608     51    663    666 203.3   4.5  34132  289.10 0854.25
2009/04/23 15:49:49.5    -260   -615    -52    668    671 202.9  -4.5  34130  289.07 0854.25
2009/04/23 15:49:49.6    -273   -604    -59    663    666 204.3  -5.1  34118  288.87 0854.25
2009/04/23 15:49:49.7    -232   -552    -39    599    601 202.8  -3.8  34104  288.61 0854.25
2009/04/23 15:49:49.8    -195   -570    -99    603    612 199.0  -9.4  34104  288.61 0854.25
2009/04/23 15:49:49.9    -171   -562   -162    588    610 197.0 -15.4  34092  288.42 0854.25
2009/04/23 15:49:50.0     -53   -490    -84    493    501 186.2  -9.7  34096  288.49 0854.25
2009/04/23 15:49:50.1      -8   -452   -125    453    471 181.1 -15.5  34096  288.50 0854.25
2009/04/23 15:49:50.2      60   -397    -54    402    406 171.4  -7.7  34094  288.46 0854.25
2009/04/23 15:49:50.3      30   -366      5    368    369 175.2   0.8  34092  288.42 0854.25
2009/04/23 15:49:50.4     -15   -329    -42    330    333 182.7  -7.3  34096  288.49 0854.25
2009/04/23 15:49:50.5       3   -327    -12    328    329 179.4  -2.2  34094  288.46 0854.25
2009/04/23 15:49:50.6     -27   -347     -7    349    350 184.5  -1.2  34096  288.49 0854.25
2009/04/23 15:49:50.7     -81   -304    -78    315    325 195.1 -14.1  34098  288.51 0854.25
2009/04/23 15:49:50.8     -29   -259    -72    261    271 186.5 -15.5  34100  288.54 0854.25
2009/04/23 15:49:51.0    -136   -438   -157    459    485 197.3 -23.9  34104  288.61 0854.25
2009/04/23 15:49:51.1    -213   -286    -91    357    369 216.7 -14.4  34120  288.91 0854.25
2009/04/23 15:49:51.2     -78   -414    -69    422    428 190.7  -9.4  34118  288.85 0854.25
2009/04/23 15:49:51.3     -13   -294    133    295    323 182.6  26.0  34106  288.66 0854.16
2009/04/23 15:49:51.4     -14   -318     86    319    331 182.6  15.1  34116  288.81 0854.16
2009/04/23 15:49:51.5     -76   -368    121    376    396 191.8  17.9  34118  288.86 0854.16
2009/04/23 15:49:51.6     -51   -361     80    365    374 188.1  12.5  34104  288.64 0854.16
2009/04/23 15:49:51.7     -84   -395    147    404    429 192.0  20.9  34100  288.55 0854.16
2009/04/23 15:49:51.8     -28   -257    173    259    311 186.2  36.7  34112  288.76 0854.16
2009/04/23 15:49:51.9     -16   -322    -10    323    324 182.9  -1.9  34102  288.58 0854.16
2009/04/23 15:49:52.0     -56   -304   -107    310    329 190.5 -19.1  34104  288.61 0854.16
2009/04/23 15:49:52.1    -115   -362   -137    380    403 197.7 -25.1  34100  288.57 0854.16
2009/04/23 15:49:52.2    -101   -286   -114    304    324 199.6 -25.9  34108  288.68 0854.16
2009/04/23 15:49:52.3     -90   -226   -156    244    289 201.9 -40.0  34106  288.66 0854.16
2009/04/23 15:49:52.4    -187    -88    -90    207    225 244.8 -29.5  34130  289.08 0854.16
2009/04/23 15:49:52.5    -329    -49   -284    333    437 261.5 -49.2  34126  288.99 0854.16
2009/04/23 15:49:52.6    -386     99   -148    399    425 284.4 -25.5  34130  289.05 0854.16
2009/04/23 15:49:52.7    -238     19    -82    239    252 274.8 -23.6  34130  289.05 0854.16
2009/04/23 15:49:52.8      55    -50    -88     75    115 132.2 -60.2  34138  289.21 0854.16
2009/04/23 15:49:52.9     133   -159    -47    208    214 139.9 -12.9  34116  288.84 0854.16
2009/04/23 15:49:53.0     126    -99    -79    161    179 128.2 -32.4  34118  288.86 0854.16
2009/04/23 15:49:53.1     125   -172    -11    213    214 144.0  -3.2  34116  288.82 0854.16
2009/04/23 15:49:53.2      66   -172    -23    185    187 159.1  -7.3  34120  288.91 0854.16
2009/04/23 15:49:53.3      51    -47   -148     70    163 133.2 -77.3  34138  289.19 0854.21
2009/04/23 15:49:53.4      11    -96   -129     97    161 172.9 -63.6  34132  289.09 0854.21
2009/04/23 15:49:53.5      -1    -94   -127     95    158 180.9 -63.8  34126  288.99 0854.21
2009/04/23 15:49:53.6     137    -27    -33    140    144 101.5 -13.4  34130  289.08 0854.21
2009/04/23 15:49:53.7     165    -77     10    183    184 115.1   3.1  34126  288.99 0854.21
2009/04/23 15:49:53.8     191   -191    123    271    297 134.9  26.2  34130  289.05 0854.21
2009/04/23 15:49:53.9      47   -235    126    240    271 168.5  30.2  34126  289.00 0854.21
2009/04/23 15:49:54.0     -65   -289    -38    297    300 192.7  -7.3  34130  289.05 0854.21
2009/04/23 15:49:54.1      79   -169    -58    187    195 154.7 -22.3  34130  289.08 0854.21
2009/04/23 15:49:54.2      82   -142    -56    165    174 149.9 -23.3  34132  289.11 0854.21
2009/04/23 15:49:54.3      55    -61    -24     83     87 138.1 -16.6  34124  288.96 0854.21
2009/04/23 15:49:54.4     -11    -55    -53     57     77 191.6 -52.4  34134  289.13 0854.21
2009/04/23 15:49:54.5     -96    -61      3    115    116 237.5   1.8  34130  289.06 0854.21
2009/04/23 15:49:54.6    -209   -133    -32    249    252 237.5  -7.3  34128  289.03 0854.21
2009/04/23 15:49:54.7    -256   -136    111    291    311 242.0  22.0  34134  289.12 0854.21
2009/04/23 15:49:54.8     -23    -49    235     55    241 205.4  86.9  34154  289.48 0854.21
2009/04/23 15:49:54.9     -70   -260    165    270    316 195.1  34.3  34132  289.10 0854.21
2009/04/23 15:49:55.0     -32   -231    193    234    303 188.0  43.7  34130  289.05 0854.21
2009/04/23 15:49:55.1     -88   -289    180    303    352 197.0  33.5  34122  288.94 0854.21
2009/04/23 15:49:55.2     -85   -279    265    292    394 196.9  46.9  34124  288.96 0854.21
2009/04/23 15:49:55.3      49   -176    175    183    253 164.2  49.0  34136  289.15 0854.16
2009/04/23 15:49:55.4      70   -212    143    224    265 161.7  35.6  34134  289.14 0854.16
2009/04/23 15:49:55.5      -3   -280    139    281    313 180.7  28.4  34128  289.03 0854.16
2009/04/23 15:49:55.6       6   -195    190    196    272 178.0  49.2  34136  289.17 0854.16
2009/04/23 15:49:55.7      50   -291    226    296    372 170.2  41.3  34152  289.42 0854.16
2009/04/23 15:49:55.8      42   -193    249    198    318 167.7  57.7  34150  289.39 0854.16
2009/04/23 15:49:55.9      96   -357    281    370    464 164.9  41.1  34134  289.14 0854.16
2009/04/23 15:49:56.0     -14   -316    304    317    439 182.7  49.0  34140  289.24 0854.16
2009/04/23 15:49:56.1       7   -206    236    207    313 178.0  54.4  34140  289.24 0854.16
2009/04/23 15:49:56.2      39   -126    126    133    183 162.6  48.5  34138  289.21 0854.16
2009/04/23 15:49:56.3     -67   -150     77    165    182 204.1  27.0  34132  289.11 0854.16
2009/04/23 15:49:56.4     127     66     79    144    164  62.5  31.4  34140  289.24 0854.16
2009/04/23 15:49:56.5     209     16    198    210    288  85.4  48.2  34140  289.24 0854.16
2009/04/23 15:49:56.6     185    -13    147    186    237  94.1  42.4  34132  289.11 0854.16
2009/04/23 15:49:56.7     -19   -182    227    184    292 186.2  56.9  34134  289.12 0854.16
2009/04/23 15:49:56.8      -6   -188    163    189    249 182.0  45.1  34136  289.16 0854.16
2009/04/23 15:49:56.9      73   -270    119    280    304 164.8  24.6  34130  289.07 0854.16
2009/04/23 15:49:57.0      64   -148     92    162    186 156.4  31.9  34134  289.13 0854.16
2009/04/23 15:49:57.1      88    -86     99    124    158 134.4  42.7  34138  289.21 0854.16
2009/04/23 15:49:57.2     152     -4    112    153    189  91.7  39.7  34136  289.16 0854.16
2009/04/23 15:49:57.3     199     -3    169    200    261  90.9  44.5  34136  289.17 0854.20
2009/04/23 15:49:57.4     220    -14    100    221    242  93.7  25.9  34138  289.20 0854.20
2009/04/23 15:49:57.5     279     52    104    284    302  79.4  21.0  34130  289.05 0854.20
2009/04/23 15:49:57.6     280     47    157    284    324  80.4  31.3  34132  289.09 0854.20
2009/04/23 15:49:57.7     247     70    160    257    302  74.0  35.2  34138  289.19 0854.20
2009/04/23 15:49:57.8     216     80    185    231    295  69.6  43.0  34140  289.22 0854.20
2009/04/23 15:49:57.9     327     69    188    335    384  78.1  31.6  34148  289.38 0854.20
2009/04/23 15:49:58.0     256     53    194    262    326  78.1  40.2  34150  289.41 0854.20
2009/04/23 15:49:58.1     233      3     81    234    248  89.1  19.2  34138  289.20 0854.20
2009/04/23 15:49:58.2     165   -110    -70    199    212 123.7 -19.4  34140  289.23 0854.20
2009/04/23 15:49:58.3      95    -20    148     98    177 101.9  63.4  34140  289.24 0854.20
2009/04/23 15:49:58.4      38     26    140     47    147  55.8  81.0  34150  289.41 0854.20
2009/04/23 15:49:58.5    -100   -133    159    167    230 217.0  48.5  34136  289.16 0854.20
2009/04/23 15:49:58.6     -16   -160    272    161    316 185.8  66.9  34144  289.31 0854.20
2009/04/23 15:49:58.7     -48   -185    175    192    259 194.5  47.1  34148  289.36 0854.20
2009/04/23 15:49:58.8       0   -326    173    327    369 180.0  30.3  34130  289.06 0854.20
2009/04/23 15:49:58.9      -5   -231    230    232    326 181.4  50.0  34132  289.09 0854.20
2009/04/23 15:49:59.0     -34   -203    220    206    301 189.7  52.1  34134  289.12 0854.20
2009/04/23 15:49:59.1      -3   -195    235    196    306 180.9  56.3  34144  289.31 0854.20
2009/04/23 15:49:59.2      42   -226    202    231    306 169.3  45.8  34138  289.19 0854.20
2009/04/23 15:49:59.3      19   -175    164    177    241 173.8  47.9  34146  289.35 0854.20
2009/04/23 15:49:59.4      68   -222    205    233    310 162.8  45.8  34152  289.42 0854.20
2009/04/23 15:49:59.5     -41   -302    267    305    405 187.8  45.8  34146  289.33 0854.20
2009/04/23 15:49:59.6     -44   -312    233    316    392 188.1  40.1  34136  289.15 0854.20
2009/04/23 15:49:59.7     -62   -308    297    315    432 191.5  48.0  34154  289.47 0854.20
2009/04/23 15:49:59.8     -39   -266    291    269    396 188.5  52.5  34156  289.50 0854.20
2009/04/23 15:49:59.9       0   -296    279    297    407 180.0  48.0  34138  289.20 0854.20
2009/04/23 15:50:00.0       0   -254    190    255    318 180.0  40.4  34142  289.27 0854.20
2009/04/23 15:50:00.1     -88   -266    242    281    370 198.3  45.2  34140  289.23 0854.20
2009/04/23 15:50:00.2     -79    -85    162    117    199 222.8  60.6  34142  289.28 0854.20
2009/04/23 15:50:00.3     -32    189     37    192    196 350.4  11.0  34156  289.52 0854.20
2009/04/23 15:50:00.4     157     69     -6    172    173  66.3  -2.2  34150  289.41 0854.20
2009/04/23 15:50:00.5     112     -1     -4    113    114  90.8  -2.2  34146  289.35 0854.20
2009/04/23 15:50:00.6      74    122    -24    143    146  31.2  -9.8  34152  289.45 0854.20
2009/04/23 15:50:00.7     -26    185    125    187    224 351.8  37.0  34154  289.46 0854.20
2009/04/23 15:50:00.8     -50    107     88    119    148 334.7  39.7  34156  289.52 0854.20
2009/04/23 15:50:00.9    -154    -16     -8    155    156 263.9  -3.3  34156  289.52 0854.20
2009/04/23 15:50:01.0    -160    125     72    204    216 308.0  20.2  34152  289.45 0854.20
2009/04/23 15:50:01.1    -109     79     98    135    166 306.0  39.9  34162  289.60 0854.20
2009/04/23 15:50:01.2    -120     62    132    136    189 297.5  49.4  34164  289.65 0854.20
2009/04/23 15:50:01.3    -168      0     86    169    189 269.9  28.7  34152  289.43 0854.22
2009/04/23 15:50:01.4    -126    101    140    162    214 308.6  45.4  34158  289.55 0854.22
2009/04/23 15:50:01.5     -96    106    104    144    177 317.7  39.5  34152  289.45 0854.22
2009/04/23 15:50:01.6     -48    226    150    232    276 348.0  36.0  34162  289.61 0854.22
2009/04/23 15:50:01.7     -95    130     71    162    176 323.9  25.1  34166  289.69 0854.22
2009/04/23 15:50:01.8     -84     28    124     89    152 288.6  60.6  34174  289.82 0854.22
2009/04/23 15:50:01.9     -33    -53    105     63    122 212.5  66.7  34188  290.04 0854.22
2009/04/23 15:50:02.0    -120    -87     51    149    158 234.0  19.2  34168  289.72 0854.22
2009/04/23 15:50:02.1    -118    -66    -17    136    138 240.7  -7.3  34160  289.57 0854.22
2009/04/23 15:50:02.2     -45   -111     -2    121    122 202.3  -1.3  34158  289.55 0854.22
2009/04/23 15:50:02.3     -10   -131     -1    132    133 184.4  -0.7  34164  289.63 0854.22
2009/04/23 15:50:02.4       1    -98    -31     99    104 179.1 -17.6  34130  289.08 0854.22
2009/04/23 15:50:02.5      24   -166    -33    168    172 171.8 -11.1  34134  289.14 0854.22
2009/04/23 15:50:02.6     -38   -175    -19    180    182 192.5  -6.2  34138  289.21 0854.22
2009/04/23 15:50:02.7      -5   -162     16    163    164 181.8   5.9  34136  289.18 0854.22
2009/04/23 15:50:02.8     -37   -118     41    124    131 197.8  18.4  34180  289.92 0854.22
2009/04/23 15:50:02.9     -31    -48     76     58     95 212.5  58.5  34202  290.28 0854.22
2009/04/23 15:50:03.0     161    -12    155    162    224  94.3  48.7  34262  291.32 0854.22
2009/04/23 15:50:03.1      29     42    140     52    149  35.2  79.2  34288  291.76 0854.22
2009/04/23 15:50:03.2     -39      0    181     40    185 270.8  88.2  34296  291.89 0854.22
2009/04/23 15:50:03.3    -108    -92    136    142    196 229.6  48.7  34288  291.76 0854.22
2009/04/23 15:50:03.4     -92   -144    176    172    246 212.7  50.7  34238  290.91 0854.22
2009/04/23 15:50:03.5     -99   -283    197    301    359 199.4  36.3  34222  290.62 0854.22
2009/04/23 15:50:03.6     -39   -326    240    329    407 187.0  39.7  34212  290.45 0854.22
2009/04/23 15:50:03.7      -7   -255    300    256    394 181.8  55.3  34188  290.06 0854.22
2009/04/23 15:50:03.8      -4   -271    282    272    391 180.9  51.2  34172  289.79 0854.22
2009/04/23 15:50:03.9      80   -431    354    439    563 169.4  43.0  34160  289.58 0854.22
2009/04/23 15:50:04.0      21   -468    308    469    561 177.4  36.5  34186  290.01 0854.22
2009/04/23 15:50:04.1     -31   -619    318    620    696 182.9  29.3  34246  291.04 0854.22
2009/04/23 15:50:04.2    -130   -545    130    561    576 193.4  13.1  34226  290.68 0854.26
2009/04/23 15:50:04.3    -465   -641    216    792    822 216.0  15.3  34196  290.18 0854.26
2009/04/23 15:50:04.4    -441   -547     91    704    710 218.9   7.4  34162  289.59 0854.26
2009/04/23 15:50:04.5    -376   -582    108    693    702 212.9   8.9  34202  290.30 0854.26
2009/04/23 15:50:04.6    -299   -587     63    659    663 207.0   5.5  34184  289.97 0854.26
2009/04/23 15:50:04.7    -493   -564   -105    750    758 221.2  -8.0  34158  289.53 0854.26
2009/04/23 15:50:04.8    -460   -579      4    740    741 218.5   0.4  34188  290.06 0854.26
2009/04/23 15:50:04.9    -519   -566   -138    769    782 222.5 -10.2  34104  288.63 0854.26
2009/04/23 15:50:05.0    -412   -386   -119    565    578 226.9 -11.9  34138  289.20 0854.26
2009/04/23 15:50:05.1    -795   -617   -141   1007   1018 232.2  -8.0  34116  288.84 0854.26
2009/04/23 15:50:05.2    -675   -443   -251    808    847 236.7 -17.3  34130  289.06 0854.26
2009/04/23 15:50:05.3    -896   -650   -231   1108   1132 234.0 -11.8  34102  288.59 0854.26
2009/04/23 15:50:05.4    -727   -410   -185    835    856 240.6 -12.5  34116  288.82 0854.26
2009/04/23 15:50:05.5    -671   -603    -50    903    905 228.1  -3.2  34124  288.95 0854.26
2009/04/23 15:50:05.6    -777   -508     -4    929    930 236.8  -0.3  34154  289.46 0854.26
2009/04/23 15:50:05.7    -710   -415   -188    823    845 239.7 -12.9  34090  288.39 0854.26
2009/04/23 15:50:05.8    -521   -541    183    752    774 223.9  13.7  34138  289.21 0854.26
2009/04/23 15:50:05.9    -559   -324     73    647    652 239.9   6.5  34142  289.25 0854.26
2009/04/23 15:50:06.0    -423   -318   -102    530    540 233.0 -10.9  34134  289.14 0854.26
2009/04/23 15:50:06.1    -253   -547     78    603    609 204.8   7.4  34146  289.32 0854.26
2009/04/23 15:50:06.2    -245   -560    163    612    634 203.6  14.9  34130  289.08 0854.23
2009/04/23 15:50:06.3    -326   -413     94    527    536 218.3  10.1  34144  289.31 0854.23
2009/04/23 15:50:06.4    -364   -416    193    553    586 221.2  19.3  34136  289.15 0854.23
2009/04/23 15:50:06.5    -349   -461    214    579    617 217.1  21.1  34132  289.10 0854.23
2009/04/23 15:50:06.6    -423   -409    186    589    618 226.0  17.5  34132  289.10 0854.23
2009/04/23 15:50:06.7    -291   -376    269    476    546 217.8  32.0  34144  289.31 0854.23
2009/04/23 15:50:06.8    -189   -336    310    386    495 209.4  42.9  34152  289.44 0854.23
2009/04/23 15:50:06.9    -312   -283    207    422    470 227.8  28.1  34186  290.02 0854.23
2009/04/23 15:50:07.0    -324   -505     30    601    602 212.7   2.9  34146  289.32 0854.23
2009/04/23 15:50:07.1    -337   -439    -60    554    558 217.5  -6.2  34148  289.36 0854.23
2009/04/23 15:50:07.2    -369   -215   -123    428    445 239.8 -20.8  34152  289.43 0854.23
2009/04/23 15:50:07.3    -137   -145    -31    200    203 223.3  -8.8  34156  289.50 0854.23
2009/04/23 15:50:07.4    -328   -270    -86    426    435 230.5 -11.5  34136  289.16 0854.23
2009/04/23 15:50:07.5    -285   -181    -91    338    351 237.6 -15.2  34148  289.38 0854.23
2009/04/23 15:50:07.6    -290   -334    -96    443    454 220.9 -12.3  34150  289.39 0854.23
2009/04/23 15:50:07.7    -400   -226   -165    460    490 240.5 -19.8  34150  289.40 0854.23
2009/04/23 15:50:07.8    -366   -196    113    416    432 241.9  15.3  34162  289.61 0854.23
2009/04/23 15:50:07.9    -270     49     33    275    278 280.4   6.9  34174  289.80 0854.23
2009/04/23 15:50:08.0    -185    -16     -9    186    187 265.0  -2.8  34176  289.84 0854.23
2009/04/23 15:50:08.1     -48    -45   -108     67    127 226.9 -69.1  34180  289.91 0854.23
2009/04/23 15:50:08.2     -77    -72   -130    106    167 226.8 -60.8  34180  289.91 0854.19
2009/04/23 15:50:08.3    -198    -79   -204    214    295 248.3 -52.9  34148  289.37 0854.19
2009/04/23 15:50:08.4    -345    -63   -245    351    428 259.5 -42.8  34156  289.49 0854.19
2009/04/23 15:50:08.5     -30   -110   -249    115    274 195.6 -77.9  34158  289.54 0854.19
2009/04/23 15:50:08.6     -10   -241   -206    242    317 182.6 -49.2  34146  289.34 0854.19
2009/04/23 15:50:08.7    -136   -556   -147    573    592 193.8 -14.4  34140  289.22 0854.19
2009/04/23 15:50:08.8    -301   -815   -133    870    881 200.3  -8.7  34126  289.00 0854.19
2009/04/23 15:50:08.9    -224   -586   -116    628    639 200.9 -10.5  34136  289.18 0854.19
2009/04/23 15:50:09.0    -220   -305   -107    377    393 215.9 -15.9  34144  289.30 0854.19
2009/04/23 15:50:09.1    -244   -385    -82    456    464 212.4 -10.3  34140  289.22 0854.19
2009/04/23 15:50:09.2    -131   -305     78    333    343 203.3  13.2  34154  289.47 0854.19
2009/04/23 15:50:09.3    -380   -346    -81    515    522 227.7  -9.0  34110  288.71 0854.19
2009/04/23 15:50:09.4    -401   -414   -142    577    595 224.1 -13.9  34114  288.80 0854.19
2009/04/23 15:50:09.5    -179   -648     61    673    676 195.5   5.2  34142  289.27 0854.19
2009/04/23 15:50:09.6     -84   -593    105    600    610 188.1  10.0  34144  289.30 0854.19
2009/04/23 15:50:09.7    -140   -449    -14    471    472 197.3  -1.7  34130  289.05 0854.19
2009/04/23 15:50:09.8    -174   -350    107    392    407 206.5  15.3  34138  289.21 0854.19
2009/04/23 15:50:09.9    -198   -292    112    354    372 214.2  17.5  34140  289.23 0854.19
2009/04/23 15:50:10.0    -478   -331   -137    582    598 235.3 -13.3  34116  288.81 0854.19
2009/04/23 15:50:10.1    -458   -326   -190    563    594 234.5 -23.7  34102  288.58 0854.19
2009/04/23 15:50:10.2    -410   -385   -147    563    582 226.8 -14.7  34108  288.70 0854.20
2009/04/23 15:50:10.3    -464   -193   -227    503    551 247.4 -30.4  34096  288.50 0854.20
2009/04/23 15:50:10.4    -405   -109   -272    420    500 254.9 -40.3  34096  288.49 0854.20
2009/04/23 15:50:10.5    -290   -212   -192    360    408 233.9 -34.7  34110  288.72 0854.20
2009/04/23 15:50:10.6     -42   -208   -181    213    279 191.6 -49.2  34120  288.90 0854.20
2009/04/23 15:50:10.7     -31   -210    -64    213    222 188.5 -21.7  34138  289.21 0854.20
2009/04/23 15:50:10.8     -49   -367    -33    371    373 187.7  -5.2  34130  289.08 0854.20
2009/04/23 15:50:10.9    -137   -137   -173    195    260 225.0 -50.8  34136  289.17 0854.20
2009/04/23 15:50:11.0    -334   -309   -196    456    496 227.2 -29.0  34114  288.78 0854.20
2009/04/23 15:50:11.1    -215   -235   -163    319    358 222.4 -33.6  34108  288.69 0854.20
2009/04/23 15:50:11.2    -273   -206   -164    343    380 232.9 -31.7  34106  288.67 0854.20
2009/04/23 15:50:11.3    -332   -238   -209    409    459 234.4 -33.6  34102  288.60 0854.20
2009/04/23 15:50:11.4    -211   -218   -207    304    367 224.1 -42.0  34100  288.57 0854.20
2009/04/23 15:50:11.5    -159   -173   -156    236    282 222.5 -40.9  34108  288.68 0854.20
2009/04/23 15:50:11.6    -156    -76   -210    174    272 243.8 -60.7  34110  288.73 0854.20
2009/04/23 15:50:11.7    -191    -60   -207    201    288 252.5 -55.1  34112  288.75 0854.20
2009/04/23 15:50:11.8    -236   -171   -242    292    379 234.0 -48.2  34112  288.76 0854.20
2009/04/23 15:50:11.9    -187   -226   -233    294    375 219.6 -46.8  34110  288.71 0854.20
2009/04/23 15:50:12.0    -142   -321   -170    352    390 203.8 -32.2  34096  288.49 0854.20
2009/04/23 15:50:12.1    -119   -384   -128    403    422 197.3 -22.8  34114  288.80 0854.20
2009/04/23 15:50:12.2    -187   -456   -156    493    518 202.3 -17.6  34130  289.05 0854.15
2009/04/23 15:50:12.3    -140   -404    -79    428    436 199.2 -10.5  34126  289.00 0854.15
2009/04/23 15:50:12.4    -256   -349    -55    434    438 216.3  -7.3  34128  289.04 0854.15
2009/04/23 15:50:12.5    -295   -314    -79    431    439 223.2 -10.4  34136  289.17 0854.15
2009/04/23 15:50:12.6    -325   -313   -106    452    465 226.1 -13.3  34114  288.78 0854.15
2009/04/23 15:50:12.7    -311   -332    -57    455    459 223.1  -7.2  34116  288.83 0854.15
2009/04/23 15:50:12.8    -259   -284   -107    385    399 222.3 -20.3  34110  288.71 0854.15
2009/04/23 15:50:12.9    -228   -234   -110    327    345 224.2 -23.5  34118  288.86 0854.15
2009/04/23 15:50:13.0    -262   -211   -151    337    369 231.1 -30.2  34116  288.84 0854.15
2009/04/23 15:50:13.1    -281   -201   -156    346    379 234.4 -30.3  34120  288.88 0854.15
2009/04/23 15:50:13.2    -257   -234   -124    348    369 227.7 -24.7  34110  288.72 0854.15
2009/04/23 15:50:13.3    -295   -191   -146    352    381 237.1 -28.2  34132  289.10 0854.15
2009/04/23 15:50:13.4    -313   -279   -119    420    437 228.2 -15.9  34186  290.02 0854.15
2009/04/23 15:50:13.5    -325   -292   -102    438    450 228.1 -13.1  34132  289.11 0854.15
2009/04/23 15:50:13.6    -354   -196   -128    405    424 241.0 -22.6  34116  288.83 0854.15
2009/04/23 15:50:13.7    -428   -197   -155    472    496 245.3 -23.3  34120  288.88 0854.15
2009/04/23 15:50:13.8    -391   -232   -148    455    478 239.3 -23.2  34140  289.22 0854.15
2009/04/23 15:50:13.9    -443   -278   -154    524    547 237.9 -16.4  34134  289.13 0854.15
2009/04/23 15:50:14.0    -256   -352   -122    436    452 216.1 -20.2  34152  289.44 0854.15
2009/04/23 15:50:14.1    -234   -457    -72    514    520 207.1  -8.0  34142  289.25 0854.15
2009/04/23 15:50:14.2    -194   -464     -2    504    505 202.7  -0.3  34146  289.32 0854.14
2009/04/23 15:50:14.3    -142   -379     57    405    410 200.6   8.0  34138  289.19 0854.14
2009/04/23 15:50:14.4    -196   -356     64    407    413 208.9   9.0  34130  289.05 0854.14
2009/04/23 15:50:14.5    -319   -318     22    451    452 225.1   2.8  34152  289.44 0854.14
2009/04/23 15:50:14.6    -367   -269      2    456    457 233.7   0.4  34144  289.29 0854.14
2009/04/23 15:50:14.7    -310   -179    -30    358    360 240.0  -4.8  34120  288.88 0854.14
2009/04/23 15:50:14.8    -251   -128   -101    282    300 242.9 -19.7  34126  288.98 0854.14
2009/04/23 15:50:14.9    -199   -129    -62    238    247 236.9 -14.7  34150  289.39 0854.14
2009/04/23 15:50:15.0    -209   -172     13    271    272 230.5   2.9  34146  289.32 0854.14
2009/04/23 15:50:15.1    -254   -101   -126    274    301 248.2 -30.8  34134  289.12 0854.14
2009/04/23 15:50:15.2    -231    -17   -140    232    270 265.6 -38.8  34128  289.02 0854.14
2009/04/23 15:50:15.3    -168    -56   -173    178    248 251.4 -53.6  34132  289.09 0854.14
2009/04/23 15:50:15.4     -76    -60   -135     97    166 231.8 -64.9  34130  289.06 0854.14
2009/04/23 15:50:15.5    -219    -62    -74    228    239 254.1 -23.0  34128  289.03 0854.14
2009/04/23 15:50:15.6    -274    -14   -128    275    303 267.0 -31.5  34126  288.98 0854.14
2009/04/23 15:50:15.7    -210     70   -156    222    271 288.6 -43.0  34116  288.83 0854.14
2009/04/23 15:50:15.8    -123     41   -153    130    200 288.6 -59.8  34118  288.87 0854.14
2009/04/23 15:50:15.9     -76     27    -99     81    127 290.0 -60.8  34128  289.04 0854.14
2009/04/23 15:50:16.0     -79     -8   -131     80    153 263.9 -69.5  34128  289.02 0854.14
2009/04/23 15:50:16.1     -66    -29    -73     73    103 246.5 -54.5  34130  289.08 0854.14
2009/04/23 15:50:16.2     -21    -42    -79     48     92 207.2 -70.1  34134  289.14 0854.08
2009/04/23 15:50:16.3       2   -118    -92    119    150 179.0 -46.1  34128  289.02 0854.08
2009/04/23 15:50:16.4     -22   -209    -98    211    232 186.3 -31.4  34140  289.24 0854.08
2009/04/23 15:50:16.5    -112   -221    -81    248    260 207.0 -23.6  34138  289.19 0854.08
2009/04/23 15:50:16.6     -25   -175   -134    177    222 188.2 -45.1  34132  289.11 0854.08
2009/04/23 15:50:16.7     -53    -72      6     90     91 216.1   3.8  34142  289.28 0854.08
2009/04/23 15:50:16.8    -151    -16    -54    152    162 263.9 -19.7  34144  289.31 0854.08
2009/04/23 15:50:16.9    -113   -129    -68    172    184 221.2 -27.2  34148  289.36 0854.08
2009/04/23 15:50:17.0     -98    -29    -28    103    107 253.6 -15.5  34152  289.43 0854.08
2009/04/23 15:50:17.1    -114    -30    -56    119    131 255.0 -31.5  34154  289.46 0854.08
2009/04/23 15:50:17.2     -42    -73    -73     85    112 210.3 -49.2  34158  289.53 0854.08
2009/04/23 15:50:17.3      -5    -94     -2     95     96 183.1  -1.8  34156  289.50 0854.08
2009/04/23 15:50:17.4    -115   -173    -21    208    210 213.6  -6.0  34146  289.35 0854.08
2009/04/23 15:50:17.5    -158   -175    -71    237    248 222.1 -16.8  34150  289.39 0854.08
2009/04/23 15:50:17.6      77   -241     -2    254    255 162.2  -0.5  34140  289.22 0854.08
2009/04/23 15:50:17.7      -3   -241    -13    242    243 180.9  -3.1  34162  289.59 0854.08
2009/04/23 15:50:17.8      28   -269    -24    271    273 174.0  -5.1  34146  289.34 0854.08
2009/04/23 15:50:17.9      29   -255    -39    257    261 173.3  -8.8  34154  289.47 0854.08
2009/04/23 15:50:18.0     -72   -268    -83    278    291 195.1 -16.6  34152  289.42 0854.08
2009/04/23 15:50:18.1     -20   -235    -81    236    250 184.9 -19.1  34132  289.09 0854.08
2009/04/23 15:50:18.2     -38   -190    -17    194    195 191.5  -5.2  34136  289.18 0854.08
2009/04/23 15:50:18.3     -76   -251     27    263    265 196.9   6.0  34146  289.34 0854.08
2009/04/23 15:50:18.4    -125   -265     79    294    305 205.3  15.1  34148  289.36 0854.08
2009/04/23 15:50:18.5    -184   -262     12    321    322 215.0   2.2  34148  289.37 0854.08
2009/04/23 15:50:18.6     -57   -293      6    299    300 191.1   1.2  34152  289.44 0854.08
2009/04/23 15:50:18.7     -52   -280     34    285    288 190.6   6.9  34154  289.46 0854.08
2009/04/23 15:50:18.9     -68   -340     54    347    352 191.4   8.9  34162  289.60 0854.08
2009/04/23 15:50:19.0     -17   -397    114    398    415 182.5  16.0  34150  289.41 0854.08
2009/04/23 15:50:19.1     -89   -419     86    429    438 192.1  11.4  34152  289.43 0854.08
2009/04/23 15:50:19.2     -16   -410    149    411    438 182.3  19.9  34138  289.21 0854.08
2009/04/23 15:50:19.3      64   -408    181    414    451 171.1  25.1  34140  289.24 0854.08
2009/04/23 15:50:19.4      90   -390    233    401    463 167.0  32.9  34158  289.55 0854.08
2009/04/23 15:50:19.5     157   -372    211    405    456 157.1  29.6  34152  289.43 0854.08
2009/04/23 15:50:19.6     211   -443    194    491    527 154.5  22.9  34178  289.89 0854.08
2009/04/23 15:50:19.7     352   -406    335    538    633 139.1  34.9  34164  289.63 0854.08
2009/04/23 15:50:19.8     444   -390    270    591    649 131.3  26.3  34158  289.55 0854.08
2009/04/23 15:50:19.9     258   -368    202    450    493 144.9  25.8  34130  289.06 0854.08
2009/04/23 15:50:20.0     109   -316    176    335    378 161.0  30.0  34138  289.21 0854.08
2009/04/23 15:50:20.1     135   -284    223    315    385 154.5  38.8  34148  289.38 0854.08
2009/04/23 15:50:20.2     129   -314    180    340    384 157.6  30.2  34172  289.79 0854.08
2009/04/23 15:50:20.3     139   -299    263    330    421 155.0  42.7  34162  289.60 0854.06
2009/04/23 15:50:20.4     -22   -292    257    293    389 184.5  45.8  34164  289.64 0854.06
2009/04/23 15:50:20.5     -88   -316    313    329    454 195.6  48.5  34152  289.44 0854.06
2009/04/23 15:50:20.6     -73   -259    347    270    439 195.8  58.4  34142  289.26 0854.06
2009/04/23 15:50:20.7     -21   -159    306    161    345 187.6  70.0  34162  289.59 0854.06
2009/04/23 15:50:20.8     -67   -159    323    173    366 202.9  69.6  34168  289.70 0854.06
2009/04/23 15:50:20.9    -368    -30    -14    370    371 265.2  -2.2  34170  289.74 0854.06
2009/04/23 15:50:21.0    -227    -32    205    230    308 262.0  46.4  34184  289.97 0854.06
2009/04/23 15:50:21.1    -369    182    -52    412    416 296.3  -7.2  34158  289.55 0854.06
2009/04/23 15:50:21.2    -514    116    -62    528    532 282.8  -6.7  34154  289.48 0854.06
2009/04/23 15:50:21.3    -416     16    -76    417    424 272.3 -10.4  34144  289.29 0854.06
2009/04/23 15:50:21.4    -510    136    -48    528    531 285.0  -5.2  34126  288.99 0854.06
2009/04/23 15:50:21.5    -534    203    -97    572    581 290.8  -9.7  34128  289.02 0854.06
2009/04/23 15:50:21.6    -384    243     96    455    466 302.4  12.0  34138  289.21 0854.06
2009/04/23 15:50:21.7    -324    206    -69    385    392 302.5 -10.3  34142  289.28 0854.06
2009/04/23 15:50:21.8    -393    158    -81    424    432 292.0 -10.9  34134  289.12 0854.06
2009/04/23 15:50:21.9    -471    154    -99    496    506 288.2 -11.3  34146  289.32 0854.06
2009/04/23 15:50:22.0    -424    106   -134    438    458 284.1 -21.9  34148  289.36 0854.06
2009/04/23 15:50:22.1    -462    128   -152    480    504 285.5 -17.6  34156  289.49 0854.06
2009/04/23 15:50:22.2    -484    139   -175    504    533 286.0 -24.3  34146  289.33 0854.06
2009/04/23 15:50:22.3    -431    -26     21    432    433 266.5   2.8  34142  289.26 0854.03
2009/04/23 15:50:22.4    -422   -125     90    441    451 253.5  11.6  34156  289.51 0854.03
2009/04/23 15:50:22.5    -371   -107    -12    387    388 253.9  -1.9  34166  289.69 0854.03
2009/04/23 15:50:22.6    -287   -104    116    306    327 250.0  21.7  34160  289.56 0854.03
2009/04/23 15:50:22.7    -152    -16    155    153    217 263.9  50.2  34166  289.67 0854.03
2009/04/23 15:50:22.8    -137   -137    171    194    258 225.0  45.9  34158  289.54 0854.03
2009/04/23 15:50:22.9     -34    164    140    168    218 348.0  43.8  34166  289.69 0854.03
2009/04/23 15:50:23.0       3    188    147    189    239   1.1  41.7  34172  289.77 0854.03
2009/04/23 15:50:23.1     -41    240    209    244    321 350.2  45.1  34182  289.95 0854.03
2009/04/23 15:50:23.2     -61    260    131    268    298 346.7  28.0  34180  289.90 0854.03
2009/04/23 15:50:23.3     116    275     93    299    314  22.8  17.4  34142  289.27 0854.05
2009/04/23 15:50:23.4     232    243     85    337    348  43.7  14.3  34150  289.40 0854.05
2009/04/23 15:50:23.5      72    190      0    204    205  20.9   0.2  34182  289.94 0854.05
2009/04/23 15:50:23.6      52    194     62    201    211  15.1  17.3  34210  290.43 0854.05
2009/04/23 15:50:23.7      10    166     52    167    175   3.6  17.3  34232  290.79 0854.05
2009/04/23 15:50:23.8      32    170    149    174    229  10.9  44.8  34266  291.38 0854.05
2009/04/23 15:50:23.9      24    223     61    225    234   6.2  15.3  34208  290.40 0854.05
2009/04/23 15:50:24.0      47    197    147    203    250  13.6  39.7  34152  289.42 0854.05
2009/04/23 15:50:24.1    -236    251    -22    345    346 316.8  -3.7  34178  289.87 0854.05
2009/04/23 15:50:24.2    -231    267   -131    354    377 319.1 -25.5  34136  289.15 0854.05
2009/04/23 15:50:24.3    -136    345   -172    372    409 338.4 -30.9  34132  289.10 0854.05
2009/04/23 15:50:24.4     -15    375   -272    376    464 357.7 -43.9  34122  288.94 0854.05
2009/04/23 15:50:24.5     -99    287   -346    304    460 340.8 -58.7  34158  289.53 0854.05
2009/04/23 15:50:24.6    -337    339    -76    479    486 315.2  -9.0  34152  289.45 0854.05
2009/04/23 15:50:24.7    -292    159   -106    333    350 298.6 -17.7  34154  289.48 0854.05
2009/04/23 15:50:24.8    -367    163   -103    402    416 294.0 -14.4  34168  289.72 0854.05
2009/04/23 15:50:24.9    -200     56    -35    208    211 285.7  -9.6  34154  289.48 0854.05
2009/04/23 15:50:25.0    -246     24      0    248    249 275.7   0.0  34148  289.36 0854.05
2009/04/23 15:50:25.1    -141      6      3    142    143 272.6   1.2  34148  289.38 0854.05
2009/04/23 15:50:25.2    -131      3    -47    132    141 271.7 -19.6  34166  289.69 0854.05
2009/04/23 15:50:25.3    -102    -27    -64    106    123 254.9 -38.8  34184  289.99 0853.98
2009/04/23 15:50:25.4     -47      0    -87     48     99 270.0 -73.2  34184  289.99 0853.98
2009/04/23 15:50:25.5     -94    -78    -58    123    135 230.5 -31.5  34186  290.01 0853.98
2009/04/23 15:50:25.6    -103    -86    -77    135    155 230.4 -36.8  34178  289.87 0853.98
2009/04/23 15:50:25.7     -99    -33    -54    105    118 251.4 -33.6  34178  289.89 0853.98
2009/04/23 15:50:25.8     -52    -22    -16     57     60 246.5 -15.5  34180  289.92 0853.98
2009/04/23 15:50:25.9     -33     33    -54     47     71 314.9 -59.8  34188  290.06 0853.98
2009/04/23 15:50:26.0      12     12    -95     18     96  45.0 -90.0  34190  290.09 0853.98
2009/04/23 15:50:26.1     107    -28    -62    111    127 104.6 -35.8  34170  289.74 0853.98
2009/04/23 15:50:26.2      83    -28    -62     88    107 108.6 -43.9  34172  289.77 0853.98
2009/04/23 15:50:26.3     135    -39    -50    141    150 106.4 -19.7  34170  289.75 0853.98
2009/04/23 15:50:26.4     109    -18     -6    111    112  99.7  -3.2  34174  289.80 0853.98
2009/04/23 15:50:26.5      94    -46    -37    105    112 116.2 -19.7  34172  289.79 0853.98
2009/04/23 15:50:26.6      73      8    -44     74     86  83.0 -38.4  34174  289.82 0853.98
2009/04/23 15:50:26.7      40     25    -41     48     63  57.6 -49.2  34180  289.91 0853.98
2009/04/23 15:50:26.8      16     59    -58     62     84  15.2 -52.9  34192  290.11 0853.98
2009/04/23 15:50:26.9     -13     44    -75     47     88 343.1 -69.1  34192  290.11 0853.98
2009/04/23 15:50:27.0     -46     67    -41     82     91 325.7 -32.6  34206  290.36 0853.98
2009/04/23 15:50:27.1     -28     87    -27     92     95 341.7 -21.2  34214  290.50 0853.98
2009/04/23 15:50:27.2     -47    162     89    169    191 343.7  30.1  34212  290.47 0853.98
2009/04/23 15:50:27.3    -219    256     45    338    341 319.5   7.6  34258  291.22 0853.97
2009/04/23 15:50:27.4    -283    266      1    389    390 313.2   0.2  34260  291.28 0853.97
2009/04/23 15:50:27.5    -269    325    -50    423    426 320.4  -6.8  34272  291.46 0853.97
2009/04/23 15:50:27.6    -263    342    -44    432    435 322.4  -5.9  34294  291.84 0853.97
2009/04/23 15:50:27.7    -231    325    -48    399    402 324.6  -6.9  34322  292.31 0853.97
2009/04/23 15:50:27.8    -124    382     22    402    403 342.0   3.2  34280  291.62 0853.97
2009/04/23 15:50:27.9    -177    377     -8    417    418 334.8  -1.2  34288  291.75 0853.97
2009/04/23 15:50:28.0    -195    339     19    392    393 330.1   2.8  34308  292.10 0853.97
2009/04/23 15:50:28.1    -133    350    165    375    409 339.2  25.2  34230  290.77 0853.97
2009/04/23 15:50:28.2    -177    359    184    401    441 333.8  26.3  34232  290.78 0853.97
2009/04/23 15:50:28.3     -54    350    181    355    398 351.1  29.2  34258  291.23 0853.97
2009/04/23 15:50:28.4    -109    500    138    512    531 347.6  15.1  34312  292.15 0853.97
2009/04/23 15:50:28.5    -105    431     77    444    451 346.3   9.9  34308  292.09 0853.97
2009/04/23 15:50:28.6     -53    441    -12    445    446 353.1  -1.6  34340  292.62 0853.97
2009/04/23 15:50:28.7      -1    459   -132    460    479 359.8 -16.0  34210  290.42 0853.97
2009/04/23 15:50:28.8     166    329    -74    369    377  26.8 -11.3  34278  291.59 0853.97
2009/04/23 15:50:28.9     145    332    -45    363    366  23.6  -7.2  34258  291.23 0853.97
2009/04/23 15:50:29.0     195    195    -25    277    279  45.0  -5.2  34170  289.73 0853.97
2009/04/23 15:50:29.1     232     46     83    237    252  78.8  19.4  34176  289.83 0853.97
2009/04/23 15:50:29.2     187     96    142    211    254  62.9  37.3  34228  290.71 0853.97
2009/04/23 15:50:29.3     135     15    178    136    224  83.4  58.7  34204  290.33 0854.07
2009/04/23 15:50:29.4     207    171    206    269    338  50.5  41.3  34192  290.10 0854.07
2009/04/23 15:50:29.5     274    102    137    293    323  69.4  27.0  34188  290.05 0854.07
2009/04/23 15:50:29.6     144     81    204    166    263  60.5  56.6  34250  291.09 0854.07
2009/04/23 15:50:29.7     201    120    224    235    324  59.3  48.6  34242  290.95 0854.07
2009/04/23 15:50:29.8     366    150    207    396    446  67.7  29.6  34242  290.95 0854.07
2009/04/23 15:50:29.9     329    221    202    397    445  56.1  29.2  34246  291.04 0854.07
2009/04/23 15:50:30.0     286    166    238    331    407  59.8  39.3  34260  291.28 0854.07
2009/04/23 15:50:30.1     305    270    374    408    553  48.4  47.3  34262  291.32 0854.07
2009/04/23 15:50:30.2     321    191    279    374    466  59.3  40.4  34244  291.01 0854.07
2009/04/23 15:50:30.3     394    204    365    444    574  62.6  43.7  34202  290.30 0854.07
2009/04/23 15:50:30.4     349      0     -3    350    351  90.1  -0.5  34208  290.38 0854.07
2009/04/23 15:50:30.5     447    242      8    509    510  61.5   1.0  34190  290.08 0854.07
2009/04/23 15:50:30.6     370    408     30    551    552  42.2   3.1  34190  290.07 0854.07
2009/04/23 15:50:30.7     459    265     25    531    532  60.0   2.8  34150  289.40 0854.07
2009/04/23 15:50:30.8     202    275    -58    342    347  36.3  -9.7  34174  289.82 0854.07
2009/04/23 15:50:30.9     256    135    -80    290    301  62.1 -15.5  34180  289.92 0854.07
2009/04/23 15:50:31.0     465    206     66    509    514  66.0   7.5  34130  289.08 0854.07
2009/04/23 15:50:31.1     638    162    103    659    668  75.7   8.9  34168  289.70 0854.07
2009/04/23 15:50:31.2     469     95    -40    479    481  78.4  -4.9  34198  290.20 0854.13
2009/04/23 15:50:31.3     335    -31    -88    337    349  95.4 -14.7  34204  290.33 0854.13
2009/04/23 15:50:31.4     373   -117   -232    391    454 107.4 -37.9  34212  290.46 0854.13
2009/04/23 15:50:31.5     317   -122   -215    340    402 111.2 -39.9  34212  290.47 0854.13
2009/04/23 15:50:31.6     360   -217     -6    421    422 121.1  -0.9  34224  290.65 0854.13
2009/04/23 15:50:31.7     197   -315     35    372    374 147.9   5.5  34228  290.71 0854.13
2009/04/23 15:50:31.8     199   -226     41    302    305 138.6   7.8  34242  290.95 0854.13
2009/04/23 15:50:31.9     231   -197    291    304    420 130.4  48.6  34234  290.83 0854.13
2009/04/23 15:50:32.0      47   -141     95    149    176 161.3  35.6  34254  291.18 0854.13
2009/04/23 15:50:32.1      47   -222    176    228    288 168.0  41.7  34256  291.19 0854.13
2009/04/23 15:50:32.2     -11   -255    161    256    302 182.6  35.5  34282  291.63 0854.13
2009/04/23 15:50:32.3     -22   -211    177    213    276 186.0  43.8  34244  290.99 0854.13
2009/04/23 15:50:32.4      -6   -255    144    256    293 181.4  31.4  34276  291.55 0854.13
2009/04/23 15:50:32.5      33   -199    167    202    262 170.4  43.8  34256  291.19 0854.13
2009/04/23 15:50:32.6     -58   -272     71    279    288 192.0  14.3  34264  291.33 0854.13
2009/04/23 15:50:32.7     -96   -204    197    226    299 205.3  45.8  34258  291.24 0854.13
2009/04/23 15:50:32.8    -177   -128    127    219    253 234.0  32.7  34240  290.92 0854.13
2009/04/23 15:50:32.9      50    -23     98     56    112 115.3  67.7  34266  291.37 0854.13
2009/04/23 15:50:33.0      58    -56     71     82    108 134.0  45.4  34254  291.16 0854.13
2009/04/23 15:50:33.1      -9   -293     59    294    300 181.8  11.4  34236  290.87 0854.13
2009/04/23 15:50:33.2      75   -297    147    307    340 165.7  27.3  34222  290.64 0854.20
2009/04/23 15:50:33.3     -11   -323    151    324    357 182.1  26.9  34246  291.03 0854.20
2009/04/23 15:50:33.4     124   -288    193    314    368 156.6  34.8  34234  290.84 0854.20
2009/04/23 15:50:33.5     125   -151    154    197    250 140.4  42.0  34244  291.00 0854.20
2009/04/23 15:50:33.6      26   -270    137    272    304 174.4  28.5  34238  290.88 0854.20
2009/04/23 15:50:33.7      32    -89     88     95    129 160.0  47.9  34244  291.01 0854.20
2009/04/23 15:50:33.8     -60   -182     62    192    202 198.5  17.9  34234  290.82 0854.20
2009/04/23 15:50:33.9       3    -67    116     68    134 177.3  66.8  34244  290.99 0854.20
2009/04/23 15:50:34.0     -32    -73     29     80     85 203.6  20.0  34238  290.89 0854.20
2009/04/23 15:50:34.1      11    -37     92     39     99 163.1  76.1  34252  291.15 0854.20
2009/04/23 15:50:34.2     -46   -140    101    148    179 198.5  37.6  34248  291.06 0854.20
2009/04/23 15:50:34.3      -7    -62    107     63    124 187.1  66.8  34256  291.20 0854.20
2009/04/23 15:50:34.4     -42   -147    154    153    217 196.0  50.1  34248  291.06 0854.20
2009/04/23 15:50:34.5     -56   -129    155    141    209 203.6  53.0  34240  290.94 0854.20
2009/04/23 15:50:34.6     -72   -140    134    158    207 207.2  44.5  34240  290.92 0854.20
2009/04/23 15:50:34.7     -17   -168    130    169    213 186.0  41.6  34270  291.43 0854.20
2009/04/23 15:50:34.8    -125   -166    138    209    250 217.0  36.5  34282  291.65 0854.20
2009/04/23 15:50:34.9    -152   -132     41    202    207 229.1  11.4  34274  291.50 0854.20
2009/04/23 15:50:35.0    -219   -243    116    328    348 222.0  19.5  34258  291.22 0854.20
2009/04/23 15:50:35.1    -218   -115    -22    247    249 242.0  -5.1  34294  291.85 0854.20
2009/04/23 15:50:35.2    -230   -131    -55    265    271 240.2 -11.9  34288  291.73 0854.19
2009/04/23 15:50:35.3    -174   -210      0    273    274 219.6   0.0  34282  291.65 0854.19
2009/04/23 15:50:35.4    -137   -268     78    302    313 207.2  14.6  34248  291.07 0854.19
2009/04/23 15:50:35.5    -305   -150    -31    340    342 243.8  -5.4  34238  290.91 0854.19
2009/04/23 15:50:35.6    -365   -198    -52    416    420 241.5  -7.2  34258  291.23 0854.19
2009/04/23 15:50:35.7    -340   -307     -9    459    460 227.9  -1.2  34256  291.21 0854.19
2009/04/23 15:50:35.8    -338   -314     12    462    463 227.1   1.6  34252  291.14 0854.19
2009/04/23 15:50:35.9    -294   -284     19    409    410 226.0   2.8  34250  291.11 0854.19
2009/04/23 15:50:36.0    -265    -84   -128    279    306 252.3 -30.8  34178  289.88 0854.19
2009/04/23 15:50:36.1    -428   -196    -30    471    472 245.4  -3.7  34226  290.69 0854.19
2009/04/23 15:50:36.2    -188   -201     70    276    285 223.2  14.3  34210  290.41 0854.19
2009/04/23 15:50:36.3    -169   -301     81    346    356 209.4  13.2  34218  290.54 0854.19
2009/04/23 15:50:36.4    -203   -235     -9    311    312 220.8  -1.8  34226  290.70 0854.19
2009/04/23 15:50:36.5    -165   -189     31    252    255 221.2   7.2  34228  290.71 0854.19
2009/04/23 15:50:36.6     -96   -136   -121    167    206 215.2 -44.1  34228  290.72 0854.19
2009/04/23 15:50:36.7    -260   -156    -90    304    318 239.1 -16.5  34238  290.88 0854.19
2009/04/23 15:50:36.8    -177   -210    -15    275    276 220.1  -3.1  34234  290.82 0854.19
2009/04/23 15:50:36.9    -161   -228     13    280    281 215.2   2.8  34254  291.16 0854.19
2009/04/23 15:50:37.0    -182   -273     59    329    335 213.7  10.2  34214  290.50 0854.19
2009/04/23 15:50:37.1    -197   -314    146    371    398 212.1  22.5  34210  290.43 0854.19
2009/04/23 15:50:37.2    -262   -279     80    383    392 223.2  11.8  34208  290.38 0854.21
2009/04/23 15:50:37.3    -211   -256     78    332    342 219.5  13.2  34216  290.52 0854.21
2009/04/23 15:50:37.4    -135   -216     58    255    262 212.1  12.9  34232  290.78 0854.21
2009/04/23 15:50:37.5    -222   -151     44    269    273 235.8   9.5  34230  290.76 0854.21
2009/04/23 15:50:37.6    -226    -31    -26    229    231 262.1  -6.5  34242  290.96 0854.21
2009/04/23 15:50:37.7    -288    -82    -64    300    307 254.0 -12.2  34246  291.02 0854.21
2009/04/23 15:50:37.8    -347    -88    -86    359    370 255.7 -13.6  34236  290.86 0854.21
2009/04/23 15:50:37.9    -340    -77   -111    349    366 257.2 -22.8  34236  290.86 0854.21
2009/04/23 15:50:38.0    -319   -182   -113    368    384 240.2 -22.1  34238  290.89 0854.21
2009/04/23 15:50:38.1    -247   -117    -86    274    288 244.7 -17.5  34234  290.83 0854.21
2009/04/23 15:50:38.2    -151   -166    -91    225    242 222.3 -27.5  34228  290.71 0854.21
2009/04/23 15:50:38.3    -132   -131    -15    187    188 225.2  -4.6  34226  290.69 0854.21
2009/04/23 15:50:38.4    -161   -105     28    193    196 236.7   8.2  34236  290.87 0854.21
2009/04/23 15:50:38.5     -94   -111     40    146    152 220.1  15.6  34232  290.81 0854.21
2009/04/23 15:50:38.6     -44   -168    -31    174    177 194.9 -10.3  34230  290.77 0854.21
2009/04/23 15:50:38.7     -94   -201    -71    223    234 205.2 -23.3  34244  290.99 0854.21
2009/04/23 15:50:38.8    -210    -53   -180    217    281 255.6 -48.2  34228  290.73 0854.21
2009/04/23 15:50:38.9    -181    -54   -126    189    227 253.4 -41.1  34230  290.75 0854.21
2009/04/23 15:50:39.0     -81   -101    -64    130    144 218.7 -32.6  34228  290.72 0854.21
2009/04/23 15:50:39.1    -135    -79    -54    157    166 239.8 -23.6  34226  290.70 0854.21
2009/04/23 15:50:39.2    -179    -70    -53    193    200 248.7 -20.0  34240  290.92 0854.23
2009/04/23 15:50:39.3    -144   -145    -65    205    216 224.8 -17.6  34232  290.81 0854.23
2009/04/23 15:50:39.4    -151   -124     46    196    202 230.5  13.2  34232  290.79 0854.23
2009/04/23 15:50:39.5    -120   -164      9    204    205 216.1   2.8  34228  290.72 0854.23
2009/04/23 15:50:39.6    -161   -159      6    227    228 225.3   1.6  34230  290.77 0854.23
2009/04/23 15:50:39.7    -160    -45     57    167    177 254.3  18.9  34238  290.89 0854.23
2009/04/23 15:50:39.8    -111      4     -3    112    113 272.1  -1.8  34236  290.87 0854.23
2009/04/23 15:50:39.9     -74    -89     35    116    122 219.6  16.8  34230  290.77 0854.23
2009/04/23 15:50:40.0     -75    -64     48     99    110 229.6  27.3  34236  290.87 0854.23
2009/04/23 15:50:40.1      34   -102     28    108    112 161.3  14.7  34228  290.72 0854.23
2009/04/23 15:50:40.2       0   -128     60    129    142 180.0  27.1  34220  290.60 0854.23
2009/04/23 15:50:40.3      67   -186     88    198    216 160.2  25.3  34208  290.40 0854.23
2009/04/23 15:50:40.4     -14   -158    103    159    189 185.3  35.7  34196  290.19 0854.23
2009/04/23 15:50:40.5      26   -201     66    203    214 172.4  18.1  34190  290.08 0854.23
2009/04/23 15:50:40.6      -1   -126    117    127    172 180.5  47.7  34198  290.21 0854.23
2009/04/23 15:50:40.7      20   -147    125    149    194 172.0  44.1  34208  290.40 0854.23
2009/04/23 15:50:40.8      41   -176    131    181    223 166.6  39.5  34194  290.16 0854.23
2009/04/23 15:50:40.9      15   -163    122    164    204 174.4  40.4  34214  290.48 0854.23
2009/04/23 15:50:41.0      57    -49    119     76    141 130.4  64.7  34216  290.52 0854.23
2009/04/23 15:50:41.1     184    -69    196    197    277 110.8  50.0  34218  290.56 0854.23
2009/04/23 15:50:41.2     178   -101    167    205    264 119.5  43.7  34236  290.85 0854.27
2009/04/23 15:50:41.3     160   -116    150    198    248 125.9  40.9  34256  291.19 0854.27
2009/04/23 15:50:41.4     146    -58    145    158    214 111.7  47.7  34262  291.32 0854.27
2009/04/23 15:50:41.5      47   -121    118    130    175 158.6  47.1  34252  291.13 0854.27
2009/04/23 15:50:41.6      24   -120    106    123    162 168.4  45.4  34244  290.99 0854.27
2009/04/23 15:50:41.7      96    -85     85    129    154 131.4  35.6  34234  290.82 0854.27
2009/04/23 15:50:41.8      70   -106     55    128    139 146.6  24.6  34214  290.50 0854.27
2009/04/23 15:50:41.9     104   -141     57    176    186 143.7  17.9  34202  290.30 0854.27
2009/04/23 15:50:42.0     143    -74     10    162    163 117.5   3.8  34226  290.70 0854.27
2009/04/23 15:50:42.1     127    -81    -17    151    153 122.5  -6.7  34212  290.45 0854.27
2009/04/23 15:50:42.2     147    -98    -31    177    180 123.7 -10.1  34208  290.40 0854.27
2009/04/23 15:50:42.3      86    -82     -6    120    121 133.6  -3.2  34214  290.48 0854.27
2009/04/23 15:50:42.4      81    -69      5    107    108 130.4   2.9  34216  290.52 0854.27
2009/04/23 15:50:42.5      16    -61      0     64     65 164.9   0.8  34206  290.36 0854.27
2009/04/23 15:50:42.6      59    -59     35     84     91 135.0  24.1  34190  290.08 0854.27
2009/04/23 15:50:42.7      84    -56     35    101    108 123.7  19.4  34172  289.77 0854.27
2009/04/23 15:50:42.8     115    -68     63    134    148 120.6  27.1  34160  289.58 0854.27
2009/04/23 15:50:42.9     106    -59     86    122    149 119.3  39.1  34164  289.63 0854.27
2009/04/23 15:50:43.0      32    -43     98     54    111 143.0  68.8  34168  289.70 0854.27
2009/04/23 15:50:43.1       8   -198    202    199    283 177.5  50.2  34172  289.78 0854.27
2009/04/23 15:50:43.2     -77   -190    143    206    250 202.1  38.0  34166  289.68 0854.32
2009/04/23 15:50:43.3     -58   -161     65    172    183 199.8  21.5  34164  289.65 0854.32
2009/04/23 15:50:43.4       8   -109    110    110    155 175.6  50.1  34172  289.77 0854.32
2009/04/23 15:50:43.5     -10   -120    118    121    169 184.9  49.4  34170  289.74 0854.32
2009/04/23 15:50:43.6     -70   -194     44    207    212 199.8  12.0  34152  289.43 0854.32
2009/04/23 15:50:43.7    -125   -251    190    281    339 206.5  37.2  34164  289.64 0854.32
2009/04/23 15:50:43.8    -217   -190   -103    289    308 228.7 -19.7  34148  289.37 0854.32
2009/04/23 15:50:43.9    -428   -121    -93    445    455 254.1 -11.9  34134  289.12 0854.32
2009/04/23 15:50:44.0    -407   -140    -77    431    439 251.0 -10.2  34126  288.99 0854.32
2009/04/23 15:50:44.1    -387   -171   -110    424    439 246.1 -14.6  34098  288.53 0854.32
2009/04/23 15:50:44.2    -396   -166   -119    430    447 247.3 -15.5  34098  288.51 0854.37
2009/04/23 15:50:44.3    -383   -211   -117    438    454 241.1 -15.0  34100  288.56 0854.37
2009/04/23 15:50:44.4    -360   -247   -105    437    450 235.5 -13.6  34104  288.61 0854.37
2009/04/23 15:50:44.5    -351   -282   -124    451    468 231.2 -15.4  34106  288.67 0854.37
2009/04/23 15:50:44.6    -303   -265   -105    403    417 228.8 -14.7  34110  288.72 0854.37
2009/04/23 15:50:44.7    -280   -298   -101    409    422 223.2 -13.9  34096  288.50 0854.37
2009/04/23 15:50:44.8    -271   -278    -59    389    394 224.3  -8.7  34106  288.66 0854.37
2009/04/23 15:50:44.9    -249   -245    -96    350    364 225.4 -15.4  34114  288.79 0854.37
2009/04/23 15:50:45.0    -271   -229   -100    355    368 229.8 -20.4  34140  289.23 0854.37
2009/04/23 15:50:45.1    -273   -188   -109    332    350 235.4 -18.3  34138  289.20 0854.37
2009/04/23 15:50:45.2    -256   -194    -38    322    325 232.9  -6.8  34160  289.56 0854.37
2009/04/23 15:50:45.3    -189   -201     -1    277    278 223.2  -0.3  34164  289.64 0854.37
2009/04/23 15:50:45.5    -228    -91    -58    246    253 248.2 -13.3  34164  289.64 0854.37
2009/04/23 15:50:45.6    -201    -95    -62    223    232 244.6 -15.5  34150  289.41 0854.37
2009/04/23 15:50:45.7    -301   -131    -65    329    336 246.5 -11.2  34172  289.76 0854.37
2009/04/23 15:50:45.8    -418    -18   -120    419    435 267.5 -20.8  34164  289.65 0854.37
2009/04/23 15:50:45.8    -323     29     63    325    332 275.2  11.0  34168  289.72 0854.37
2009/04/23 15:50:46.0    -282     17     16    283    284 273.5   3.3  34180  289.90 0854.37
2009/04/23 15:50:46.1    -220     16     51    221    227 274.3  13.1  34176  289.85 0854.37
2009/04/23 15:50:46.2    -141     33     83    145    167 283.3  32.7  34186  290.01 0854.37
2009/04/23 15:50:46.3     -83    -53    115     99    151 237.1  54.8  34186  290.02 0854.36
2009/04/23 15:50:46.4     -57   -143    167    155    227 201.9  52.2  34162  289.60 0854.36
2009/04/23 15:50:46.5    -100   -174    158    201    255 209.9  42.2  34152  289.44 0854.36
2009/04/23 15:50:46.6    -213    -83    119    229    258 248.7  29.8  34156  289.49 0854.36
2009/04/23 15:50:46.7    -186    -93     93    208    227 243.4  25.7  34156  289.52 0854.36
2009/04/23 15:50:46.8    -233   -148    103    277    295 237.5  21.3  34154  289.47 0854.36
2009/04/23 15:50:46.9    -168   -172    121    241    269 224.3  28.5  34160  289.58 0854.36
2009/04/23 15:50:47.0    -217   -137    120    257    283 237.8  27.1  34178  289.86 0854.36
2009/04/23 15:50:47.1    -190   -124     66    228    238 236.9  16.3  34198  290.22 0854.36
2009/04/23 15:50:47.2    -208   -114     71    238    249 241.2  16.8  34196  290.17 0854.36
2009/04/23 15:50:47.3    -249    -58      3    256    257 256.7   0.7  34202  290.29 0854.36
2009/04/23 15:50:47.4    -458    -13     19    459    460 268.3   2.4  34178  289.88 0854.36
2009/04/23 15:50:47.5    -421    -92    114    432    447 257.6  14.9  34160  289.58 0854.36
2009/04/23 15:50:47.6    -346    -15    132    347    371 267.4  21.8  34178  289.89 0854.36
2009/04/23 15:50:47.7    -215     68     -4    226    227 287.5  -1.3  34198  290.23 0854.36
2009/04/23 15:50:47.8    -165      0    -63    166    177 269.9 -26.1  34206  290.35 0854.36
2009/04/23 15:50:47.9     -10    -19     44     22     49 207.2  72.8  34182  289.94 0854.36
2009/04/23 15:50:48.0      24    -37     95     45    105 147.5  72.9  34146  289.33 0854.36
2009/04/23 15:50:48.1     -25     26     96     37    102 316.6  78.2  34158  289.53 0854.36
2009/04/23 15:50:48.2      57     31    112     66    130  61.2  66.8  34160  289.58 0854.36
2009/04/23 15:50:48.3      78     -1    105     79    131  90.9  59.0  34226  290.70 0854.38
2009/04/23 15:50:48.4     220    -24    -63    222    230  96.2 -20.4  34328  292.44 0854.38
2009/04/23 15:50:48.5     231     46    119    236    264  78.5  28.5  34282  291.65 0854.38
2009/04/23 15:50:48.6     240     15     82    241    255  86.3  18.9  34334  292.53 0854.38
2009/04/23 15:50:48.7     172     81     46    191    197  64.6  13.7  34338  292.59 0854.38
2009/04/23 15:50:48.8     317    190     -8    370    371  59.0  -1.3  34244  291.00 0854.38
2009/04/23 15:50:48.9     328    237    -89    405    415  54.1 -12.5  34168  289.70 0854.38
2009/04/23 15:50:49.0     662     61    -75    666    671  84.7  -6.5  34178  289.87 0854.38
2009/04/23 15:50:49.1     296    109    187    316    367  69.8  33.5  34182  289.96 0854.38
2009/04/23 15:50:49.2     259    -64     83    267    280 103.9  17.4  34192  290.10 0854.38
2009/04/23 15:50:49.3     162    171     85    236    250  43.4  20.2  34198  290.22 0854.38
2009/04/23 15:50:49.4     168    233     -5    288    289  35.8  -1.2  34214  290.48 0854.38
2009/04/23 15:50:49.5     262    139    -14    297    298  62.0  -2.8  34162  289.61 0854.38
2009/04/23 15:50:49.6     283    169    -95    330    343  59.1 -20.7  34188  290.06 0854.38
2009/04/23 15:50:49.7     243    186     -1    307    308  52.5  -0.3  34208  290.39 0854.38
2009/04/23 15:50:49.8     210    106     -1    236    237  63.1  -0.3  34212  290.44 0854.38
2009/04/23 15:50:49.9     176    113     17    210    211  57.1   4.9  34180  289.92 0854.38
2009/04/23 15:50:50.0     183     45     56    189    198  76.1  16.6  34214  290.48 0854.38
2009/04/23 15:50:50.1     258    110    -85    281    294  66.9 -17.0  34196  290.19 0854.38
2009/04/23 15:50:50.2     244     97    -51    263    269  68.3 -11.1  34202  290.27 0854.38
2009/04/23 15:50:50.3     304     91      0    318    319  73.2   0.1  34188  290.03 0854.42
2009/04/23 15:50:50.4     360    109    103    377    391  73.1  15.3  34180  289.91 0854.42
2009/04/23 15:50:50.5     366    108    118    382    400  73.5  17.2  34182  289.93 0854.42
2009/04/23 15:50:50.6     370     18     86    371    381  87.2  13.1  34208  290.37 0854.42
2009/04/23 15:50:50.7     286     12     89    287    301  87.5  17.3  34200  290.26 0854.42
2009/04/23 15:50:50.8     184    143    151    234    278  52.2  35.7  34190  290.09 0854.42
2009/04/23 15:50:50.9     119    264    151    290    326  24.3  29.6  34222  290.63 0854.42
2009/04/23 15:50:51.0     139    253    142    289    322  28.9  28.0  34218  290.56 0854.42
2009/04/23 15:50:51.1     125    253     72    283    293  26.3  14.3  34230  290.76 0854.42
2009/04/23 15:50:51.2      69    255     83    265    278  15.2  17.4  34232  290.80 0854.42
2009/04/23 15:50:51.3     -30    322    184    324    372 354.7  32.0  34244  291.00 0854.42
2009/04/23 15:50:51.4     -25    299    141    301    332 355.1  27.1  34246  291.04 0854.42
2009/04/23 15:50:51.5      39    371    163    374    407   6.1  25.1  34242  290.98 0854.42
2009/04/23 15:50:51.6     -48    311    110    315    334 351.1  19.3  34240  290.93 0854.42
2009/04/23 15:50:51.7    -170    311     39    355    358 331.4   6.4  34230  290.76 0854.42
2009/04/23 15:50:51.8     -35    350     32    352    354 354.2   5.3  34220  290.60 0854.42
2009/04/23 15:50:51.9     -32    339     69    341    348 354.6  11.4  34230  290.76 0854.42
2009/04/23 15:50:52.0     -88    430    -17    440    441 348.4  -2.3  34220  290.58 0854.42
2009/04/23 15:50:52.1    -253    395    -37    470    472 327.4  -4.6  34244  291.00 0854.42
2009/04/23 15:50:52.2     -90    490     37    499    501 349.5   4.3  34262  291.32 0854.42
2009/04/23 15:50:52.3     -86    409    -59    418    423 348.1  -8.1  34282  291.63 0854.42
2009/04/23 15:50:52.4     -75    244    215    256    334 342.8  44.3  34260  291.26 0854.42
2009/04/23 15:50:52.5       9    257    176    258    312   2.0  37.7  34242  290.95 0854.42
2009/04/23 15:50:52.6     -46    362    101    365    379 352.7  15.6  34292  291.83 0854.42
2009/04/23 15:50:52.7    -100    281    137    299    328 340.4  26.4  34304  292.01 0854.42
2009/04/23 15:50:52.8       1    231    205    232    309   0.5  45.9  34310  292.13 0854.42
2009/04/23 15:50:52.9     104    110    184    152    238  43.3  56.4  34320  292.29 0854.42
2009/04/23 15:50:53.0     161     98    217    189    287  58.5  54.3  34386  293.42 0854.42
2009/04/23 15:50:53.1      90    330    254    343    426  15.3  40.1  34342  292.66 0854.42
2009/04/23 15:50:53.2     222    500    239    548    597  24.0  25.1  34368  293.10 0854.42
2009/04/23 15:50:53.3     589    388    150    706    722  56.6  12.0  34238  290.88 0854.42
2009/04/23 15:50:53.4     482    366    223    606    645  52.8  21.1  34144  289.31 0854.42
2009/04/23 15:50:53.5     146    402    252    428    496  20.0  33.3  34144  289.30 0854.42
2009/04/23 15:50:53.6     -95    375    229    388    450 345.7  33.3  34158  289.53 0854.42
2009/04/23 15:50:53.7     -29    473     19    474    475 356.4   2.3  34158  289.54 0854.42
2009/04/23 15:50:53.8     141    303    -97    335    348  25.0 -21.0  34240  290.94 0854.42
2009/04/23 15:50:53.9     111    356   -125    374    394  17.4 -23.6  34176  289.84 0854.42
2009/04/23 15:50:54.0      69    329    112    337    356  11.9  18.5  34192  290.10 0854.42
2009/04/23 15:50:54.1     -82    322    153    333    366 345.7  26.4  34192  290.13 0854.42
2009/04/23 15:50:54.2    -129    377    230    399    460 341.1  32.4  34222  290.61 0854.42
2009/04/23 15:50:54.3    -151    263    248    304    392 330.1  43.4  34220  290.59 0854.42
2009/04/23 15:50:54.4    -161    144    185    217    285 311.8  44.8  34230  290.75 0854.42
2009/04/23 15:50:54.5    -118     18     56    120    132 278.8  27.1  34210  290.43 0854.42
2009/04/23 15:50:54.6      25     -8     56     27     62 108.2  72.9  34186  290.02 0854.42
2009/04/23 15:50:54.7      34    105     76    111    134  18.3  37.4  34184  289.97 0854.42
2009/04/23 15:50:54.8      -7     79    -66     80    103 354.7 -48.2  34182  289.94 0854.42
2009/04/23 15:50:54.9      68     64   -100     94    137  46.4 -56.5  34194  290.14 0854.42
2009/04/23 15:50:55.0     151     74    -48    169    175  64.0 -20.4  34196  290.19 0854.42
2009/04/23 15:50:55.1     174    197   -118    264    289  41.4 -30.3  34188  290.05 0854.42
2009/04/23 15:50:55.2     199    215   -131    294    321  42.8 -30.0  34148  289.36 0854.42
2009/04/23 15:50:55.3     222    185    -91    290    305  50.2 -17.5  34148  289.37 0854.42
2009/04/23 15:50:55.4     261    232    -13    350    351  48.4  -2.2  34142  289.26 0854.42
2009/04/23 15:50:55.5     269    325    122    423    441  39.6  16.1  34134  289.14 0854.42
2009/04/23 15:50:55.6     200    375     43    426    429  28.1   5.8  34140  289.22 0854.42
2009/04/23 15:50:55.7      57    217    -45    225    230  14.7 -11.3  34140  289.23 0854.42
2009/04/23 15:50:55.8      62    255     51    263    268  13.8  11.0  34140  289.22 0854.42
2009/04/23 15:50:55.9     147    220     41    265    269  33.8   8.8  34140  289.22 0854.42
2009/04/23 15:50:56.0     131    218    -10    255    256  31.0  -2.3  34142  289.27 0854.42
2009/04/23 15:50:56.1      78    194      2    210    211  21.9   0.8  34146  289.33 0854.42
2009/04/23 15:50:56.2      57    173    -41    183    188  18.3 -12.6  34144  289.30 0854.42
2009/04/23 15:50:56.3      31    155    -18    159    161  11.6  -6.5  34146  289.33 0854.37
2009/04/23 15:50:56.4       2    137      0    138    139   0.9  -0.3  34146  289.33 0854.37
2009/04/23 15:50:56.5      -6    122    -11    123    124 356.9  -5.2  34148  289.36 0854.37
2009/04/23 15:50:56.6     -10    155    -39    156    162 356.0 -14.3  34144  289.31 0854.37
2009/04/23 15:50:56.7      25    145    -44    148    154   9.8 -21.8  34146  289.35 0854.37
2009/04/23 15:50:56.8      12    183     -3    184    185   3.8  -1.2  34148  289.36 0854.37
2009/04/23 15:50:56.9      93    270    -62    286    293  19.2 -12.4  34140  289.24 0854.37
2009/04/23 15:50:57.0     137    170      2    219    220  39.0   0.7  34172  289.79 0854.37
2009/04/23 15:50:57.1     206    160    -37    261    264  52.2  -8.2  34254  291.17 0854.37
2009/04/23 15:50:57.2     322    111     31    341    343  70.9   5.2  34270  291.45 0854.37
2009/04/23 15:50:57.3     322    163    -14    362    363  63.1  -2.2  34280  291.62 0854.37
2009/04/23 15:50:57.4     277    154      4    318    319  60.9   0.9  34322  292.33 0854.37
2009/04/23 15:50:57.5     328    130     10    354    355  68.3   1.7  34352  292.82 0854.37
2009/04/23 15:50:57.6     312    121     76    335    344  68.7  12.9  34342  292.68 0854.37
2009/04/23 15:50:57.7     310     98    182    326    373  72.5  31.4  34300  291.95 0854.37
2009/04/23 15:50:57.8     305    114    178    326    371  69.5  31.3  34288  291.76 0854.37
2009/04/23 15:50:57.9      50    215    236    221    323  13.3  52.2  34240  290.93 0854.37
2009/04/23 15:50:58.0      83    319    200    330    385  14.7  34.2  34182  289.96 0854.37
2009/04/23 15:50:58.1     170    205    116    267    291  39.6  25.1  34228  290.73 0854.37
2009/04/23 15:50:58.2     160    210    143    265    301  37.4  31.0  34266  291.36 0854.34
2009/04/23 15:50:58.3      36    208    137    212    252   9.8  35.6  34236  290.85 0854.34
2009/04/23 15:50:58.4      63    165     81    177    194  21.2  26.6  34252  291.15 0854.34
2009/04/23 15:50:58.5     111     81     50    138    146  54.0  20.4  34312  292.17 0854.34
2009/04/23 15:50:58.6      31     44     68     55     87  35.2  56.9  34310  292.13 0854.34
2009/04/23 15:50:58.7     158      0    107    159    191  90.0  36.7  34294  291.86 0854.34
2009/04/23 15:50:58.8     129     30     47    133    142  76.7  19.4  34288  291.76 0854.34
2009/04/23 15:50:58.9     130     45     71    138    155  70.9  29.3  34316  292.22 0854.34
2009/04/23 15:50:59.0     131     61     80    145    165  64.8  31.4  34310  292.13 0854.34
2009/04/23 15:50:59.1     111     17     86    113    142  81.2  41.2  34296  291.89 0854.34
2009/04/23 15:50:59.2      78      0     83     79    114  90.0  51.2  34292  291.83 0854.34
2009/04/23 15:50:59.3      92     31     91     98    133  71.4  47.9  34314  292.20 0854.34
2009/04/23 15:50:59.4      51     12     91     53    105  75.8  66.8  34330  292.46 0854.34
2009/04/23 15:50:59.5      -9     94     40     95    103 354.2  23.6  34310  292.12 0854.34
2009/04/23 15:50:59.6     -66    115     -6    133    134 330.1  -2.6  34306  292.06 0854.34
2009/04/23 15:50:59.7     -95    101    -22    139    141 316.8  -9.4  34294  291.86 0854.34
2009/04/23 15:50:59.8    -187     14     -5    188    189 274.4  -1.8  34224  290.67 0854.34
2009/04/23 15:50:59.9    -239    -44     -9    244    245 259.4  -2.1  34216  290.51 0854.34
2009/04/23 15:51:00.0    -232   -144      8    274    275 238.2   1.8  34248  291.07 0854.34
2009/04/23 15:51:00.1    -206   -175    -19    271    272 229.6  -4.1  34266  291.36 0854.34
2009/04/23 15:51:00.2    -144   -129    -38    194    198 228.2 -11.1  34234  290.84 0854.35
2009/04/23 15:51:00.3    -117   -217     29    247    249 208.5   6.7  34258  291.22 0854.35
2009/04/23 15:51:00.4     -68   -239     16    249    250 196.0   3.8  34230  290.76 0854.35
2009/04/23 15:51:00.5     -87   -219     84    236    251 201.8  19.6  34254  291.16 0854.35
2009/04/23 15:51:00.6    -135   -155     69    206    218 221.0  18.6  34260  291.28 0854.35
2009/04/23 15:51:00.7    -187   -155     -1    243    244 230.4  -0.3  34248  291.07 0854.35
2009/04/23 15:51:00.8    -152   -217    -19    266    267 215.1  -4.1  34260  291.27 0854.35
2009/04/23 15:51:00.9    -166   -176    -55    242    249 223.3 -12.9  34198  290.20 0854.35
2009/04/23 15:51:01.0     -91   -144    -44    171    177 212.3 -14.7  34188  290.06 0854.35
2009/04/23 15:51:01.1      29   -232     64    234    243 172.7  15.3  34278  291.56 0854.35
2009/04/23 15:51:01.2      98   -317    131    332    356 162.8  22.8  34236  290.86 0854.35
2009/04/23 15:51:01.3       2   -346    149    347    377 179.5  24.8  34242  290.96 0854.35
2009/04/23 15:51:01.4      -1   -380    127    381    402 180.3  18.5  34228  290.72 0854.35
2009/04/23 15:51:01.5     -54   -331    116    336    356 189.4  19.2  34230  290.76 0854.35
2009/04/23 15:51:01.6     -55   -317    111    322    341 190.0  19.1  34220  290.60 0854.35
2009/04/23 15:51:01.7    -223   -348     21    414    415 212.7   2.9  34170  289.73 0854.35
2009/04/23 15:51:01.8    -159   -364    -18    398    399 203.6  -2.6  34198  290.23 0854.35
2009/04/23 15:51:01.9     -64   -255     17    263    264 194.2   3.9  34198  290.22 0854.35
2009/04/23 15:51:02.0     -78   -477     68    484    489 189.4   8.1  34212  290.44 0854.35
2009/04/23 15:51:02.1     -53   -432     13    436    437 187.1   1.7  34204  290.33 0854.35
2009/04/23 15:51:02.2     -21   -360     17    361    362 183.4   2.8  34212  290.45 0854.37
2009/04/23 15:51:02.3     -14   -423     82    424    432 182.0  11.0  34204  290.31 0854.37
2009/04/23 15:51:02.4     -50   -456     71    459    465 186.3   8.9  34212  290.46 0854.37
2009/04/23 15:51:02.5    -115   -403     65    420    426 195.9   8.9  34212  290.46 0854.37
2009/04/23 15:51:02.6     -28   -280     13    282    283 185.8   2.8  34188  290.05 0854.37
2009/04/23 15:51:02.7     173   -216     59    277    284 141.3  12.2  34180  289.90 0854.37
2009/04/23 15:51:02.8      75   -334    126    343    365 167.2  21.0  34166  289.67 0854.37
2009/04/23 15:51:02.9      77   -393    148    401    427 168.8  21.1  34158  289.53 0854.37
2009/04/23 15:51:03.0     200   -424    232    470    524 154.7  28.2  34136  289.17 0854.37
2009/04/23 15:51:03.1       8   -533    182    534    565 179.1  18.8  34146  289.35 0854.37
2009/04/23 15:51:03.2     103   -419    176    432    466 166.2  23.2  34152  289.43 0854.37
2009/04/23 15:51:03.3      25   -496    208    497    538 177.1  24.1  34154  289.48 0854.37
2009/04/23 15:51:03.4    -240   -574     46    623    625 202.7   4.2  34156  289.50 0854.37
2009/04/23 15:51:03.5    -182   -598     12    626    627 196.9   1.1  34168  289.72 0854.37
2009/04/23 15:51:03.6     -94   -522    -29    531    532 190.2  -3.1  34160  289.58 0854.37
2009/04/23 15:51:03.7    -432   -559      6    707    708 217.7   0.5  34136  289.15 0854.37
2009/04/23 15:51:03.8    -384   -449   -187    591    620 220.5 -17.6  34134  289.12 0854.37
2009/04/23 15:51:03.9    -308   -330   -162    452    480 223.0 -25.0  34130  289.06 0854.37
2009/04/23 15:51:04.0    -311   -425   -173    528    556 216.2 -18.2  34128  289.02 0854.37
2009/04/23 15:51:04.1    -278   -382   -149    473    497 216.1 -17.5  34124  288.96 0854.37
2009/04/23 15:51:04.2    -146   -388   -148    415    441 200.7 -19.7  34136  289.16 0854.36
2009/04/23 15:51:04.3    -115   -372   -152    390    418 197.3 -26.8  34140  289.22 0854.36
2009/04/23 15:51:04.4    -117   -470    -37    485    487 194.0  -4.4  34154  289.47 0854.36
2009/04/23 15:51:04.5     -83   -442    -13    450    451 190.7  -1.7  34146  289.34 0854.36
2009/04/23 15:51:04.6     -99   -502   -122    512    527 191.2 -13.4  34150  289.40 0854.36
2009/04/23 15:51:04.7    -115   -404   -147    421    447 195.9 -19.3  34146  289.34 0854.36
2009/04/23 15:51:04.8    -111   -500    -61    513    517 192.6  -6.8  34146  289.34 0854.36
2009/04/23 15:51:04.9    -185   -425     -9    464    465 203.6  -1.1  34154  289.46 0854.36
2009/04/23 15:51:05.0    -295   -479    -17    563    564 211.7  -1.8  34156  289.51 0854.36
2009/04/23 15:51:05.1    -282   -282   -227    399    459 225.0 -36.7  34156  289.51 0854.36
2009/04/23 15:51:05.2    -330    -21   -255    331    417 266.3 -45.9  34170  289.74 0854.31
2009/04/23 15:51:05.3    -193   -162   -168    252    302 230.0 -41.1  34166  289.66 0854.31
2009/04/23 15:51:05.4    -126     15    -57    127    139 277.0 -30.6  34166  289.69 0854.31
2009/04/23 15:51:05.5    -106    -17     16    108    110 260.8   8.5  34166  289.67 0854.31
2009/04/23 15:51:05.6    -103    -14   -151    105    183 262.0 -66.2  34162  289.62 0854.31
2009/04/23 15:51:05.7     -71    -33    -97     79    125 244.8 -60.8  34154  289.48 0854.31
2009/04/23 15:51:05.8    -146   -177   -115    230    257 219.6 -32.9  34162  289.59 0854.31
2009/04/23 15:51:05.9    -302   -130   -297    329    443 246.7 -51.2  34148  289.38 0854.31
2009/04/23 15:51:06.0    -466    -58   -149    470    493 262.9 -22.6  34142  289.25 0854.31
2009/04/23 15:51:06.1    -287    -44   -193    291    349 261.2 -40.9  34152  289.45 0854.31
2009/04/23 15:51:06.2    -205   -186   -229    278    360 227.8 -48.1  34132  289.11 0854.31
2009/04/23 15:51:06.3     -76   -147   -239    166    290 207.4 -66.8  34126  289.00 0854.31
2009/04/23 15:51:06.4     -18   -158   -189    160    247 186.7 -59.8  34150  289.41 0854.31
2009/04/23 15:51:06.5     -74   -275   -140    285    317 195.1 -32.5  34144  289.31 0854.31
2009/04/23 15:51:06.6       5   -295    -49    296    301 179.0  -9.4  34150  289.41 0854.31
2009/04/23 15:51:06.7      67   -247    -71    256    266 164.8 -15.5  34150  289.39 0854.31
2009/04/23 15:51:06.8     -41   -240    -81    244    258 189.8 -18.3  34136  289.17 0854.31
2009/04/23 15:51:06.9     -49   -208   -136    214    253 193.4 -39.9  34142  289.27 0854.31
2009/04/23 15:51:07.0      16   -216    -98    217    238 175.8 -30.3  34128  289.04 0854.31
2009/04/23 15:51:07.1     -59   -193    -83    203    219 197.2 -27.5  34138  289.19 0854.31
2009/04/23 15:51:07.2     -59   -135   -118    148    189 203.6 -47.4  34142  289.26 0854.33
2009/04/23 15:51:07.3     -80     25   -133     84    157 287.7 -69.3  34152  289.45 0854.33
2009/04/23 15:51:07.4      10    150   -141    151    206   4.0 -52.3  34156  289.52 0854.33
2009/04/23 15:51:07.5    -209     26   -145    211    256 277.2 -42.2  34146  289.32 0854.33
2009/04/23 15:51:07.6    -142    104   -183    177    254 306.4 -55.6  34146  289.33 0854.33
2009/04/23 15:51:07.7      -8    125   -160    126    203 356.0 -62.3  34150  289.41 0854.33
2009/04/23 15:51:07.8      46    134   -125    142    189  19.2 -50.2  34148  289.38 0854.33
2009/04/23 15:51:07.9      69    126   -165    144    219  28.9 -58.7  34142  289.26 0854.33
2009/04/23 15:51:08.0     -39     24   -155     46    161 301.5 -87.7  34150  289.40 0854.33
2009/04/23 15:51:08.1     -25     26   -196     37    199 316.6 -90.0  34154  289.46 0854.33
2009/04/23 15:51:08.2      83     76   -110    113    157  47.3 -53.6  34154  289.46 0854.33
2009/04/23 15:51:08.3       0     17    -99     18    100 357.3 -90.0  34164  289.65 0854.33
2009/04/23 15:51:08.4     -38    -38   -127     55    138 225.0 -79.4  34172  289.79 0854.33
2009/04/23 15:51:08.5      55      0    -54     56     77  90.0 -55.5  34164  289.65 0854.33
2009/04/23 15:51:08.6      41   -112    -85    120    147 160.0 -43.5  34160  289.58 0854.33
2009/04/23 15:51:08.7      23   -129    -66    132    147 169.8 -32.6  34158  289.55 0854.33
2009/04/23 15:51:08.8      62    -62    -49     88    100 135.0 -35.8  34154  289.48 0854.33
2009/04/23 15:51:08.9      66    -63      4     92     93 133.6   2.8  34154  289.48 0854.33
2009/04/23 15:51:09.0      62    -58     51     86     99 133.1  33.5  34154  289.48 0854.33
2009/04/23 15:51:09.1     105    -76     44    130    138 126.0  18.9  34150  289.40 0854.33
2009/04/23 15:51:09.2     179    -72     -8    194    195 112.0  -2.6  34150  289.40 0854.36
2009/04/23 15:51:09.3     157    -52     64    166    177 108.6  22.3  34150  289.40 0854.36
2009/04/23 15:51:09.4     140     -7     73    141    158  93.0  29.5  34150  289.40 0854.36
2009/04/23 15:51:09.5      14     32     89     35     95  23.6  77.6  34170  289.75 0854.36
2009/04/23 15:51:09.6      33     21     72     40     82  57.6  68.8  34172  289.77 0854.36
2009/04/23 15:51:09.7     181     69    128    194    232  68.9  36.3  34160  289.58 0854.36
2009/04/23 15:51:09.8     216     81     89    231    247  69.4  22.1  34162  289.59 0854.36
2009/04/23 15:51:09.9     105    125    182    164    244  40.1  53.3  34194  290.14 0854.36
2009/04/23 15:51:10.0     215     72    213    227    311  71.4  48.0  34164  289.64 0854.36
2009/04/23 15:51:10.1     291     35    119    294    317  83.0  23.2  34166  289.66 0854.36
2009/04/23 15:51:10.2     209    106     92    235    252  63.1  22.3  34146  289.32 0854.36
2009/04/23 15:51:10.3     362     87     70    373    380  76.4  10.7  34162  289.59 0854.36
2009/04/23 15:51:10.4     405     88    110    415    430  77.6  14.9  34162  289.60 0854.36
2009/04/23 15:51:10.5     362     98    136    376    399  74.9  20.7  34174  289.81 0854.36
2009/04/23 15:51:10.6     347    157     77    382    390  65.6  11.4  34202  290.27 0854.36
2009/04/23 15:51:10.7     442     77     59    449    453  80.1   7.6  34178  289.87 0854.36
2009/04/23 15:51:10.8     433    310    141    533    552  54.4  14.9  34222  290.62 0854.36
2009/04/23 15:51:10.9     362    275    159    455    481  52.8  20.0  34226  290.68 0854.36
2009/04/23 15:51:11.0     372    261    149    455    479  54.9  18.1  34248  291.05 0854.36
2009/04/23 15:51:11.1     249    201    134    321    347  51.1  23.8  34242  290.96 0854.36
2009/04/23 15:51:11.2     475    269    247    546    599  60.5  26.2  34272  291.48 0854.35
2009/04/23 15:51:11.3     375    207    341    429    548  61.1  42.6  34292  291.81 0854.35
2009/04/23 15:51:11.4     351    233    320    422    529  56.4  41.1  34192  290.12 0854.35
2009/04/23 15:51:11.5     373    270     99    461    472  54.1  12.2  34216  290.52 0854.35
2009/04/23 15:51:11.6     523     43     -2    525    526  85.2  -0.3  34186  290.02 0854.35
2009/04/23 15:51:11.7     563     73    176    568    595  82.6  17.3  34202  290.27 0854.35
2009/04/23 15:51:11.9     556    124    122    570    584  77.4  12.1  34232  290.78 0854.35
2009/04/23 15:51:12.0     418     81    -44    426    429  79.0  -6.0  34200  290.24 0854.35
2009/04/23 15:51:12.1     576    232     12    622    623  68.1   1.1  34160  289.57 0854.35
2009/04/23 15:51:12.2     633    239     76    677    682  69.3   6.5  34190  290.07 0854.35
2009/04/23 15:51:12.3     482    200    -20    523    524  67.4  -2.2  34180  289.92 0854.35
2009/04/23 15:51:12.4     476    257     26    541    542  61.6   2.8  34186  290.01 0854.35
2009/04/23 15:51:12.5     531    176     16    560    561  71.6   1.7  34186  290.02 0854.35
2009/04/23 15:51:12.6     518    200     22    556    557  68.8   2.3  34190  290.07 0854.35
2009/04/23 15:51:12.7     496    200     46    535    538  68.0   5.0  34174  289.82 0854.35
2009/04/23 15:51:12.8     543    210     58    583    586  68.8   5.7  34184  289.97 0854.35
2009/04/23 15:51:12.9     592    160     95    614    622  74.8   8.8  34186  290.01 0854.35
2009/04/23 15:51:13.0     478     49    181    481    513  84.1  21.5  34226  290.69 0854.35
2009/04/23 15:51:13.1     456    -49    187    459    495  96.2  23.5  34168  289.71 0854.35
2009/04/23 15:51:13.2     464    -43     65    467    472  95.4   8.0  34202  290.29 0854.35
2009/04/23 15:51:13.3     339    -49    241    343    419  98.4  38.6  34184  289.98 0854.34
2009/04/23 15:51:13.4     336    -85    234    347    418 104.3  37.2  34182  289.94 0854.34
2009/04/23 15:51:13.5     401    -31    271    403    485  94.5  37.1  34206  290.36 0854.34
2009/04/23 15:51:13.6     398    -81    294    407    502 101.5  39.5  34244  291.00 0854.34
2009/04/23 15:51:13.7     330   -113    281    350    448 109.0  42.9  34270  291.45 0854.34
2009/04/23 15:51:13.8     481     78    193    488    524  80.8  22.7  34328  292.44 0854.34
2009/04/23 15:51:13.9     233     47    234    238    333  78.5  49.7  34294  291.85 0854.34
2009/04/23 15:51:14.0     268    -13    201    269    335  92.8  40.4  34290  291.77 0854.34
2009/04/23 15:51:14.1     374     43    141    377    402  83.3  21.5  34292  291.83 0854.34
2009/04/23 15:51:14.2     506     88     53    514    517  80.1   6.0  34286  291.71 0854.34
2009/04/23 15:51:14.3     559    143    124    578    592  75.6  12.1  34304  292.01 0854.34
2009/04/23 15:51:14.4     574    165    122    598    611  74.0  11.6  34242  290.98 0854.34
2009/04/23 15:51:14.5     536    132    136    553    570  76.1  13.9  34310  292.13 0854.34
2009/04/23 15:51:14.6     508     74     67    514    519  81.6   7.4  34286  291.71 0854.34
2009/04/23 15:51:14.7     577    252     86    630    636  66.4   7.8  34320  292.29 0854.34
2009/04/23 15:51:14.8     556     19      3    557    558  88.0   0.3  34292  291.82 0854.34
2009/04/23 15:51:14.9     306    -87    240    319    399 105.9  40.7  34306  292.05 0854.34
2009/04/23 15:51:15.0     344   -139    321    372    491 112.1  45.2  34324  292.35 0854.34
2009/04/23 15:51:15.1     478   -138    339    498    602 106.2  37.4  34284  291.68 0854.34
2009/04/23 15:51:15.2     499   -255    344    561    658 117.1  34.4  34254  291.16 0854.34
2009/04/23 15:51:15.3     504   -200    356    543    649 111.7  36.3  34258  291.22 0854.30
2009/04/23 15:51:15.4     473    260    194    540    573  61.2  20.7  34202  290.28 0854.30
2009/04/23 15:51:15.5     428    -46    146    431    456  96.2  18.8  34220  290.60 0854.30
2009/04/23 15:51:15.6     394     30    148    396    422  85.6  21.5  34232  290.78 0854.30
2009/04/23 15:51:15.7     444    124    345    462    576  74.4  40.6  34264  291.33 0854.30
2009/04/23 15:51:15.8     356    119    302    376    482  71.5  43.0  34284  291.67 0854.30
2009/04/23 15:51:15.9     349     70    444    357    569  78.6  57.3  34270  291.44 0854.30
2009/04/23 15:51:16.0     394   -171    376    430    571 113.5  45.7  34194  290.14 0854.30
2009/04/23 15:51:16.1     335   -174    278    378    469 117.5  40.1  34188  290.05 0854.30
2009/04/23 15:51:16.2     319   -168    264    361    447 117.8  39.7  34194  290.14 0854.30
2009/04/23 15:51:16.3     292   -138    239    323    401 115.3  40.2  34198  290.23 0854.30
2009/04/23 15:51:16.4     253    -41    272    257    374  99.2  52.1  34212  290.47 0854.30
2009/04/23 15:51:16.5     144    -18    235    146    276  97.5  65.4  34244  291.00 0854.30
2009/04/23 15:51:16.6     199    101    306    224    379  63.0  60.5  34260  291.27 0854.30
2009/04/23 15:51:16.7      47      3    152     48    159  85.6  81.8  34244  291.01 0854.30
2009/04/23 15:51:16.8     170     97    109    197    225  60.2  31.4  34280  291.62 0854.30
2009/04/23 15:51:16.9     293     79    197    304    362  74.9  35.9  34252  291.15 0854.30
2009/04/23 15:51:17.0     240     61    221    248    332  75.6  46.5  34226  290.68 0854.30
2009/04/23 15:51:17.1      68   -115    195    134    236 149.3  62.4  34234  290.82 0854.30
2009/04/23 15:51:17.2     188    -14    215    189    286  94.3  54.3  34232  290.78 0854.30
2009/04/23 15:51:17.3     203    -31    175    206    270  98.8  44.5  34218  290.54 0854.33
2009/04/23 15:51:17.4     290     12    195    291    350  87.5  36.9  34230  290.76 0854.33
2009/04/23 15:51:17.5     250    -99    184    270    326 111.7  37.6  34224  290.66 0854.33
2009/04/23 15:51:17.6     240    -35    121    243    271  98.4  28.2  34230  290.75 0854.33
2009/04/23 15:51:17.7      37   -155    152    160    220 166.6  48.2  34228  290.72 0854.33
2009/04/23 15:51:17.8      65   -158    145    171    224 157.5  44.3  34220  290.58 0854.33
2009/04/23 15:51:17.9     149   -168    129    225    259 138.3  32.4  34216  290.51 0854.33
2009/04/23 15:51:18.0     178   -108    166    209    266 121.1  42.7  34218  290.56 0854.33
2009/04/23 15:51:18.1     150    -30    196    154    249 101.5  57.7  34238  290.89 0854.33
2009/04/23 15:51:18.2      12     19    159     23    160  32.5  90.0  34244  290.99 0854.33
2009/04/23 15:51:18.3      12      8    129     15    129  57.6  90.0  34270  291.43 0854.33
2009/04/23 15:51:18.4     143    -33    105    147    180 103.3  39.3  34292  291.81 0854.33
2009/04/23 15:51:18.5     168    -47    100    175    201 105.9  32.1  34250  291.11 0854.33
2009/04/23 15:51:18.6     213    -43    156    218    268 101.5  39.3  34238  290.90 0854.33
2009/04/23 15:51:18.7     186     90     85    207    223  64.0  23.1  34276  291.55 0854.33
2009/04/23 15:51:18.8      92    -29    140     97    170 107.7  62.1  34274  291.50 0854.33
2009/04/23 15:51:18.9      30    -18    156     36    160 120.7  87.3  34296  291.88 0854.33
2009/04/23 15:51:19.0     165    -26    152    168    226  99.0  46.9  34302  291.98 0854.33
2009/04/23 15:51:19.1     147      0     91    148    173  90.0  35.0  34250  291.09 0854.33
2009/04/23 15:51:19.2      57    -19     90     61    108 108.4  63.2  34276  291.55 0854.33
2009/04/23 15:51:19.3     110    127     54    169    178  41.0  17.9  34324  292.37 0854.38
2009/04/23 15:51:19.4     164     24    137    166    215  81.4  43.7  34362  293.02 0854.38
2009/04/23 15:51:19.5     123     58     37    137    142  64.8  15.2  34350  292.81 0854.38
2009/04/23 15:51:19.6     158     93    100    184    209  59.6  31.0  34336  292.58 0854.38
2009/04/23 15:51:19.7     214     56    159    222    273  75.4  39.1  34340  292.64 0854.38
2009/04/23 15:51:19.8     256    121    285    284    402  64.6  50.1  34352  292.85 0854.38
2009/04/23 15:51:19.9     480    178    389    513    643  69.6  40.9  34292  291.82 0854.38
2009/04/23 15:51:20.0     409     51    381    413    561  82.8  47.5  34282  291.64 0854.38
2009/04/23 15:51:20.1     446    -60    417    451    614  97.7  47.7  34310  292.11 0854.38
2009/04/23 15:51:20.2     335     39    321    338    466  83.3  48.4  34276  291.53 0854.38
2009/04/23 15:51:20.3     223   -105    266    247    362 115.4  52.3  34218  290.55 0854.38
2009/04/23 15:51:20.4     198   -172    192    263    325 130.9  39.8  34208  290.39 0854.38
2009/04/23 15:51:20.5     339   -177    176    383    421 117.7  26.5  34218  290.55 0854.38
2009/04/23 15:51:20.6     413     34     60    415    420  85.2   8.2  34260  291.26 0854.38
2009/04/23 15:51:20.7     297    147     16    332    333  63.7   2.9  34270  291.45 0854.38
2009/04/23 15:51:20.8      95    -60    125    113    168 122.4  53.3  34286  291.71 0854.38
2009/04/23 15:51:20.9     262     33    245    265    360  82.8  47.7  34296  291.88 0854.38
2009/04/23 15:51:21.0     234   -100    123    255    283 113.3  27.3  34276  291.55 0854.38
2009/04/23 15:51:21.1     225   -158    220    276    352 125.1  42.6  34198  290.20 0854.38
2009/04/23 15:51:21.2     208   -132    169    247    299 122.4  37.6  34188  290.03 0854.38
2009/04/23 15:51:21.3     182   -150    150    236    279 129.5  35.5  34180  289.90 0854.33
2009/04/23 15:51:21.4     151   -153    185    216    284 135.5  44.8  34178  289.88 0854.33
2009/04/23 15:51:21.5      96   -194    205    217    298 153.5  48.0  34184  289.98 0854.33
2009/04/23 15:51:21.6     100    -67     75    121    142 123.7  35.5  34192  290.13 0854.33
2009/04/23 15:51:21.7       6    -77      9     78     79 175.5   6.9  34210  290.41 0854.33
2009/04/23 15:51:21.8      87    -22     40     90     98 104.2  25.7  34208  290.40 0854.33
2009/04/23 15:51:21.9     -24     10     90     27     93 293.5  82.3  34224  290.67 0854.33
2009/04/23 15:51:22.0     -83   -252     88    266    281 198.3  18.4  34202  290.29 0854.33
2009/04/23 15:51:22.1    -124   -373    111    394    410 198.4  15.8  34214  290.50 0854.33
2009/04/23 15:51:22.2     -85   -313    114    325    344 195.2  20.0  34214  290.50 0854.33
2009/04/23 15:51:22.3     -73   -205    140    218    259 199.8  35.6  34204  290.32 0854.33
2009/04/23 15:51:22.4     -53   -109      9    122    123 205.9   4.4  34196  290.18 0854.33
2009/04/23 15:51:22.5      63    -99    -53    118    129 147.5 -30.6  34208  290.40 0854.33
2009/04/23 15:51:22.6     113     23      7    116    117  78.1   3.8  34242  290.98 0854.33
2009/04/23 15:51:22.7     321      0    116    322    343  89.9  19.9  34254  291.17 0854.33
2009/04/23 15:51:22.8     420     80     61    428    433  79.2   8.1  34240  290.94 0854.33
2009/04/23 15:51:22.9     270     65    122    278    303  76.3  25.2  34252  291.14 0854.33
2009/04/23 15:51:23.0     190     38    -40    194    199  78.6 -11.9  34202  290.28 0854.33
2009/04/23 15:51:23.1     134     39     82    140    162  73.6  33.5  34240  290.94 0854.33
2009/04/23 15:51:23.2      61     96    124    115    169  32.5  52.2  34260  291.28 0854.33
2009/04/23 15:51:23.3    -105    129     19    167    169 320.8   6.5  34248  291.08 0854.36
2009/04/23 15:51:23.4    -197     44     74    202    215 282.6  20.9  34228  290.72 0854.36
2009/04/23 15:51:23.5     -46     15     97     49    108 288.4  71.4  34234  290.84 0854.36
2009/04/23 15:51:23.6     -85    -91    181    125    219 223.2  62.1  34210  290.41 0854.36
2009/04/23 15:51:23.7    -126   -131    209    182    277 223.9  54.3  34204  290.31 0854.36
2009/04/23 15:51:23.8     -55    -86    143    103    176 212.6  60.5  34206  290.36 0854.36
2009/04/23 15:51:23.9     -19    -96    139     99    170 191.6  61.1  34208  290.40 0854.36
2009/04/23 15:51:24.0     -25   -127     91    130    158 191.1  38.4  34198  290.23 0854.36
2009/04/23 15:51:24.1      -4   -116     91    117    148 182.2  41.7  34212  290.47 0854.36
2009/04/23 15:51:24.2       7    -62     83     63    104 172.9  59.4  34228  290.72 0854.36
2009/04/23 15:51:24.3      -8   -131     60    132    145 183.6  26.2  34202  290.28 0854.36
2009/04/23 15:51:24.4       8   -163     33    164    168 177.1  11.4  34202  290.28 0854.36
2009/04/23 15:51:24.5      90    -84      6    124    125 133.1   2.8  34202  290.28 0854.36
2009/04/23 15:51:24.6      84    -27     -8     89     90 107.7  -5.2  34202  290.28 0854.36
2009/04/23 15:51:24.7      89     15     38     91     98  80.3  23.6  34206  290.35 0854.36
2009/04/23 15:51:24.8      25     45      8     52     53  29.0   9.0  34212  290.47 0854.36
2009/04/23 15:51:24.9     -41     71     10     83     84 330.1   7.5  34224  290.67 0854.36
2009/04/23 15:51:25.0     -96     33    -45    102    111 289.1 -30.1  34234  290.82 0854.36
2009/04/23 15:51:25.1    -165     34     23    169    171 281.7   7.8  34244  291.01 0854.36
2009/04/23 15:51:25.2    -243    -18    142    244    282 265.7  33.1  34254  291.17 0854.39
2009/04/23 15:51:25.3    -314    -38     84    317    328 263.0  14.9  34258  291.24 0854.39
2009/04/23 15:51:25.4    -347   -133     52    372    376 249.0   8.0  34252  291.13 0854.39
2009/04/23 15:51:25.5    -293    -96    105    309    327 251.8  18.9  34236  290.87 0854.39
2009/04/23 15:51:25.6    -111   -128    127    170    212 221.0  40.4  34238  290.91 0854.39
2009/04/23 15:51:25.7     -90    -74    116    117    164 230.4  50.2  34246  291.04 0854.39
2009/04/23 15:51:25.8    -207     24     62    209    219 276.8  16.6  34244  291.01 0854.39
2009/04/23 15:51:25.9    -127     90    -13    156    157 305.5  -4.9  34236  290.87 0854.39
2009/04/23 15:51:26.0    -130     23    -81    133    155 280.1 -39.4  34240  290.94 0854.39
2009/04/23 15:51:26.1    -196      0   -113    197    227 270.1 -36.8  34240  290.94 0854.39
2009/04/23 15:51:26.2    -237    -25    -85    239    254 263.9 -19.7  34236  290.87 0854.39
2009/04/23 15:51:26.3    -346     41     63    349    355 276.9  10.3  34248  291.06 0854.39
2009/04/23 15:51:26.4    -323    227     20    395    396 305.1   3.0  34250  291.10 0854.39
2009/04/23 15:51:26.5    -254    168    107    305    324 303.5  19.4  34232  290.78 0854.39
2009/04/23 15:51:26.6    -245    190    112    311    330 307.8  20.4  34228  290.73 0854.39
2009/04/23 15:51:26.7    -236    227     76    328    337 313.9  13.1  34252  291.13 0854.39
2009/04/23 15:51:26.8    -293    192     99    351    365 303.3  15.8  34250  291.10 0854.39
2009/04/23 15:51:26.9    -162    238    105    289    307 325.7  20.9  34238  290.90 0854.39
2009/04/23 15:51:27.0    -197    210    181    289    341 316.8  35.2  34238  290.90 0854.39
2009/04/23 15:51:27.1    -162    199    182    257    314 320.8  38.7  34244  291.00 0854.39
2009/04/23 15:51:27.2    -107    269    145    290    324 338.2  28.5  34266  291.36 0854.38
2009/04/23 15:51:27.3     -42    171     71    177    190 346.0  23.0  34292  291.81 0854.38
2009/04/23 15:51:27.4    -174     85     56    194    203 296.2  16.3  34252  291.15 0854.38
2009/04/23 15:51:27.5    -116    116     49    165    173 315.0  16.8  34254  291.16 0854.38
2009/04/23 15:51:27.6     -27     92    -26     97    101 343.5 -15.0  34276  291.54 0854.38
2009/04/23 15:51:27.7      66    117      0    135    136  29.4   0.2  34266  291.37 0854.38
2009/04/23 15:51:27.8     110    139     22    178    180  38.3   7.1  34276  291.55 0854.38
2009/04/23 15:51:27.9      82    129    -11    154    155  32.6  -4.1  34282  291.64 0854.38
2009/04/23 15:51:28.0      46    116     23    125    128  21.8  10.6  34264  291.33 0854.38
2009/04/23 15:51:28.1     -25    126     63    129    143 348.4  27.8  34256  291.21 0854.38
2009/04/23 15:51:28.2     -88     46    122    100    157 297.5  56.4  34262  291.30 0854.39
2009/04/23 15:51:28.3    -141    137    139    197    241 314.2  38.6  34252  291.15 0854.39
2009/04/23 15:51:28.4     -82    168    115    188    220 333.9  34.4  34244  291.01 0854.39
2009/04/23 15:51:28.5     -40    148     26    154    157 344.9   9.9  34256  291.20 0854.39
2009/04/23 15:51:28.6      22    110    -30    113    118  11.5 -15.0  34266  291.37 0854.39
2009/04/23 15:51:28.7      64     14    -18     66     69  77.6 -15.5  34272  291.47 0854.39
2009/04/23 15:51:28.8      59     56     55     82     98  46.4  37.0  34312  292.17 0854.39
2009/04/23 15:51:28.9      66     90     39    112    119  36.1  19.4  34356  292.90 0854.39
2009/04/23 15:51:29.0     120     93    128    153    199  52.2  44.1  34384  293.38 0854.39
2009/04/23 15:51:29.1     354    167     41    392    395  64.7   6.1  34264  291.35 0854.39
2009/04/23 15:51:29.2     368    304     79    478    485  50.5   9.5  34208  290.39 0854.39
2009/04/23 15:51:29.3     548    203    125    585    599  69.6  12.1  34282  291.66 0854.39
2009/04/23 15:51:29.4     388     71    119    395    413  79.5  16.8  34256  291.19 0854.39
2009/04/23 15:51:29.5     612    158     46    633    635  75.5   4.2  34244  291.01 0854.39
2009/04/23 15:51:29.6     418    317    136    525    543  52.8  14.5  34236  290.87 0854.39
2009/04/23 15:51:29.7     395    -26    208    396    447  93.9  30.0  34250  291.11 0854.39
2009/04/23 15:51:29.8     368   -184    162    412    442 116.6  22.8  34296  291.87 0854.39
2009/04/23 15:51:29.9     355   -228    -77    423    430 122.8 -10.4  34258  291.23 0854.39
2009/04/23 15:51:30.0     441   -257   -132    511    528 120.3 -14.5  34252  291.14 0854.39
2009/04/23 15:51:30.1     451   -384   -123    593    606 130.4 -11.8  34258  291.24 0854.39
2009/04/23 15:51:30.2     502   -405   -213    646    680 128.9 -23.5  34254  291.17 0854.39
2009/04/23 15:51:30.3     189   -318   -112    370    387 149.3 -17.0  34264  291.35 0854.39
2009/04/23 15:51:30.4     116   -243    -49    270    275 154.5 -10.3  34282  291.63 0854.39
2009/04/23 15:51:30.5     134   -240      5    276    277 150.8   1.2  34286  291.72 0854.39
2009/04/23 15:51:30.6      90   -314     94    327    341 164.0  16.1  34290  291.78 0854.39
2009/04/23 15:51:30.7     187   -228    142    296    328 140.6  27.4  34284  291.68 0854.39
2009/04/23 15:51:30.8      70   -345    279    353    449 168.4  42.3  34314  292.20 0854.39
2009/04/23 15:51:30.9      46   -208    303    214    370 167.3  61.4  34334  292.53 0854.39
2009/04/23 15:51:31.0      17   -170    273    171    322 174.2  64.9  34332  292.48 0854.39
2009/04/23 15:51:31.1      12   -275    235    276    362 177.4  44.7  34322  292.31 0854.39
2009/04/23 15:51:31.2      52    -73    135     91    162 144.4  63.2  34320  292.30 0854.39
2009/04/23 15:51:31.3      28     73     93     79    122  20.9  54.8  34298  291.91 0854.39
2009/04/23 15:51:31.4     132    -14    118    133    177  96.1  46.4  34272  291.49 0854.39
2009/04/23 15:51:31.5     189    -88    185    209    279 115.1  45.9  34252  291.12 0854.39
2009/04/23 15:51:31.6     178   -103    180    206    273 120.2  45.8  34250  291.10 0854.39
2009/04/23 15:51:31.7       7     36     94     37    101  11.6  77.1  34260  291.28 0854.39
2009/04/23 15:51:31.8     -29     46     56     55     78 327.5  48.2  34270  291.43 0854.39
2009/04/23 15:51:31.9     -12     35     15     38     40 341.3  22.0  34260  291.28 0854.39
2009/04/23 15:51:32.0      -7      2     -5      8      9 288.4 -39.9  34256  291.20 0854.39
2009/04/23 15:51:32.1    -127    -92   -113    158    194 234.1 -43.5  34248  291.06 0854.39
2009/04/23 15:51:32.2    -125    -64   -130    141    191 242.9 -52.1  34244  291.01 0854.40
2009/04/23 15:51:32.3      16     47    -94     50    106  18.7 -73.7  34254  291.16 0854.40
2009/04/23 15:51:32.4      69     38    -54     79     95  61.1 -41.4  34244  291.01 0854.40
2009/04/23 15:51:32.5      72     71     12    102    103  45.6   7.1  34244  291.01 0854.40
2009/04/23 15:51:32.6      56    102     33    117    122  29.0  15.8  34242  290.96 0854.40
2009/04/23 15:51:32.7     217    238    172    323    365  42.3  30.3  34270  291.44 0854.40
2009/04/23 15:51:32.8     268    459    165    532    558  30.3  17.3  34288  291.76 0854.40
2009/04/23 15:51:32.9     122     88    234    151    278  54.0  64.4  34264  291.33 0854.40
2009/04/23 15:51:33.0     417     95    176    428    462  77.1  23.6  34212  290.46 0854.40
2009/04/23 15:51:33.1     498    109    247    510    566  77.6  27.7  34270  291.43 0854.40
2009/04/23 15:51:33.2     432    261    147    505    527  58.8  16.3  34252  291.14 0854.40
2009/04/23 15:51:33.3      78    353     48    362    366  12.6   7.6  34266  291.37 0854.40
2009/04/23 15:51:33.4     170    376    197    413    457  24.3  27.3  34270  291.45 0854.40
2009/04/23 15:51:33.5     230    359    229    427    484  32.7  30.6  34246  291.02 0854.40
2009/04/23 15:51:33.6     246    124     91    276    291  63.1  18.4  34208  290.37 0854.40
2009/04/23 15:51:33.7     218    170    135    277    308  52.0  27.8  34202  290.29 0854.40
2009/04/23 15:51:33.8      93     93    220    132    256  45.1  66.4  34260  291.28 0854.40
2009/04/23 15:51:33.9      92     47    242    104    263  62.9  75.5  34280  291.60 0854.40
2009/04/23 15:51:34.0     219     66    197    229    302  73.1  45.4  34238  290.90 0854.40
2009/04/23 15:51:34.1     373     40    259    376    456  83.8  37.8  34244  290.99 0854.40
2009/04/23 15:51:34.2     352    100    309    366    478  74.1  44.4  34238  290.89 0854.45
2009/04/23 15:51:34.3     362    196    246    412    479  61.5  33.7  34194  290.16 0854.45
2009/04/23 15:51:34.4     415    190    214    457    504  65.4  27.0  34184  289.98 0854.45
2009/04/23 15:51:34.5     383    252    161    459    487  56.7  19.4  34188  290.03 0854.45
2009/04/23 15:51:34.6     390    223    212    450    497  60.3  27.1  34178  289.89 0854.45
2009/04/23 15:51:34.7     345    205     94    402    413  59.2  13.3  34200  290.26 0854.45
2009/04/23 15:51:34.8     292    106    -74    311    320  70.0 -13.4  34204  290.31 0854.45
2009/04/23 15:51:34.9     432    157     47    460    463  70.0   5.9  34202  290.28 0854.45
2009/04/23 15:51:35.0     390    215    121    446    463  61.1  15.2  34218  290.56 0854.45
2009/04/23 15:51:35.1     311    331    141    455    477  43.2  17.3  34230  290.76 0854.45
2009/04/23 15:51:35.2     368    133    139    392    417  70.1  19.6  34236  290.85 0854.45
2009/04/23 15:51:35.3     381    194     91    428    438  62.9  12.1  34226  290.68 0854.45
2009/04/23 15:51:35.4     248    223    178    334    378  48.1  30.5  34342  292.68 0854.45
2009/04/23 15:51:35.5     275    200    139    341    368  53.9  23.4  34254  291.18 0854.45
2009/04/23 15:51:35.6     220    186    132    289    317  49.8  26.3  34270  291.43 0854.45
2009/04/23 15:51:35.7     297     90     43    311    314  73.1   7.9  34216  290.53 0854.45
2009/04/23 15:51:35.8     279    126     29    307    309  65.6   5.4  34250  291.10 0854.45
2009/04/23 15:51:35.9     297    145     60    331    337  63.9  10.4  34234  290.83 0854.45
2009/04/23 15:51:36.0     219    232    -30    320    322  43.4  -5.4  34214  290.49 0854.45
2009/04/23 15:51:36.1     167    142     85    220    235  49.6  22.1  34226  290.69 0854.45
2009/04/23 15:51:36.2     183    106     27    212    214  60.0   7.5  34226  290.69 0854.44
2009/04/23 15:51:36.3     149     66     44    164    170  66.0  15.0  34220  290.58 0854.44
2009/04/23 15:51:36.4     233     72     38    245    249  72.7   9.0  34210  290.41 0854.44
2009/04/23 15:51:36.5     152     51     62    161    172  71.4  21.7  34206  290.35 0854.44
2009/04/23 15:51:36.6     154     73     43    171    177  64.6  14.3  34200  290.25 0854.44
2009/04/23 15:51:36.7     168     36    -42    172    178  77.8 -13.9  34212  290.45 0854.44
2009/04/23 15:51:36.8      96     18    -70     98    120  79.0 -43.9  34224  290.67 0854.44
2009/04/23 15:51:36.9      61     66    -44     90    100  42.8 -32.2  34228  290.74 0854.44
2009/04/23 15:51:37.0      79      6    -52     80     95  85.6 -40.0  34230  290.77 0854.44
2009/04/23 15:51:37.1     145     71    -20    162    164  63.8  -7.2  34212  290.47 0854.44
2009/04/23 15:51:37.2     108    187    -67    217    228  30.1 -17.3  34238  290.89 0854.44
2009/04/23 15:51:37.3      60    341    -35    347    349  10.0  -5.9  34202  290.30 0854.44
2009/04/23 15:51:37.4     155    449    -60    476    480  19.1  -7.2  34194  290.15 0854.44
2009/04/23 15:51:37.5     164    253    204    302    364  33.0  37.4  34230  290.76 0854.44
2009/04/23 15:51:37.6      21     18    165     28    167  48.7  90.0  34262  291.30 0854.44
2009/04/23 15:51:37.7      15      7    103     17    104  64.7  90.0  34278  291.57 0854.44
2009/04/23 15:51:37.8      62     27    122     68    139  66.5  68.8  34284  291.67 0854.44
2009/04/23 15:51:37.9      16    115     78    117    140   8.1  37.0  34282  291.64 0854.44
2009/04/23 15:51:38.0     -29    144    162    148    219 348.4  52.7  34282  291.64 0854.44
2009/04/23 15:51:38.1    -112    105    102    154    184 313.1  36.5  34272  291.49 0854.44
2009/04/23 15:51:38.2    -156     67      6    170    171 293.3   2.3  34264  291.35 0854.43
2009/04/23 15:51:38.4    -170     67    -14    183    184 291.7  -4.4  34264  291.35 0854.43
2009/04/23 15:51:38.4    -143    152    -37    209    213 316.7 -10.1  34268  291.40 0854.43
2009/04/23 15:51:38.6    -133     44    -74    141    159 288.6 -34.2  34250  291.09 0854.43
2009/04/23 15:51:38.7     -84     95    -46    127    135 318.6 -24.4  34248  291.06 0854.43
2009/04/23 15:51:38.8     -30     65    -24     72     75 334.7 -23.6  34250  291.09 0854.43
2009/04/23 15:51:38.9      94    198    -52    220    227  25.3 -13.4  34236  290.86 0854.43
2009/04/23 15:51:39.0     127    239    -24    271    273  28.1  -5.2  34226  290.68 0854.43
2009/04/23 15:51:39.1      70    109    140    130    191  33.0  52.2  34242  290.96 0854.43
2009/04/23 15:51:39.2      11     33     74     35     81  18.5  73.5  34250  291.09 0854.43
2009/04/23 15:51:39.3     -25    -47     53     54     75 208.1  51.1  34250  291.09 0854.43
2009/04/23 15:51:39.4     -70   -114     59    134    146 211.6  25.1  34246  291.03 0854.43
2009/04/23 15:51:39.5    -140   -125     70    189    201 228.2  21.0  34246  291.04 0854.43
2009/04/23 15:51:39.6    -168   -222    -15    279    280 217.2  -3.2  34250  291.09 0854.43
2009/04/23 15:51:39.7    -132   -212    -29    250    252 211.9  -6.7  34252  291.12 0854.43
2009/04/23 15:51:39.8    -173   -230    -11    289    290 217.0  -2.2  34246  291.02 0854.43
2009/04/23 15:51:39.9    -186   -154    -72    242    253 230.4 -16.6  34242  290.97 0854.43
2009/04/23 15:51:40.0    -183   -179    -76    257    269 225.6 -16.6  34256  291.19 0854.43
2009/04/23 15:51:40.1    -100   -177    -89    204    222 209.6 -29.5  34246  291.03 0854.43
2009/04/23 15:51:40.2    -148   -152     -4    213    214 224.1  -1.3  34246  291.03 0854.43
2009/04/23 15:51:40.3     -12   -297     54    298    303 182.5  10.3  34248  291.07 0854.41
2009/04/23 15:51:40.4     -96   -371     54    384    388 194.5   8.0  34242  290.96 0854.41
2009/04/23 15:51:40.5    -122   -494      7    509    510 193.9   0.8  34226  290.69 0854.41
2009/04/23 15:51:40.6    -131   -403     24    424    425 198.0   3.3  34236  290.87 0854.41
2009/04/23 15:51:40.7    -104   -409      5    423    424 194.3   0.7  34220  290.58 0854.41
2009/04/23 15:51:40.8      48   -361    127    365    387 172.3  19.3  34228  290.72 0854.41
2009/04/23 15:51:40.9      95   -470    125    480    497 168.5  14.7  34226  290.68 0854.41
2009/04/23 15:51:41.0      29   -470      9    471    472 176.4   1.1  34222  290.61 0854.41
2009/04/23 15:51:41.1     127   -446    142    464    486 164.1  17.0  34214  290.49 0854.41
2009/04/23 15:51:41.2     153   -460    143    486    507 161.5  16.4  34196  290.17 0854.41
2009/04/23 15:51:41.3      68   -434    123    440    458 171.0  15.7  34190  290.09 0854.41
2009/04/23 15:51:41.4      -7   -375    136    376    400 181.2  19.9  34192  290.13 0854.41
2009/04/23 15:51:41.5     -88   -315     89    328    340 195.7  15.2  34198  290.20 0854.41
2009/04/23 15:51:41.6     -75   -279     67    289    297 195.1  13.2  34192  290.12 0854.41
2009/04/23 15:51:41.7     -75   -331    113    340    359 192.8  18.4  34194  290.16 0854.41
2009/04/23 15:51:41.8    -119   -342     79    363    372 199.2  12.4  34202  290.30 0854.41
2009/04/23 15:51:41.9    -235   -402    100    466    477 210.3  12.1  34204  290.32 0854.41
2009/04/23 15:51:42.0    -255   -318     39    408    410 218.8   5.5  34204  290.31 0854.41
2009/04/23 15:51:42.1    -217   -274     26    350    351 218.4   4.3  34198  290.21 0854.41
2009/04/23 15:51:42.2    -457   -276    -38    534    536 238.9  -4.1  34208  290.38 0854.41
2009/04/23 15:51:42.3    -399   -257    130    475    493 237.2  15.4  34218  290.57 0854.38
2009/04/23 15:51:42.4    -293   -244    206    382    434 230.2  30.7  34222  290.61 0854.38
2009/04/23 15:51:42.5    -128   -339    300    363    470 200.7  43.7  34220  290.58 0854.38
2009/04/23 15:51:42.6    -185   -520    173    553    580 199.6  17.4  34200  290.24 0854.38
2009/04/23 15:51:42.7      35   -539    174    541    569 176.2  17.8  34192  290.13 0854.38
2009/04/23 15:51:42.8     200   -487     74    527    533 157.6   8.0  34178  289.87 0854.38
2009/04/23 15:51:42.9     243   -441    183    504    536 151.2  20.9  34158  289.55 0854.38
2009/04/23 15:51:43.0     337   -473    256    581    634 144.5  25.3  34140  289.23 0854.38
2009/04/23 15:51:43.1     349   -545    291    648    710 147.4  25.8  34104  288.61 0854.38
2009/04/23 15:51:43.2     370   -392    407    540    676 136.7  40.8  34132  289.11 0854.38
2009/04/23 15:51:43.3     371   -462    272    593    652 141.3  26.4  34156  289.50 0854.38
2009/04/23 15:51:43.4     145   -616    168    633    655 166.7  14.9  34158  289.55 0854.38
2009/04/23 15:51:43.5       0   -612     89    613    620 180.0   8.3  34136  289.16 0854.38
2009/04/23 15:51:43.6     -89   -543     71    551    556 189.4   7.4  34144  289.29 0854.38
2009/04/23 15:51:43.7     189   -680    116    707    717 164.4   9.3  34142  289.25 0854.38
2009/04/23 15:51:43.8     330   -452    414    560    696 143.9  40.1  34144  289.31 0854.38
2009/04/23 15:51:43.9     419   -311    291    523    598 126.6  31.4  34148  289.36 0854.38
2009/04/23 15:51:44.0     246   -377    150    451    476 146.9  18.5  34130  289.08 0854.38
2009/04/23 15:51:44.1      76   -539     31    545    546 171.9   3.3  34144  289.29 0854.38
2009/04/23 15:51:44.2     -42   -593    -54    595    598 184.1  -5.2  34154  289.47 0854.38
2009/04/23 15:51:44.3     330   -266    -13    425    426 128.9  -1.8  34164  289.65 0854.37
2009/04/23 15:51:44.4     399   -189     94    442    452 115.4  12.0  34152  289.44 0854.37
2009/04/23 15:51:44.5     435   -164    136    466    486 110.7  16.3  34158  289.54 0854.37
2009/04/23 15:51:44.6     433     -6    217    434    485  90.9  28.6  34152  289.44 0854.37
2009/04/23 15:51:44.7     294     45    118    298    320  81.2  22.8  34162  289.61 0854.37
2009/04/23 15:51:44.8     346   -282    -21    447    448 129.2  -2.8  34164  289.63 0854.37
2009/04/23 15:51:44.9     227   -256    -49    343    347 138.5  -8.2  34162  289.59 0854.37
2009/04/23 15:51:45.0     221   -335     93    402    413 146.5  13.1  34150  289.39 0854.37
2009/04/23 15:51:45.1     226   -254    148    341    371 138.3  25.0  34148  289.37 0854.37
2009/04/23 15:51:45.2      96   -399    302    411    510 166.5  40.0  34168  289.71 0854.37
2009/04/23 15:51:45.3     135   -467     77    487    494 163.9   9.0  34168  289.71 0854.37
2009/04/23 15:51:45.4      89   -399     27    410    411 167.3   3.8  34166  289.66 0854.37
2009/04/23 15:51:45.5      54   -324    -43    329    332 170.4  -7.5  34166  289.67 0854.37
2009/04/23 15:51:45.6      54   -490     -1    494    495 173.7  -0.2  34170  289.73 0854.37
2009/04/23 15:51:45.7      88   -347     19    359    360 165.7   3.1  34168  289.72 0854.37
2009/04/23 15:51:45.8      77   -153    103    172    200 153.3  33.5  34166  289.69 0854.37
2009/04/23 15:51:45.9      53    -13    113     55    125 104.2  72.4  34174  289.82 0854.37
2009/04/23 15:51:46.0     -60    -31     82     68    106 242.0  56.3  34188  290.06 0854.37
2009/04/23 15:51:46.1    -167      7      3    168    169 272.6   1.2  34178  289.87 0854.37
2009/04/23 15:51:46.2      61     16    -93     64    112  74.9 -66.5  34184  289.97 0854.37
2009/04/23 15:51:46.3       6   -240    -75    241    252 178.4 -22.5  34164  289.63 0854.38
2009/04/23 15:51:46.4    -120   -274    -21    300    301 203.6  -4.1  34164  289.64 0854.38
2009/04/23 15:51:46.5     -61   -126     32    141    145 205.9  13.1  34164  289.63 0854.38
2009/04/23 15:51:46.6     143    -47    152    151    214 108.4  49.9  34170  289.74 0854.38
2009/04/23 15:51:46.7     184    -78    126    201    237 113.1  35.0  34168  289.72 0854.38
2009/04/23 15:51:46.8     157    -90     94    182    204 119.8  29.3  34166  289.69 0854.38
2009/04/23 15:51:46.9      58    -79    114     99    150 143.9  54.8  34176  289.85 0854.38
2009/04/23 15:51:47.0      44     -3     91     45    101  94.4  71.9  34172  289.77 0854.38
2009/04/23 15:51:47.1     115     84    135    143    196  53.6  48.2  34164  289.65 0854.38
2009/04/23 15:51:47.2      65     89    116    111    160  36.1  51.4  34174  289.80 0854.38
2009/04/23 15:51:47.3      71     49     57     87    104  55.4  36.0  34164  289.65 0854.38
2009/04/23 15:51:47.4      41     36    130     55    141  48.7  76.1  34176  289.85 0854.38
2009/04/23 15:51:47.5     120    198     81    232    246  31.4  19.4  34162  289.59 0854.38
2009/04/23 15:51:47.6     112    209    140    238    276  28.1  33.4  34160  289.56 0854.38
2009/04/23 15:51:47.7      98     78    153    126    198  51.4  56.4  34170  289.74 0854.38
2009/04/23 15:51:47.8      20   -129     98    131    163 171.1  40.4  34156  289.50 0854.38
2009/04/23 15:51:47.9      38   -143    125    149    194 164.9  44.1  34158  289.55 0854.38
2009/04/23 15:51:48.0      64   -187    101    198    222 161.1  29.3  34156  289.50 0854.38
2009/04/23 15:51:48.1      92   -332    261    345    432 164.5  40.9  34158  289.53 0854.38
2009/04/23 15:51:48.2     135   -485    398    504    642 164.4  42.3  34158  289.54 0854.38
2009/04/23 15:51:48.3      78   -498    410    505    650 171.0  43.3  34162  289.59 0854.40
2009/04/23 15:51:48.4     137   -521    399    539    670 165.2  40.1  34162  289.59 0854.40
2009/04/23 15:51:48.5     157   -472    275    498    568 161.6  31.3  34150  289.41 0854.40
2009/04/23 15:51:48.6     215   -713    368    745    830 163.2  28.2  34152  289.42 0854.40
2009/04/23 15:51:48.7     225   -682    268    719    767 161.7  21.4  34140  289.23 0854.40
2009/04/23 15:51:48.8     200   -605    302    638    705 161.7  27.1  34136  289.17 0854.40
2009/04/23 15:51:48.9     232   -691    358    730    813 161.4  28.0  34130  289.08 0854.40
2009/04/23 15:51:49.0     121   -688    371    699    791 170.0  30.2  34130  289.06 0854.40
2009/04/23 15:51:49.1     267   -655    398    708    812 157.8  31.9  34130  289.08 0854.40
2009/04/23 15:51:49.2     336   -600    437    688    815 150.7  35.5  34142  289.27 0854.40
2009/04/23 15:51:49.3      96   -531    375    540    657 169.7  38.3  34122  288.94 0854.40
2009/04/23 15:51:49.4     128   -291    418    319    525 156.2  59.0  34150  289.40 0854.40
2009/04/23 15:51:49.5     261   -471    309    539    621 151.0  32.4  34142  289.25 0854.40
2009/04/23 15:51:49.6     122   -399    242    418    482 163.0  32.8  34146  289.33 0854.40
2009/04/23 15:51:49.7     113   -321    283    341    443 160.5  43.8  34148  289.36 0854.40
2009/04/23 15:51:49.8     216   -402    171    457    487 151.8  21.5  34142  289.25 0854.40
2009/04/23 15:51:49.9       9   -307    221    308    379 178.2  39.2  34142  289.28 0854.40
2009/04/23 15:51:50.0      91   -260    375    276    465 160.6  60.4  34156  289.51 0854.40
2009/04/23 15:51:50.1     139   -381    365    406    545 160.0  46.8  34152  289.42 0854.40
2009/04/23 15:51:50.2     393   -335    110    517    529 130.4  12.0  34146  289.33 0854.40
2009/04/23 15:51:50.3     231   -326    120    400    418 144.6  16.8  34146  289.34 0854.40
2009/04/23 15:51:50.4     345   -285    -24    448    449 129.6  -3.2  34150  289.39 0854.40
2009/04/23 15:51:50.5     128   -290    128    318    342 156.2  23.1  34148  289.38 0854.40
2009/04/23 15:51:50.6     137   -247    243    283    373 151.0  45.1  34136  289.16 0854.40
2009/04/23 15:51:50.7     209   -142     78    253    265 124.2  17.3  34146  289.34 0854.40
2009/04/23 15:51:50.8      81    -37    141     90    167 114.4  64.7  34160  289.57 0854.40
2009/04/23 15:51:50.9      58      1     18     59     62  88.3  17.3  34158  289.53 0854.40
2009/04/23 15:51:51.0     180     56     -7    189    190  72.7  -2.2  34160  289.57 0854.40
2009/04/23 15:51:51.1      94     44    -32    104    108  64.8 -22.8  34156  289.50 0854.40
2009/04/23 15:51:51.2      99     92    -37    136    142  46.9 -15.5  34158  289.53 0854.39
2009/04/23 15:51:51.3     119     70     -9    139    140  59.4  -3.7  34154  289.48 0854.39
2009/04/23 15:51:51.4      73     76      5    106    107  44.1   2.8  34156  289.50 0854.39
2009/04/23 15:51:51.5      84     53    -30    100    105  57.6 -16.6  34156  289.50 0854.39
2009/04/23 15:51:51.6      61     55    -24     83     87  48.2 -16.6  34156  289.52 0854.39
2009/04/23 15:51:51.7     -35     84     -4     92     93 337.3  -2.6  34160  289.57 0854.39
2009/04/23 15:51:51.8     -66     61    -24     90     94 312.7 -15.4  34164  289.63 0854.39
2009/04/23 15:51:51.9     -67     40   -112     79    137 300.7 -65.5  34168  289.72 0854.39
2009/04/23 15:51:52.0    -133     27    -67    136    151 281.5 -31.7  34164  289.63 0854.39
2009/04/23 15:51:52.1    -207     87    -81    225    239 292.8 -25.1  34158  289.54 0854.39
2009/04/23 15:51:52.2    -146     55    -41    157    163 290.6 -14.7  34162  289.60 0854.39
2009/04/23 15:51:52.3    -113    166     18    202    203 325.7   5.2  34172  289.79 0854.39
2009/04/23 15:51:52.4    -117    119     70    167    181 315.5  23.8  34162  289.60 0854.39
2009/04/23 15:51:52.5    -101    129      8    164    165 321.9   2.9  34156  289.52 0854.39
2009/04/23 15:51:52.6    -119    -19    -81    121    145 260.8 -41.4  34160  289.57 0854.39
2009/04/23 15:51:52.7    -104      8    -66    105    124 274.4 -39.9  34160  289.58 0854.39
2009/04/23 15:51:52.8    -133     48    -12    142    143 290.0  -5.2  34158  289.53 0854.39
2009/04/23 15:51:52.9    -154     46    -33    161    165 286.6 -11.6  34164  289.63 0854.39
2009/04/23 15:51:53.0    -121     40     72    128    146 288.6  31.4  34172  289.79 0854.39
2009/04/23 15:51:53.1    -114   -141     70    182    195 219.0  21.7  34158  289.55 0854.39
2009/04/23 15:51:53.2     -65   -127     20    143    145 207.1   8.0  34154  289.46 0854.39
2009/04/23 15:51:53.3      11   -119    100    120    156 174.7  44.3  34156  289.52 0854.39
2009/04/23 15:51:53.4       7   -143     93    144    171 176.9  35.7  34150  289.41 0854.39
2009/04/23 15:51:53.5     -44   -130     89    138    164 198.7  35.7  34154  289.46 0854.39
2009/04/23 15:51:53.6     -66   -164     55    178    187 202.1  17.3  34148  289.36 0854.39
2009/04/23 15:51:53.7     -91   -125     11    155    156 216.1   4.2  34152  289.43 0854.39
2009/04/23 15:51:53.8    -100   -210     24    233    235 205.5   6.1  34168  289.70 0854.39
2009/04/23 15:51:53.9     -81   -134     28    157    160 211.2  10.3  34172  289.77 0854.39
2009/04/23 15:51:54.0     -87   -155     -8    179    180 209.4  -2.8  34174  289.82 0854.39
2009/04/23 15:51:54.1     -95    -92    -35    133    138 226.0 -15.0  34176  289.85 0854.39
2009/04/23 15:51:54.2      -8   -112    -15    113    115 184.5  -7.7  34158  289.55 0854.39
2009/04/23 15:51:54.3     -94    -83    -11    126    127 228.7  -5.2  34188  290.04 0854.39
2009/04/23 15:51:54.4    -118    -75    -62    140    153 237.6 -29.6  34170  289.75 0854.39
2009/04/23 15:51:54.5     -40   -166   -133    171    216 193.6 -46.4  34150  289.41 0854.39
2009/04/23 15:51:54.6      75   -225   -146    238    279 161.5 -38.8  34152  289.42 0854.39
2009/04/23 15:51:54.7     219   -211    -33    305    307 134.0  -6.2  34150  289.39 0854.39
2009/04/23 15:51:54.8     174   -217    -24    279    281 141.3  -5.1  34156  289.51 0854.39
2009/04/23 15:51:54.9     -88   -169    -88    191    210 207.6 -31.0  34158  289.53 0854.39
2009/04/23 15:51:55.0    -223    -82    -30    238    240 249.6  -7.3  34160  289.56 0854.39
2009/04/23 15:51:55.1    -226   -231     15    324    325 224.3   2.8  34158  289.54 0854.39
2009/04/23 15:51:55.2    -213   -383    -29    439    440 209.1  -3.9  34144  289.29 0854.40
2009/04/23 15:51:55.3    -326   -363    -26    489    490 221.9  -3.1  34142  289.28 0854.40
2009/04/23 15:51:55.4    -277   -331   -112    432    447 219.9 -14.6  34146  289.33 0854.40
2009/04/23 15:51:55.5    -151   -403    -29    431    432 200.6  -3.9  34148  289.36 0854.40
2009/04/23 15:51:55.6    -223   -415     -5    472    473 208.3  -0.7  34142  289.25 0854.40
2009/04/23 15:51:55.7    -216   -338    -97    402    414 212.6 -13.6  34134  289.14 0854.40
2009/04/23 15:51:55.8    -156   -389    -30    420    422 201.8  -4.1  34140  289.24 0854.40
2009/04/23 15:51:55.9    -155   -449   -104    476    488 199.1 -12.4  34142  289.25 0854.40
2009/04/23 15:51:56.0    -224   -453   -106    506    518 206.3 -11.9  34140  289.23 0854.40
2009/04/23 15:51:56.1    -171   -462     24    493    494 200.4   2.8  34142  289.25 0854.40
2009/04/23 15:51:56.2    -243   -510   -133    566    582 205.5 -13.3  34142  289.25 0854.40
2009/04/23 15:51:56.3    -189   -383   -125    428    445 206.3 -21.2  34126  289.00 0854.40
2009/04/23 15:51:56.4    -154   -364   -141    396    421 202.9 -19.6  34144  289.31 0854.40
2009/04/23 15:51:56.5    -155   -447   -160    474    501 199.2 -18.7  34150  289.40 0854.40
2009/04/23 15:51:56.6    -181   -413    -32    452    454 203.7  -4.1  34144  289.29 0854.40
2009/04/23 15:51:56.7    -130   -384     57    406    411 198.7   8.0  34146  289.34 0854.40
2009/04/23 15:51:56.8    -353   -258    -63    438    443 233.9  -8.2  34150  289.41 0854.40
2009/04/23 15:51:56.9    -309   -192   -161    364    398 238.1 -29.7  34142  289.25 0854.40
2009/04/23 15:51:57.0    -299   -188   -184    354    398 237.8 -34.0  34144  289.30 0854.40
2009/04/23 15:51:57.1    -281   -138   -169    314    356 243.8 -35.1  34144  289.30 0854.40
2009/04/23 15:51:57.2    -320   -291   -159    433    461 227.7 -25.4  34148  289.38 0854.39
2009/04/23 15:51:57.3    -232   -285   -140    368    393 219.1 -26.4  34140  289.23 0854.39
2009/04/23 15:51:57.4    -120   -164   -206    204    289 216.1 -54.5  34138  289.20 0854.39
2009/04/23 15:51:57.5    -272   -155   -175    314    359 240.2 -36.0  34140  289.23 0854.39
2009/04/23 15:51:57.6    -148   -284   -217    321    387 207.6 -41.8  34142  289.26 0854.39
2009/04/23 15:51:57.7     -98   -291   -235    308    387 198.7 -45.7  34152  289.43 0854.39
2009/04/23 15:51:57.8    -115   -301   -155    323    358 200.9 -31.8  34152  289.45 0854.39
2009/04/23 15:51:57.9    -116   -475   -173    490    519 193.8 -24.6  34140  289.22 0854.39
2009/04/23 15:51:58.0     -67   -393   -220    399    455 189.7 -35.7  34146  289.34 0854.39
2009/04/23 15:51:58.1     -30   -395   -163    397    429 184.5 -28.0  34140  289.22 0854.39
2009/04/23 15:51:58.2     -24   -382   -115    383    399 183.7 -21.7  34144  289.30 0854.39
2009/04/23 15:51:58.3     -80   -344    -87    354    365 193.1 -13.9  34146  289.35 0854.39
2009/04/23 15:51:58.4     -68   -206    -70    217    229 198.3 -17.9  34150  289.41 0854.39
2009/04/23 15:51:58.5     -82   -105    -27    134    137 217.8 -11.5  34140  289.23 0854.39
2009/04/23 15:51:58.6    -131   -219    -68    256    265 211.0 -15.0  34144  289.31 0854.39
2009/04/23 15:51:58.7     -27   -346   -107    348    365 184.5 -17.2  34128  289.03 0854.39
2009/04/23 15:51:58.8      26   -293    -26    295    297 174.9  -5.2  34128  289.03 0854.39
2009/04/23 15:51:58.9       4   -387   -126    388    409 179.3 -18.1  34128  289.04 0854.39
2009/04/23 15:51:59.0      85   -420   -141    429    452 168.6 -18.3  34132  289.11 0854.39
2009/04/23 15:51:59.1    -178   -279   -239    332    409 212.5 -43.6  34164  289.65 0854.39
2009/04/23 15:51:59.2     -23   -219   -125    221    253 186.2 -36.5  34144  289.29 0854.39
2009/04/23 15:51:59.3      80   -268   -152    280    318 163.3 -35.2  34144  289.31 0854.39
2009/04/23 15:51:59.4      30   -272   -149    274    311 173.7 -35.7  34152  289.44 0854.39
2009/04/23 15:51:59.5      75   -219   -144    232    273 161.1 -39.2  34142  289.25 0854.39
2009/04/23 15:51:59.6      86   -148   -139    172    221 149.9 -47.9  34140  289.23 0854.39
2009/04/23 15:51:59.7      60   -109    -85    125    151 151.1 -42.0  34134  289.14 0854.39
2009/04/23 15:51:59.8     -16   -166    -58    167    176 185.6 -23.8  34160  289.57 0854.39
2009/04/23 15:51:59.9     -50   -212    -98    218    239 193.3 -30.3  34160  289.56 0854.39
2009/04/23 15:52:00.0     -98   -249   -108    268    288 201.6 -27.4  34174  289.81 0854.39
2009/04/23 15:52:00.1    -124   -224    -37    257    260 209.0  -8.2  34164  289.64 0854.39
2009/04/23 15:52:00.2     -94   -184    -57    207    215 207.2 -15.4  34160  289.58 0854.39
2009/04/23 15:52:00.3     -37   -156    -30    161    164 193.4 -10.9  34162  289.62 0854.39
2009/04/23 15:52:00.4     -10   -139     -5    140    141 184.4  -2.2  34162  289.60 0854.39
2009/04/23 15:52:00.5     -36   -121     11    127    128 196.9   5.0  34162  289.60 0854.39
2009/04/23 15:52:00.6     -31    -93     20     99    102 198.5  11.6  34160  289.58 0854.39
2009/04/23 15:52:00.7       9    -92      0     93     94 174.2  -0.3  34164  289.65 0854.39
2009/04/23 15:52:00.8       6    -80     12     81     83 175.5   9.0  34166  289.69 0854.39
2009/04/23 15:52:00.9       6    -77     42     78     88 175.5  30.8  34168  289.70 0854.39
2009/04/23 15:52:01.0      -2    -85     62     86    106 181.4  39.5  34164  289.65 0854.39
2009/04/23 15:52:01.1      15   -109     71    111    131 172.0  35.6  34164  289.65 0854.39
2009/04/23 15:52:01.2      12   -126     17    127    129 174.2   8.0  34162  289.62 0854.38
2009/04/23 15:52:01.3      18   -128    -26    130    133 172.0 -11.3  34166  289.67 0854.38
2009/04/23 15:52:01.4      -9   -114    -45    115    123 184.9 -26.9  34162  289.62 0854.38
2009/04/23 15:52:01.5      18    -76    -19     79     82 166.6 -13.9  34162  289.60 0854.38
2009/04/23 15:52:01.6      41    -73    -10     84     85 150.6  -7.2  34162  289.60 0854.38
2009/04/23 15:52:01.7      49    -60     -3     78     79 140.4  -2.2  34162  289.60 0854.38
2009/04/23 15:52:01.8     132    -27      5    135    136 101.9   2.3  34162  289.60 0854.38
2009/04/23 15:52:01.9     185    -58     76    194    208 107.5  22.5  34160  289.57 0854.38
2009/04/23 15:52:02.0     176    -55    116    185    218 107.3  35.5  34162  289.62 0854.38
2009/04/23 15:52:02.1     157    -80    153    177    233 117.1  45.4  34166  289.67 0854.38
2009/04/23 15:52:02.2     142    -67    144    158    213 115.4  47.5  34168  289.70 0854.38
2009/04/23 15:52:02.3     180   -114    138    214    254 122.4  35.7  34170  289.73 0854.38
2009/04/23 15:52:02.4      84   -249    116    263    287 161.3  25.2  34164  289.64 0854.38
2009/04/23 15:52:02.5      78   -232    104    245    266 161.3  24.3  34162  289.59 0854.38
2009/04/23 15:52:02.6     101   -205     97    229    248 153.7  24.2  34162  289.59 0854.38
2009/04/23 15:52:02.7     125   -180     89    220    237 145.3  23.1  34156  289.50 0854.38
2009/04/23 15:52:02.8     172   -170    118    242    269 134.7  27.8  34162  289.59 0854.38
2009/04/23 15:52:02.9     122   -191    107    227    250 147.4  27.1  34160  289.56 0854.38
2009/04/23 15:52:03.0     126   -206    113    242    267 148.4  27.1  34162  289.61 0854.38
2009/04/23 15:52:03.1     218   -274    -31    351    353 141.5  -5.1  34162  289.60 0854.38
2009/04/23 15:52:03.2     103   -360     -7    375    376 164.0  -1.2  34152  289.45 0854.39
2009/04/23 15:52:03.3      14   -308     -6    309    310 177.4  -1.3  34156  289.49 0854.39
2009/04/23 15:52:03.4      19   -349     -7    350    351 176.8  -1.3  34158  289.55 0854.39
2009/04/23 15:52:03.5       0   -285    -31    286    288 180.0  -6.2  34160  289.58 0854.39
2009/04/23 15:52:03.6      56   -269    -29    275    277 168.2  -6.2  34164  289.63 0854.39
2009/04/23 15:52:03.7     102   -335     -7    351    352 163.0  -1.2  34158  289.54 0854.39
2009/04/23 15:52:03.8      11   -259     16    260    261 177.5   3.6  34164  289.64 0854.39
2009/04/23 15:52:03.9      13   -207    -41    208    213 176.2 -11.3  34164  289.63 0854.39
2009/04/23 15:52:04.0     -19   -186    -12    188    189 186.0  -3.9  34172  289.77 0854.39
2009/04/23 15:52:04.1     -60   -165    -13    176    177 200.0  -4.4  34182  289.96 0854.39
2009/04/23 15:52:04.3     -88   -144    -19    169    171 211.4  -6.7  34182  289.96 0854.39
2009/04/23 15:52:04.4    -134    -97     12    166    167 234.1   4.4  34176  289.84 0854.39
2009/04/23 15:52:04.5    -146    -93     85    174    193 237.6  27.8  34178  289.87 0854.39
2009/04/23 15:52:04.5    -150    -91     53    176    184 238.7  16.8  34178  289.89 0854.39
2009/04/23 15:52:04.7    -133   -125     90    183    203 226.9  28.2  34178  289.89 0854.39
2009/04/23 15:52:04.7     -92    -88    125    128    178 226.0  49.4  34184  289.99 0854.39
2009/04/23 15:52:04.9     -70    -33    128     78    149 244.8  65.1  34196  290.19 0854.39
2009/04/23 15:52:05.0     -36    -34    104     50    115 226.9  72.8  34204  290.33 0854.39
2009/04/23 15:52:05.1    -135    -41     91    142    168 253.1  35.6  34194  290.16 0854.39
2009/04/23 15:52:05.2    -165      0     80    166    184 269.9  27.4  34190  290.08 0854.39
2009/04/23 15:52:05.3    -223     26     44    225    230 276.8  11.1  34216  290.52 0854.40
2009/04/23 15:52:05.4    -279     51     13    284    285 280.4   2.8  34220  290.59 0854.40
2009/04/23 15:52:05.5    -224    -41     22    228    230 259.4   5.7  34208  290.38 0854.40
2009/04/23 15:52:05.6    -202      9    -26    203    205 272.8  -7.3  34224  290.67 0854.40
2009/04/23 15:52:05.7    -142      4    -42    143    149 271.7 -21.2  34224  290.65 0854.40
2009/04/23 15:52:05.8     -83    -62     38    104    110 233.1  21.0  34208  290.40 0854.40
2009/04/23 15:52:05.9     -66    -80     65    104    122 219.7  35.0  34190  290.08 0854.40
2009/04/23 15:52:06.0     -63    -59     46     87     98 226.9  29.8  34188  290.06 0854.40
2009/04/23 15:52:06.1     -55    -55     40     79     88 225.0  28.2  34190  290.09 0854.40
2009/04/23 15:52:06.2     -55   -106     62    120    135 207.6  29.3  34186  290.01 0854.40
2009/04/23 15:52:06.3     -60   -140    139    153    206 203.2  47.1  34188  290.06 0854.40
2009/04/23 15:52:06.4     -82    -37    124     91    153 245.6  60.5  34198  290.21 0854.40
2009/04/23 15:52:06.5     -25    -32     80     41     89 217.8  71.4  34190  290.08 0854.40
2009/04/23 15:52:06.6     -54    -46    125     71    143 229.6  67.7  34196  290.18 0854.40
2009/04/23 15:52:06.7    -117      6     64    118    134 273.0  31.3  34190  290.09 0854.40
2009/04/23 15:52:06.8     -81     81     18    115    117 315.0   9.0  34194  290.14 0854.40
2009/04/23 15:52:06.9     -41     85    -24     95     99 334.1 -14.5  34178  289.87 0854.40
2009/04/23 15:52:07.0      54     65    -10     85     86  40.1  -7.3  34172  289.79 0854.40
2009/04/23 15:52:07.1     -79     67     82    104    132 310.4  42.7  34184  289.99 0854.40
2009/04/23 15:52:07.2    -231    108    131    256    287 295.1  29.2  34170  289.73 0854.40
2009/04/23 15:52:07.3    -192    143    192    240    307 306.6  42.8  34150  289.39 0854.38
2009/04/23 15:52:07.4    -157    159    183    224    289 315.5  43.7  34160  289.56 0854.38
2009/04/23 15:52:07.5     -25     92    183     96    206 344.9  70.6  34192  290.11 0854.38
2009/04/23 15:52:07.6      15    -34    140     38    145 156.4  84.8  34220  290.58 0854.38
2009/04/23 15:52:07.7      40   -181    185    186    262 167.5  50.0  34178  289.88 0854.38
2009/04/23 15:52:07.8      17   -234    182    235    297 175.6  41.7  34172  289.76 0854.38
2009/04/23 15:52:07.9     -16   -214    165    215    271 184.4  41.4  34166  289.68 0854.38
2009/04/23 15:52:08.0     -58   -234    134    242    276 194.0  31.4  34166  289.68 0854.38
2009/04/23 15:52:08.1     -78   -256    146    268    305 196.9  31.3  34176  289.83 0854.38
2009/04/23 15:52:08.2     -76   -258    137    270    302 196.5  29.1  34182  289.93 0854.38
2009/04/23 15:52:08.3    -113   -246    116    271    294 204.7  24.6  34184  289.97 0854.38
2009/04/23 15:52:08.4    -183   -237     62    300    307 217.6  11.8  34174  289.81 0854.38
2009/04/23 15:52:08.5    -119   -312     31    335    337 201.0   5.4  34226  290.69 0854.38
2009/04/23 15:52:08.6     -63   -275     26    283    285 192.9   5.4  34224  290.66 0854.38
2009/04/23 15:52:08.7     -87   -263     89    277    292 198.3  17.9  34226  290.68 0854.38
2009/04/23 15:52:08.8     -56   -243     85    250    265 193.1  18.9  34212  290.44 0854.38
2009/04/23 15:52:08.9     -16   -294     98    295    312 183.1  18.5  34182  289.95 0854.38
2009/04/23 15:52:09.0     -16   -317     72    318    327 182.9  12.9  34188  290.05 0854.38
2009/04/23 15:52:09.1      18   -314     62    315    322 176.6  11.1  34184  289.97 0854.38
2009/04/23 15:52:09.2       6   -361     55    362    367 179.0   8.7  34176  289.84 0854.38
2009/04/23 15:52:09.3     -63   -409    -15    414    415 188.8  -2.1  34172  289.77 0854.39
2009/04/23 15:52:09.4      11   -349      2    350    351 178.1   0.4  34170  289.74 0854.39
2009/04/23 15:52:09.5      90   -365    -89    376    387 166.1 -13.4  34180  289.91 0854.39
2009/04/23 15:52:09.6     130   -294    -58    322    328 156.1 -10.3  34196  290.17 0854.39
2009/04/23 15:52:09.7     195   -235     53    306    311 140.3   9.9  34196  290.19 0854.39
2009/04/23 15:52:09.8     166   -227    104    282    300 143.9  21.0  34188  290.05 0854.39
2009/04/23 15:52:09.9     131   -266    102    297    315 153.7  18.9  34190  290.07 0854.39
2009/04/23 15:52:10.0      79   -355    111    364    381 167.3  17.0  34194  290.16 0854.39
2009/04/23 15:52:10.1      95   -340     92    354    366 164.3  14.7  34210  290.43 0854.39
2009/04/23 15:52:10.2      88   -331    119    343    364 165.0  19.2  34210  290.43 0854.39
2009/04/23 15:52:10.3       8   -287    116    288    310 178.2  23.1  34158  289.53 0854.39
2009/04/23 15:52:10.4      16   -363    -12    364    365 177.4  -1.9  34152  289.43 0854.39
2009/04/23 15:52:10.5      94   -282    -14    298    299 161.5  -2.8  34152  289.44 0854.39
2009/04/23 15:52:10.6     109   -169    -11    202    203 147.0  -3.1  34152  289.45 0854.39
2009/04/23 15:52:10.7      98   -191     39    215    219 152.8  10.3  34166  289.67 0854.39
2009/04/23 15:52:10.8      23   -216     47    218    224 173.7  12.2  34164  289.63 0854.39
2009/04/23 15:52:10.9     -51   -139     99    149    178 200.1  36.7  34168  289.70 0854.39
2009/04/23 15:52:11.0     -67   -146    126    161    204 204.9  41.7  34174  289.82 0854.39
2009/04/23 15:52:11.1       3   -120    107    121    161 178.2  46.4  34174  289.82 0854.39
2009/04/23 15:52:11.2      10    -72     88     73    114 172.0  56.4  34180  289.91 0854.39
2009/04/23 15:52:11.3      17    -39     58     43     72 156.4  60.5  34190  290.09 0854.39
2009/04/23 15:52:11.4      82     12     94     83    125  81.6  54.2  34208  290.38 0854.39
2009/04/23 15:52:11.5      74    -34     93     82    123 115.2  54.2  34206  290.36 0854.39
2009/04/23 15:52:11.6      38    -79     92     88    127 154.1  51.2  34178  289.87 0854.39
2009/04/23 15:52:11.7      64   -139    132    154    202 155.1  45.4  34172  289.79 0854.39
2009/04/23 15:52:11.8      41   -143     99    149    178 164.0  36.7  34176  289.85 0854.39
2009/04/23 15:52:11.9     -15    -63     74     65     98 193.4  53.7  34184  289.97 0854.39
2009/04/23 15:52:12.0     -15   -106    105    108    150 188.5  49.9  34180  289.92 0854.39
2009/04/23 15:52:12.1     -66    -96     92    117    148 214.7  42.2  34170  289.75 0854.39
2009/04/23 15:52:12.2     -84   -112     31    141    145 217.0  12.6  34168  289.70 0854.39
2009/04/23 15:52:12.3     -12   -102     36    103    110 187.1  19.4  34166  289.67 0854.39
2009/04/23 15:52:12.4       5   -123     16    124    126 177.4   7.5  34164  289.63 0854.39
2009/04/23 15:52:12.5      11   -107     57    108    122 173.8  29.8  34162  289.62 0854.39
2009/04/23 15:52:12.6      21   -208     68    210    221 174.0  18.1  34158  289.53 0854.39
2009/04/23 15:52:12.7      44   -179     60    185    195 166.0  18.1  34156  289.52 0854.39
2009/04/23 15:52:12.8      23   -156     92    158    182 171.5  33.1  34158  289.53 0854.39
2009/04/23 15:52:12.9      12   -118     81    119    143 174.2  37.6  34158  289.55 0854.39
2009/04/23 15:52:13.0      -4   -178     73    179    193 181.4  23.1  34162  289.60 0854.39
2009/04/23 15:52:13.1      47   -182     45    189    195 165.5  13.5  34160  289.57 0854.39
2009/04/23 15:52:13.2      -7   -168     54    169    178 182.5  17.9  34162  289.62 0854.39
2009/04/23 15:52:13.3     -59   -192     88    202    220 197.2  25.1  34156  289.52 0854.39
2009/04/23 15:52:13.4     -89   -198     77    218    232 204.3  19.4  34170  289.74 0854.39
2009/04/23 15:52:13.5     -52   -124    144    135    197 202.7  52.1  34162  289.60 0854.39
2009/04/23 15:52:13.6       0   -111    141    112    180 180.4  57.5  34162  289.62 0854.39
2009/04/23 15:52:13.7      31   -154    148    158    216 168.5  48.0  34166  289.67 0854.39
2009/04/23 15:52:13.8     -25   -154    145    157    213 189.3  47.9  34156  289.50 0854.39
2009/04/23 15:52:13.9      14   -191    173    192    258 175.5  46.9  34166  289.66 0854.39
2009/04/23 15:52:14.0      -3   -205    183    206    275 180.9  45.9  34176  289.85 0854.39
2009/04/23 15:52:14.1       2   -190    173    191    257 179.3  47.0  34174  289.80 0854.39
2009/04/23 15:52:14.2      12   -107    156    108    189 173.3  62.1  34174  289.80 0854.39
2009/04/23 15:52:14.3      38   -189    139    193    237 168.5  39.5  34162  289.62 0854.43
2009/04/23 15:52:14.4     -17   -218    130    219    254 184.7  33.5  34160  289.58 0854.43
2009/04/23 15:52:14.5     -28   -249     86    251    266 186.5  18.9  34162  289.59 0854.43
2009/04/23 15:52:14.6     -78   -235      7    248    249 198.5   1.8  34158  289.54 0854.43
2009/04/23 15:52:14.7     -67   -233    -27    243    245 196.0  -6.5  34160  289.56 0854.43
2009/04/23 15:52:14.8      -4   -205     15    206    207 181.4   4.2  34160  289.57 0854.43
2009/04/23 15:52:14.9       5   -206     25    207    209 178.6   7.1  34164  289.63 0854.43
2009/04/23 15:52:15.0      25   -222     44    224    229 173.5  11.1  34162  289.60 0854.43
2009/04/23 15:52:15.1       0   -256    -33    257    260 180.0  -7.3  34162  289.59 0854.43
2009/04/23 15:52:15.2      53   -262    -60    268    275 168.4 -12.6  34164  289.64 0854.43
2009/04/23 15:52:15.3     -38   -245    -23    249    251 188.9  -5.4  34170  289.75 0854.43
2009/04/23 15:52:15.4     -94   -213     14    233    234 203.8   3.6  34166  289.68 0854.43
2009/04/23 15:52:15.5     -70   -270     43    280    284 194.7   8.8  34174  289.80 0854.43
2009/04/23 15:52:15.6     -20   -257     22    258    260 184.5   5.0  34178  289.86 0854.43
2009/04/23 15:52:15.7     -18   -247      7    248    249 184.4   1.8  34174  289.81 0854.43
2009/04/23 15:52:15.8      -1   -209      0    210    211 180.5   0.0  34174  289.82 0854.43
2009/04/23 15:52:15.9      43   -211     -6    216    217 168.4  -1.6  34174  289.82 0854.43
2009/04/23 15:52:16.0     -16   -165     94    166    190 185.6  31.9  34174  289.82 0854.43
2009/04/23 15:52:16.1      91   -221     42    240    244 157.5  10.1  34166  289.68 0854.43
2009/04/23 15:52:16.2     190   -301     46    357    360 147.7   7.4  34152  289.45 0854.43
2009/04/23 15:52:16.3     158   -323    155    360    391 153.8  24.8  34166  289.67 0854.45
2009/04/23 15:52:16.4     131   -227    220    263    342 150.1  44.0  34178  289.88 0854.45
2009/04/23 15:52:16.5     165   -242    112    294    314 145.7  21.8  34162  289.59 0854.45
2009/04/23 15:52:16.6     155   -182     33    240    243 139.5   8.0  34166  289.68 0854.45
2009/04/23 15:52:16.7     131   -237    -25    272    274 151.0  -5.4  34166  289.68 0854.45
2009/04/23 15:52:16.8     146   -280    -14    316    317 152.4  -2.6  34174  289.81 0854.45
2009/04/23 15:52:16.9      99   -271      4    289    290 159.9   0.8  34174  289.80 0854.45
2009/04/23 15:52:17.0      50   -268    -64    273    281 169.4 -13.3  34174  289.81 0854.45
2009/04/23 15:52:17.1      83   -340    -48    351    355 166.2  -7.9  34176  289.84 0854.45
2009/04/23 15:52:17.2      61   -301    -37    308    311 168.5  -6.9  34170  289.75 0854.45
2009/04/23 15:52:17.3      46   -271    -55    275    281 170.3 -11.3  34170  289.73 0854.45
2009/04/23 15:52:17.4     -55   -352     43    357    360 189.0   6.9  34166  289.67 0854.45
2009/04/23 15:52:17.5     -49   -257    -93    262    279 190.9 -19.7  34166  289.66 0854.45
2009/04/23 15:52:17.6     -50   -148    -67    157    170 198.7 -29.0  34164  289.65 0854.45
2009/04/23 15:52:17.7       1   -126   -108    127    166 179.5 -48.9  34172  289.79 0854.45
2009/04/23 15:52:17.8     -38   -141     -8    147    148 195.2  -3.1  34168  289.72 0854.45
2009/04/23 15:52:17.9      -8   -269    -97    270    286 181.8 -24.8  34168  289.70 0854.45
2009/04/23 15:52:18.0     -12   -273    -60    274    281 182.6 -12.4  34172  289.78 0854.45
2009/04/23 15:52:18.1      84   -238    -74    253    263 160.4 -21.2  34170  289.75 0854.45
2009/04/23 15:52:18.2      90   -207   -141    226    266 156.4 -39.6  34182  289.93 0854.45
2009/04/23 15:52:18.3       4   -297    -76    298    308 179.1 -14.4  34174  289.80 0854.46
2009/04/23 15:52:18.4      29   -267   -161    269    313 173.7 -38.1  34176  289.83 0854.46
2009/04/23 15:52:18.5      69   -356    -69    363    370 169.0 -10.8  34160  289.57 0854.46
2009/04/23 15:52:18.6      51   -254    -14    260    261 168.5  -3.2  34160  289.56 0854.46
2009/04/23 15:52:18.7     -38   -252    -21    255    256 188.7  -4.9  34168  289.70 0854.46
2009/04/23 15:52:18.8      21   -224    -23    226    228 174.4  -6.0  34166  289.69 0854.46
2009/04/23 15:52:18.9      14   -192     23    193    195 175.6   6.9  34168  289.72 0854.46
2009/04/23 15:52:19.0      23   -185      1    187    188 172.9   0.5  34172  289.77 0854.46
2009/04/23 15:52:19.1      33   -178     -5    182    183 169.5  -1.8  34174  289.82 0854.46
2009/04/23 15:52:19.2      28   -170     38    173    178 170.4  12.4  34182  289.94 0854.46
2009/04/23 15:52:19.3      52   -142      7    152    153 159.9   2.8  34182  289.94 0854.46
2009/04/23 15:52:19.4      23   -121    -20    124    126 169.3  -9.4  34184  289.99 0854.46
2009/04/23 15:52:19.5      97    -97     -2    138    139 135.1  -1.2  34184  289.97 0854.46
2009/04/23 15:52:19.6      68   -102     -4    123    124 146.2  -2.2  34184  289.99 0854.46
2009/04/23 15:52:19.7      96    -61    -32    115    120 122.5 -15.5  34192  290.11 0854.46
2009/04/23 15:52:19.8      87    -26    -57     91    107 106.8 -39.9  34184  289.99 0854.46
2009/04/23 15:52:19.9      98    -23    -34    101    106 103.7 -23.6  34184  289.97 0854.46
2009/04/23 15:52:20.0      89     -2    -36     90     96  91.7 -26.9  34186  290.02 0854.46
2009/04/23 15:52:20.1      73     53    -58     91    107  54.0 -39.9  34186  290.02 0854.46
2009/04/23 15:52:20.2      61     73    -64     96    115  39.6 -40.4  34194  290.14 0854.45
2009/04/23 15:52:20.3      55     78    -90     96    131  35.6 -52.4  34194  290.16 0854.45
2009/04/23 15:52:20.4      66     89    -86    111    140  36.5 -46.1  34194  290.16 0854.45
2009/04/23 15:52:20.5      42     66    -52     79     94  32.6 -40.0  34190  290.09 0854.45
2009/04/23 15:52:20.6      41     23    -53     48     71  60.2 -56.6  34190  290.09 0854.45
2009/04/23 15:52:20.7      49    -15    -78     52     93 107.7 -68.0  34198  290.23 0854.45
2009/04/23 15:52:20.8      57     -7    -52     58     77  97.9 -52.3  34200  290.25 0854.45
2009/04/23 15:52:20.9      36    -74    -46     83     94 153.7 -36.3  34182  289.96 0854.45
2009/04/23 15:52:21.0      71   -111    -43    132    138 147.4 -23.3  34174  289.82 0854.45
2009/04/23 15:52:21.1      63    -97    -64    116    132 147.0 -35.8  34170  289.74 0854.45
2009/04/23 15:52:21.2      81     -4     -1     82     83  93.0  -1.3  34168  289.70 0854.45
2009/04/23 15:52:21.3     116      0     -2    117    118  90.0  -1.3  34172  289.77 0854.45
2009/04/23 15:52:21.4     102      3     18    103    105  88.3  10.1  34170  289.75 0854.45
2009/04/23 15:52:21.5      90      4      3     91     92  87.4   2.3  34158  289.53 0854.45
2009/04/23 15:52:21.6      93      4    -26     94     98  87.0 -15.4  34162  289.60 0854.45
2009/04/23 15:52:21.7      21      0    -57     22     61  90.0 -82.6  34174  289.82 0854.45
2009/04/23 15:52:21.8      47     38    -63     61     87  50.5 -54.5  34172  289.77 0854.45
2009/04/23 15:52:21.9      76     47    -51     90    103  58.5 -35.8  34168  289.70 0854.45
2009/04/23 15:52:22.0     104     20    -41    106    113  79.0 -26.4  34166  289.67 0854.45
2009/04/23 15:52:22.1     128    -26    -39    131    136 101.5 -21.8  34170  289.74 0854.45
2009/04/23 15:52:22.2     116    -86     20    145    147 126.4   8.0  34166  289.69 0854.44
2009/04/23 15:52:22.3      97    -74     40    123    130 127.3  17.9  34164  289.65 0854.44
2009/04/23 15:52:22.4     123     -9     51    124    134  94.4  23.1  34168  289.70 0854.44
2009/04/23 15:52:22.5     124     44    -22    132    134  70.5  -9.8  34176  289.85 0854.44
2009/04/23 15:52:22.6     131     30    -22    135    137  76.8  -9.3  34176  289.85 0854.44
2009/04/23 15:52:22.7      76     40    -39     87     95  62.0 -30.6  34186  290.02 0854.44
2009/04/23 15:52:22.8      75     14    -21     77     79  79.4 -20.2  34188  290.04 0854.44
2009/04/23 15:52:22.9      34    -12    -35     37     50 110.0 -53.4  34186  290.02 0854.44
2009/04/23 15:52:23.0      25     -1    -29     26     38  94.4 -56.6  34192  290.13 0854.44
2009/04/23 15:52:23.1      38    -12    -23     41     47 108.4 -36.8  34190  290.09 0854.44
2009/04/23 15:52:23.2       9    -28    -37     30     47 161.7 -60.8  34190  290.09 0854.44
2009/04/23 15:52:23.3      67    -60    -26     91     95 131.8 -16.0  34178  289.87 0854.44
2009/04/23 15:52:23.4     121    -64     -7    138    139 118.0  -3.2  34178  289.87 0854.44
2009/04/23 15:52:23.5      97    -96      7    137    138 134.9   3.3  34174  289.82 0854.44
2009/04/23 15:52:23.6     103   -116     21    156    158 138.5   7.8  34180  289.91 0854.44
2009/04/23 15:52:23.7     126   -154     68    200    212 140.8  18.9  34168  289.70 0854.44
2009/04/23 15:52:23.8     123   -140     65    187    199 138.6  19.2  34172  289.79 0854.44
2009/04/23 15:52:23.9      89   -125     61    154    165 144.4  22.5  34168  289.72 0854.44
2009/04/23 15:52:24.0      57   -144     48    156    164 158.2  17.1  34166  289.67 0854.44
2009/04/23 15:52:24.1      32   -176    -50    179    185 169.5 -20.2  34176  289.84 0854.44
2009/04/23 15:52:24.2     -10   -182    -59    183    193 183.4 -17.9  34172  289.77 0854.43
2009/04/23 15:52:24.3     -53   -201    -63    209    219 194.9 -16.8  34166  289.69 0854.43
2009/04/23 15:52:24.4     -18   -272    -36    273    276 183.8  -7.7  34156  289.51 0854.43
2009/04/23 15:52:24.5      -3   -279    -25    280    282 180.7  -5.2  34160  289.58 0854.43
2009/04/23 15:52:24.6     -49   -231      2    237    238 192.0   0.7  34160  289.56 0854.43
2009/04/23 15:52:24.7     -74   -219     11    232    233 198.7   2.9  34162  289.62 0854.43
2009/04/23 15:52:24.8     -92   -228     29    247    249 202.1   6.9  34164  289.64 0854.43
2009/04/23 15:52:24.9     -49   -252     69    257    267 191.1  15.0  34162  289.61 0854.43
2009/04/23 15:52:25.0     -58   -284    101    291    309 191.6  19.2  34164  289.63 0854.43
2009/04/23 15:52:25.1      -2   -231     96    232    251 180.7  23.8  34164  289.63 0854.43
2009/04/23 15:52:25.2     -29   -207     40    210    214 188.0  11.0  34160  289.57 0854.43
2009/04/23 15:52:25.3     -12   -155     48    156    164 184.5  17.1  34162  289.60 0854.43
2009/04/23 15:52:25.4     -33   -142     19    146    148 193.4   7.5  34162  289.60 0854.43
2009/04/23 15:52:25.5      10   -170     65    171    182 176.4  21.7  34162  289.60 0854.43
2009/04/23 15:52:25.6     -30   -160     76    163    179 190.7  27.0  34162  289.60 0854.43
2009/04/23 15:52:25.7      -9   -149     65    150    163 183.6  24.6  34162  289.62 0854.43
2009/04/23 15:52:25.8      30   -153     79    156    174 168.9  28.7  34162  289.62 0854.43
2009/04/23 15:52:25.9      39   -190     69    195    206 168.4  20.4  34162  289.60 0854.43
2009/04/23 15:52:26.0      23   -197     42    199    204 173.3  12.2  34162  289.62 0854.43
2009/04/23 15:52:26.1      44   -215     40    220    224 168.4  10.3  34164  289.63 0854.43
2009/04/23 15:52:26.2      12   -135     34    136    141 174.7  14.3  34164  289.65 0854.42
2009/04/23 15:52:26.3      55   -133    107    145    180 157.3  40.1  34172  289.77 0854.42
2009/04/23 15:52:26.4      84   -185    128    204    240 155.5  35.5  34162  289.62 0854.42
2009/04/23 15:52:26.5     -15   -198    -34    199    202 184.5  -9.8  34160  289.58 0854.42
2009/04/23 15:52:26.6    -107   -235     31    259    261 204.5   6.9  34158  289.53 0854.42
2009/04/23 15:52:26.7     -55   -294     79    300    311 190.7  14.9  34156  289.51 0854.42
2009/04/23 15:52:26.8    -101   -352     86    367    378 196.0  13.3  34158  289.55 0854.42
2009/04/23 15:52:26.9    -157   -305     67    344    351 207.3  11.1  34162  289.59 0854.42
2009/04/23 15:52:27.0    -132   -330     69    356    363 201.8  11.0  34176  289.84 0854.42
2009/04/23 15:52:27.1    -175   -299    115    347    366 210.4  18.5  34168  289.71 0854.42
2009/04/23 15:52:27.2    -173   -245    109    301    320 215.2  20.7  34178  289.88 0854.42
2009/04/23 15:52:27.3    -152   -179     89    236    252 220.3  21.5  34166  289.66 0854.42
2009/04/23 15:52:27.4    -146   -183     16    235    236 218.5   3.9  34170  289.75 0854.42
2009/04/23 15:52:27.5     -66   -192    -48    204    210 198.9 -13.4  34174  289.82 0854.42
2009/04/23 15:52:27.6      45   -223     -4    228    229 168.4  -1.1  34172  289.77 0854.42
2009/04/23 15:52:27.7      60   -223    -26    232    234 164.9  -6.5  34176  289.85 0854.42
2009/04/23 15:52:27.8     128   -269      1    298    299 154.5   0.2  34176  289.85 0854.42
2009/04/23 15:52:27.9     156   -282      1    323    324 151.1   0.2  34176  289.85 0854.42
2009/04/23 15:52:28.0      40   -290    -16    293    294 172.0  -3.2  34186  290.02 0854.42
2009/04/23 15:52:28.1     109   -249     53    273    279 156.3  11.1  34182  289.95 0854.42
2009/04/23 15:52:28.2     -42   -268     88    272    286 188.9  17.9  34176  289.85 0854.42
2009/04/23 15:52:28.3     -60   -224    -24    232    234 195.1  -6.0  34168  289.70 0854.42
2009/04/23 15:52:28.4     -38   -159     44    164    170 193.4  15.0  34174  289.80 0854.42
2009/04/23 15:52:28.5      15   -112      0    114    115 172.0  -0.3  34170  289.75 0854.42
2009/04/23 15:52:28.6      90    -39      5     99    100 113.5   2.9  34176  289.85 0854.42
2009/04/23 15:52:28.7      85    -48     -1     98     99 119.8  -0.7  34178  289.87 0854.42
2009/04/23 15:52:28.8      86    -62     20    107    109 125.9  11.0  34168  289.72 0854.42
2009/04/23 15:52:28.9      84    -90     29    124    128 137.2  13.2  34170  289.75 0854.42
2009/04/23 15:52:29.0      55   -118     30    131    135 155.1  13.2  34178  289.89 0854.42
2009/04/23 15:52:29.1     117   -147     83    188    205 141.5  25.3  34160  289.58 0854.42
2009/04/23 15:52:29.2      80   -133    138    156    208 148.8  46.2  34160  289.58 0854.42
2009/04/23 15:52:29.3     125    -59    156    139    208 115.2  53.7  34174  289.80 0854.42
2009/04/23 15:52:29.4      91    -71    114    116    162 127.8  50.0  34158  289.53 0854.42
2009/04/23 15:52:29.5      47    -77    113     91    145 148.4  56.4  34172  289.77 0854.42
2009/04/23 15:52:29.6      46   -205    180    211    277 167.3  44.9  34164  289.64 0854.42
2009/04/23 15:52:29.7      36   -181    133    185    227 168.7  39.5  34164  289.65 0854.42
2009/04/23 15:52:29.8      25   -124     58    127    139 168.4  26.6  34160  289.57 0854.42
2009/04/23 15:52:29.9      66    -84     18    108    110 141.7   9.5  34160  289.58 0854.42
2009/04/23 15:52:30.0      80    -63     22    103    106 128.2  12.2  34160  289.58 0854.42
2009/04/23 15:52:30.1      70    -38     57     80     98 118.8  39.5  34164  289.65 0854.42
2009/04/23 15:52:30.2      71      4     -6     72     73  86.5  -5.2  34162  289.62 0854.40
2009/04/23 15:52:30.3      66     -5    -46     67     81  94.4 -42.4  34172  289.77 0854.40
2009/04/23 15:52:30.4      47     14    -55     50     74  73.2 -56.6  34174  289.82 0854.40
2009/04/23 15:52:30.5      72      4    -25     73     77  86.5 -23.3  34170  289.75 0854.40
2009/04/23 15:52:30.6      86      7     -7     87     88  84.8  -5.2  34174  289.82 0854.40
2009/04/23 15:52:30.7      82     12      2     83     84  81.2   1.8  34176  289.85 0854.40
2009/04/23 15:52:30.8      83     31     60     89    107  69.6  37.0  34176  289.85 0854.40
2009/04/23 15:52:30.9      81     37     80     90    120  65.6  46.4  34172  289.77 0854.40
2009/04/23 15:52:31.1      30    -23    114     38    120 127.8  81.0  34166  289.69 0854.40
2009/04/23 15:52:31.1     104    -17    115    106    156  99.7  52.2  34174  289.80 0854.40
2009/04/23 15:52:31.3     -89     24     53     93    107 285.1  32.4  34180  289.92 0854.41
2009/04/23 15:52:31.4     -26    -68    110     73    132 200.9  63.6  34178  289.89 0854.41
2009/04/23 15:52:31.5     -94    -84     72    127    145 228.2  31.9  34172  289.79 0854.41
2009/04/23 15:52:31.6    -200   -165    119    260    285 230.4  26.2  34176  289.85 0854.41
2009/04/23 15:52:31.7    -242   -150     55    285    291 238.2  11.0  34180  289.90 0854.41
2009/04/23 15:52:31.8    -239   -163     25    290    292 235.8   5.0  34182  289.95 0854.41
2009/04/23 15:52:31.9    -214    -42   -103    219    242 258.8 -31.4  34178  289.86 0854.41
2009/04/23 15:52:32.0    -173    -45   -104    179    207 255.2 -37.3  34180  289.91 0854.41
2009/04/23 15:52:32.1    -148      0     36    149    154 270.0  13.7  34182  289.94 0854.41
2009/04/23 15:52:32.2    -261     52     19    267    268 281.4   4.2  34182  289.93 0854.41
2009/04/23 15:52:32.3    -286     81    -11    298    299 285.9  -2.2  34186  290.02 0854.41
2009/04/23 15:52:32.4    -241     54    103    248    268 282.6  23.8  34184  289.97 0854.41
2009/04/23 15:52:32.5    -251    -26    154    253    296 264.1  34.2  34178  289.88 0854.41
2009/04/23 15:52:32.6    -131   -124    155    181    238 226.4  44.9  34184  289.99 0854.41
2009/04/23 15:52:32.7     -40   -180    150    185    238 192.5  43.0  34182  289.96 0854.41
2009/04/23 15:52:32.8     -64   -194    153    205    255 198.3  40.6  34182  289.93 0854.41
2009/04/23 15:52:32.9     -26   -134    145    137    199 191.1  51.6  34186  290.01 0854.41
2009/04/23 15:52:33.0     -66   -154     92    168    191 203.4  31.3  34178  289.89 0854.41
2009/04/23 15:52:33.1     -24   -119     91    122    152 191.6  40.1  34178  289.89 0854.41
2009/04/23 15:52:33.2     112    -33    109    117    159 106.4  47.9  34186  290.02 0854.41
2009/04/23 15:52:33.3      71    -73    124    103    161 135.9  56.1  34188  290.06 0854.42
2009/04/23 15:52:33.4     -16    -79     85     81    117 191.6  51.2  34200  290.25 0854.42
2009/04/23 15:52:33.5     -59    -87     74    106    129 214.3  38.0  34188  290.04 0854.42
2009/04/23 15:52:33.6     -84   -213     47    230    235 201.6  11.6  34184  289.97 0854.42
2009/04/23 15:52:33.7     -71   -220     17    232    233 198.0   4.2  34178  289.89 0854.42
2009/04/23 15:52:33.8    -161   -160    -77    228    240 225.1 -23.3  34160  289.56 0854.42
2009/04/23 15:52:33.9    -301   -301    -57    427    431 225.0  -7.7  34152  289.43 0854.42
2009/04/23 15:52:34.0     -24   -236     62    238    246 186.0  14.7  34188  290.05 0854.42
2009/04/23 15:52:34.1     -23   -202    116    204    234 186.5  32.1  34174  289.82 0854.42
2009/04/23 15:52:34.2    -125   -246    197    277    339 207.0  39.0  34196  290.19 0854.42
2009/04/23 15:52:34.3    -196   -265     95    330    344 216.5  16.0  34166  289.67 0854.42
2009/04/23 15:52:34.4    -141   -212    170    255    306 213.6  36.7  34198  290.22 0854.42
2009/04/23 15:52:34.5     -53   -304    154    309    345 190.0  28.2  34202  290.27 0854.42
2009/04/23 15:52:34.6     -29   -408    120    409    427 184.1  16.4  34214  290.50 0854.42
2009/04/23 15:52:34.7     -48   -409     42    412    415 186.8   5.9  34190  290.09 0854.42
2009/04/23 15:52:34.8      44   -525    155    528    551 175.1  16.4  34180  289.92 0854.42
2009/04/23 15:52:34.9      -8   -543    193    544    578 180.9  19.6  34188  290.06 0854.42
2009/04/23 15:52:35.0       1   -556    230    557    602 179.9  23.7  34176  289.85 0854.42
2009/04/23 15:52:35.1      66   -385    280    391    480 170.2  39.2  34178  289.88 0854.42
2009/04/23 15:52:35.2      57   -537    502    541    738 173.9  47.7  34206  290.34 0854.42
2009/04/23 15:52:35.3     257   -432    261    503    566 149.3  29.6  34210  290.43 0854.44
2009/04/23 15:52:35.4     209   -277    217    348    410 142.9  35.1  34188  290.06 0854.44
2009/04/23 15:52:35.5     177   -257     23    313    314 145.5   4.4  34172  289.76 0854.44
2009/04/23 15:52:35.6     404   -417     51    581    584 135.9   5.1  34152  289.42 0854.44
2009/04/23 15:52:35.7     270   -444    163    520    546 148.7  17.4  34154  289.48 0854.44
2009/04/23 15:52:35.8     244   -443    247    506    563 151.2  27.9  34162  289.60 0854.44
2009/04/23 15:52:35.9      70   -326    176    334    377 167.9  30.1  34162  289.60 0854.44
2009/04/23 15:52:36.0      78   -297    163    308    348 165.3  30.2  34158  289.55 0854.44
2009/04/23 15:52:36.1     -35   -401     98    403    415 185.1  13.7  34172  289.77 0854.44
2009/04/23 15:52:36.2    -138   -255   -118    291    314 208.5 -27.8  34156  289.51 0854.44
2009/04/23 15:52:36.3      54   -264   -167    270    317 168.4 -39.0  34172  289.76 0854.44
2009/04/23 15:52:36.4     -79   -268   -127    280    307 196.5 -30.6  34170  289.75 0854.44
2009/04/23 15:52:36.5    -127   -303   -100    329    345 202.8 -16.9  34170  289.74 0854.44
2009/04/23 15:52:36.6    -141   -263    -76    299    309 208.3 -14.3  34182  289.93 0854.44
2009/04/23 15:52:36.7    -362   -238    -17    434    435 236.7  -2.3  34184  289.99 0854.44
2009/04/23 15:52:36.8    -337   -204    -88    395    405 238.8 -12.6  34180  289.91 0854.44
2009/04/23 15:52:36.9    -174   -155    138    234    271 228.2  33.5  34184  289.97 0854.44
2009/04/23 15:52:37.0    -128    -81     81    152    172 237.5  30.1  34192  290.11 0854.44
2009/04/23 15:52:37.1     -62   -498     53    502    505 187.2   6.1  34176  289.83 0854.44
2009/04/23 15:52:37.2    -272   -108     98    293    310 248.3  18.5  34162  289.59 0854.44
2009/04/23 15:52:37.3     -55   -205     92    213    232 195.1  24.9  34176  289.85 0854.46
2009/04/23 15:52:37.4    -107   -276    -22    297    298 201.2  -4.4  34170  289.75 0854.46
2009/04/23 15:52:37.5     -50    -52     72     73    102 224.1  50.0  34170  289.75 0854.46
2009/04/23 15:52:37.6     -55   -337      4    342    343 189.4   0.7  34158  289.54 0854.46
2009/04/23 15:52:37.7    -174   -272    -40    323    326 212.6  -7.2  34154  289.47 0854.46
2009/04/23 15:52:37.8    -205   -227     29    307    309 222.1   5.4  34154  289.47 0854.46
2009/04/23 15:52:37.9    -317     64    -39    324    327 281.5  -6.9  34186  290.02 0854.46
2009/04/23 15:52:38.0    -164     22    -18    166    168 277.9  -6.5  34174  289.82 0854.46
2009/04/23 15:52:38.1     -92     80     51    123    133 310.9  23.6  34172  289.77 0854.46
2009/04/23 15:52:38.2    -222     31     95    225    244 278.0  24.3  34174  289.80 0854.46
2009/04/23 15:52:38.3    -207      3     64    208    218 270.9  17.1  34176  289.85 0854.46
2009/04/23 15:52:38.4    -279    -17     72    280    290 266.5  14.5  34196  290.17 0854.46
2009/04/23 15:52:38.5    -193   -169    -76    257    268 228.9 -21.2  34150  289.39 0854.46
2009/04/23 15:52:38.6    -251   -170    -98    304    320 235.8 -17.9  34156  289.49 0854.46
2009/04/23 15:52:38.7    -265   -205   -102    336    351 232.3 -21.8  34146  289.35 0854.46
2009/04/23 15:52:38.8    -287   -135   -113    318    337 244.8 -24.6  34152  289.43 0854.46
2009/04/23 15:52:38.9    -204   -274   -137    342    368 216.7 -27.4  34150  289.40 0854.46
2009/04/23 15:52:39.0    -117   -165    -92    203    222 215.2 -30.3  34152  289.43 0854.46
2009/04/23 15:52:39.1    -117   -128    -72    174    188 222.5 -28.0  34156  289.50 0854.46
2009/04/23 15:52:39.2     -54   -150    -90    160    183 200.1 -36.3  34156  289.50 0854.46
2009/04/23 15:52:39.3    -102   -181    -11    208    209 209.4  -3.1  34154  289.46 0854.46
2009/04/23 15:52:39.4    -239    -52    -83    245    259 257.7 -18.7  34146  289.34 0854.46
2009/04/23 15:52:39.5    -444    -40   -122    446    463 264.8 -15.4  34126  288.99 0854.46
2009/04/23 15:52:39.6    -374    -39   -104    377    392 263.9 -15.5  34124  288.96 0854.46
2009/04/23 15:52:39.7    -479    -33    -97    481    491 266.0 -11.5  34130  289.06 0854.46
2009/04/23 15:52:39.8    -491     28    -49    492    495 273.3  -5.8  34140  289.22 0854.46
2009/04/23 15:52:39.9    -357    -86    -46    368    371 256.5  -7.2  34134  289.13 0854.46
2009/04/23 15:52:40.0    -519   -209      6    560    561 248.1   0.7  34136  289.16 0854.46
2009/04/23 15:52:40.1    -499   -152    -20    522    523 253.0  -2.2  34126  288.99 0854.46
2009/04/23 15:52:40.2    -505   -158   -158    530    554 252.6 -16.6  34134  289.13 0854.46
2009/04/23 15:52:40.3    -546   -147   -134    566    582 254.9 -13.4  34160  289.56 0854.46
2009/04/23 15:52:40.4    -611   -138   -109    627    637 257.2  -9.9  34186  290.01 0854.46
2009/04/23 15:52:40.5    -690   -351   -139    775    788 243.0 -10.2  34166  289.66 0854.46
2009/04/23 15:52:40.6    -507   -284    135    582    598 240.7  13.1  34180  289.91 0854.46
2009/04/23 15:52:40.7    -255   -172    134    308    335 235.9  25.0  34168  289.70 0854.46
2009/04/23 15:52:40.8    -169     20    148    171    226 276.8  45.4  34164  289.65 0854.46
2009/04/23 15:52:40.9     -51    -61    -77     80    111 219.6 -53.4  34170  289.75 0854.46
2009/04/23 15:52:41.0     -22    -22     11     32     34 225.1  18.9  34172  289.77 0854.46
2009/04/23 15:52:41.1      45     29    106     54    118  57.5  70.8  34180  289.91 0854.46
2009/04/23 15:52:41.2     133    149     32    200    203  41.7   9.3  34164  289.65 0854.46
2009/04/23 15:52:41.3     384    353    114    522    535  47.4  12.4  34182  289.96 0854.45
2009/04/23 15:52:41.4     292    347    121    454    470  40.1  15.0  34158  289.54 0854.45
2009/04/23 15:52:41.5     387    387    198    548    582  45.0  20.7  34152  289.44 0854.45
2009/04/23 15:52:41.6     505    473    -49    693    695  46.9  -4.1  34148  289.38 0854.45
2009/04/23 15:52:41.7     453    246     97    516    526  61.5  10.7  34160  289.58 0854.45
2009/04/23 15:52:41.8     199     64    -16    210    211  72.1  -4.6  34162  289.60 0854.45
2009/04/23 15:52:41.9     179    267   -201    322    379  33.8 -39.6  34178  289.87 0854.45
2009/04/23 15:52:42.0    -167    202   -130    263    293 320.4 -32.6  34156  289.51 0854.45
2009/04/23 15:52:42.1     -64    290    -27    298    300 347.5  -5.2  34164  289.64 0854.45
2009/04/23 15:52:42.2      34    368     28    370    371   5.4   4.4  34168  289.72 0854.45
2009/04/23 15:52:42.3    -107    196    -23    224    226 331.3  -6.0  34168  289.72 0854.45
2009/04/23 15:52:42.4     -87    221     74    238    250 338.4  17.3  34188  290.05 0854.45
2009/04/23 15:52:42.5      36    171     82    175    193  12.0  27.1  34170  289.75 0854.45
2009/04/23 15:52:42.6    -115    225    244    253    351 332.9  49.0  34186  290.00 0854.45
2009/04/23 15:52:42.7      57    231      9    239    240  14.0   2.3  34146  289.34 0854.45
2009/04/23 15:52:42.8     306    156    121    344    364  62.9  20.1  34276  291.54 0854.45
2009/04/23 15:52:42.9     249    137    -41    285    288  61.1  -8.3  34218  290.56 0854.45
2009/04/23 15:52:43.0     285     98     36    302    305  71.0   6.9  34206  290.34 0854.45
2009/04/23 15:52:43.1     236    310      4    390    391  37.3   0.7  34202  290.27 0854.45
2009/04/23 15:52:43.2     181    432      4    469    470  22.7   0.5  34176  289.84 0854.45
2009/04/23 15:52:43.3     400    344    -48    528    531  49.3  -5.2  34132  289.09 0854.42
2009/04/23 15:52:43.4     390    307    -19    497    498  51.8  -2.2  34130  289.06 0854.42
2009/04/23 15:52:43.5     357    258   -132    441    461  54.1 -16.7  34232  290.80 0854.42
2009/04/23 15:52:43.6     312    162    194    352    401  62.6  31.3  34274  291.52 0854.42
2009/04/23 15:52:43.7     533    224    282    579    644  67.2  27.9  34260  291.27 0854.42
2009/04/23 15:52:43.8    1235    417    347   1304   1350  71.3  14.9  34188  290.05 0854.42
2009/04/23 15:52:43.9    1110    308    148   1152   1162  74.5   7.3  34198  290.21 0854.42
2009/04/23 15:52:44.0    1022   -116    343   1029   1086  96.5  18.5  34218  290.57 0854.42
2009/04/23 15:52:44.1     984    446     66   1081   1083  65.6   3.5  34188  290.05 0854.42
2009/04/23 15:52:44.2     886    293     42    934    935  71.7   2.6  34204  290.32 0854.42
2009/04/23 15:52:44.3     726    323    226    795    827  66.0  15.9  34234  290.82 0854.42
2009/04/23 15:52:44.4     685    355    276    772    819  62.6  20.6  34210  290.43 0854.42
2009/04/23 15:52:44.5     417    256    138    490    510  58.5  15.8  34192  290.12 0854.42
2009/04/23 15:52:44.6     425    329    -83    538    545  52.3  -8.8  34200  290.24 0854.42
2009/04/23 15:52:44.7     339    247     60    420    425  53.9   8.2  34196  290.17 0854.42
2009/04/23 15:52:44.8     425    209    110    474    487  63.8  13.1  34192  290.13 0854.42
2009/04/23 15:52:44.9     457    113    165    471    499  76.1  20.0  34220  290.59 0854.42
2009/04/23 15:52:45.0     481    -21    171    482    511  92.5  20.4  34232  290.81 0854.42
2009/04/23 15:52:45.1     414    -64    234    420    480  98.9  31.6  34242  290.97 0854.42
2009/04/23 15:52:45.2     290    239    271    376    463  50.5  39.5  34240  290.94 0854.40
2009/04/23 15:52:45.3     288    272    189    397    439  46.7  27.3  34272  291.48 0854.40
2009/04/23 15:52:45.4     177    205     55    272    278  40.8  11.6  34254  291.17 0854.40
2009/04/23 15:52:45.5     230    104    100    253    272  65.6  22.8  34296  291.87 0854.40
2009/04/23 15:52:45.6     175    164     56    241    248  46.9  13.2  34302  291.99 0854.40
2009/04/23 15:52:45.7      99    143    196    174    262  34.7  53.7  34270  291.43 0854.40
2009/04/23 15:52:45.8      -9    -82     29     83     89 186.7  19.4  34270  291.43 0854.40
2009/04/23 15:52:45.9      10   -117    -52    118    128 174.7 -29.6  34254  291.18 0854.40
2009/04/23 15:52:46.0      22   -110    105    113    154 168.4  48.0  34260  291.26 0854.40
2009/04/23 15:52:46.1      74    -53     42     92    101 125.5  26.6  34252  291.15 0854.40
2009/04/23 15:52:46.2      73     17    118     75    139  76.7  64.7  34256  291.21 0854.40
2009/04/23 15:52:46.3      60     60     34     86     92  45.0  22.5  34256  291.20 0854.40
2009/04/23 15:52:46.4     108     51     51    120    130  64.8  24.6  34250  291.11 0854.40
2009/04/23 15:52:46.5     175     -7    132    176    220  92.6  40.7  34240  290.92 0854.40
2009/04/23 15:52:46.6     193    -81    189    210    282 112.8  46.9  34232  290.80 0854.40
2009/04/23 15:52:46.7     159      0    211    160    264  90.0  59.2  34230  290.75 0854.40
2009/04/23 15:52:46.8    -116   -159    192    198    275 216.1  49.0  34240  290.93 0854.40
2009/04/23 15:52:46.9     -85    -78    206    116    236 227.3  68.1  34240  290.92 0854.40
2009/04/23 15:52:47.0      15    -76     85     78    115 168.4  52.2  34240  290.94 0854.40
2009/04/23 15:52:47.1     104    -35     42    110    117 108.6  22.0  34238  290.91 0854.40
2009/04/23 15:52:47.2     124    -68    148    142    205 118.9  50.9  34228  290.74 0854.39
2009/04/23 15:52:47.3      60    -49    168     78    185 129.6  73.2  34234  290.82 0854.39
2009/04/23 15:52:47.4     -91      6    144     92    170 273.9  64.6  34252  291.13 0854.39
2009/04/23 15:52:47.5    -107     54    107    121    161 297.0  46.4  34254  291.16 0854.39
2009/04/23 15:52:47.6     -79    -15     52     81     96 259.0  35.6  34254  291.16 0854.39
2009/04/23 15:52:47.7     -72     -1     30     73     78 269.1  23.0  34238  290.91 0854.39
2009/04/23 15:52:47.8    -101     14   -104    102    145 277.9 -54.5  34224  290.67 0854.39
2009/04/23 15:52:47.9    -105     57   -159    120    199 298.4 -63.6  34244  291.01 0854.39
2009/04/23 15:52:48.0    -137    128    -88    188    207 313.1 -31.5  34240  290.94 0854.39
2009/04/23 15:52:48.1    -191    121     24    227    229 302.5   6.1  34228  290.72 0854.39
2009/04/23 15:52:48.2    -350    110   -137    367    391 287.5 -26.0  34210  290.43 0854.39
2009/04/23 15:52:48.3    -509    -29   -202    510    548 266.7 -27.3  34146  289.35 0854.39
2009/04/23 15:52:48.4    -603   -105   -228    613    654 260.1 -25.8  34154  289.47 0854.39
2009/04/23 15:52:48.5    -576    -12   -178    577    603 268.8 -22.1  34152  289.42 0854.39
2009/04/23 15:52:48.6    -427    -50   -297    430    522 263.3 -42.3  34162  289.61 0854.39
2009/04/23 15:52:48.7    -551   -106   -270    562    623 259.1 -32.1  34168  289.71 0854.39
2009/04/23 15:52:48.8    -351   -127   -123    374    393 250.1 -23.3  34198  290.21 0854.39
2009/04/23 15:52:48.9    -298     33   -237    300    382 276.4 -46.7  34200  290.25 0854.39
2009/04/23 15:52:49.0    -408   -139    -44    432    435 251.2  -5.9  34198  290.21 0854.39
2009/04/23 15:52:49.1    -465    -90   -150    474    498 259.0 -17.6  34202  290.27 0854.39
2009/04/23 15:52:49.2    -339   -123     15    362    363 250.0   2.4  34212  290.45 0854.38
2009/04/23 15:52:49.3    -422   -200    -67    468    473 244.6  -8.2  34166  289.66 0854.38
2009/04/23 15:52:49.4    -547   -384    -32    669    670 234.9  -2.8  34146  289.32 0854.38
2009/04/23 15:52:49.5    -508   -314   -137    598    614 238.3 -12.9  34106  288.66 0854.38
2009/04/23 15:52:49.6    -519   -286   -105    593    603 241.1 -10.1  34124  288.97 0854.38
2009/04/23 15:52:49.7    -514   -332   -176    613    638 237.1 -16.0  34110  288.74 0854.38
2009/04/23 15:52:49.8    -514   -372   -223    635    674 234.0 -19.4  34112  288.75 0854.38
2009/04/23 15:52:49.9    -428   -360   -224    560    603 229.9 -27.4  34098  288.51 0854.38
2009/04/23 15:52:50.0    -462   -365   -253    589    641 231.7 -29.2  34094  288.45 0854.38
2009/04/23 15:52:50.1    -423   -402   -229    584    627 226.4 -26.9  34094  288.44 0854.38
2009/04/23 15:52:50.2    -433   -398   -259    589    643 227.4 -29.6  34100  288.54 0854.38
2009/04/23 15:52:50.3    -495   -390   -312    631    703 231.8 -32.6  34094  288.44 0854.38
2009/04/23 15:52:50.4    -455   -413   -303    615    685 227.8 -32.5  34096  288.50 0854.38
2009/04/23 15:52:50.5    -468   -351   -263    586    642 233.1 -30.2  34096  288.50 0854.38
2009/04/23 15:52:50.6    -378   -354   -188    519    552 226.9 -25.2  34106  288.65 0854.38
2009/04/23 15:52:50.7    -362   -326   -172    488    517 228.0 -24.6  34120  288.90 0854.38
2009/04/23 15:52:50.8    -399   -262   -176    478    509 236.6 -25.5  34122  288.93 0854.38
2009/04/23 15:52:50.9    -234   -283   -211    368    424 219.6 -36.8  34108  288.70 0854.38
2009/04/23 15:52:51.0    -185   -261   -239    321    400 215.4 -45.0  34128  289.03 0854.38
2009/04/23 15:52:51.1    -203   -155   -140    256    291 232.7 -35.7  34146  289.32 0854.38
2009/04/23 15:52:51.2    -227   -285    -83    365    375 218.6 -12.9  34158  289.55 0854.37
2009/04/23 15:52:51.3    -170   -219    -73    278    288 217.9 -14.7  34156  289.51 0854.37
2009/04/23 15:52:51.4    -151   -235   -107    280    299 212.7 -26.4  34146  289.34 0854.37
2009/04/23 15:52:51.5     -95   -282   -113    298    318 198.7 -26.1  34146  289.34 0854.37
2009/04/23 15:52:51.6     -66   -307   -143    315    345 192.3 -30.6  34152  289.43 0854.37
2009/04/23 15:52:51.7     177   -274   -113    327    346 147.2 -19.1  34158  289.55 0854.37
2009/04/23 15:52:51.8     127   -210    -69    246    255 148.8 -20.0  34162  289.61 0854.37
2009/04/23 15:52:51.9     147   -327   -118    359    377 155.7 -23.6  34160  289.57 0854.37
2009/04/23 15:52:52.0     304   -258    -18    399    400 130.3  -2.6  34164  289.64 0854.37
2009/04/23 15:52:52.1     509   -237   -145    562    581 114.9 -14.5  34216  290.51 0854.37
2009/04/23 15:52:52.2     337   -434   -152    550    571 142.1 -15.5  34168  289.72 0854.39
2009/04/23 15:52:52.3     321   -438    -61    544    548 143.7  -6.5  34166  289.68 0854.39
2009/04/23 15:52:52.4     239   -356    -62    430    435 146.1  -8.2  34166  289.66 0854.39
2009/04/23 15:52:52.5     152   -356   -148    388    415 156.8 -26.4  34174  289.80 0854.39
2009/04/23 15:52:52.6      57   -370    -43    375    378 171.1  -6.6  34178  289.87 0854.39
2009/04/23 15:52:52.7     118   -270    -50    295    300 156.4  -9.8  34174  289.80 0854.39
2009/04/23 15:52:52.8      89   -165    -66    188    199 151.5 -24.6  34174  289.82 0854.39
2009/04/23 15:52:52.9      96   -204   -147    226    269 154.7 -40.1  34182  289.93 0854.39
2009/04/23 15:52:53.0      44   -206      6    211    212 167.7   1.8  34178  289.89 0854.39
2009/04/23 15:52:53.1    -105   -409    115    423    439 194.5  15.3  34184  289.97 0854.39
2009/04/23 15:52:53.2    -195   -292     43    352    355 213.8   7.1  34180  289.91 0854.39
2009/04/23 15:52:53.3    -230   -318    115    393    410 215.8  16.3  34178  289.88 0854.39
2009/04/23 15:52:53.4    -243   -212     82    323    334 228.8  14.3  34166  289.69 0854.39
2009/04/23 15:52:53.5    -156   -156    181    221    285 224.9  43.7  34180  289.90 0854.39
2009/04/23 15:52:53.6    -152   -132    215    202    295 228.9  52.1  34180  289.90 0854.39
2009/04/23 15:52:53.7    -119   -152     97    194    216 218.1  28.5  34164  289.65 0854.39
2009/04/23 15:52:53.8    -132   -359     72    383    390 200.3  10.7  34192  290.10 0854.39
2009/04/23 15:52:53.9     -51   -472     -1    475    476 186.3  -0.2  34182  289.93 0854.39
2009/04/23 15:52:54.0     161   -642    -85    662    668 165.9  -7.3  34174  289.82 0854.39
2009/04/23 15:52:54.1     173   -701     75    723    727 166.1   6.0  34172  289.76 0854.39
2009/04/23 15:52:54.2     241   -693    124    734    745 160.8   9.6  34152  289.45 0854.39
2009/04/23 15:52:54.3     222   -713     39    747    748 162.7   3.0  34152  289.45 0854.39
2009/04/23 15:52:54.4     121   -549   -103    563    573 167.5 -10.4  34156  289.52 0854.39
2009/04/23 15:52:54.5     -19   -487    -64    488    493 182.3  -7.5  34168  289.71 0854.39
2009/04/23 15:52:54.6     -92   -741     87    747    753 187.1   6.7  34168  289.70 0854.39
2009/04/23 15:52:54.7    -179   -718    212    741    771 194.1  16.0  34176  289.85 0854.39
2009/04/23 15:52:54.8    -298   -453    191    543    576 213.4  19.4  34168  289.72 0854.39
2009/04/23 15:52:54.9    -115   -357    254    376    453 197.9  37.4  34166  289.68 0854.39
2009/04/23 15:52:55.0     -22   -433     79    434    442 182.9  10.4  34168  289.72 0854.39
2009/04/23 15:52:55.1     -57   -473     50    477    480 187.0   6.1  34178  289.86 0854.39
2009/04/23 15:52:55.2      92   -475    -83    484    492 169.0  -9.8  34170  289.73 0854.39
2009/04/23 15:52:55.3     189   -549    -32    581    582 160.9  -3.2  34134  289.12 0854.39
2009/04/23 15:52:55.4      95   -479    -44    489    492 168.8  -5.2  34162  289.59 0854.39
2009/04/23 15:52:55.5     -78   -416     83    424    433 190.7  11.1  34156  289.51 0854.39
2009/04/23 15:52:55.6    -124   -311     68    336    344 201.8  11.6  34162  289.59 0854.39
2009/04/23 15:52:55.7     -32   -519     73    521    527 183.6   8.0  34170  289.75 0854.39
2009/04/23 15:52:55.8      61   -433     52    438    442 171.9   6.9  34150  289.39 0854.39
2009/04/23 15:52:55.9     -48   -416      6    419    420 186.6   0.9  34170  289.73 0854.39
2009/04/23 15:52:56.0     -82   -428    -52    436    440 190.9  -6.9  34186  290.00 0854.39
2009/04/23 15:52:56.1     -60   -523    -49    527    530 186.6  -5.4  34182  289.94 0854.39
2009/04/23 15:52:56.2      -7   -486    -55    487    491 180.9  -6.5  34186  290.01 0854.39
2009/04/23 15:52:56.3    -138   -514   -106    533    544 195.1 -11.3  34196  290.19 0854.39
2009/04/23 15:52:56.4    -110   -557    -73    568    573 191.2  -7.3  34154  289.47 0854.39
2009/04/23 15:52:56.5    -101   -613    -44    622    624 189.4  -4.1  34146  289.33 0854.39
2009/04/23 15:52:56.6     -37   -533   -148    535    556 184.0 -15.5  34150  289.41 0854.39
2009/04/23 15:52:56.7     -81   -434   -169    442    473 190.6 -26.4  34152  289.43 0854.39
2009/04/23 15:52:56.8     -94   -477   -148    487    510 191.2 -16.9  34116  288.83 0854.39
2009/04/23 15:52:56.9     -66   -551    -70    555    560 186.9  -7.2  34118  288.87 0854.39
2009/04/23 15:52:57.0     -38   -552   -112    554    566 184.0 -11.5  34130  289.06 0854.39
2009/04/23 15:52:57.1     -42   -556    -73    558    563 184.4  -7.5  34136  289.16 0854.39
2009/04/23 15:52:57.2    -123   -539    -10    553    554 192.9  -1.1  34132  289.11 0854.39
2009/04/23 15:52:57.3    -214   -543   -200    584    618 201.5 -18.9  34120  288.88 0854.39
2009/04/23 15:52:57.4    -174   -543   -162    571    593 197.8 -20.7  34114  288.80 0854.39
2009/04/23 15:52:57.5     -76   -585   -164    590    612 187.5 -20.2  34118  288.85 0854.39
2009/04/23 15:52:57.6     -57   -520   -173    524    551 186.3 -23.3  34138  289.21 0854.39
2009/04/23 15:52:57.7    -186   -478   -150    514    535 201.3 -21.1  34148  289.36 0854.39
2009/04/23 15:52:57.8    -217   -502   -172    548    574 203.4 -22.5  34130  289.06 0854.39
2009/04/23 15:52:57.9    -117   -575   -191    588    619 191.6 -18.0  34134  289.12 0854.39
2009/04/23 15:52:58.0    -292   -601   -121    669    680 205.9 -10.3  34146  289.34 0854.39
2009/04/23 15:52:58.1    -261   -491    -66    556    560 208.0  -6.8  34146  289.35 0854.39
2009/04/23 15:52:58.2    -241   -586   -200    634    664 202.4 -22.5  34136  289.18 0854.38
2009/04/23 15:52:58.3    -222   -526   -258    572    627 202.9 -30.3  34138  289.19 0854.38
2009/04/23 15:52:58.4    -164   -492   -238    519    570 198.5 -30.7  34142  289.26 0854.38
2009/04/23 15:52:58.5    -166   -548   -244    573    622 196.9 -28.9  34138  289.19 0854.38
2009/04/23 15:52:58.6    -215   -463   -266    511    576 205.0 -34.0  34134  289.14 0854.38
2009/04/23 15:52:58.8     -48   -518   -272    521    587 185.4 -34.2  34146  289.33 0854.38
2009/04/23 15:52:58.9     -82   -481   -159    488    514 189.7 -18.1  34140  289.23 0854.38
2009/04/23 15:52:59.0    -151   -437   -147    463    486 199.1 -17.7  34150  289.39 0854.38
2009/04/23 15:52:59.1    -163   -197   -140    256    291 219.6 -35.7  34150  289.41 0854.38
2009/04/23 15:52:59.2    -117   -293   -199    316    373 201.8 -39.7  34152  289.42 0854.38
2009/04/23 15:52:59.3    -210   -147   -168    257    307 234.9 -40.4  34156  289.51 0854.38
2009/04/23 15:52:59.4    -205   -309   -165    372    406 213.6 -29.7  34148  289.37 0854.38
2009/04/23 15:52:59.5     -56   -240   -194    247    314 193.3 -46.6  34152  289.44 0854.38
2009/04/23 15:52:59.6    -206   -331   -108    390    404 211.9 -20.2  34142  289.28 0854.38
2009/04/23 15:52:59.7    -175   -347   -126    389    408 206.8 -23.2  34148  289.36 0854.38
2009/04/23 15:52:59.8    -122   -464   -142    480    501 194.8 -16.5  34146  289.34 0854.38
2009/04/23 15:52:59.9     -33   -318   -149    320    352 186.0 -31.3  34150  289.40 0854.38
2009/04/23 15:53:00.0     -63   -186   -189    197    273 198.9 -53.4  34136  289.17 0854.38
2009/04/23 15:53:00.1      35   -113   -215    119    245 162.6 -73.2  34158  289.53 0854.38
2009/04/23 15:53:00.2     -28   -172   -140    175    224 189.3 -47.1  34146  289.33 0854.38
2009/04/23 15:53:00.3     -65   -319   -196    326    380 191.6 -38.4  34146  289.33 0854.37
2009/04/23 15:53:00.4      30   -482   -174    483    513 176.4 -25.1  34140  289.22 0854.37
2009/04/23 15:53:00.5     -25   -269   -250    271    368 185.3 -52.1  34146  289.32 0854.37
2009/04/23 15:53:00.6     -53   -326   -147    331    362 189.3 -30.0  34142  289.26 0854.37
2009/04/23 15:53:00.7      18   -376   -138    377    401 177.2 -25.3  34144  289.30 0854.37
2009/04/23 15:53:00.8      31   -280   -104    282    300 173.5 -25.4  34148  289.37 0854.37
2009/04/23 15:53:00.9      49   -177   -179    184    256 164.4 -53.4  34156  289.49 0854.37
2009/04/23 15:53:01.0     133   -258   -150    291    327 152.6 -33.8  34148  289.37 0854.37
2009/04/23 15:53:01.1     140   -253   -155    290    328 151.0 -34.7  34148  289.37 0854.37
2009/04/23 15:53:01.2     150   -292   -176    329    373 152.7 -34.9  34148  289.38 0854.37
2009/04/23 15:53:01.3     176   -415   -192    452    491 157.0 -28.9  34156  289.49 0854.37
2009/04/23 15:53:01.4     198   -402   -267    449    522 153.7 -37.9  34146  289.32 0854.37
2009/04/23 15:53:01.5     255   -344   -253    429    498 143.5 -37.8  34152  289.42 0854.37
2009/04/23 15:53:01.6     240   -312   -254    394    468 142.4 -40.3  34152  289.43 0854.37
2009/04/23 15:53:01.7     213   -313   -156    379    409 145.8 -28.0  34152  289.42 0854.37
2009/04/23 15:53:01.8     136   -285   -153    316    351 154.5 -31.8  34156  289.50 0854.37
2009/04/23 15:53:01.9     244   -359   -105    435    448 145.8 -13.6  34144  289.31 0854.37
2009/04/23 15:53:02.0     264   -343    -34    434    436 142.4  -4.5  34142  289.27 0854.37
2009/04/23 15:53:02.1     273   -402      9    486    487 145.8   1.1  34142  289.25 0854.37
2009/04/23 15:53:02.2     222   -413     56    469    473 151.7   6.9  34146  289.32 0854.37
2009/04/23 15:53:02.3     236   -415     62    478    483 150.4   7.5  34146  289.32 0854.37
2009/04/23 15:53:02.4     170   -430     77    463    470 158.4   9.4  34150  289.40 0854.37
2009/04/23 15:53:02.5     160   -464     59    492    496 160.9   6.9  34142  289.28 0854.37
2009/04/23 15:53:02.6     278   -445     42    525    527 148.0   4.6  34148  289.36 0854.37
2009/04/23 15:53:02.7     258   -406     53    482    486 147.5   6.4  34142  289.28 0854.37
2009/04/23 15:53:02.8     206   -400     96    451    462 152.7  12.0  34146  289.33 0854.37
2009/04/23 15:53:02.9     181   -462     96    497    507 158.6  11.0  34152  289.42 0854.37
2009/04/23 15:53:03.0     271   -473     60    546    550 150.2   6.4  34152  289.43 0854.37
2009/04/23 15:53:03.1     336   -413    104    533    544 140.9  11.1  34144  289.31 0854.37
2009/04/23 15:53:03.2     360   -491     30    610    611 143.7   2.9  34160  289.58 0854.37
2009/04/23 15:53:03.3     322   -474     27    573    574 145.8   2.8  34162  289.61 0854.37
2009/04/23 15:53:03.4     257   -540     51    599    602 154.5   4.9  34152  289.42 0854.37
2009/04/23 15:53:03.5     184   -457     20    493    494 158.1   2.3  34144  289.30 0854.37
2009/04/23 15:53:03.6     167   -502    135    530    547 161.5  14.3  34150  289.41 0854.37
2009/04/23 15:53:03.7     139   -513     -2    532    533 164.8  -0.2  34154  289.46 0854.37
2009/04/23 15:53:03.8      84   -411   -123    420    438 168.4 -16.4  34152  289.43 0854.37
2009/04/23 15:53:03.9     131   -447   -129    466    484 163.6 -15.5  34154  289.47 0854.37
2009/04/23 15:53:04.0     133   -298   -280    327    430 155.9 -49.4  34152  289.42 0854.37
2009/04/23 15:53:04.1     181   -364   -301    407    506 153.5 -44.5  34116  288.81 0854.37
2009/04/23 15:53:04.2     257   -311   -223    404    461 140.4 -35.7  34110  288.72 0854.37
2009/04/23 15:53:04.3     161   -242   -171    291    337 146.4 -37.5  34108  288.68 0854.38
2009/04/23 15:53:04.4       1   -216    -75    217    229 179.5 -23.8  34102  288.58 0854.38
2009/04/23 15:53:04.5       1   -279    -96    280    296 179.8 -23.8  34106  288.65 0854.38
2009/04/23 15:53:04.6    -116   -277   -206    301    364 202.7 -42.0  34152  289.45 0854.38
2009/04/23 15:53:04.7    -108   -360   -171    377    413 196.8 -30.6  34156  289.50 0854.38
2009/04/23 15:53:04.8      35   -463   -124    465    482 175.7 -15.0  34152  289.42 0854.38
2009/04/23 15:53:04.9     100   -498    -68    509    514 168.6  -7.7  34158  289.54 0854.38
2009/04/23 15:53:05.0     141   -498   -125    518    533 164.1 -13.6  34160  289.57 0854.38
2009/04/23 15:53:05.1     201   -396   -134    445    464 153.0 -21.7  34148  289.36 0854.38
2009/04/23 15:53:05.2      77   -404   -134    412    433 169.2 -23.2  34154  289.48 0854.38
2009/04/23 15:53:05.3     -36   -462    -34    464    466 184.5  -4.2  34152  289.42 0854.38
2009/04/23 15:53:05.4      -1   -474     -9    475    476 180.2  -1.2  34156  289.49 0854.38
2009/04/23 15:53:05.5     -44   -521    -46    524    527 184.9  -5.1  34162  289.60 0854.38
2009/04/23 15:53:05.6    -167   -471   -155    501    524 199.6 -22.2  34146  289.32 0854.38
2009/04/23 15:53:05.7     -21   -310   -238    311    391 184.0 -45.7  34148  289.38 0854.38
2009/04/23 15:53:05.8      51   -257   -189    263    323 168.7 -43.7  34138  289.20 0854.38
2009/04/23 15:53:05.9      33   -164   -130    168    212 168.4 -46.1  34142  289.26 0854.38
2009/04/23 15:53:06.0      73   -223    -25    235    237 161.7  -6.2  34150  289.39 0854.38
2009/04/23 15:53:06.1      65   -181    108    193    221 160.2  31.4  34146  289.35 0854.38
2009/04/23 15:53:06.2      40   -313    -44    316    320 172.7  -8.0  34146  289.34 0854.38
2009/04/23 15:53:06.3      58   -357    -67    362    369 170.7 -10.5  34142  289.28 0854.37
2009/04/23 15:53:06.4      80   -465    -28    473    474 170.2  -3.5  34148  289.37 0854.37
2009/04/23 15:53:06.5     185   -540    -86    571    578 161.1  -8.6  34140  289.22 0854.37
2009/04/23 15:53:06.6     173   -520    -60    548    552 161.6  -6.3  34138  289.21 0854.37
2009/04/23 15:53:06.7     182   -504    -20    537    538 160.1  -2.2  34154  289.48 0854.37
2009/04/23 15:53:06.8     123   -559     22    573    574 167.5   2.2  34148  289.37 0854.37
2009/04/23 15:53:06.9      36   -489     51    491    494 175.8   6.0  34152  289.44 0854.37
2009/04/23 15:53:07.0      69   -625     87    629    635 173.7   7.9  34176  289.84 0854.37
2009/04/23 15:53:07.1     162   -544     74    568    573 163.4   7.5  34168  289.71 0854.37
2009/04/23 15:53:07.2     148   -582      8    601    602 165.7   0.8  34170  289.73 0854.37
2009/04/23 15:53:07.3     125   -613    -72    626    631 168.4  -6.6  34168  289.72 0854.37
2009/04/23 15:53:07.4     168   -562     -9    587    588 163.3  -0.9  34164  289.64 0854.37
2009/04/23 15:53:07.5     271   -470     -2    543    544 150.0  -0.3  34172  289.79 0854.37
2009/04/23 15:53:07.6     266   -342     50    434    437 142.2   6.6  34170  289.73 0854.37
2009/04/23 15:53:07.7     151   -485    225    508    555 162.7  25.3  34170  289.75 0854.37
2009/04/23 15:53:07.8     128   -578    215    593    630 167.5  20.8  34168  289.70 0854.37
2009/04/23 15:53:07.9     154   -567    154    588    608 164.8  14.7  34172  289.76 0854.37
2009/04/23 15:53:08.0      76   -446    223    453    504 170.2  28.2  34170  289.73 0854.37
2009/04/23 15:53:08.1     -65   -578    344    582    676 186.5  33.4  34166  289.69 0854.37
2009/04/23 15:53:08.2     -63   -497    290    502    579 187.3  32.7  34162  289.60 0854.37
2009/04/23 15:53:08.3    -116   -339    352    359    502 198.9  49.4  34174  289.82 0854.41
2009/04/23 15:53:08.4      -2   -132    276    133    306 181.0  72.8  34178  289.88 0854.41
2009/04/23 15:53:08.5    -242   -356    169    431    462 214.3  22.8  34166  289.68 0854.41
2009/04/23 15:53:08.6    -255   -414    294    487    568 211.7  34.0  34160  289.58 0854.41
2009/04/23 15:53:08.7    -240   -282    397    371    543 220.4  52.2  34170  289.73 0854.41
2009/04/23 15:53:08.8     -79   -276    359    288    460 196.1  57.3  34174  289.82 0854.41
2009/04/23 15:53:08.9     -18   -240    293    241    379 184.5  56.4  34172  289.76 0854.41
2009/04/23 15:53:09.0     -24   -227    258    229    344 186.3  54.0  34176  289.83 0854.41
2009/04/23 15:53:09.1     -18   -333    199    334    388 183.2  33.6  34178  289.86 0854.41
2009/04/23 15:53:09.2     -53   -360    258    365    446 188.5  38.6  34170  289.75 0854.41
2009/04/23 15:53:09.3     -56   -402    177    407    443 188.0  25.1  34168  289.72 0854.41
2009/04/23 15:53:09.4      47   -422     86    425    434 173.5  11.6  34166  289.68 0854.41
2009/04/23 15:53:09.5      31   -359    125    361    383 175.0  19.1  34164  289.65 0854.41
2009/04/23 15:53:09.6    -120   -505    211    520    561 193.4  23.4  34168  289.70 0854.41
2009/04/23 15:53:09.7     -80   -443    144    451    474 190.2  17.8  34164  289.64 0854.41
2009/04/23 15:53:09.8     -66   -303     61    311    318 192.3  11.1  34162  289.61 0854.41
2009/04/23 15:53:09.9     -91   -347     81    359    369 194.8  12.8  34162  289.60 0854.41
2009/04/23 15:53:10.0       4   -401    219    402    457 179.4  31.0  34170  289.75 0854.41
2009/04/23 15:53:10.1    -102   -318    250    335    418 197.8  40.6  34174  289.81 0854.41
2009/04/23 15:53:10.2     -24   -267    285    269    391 185.3  52.0  34176  289.84 0854.41
2009/04/23 15:53:10.3      56   -299    211    305    370 169.3  38.0  34178  289.87 0854.44
2009/04/23 15:53:10.4      11   -357    224    358    422 178.1  35.2  34178  289.87 0854.44
2009/04/23 15:53:10.5     -15   -432    265    433    507 182.0  34.4  34182  289.95 0854.44
2009/04/23 15:53:10.6     -29   -383    247    385    457 184.4  35.6  34190  290.07 0854.44
2009/04/23 15:53:10.7      46   -300    239    304    386 171.1  42.2  34212  290.47 0854.44
2009/04/23 15:53:10.8      78   -249    163    262    308 162.6  35.2  34232  290.80 0854.44
2009/04/23 15:53:10.9      23   -219    270    221    348 173.8  56.4  34208  290.39 0854.44
2009/04/23 15:53:11.0      28   -216    208    218    301 172.4  48.7  34208  290.39 0854.44
2009/04/23 15:53:11.1      50   -127    109    137    175 158.2  42.7  34218  290.55 0854.44
2009/04/23 15:53:11.2      35   -189     74    193    206 169.5  22.0  34212  290.47 0854.44
2009/04/23 15:53:11.3     140   -142    144    200    246 135.5  39.3  34202  290.28 0854.44
2009/04/23 15:53:11.4      89   -369    350    380    516 166.4  47.5  34202  290.29 0854.44
2009/04/23 15:53:11.5     -10   -348    215    349    409 181.8  34.6  34196  290.18 0854.44
2009/04/23 15:53:11.6     111   -312    284    332    436 160.4  44.9  34212  290.46 0854.44
2009/04/23 15:53:11.7      37   -378    252    380    455 174.3  36.6  34186  290.00 0854.44
2009/04/23 15:53:11.8      27   -348    150    350    380 175.5  24.8  34184  289.99 0854.44
2009/04/23 15:53:11.9    -294   -241    108    381    397 230.6  15.8  34184  289.99 0854.44
2009/04/23 15:53:12.0    -161   -147    208    219    302 227.6  48.2  34190  290.09 0854.44
2009/04/23 15:53:12.1    -142   -159      3    214    215 221.7   1.0  34190  290.09 0854.44
2009/04/23 15:53:12.2     -87   -136    -11    162    163 212.5  -3.9  34190  290.08 0854.44
2009/04/23 15:53:12.3     -16   -153     10    154    155 186.2   3.8  34190  290.09 0854.44
2009/04/23 15:53:12.4     -96    -87      6    130    131 227.8   2.8  34192  290.13 0854.44
2009/04/23 15:53:12.5    -108    -49     -2    119    120 245.2  -1.2  34192  290.11 0854.44
2009/04/23 15:53:12.6    -169    -67    -39    182    187 248.3 -12.2  34188  290.06 0854.44
2009/04/23 15:53:12.7    -187    -32      0    190    191 260.3   0.2  34190  290.09 0854.44
2009/04/23 15:53:12.8    -270    -54      3    276    277 258.5   0.7  34184  289.97 0854.44
2009/04/23 15:53:12.9    -290    -92    -36    305    308 252.3  -6.9  34192  290.12 0854.44
2009/04/23 15:53:13.0    -452     46    -32    455    457 275.9  -4.1  34216  290.53 0854.44
2009/04/23 15:53:13.1    -455      0    -83    456    464 270.0 -10.4  34200  290.26 0854.44
2009/04/23 15:53:13.2    -363    127     84    385    395 289.3  12.4  34198  290.21 0854.44
2009/04/23 15:53:13.3    -538    144     27    557    558 285.1   2.8  34210  290.41 0854.44
2009/04/23 15:53:13.4    -485     48     -4    488    489 275.7  -0.5  34212  290.47 0854.44
2009/04/23 15:53:13.5    -347     -9   -159    348    382 268.4 -30.8  34204  290.33 0854.44
2009/04/23 15:53:13.6    -275    205   -104    344    359 306.8 -21.8  34204  290.33 0854.44
2009/04/23 15:53:13.7    -502    -11    -11    503    504 268.7  -1.3  34202  290.27 0854.44
2009/04/23 15:53:13.8    -538    -89    -84    546    553 260.6  -8.8  34206  290.35 0854.44
2009/04/23 15:53:13.9    -535   -195    -93    570    578 250.0  -9.3  34202  290.27 0854.44
2009/04/23 15:53:14.0    -488     13    -32    489    491 271.6  -3.8  34182  289.93 0854.44
2009/04/23 15:53:14.1    -398    -83    -89    407    417 258.1 -12.4  34190  290.07 0854.44
2009/04/23 15:53:14.2    -306   -158     50    345    349 242.6   8.3  34188  290.06 0854.44
2009/04/23 15:53:14.3    -284     34   -203    287    351 277.0 -43.1  34182  289.94 0854.44
2009/04/23 15:53:14.4    -300    182     63    352    358 301.3  10.2  34182  289.93 0854.44
2009/04/23 15:53:14.5    -160    194     75    252    264 320.4  16.6  34180  289.92 0854.44
2009/04/23 15:53:14.6    -288     55     91    294    308 280.8  17.3  34178  289.86 0854.44
2009/04/23 15:53:14.7    -198   -117     93    231    249 239.4  23.0  34172  289.76 0854.44
2009/04/23 15:53:14.8    -279   -145    112    315    334 242.5  20.3  34176  289.85 0854.44
2009/04/23 15:53:14.9    -287    -72    239    296    380 255.9  43.3  34178  289.87 0854.44
2009/04/23 15:53:15.0    -216     80    208    231    310 290.4  46.9  34184  289.98 0854.44
2009/04/23 15:53:15.1    -240    -87     26    256    258 250.0   6.0  34190  290.07 0854.44
2009/04/23 15:53:15.2    -273    -99     45    291    295 250.1   8.9  34192  290.12 0854.45
2009/04/23 15:53:15.3    -237   -212    154    319    354 228.2  27.7  34188  290.03 0854.45
2009/04/23 15:53:15.4    -192    -60    116    202    232 252.5  32.7  34182  289.94 0854.45
2009/04/23 15:53:15.5    -130    108     87    170    190 309.8  29.1  34182  289.96 0854.45
2009/04/23 15:53:15.6      71    166     57    181    190  23.4  17.7  34182  289.96 0854.45
2009/04/23 15:53:15.7      49     91     95    104    140  28.5  47.9  34194  290.14 0854.45
2009/04/23 15:53:15.8      54    135     82    146    167  21.8  31.9  34202  290.30 0854.45
2009/04/23 15:53:15.9      50    189    -17    196    197  15.1  -5.1  34222  290.62 0854.45
2009/04/23 15:53:16.0     -94    259    -40    276    279 339.9  -8.3  34212  290.44 0854.45
2009/04/23 15:53:16.1    -126    140      9    189    190 318.1   2.9  34196  290.18 0854.45
2009/04/23 15:53:16.2     -99     70     28    122    126 305.5  13.2  34202  290.30 0854.45
2009/04/23 15:53:16.3    -102     55      9    117    118 298.4   4.4  34204  290.31 0854.45
2009/04/23 15:53:16.4     -38     40     15     56     59 316.8  15.3  34218  290.55 0854.45
2009/04/23 15:53:16.5     -47     16    -25     50     55 289.1 -32.6  34206  290.35 0854.45
2009/04/23 15:53:16.6     -83    -59    -36    103    109 234.5 -23.3  34194  290.14 0854.45
2009/04/23 15:53:16.7    -110    -65    -35    128    133 239.3 -15.5  34192  290.11 0854.45
2009/04/23 15:53:16.8     -84   -116    -66    144    158 216.0 -30.6  34174  289.82 0854.45
2009/04/23 15:53:16.9     -20   -114    -39    116    122 190.2 -23.6  34184  289.99 0854.45
2009/04/23 15:53:17.0     -35    -71    -44     80     91 206.3 -35.8  34170  289.74 0854.45
2009/04/23 15:53:17.1    -169   -122     39    209    213 234.1  10.8  34168  289.72 0854.45
2009/04/23 15:53:17.2    -181   -226     57    290    296 218.7  11.1  34178  289.86 0854.43
2009/04/23 15:53:17.3    -274   -172     69    324    332 237.8  12.0  34182  289.96 0854.43
2009/04/23 15:53:17.4    -219   -111     82    246    260 243.0  18.4  34188  290.03 0854.43
2009/04/23 15:53:17.5    -234      8    120    235    263 272.1  29.1  34198  290.20 0854.43
2009/04/23 15:53:17.6    -306     -4    160    307    346 269.2  29.6  34198  290.20 0854.43
2009/04/23 15:53:17.7    -365    -97    138    378    402 255.0  21.0  34198  290.20 0854.43
2009/04/23 15:53:17.8    -315   -241     90    397    408 232.6  12.8  34182  289.94 0854.43
2009/04/23 15:53:17.9     -86   -335    246    346    424 194.4  39.0  34168  289.72 0854.43
2009/04/23 15:53:18.0      39   -381    296    383    484 174.1  41.6  34204  290.33 0854.43
2009/04/23 15:53:18.1      -7   -355    391    356    528 181.2  53.2  34206  290.35 0854.43
2009/04/23 15:53:18.2     120   -318    319    341    466 159.3  48.0  34188  290.04 0854.43
2009/04/23 15:53:18.3     107   -292    216    312    379 159.9  37.9  34178  289.87 0854.43
2009/04/23 15:53:18.4     211   -436    212    485    529 154.1  25.1  34156  289.52 0854.43
2009/04/23 15:53:18.5      73   -399    175    406    442 169.5  24.9  34160  289.58 0854.43
2009/04/23 15:53:18.6      20   -316    330    317    457 176.4  51.3  34162  289.61 0854.43
2009/04/23 15:53:18.7    -333   -506    268    607    663 213.4  25.3  34230  290.76 0854.43
2009/04/23 15:53:18.8    -366   -519    247    636    682 215.2  22.4  34222  290.63 0854.43
2009/04/23 15:53:18.9    -147   -404    171    431    463 200.1  23.0  34202  290.29 0854.43
2009/04/23 15:53:19.0      96   -298    267    314    412 162.2  44.7  34162  289.62 0854.43
2009/04/23 15:53:19.1      11   -225    285    226    363 177.1  57.7  34162  289.59 0854.43
2009/04/23 15:53:19.2     -68   -376    353    383    520 190.3  47.5  34164  289.64 0854.37
2009/04/23 15:53:19.3     -24   -379    243    380    451 183.6  35.6  34158  289.55 0854.37
2009/04/23 15:53:19.4      -4   -300    240    301    384 180.9  42.9  34162  289.59 0854.37
2009/04/23 15:53:19.5      12   -275    243    276    367 177.5  45.9  34164  289.64 0854.37
2009/04/23 15:53:19.6       4   -253    181    254    311 178.9  39.0  34168  289.70 0854.37
2009/04/23 15:53:19.7     -91   -306    171    320    362 196.7  30.3  34168  289.71 0854.37
2009/04/23 15:53:19.8     -88   -337    212    349    408 194.7  34.3  34168  289.72 0854.37
2009/04/23 15:53:19.9    -180   -442    223    478    527 202.2  26.9  34170  289.74 0854.37
2009/04/23 15:53:20.0    -111   -379    220    396    453 196.4  31.4  34178  289.88 0854.37
2009/04/23 15:53:20.1    -110   -324    264    343    432 198.8  41.6  34184  289.97 0854.37
2009/04/23 15:53:20.2    -163   -369    255    404    477 203.8  35.3  34182  289.94 0854.37
2009/04/23 15:53:20.3    -212   -290    267    360    448 216.1  40.0  34188  290.05 0854.37
2009/04/23 15:53:20.4    -265   -258    213    370    426 225.8  32.4  34184  289.99 0854.37
2009/04/23 15:53:20.5    -427   -393    178    581    608 227.3  17.1  34206  290.36 0854.37
2009/04/23 15:53:20.6    -543   -219    150    586    605 248.0  14.4  34206  290.36 0854.37
2009/04/23 15:53:20.7    -233   -395     93    459    469 210.5  11.6  34164  289.64 0854.37
2009/04/23 15:53:20.8    -320   -295    130    436    456 227.4  16.7  34170  289.75 0854.37
2009/04/23 15:53:20.9    -216   -331    105    396    410 213.1  14.9  34186  290.02 0854.37
2009/04/23 15:53:21.0    -293   -259     48    392    396 228.6   7.1  34196  290.18 0854.37
2009/04/23 15:53:21.1    -129   -348    -33    372    374 200.3  -5.2  34172  289.76 0854.37
2009/04/23 15:53:21.2     -52   -262    -74    268    278 191.3 -20.0  34172  289.78 0854.32
2009/04/23 15:53:21.3    -172   -345      2    386    387 206.6   0.4  34178  289.87 0854.32
2009/04/23 15:53:21.4     -28   -436    -31    437    439 183.8  -4.1  34182  289.95 0854.32
2009/04/23 15:53:21.5      31   -389     29    391    393 175.4   4.2  34158  289.54 0854.32
2009/04/23 15:53:21.6     -87   -427    175    437    470 191.6  23.1  34164  289.63 0854.32
2009/04/23 15:53:21.7      -9   -525    226    526    572 181.0  24.8  34160  289.57 0854.32
2009/04/23 15:53:21.8    -230   -542    236    589    634 203.0  23.0  34170  289.74 0854.32
2009/04/23 15:53:21.9    -327   -625    116    706    716 207.7   9.3  34166  289.69 0854.32
2009/04/23 15:53:22.0    -352   -418   -134    547    564 220.1 -13.8  34168  289.72 0854.32
2009/04/23 15:53:22.1     -26   -394   -119    395    413 183.9 -16.8  34166  289.68 0854.32
2009/04/23 15:53:22.2      58   -572     25    575    576 174.2   2.5  34150  289.39 0854.32
2009/04/23 15:53:22.3      -4   -521    -23    522    523 180.5  -2.6  34160  289.57 0854.32
2009/04/23 15:53:22.4      48   -373    -50    377    381 172.7  -7.7  34142  289.26 0854.32
2009/04/23 15:53:22.5     222   -349     26    414    415 147.5   3.6  34150  289.39 0854.32
2009/04/23 15:53:22.6     226   -258    115    344    363 138.8  18.6  34154  289.48 0854.32
2009/04/23 15:53:22.7     192   -255    200    320    377 143.0  35.1  34152  289.45 0854.32
2009/04/23 15:53:22.8     340   -248    241    421    485 126.1  32.4  34142  289.27 0854.32
2009/04/23 15:53:22.9     266   -386    346    469    582 145.4  40.0  34158  289.55 0854.32
2009/04/23 15:53:23.0     300   -416    114    514    527 144.2  12.6  34148  289.36 0854.32
2009/04/23 15:53:23.1     275   -340    167    438    468 141.0  21.8  34158  289.55 0854.32
2009/04/23 15:53:23.2      17   -338    329    339    472 177.0  49.1  34164  289.63 0854.32
2009/04/23 15:53:23.3      53   -112    212    125    246 154.5  66.8  34160  289.57 0854.32
2009/04/23 15:53:23.4      -1     66    208     67    218 359.1  81.6  34174  289.80 0854.32
2009/04/23 15:53:23.5     -57   -252    311    259    404 192.9  56.2  34148  289.37 0854.32
2009/04/23 15:53:23.6    -167   -381    284    417    504 203.7  37.6  34152  289.44 0854.32
2009/04/23 15:53:23.7     -90   -575    362    583    686 188.9  34.9  34168  289.72 0854.32
2009/04/23 15:53:23.8      44   -431    358    434    562 174.1  43.7  34164  289.63 0854.32
2009/04/23 15:53:23.9     107   -323    365    341    499 161.6  52.2  34166  289.68 0854.32
2009/04/23 15:53:24.0     205   -620    464    653    801 161.7  39.0  34144  289.31 0854.32
2009/04/23 15:53:24.1      -9   -671    480    672    825 180.8  39.1  34116  288.81 0854.32
2009/04/23 15:53:24.2      18   -282    185    283    338 176.2  36.3  34138  289.20 0854.32
2009/04/23 15:53:24.3      87   -412    316    422    527 168.0  40.6  34156  289.52 0854.32
2009/04/23 15:53:24.4      41   -247    305    251    395 170.4  56.4  34162  289.60 0854.32
2009/04/23 15:53:24.5     113   -377    403    394    563 163.3  50.7  34156  289.49 0854.32
2009/04/23 15:53:24.6     165   -612    401    635    751 164.9  35.5  34144  289.30 0854.32
2009/04/23 15:53:24.7     -29   -623    342    624    711 182.7  31.3  34150  289.39 0854.32
2009/04/23 15:53:24.8     -92   -578    125    586    600 189.1  12.1  34144  289.30 0854.32
2009/04/23 15:53:24.9       8   -479    206    480    522 179.0  24.9  34158  289.54 0854.32
2009/04/23 15:53:25.0     180   -103    228    208    308 119.8  52.7  34164  289.64 0854.32
2009/04/23 15:53:25.1     319   -300    387    439    585 133.2  45.9  34156  289.51 0854.32
2009/04/23 15:53:25.2     271   -371    318    460    559 143.9  38.0  34146  289.33 0854.34
2009/04/23 15:53:25.3      75   -388    216    396    451 169.0  31.3  34142  289.26 0854.34
2009/04/23 15:53:25.4       8    -77    214     78    227 173.8  79.2  34136  289.16 0854.34
2009/04/23 15:53:25.5    -100   -177    254    204    325 209.6  57.0  34150  289.41 0854.34
2009/04/23 15:53:25.6      31   -400    332    402    521 175.5  43.7  34142  289.25 0854.34
2009/04/23 15:53:25.7      35   -286    303    289    418 172.9  51.4  34142  289.25 0854.34
2009/04/23 15:53:25.8    -248   -601     13    651    652 202.5   1.2  34126  288.99 0854.34
2009/04/23 15:53:25.9    -258   -478    230    544    590 208.4  24.3  34140  289.24 0854.34
2009/04/23 15:53:26.0    -262   -465    189    535    568 209.4  19.5  34142  289.28 0854.34
2009/04/23 15:53:26.1      80   -214    461    229    514 159.5  71.7  34148  289.38 0854.34
2009/04/23 15:53:26.2    -263   -134    121    296    319 243.0  23.5  34090  288.39 0854.34
2009/04/23 15:53:26.3     209   -156    331    262    422 126.8  57.6  34148  289.37 0854.34
2009/04/23 15:53:26.4    -292   -538    243    613    659 208.5  22.9  34128  289.04 0854.34
2009/04/23 15:53:26.6    -382   -606    238    717    756 212.2  18.4  34108  288.70 0854.34
2009/04/23 15:53:26.7    -102   -596    350    605    698 189.7  32.7  34122  288.94 0854.34
2009/04/23 15:53:26.8      18   -594    171    595    620 178.2  16.0  34118  288.86 0854.34
2009/04/23 15:53:26.9      82   -569    135    575    591 171.8  13.3  34108  288.68 0854.34
2009/04/23 15:53:27.0    -124   -501    513    517    728 193.9  49.9  34126  289.00 0854.34
2009/04/23 15:53:27.1    -154   -314    471    350    586 206.2  59.9  34142  289.28 0854.34
2009/04/23 15:53:27.2     294    -74    295    304    423 104.2  49.1  34176  289.84 0854.34
2009/04/23 15:53:27.3     108    -23    266    111    288 102.4  76.1  34154  289.47 0854.32
2009/04/23 15:53:27.4     104   -259    329    280    432 158.2  55.4  34136  289.16 0854.32
2009/04/23 15:53:27.5     155   -275    290    316    428 150.6  47.5  34138  289.21 0854.32
2009/04/23 15:53:27.6     126   -366    126    388    408 161.0  18.0  34136  289.18 0854.32
2009/04/23 15:53:27.7     153   -445    400    471    617 160.9  44.7  34136  289.17 0854.32
2009/04/23 15:53:27.8     -21   -361    140    362    388 183.4  22.3  34146  289.33 0854.32
2009/04/23 15:53:27.9     -64   -349    255    355    437 190.5  39.3  34146  289.34 0854.32
2009/04/23 15:53:28.0     -48   -346    267    350    440 187.9  41.3  34150  289.39 0854.32
2009/04/23 15:53:28.1     -74   -531    115    537    550 188.0  12.2  34146  289.33 0854.32
2009/04/23 15:53:28.2    -149   -588     14    607    608 194.3   1.4  34142  289.27 0854.32
2009/04/23 15:53:28.3    -220   -634    171    672    694 199.2  14.3  34134  289.14 0854.32
2009/04/23 15:53:28.4     -54   -500    184    504    536 186.3  20.9  34144  289.31 0854.32
2009/04/23 15:53:28.5      65   -410    172    416    450 171.0  23.8  34150  289.41 0854.32
2009/04/23 15:53:28.6     -60   -737    138    740    753 184.7  10.6  34142  289.26 0854.32
2009/04/23 15:53:28.7     168   -383    321    419    527 156.3  41.3  34142  289.25 0854.32
2009/04/23 15:53:28.8    -174   -434    312    468    562 201.9  36.9  34134  289.14 0854.32
2009/04/23 15:53:28.9    -177   -331    198    376    424 208.1  30.2  34126  289.00 0854.32
2009/04/23 15:53:29.0     -58   -157    131    168    213 200.3  41.7  34134  289.14 0854.32
2009/04/23 15:53:29.1     235   -329    302    405    505 144.5  40.4  34152  289.42 0854.32
2009/04/23 15:53:29.2     305   -382    255    490    552 141.4  29.8  34136  289.18 0854.32
2009/04/23 15:53:29.3     282   -402    187    492    526 144.9  21.8  34132  289.10 0854.33
2009/04/23 15:53:29.4     240   -174    105    297    315 125.9  20.3  34134  289.12 0854.33
2009/04/23 15:53:29.5     167   -137    137    217    256 129.3  35.5  34136  289.17 0854.33
2009/04/23 15:53:29.6      -1   -217     12    218    219 180.5   3.3  34132  289.11 0854.33
2009/04/23 15:53:29.7      50   -280     60    285    292 169.8  12.0  34134  289.14 0854.33
2009/04/23 15:53:29.8      26   -274    129    276    304 174.4  27.1  34136  289.17 0854.33
2009/04/23 15:53:29.9      54   -374    103    379    393 171.7  15.3  34140  289.23 0854.33
2009/04/23 15:53:30.0     239   -281    -14    370    371 139.6  -2.2  34132  289.11 0854.33
2009/04/23 15:53:30.1     163   -299     36    341    343 151.4   6.1  34138  289.20 0854.33
2009/04/23 15:53:30.2      73   -639     89    644    651 173.4   7.9  34118  288.86 0854.33
2009/04/23 15:53:30.3     111   -333    188    352    399 161.5  30.5  34136  289.16 0854.33
2009/04/23 15:53:30.4     332   -191    234    384    449 119.9  34.3  34132  289.09 0854.33
2009/04/23 15:53:30.5      24   -234     43    236    240 174.0  10.3  34138  289.19 0854.33
2009/04/23 15:53:30.6      96   -175    102    200    224 151.1  29.2  34132  289.11 0854.33
2009/04/23 15:53:30.7     224   -210    277    308    414 133.2  46.6  34128  289.04 0854.33
2009/04/23 15:53:30.8      43   -455    236    458    515 174.6  29.3  34130  289.06 0854.33
2009/04/23 15:53:30.9     -85   -458     71    466    472 190.6   8.7  34134  289.13 0854.33
2009/04/23 15:53:31.0     166   -316    -45    357    360 152.3  -7.3  34136  289.15 0854.33
2009/04/23 15:53:31.1     225   -239   -110    329    348 136.8 -18.6  34130  289.08 0854.33
2009/04/23 15:53:31.2     311   -243    -21    395    396 128.0  -3.1  34140  289.23 0854.33
2009/04/23 15:53:31.3     231    -77    -22    244    246 108.6  -5.4  34142  289.27 0854.32
2009/04/23 15:53:31.4     182    -82      0    200    201 114.4   0.2  34138  289.19 0854.32
2009/04/23 15:53:31.5      55    -92    131    108    169 148.8  56.4  34140  289.24 0854.32
2009/04/23 15:53:31.6     221    -65    127    231    263 106.4  31.4  34142  289.25 0854.32
2009/04/23 15:53:31.7     143     15    176    144    227  83.8  56.4  34142  289.26 0854.32
2009/04/23 15:53:31.8     171   -316    354    360    504 151.5  49.7  34110  288.73 0854.32
2009/04/23 15:53:31.9       6   -352    330    353    483 178.9  47.9  34110  288.73 0854.32
2009/04/23 15:53:32.0     -33   -430    237    432    492 184.4  31.3  34102  288.59 0854.32
2009/04/23 15:53:32.1     149   -215    207    262    333 145.3  42.3  34106  288.65 0854.32
2009/04/23 15:53:32.2     -77   -254    191    266    327 196.9  39.2  34098  288.51 0854.32
2009/04/23 15:53:32.3     148   -237    112    280    301 148.1  23.0  34114  288.80 0854.32
2009/04/23 15:53:32.4      -9   -149    105    150    183 183.6  38.4  34118  288.87 0854.32
2009/04/23 15:53:32.5    -147    125     81    194    210 310.4  24.1  34124  288.96 0854.32
2009/04/23 15:53:32.6    -258     95    124    276    302 290.2  26.2  34120  288.90 0854.32
2009/04/23 15:53:32.7    -115     -3    132    116    175 268.3  54.3  34120  288.91 0854.32
2009/04/23 15:53:32.8    -169    -90    132    192    232 241.8  37.6  34118  288.86 0854.32
2009/04/23 15:53:32.9    -532   -113    252    544    599 258.0  26.7  34128  289.02 0854.32
2009/04/23 15:53:33.0    -534      0     89    535    543 269.9   9.4  34136  289.18 0854.32
2009/04/23 15:53:33.1    -471   -114    141    485    506 256.3  16.3  34146  289.35 0854.32
2009/04/23 15:53:33.2    -609    -75    -40    614    616 262.9  -3.8  34120  288.91 0854.32
2009/04/23 15:53:33.3    -795    255     -3    835    836 287.8  -0.3  34136  289.18 0854.31
2009/04/23 15:53:33.4    -849    361     27    923    924 293.1   1.7  34112  288.77 0854.31
2009/04/23 15:53:33.5    -377    -66      0    383    384 260.0   0.1  34126  288.98 0854.31
2009/04/23 15:53:33.6    -245   -367   -115    442    457 213.8 -14.6  34144  289.31 0854.31
2009/04/23 15:53:33.7    -335   -187     75    384    392 240.8  11.1  34106  288.67 0854.31
2009/04/23 15:53:33.8    -446    -34   -204    448    492 265.5 -30.6  34122  288.93 0854.31
2009/04/23 15:53:33.9    -817   -103   -280    824    870 262.8 -23.9  34142  289.27 0854.31
2009/04/23 15:53:34.0    -519   -135   -325    537    627 255.4 -38.4  34142  289.25 0854.31
2009/04/23 15:53:34.1    -584   -162   -212    607    644 254.5 -19.3  34124  288.96 0854.31
2009/04/23 15:53:34.2    -432    -63   -189    437    476 261.6 -29.3  34136  289.17 0854.31
2009/04/23 15:53:34.3    -510    -63   -177    514    544 262.9 -19.1  34124  288.97 0854.31
2009/04/23 15:53:34.4    -382     -5    -68    383    390 269.1 -10.1  34138  289.20 0854.31
2009/04/23 15:53:34.5    -434   -197    -60    477    481 245.6  -7.2  34144  289.30 0854.31
2009/04/23 15:53:34.6    -357   -101      6    372    373 254.2   1.0  34146  289.33 0854.31
2009/04/23 15:53:34.7    -319     49    112    323    343 278.8  19.2  34138  289.21 0854.31
2009/04/23 15:53:34.8    -259    -97    -12    277    278 249.4  -2.6  34140  289.22 0854.31
2009/04/23 15:53:34.9    -158     41    140    164    215 284.8  44.8  34142  289.26 0854.31
2009/04/23 15:53:35.0    -197    105    173    224    283 298.0  41.6  34156  289.49 0854.31
2009/04/23 15:53:35.1    -250   -159    276    297    405 237.5  47.8  34146  289.35 0854.31
2009/04/23 15:53:35.2    -143   -121    204    188    277 229.6  52.5  34144  289.29 0854.31
2009/04/23 15:53:35.3    -266    -71    237    276    363 255.0  45.0  34152  289.45 0854.31
2009/04/23 15:53:35.4    -383    -22    173    384    421 266.6  26.0  34138  289.19 0854.31
2009/04/23 15:53:35.5    -514    -70    -88    519    527 262.2  -9.7  34156  289.51 0854.31
2009/04/23 15:53:35.6    -386    -22    240    387    455 266.7  34.8  34146  289.33 0854.31
2009/04/23 15:53:35.7    -366   -101    178    380    419 254.5  27.1  34148  289.36 0854.31
2009/04/23 15:53:35.8    -536     11    178    537    566 271.3  18.4  34152  289.43 0854.31
2009/04/23 15:53:35.9    -422    135    171    444    475 287.8  22.1  34150  289.40 0854.31
2009/04/23 15:53:36.0    -152   -141    405    208    455 227.3  70.8  34164  289.65 0854.31
2009/04/23 15:53:36.1    -119    261    308    287    420 335.5  52.2  34116  288.84 0854.31
2009/04/23 15:53:36.2     257    163    296    305    425  57.5  49.1  34146  289.32 0854.31
2009/04/23 15:53:36.3     207     38    380    211    434  79.6  68.8  34188  290.06 0854.32
2009/04/23 15:53:36.4     109    272    235    294    376  21.9  42.7  34250  291.10 0854.32
2009/04/23 15:53:36.5     170    193    261    258    366  41.4  50.2  34250  291.10 0854.32
2009/04/23 15:53:36.6      35     49    138     61    150  36.1  74.9  34228  290.74 0854.32
2009/04/23 15:53:36.7     -11     56    202     58    210 348.4  83.3  34254  291.16 0854.32
2009/04/23 15:53:36.8     -11    226    135    227    264 357.1  33.5  34254  291.16 0854.32
2009/04/23 15:53:36.9     138    272    131    306    332  27.0  24.5  34254  291.17 0854.32
2009/04/23 15:53:37.0     181    194    147    266    303  43.0  31.3  34250  291.10 0854.32
2009/04/23 15:53:37.1     189    156    206    246    320  50.4  44.3  34262  291.31 0854.32
2009/04/23 15:53:37.2     335    260    281    425    509  52.2  36.6  34268  291.39 0854.32
2009/04/23 15:53:37.3     435    198    191    478    514  65.5  23.0  34248  291.07 0854.32
2009/04/23 15:53:37.4     198    138    247    242    345  55.1  50.6  34264  291.33 0854.32
2009/04/23 15:53:37.5     504    288    148    581    600  60.3  14.3  34228  290.71 0854.32
2009/04/23 15:53:37.6     488    230    331    540    633  64.8  34.4  34242  290.97 0854.32
2009/04/23 15:53:37.7     465     78    472    472    667  80.4  50.1  34242  290.98 0854.32
2009/04/23 15:53:37.8     488    269    238    558    606  61.1  24.5  34236  290.87 0854.32
2009/04/23 15:53:37.9     600    294    198    669    698  63.9  16.5  34254  291.17 0854.32
2009/04/23 15:53:38.0     765    383    314    856    911  63.4  21.0  34216  290.52 0854.32
2009/04/23 15:53:38.1     710    275    276    762    810  68.8  20.8  34222  290.61 0854.32
2009/04/23 15:53:38.2     822    218     -7    851    852  75.1  -0.5  34218  290.56 0854.32
2009/04/23 15:53:38.3     557    -21     73    558    563  92.2   7.5  34244  290.99 0854.33
2009/04/23 15:53:38.4     514     49    208    517    557  84.5  23.1  34244  290.99 0854.33
2009/04/23 15:53:38.5     475     14    171    476    505  88.3  20.4  34240  290.93 0854.33
2009/04/23 15:53:38.6     361    184    111    406    421  62.9  15.3  34182  289.94 0854.33
2009/04/23 15:53:38.7     163    -53     -4    172    173 108.2  -1.6  34212  290.45 0854.33
2009/04/23 15:53:38.8    -172    -50    124    180    218 253.6  37.8  34230  290.77 0854.33
2009/04/23 15:53:38.9      31    -41     81     52     96 142.2  64.6  34236  290.87 0854.33
2009/04/23 15:53:39.0     -19    -56    -64     60     87 198.7 -55.6  34226  290.70 0854.33
2009/04/23 15:53:39.1    -329     -9     49    330    334 268.3   8.5  34222  290.62 0854.33
2009/04/23 15:53:39.2    -281   -232    165    365    400 230.4  26.2  34228  290.72 0854.33
2009/04/23 15:53:39.3    -392   -207     38    444    446 242.1   5.0  34162  289.60 0854.33
2009/04/23 15:53:39.4    -186   -290    239    345    419 212.8  38.0  34172  289.77 0854.33
2009/04/23 15:53:39.5      51   -218    389    224    448 166.7  67.6  34178  289.87 0854.33
2009/04/23 15:53:39.6    -161   -413    381    444    585 201.3  45.1  34168  289.70 0854.33
2009/04/23 15:53:39.7    -151   -563    181    583    611 195.1  17.3  34164  289.63 0854.33
2009/04/23 15:53:39.8     -54   -580     33    583    584 185.4   3.3  34142  289.27 0854.33
2009/04/23 15:53:39.9     -10   -622    124    623    636 181.0  11.3  34132  289.11 0854.33
2009/04/23 15:53:40.0     -32   -427    254    429    498 184.4  33.5  34150  289.40 0854.33
2009/04/23 15:53:40.1       6   -412    -81    413    421 179.1 -11.1  34144  289.29 0854.33
2009/04/23 15:53:40.2     139   -252    -77    288    299 151.1 -15.0  34140  289.22 0854.37
2009/04/23 15:53:40.3     438   -145    -36    462    464 108.4  -4.5  34148  289.38 0854.37
2009/04/23 15:53:40.4     439    -55    -57    443    447  97.2  -7.4  34142  289.27 0854.37
2009/04/23 15:53:40.5     324   -162     66    363    369 116.6  10.3  34128  289.04 0854.37
2009/04/23 15:53:40.6     137   -189    175    234    292 144.0  40.6  34120  288.90 0854.37
2009/04/23 15:53:40.7     -10   -222    159    223    273 182.7  39.3  34128  289.02 0854.37
2009/04/23 15:53:40.8      19   -174    180    176    251 173.5  50.4  34126  288.99 0854.37
2009/04/23 15:53:40.9     -20   -336      2    337    338 183.5   0.4  34110  288.71 0854.37
2009/04/23 15:53:41.0    -291   -185     -9    346    347 237.5  -1.6  34116  288.82 0854.37
2009/04/23 15:53:41.1    -312   -613     58    688    691 207.0   4.9  34116  288.82 0854.37
2009/04/23 15:53:41.2     -70   -567     43    572    574 187.1   4.3  34124  288.97 0854.37
2009/04/23 15:53:41.3    -120   -638    -83    650    656 190.7  -7.3  34116  288.84 0854.37
2009/04/23 15:53:41.4    -243   -581     57    631    634 202.7   5.2  34118  288.87 0854.37
2009/04/23 15:53:41.5    -281   -561     31    628    629 206.6   2.9  34120  288.91 0854.37
2009/04/23 15:53:41.6    -377   -541     -5    660    661 214.9  -0.5  34126  288.99 0854.37
2009/04/23 15:53:41.7    -358   -623    114    719    729 209.9   9.0  34104  288.61 0854.37
2009/04/23 15:53:41.8    -468   -447     85    648    654 226.3   7.5  34102  288.60 0854.37
2009/04/23 15:53:41.9    -255   -659    279    707    760 201.2  22.9  34106  288.67 0854.37
2009/04/23 15:53:42.0    -225   -809    294    840    889 195.6  20.0  34110  288.74 0854.37
2009/04/23 15:53:42.1    -230   -546    213    593    630 202.8  20.7  34112  288.77 0854.37
2009/04/23 15:53:42.2    -122   -559    295    573    644 192.4  29.4  34118  288.87 0854.38
2009/04/23 15:53:42.3    -174   -459    230    492    543 200.8  27.1  34108  288.70 0854.38
2009/04/23 15:53:42.4    -127   -524    244    540    592 193.7  26.0  34110  288.73 0854.38
2009/04/23 15:53:42.5    -176   -546    288    574    642 197.9  28.7  34112  288.76 0854.38
2009/04/23 15:53:42.6    -162   -482    282    509    581 198.6  31.4  34116  288.82 0854.38
2009/04/23 15:53:42.7    -184   -544    245    575    625 198.7  24.5  34112  288.76 0854.38
2009/04/23 15:53:42.8    -204   -575    280    611    672 199.6  26.3  34112  288.77 0854.38
2009/04/23 15:53:42.9     -13   -378    291    379    477 182.0  41.4  34118  288.85 0854.38
2009/04/23 15:53:43.0     123   -536    294    551    624 167.0  30.3  34116  288.83 0854.38
2009/04/23 15:53:43.1     110   -582    229    593    635 169.3  22.2  34114  288.79 0854.38
2009/04/23 15:53:43.2      48   -555    243    558    608 175.0  25.1  34114  288.78 0854.38
2009/04/23 15:53:43.3      22   -491    158    492    517 177.4  17.8  34100  288.56 0854.38
2009/04/23 15:53:43.4    -137   -451    101    472    483 196.9  12.2  34104  288.61 0854.38
2009/04/23 15:53:43.5      99   -508    331    518    614 168.9  35.6  34108  288.70 0854.38
2009/04/23 15:53:43.6     -56   -603    353    606    701 185.4  32.8  34108  288.68 0854.38
2009/04/23 15:53:43.7     -64   -428    151    433    459 188.6  19.3  34104  288.61 0854.38
2009/04/23 15:53:43.8     -75   -405   -121    412    429 190.6 -21.2  34110  288.73 0854.38
2009/04/23 15:53:43.9      98   -490   -174    500    529 168.7 -24.3  34122  288.94 0854.38
2009/04/23 15:53:44.0      -2   -630   -395    631    744 180.3 -39.4  34120  288.89 0854.38
2009/04/23 15:53:44.1     375   -357   -263    518    580 133.6 -33.3  34102  288.58 0854.38
2009/04/23 15:53:44.2     427   -285   -114    514    527 123.7 -12.5  34106  288.67 0854.38
2009/04/23 15:53:44.3     250   -667   -390    713    812 159.4 -35.4  34104  288.64 0854.38
2009/04/23 15:53:44.4      26   -648   -282    649    707 177.6 -29.4  34094  288.44 0854.38
2009/04/23 15:53:44.5    -315   -767   -297    830    881 202.3 -25.0  34104  288.61 0854.38
2009/04/23 15:53:44.6    -483   -485   -232    685    723 224.9 -23.8  34106  288.66 0854.38
2009/04/23 15:53:44.7    -903   -314   -320    957   1009 250.8 -23.5  34096  288.48 0854.38
2009/04/23 15:53:44.8    -449    -83   -312    457    553 259.5 -42.0  34100  288.55 0854.38
2009/04/23 15:53:44.9    -379    177   -182    419    456 295.1 -29.5  34118  288.85 0854.38
2009/04/23 15:53:45.0     -28    197   -140    200    244 351.9 -42.9  34124  288.97 0854.38
2009/04/23 15:53:45.1       7     77    -32     78     84   5.3 -27.4  34124  288.96 0854.38
2009/04/23 15:53:45.2      71   -346     20    354    355 168.3   3.2  34112  288.77 0854.38
2009/04/23 15:53:45.3    -389   -824   -150    912    925 205.3  -9.3  34108  288.70 0854.38
2009/04/23 15:53:45.4    -436   -585    146    730    745 216.7  11.3  34102  288.60 0854.38
2009/04/23 15:53:45.5    -234   -710    220    748    780 198.3  16.4  34110  288.73 0854.38
2009/04/23 15:53:45.6     -14   -500    151    501    524 181.6  16.8  34108  288.68 0854.38
2009/04/23 15:53:45.7     357   -526    287    636    697 145.8  25.9  34102  288.58 0854.38
2009/04/23 15:53:45.8     196   -612    420    643    768 162.2  36.3  34098  288.51 0854.38
2009/04/23 15:53:45.9     539   -346    371    641    740 122.8  32.7  34104  288.61 0854.38
2009/04/23 15:53:46.0     411   -671    506    788    936 148.5  35.8  34098  288.52 0854.38
2009/04/23 15:53:46.1     417   -668    264    788    832 148.0  18.6  34102  288.59 0854.38
2009/04/23 15:53:46.2     466   -466     10    660    661 135.0   0.9  34108  288.68 0854.38
2009/04/23 15:53:46.3     338   -472    114    581    593 144.4  11.1  34108  288.70 0854.38
2009/04/23 15:53:46.4     261   -547    218    607    644 154.5  20.7  34102  288.60 0854.38
2009/04/23 15:53:46.5     485   -485    182    687    711 135.0  14.9  34106  288.66 0854.38
2009/04/23 15:53:46.6     288   -676    199    735    762 156.9  15.2  34108  288.68 0854.38
2009/04/23 15:53:46.7     297   -624    144    692    708 154.5  11.8  34102  288.59 0854.38
2009/04/23 15:53:46.8     166   -750    -45    769    771 167.5  -3.4  34108  288.68 0854.38
2009/04/23 15:53:46.9     -69   -630     60    634    637 186.3   5.4  34126  289.01 0854.38
2009/04/23 15:53:47.0    -464   -484    -27    671    672 223.8  -2.4  34122  288.92 0854.38
2009/04/23 15:53:47.1    -539   -438    -92    695    702 230.9  -7.6  34116  288.81 0854.38
2009/04/23 15:53:47.2    -126   -546    -41    561    563 193.0  -4.2  34106  288.65 0854.38
2009/04/23 15:53:47.3    -130   -609   -235    623    665 192.1 -26.1  34128  289.04 0854.38
2009/04/23 15:53:47.4    -209   -511   -196    553    588 202.3 -19.6  34130  289.07 0854.38
2009/04/23 15:53:47.5    -138   -191   -132    236    270 216.0 -36.0  34122  288.92 0854.38
2009/04/23 15:53:47.6      86   -101     74    133    152 139.5  31.4  34128  289.02 0854.38
2009/04/23 15:53:47.7     204   -326    224    385    445 147.9  32.9  34126  289.00 0854.38
2009/04/23 15:53:47.8      60   -308     13    314    315 168.9   2.5  34102  288.59 0854.38
2009/04/23 15:53:47.9    -206   -247     69    322    330 219.8  12.1  34122  288.92 0854.38
2009/04/23 15:53:48.0    -213     43    150    218    264 281.4  38.0  34136  289.17 0854.38
2009/04/23 15:53:48.1     -73    -53     91     91    128 234.0  50.1  34142  289.28 0854.38
2009/04/23 15:53:48.2     -32   -100     87    106    137 197.8  43.7  34146  289.33 0854.38
2009/04/23 15:53:48.3     114   -137    143    179    229 140.4  43.0  34132  289.11 0854.38
2009/04/23 15:53:48.4    -135   -388    -83    411    420 199.2 -11.5  34112  288.75 0854.38
2009/04/23 15:53:48.5    -137   -575    245    592    640 193.4  23.8  34110  288.74 0854.38
2009/04/23 15:53:48.6    -199   -939    246    961    993 192.0  14.4  34104  288.64 0854.38
2009/04/23 15:53:48.7      82  -1025    241   1029   1057 175.4  13.2  34104  288.63 0854.38
2009/04/23 15:53:48.8     151   -861    283    875    920 170.0  17.9  34108  288.70 0854.38
2009/04/23 15:53:48.9     200   -912    166    934    949 167.6  10.1  34110  288.73 0854.38
2009/04/23 15:53:49.0     209   -549    383    588    701 159.1  36.3  34128  289.02 0854.38
2009/04/23 15:53:49.1     411   -729    403    838    929 150.6  27.4  34112  288.75 0854.38
2009/04/23 15:53:49.2     401   -532    477    667    820 143.0  39.2  34102  288.58 0854.38
2009/04/23 15:53:49.3     649   -533    161    840    856 129.4  10.9  34118  288.87 0854.38
2009/04/23 15:53:49.4     316   -357    -60    477    481 138.5  -7.2  34110  288.71 0854.38
2009/04/23 15:53:49.5     113   -219   -141    247    284 152.6 -36.7  34122  288.93 0854.38
2009/04/23 15:53:49.6     237     29   -139    239    276  83.0 -37.3  34120  288.88 0854.38
2009/04/23 15:53:49.7     218     74     27    231    233  71.2   6.9  34116  288.82 0854.38
2009/04/23 15:53:49.8      54    194    -41    202    207  15.6 -11.6  34120  288.89 0854.38
2009/04/23 15:53:49.9       0    173      9    174    175   0.0   3.1  34124  288.97 0854.38
2009/04/23 15:53:50.0     242    173     39    298    301  54.3   7.5  34124  288.95 0854.38
2009/04/23 15:53:50.1     211   -252    424    329    536 140.1  58.4  34118  288.86 0854.38
2009/04/23 15:53:50.2      97   -623    -61    631    635 171.1  -5.6  34122  288.93 0854.39
2009/04/23 15:53:50.3     369   -499   -149    621    639 143.5 -13.6  34122  288.94 0854.39
2009/04/23 15:53:50.4     353   -483     -2    599    600 143.9  -0.3  34122  288.92 0854.39
2009/04/23 15:53:50.5     291   -515   -154    592    612 150.5 -14.6  34132  289.10 0854.39
2009/04/23 15:53:50.6     604   -694      5    921    922 139.0   0.3  34124  288.95 0854.39
2009/04/23 15:53:50.7     556   -567    -45    795    797 135.6  -3.3  34118  288.86 0854.39
2009/04/23 15:53:50.8     389   -794     91    885    890 153.9   5.9  34122  288.93 0854.39
2009/04/23 15:53:50.9     444   -713    -39    840    842 148.1  -2.7  34122  288.92 0854.39
2009/04/23 15:53:51.0     424   -675   -116    798    807 147.9  -8.3  34112  288.75 0854.39
2009/04/23 15:53:51.1     424   -684   -319    805    865 148.2 -27.3  34138  289.21 0854.39
2009/04/23 15:53:51.2     346   -432   -352    554    656 141.3 -39.9  34120  288.91 0854.39
2009/04/23 15:53:51.3     191   -329   -275    381    469 149.8 -43.9  34128  289.02 0854.39
2009/04/23 15:53:51.4     105   -236   -258    259    365 155.9 -54.4  34142  289.25 0854.39
2009/04/23 15:53:51.5      -4   -346   -126    347    369 180.8 -25.2  34130  289.06 0854.39
2009/04/23 15:53:51.6    -162   -302    -16    343    344 208.2  -2.7  34134  289.13 0854.39
2009/04/23 15:53:51.7    -210    -49      7    216    217 256.7   2.1  34138  289.19 0854.39
2009/04/23 15:53:51.8    -177   -105     56    206    214 239.3  15.3  34140  289.23 0854.39
2009/04/23 15:53:51.9    -204   -192    -35    281    284 226.8  -7.2  34130  289.05 0854.39
2009/04/23 15:53:52.0    -139    -88     56    165    175 237.5  18.9  34140  289.23 0854.39
2009/04/23 15:53:52.1    -178     -9    -76    179    194 267.0 -28.7  34136  289.18 0854.39
2009/04/23 15:53:52.2     -31    -59    -49     67     83 208.1 -44.5  34132  289.09 0854.40
2009/04/23 15:53:52.3      43   -193    -25    198    200 167.3  -7.2  34144  289.30 0854.40
2009/04/23 15:53:52.4      66    -64    143     93    170 134.0  64.1  34138  289.21 0854.40
2009/04/23 15:53:52.5      50      0     76     51     91  89.2  63.2  34144  289.31 0854.40
2009/04/23 15:53:52.6     -15    -32    117     36    122 205.5  82.7  34148  289.38 0854.40
2009/04/23 15:53:52.7     -29   -176    170    179    246 189.6  48.5  34144  289.31 0854.40
2009/04/23 15:53:52.8      81    -68    186    106    214 130.0  67.7  34146  289.33 0854.40
2009/04/23 15:53:52.9     354   -332    188    486    521 133.1  22.4  34128  289.03 0854.40
2009/04/23 15:53:53.0     222   -589     41    630    632 159.3   3.7  34124  288.96 0854.40
2009/04/23 15:53:53.1     184   -587    125    616    629 162.6  11.5  34120  288.89 0854.40
2009/04/23 15:53:53.2     225   -541    164    586    609 157.4  15.7  34104  288.63 0854.40
2009/04/23 15:53:53.3     316   -456    288    555    625 145.3  29.5  34108  288.68 0854.40
2009/04/23 15:53:53.4     258   -455    231    524    572 150.5  25.2  34110  288.74 0854.40
2009/04/23 15:53:53.5     312   -388    176    499    530 141.2  19.4  34116  288.83 0854.40
2009/04/23 15:53:53.6     320   -381    111    498    511 140.0  12.6  34114  288.79 0854.40
2009/04/23 15:53:53.8     436   -443     49    622    625 135.5   4.6  34116  288.84 0854.40
2009/04/23 15:53:53.9     412   -595    211    724    755 145.3  16.3  34124  288.97 0854.40
2009/04/23 15:53:54.0     363   -719    233    806    840 153.2  16.1  34128  289.04 0854.40
2009/04/23 15:53:54.1     304   -611    276    683    736 153.5  23.2  34120  288.91 0854.40
2009/04/23 15:53:54.2     112   -536     21    548    549 168.1   2.2  34132  289.09 0854.40
2009/04/23 15:53:54.3     212   -413     67    465    470 152.8   8.2  34130  289.08 0854.38
2009/04/23 15:53:54.4     282   -394    156    485    510 144.4  17.8  34128  289.03 0854.38
2009/04/23 15:53:54.5     300   -487    249    573    624 148.4  25.0  34136  289.17 0854.38
2009/04/23 15:53:54.6     155   -675    397    693    798 167.0  32.4  34132  289.09 0854.38
2009/04/23 15:53:54.7     129   -635    295    648    711 168.5  26.2  34128  289.04 0854.38
2009/04/23 15:53:54.8     397   -511    193    648    677 142.2  16.6  34126  288.99 0854.38
2009/04/23 15:53:54.9     225   -249   -108    336    352 137.9 -23.0  34128  289.04 0854.38
2009/04/23 15:53:55.0     294   -366   -223    470    520 141.3 -31.6  34126  288.98 0854.38
2009/04/23 15:53:55.1     389   -477    -95    616    624 140.8  -8.8  34126  288.98 0854.38
2009/04/23 15:53:55.2     224   -471    -96    522    531 154.5 -10.5  34112  288.75 0854.38
2009/04/23 15:53:55.3     205   -468    -98    512    522 156.3 -10.9  34114  288.78 0854.37
2009/04/23 15:53:55.4     246   -498    -78    556    562 153.7  -8.0  34098  288.52 0854.37
2009/04/23 15:53:55.5     215   -362     -8    422    423 149.3  -1.2  34092  288.41 0854.37
2009/04/23 15:53:55.6     197   -181     26    268    270 132.7   5.7  34100  288.54 0854.37
2009/04/23 15:53:55.7     226   -104     90    250    265 114.8  20.4  34112  288.76 0854.37
2009/04/23 15:53:55.8     311    -73    127    320    344 103.3  22.9  34116  288.82 0854.37
2009/04/23 15:53:55.9     219   -233    197    320    375 136.8  34.6  34116  288.84 0854.37
2009/04/23 15:53:56.0     248   -252    -31    354    356 135.5  -5.1  34112  288.76 0854.37
2009/04/23 15:53:56.1     188   -232   -144    299    331 141.0 -31.8  34110  288.73 0854.37
2009/04/23 15:53:56.2     169   -373     64    410    416 155.6   8.9  34114  288.80 0854.37
2009/04/23 15:53:56.3     247   -293    122    384    404 139.9  17.7  34116  288.81 0854.37
2009/04/23 15:53:56.4     456   -441    170    635    658 134.0  15.0  34110  288.72 0854.37
2009/04/23 15:53:56.5     368   -550    150    663    680 146.2  12.8  34116  288.83 0854.37
2009/04/23 15:53:56.6     481   -513    171    704    725 136.8  13.7  34114  288.78 0854.37
2009/04/23 15:53:56.7     454   -485    236    665    707 136.9  19.6  34114  288.80 0854.37
2009/04/23 15:53:56.8     462   -563    317    729    794 140.6  25.0  34118  288.85 0854.37
2009/04/23 15:53:56.9     620   -525    412    813    911 130.3  28.9  34110  288.71 0854.37
2009/04/23 15:53:57.0     492   -513    280    711    764 136.2  22.8  34106  288.65 0854.37
2009/04/23 15:53:57.1     347   -512    267    619    674 145.8  24.9  34118  288.87 0854.37
2009/04/23 15:53:57.2     318   -512    439    603    745 148.1  39.7  34112  288.76 0854.37
2009/04/23 15:53:57.3     313   -444    265    544    605 144.8  27.8  34122  288.93 0854.35
2009/04/23 15:53:57.4     293   -529    219    605    644 151.0  19.9  34118  288.86 0854.35
2009/04/23 15:53:57.5     363   -525    257    639    688 145.3  23.1  34124  288.97 0854.35
2009/04/23 15:53:57.6     315   -547    336    632    715 150.1  30.2  34116  288.83 0854.35
2009/04/23 15:53:57.7      69   -496    394    502    638 172.0  42.1  34136  289.15 0854.35
2009/04/23 15:53:57.8     143   -585    374    603    709 166.2  34.8  34108  288.68 0854.35
2009/04/23 15:53:57.9      84   -496    284    504    578 170.3  31.9  34126  288.99 0854.35
2009/04/23 15:53:58.0     -19   -742    520    743    906 181.5  38.5  34128  289.04 0854.35
2009/04/23 15:53:58.1     110   -738    492    747    894 171.5  36.5  34152  289.43 0854.35
2009/04/23 15:53:58.2      53   -419    281    423    507 172.8  36.9  34132  289.10 0854.35
2009/04/23 15:53:58.3      -3   -218    125    219    252 181.0  32.4  34134  289.14 0854.35
2009/04/23 15:53:58.4      22   -133    -49    135    143 170.2 -25.3  34128  289.04 0854.35
2009/04/23 15:53:58.5       9    -65    -50     66     82 172.0 -45.6  34128  289.02 0854.35
2009/04/23 15:53:58.6     115     56     33    129    134  63.8  14.3  34138  289.19 0854.35
2009/04/23 15:53:58.7     170     17    126    171    212  84.1  39.9  34142  289.26 0854.35
2009/04/23 15:53:58.8     125    -34    178    130    220 105.5  60.5  34162  289.62 0854.35
2009/04/23 15:53:58.9     -48   -236     -9    241    242 191.6  -2.2  34144  289.31 0854.35
2009/04/23 15:53:59.0      78   -215   -223    229    319 159.9 -53.8  34152  289.42 0854.35
2009/04/23 15:53:59.1     253    -80   -223    266    347 107.7 -48.5  34168  289.71 0854.35
2009/04/23 15:53:59.2     281    -57   -159    287    328 101.5 -35.9  34156  289.51 0854.35
2009/04/23 15:53:59.3     185     47    -76    192    206  75.6 -27.4  34150  289.40 0854.36
2009/04/23 15:53:59.4      43   -173    -60    179    190 166.0 -18.7  34162  289.60 0854.36
2009/04/23 15:53:59.5    -156   -179    -34    238    241 221.0  -8.3  34132  289.10 0854.36
2009/04/23 15:53:59.6      -4    -28    -96     29    100 188.0 -87.2  34160  289.57 0854.36
2009/04/23 15:53:59.7      -5   -205     61    206    216 181.6  16.6  34152  289.45 0854.36
2009/04/23 15:53:59.8     -85   -174    108    194    222 206.1  31.4  34150  289.40 0854.36
2009/04/23 15:53:59.9    -125   -196    131    233    267 212.5  31.9  34148  289.36 0854.36
2009/04/23 15:54:00.0    -157   -167     80    230    244 223.2  19.2  34144  289.31 0854.36
2009/04/23 15:54:00.1    -101   -157    116    187    220 212.7  35.0  34146  289.33 0854.36
2009/04/23 15:54:00.2    -256   -102     59    276    283 248.2  12.2  34146  289.32 0854.36
2009/04/23 15:54:00.3    -449   -183   -150    485    508 247.8 -17.2  34146  289.35 0854.36
2009/04/23 15:54:00.4    -504   -134     16    522    523 255.1   1.8  34146  289.35 0854.36
2009/04/23 15:54:00.5    -486   -330    -32    588    589 235.8  -3.1  34142  289.25 0854.36
2009/04/23 15:54:00.6    -340   -482     43    591    593 215.2   4.2  34134  289.12 0854.36
2009/04/23 15:54:00.7    -430   -430    -50    609    612 225.0  -4.7  34128  289.02 0854.36
2009/04/23 15:54:00.8    -758   -166    -78    777    782 257.6  -5.8  34112  288.75 0854.36
2009/04/23 15:54:00.9    -814   -301    -37    868    869 249.7  -2.5  34122  288.93 0854.36
2009/04/23 15:54:01.0    -676    -74   -123    681    693 263.7 -10.2  34108  288.68 0854.36
2009/04/23 15:54:01.1    -893    -98   -229    899    928 263.7 -14.3  34112  288.75 0854.36
2009/04/23 15:54:01.2   -1016   -126   -357   1024   1084 262.9 -24.4  34116  288.83 0854.36
2009/04/23 15:54:01.3    -941    -16   -263    942    978 269.0 -20.2  34128  289.04 0854.37
2009/04/23 15:54:01.4    -869     36   -369    870    945 272.4 -28.8  34114  288.80 0854.37
2009/04/23 15:54:01.5    -812   -185   -383    833    916 257.1 -30.9  34130  289.08 0854.37
2009/04/23 15:54:01.6    -605   -203   -147    639    656 251.4 -13.0  34148  289.38 0854.37
2009/04/23 15:54:01.7    -596    -42   -153    598    618 265.9 -14.4  34150  289.39 0854.37
2009/04/23 15:54:01.8    -856   -163   -309    872    926 259.2 -19.5  34126  289.01 0854.37
2009/04/23 15:54:01.9    -719   -268   -246    768    806 249.5 -22.9  34120  288.88 0854.37
2009/04/23 15:54:02.0    -672   -326    125    748    759 244.1   9.5  34148  289.36 0854.37
2009/04/23 15:54:02.1    -867   -170   -301    884    935 258.9 -18.8  34124  288.97 0854.37
2009/04/23 15:54:02.2    -901   -274   -121    942    950 253.1  -7.4  34120  288.90 0854.37
2009/04/23 15:54:02.3    -872   -341   -228    937    965 248.6 -13.7  34094  288.47 0854.37
2009/04/23 15:54:02.4    -862   -252   -326    899    956 253.7 -25.3  34106  288.66 0854.37
2009/04/23 15:54:02.5    -862   -247   -366    897    968 254.0 -27.9  34116  288.83 0854.37
2009/04/23 15:54:02.6    -964   -283   -433   1005   1094 253.6 -29.2  34118  288.85 0854.37
2009/04/23 15:54:02.7    -926   -329   -423    984   1071 250.4 -29.2  34120  288.89 0854.37
2009/04/23 15:54:02.8    -987   -309   -379   1035   1102 252.6 -25.4  34124  288.95 0854.37
2009/04/23 15:54:02.9   -1077   -330   -417   1127   1201 253.0 -25.7  34114  288.78 0854.37
2009/04/23 15:54:03.0    -847   -235   -337    880    942 254.5 -26.5  34106  288.65 0854.37
2009/04/23 15:54:03.1    -816   -224   -161    847    863 254.6 -10.8  34126  288.99 0854.37
2009/04/23 15:54:03.2    -806     91   -321    812    873 276.5 -27.2  34094  288.46 0854.37
2009/04/23 15:54:03.3    -411     26   -130    412    433 273.6 -17.5  34130  289.05 0854.38
2009/04/23 15:54:03.4    -542   -227   -182    588    616 247.3 -17.2  34130  289.05 0854.38
2009/04/23 15:54:03.5    -713     40   -346    715    794 273.3 -32.1  34120  288.90 0854.38
2009/04/23 15:54:03.6    -573   -104   -209    583    620 259.6 -19.8  34110  288.73 0854.38
2009/04/23 15:54:03.7    -481    109   -137    494    513 282.8 -15.5  34126  289.01 0854.38
2009/04/23 15:54:03.8    -756      7   -341    757    830 270.6 -30.3  34116  288.81 0854.38
2009/04/23 15:54:03.9    -611   -146   -300    629    696 256.5 -31.7  34128  289.04 0854.38
2009/04/23 15:54:04.0    -735     68   -381    739    831 275.3 -33.8  34146  289.34 0854.38
2009/04/23 15:54:04.1    -531   -222   -279    576    640 247.3 -32.2  34132  289.11 0854.38
2009/04/23 15:54:04.2    -748   -200   -409    775    876 255.0 -34.6  34138  289.21 0854.38
2009/04/23 15:54:04.3    -578   -108   -317    588    668 259.4 -35.1  34144  289.30 0854.38
2009/04/23 15:54:04.4    -621   -273   -305    679    744 246.3 -30.3  34146  289.35 0854.38
2009/04/23 15:54:04.5    -522   -252   -202    580    614 244.2 -24.4  34154  289.47 0854.38
2009/04/23 15:54:04.6    -486   -200   -200    526    562 247.6 -26.4  34138  289.19 0854.38
2009/04/23 15:54:04.7    -515   -294   -185    594    623 240.3 -17.3  34160  289.58 0854.38
2009/04/23 15:54:04.8    -402   -298   -179    501    533 233.4 -19.7  34154  289.46 0854.38
2009/04/23 15:54:04.9    -354   -354   -139    502    521 225.0 -15.5  34156  289.52 0854.38
2009/04/23 15:54:05.0    -371   -353   -177    513    543 226.5 -19.1  34142  289.28 0854.38
2009/04/23 15:54:05.1    -528   -164   -189    553    584 252.7 -23.9  34136  289.17 0854.38
2009/04/23 15:54:05.2    -516   -192   -414    551    689 249.6 -45.1  34120  288.89 0854.38
2009/04/23 15:54:05.3    -546   -279   -552    614    825 242.9 -50.9  34132  289.11 0854.37
2009/04/23 15:54:05.4    -386   -300   -554    489    738 232.2 -58.6  34124  288.95 0854.37
2009/04/23 15:54:05.5     -76   -428   -438    435    617 190.1 -54.6  34150  289.40 0854.37
2009/04/23 15:54:05.6    -159   -367   -399    401    565 203.4 -54.4  34140  289.23 0854.37
2009/04/23 15:54:05.7    -507   -486   -230    703    739 226.2 -23.3  34142  289.28 0854.37
2009/04/23 15:54:05.8    -340   -381   -387    511    641 221.8 -45.3  34152  289.44 0854.37
2009/04/23 15:54:05.9    -532   -491    121    725    736 227.3   9.5  34136  289.18 0854.37
2009/04/23 15:54:06.0    -636   -469   -500    791    935 233.6 -39.6  34142  289.25 0854.37
2009/04/23 15:54:06.1    -721   -665    -92    982    987 227.3  -5.4  34126  289.00 0854.37
2009/04/23 15:54:06.2    -791   -544   -288    961   1004 235.5 -16.7  34122  288.92 0854.37
2009/04/23 15:54:06.3    -469   -699   -112    842    850 213.9  -7.6  34130  289.05 0854.37
2009/04/23 15:54:06.4    -378   -597    -67    707    711 212.4  -5.5  34130  289.08 0854.37
2009/04/23 15:54:06.5    -232   -881     67    911    914 194.8   4.2  34126  289.01 0854.37
2009/04/23 15:54:06.6    -188   -905     34    925    926 191.8   2.1  34118  288.87 0854.37
2009/04/23 15:54:06.7     -42   -775    152    777    792 183.1  11.1  34120  288.90 0854.37
2009/04/23 15:54:06.8    -449   -768    456    890   1000 210.3  29.3  34136  289.16 0854.37
2009/04/23 15:54:06.9    -174   -690    420    712    826 194.2  33.4  34132  289.10 0854.37
2009/04/23 15:54:07.0    -222   -701    132    736    748 197.6  10.2  34146  289.33 0854.37
2009/04/23 15:54:07.1    -203   -717    370    746    832 195.8  28.4  34132  289.11 0854.37
2009/04/23 15:54:07.2    -201   -628    420    660    782 197.8  35.5  34136  289.18 0854.41
2009/04/23 15:54:07.3    -146   -822    289    836    885 190.1  19.1  34146  289.33 0854.41
2009/04/23 15:54:07.4    -164   -835    292    852    901 191.1  18.9  34146  289.35 0854.41
2009/04/23 15:54:07.5    -219   -848    447    876    983 194.5  29.2  34142  289.25 0854.41
2009/04/23 15:54:07.6    -287   -826    443    875    980 199.2  28.9  34162  289.61 0854.41
2009/04/23 15:54:07.7    -593   -801    327    998   1051 216.5  18.1  34172  289.76 0854.41
2009/04/23 15:54:07.8    -692   -734    120   1010   1018 223.3   6.8  34164  289.64 0854.41
2009/04/23 15:54:07.9    -705   -637   -307    951    999 227.9 -23.0  34144  289.30 0854.41
2009/04/23 15:54:08.0    -542   -617   -143    822    835 221.3  -9.9  34136  289.16 0854.41
2009/04/23 15:54:08.1    -575   -455   -244    734    774 231.6 -18.4  34154  289.48 0854.41
2009/04/23 15:54:08.2    -555   -402   -228    686    722 234.1 -23.6  34154  289.47 0854.41
2009/04/23 15:54:08.3    -258   -331   -185    420    458 217.9 -29.6  34148  289.38 0854.41
2009/04/23 15:54:08.4    -396   -312   -194    505    540 231.8 -26.5  34156  289.51 0854.41
2009/04/23 15:54:08.5    -422   -113   -246    437    501 255.0 -36.3  34166  289.69 0854.41
2009/04/23 15:54:08.6    -525   -213   -232    567    612 247.9 -27.9  34166  289.68 0854.41
2009/04/23 15:54:08.7    -369   -231   -201    436    480 238.0 -30.9  34160  289.57 0854.41
2009/04/23 15:54:08.8    -306   -405     61    508    512 217.1   6.9  34148  289.37 0854.41
2009/04/23 15:54:08.9    -162   -615    -96    636    644 194.8  -8.6  34146  289.35 0854.41
2009/04/23 15:54:09.0     -38   -500    -92    502    511 184.4 -10.4  34148  289.37 0854.41
2009/04/23 15:54:09.1    -194   -352    -72    402    409 208.9 -10.3  34148  289.38 0854.41
2009/04/23 15:54:09.2     -38   -438   -107    440    453 185.0 -13.7  34152  289.43 0854.46
2009/04/23 15:54:09.3     -96   -286    -39    302    305 198.7  -7.5  34152  289.44 0854.46
2009/04/23 15:54:09.4     -83   -287      0    299    300 196.3   0.0  34156  289.49 0854.46
2009/04/23 15:54:09.5     -54   -116     90    129    157 204.9  38.6  34158  289.53 0854.46
2009/04/23 15:54:09.6      14      3     15     15     21  74.9  50.1  34164  289.63 0854.46
2009/04/23 15:54:09.7      29    -89    -62     94    112 161.5 -40.4  34156  289.52 0854.46
2009/04/23 15:54:09.8     183   -183    -72    260    269 135.0 -20.2  34154  289.47 0854.46
2009/04/23 15:54:09.9     132   -229   -108    265    286 150.1 -27.8  34152  289.42 0854.46
2009/04/23 15:54:10.0     164   -175    -74    241    252 136.8 -22.1  34146  289.34 0854.46
2009/04/23 15:54:10.1     170   -112    -63    204    214 123.3 -17.3  34152  289.45 0854.46
2009/04/23 15:54:10.2      14     59    139     61    151  13.4  74.9  34194  290.14 0854.46
2009/04/23 15:54:10.3       1     73    117     74    138   0.9  64.7  34200  290.25 0854.46
2009/04/23 15:54:10.4     -96    107    143    144    202 318.1  50.0  34180  289.91 0854.46
2009/04/23 15:54:10.5     -58     73    134     94    163 321.3  61.8  34172  289.77 0854.46
2009/04/23 15:54:10.6    -102     28     71    106    127 285.5  37.0  34178  289.89 0854.46
2009/04/23 15:54:10.7     -45    -88     40    100    107 207.2  23.0  34166  289.69 0854.46
2009/04/23 15:54:10.8      74   -135     51    155    164 151.1  18.1  34160  289.57 0854.46
2009/04/23 15:54:10.9      20   -174     32    176    179 173.3  10.3  34154  289.48 0854.46
2009/04/23 15:54:11.0     107    -29     70    112    132 105.5  35.5  34164  289.63 0854.46
2009/04/23 15:54:11.1      -7     36    180     37    183 348.4  89.0  34188  290.06 0854.46
2009/04/23 15:54:11.2      12      8    160     15    160  57.6  90.0  34174  289.80 0854.45
2009/04/23 15:54:11.3     -94    -78    178    123    216 230.5  62.1  34158  289.53 0854.45
2009/04/23 15:54:11.4    -168   -168    172    238    293 225.0  39.7  34146  289.32 0854.45
2009/04/23 15:54:11.5      42   -148    286    154    324 164.0  69.5  34136  289.17 0854.45
2009/04/23 15:54:11.6     -77   -163    157    181    239 205.4  45.6  34152  289.43 0854.45
2009/04/23 15:54:11.7      15     76    239     78    251  11.5  81.0  34192  290.13 0854.45
2009/04/23 15:54:11.8     -31     84    147     90    172 339.5  65.4  34176  289.84 0854.45
2009/04/23 15:54:11.9      34    108    148    114    186  17.4  58.2  34170  289.74 0854.45
2009/04/23 15:54:12.0      34      0    164     35    167  90.0  88.8  34184  289.97 0854.45
2009/04/23 15:54:12.1     -58    -73    178     94    201 218.7  70.0  34190  290.09 0854.45
2009/04/23 15:54:12.2      26   -128    230    131    264 168.5  68.1  34172  289.79 0854.45
2009/04/23 15:54:12.3       7   -153     88    154    177 177.3  32.4  34152  289.45 0854.45
2009/04/23 15:54:12.4    -142    -84     69    165    178 239.4  23.8  34154  289.48 0854.45
2009/04/23 15:54:12.5    -253   -169    142    305    336 236.3  26.6  34154  289.47 0854.45
2009/04/23 15:54:12.6    -265   -115     85    290    303 246.5  16.3  34152  289.44 0854.45
2009/04/23 15:54:12.7    -215     18     96    216    236 274.8  25.3  34160  289.58 0854.45
2009/04/23 15:54:12.8    -231      8     57    232    240 272.1  13.9  34170  289.73 0854.45
2009/04/23 15:54:12.9    -299    -31    -62    301    308 263.9 -11.8  34168  289.70 0854.45
2009/04/23 15:54:13.0    -102   -268    128    287    314 200.9  25.7  34170  289.73 0854.45
2009/04/23 15:54:13.1     -81   -221    321    236    398 200.3  60.1  34208  290.40 0854.45
2009/04/23 15:54:13.2    -196   -179    204    266    335 227.7  41.3  34194  290.14 0854.45
2009/04/23 15:54:13.3      -2   -102    230    103    252 181.4  74.5  34194  290.16 0854.45
2009/04/23 15:54:13.4    -115   -346    305    365    475 198.5  44.2  34178  289.87 0854.45
2009/04/23 15:54:13.5     -88   -347    257    359    441 194.3  39.3  34176  289.85 0854.45
2009/04/23 15:54:13.6    -108   -325    321    343    469 198.4  47.9  34196  290.17 0854.45
2009/04/23 15:54:13.7      25   -354    275    355    449 175.9  41.7  34188  290.05 0854.45
2009/04/23 15:54:13.8      -8   -287    285    288    405 181.8  49.9  34200  290.25 0854.45
2009/04/23 15:54:13.9     -41   -288    316    291    429 188.1  52.6  34196  290.18 0854.45
2009/04/23 15:54:14.0       7   -247    286    248    378 178.2  54.7  34202  290.30 0854.45
2009/04/23 15:54:14.1     -35   -226    251    229    339 188.9  52.9  34206  290.34 0854.45
2009/04/23 15:54:14.2      48   -162    213    169    271 163.5  57.5  34208  290.37 0854.45
2009/04/23 15:54:14.3      95   -236    122    255    282 157.9  27.3  34198  290.22 0854.45
2009/04/23 15:54:14.4     107   -230     47    254    259 155.1  10.6  34174  289.80 0854.45
2009/04/23 15:54:14.5     133   -176     82    221    235 142.8  21.0  34184  289.97 0854.45
2009/04/23 15:54:14.6     200   -193     76    279    290 134.0  15.3  34156  289.49 0854.45
2009/04/23 15:54:14.7     320   -470    302    570    645 145.7  30.2  34132  289.09 0854.45
2009/04/23 15:54:14.8     441   -397    290    594    661 132.0  27.9  34132  289.11 0854.45
2009/04/23 15:54:14.9     369   -206    198    423    467 119.2  27.1  34132  289.09 0854.45
2009/04/23 15:54:15.0      90   -346    270    358    448 165.4  40.7  34140  289.24 0854.45
2009/04/23 15:54:15.1      41   -262     51    266    271 171.1  11.0  34138  289.19 0854.45
2009/04/23 15:54:15.2    -129   -279    122    308    331 204.9  22.9  34144  289.29 0854.52
2009/04/23 15:54:15.3     -33   -294    357    296    463 186.5  56.3  34144  289.29 0854.52
2009/04/23 15:54:15.4    -115   -329    -34    349    351 199.4  -5.6  34152  289.43 0854.52
2009/04/23 15:54:15.5     -83   -150     26    172    175 209.2   8.8  34144  289.30 0854.52
2009/04/23 15:54:15.6    -173   -192    260    259    366 221.9  50.0  34156  289.52 0854.52
2009/04/23 15:54:15.7     -93   -306     -3    320    321 197.0  -0.7  34152  289.44 0854.52
2009/04/23 15:54:15.8    -114   -376    -52    394    398 196.9  -7.6  34146  289.35 0854.52
2009/04/23 15:54:15.9     -56   -319    140    324    352 190.0  25.0  34148  289.38 0854.52
2009/04/23 15:54:16.0       0   -193    -18    194    195 179.8  -5.6  34148  289.38 0854.52
2009/04/23 15:54:16.1     -87   -365   -112    376    393 193.4 -16.6  34142  289.26 0854.52
2009/04/23 15:54:16.2     -42   -552   -138    554    572 184.4 -14.1  34144  289.29 0854.49
2009/04/23 15:54:16.3     206   -675    -21    706    707 163.0  -1.7  34132  289.10 0854.49
2009/04/23 15:54:16.4     -50   -442    -56    445    449 186.6  -7.2  34138  289.19 0854.49
2009/04/23 15:54:16.5     112   -364    -53    382    386 162.8  -7.9  34142  289.25 0854.49
2009/04/23 15:54:16.6      97   -279     63    296    303 160.8  12.2  34136  289.17 0854.49
2009/04/23 15:54:16.7     188   -279      0    337    338 146.1   0.1  34134  289.13 0854.49
2009/04/23 15:54:16.8     270   -227    -34    353    355 130.1  -5.6  34134  289.13 0854.49
2009/04/23 15:54:16.9     368   -102     53    383    387 105.6   7.9  34132  289.10 0854.49
2009/04/23 15:54:17.0     371    -62     24    377    378  99.6   3.7  34136  289.15 0854.49
2009/04/23 15:54:17.1     269   -195    -28    333    335 126.0  -4.8  34132  289.11 0854.49
2009/04/23 15:54:17.2     178    -92     67    201    213 117.3  18.6  34116  288.84 0854.49
2009/04/23 15:54:17.3     176    -79    163    194    253 114.2  44.1  34138  289.19 0854.49
2009/04/23 15:54:17.4      74    -24    160     78    178 108.4  72.1  34144  289.31 0854.49
2009/04/23 15:54:17.5      30   -111    182    116    215 164.9  64.6  34136  289.18 0854.49
2009/04/23 15:54:17.6      46      4    180     47    186  84.8  85.4  34148  289.36 0854.49
2009/04/23 15:54:17.7      30      4    164     31    166  82.1  89.8  34154  289.46 0854.49
2009/04/23 15:54:17.8     -12    -30    182     33    184 201.8  90.0  34148  289.36 0854.49
2009/04/23 15:54:17.9       5     12    146     14    146  21.8  90.0  34160  289.57 0854.49
2009/04/23 15:54:18.0      32     89    126     95    157  20.0  59.2  34148  289.36 0854.49
2009/04/23 15:54:18.1     133    -84    190    158    247 122.4  56.3  34138  289.21 0854.49
2009/04/23 15:54:18.2      70   -196    149    209    256 160.4  39.1  34134  289.12 0854.41
2009/04/23 15:54:18.3     196   -102    119    221    251 117.5  30.8  34130  289.05 0854.41
2009/04/23 15:54:18.4     173     35    235    177    294  78.3  59.4  34150  289.39 0854.41
2009/04/23 15:54:18.5     152     31    242    156    287  78.5  64.6  34156  289.49 0854.41
2009/04/23 15:54:18.6     196     31    210    199    289  80.8  51.6  34152  289.44 0854.41
2009/04/23 15:54:18.7     168     81    147    187    237  64.2  42.2  34144  289.31 0854.41
2009/04/23 15:54:18.8     260    -11     84    261    275  92.6  17.9  34142  289.25 0854.41
2009/04/23 15:54:18.9     275   -112     35    298    301 112.2   6.7  34152  289.42 0854.41
2009/04/23 15:54:19.0     164    -89    160    187    246 118.6  44.8  34146  289.33 0854.41
2009/04/23 15:54:19.1     234   -115    250    261    361 116.2  48.7  34144  289.30 0854.41
2009/04/23 15:54:19.2     266   -237    246    357    433 131.7  37.8  34148  289.36 0854.41
2009/04/23 15:54:19.3     205   -198    215    286    357 134.0  40.7  34138  289.20 0854.41
2009/04/23 15:54:19.4      55   -294     90    300    314 169.3  16.8  34134  289.14 0854.41
2009/04/23 15:54:19.5       0   -310     43    311    314 180.0   7.9  34136  289.15 0854.41
2009/04/23 15:54:19.6       7   -322    132    323    348 178.6  23.4  34128  289.03 0854.41
2009/04/23 15:54:19.7     -14   -325    107    326    344 182.6  18.2  34128  289.04 0854.41
2009/04/23 15:54:19.9     139   -242    -87    280    294 150.1 -17.3  34126  289.00 0854.41
2009/04/23 15:54:19.9     119   -136      6    182    183 138.8   2.1  34124  288.96 0854.41
2009/04/23 15:54:20.1    -140    -66    -28    155    158 244.7 -10.3  34134  289.14 0854.41
2009/04/23 15:54:20.2    -354   -680     43    767    769 207.5   3.2  34126  288.99 0854.41
2009/04/23 15:54:20.3    -328   -656    158    734    751 206.6  12.2  34126  289.01 0854.39
2009/04/23 15:54:20.4    -393   -498    114    635    646 218.3  10.2  34132  289.11 0854.39
2009/04/23 15:54:20.5    -114   -392   -168    409    442 196.3 -28.0  34134  289.14 0854.39
2009/04/23 15:54:20.6    -115   -369   -212    387    441 197.4 -35.7  34128  289.04 0854.39
2009/04/23 15:54:20.7    -322   -255   -173    412    446 231.6 -28.5  34126  288.99 0854.39
2009/04/23 15:54:20.8    -294   -296   -207    418    466 224.8 -32.6  34106  288.65 0854.39
2009/04/23 15:54:20.9    -301   -299   -199    425    469 225.2 -31.3  34114  288.78 0854.39
2009/04/23 15:54:21.0    -298   -343   -214    455    502 221.0 -31.5  34112  288.76 0854.39
2009/04/23 15:54:21.1    -143   -429   -130    453    471 198.5 -20.7  34104  288.62 0854.39
2009/04/23 15:54:21.2     -51   -352   -108    356    372 188.3 -21.7  34110  288.72 0854.39
2009/04/23 15:54:21.3     -41   -378   -129    381    402 186.2 -23.6  34116  288.81 0854.39
2009/04/23 15:54:21.4      38   -422   -127    424    443 174.8 -16.7  34118  288.87 0854.39
2009/04/23 15:54:21.5      37   -409    -82    411    420 174.8 -11.3  34128  289.02 0854.39
2009/04/23 15:54:21.6      82   -316   -117    327    348 165.4 -19.8  34128  289.04 0854.39
2009/04/23 15:54:21.7     143   -362   -139    390    415 158.5 -19.6  34126  288.99 0854.39
2009/04/23 15:54:21.8     116   -474     60    489    493 166.2   7.1  34134  289.12 0854.39
2009/04/23 15:54:21.9      57   -398    -88    403    413 171.8 -12.4  34140  289.24 0854.39
2009/04/23 15:54:22.0      83   -398    -59    407    412 168.2  -8.3  34134  289.12 0854.39
2009/04/23 15:54:22.1     -40   -325   -121    328    349 187.1 -25.4  34128  289.03 0854.39
2009/04/23 15:54:22.2     -83   -406   -131    415    436 191.6 -17.5  34132  289.11 0854.39
2009/04/23 15:54:22.3    -148   -498   -214    520    562 196.6 -28.1  34116  288.82 0854.38
2009/04/23 15:54:22.4    -101   -498   -225    509    556 191.5 -30.0  34114  288.80 0854.38
2009/04/23 15:54:22.5     -95   -753   -116    760    769 187.2  -8.7  34116  288.82 0854.38
2009/04/23 15:54:22.6     -45   -562   -100    564    573 184.6 -10.1  34124  288.95 0854.38
2009/04/23 15:54:22.7     130   -666   -267    679    729 168.9 -27.1  34116  288.84 0854.38
2009/04/23 15:54:22.8      72   -267   -270    277    386 164.8 -53.7  34116  288.81 0854.38
2009/04/23 15:54:22.9     231   -439   -235    497    549 152.3 -31.6  34092  288.43 0854.38
2009/04/23 15:54:23.0     -71   -281   -223    291    366 194.3 -45.8  34126  288.99 0854.38
2009/04/23 15:54:23.1    -159   -478   -172    505    533 198.5 -23.8  34128  289.04 0854.38
2009/04/23 15:54:23.2    -114   -475   -115    489    503 193.5 -13.3  34120  288.91 0854.38
2009/04/23 15:54:23.3    -209   -367    -16    423    424 209.6  -2.3  34128  289.04 0854.38
2009/04/23 15:54:23.4     -40   -371    -18    374    375 186.3  -2.8  34130  289.08 0854.38
2009/04/23 15:54:23.5     -16   -587   -106    588    598 181.6 -10.3  34136  289.15 0854.38
2009/04/23 15:54:23.6    -203   -697   -214    727    757 196.3 -21.2  34126  288.99 0854.38
2009/04/23 15:54:23.7    -150   -703   -255    719    764 192.1 -19.6  34132  289.11 0854.38
2009/04/23 15:54:23.8    -343   -631   -164    719    738 208.5 -12.9  34136  289.17 0854.38
2009/04/23 15:54:23.9    -173   -520   -239    548    597 198.4 -29.5  34130  289.07 0854.38
2009/04/23 15:54:24.0    -109   -343   -107    361    376 197.7 -21.4  34136  289.15 0854.38
2009/04/23 15:54:24.1    -225   -354   -130    420    440 212.4 -17.3  34136  289.17 0854.38
2009/04/23 15:54:24.2    -108   -278   -128    299    325 201.2 -29.0  34136  289.15 0854.38
2009/04/23 15:54:24.3    -113   -521   -154    534    555 192.3 -20.9  34136  289.16 0854.39
2009/04/23 15:54:24.4    -301   -349   -150    462    486 220.8 -18.1  34140  289.23 0854.39
2009/04/23 15:54:24.5    -177   -553    -32    581    582 197.8  -3.2  34134  289.14 0854.39
2009/04/23 15:54:24.6    -348   -291    -74    454    461 230.1  -9.3  34152  289.43 0854.39
2009/04/23 15:54:24.7     -53   -426     -3    430    431 187.2  -0.5  34122  288.94 0854.39
2009/04/23 15:54:24.8       0   -391     -2    392    393 180.0  -0.4  34116  288.81 0854.39
2009/04/23 15:54:24.9    -170   -243      4    297    298 215.0   0.8  34136  289.17 0854.39
2009/04/23 15:54:25.0    -176   -469    -19    502    503 200.6  -2.2  34144  289.30 0854.39
2009/04/23 15:54:25.1    -130   -384    -15    406    407 198.7  -2.2  34146  289.33 0854.39
2009/04/23 15:54:25.2     -90   -341     33    353    355 194.8   5.5  34138  289.21 0854.39
2009/04/23 15:54:25.3    -205   -401     94    451    461 207.1  11.8  34132  289.11 0854.39
2009/04/23 15:54:25.4    -238   -477    114    534    547 206.5  12.1  34130  289.07 0854.39
2009/04/23 15:54:25.5     -57   -450     39    454    456 187.3   5.0  34122  288.92 0854.39
2009/04/23 15:54:25.6      13   -466     48    467    470 178.3   5.9  34136  289.17 0854.39
2009/04/23 15:54:25.7      25   -516    -37    517    519 177.2  -4.1  34126  289.00 0854.39
2009/04/23 15:54:25.8      60   -520     15    524    525 173.4   1.7  34126  289.01 0854.39
2009/04/23 15:54:25.9     -25   -455     63    456    461 183.2   7.9  34128  289.02 0854.39
2009/04/23 15:54:26.0      21   -375    -30    376    378 176.8  -4.6  34128  289.03 0854.39
2009/04/23 15:54:26.1     120   -403     81    421    429 163.4  11.0  34126  288.99 0854.39
2009/04/23 15:54:26.2      23   -465     36    466    468 177.1   4.5  34124  288.96 0854.39
2009/04/23 15:54:26.3     108   -533     43    544    546 168.5   4.6  34134  289.13 0854.39
2009/04/23 15:54:26.4     114   -322     92    342    355 160.4  15.1  34126  289.01 0854.39
2009/04/23 15:54:26.5      80   -315    173    326    369 165.7  30.2  34126  289.01 0854.39
2009/04/23 15:54:26.6     -42   -465     65    467    472 185.2   8.0  34142  289.28 0854.39
2009/04/23 15:54:26.7      62   -307    165    314    354 168.5  29.8  34136  289.18 0854.39
2009/04/23 15:54:26.8     -11   -349    159    350    384 181.9  26.2  34136  289.15 0854.39
2009/04/23 15:54:26.9     -55   -322    111    327    346 189.7  18.8  34136  289.16 0854.39
2009/04/23 15:54:27.0     -25   -315    167    317    358 184.7  30.1  34142  289.26 0854.39
2009/04/23 15:54:27.1    -114   -341    182    360    403 198.5  28.9  34134  289.13 0854.39
2009/04/23 15:54:27.2    -256   -389    193    466    504 213.4  23.8  34134  289.12 0854.39
2009/04/23 15:54:27.3    -159   -298    164    338    375 208.1  27.8  34124  288.96 0854.39
2009/04/23 15:54:27.4     -99   -372    321    386    502 195.0  43.8  34136  289.17 0854.39
2009/04/23 15:54:27.5    -127   -380    261    401    478 198.6  36.0  34134  289.12 0854.39
2009/04/23 15:54:27.6    -209   -329    160    390    421 212.4  23.6  34136  289.16 0854.39
2009/04/23 15:54:27.7    -184   -278    104    334    350 213.6  17.3  34138  289.21 0854.39
2009/04/23 15:54:27.8    -197   -220    157    296    335 221.9  30.2  34144  289.29 0854.39
2009/04/23 15:54:27.9    -162   -231    184    283    337 215.0  36.0  34146  289.34 0854.39
2009/04/23 15:54:28.0    -144   -310    123    343    364 205.0  20.6  34142  289.28 0854.39
2009/04/23 15:54:28.1    -136   -221    165    260    307 211.6  35.5  34154  289.47 0854.39
2009/04/23 15:54:28.2    -159   -252    161    299    339 212.3  30.8  34148  289.36 0854.39
2009/04/23 15:54:28.3    -202   -202    140    287    319 225.0  27.9  34148  289.37 0854.39
2009/04/23 15:54:28.4    -129   -146     39    196    200 221.4  11.4  34146  289.35 0854.39
2009/04/23 15:54:28.5    -132    -80    172    155    231 238.9  53.3  34168  289.70 0854.39
2009/04/23 15:54:28.6    -251    -15     45    252    257 266.5  10.1  34168  289.71 0854.39
2009/04/23 15:54:28.7    -297    -37     47    300    304 262.9   9.0  34164  289.63 0854.39
2009/04/23 15:54:28.8    -296    -41    125    299    324 262.0  24.2  34172  289.76 0854.39
2009/04/23 15:54:28.9    -236    -86    120    252    279 250.0  27.3  34180  289.92 0854.39
2009/04/23 15:54:29.0    -154   -215    105    265    285 215.6  23.0  34166  289.66 0854.39
2009/04/23 15:54:29.1    -183   -279    -18    334    335 213.3  -3.1  34156  289.50 0854.39
2009/04/23 15:54:29.2    -266   -237    -49    357    361 228.3  -7.9  34146  289.32 0854.39
2009/04/23 15:54:29.3    -219   -169    -10    277    278 232.3  -2.2  34158  289.53 0854.39
2009/04/23 15:54:29.4    -270    -88    -47    285    289 251.8  -9.4  34160  289.56 0854.39
2009/04/23 15:54:29.5    -335    -75    104    344    360 257.3  16.8  34180  289.91 0854.39
2009/04/23 15:54:29.6    -313    -73     68    322    330 256.7  12.0  34198  290.22 0854.39
2009/04/23 15:54:29.7    -341   -145    -14    371    372 246.9  -2.2  34168  289.72 0854.39
2009/04/23 15:54:29.8    -352   -102     15    367    368 253.9   2.3  34176  289.84 0854.39
2009/04/23 15:54:29.9    -381    -93    -30    393    395 256.2  -4.5  34172  289.76 0854.39
2009/04/23 15:54:30.0    -214   -252   -124    331    353 220.4 -25.9  34170  289.74 0854.39
2009/04/23 15:54:30.1    -141   -327   -127    357    380 203.3 -19.7  34182  289.93 0854.39
2009/04/23 15:54:30.2    -313   -258    -54    406    410 230.5  -7.6  34190  290.07 0854.39
2009/04/23 15:54:30.3    -306   -189    -32    360    362 238.2  -5.1  34184  289.99 0854.40
2009/04/23 15:54:30.4    -233    -98    -55    253    260 247.2 -12.4  34184  289.98 0854.40
2009/04/23 15:54:30.5    -257   -332   -171    421    454 217.8 -27.6  34136  289.16 0854.40
2009/04/23 15:54:30.6    -204   -274   -173    342    383 216.7 -33.3  34146  289.35 0854.40
2009/04/23 15:54:30.7    -209   -200    -75    290    300 226.2 -14.5  34148  289.37 0854.40
2009/04/23 15:54:30.8    -298   -296    -49    421    424 225.2  -6.7  34182  289.94 0854.40
2009/04/23 15:54:30.9    -307   -223    -20    380    381 234.0  -3.1  34202  290.30 0854.40
2009/04/23 15:54:31.0    -337   -203    -86    394    404 238.9 -12.4  34218  290.55 0854.40
2009/04/23 15:54:31.1    -287   -270   -120    395    414 226.8 -16.9  34188  290.04 0854.40
2009/04/23 15:54:31.2    -181   -308   -126    358    380 210.5 -19.4  34174  289.81 0854.40
2009/04/23 15:54:31.3    -175   -281    -66    332    339 211.9 -11.3  34194  290.16 0854.40
2009/04/23 15:54:31.4    -151   -294     19    331    332 207.2   3.3  34202  290.28 0854.40
2009/04/23 15:54:31.5    -157   -221     66    272    280 215.4  13.7  34208  290.39 0854.40
2009/04/23 15:54:31.6    -157   -364    -28    397    398 203.3  -4.1  34194  290.16 0854.40
2009/04/23 15:54:31.7     -84   -371     56    381    386 192.8   8.5  34182  289.94 0854.40
2009/04/23 15:54:31.8    -126   -535     13    550    551 193.3   1.4  34166  289.67 0854.40
2009/04/23 15:54:31.9     -71   -566    101    571    581 187.2  10.1  34166  289.66 0854.40
2009/04/23 15:54:32.0     -90   -520    100    528    538 189.9  10.7  34168  289.72 0854.40
2009/04/23 15:54:32.1     -58   -507    114    511    524 186.6  12.6  34180  289.92 0854.40
2009/04/23 15:54:32.2     -33   -491    105    493    505 183.9  12.1  34160  289.57 0854.40
2009/04/23 15:54:32.3     -20   -515    125    516    532 182.2  13.7  34146  289.35 0854.39
2009/04/23 15:54:32.4      65   -537    189    542    575 173.0  19.3  34178  289.89 0854.39
2009/04/23 15:54:32.5       8   -553    212    554    593 179.1  22.0  34194  290.14 0854.39
2009/04/23 15:54:32.6     120   -418    249    435    501 164.0  32.4  34186  290.00 0854.39
2009/04/23 15:54:32.7     168   -341    305    381    488 153.7  42.8  34168  289.70 0854.39
2009/04/23 15:54:32.8     161   -343    358    380    522 154.8  48.0  34194  290.15 0854.39
2009/04/23 15:54:32.9     123   -343    280    365    460 160.2  41.5  34200  290.26 0854.39
2009/04/23 15:54:33.0     255   -354     88    437    446 144.2  11.4  34202  290.28 0854.39
2009/04/23 15:54:33.1      53   -236    102    242    262 167.3  24.1  34194  290.15 0854.39
2009/04/23 15:54:33.2     128   -292    170    319    361 156.3  30.5  34214  290.49 0854.39
2009/04/23 15:54:33.3     147   -231    229    275    357 147.5  44.1  34232  290.79 0854.39
2009/04/23 15:54:33.4     233   -148    127    277    304 122.4  26.6  34218  290.56 0854.39
2009/04/23 15:54:33.5     278   -172    181    328    374 121.8  31.4  34192  290.10 0854.39
2009/04/23 15:54:33.6     188   -200    233    275    360 136.8  44.5  34176  289.84 0854.39
2009/04/23 15:54:33.7     154   -149    211    215    301 134.0  49.8  34164  289.63 0854.39
2009/04/23 15:54:33.8      97   -204    175    227    286 154.5  41.6  34174  289.81 0854.39
2009/04/23 15:54:33.9     -91   -294    107    308    327 197.2  19.2  34172  289.78 0854.39
2009/04/23 15:54:34.0     -84   -260    133    274    304 198.0  27.3  34170  289.73 0854.39
2009/04/23 15:54:34.1     -55   -180    185    189    264 196.9  49.4  34170  289.75 0854.39
2009/04/23 15:54:34.2       8   -106    176    107    205 175.5  66.0  34176  289.84 0854.35
2009/04/23 15:54:34.3     -24    -79    132     83    155 197.4  64.7  34170  289.75 0854.35
2009/04/23 15:54:34.4     -25    -45    105     52    117 209.9  72.4  34180  289.92 0854.35
2009/04/23 15:54:34.5    -103     -4     82    104    132 267.4  42.7  34182  289.96 0854.35
2009/04/23 15:54:34.6     -80    -83     32    116    121 224.2  15.8  34176  289.85 0854.35
2009/04/23 15:54:34.7     -63    -95     97    115    150 213.8  43.8  34174  289.82 0854.35
2009/04/23 15:54:34.8    -148    -59    110    160    194 248.2  37.8  34196  290.18 0854.35
2009/04/23 15:54:34.9    -145    -20     23    147    149 262.1   9.0  34206  290.36 0854.35
2009/04/23 15:54:35.0    -304   -121   -109    328    345 248.2 -23.7  34174  289.82 0854.35
2009/04/23 15:54:35.1    -328    -62    -97    334    347 259.2 -21.0  34182  289.94 0854.35
2009/04/23 15:54:35.2    -366   -173    -98    405    417 244.7 -13.7  34196  290.19 0854.35
2009/04/23 15:54:35.3    -394    -92    -69    405    412 256.7  -9.8  34212  290.44 0854.35
2009/04/23 15:54:35.4    -406   -134    -99    428    440 251.7 -13.1  34214  290.50 0854.35
2009/04/23 15:54:35.5    -478    -89    -84    487    495 259.4  -9.8  34210  290.42 0854.35
2009/04/23 15:54:35.6    -437   -111   -140    452    473 255.7 -22.2  34204  290.32 0854.35
2009/04/23 15:54:35.7    -435   -286    -49    521    524 236.7  -5.5  34214  290.50 0854.35
2009/04/23 15:54:35.8    -381   -369    130    531    547 226.0  13.8  34194  290.16 0854.35
2009/04/23 15:54:35.9    -421    -41     81    424    432 264.4  10.8  34198  290.22 0854.35
2009/04/23 15:54:36.0    -304    -60    -29    310    312 258.8  -5.4  34212  290.44 0854.35
2009/04/23 15:54:36.1    -186    -86    120    206    238 245.2  32.9  34196  290.18 0854.35
2009/04/23 15:54:36.2    -129   -232    112    266    288 209.0  24.2  34156  289.51 0854.33
2009/04/23 15:54:36.3     -47   -328      4    332    333 188.2   0.7  34148  289.38 0854.33
2009/04/23 15:54:36.4       8   -383    -16    384    385 178.8  -2.5  34150  289.40 0854.33
2009/04/23 15:54:36.5      45   -342     48    346    350 172.4   8.0  34148  289.37 0854.33
2009/04/23 15:54:36.6       4   -346    150    347    378 179.2  24.9  34150  289.40 0854.33
2009/04/23 15:54:36.7      49   -262    108    267    288 169.4  23.1  34146  289.34 0854.33
2009/04/23 15:54:36.8    -108   -389    140    404    428 195.5  19.2  34150  289.39 0854.33
2009/04/23 15:54:36.9     -84   -353     17    363    364 193.4   2.8  34146  289.33 0854.33
2009/04/23 15:54:37.0     -33   -302     26    304    306 186.3   5.0  34150  289.39 0854.33
2009/04/23 15:54:37.1     -97   -244     82    263    276 201.8  17.3  34146  289.34 0854.33
2009/04/23 15:54:37.2    -142   -286     68    320    328 206.5  12.1  34148  289.36 0854.34
2009/04/23 15:54:37.3     -48   -258     46    263    268 190.6  10.0  34154  289.46 0854.34
2009/04/23 15:54:37.4     -55   -162     82    172    190 198.7  27.3  34156  289.50 0854.34
2009/04/23 15:54:37.5      24   -140    119    143    186 170.3  43.8  34162  289.60 0854.34
2009/04/23 15:54:37.6       1   -141    103    142    175 179.5  39.3  34158  289.55 0854.34
2009/04/23 15:54:37.7     -30   -218     81    221    235 188.0  21.0  34160  289.58 0854.34
2009/04/23 15:54:37.8     -65   -152    113    166    200 203.4  37.6  34154  289.46 0854.34
2009/04/23 15:54:37.9     -80   -194    164    211    267 202.5  41.7  34144  289.29 0854.34
2009/04/23 15:54:38.0      31   -287    157    289    328 173.8  30.8  34138  289.19 0854.34
2009/04/23 15:54:38.1      69   -260     67    270    279 165.1  13.9  34144  289.29 0854.34
2009/04/23 15:54:38.2      59   -156     76    167    183 159.3  25.9  34148  289.36 0854.34
2009/04/23 15:54:38.3      53   -100     58    114    127 151.9  28.7  34150  289.40 0854.34
2009/04/23 15:54:38.4      46    -34      2     58     59 126.9   2.9  34150  289.41 0854.34
2009/04/23 15:54:38.5      12    -11     10     17     19 133.1  35.5  34146  289.35 0854.34
2009/04/23 15:54:38.6      15      0    -19     16     24  90.0 -58.7  34152  289.45 0854.34
2009/04/23 15:54:38.7      47    -16    -24     50     55 109.1 -31.7  34148  289.36 0854.34
2009/04/23 15:54:38.8      64    -40    -28     76     81 122.4 -25.4  34148  289.36 0854.34
2009/04/23 15:54:38.9     138    -14     -7    139    140  96.1  -3.1  34150  289.41 0854.34
2009/04/23 15:54:39.0     140     -2      8    141    142  90.8   3.3  34150  289.40 0854.34
2009/04/23 15:54:39.1     132    -26     66    135    150 101.5  27.3  34154  289.46 0854.34
2009/04/23 15:54:39.2      68    -27     88     74    114 111.7  56.3  34158  289.53 0854.30
2009/04/23 15:54:39.3      41    -15     61     44     75 110.0  60.6  34170  289.75 0854.30
2009/04/23 15:54:39.4      34    -35     35     50     61 135.8  38.6  34168  289.70 0854.30
2009/04/23 15:54:39.5     -10     46      9     48     49 347.5  11.1  34166  289.67 0854.30
2009/04/23 15:54:39.6     -87     48     41    100    108 298.9  23.0  34166  289.67 0854.30
2009/04/23 15:54:39.7    -134     73     28    153    156 298.8  10.6  34156  289.52 0854.30
2009/04/23 15:54:39.8    -124    144     51    191    198 319.2  15.2  34152  289.43 0854.30
2009/04/23 15:54:39.9    -144    211     21    256    258 325.7   4.9  34148  289.37 0854.30
2009/04/23 15:54:40.0    -127    135    102    186    212 316.8  31.4  34166  289.67 0854.30
2009/04/23 15:54:40.1     -22    -41    156     47    162 208.1  82.8  34180  289.91 0854.30
2009/04/23 15:54:40.2      16   -155     87    156    178 173.8  31.4  34154  289.48 0854.30
2009/04/23 15:54:40.3       0   -172     47    173    180 180.2  15.3  34152  289.43 0854.30
2009/04/23 15:54:40.4      -2   -208     -4    209    210 180.7  -1.2  34152  289.43 0854.30
2009/04/23 15:54:40.5      15   -282    -21    283    284 176.9  -4.4  34154  289.47 0854.30
2009/04/23 15:54:40.6      26   -277    -46    279    283 174.6  -9.4  34156  289.51 0854.30
2009/04/23 15:54:40.7     -23   -312     -9    313    314 184.4  -1.8  34158  289.54 0854.30
2009/04/23 15:54:40.8     -41   -319    -17    322    323 187.3  -3.1  34154  289.46 0854.30
2009/04/23 15:54:40.9     -54   -384    -15    388    389 188.0  -2.2  34156  289.52 0854.30
2009/04/23 15:54:41.0     -39   -398    -21    400    401 185.7  -3.0  34150  289.40 0854.30
2009/04/23 15:54:41.1     -42   -456     87    459    468 185.4  10.8  34150  289.41 0854.30
2009/04/23 15:54:41.2     -70   -454     43    460    463 188.8   5.4  34146  289.33 0854.27
2009/04/23 15:54:41.3     -12   -495    125    496    512 181.5  14.2  34136  289.15 0854.27
2009/04/23 15:54:41.4      14   -475    147    476    499 178.2  17.2  34136  289.18 0854.27
2009/04/23 15:54:41.5      45   -532    144    535    555 175.1  15.1  34138  289.21 0854.27
2009/04/23 15:54:41.6     -33   -483     72    485    491 184.0   8.5  34136  289.18 0854.27
2009/04/23 15:54:41.7       6   -395    164    396    428 179.0  23.8  34150  289.41 0854.27
2009/04/23 15:54:41.8     -41   -381     60    384    389 186.3   9.0  34142  289.28 0854.27
2009/04/23 15:54:41.9     -74   -396    147    403    428 190.6  21.0  34142  289.26 0854.27
2009/04/23 15:54:42.0    -131   -374     13    397    398 199.3   1.9  34138  289.21 0854.27
2009/04/23 15:54:42.1     -98   -350     10    364    365 195.7   1.6  34140  289.23 0854.27
2009/04/23 15:54:42.2    -111   -446     22    460    461 194.0   2.8  34142  289.26 0854.27
2009/04/23 15:54:42.3     -74   -368     27    376    377 191.4   4.2  34138  289.21 0854.27
2009/04/23 15:54:42.4    -137   -369    -52    394    398 200.5  -7.6  34138  289.20 0854.27
2009/04/23 15:54:42.5    -108   -325     -2    343    344 198.4  -0.4  34132  289.10 0854.27
2009/04/23 15:54:42.6     -79   -342    -99    352    365 193.0 -20.3  34142  289.25 0854.27
2009/04/23 15:54:42.7       8   -467    -70    468    474 179.0  -8.6  34136  289.18 0854.27
2009/04/23 15:54:42.8      32   -570    -62    571    575 176.8  -6.2  34146  289.32 0854.27
2009/04/23 15:54:42.9      42   -557    -50    559    562 175.6  -5.2  34132  289.11 0854.27
2009/04/23 15:54:43.0    -128   -515    -63    531    535 194.0  -6.8  34130  289.07 0854.27
2009/04/23 15:54:43.1     -58   -417    -55    422    426 188.0  -7.5  34120  288.90 0854.27
2009/04/23 15:54:43.2      68   -307    -70    315    323 167.5 -12.7  34128  289.02 0854.25
2009/04/23 15:54:43.3       8   -176     98    177    202 177.1  31.4  34130  289.08 0854.25
2009/04/23 15:54:43.4     -17   -126    159    128    204 188.0  57.1  34138  289.19 0854.25
2009/04/23 15:54:43.5     -74   -116    200    138    242 212.5  62.4  34148  289.36 0854.25
2009/04/23 15:54:43.6       7   -101    109    102    149 175.6  52.1  34136  289.18 0854.25
2009/04/23 15:54:43.7     -21   -221     90    223    240 185.6  23.1  34136  289.17 0854.25
2009/04/23 15:54:43.8       7   -190     58    191    200 177.8  17.1  34132  289.11 0854.25
2009/04/23 15:54:43.9     -72    -38   -117     82    142 242.0 -66.5  34114  288.79 0854.25
2009/04/23 15:54:44.0     -18    -91     18     93     95 191.6  11.1  34112  288.75 0854.25
2009/04/23 15:54:44.1     -59      0    102     60    118 270.0  66.8  34134  289.13 0854.25
2009/04/23 15:54:44.2     -65     -4    100     66    119 266.5  63.2  34154  289.48 0854.25
2009/04/23 15:54:44.3    -103   -110    116    151    190 223.2  41.4  34130  289.08 0854.25
2009/04/23 15:54:44.4    -107   -232    107    256    277 204.9  24.1  34132  289.09 0854.25
2009/04/23 15:54:44.5    -154   -241    127    287    313 212.6  25.6  34132  289.09 0854.25
2009/04/23 15:54:44.6     -95   -186    125    209    243 207.1  33.7  34136  289.17 0854.25
2009/04/23 15:54:44.7    -133   -367    188    391    433 200.0  27.3  34134  289.12 0854.25
2009/04/23 15:54:44.8      20   -508    166    509    536 177.7  18.1  34134  289.14 0854.25
2009/04/23 15:54:44.9      72   -504    108    510    522 171.8  12.0  34128  289.03 0854.25
2009/04/23 15:54:45.0       2   -408    125    409    428 179.7  17.0  34130  289.07 0854.25
2009/04/23 15:54:45.1     -91   -282    252    297    389 198.0  44.5  34132  289.11 0854.25
2009/04/23 15:54:45.2     164   -164    290    232    371 135.0  57.3  34148  289.37 0854.26
2009/04/23 15:54:45.3     138   -119    190    183    263 130.7  51.2  34150  289.39 0854.26
2009/04/23 15:54:45.4     313   -104    146    330    360 108.4  25.3  34144  289.30 0854.26
2009/04/23 15:54:45.5     370    -89     19    381    382 103.6   2.9  34142  289.26 0854.26
2009/04/23 15:54:45.6     289   -114     15    311    312 111.5   2.9  34142  289.25 0854.26
2009/04/23 15:54:45.7     258   -208     52    332    337 128.9   9.0  34138  289.21 0854.26
2009/04/23 15:54:45.8     105   -187    -27    215    217 150.6  -7.3  34138  289.19 0854.26
2009/04/23 15:54:45.9      77   -183     28    199    202 157.1   8.2  34138  289.21 0854.26
2009/04/23 15:54:46.0     109   -172    -13    204    205 147.5  -3.9  34136  289.16 0854.26
2009/04/23 15:54:46.1     106   -137    -42    174    180 142.2 -13.7  34142  289.28 0854.26
2009/04/23 15:54:46.2     143   -133      9    196    197 133.1   2.8  34142  289.28 0854.26
2009/04/23 15:54:46.4     165   -136    -38    214    218 129.5 -10.3  34136  289.18 0854.26
2009/04/23 15:54:46.5     128    -18     10    130    131  98.0   4.4  34136  289.18 0854.26
2009/04/23 15:54:46.6     178    -92     81    201    216 117.5  23.1  34142  289.26 0854.26
2009/04/23 15:54:46.7     224   -116    141    253    289 117.5  31.4  34128  289.03 0854.26
2009/04/23 15:54:46.7     276   -117    167    300    343 113.1  31.4  34124  288.96 0854.26
2009/04/23 15:54:46.9     285   -124    182    311    360 113.5  33.1  34126  288.99 0854.26
2009/04/23 15:54:47.0     367   -160    229    401    461 113.6  32.3  34126  289.00 0854.26
2009/04/23 15:54:47.1     179   -138    294    227    371 127.7  58.5  34140  289.23 0854.26
2009/04/23 15:54:47.2     -16    -49    242     52    247 198.5  88.2  34164  289.65 0854.26
2009/04/23 15:54:47.3     162   -169    297    235    378 136.1  57.7  34132  289.10 0854.29
2009/04/23 15:54:47.4      66   -139    188    155    243 154.5  56.4  34134  289.14 0854.29
2009/04/23 15:54:47.5      -4   -334    321    335    463 180.8  48.8  34136  289.16 0854.29
2009/04/23 15:54:47.6      14   -103    281    105    299 171.9  78.9  34136  289.17 0854.29
2009/04/23 15:54:47.7      14     58    219     60    227  14.3  84.8  34154  289.46 0854.29
2009/04/23 15:54:47.8     166    -35    160    170    233 102.2  48.2  34146  289.33 0854.29
2009/04/23 15:54:47.9     145      0    181    146    232  90.0  56.9  34140  289.23 0854.29
2009/04/23 15:54:48.0      12    -44    141     46    148 164.9  80.7  34140  289.24 0854.29
2009/04/23 15:54:48.1      72     24    215     76    228  71.6  80.2  34148  289.38 0854.29
2009/04/23 15:54:48.2       0     45    231     46    235 359.1  89.4  34140  289.23 0854.29
2009/04/23 15:54:48.3      23     48    222     54    228  25.3  86.4  34170  289.74 0854.29
2009/04/23 15:54:48.4     -62    -21    171     66    183 250.9  78.2  34174  289.80 0854.29
2009/04/23 15:54:48.5     -77   -196    196    211    287 201.6  47.9  34142  289.27 0854.29
2009/04/23 15:54:48.6     -47   -378    265    382    464 187.2  38.0  34128  289.04 0854.29
2009/04/23 15:54:48.7    -161   -471    233    498    549 198.9  27.0  34132  289.11 0854.29
2009/04/23 15:54:48.8     -22   -374    213    375    431 183.4  32.1  34132  289.11 0854.29
2009/04/23 15:54:48.9     164   -346    214    383    438 154.6  31.6  34132  289.11 0854.29
2009/04/23 15:54:49.0     231   -382    219    447    497 148.9  27.9  34130  289.08 0854.29
2009/04/23 15:54:49.1     140   -359    158    386    417 158.6  23.5  34130  289.05 0854.29
2009/04/23 15:54:49.2     158   -248     98    295    311 147.5  18.4  34130  289.07 0854.29
2009/04/23 15:54:49.3      49   -224    156    230    277 167.5  37.6  34130  289.05 0854.29
2009/04/23 15:54:49.4      22   -334    118    335    355 176.2  20.2  34136  289.16 0854.29
2009/04/23 15:54:49.5     180   -451    173    486    515 158.2  20.4  34120  288.88 0854.29
2009/04/23 15:54:49.6      90   -576    240    584    631 171.1  23.6  34112  288.76 0854.29
2009/04/23 15:54:49.7     167   -416    286    449    532 158.1  35.5  34110  288.73 0854.29
2009/04/23 15:54:49.8     112   -293    171    314    357 159.1  30.9  34118  288.86 0854.29
2009/04/23 15:54:49.9     -78   -455    -92    462    472 189.8 -11.3  34110  288.73 0854.29
2009/04/23 15:54:50.0    -269   -545     57    608    611 206.3   5.4  34116  288.81 0854.29
2009/04/23 15:54:50.1    -116   -593    213    605    641 191.1  20.2  34112  288.76 0854.29
2009/04/23 15:54:50.2    -234   -433    178    493    525 208.4  19.9  34116  288.84 0854.29
2009/04/23 15:54:50.3    -129   -504     49    521    524 194.4   5.4  34120  288.91 0854.29
2009/04/23 15:54:50.4    -174   -366     22    406    407 205.5   3.1  34126  289.00 0854.29
2009/04/23 15:54:50.5    -217   -516     27    560    561 202.8   2.8  34124  288.96 0854.29
2009/04/23 15:54:50.6    -233   -517    -62    568    572 204.3  -6.3  34128  289.03 0854.29
2009/04/23 15:54:50.7    -248   -320   -120    405    423 217.8 -16.5  34120  288.89 0854.29
2009/04/23 15:54:50.8      22   -545   -194    546    580 177.7 -19.6  34134  289.12 0854.29
2009/04/23 15:54:50.9    -117   -351   -228    371    435 198.5 -38.8  34120  288.90 0854.29
2009/04/23 15:54:51.0    -161   -393   -154    425    452 202.3 -25.3  34126  289.00 0854.29
2009/04/23 15:54:51.1    -129   -436    -72    455    461 196.5  -9.0  34126  288.99 0854.29
2009/04/23 15:54:51.2     -83   -530    -58    537    541 189.0  -6.2  34128  289.02 0854.29
2009/04/23 15:54:51.3     -58   -492   -126    496    512 186.8 -14.3  34120  288.88 0854.30
2009/04/23 15:54:51.4    -153   -520     -3    542    543 196.4  -0.4  34122  288.94 0854.30
2009/04/23 15:54:51.5    -145   -528     71    548    553 195.4   7.5  34124  288.96 0854.30
2009/04/23 15:54:51.6      -4   -557    211    558    596 180.5  21.6  34122  288.92 0854.30
2009/04/23 15:54:51.7     -61   -659    -24    663    664 185.4  -2.1  34122  288.92 0854.30
2009/04/23 15:54:51.8     -60   -643    -89    647    654 185.4  -7.9  34120  288.89 0854.30
2009/04/23 15:54:51.9     -24   -520   -114    521    534 182.7 -12.4  34122  288.94 0854.30
2009/04/23 15:54:52.0       3   -558    -49    559    562 179.6  -5.1  34122  288.94 0854.30
2009/04/23 15:54:52.1     -77   -537    -83    543    550 188.2  -8.7  34116  288.84 0854.30
2009/04/23 15:54:52.2    -238   -593    -49    640    642 201.9  -4.4  34116  288.84 0854.30
2009/04/23 15:54:52.3    -307   -521   -195    605    636 210.5 -17.9  34126  288.98 0854.30
2009/04/23 15:54:52.4    -243   -556    -56    607    610 203.6  -5.4  34118  288.86 0854.30
2009/04/23 15:54:52.5    -325   -450   -153    556    577 215.9 -15.4  34128  289.02 0854.30
2009/04/23 15:54:52.6    -299   -543   -160    620    641 208.9 -14.5  34118  288.86 0854.30
2009/04/23 15:54:52.7    -348   -482   -167    595    619 215.8 -15.7  34112  288.75 0854.30
2009/04/23 15:54:52.8    -321   -385   -145    502    522 219.8 -20.9  34112  288.76 0854.30
2009/04/23 15:54:52.9    -162   -296   -110    338    355 208.7 -23.2  34118  288.86 0854.30
2009/04/23 15:54:53.0    -107   -352    -89    369    380 197.0 -13.7  34112  288.76 0854.30
2009/04/23 15:54:53.1     -73   -432   -152    439    464 189.6 -24.3  34118  288.87 0854.30
2009/04/23 15:54:53.2    -146   -305   -215    339    401 205.7 -39.9  34110  288.74 0854.30
2009/04/23 15:54:53.3    -167   -121   -161    207    262 234.1 -46.1  34106  288.66 0854.25
2009/04/23 15:54:53.4    -139    -72   -208    157    260 242.5 -63.8  34132  289.09 0854.25
2009/04/23 15:54:53.5    -171     13   -115    172    206 274.6 -41.4  34128  289.04 0854.25
2009/04/23 15:54:53.6      23      4   -141     24    143  80.3 -90.0  34146  289.33 0854.25
2009/04/23 15:54:53.7     134   -139   -175    194    261 136.1 -51.3  34136  289.17 0854.25
2009/04/23 15:54:53.8     358   -228   -253    425    494 122.5 -37.9  34110  288.74 0854.25
2009/04/23 15:54:53.9     243   -222    -96    330    343 132.4 -21.0  34110  288.74 0854.25
2009/04/23 15:54:54.0     239   -178    -86    299    311 126.6 -20.7  34108  288.70 0854.25
2009/04/23 15:54:54.1     185   -210    -95    281    296 138.6 -23.3  34116  288.83 0854.25
2009/04/23 15:54:54.2     304   -191    -37    360    362 122.1  -5.9  34114  288.79 0854.25
2009/04/23 15:54:54.3     193   -176     84    262    276 132.3  17.9  34118  288.87 0854.25
2009/04/23 15:54:54.4     243   -356     28    432    433 145.7   3.8  34110  288.73 0854.25
2009/04/23 15:54:54.5      79   -505    120    512    526 171.1  13.2  34118  288.85 0854.25
2009/04/23 15:54:54.6      83   -517     65    524    529 170.8   7.1  34114  288.80 0854.25
2009/04/23 15:54:54.7     -14   -453    106    454    467 181.8  13.1  34116  288.83 0854.25
2009/04/23 15:54:54.8    -154   -392     25    422    423 201.5   3.5  34112  288.75 0854.25
2009/04/23 15:54:54.9    -180   -335    -30    381    383 208.2  -4.6  34114  288.79 0854.25
2009/04/23 15:54:55.0    -279   -405     32    493    494 214.6   3.7  34110  288.71 0854.25
2009/04/23 15:54:55.1    -283   -342    -75    445    452 219.6  -9.6  34102  288.58 0854.25
2009/04/23 15:54:55.2    -257   -361    -59    444    448 215.4  -7.7  34112  288.77 0854.25
2009/04/23 15:54:55.3    -165   -341   -107    380    394 205.9 -20.4  34104  288.64 0854.30
2009/04/23 15:54:55.4      32   -293    -85    295    307 173.7 -20.8  34118  288.85 0854.30
2009/04/23 15:54:55.5      46   -308     -3    312    313 171.5  -0.7  34118  288.85 0854.30
2009/04/23 15:54:55.6      42   -407     61    410    415 174.0   8.5  34118  288.87 0854.30
2009/04/23 15:54:55.7       7   -420     70    421    427 179.0   9.5  34126  289.00 0854.30
2009/04/23 15:54:55.8      84   -518    161    525    550 170.8  17.0  34124  288.96 0854.30
2009/04/23 15:54:55.9      34   -464    182    466    500 175.8  22.5  34126  288.98 0854.30
2009/04/23 15:54:56.0     -89   -443    225    452    504 191.4  28.4  34120  288.90 0854.30
2009/04/23 15:54:56.1    -196   -215    101    292    310 222.4  19.1  34128  289.03 0854.30
2009/04/23 15:54:56.2     -49    -77    122     92    152 212.5  59.4  34138  289.21 0854.30
2009/04/23 15:54:56.3     -83   -178      0    197    198 205.2   0.0  34130  289.06 0854.30
2009/04/23 15:54:56.4    -120    -83     18    147    149 235.4   7.1  34126  288.99 0854.30
2009/04/23 15:54:56.5      -6    -50     67     51     84 187.1  59.0  34136  289.16 0854.30
2009/04/23 15:54:56.6      41   -125     82    132    155 161.7  35.5  34130  289.06 0854.30
2009/04/23 15:54:56.7      88   -171    138    193    237 152.8  39.1  34126  289.01 0854.30
2009/04/23 15:54:56.8      25   -270    225    272    353 174.7  43.7  34130  289.07 0854.30
2009/04/23 15:54:56.9     -60   -233    218    241    324 194.5  46.8  34132  289.09 0854.30
2009/04/23 15:54:57.0     -33   -403    141    405    428 184.7  20.0  34130  289.05 0854.30
2009/04/23 15:54:57.1     -37   -314    159    317    354 186.9  28.7  34134  289.13 0854.30
2009/04/23 15:54:57.2     -43   -305    201    309    368 188.1  35.9  34130  289.06 0854.30
2009/04/23 15:54:57.3     -80   -359    321    368    488 192.6  45.5  34122  288.92 0854.27
2009/04/23 15:54:57.4    -140   -377    364    403    543 200.5  46.8  34120  288.91 0854.27
2009/04/23 15:54:57.5      -2   -210    275    211    346 180.7  58.7  34132  289.09 0854.27
2009/04/23 15:54:57.6      39   -275    213    278    350 171.9  41.3  34124  288.95 0854.27
2009/04/23 15:54:57.7      41   -384    274    387    474 173.8  38.7  34132  289.11 0854.27
2009/04/23 15:54:57.8      49   -448    352    451    572 173.7  41.9  34126  288.99 0854.27
2009/04/23 15:54:57.9     108   -715    206    724    753 171.4  15.9  34136  289.18 0854.27
2009/04/23 15:54:58.0      -6   -448    104    449    461 180.8  13.1  34122  288.94 0854.27
2009/04/23 15:54:58.1      65   -363   -140    369    394 169.8 -26.2  34128  289.04 0854.27
2009/04/23 15:54:58.2      48   -428   -133    431    451 173.5 -22.1  34134  289.14 0854.27
2009/04/23 15:54:58.3     -33   -339   -101    341    355 185.6 -21.5  34132  289.11 0854.24
2009/04/23 15:54:58.4     -23   -305     -6    306    307 184.4  -1.3  34136  289.15 0854.24
2009/04/23 15:54:58.5      61   -227    118    236    263 164.9  28.2  34136  289.15 0854.24
2009/04/23 15:54:58.6      68   -398    -61    404    409 170.2  -8.7  34130  289.07 0854.24
2009/04/23 15:54:58.7     145   -535     11    555    556 164.8   1.2  34140  289.23 0854.24
2009/04/23 15:54:58.8      18   -467     31    468    470 177.8   3.9  34140  289.23 0854.24
2009/04/23 15:54:58.9      24   -424   -105    425    438 176.8 -13.9  34138  289.19 0854.24
2009/04/23 15:54:59.0     -23   -356   -172    357    396 183.7 -32.1  34132  289.11 0854.24
2009/04/23 15:54:59.1     -49   -530   -150    533    554 185.4 -15.8  34140  289.23 0854.24
2009/04/23 15:54:59.2    -123   -394   -118    414    430 197.4 -20.7  34136  289.17 0854.24
2009/04/23 15:54:59.3      27   -408   -161    409    439 176.2 -27.2  34136  289.16 0854.24
2009/04/23 15:54:59.4    -122   -446   -145    463    485 195.4 -22.4  34132  289.10 0854.24
2009/04/23 15:54:59.5     -50   -539    -98    542    551 185.4 -10.3  34138  289.21 0854.24
2009/04/23 15:54:59.6    -131   -275    -95    305    320 205.5 -17.3  34140  289.24 0854.24
2009/04/23 15:54:59.7    -304   -277    -60    412    417 227.7  -8.4  34136  289.17 0854.24
2009/04/23 15:54:59.8    -356   -306    -56    470    474 229.4  -6.9  34142  289.25 0854.24
2009/04/23 15:54:59.9    -461   -317    -66    560    564 235.5  -6.8  34138  289.19 0854.24
2009/04/23 15:55:00.0    -268   -322     52    420    424 219.8   7.1  34120  288.90 0854.24
2009/04/23 15:55:00.1     -88   -355    100    366    380 194.1  15.3  34136  289.15 0854.24
2009/04/23 15:55:00.2    -234   -247     11    341    342 223.5   1.9  34136  289.16 0854.19
2009/04/23 15:55:00.3     -99   -208     51    231    237 205.6  12.6  34138  289.19 0854.19
2009/04/23 15:55:00.4     -69   -146    -84    162    182 205.5 -34.2  34128  289.02 0854.19
2009/04/23 15:55:00.5    -103    -34    -51    109    120 251.4 -31.5  34122  288.94 0854.19
2009/04/23 15:55:00.6    -180     33     57    184    193 280.6  17.3  34136  289.18 0854.19
2009/04/23 15:55:00.7    -200     98     23    223    225 296.2   6.1  34138  289.19 0854.19
2009/04/23 15:55:00.8    -239    -98     13    259    260 247.6   2.9  34144  289.31 0854.19
2009/04/23 15:55:00.9    -275    -83    -36    288    291 253.1  -7.2  34132  289.10 0854.19
2009/04/23 15:55:01.0    -431   -121   -250    448    513 254.3 -36.0  34104  288.62 0854.19
2009/04/23 15:55:01.1    -577   -103   -284    587    652 259.9 -32.1  34116  288.84 0854.19
2009/04/23 15:55:01.2    -316     -4    -33    317    319 269.1  -6.1  34130  289.07 0854.19
2009/04/23 15:55:01.3    -325   -267   -139    421    444 230.6 -18.3  34132  289.09 0854.19
2009/04/23 15:55:01.4    -650   -216    -62    685    688 251.6  -5.2  34126  289.00 0854.19
2009/04/23 15:55:01.5    -585   -127   -196    599    631 257.7 -18.2  34122  288.93 0854.19
2009/04/23 15:55:01.6    -655    -78   -261    660    709 263.1 -27.1  34126  288.99 0854.19
2009/04/23 15:55:01.7    -641   -385   -130    748    760 239.0  -9.9  34138  289.21 0854.19
2009/04/23 15:55:01.8    -673   -120   -215    684    716 259.9 -22.4  34126  289.01 0854.19
2009/04/23 15:55:01.9    -614     45   -175    616    640 274.3 -20.5  34132  289.11 0854.19
2009/04/23 15:55:02.0    -640     86   -170    646    669 277.7 -14.8  34142  289.27 0854.19
2009/04/23 15:55:02.1    -874     68   -252    877    913 274.5 -16.0  34126  288.99 0854.19
2009/04/23 15:55:02.2    -713   -360    -62    799    802 243.2  -4.5  34126  288.98 0854.13
2009/04/23 15:55:02.3    -777    -42   -220    779    810 266.9 -15.8  34124  288.95 0854.13
2009/04/23 15:55:02.4    -511    -71     14    517    518 262.0   1.6  34142  289.27 0854.13
2009/04/23 15:55:02.5    -383   -350   -127    519    535 227.6 -13.8  34134  289.13 0854.13
2009/04/23 15:55:02.6    -205   -384    -28    436    437 208.1  -3.7  34124  288.97 0854.13
2009/04/23 15:55:02.7    -286   -203    -48    351    355 234.6  -7.9  34122  288.93 0854.13
2009/04/23 15:55:02.8    -201   -143     21    248    249 234.5   5.0  34138  289.19 0854.13
2009/04/23 15:55:02.9    -231    -96     99    251    269 247.4  22.8  34136  289.15 0854.13
2009/04/23 15:55:03.0    -145     10    156    146    213 274.3  52.0  34130  289.08 0854.13
2009/04/23 15:55:03.1     -16   -347    185    348    394 182.8  30.2  34128  289.03 0854.13
2009/04/23 15:55:03.2      18   -598    172    599    624 178.2  16.0  34126  289.01 0854.13
2009/04/23 15:55:03.3      53   -428    156    432    460 172.9  19.9  34120  288.90 0854.13
2009/04/23 15:55:03.4      -8   -276     24    277    279 181.8   5.0  34116  288.83 0854.13
2009/04/23 15:55:03.5      37   -483     -1    485    486 175.6  -0.2  34132  289.10 0854.13
2009/04/23 15:55:03.6     144   -533    -12    553    554 164.9  -1.3  34128  289.02 0854.13
2009/04/23 15:55:03.7     308   -439    -78    537    543 145.0  -8.3  34116  288.82 0854.13
2009/04/23 15:55:03.8     243   -380      2    452    453 147.4   0.4  34128  289.02 0854.13
2009/04/23 15:55:03.9     231   -374    106    440    453 148.3  13.6  34126  288.99 0854.13
2009/04/23 15:55:04.0     106   -444     71    457    463 166.5   8.9  34134  289.14 0854.13
2009/04/23 15:55:04.1     -24   -225    157    227    276 186.2  38.0  34136  289.17 0854.13
2009/04/23 15:55:04.2     -34   -157    156    161    224 192.5  49.4  34134  289.13 0854.09
2009/04/23 15:55:04.3      69   -356     33    363    365 168.9   5.3  34136  289.16 0854.09
2009/04/23 15:55:04.4       7   -301    -16    302    303 178.6  -3.1  34142  289.27 0854.09
2009/04/23 15:55:04.5     -21   -276    136    277    308 184.4  28.0  34136  289.15 0854.09
2009/04/23 15:55:04.6     221   -297    217    371    429 143.4  33.1  34142  289.27 0854.09
2009/04/23 15:55:04.7     147   -185    159    237    285 141.5  37.3  34144  289.31 0854.09
2009/04/23 15:55:04.8      41   -212    258    217    337 168.9  55.8  34150  289.39 0854.09
2009/04/23 15:55:04.9      10   -278    174    279    328 177.8  35.0  34148  289.36 0854.09
2009/04/23 15:55:05.0     -52   -365    190    369    415 188.1  29.3  34154  289.48 0854.09
2009/04/23 15:55:05.1     -16   -348    221    349    413 182.8  35.5  34160  289.57 0854.09
2009/04/23 15:55:05.2     -82   -350     94    360    373 193.3  14.6  34156  289.50 0854.09
2009/04/23 15:55:05.3     -60   -237    127    245    275 194.3  29.5  34156  289.49 0854.09
2009/04/23 15:55:05.4     -19   -175    204    177    270 186.2  54.8  34162  289.59 0854.09
2009/04/23 15:55:05.5     -53   -206    170    213    272 194.7  42.7  34152  289.44 0854.09
2009/04/23 15:55:05.6     -57   -261    186    268    326 192.5  38.3  34148  289.37 0854.09
2009/04/23 15:55:05.7     -66   -255    207    264    335 194.5  42.2  34158  289.54 0854.09
2009/04/23 15:55:05.8      17   -336    227    337    406 177.1  37.3  34144  289.30 0854.09
2009/04/23 15:55:05.9      72   -303    261    312    406 166.6  44.1  34158  289.55 0854.09
2009/04/23 15:55:06.0      61   -299    212    306    372 168.4  38.3  34152  289.42 0854.09
2009/04/23 15:55:06.1      73   -306    199    315    372 166.6  35.5  34152  289.42 0854.09
2009/04/23 15:55:06.2     212   -226    192    311    365 136.8  34.8  34154  289.47 0854.12
2009/04/23 15:55:06.3     208   -221    206    304    367 136.8  37.4  34172  289.76 0854.12
2009/04/23 15:55:06.4     230   -270    151    355    385 139.6  24.5  34146  289.35 0854.12
2009/04/23 15:55:06.5     155   -280    183    321    369 151.0  32.4  34152  289.42 0854.12
2009/04/23 15:55:06.6     169   -217    168    276    323 142.2  34.3  34150  289.39 0854.12
2009/04/23 15:55:06.7     141   -291    226    324    395 154.1  38.5  34150  289.40 0854.12
2009/04/23 15:55:06.8     139   -339    193    367    414 157.6  30.2  34152  289.42 0854.12
2009/04/23 15:55:06.9     122   -279    228    305    380 156.4  40.4  34172  289.76 0854.12
2009/04/23 15:55:07.0     197   -265    144    331    360 143.3  25.0  34172  289.77 0854.12
2009/04/23 15:55:07.1     189   -296    148    352    381 147.4  24.2  34162  289.59 0854.12
2009/04/23 15:55:07.2     200   -227    112    303    323 138.6  21.1  34152  289.44 0854.12
2009/04/23 15:55:07.3     226   -343    143    411    435 146.6  20.0  34144  289.31 0854.12
2009/04/23 15:55:07.4     156   -281    216    322    387 151.0  37.2  34142  289.25 0854.12
2009/04/23 15:55:07.5     110   -242    221    266    345 155.5  43.8  34156  289.49 0854.12
2009/04/23 15:55:07.6     157   -332    183    368    410 154.7  28.4  34142  289.28 0854.12
2009/04/23 15:55:07.7     262   -222    223    344    409 130.3  35.9  34146  289.35 0854.12
2009/04/23 15:55:07.8     146   -265    264    303    401 151.1  45.6  34158  289.54 0854.12
2009/04/23 15:55:07.9     -89   -197    204    217    297 204.3  48.0  34160  289.58 0854.12
2009/04/23 15:55:08.0       0   -149     74    150    167 180.0  28.0  34154  289.46 0854.12
2009/04/23 15:55:08.1     -42   -126    194    134    235 198.7  62.1  34164  289.63 0854.12
2009/04/23 15:55:08.2     -49   -141    209    150    257 199.2  60.8  34156  289.52 0854.17
2009/04/23 15:55:08.3     -79   -168    148    186    237 205.4  42.7  34144  289.31 0854.17
2009/04/23 15:55:08.4      29      5    168     30    170  80.3  90.0  34164  289.65 0854.17
2009/04/23 15:55:08.5    -159     41    115    165    201 284.6  38.4  34172  289.79 0854.17
2009/04/23 15:55:08.6     -68     83     69    108    128 320.3  35.5  34170  289.74 0854.17
2009/04/23 15:55:08.7    -151    136     72    204    217 312.0  19.6  34170  289.75 0854.17
2009/04/23 15:55:08.8    -123     57     94    136    165 295.2  38.0  34166  289.69 0854.17
2009/04/23 15:55:08.9    -227    141    172    268    318 301.8  35.7  34186  290.00 0854.17
2009/04/23 15:55:09.0    -160    130    110    207    234 309.1  30.3  34184  289.99 0854.17
2009/04/23 15:55:09.1    -215     61     97    224    244 285.9  24.9  34194  290.14 0854.17
2009/04/23 15:55:09.2     -32     68     54     76     93 334.5  39.1  34180  289.92 0854.17
2009/04/23 15:55:09.3    -100     38     13    108    109 290.8   6.9  34166  289.67 0854.17
2009/04/23 15:55:09.4    -161     59    -14    172    173 290.4  -4.9  34170  289.74 0854.17
2009/04/23 15:55:09.5    -178     55     19    187    189 287.3   6.1  34164  289.63 0854.17
2009/04/23 15:55:09.6    -203    -29     10    206    207 261.6   2.8  34170  289.75 0854.17
2009/04/23 15:55:09.7    -135    139    -82    194    210 315.9 -28.7  34154  289.48 0854.17
2009/04/23 15:55:09.8    -132     78      0    154    155 300.7   0.2  34160  289.57 0854.17
2009/04/23 15:55:09.9    -177     -4     -5    178    179 268.5  -1.6  34168  289.70 0854.17
2009/04/23 15:55:10.0    -277   -121    -21    303    304 246.4  -4.1  34172  289.78 0854.17
2009/04/23 15:55:10.1    -263    -37    -18    266    267 262.0  -3.9  34156  289.51 0854.17
2009/04/23 15:55:10.2    -430     26      6    431    432 273.5   0.8  34156  289.51 0854.21
2009/04/23 15:55:10.3    -480    -28      0    481    482 266.6   0.0  34152  289.44 0854.21
2009/04/23 15:55:10.4    -516   -245    -39    572    574 244.6  -3.9  34170  289.75 0854.21
2009/04/23 15:55:10.5    -425   -194   -167    468    498 245.4 -19.7  34138  289.20 0854.21
2009/04/23 15:55:10.6    -378      0   -115    379    396 270.0 -21.8  34136  289.15 0854.21
2009/04/23 15:55:10.7    -407    163    -74    439    446 291.9  -9.6  34148  289.38 0854.21
2009/04/23 15:55:10.8    -309    115    -43    330    333 290.5  -7.5  34152  289.42 0854.21
2009/04/23 15:55:10.9     -95     58    -68    112    131 301.5 -38.8  34154  289.46 0854.21
2009/04/23 15:55:11.0    -113    -62     25    129    132 241.2  11.1  34158  289.55 0854.21
2009/04/23 15:55:11.1       8    -24    108     26    111 161.7  86.9  34160  289.57 0854.21
2009/04/23 15:55:11.2    -265   -262    132    373    395 225.4  20.2  34176  289.84 0854.21
2009/04/23 15:55:11.4    -289   -187     50    345    349 237.1   8.3  34178  289.89 0854.21
2009/04/23 15:55:11.4    -212   -167     95    270    286 231.8  20.0  34178  289.86 0854.21
2009/04/23 15:55:11.5    -260     57     78    267    279 282.4  16.3  34174  289.80 0854.21
2009/04/23 15:55:11.6    -233    143   -109    274    294 301.6 -27.4  34130  289.05 0854.21
2009/04/23 15:55:11.7    -320    115   -158    341    375 289.8 -31.0  34134  289.13 0854.21
2009/04/23 15:55:11.8     -30   -112    199    116    230 195.1  67.2  34158  289.53 0854.21
2009/04/23 15:55:11.9    -272   -301    268    406    486 222.1  36.5  34160  289.58 0854.21
2009/04/23 15:55:12.0    -474   -253     19    538    539 241.9   2.1  34152  289.43 0854.21
2009/04/23 15:55:12.1    -420   -250    -74    489    495 239.3  -8.7  34142  289.28 0854.21
2009/04/23 15:55:12.2    -431   -237   -110    492    505 241.2 -12.6  34156  289.52 0854.28
2009/04/23 15:55:12.4    -345   -153     93    378    390 246.1  13.8  34176  289.84 0854.28
2009/04/23 15:55:12.5       4   -297     -5    298    299 179.1  -1.1  34164  289.63 0854.28
2009/04/23 15:55:12.5     -10   -514     18    515    516 181.2   2.1  34150  289.39 0854.28
2009/04/23 15:55:12.7     -17   -449    -63    450    455 182.2  -8.0  34154  289.48 0854.28
2009/04/23 15:55:12.7      55   -449    -43    453    456 172.9  -5.5  34140  289.24 0854.28
2009/04/23 15:55:12.9      73   -453   -115    459    474 170.8 -14.1  34136  289.17 0854.28
2009/04/23 15:55:13.0    -151   -387    -64    416    421 201.4  -8.8  34160  289.56 0854.28
2009/04/23 15:55:13.1      27   -409    -78    410    418 176.1 -10.8  34150  289.41 0854.28
2009/04/23 15:55:13.2       0   -494   -106    495    507 179.9 -12.2  34140  289.23 0854.28
2009/04/23 15:55:13.3       3   -391   -124    392    412 179.5 -17.6  34136  289.17 0854.28
2009/04/23 15:55:13.4       9   -374   -126    375    395 178.6 -23.6  34126  288.99 0854.28
2009/04/23 15:55:13.5     125     -9     24    126    129  94.3  11.1  34112  288.77 0854.28
2009/04/23 15:55:13.6     225    112    253    252    357  63.4  50.1  34156  289.51 0854.28
2009/04/23 15:55:13.7     121   -114    119    167    205 133.3  39.1  34146  289.35 0854.28
2009/04/23 15:55:13.8       4   -287   -154    288    326 179.1 -34.9  34138  289.20 0854.28
2009/04/23 15:55:13.9      47   -277   -147    282    318 170.3 -34.0  34128  289.03 0854.28
2009/04/23 15:55:14.0     269   -192    -99    331    346 125.5 -16.6  34136  289.15 0854.28
2009/04/23 15:55:14.1     305   -389   -138    495    513 141.9 -20.2  34142  289.27 0854.28
2009/04/23 15:55:14.2     220   -426    -67    480    485 152.7  -8.0  34132  289.10 0854.28
2009/04/23 15:55:14.3     351   -283    -57    451    455 128.9  -7.3  34140  289.22 0854.28
2009/04/23 15:55:14.4     242   -324    -82    405    414 143.2 -11.5  34142  289.27 0854.28
2009/04/23 15:55:14.5     161   -336      9    373    374 154.3   1.5  34142  289.28 0854.28
2009/04/23 15:55:14.6     187   -245    -12    309    310 142.6  -2.2  34136  289.15 0854.28
2009/04/23 15:55:14.7     251   -406    135    478    497 148.3  15.8  34144  289.30 0854.28
2009/04/23 15:55:14.8     200   -420     93    466    476 154.5  11.3  34166  289.67 0854.28
2009/04/23 15:55:14.9     328   -423    -77    536    542 142.2  -8.2  34144  289.31 0854.28
2009/04/23 15:55:15.0     328   -432    -11    543    544 142.8  -1.3  34146  289.33 0854.28
2009/04/23 15:55:15.1     373   -329     46    498    501 131.5   5.3  34134  289.13 0854.28
2009/04/23 15:55:15.2     398   -283     46    489    492 125.4   5.5  34132  289.10 0854.28
2009/04/23 15:55:15.3     356   -234     79    427    435 123.3  10.6  34134  289.12 0854.28
2009/04/23 15:55:15.4     334   -163     99    372    386 116.1  15.0  34142  289.25 0854.28
2009/04/23 15:55:15.5     299   -176     54    348    353 120.5   8.9  34138  289.21 0854.28
2009/04/23 15:55:15.6     301   -213     83    369    379 125.3  12.8  34146  289.32 0854.28
2009/04/23 15:55:15.7     341   -226     56    410    414 123.5   7.9  34146  289.34 0854.28
2009/04/23 15:55:15.8     263   -301     48    400    403 138.9   6.9  34150  289.41 0854.28
2009/04/23 15:55:15.9     277   -255     21    377    378 132.6   3.3  34154  289.48 0854.28
2009/04/23 15:55:16.0     285   -199     10    348    349 124.9   1.7  34166  289.67 0854.28
2009/04/23 15:55:16.1     361   -193     12    410    411 118.1   1.7  34172  289.78 0854.28
2009/04/23 15:55:16.2     347   -204    -38    403    405 120.5  -5.5  34168  289.70 0854.28
2009/04/23 15:55:16.3     192   -301    -24    358    359 147.4  -3.9  34156  289.52 0854.30
2009/04/23 15:55:16.4     242   -176    -76    300    310 126.0 -14.3  34164  289.63 0854.30
2009/04/23 15:55:16.5     422    -71     26    429    430  99.6   3.5  34180  289.92 0854.30
2009/04/23 15:55:16.6     317     76    170    327    368  76.5  29.5  34192  290.11 0854.30
2009/04/23 15:55:16.7     187    154     76    243    255  50.5  17.4  34198  290.20 0854.30
2009/04/23 15:55:16.8     226    104     41    250    254  65.2   9.5  34194  290.15 0854.30
2009/04/23 15:55:16.9     110     32    155    115    193  73.6  60.0  34216  290.53 0854.30
2009/04/23 15:55:17.0      77     -3    188     78    203  92.6  76.6  34240  290.94 0854.30
2009/04/23 15:55:17.1      51   -120    186    131    227 156.8  61.5  34220  290.58 0854.30
2009/04/23 15:55:17.2     116   -187    120    221    251 148.1  31.0  34206  290.36 0854.30
2009/04/23 15:55:17.3     218   -174     91    279    294 128.6  18.1  34210  290.41 0854.30
2009/04/23 15:55:17.4     317   -182     46    366    369 119.9   7.2  34208  290.38 0854.30
2009/04/23 15:55:17.5     157   -240     51    288    293 146.8  10.1  34218  290.54 0854.30
2009/04/23 15:55:17.6     218    -49     27    224    226 102.8   7.1  34222  290.62 0854.30
2009/04/23 15:55:17.7     144    -33    -53    148    158 103.2 -19.7  34232  290.79 0854.30
2009/04/23 15:55:17.8     100     68    -38    122    128  55.8 -17.6  34234  290.84 0854.30
2009/04/23 15:55:17.9      75     24     47     79     91  72.3  34.0  34280  291.62 0854.30
2009/04/23 15:55:18.0      59    -24    108     64    125 112.6  66.7  34330  292.47 0854.30
2009/04/23 15:55:18.1     109    -16     77    111    135  98.4  37.6  34286  291.72 0854.30
2009/04/23 15:55:18.2      32   -134    141    138    197 166.6  50.7  34282  291.64 0854.30
2009/04/23 15:55:18.3      22      0    137     23    138  90.0  90.0  34310  292.12 0854.31
2009/04/23 15:55:18.4       6   -349    289    350    453 179.0  43.7  34232  290.80 0854.31
2009/04/23 15:55:18.5      91   -264    224    280    358 160.9  42.7  34182  289.94 0854.31
2009/04/23 15:55:18.6     163   -313    234    353    423 152.5  36.5  34176  289.84 0854.31
2009/04/23 15:55:18.7     161   -294    170    336    376 151.3  29.1  34172  289.79 0854.31
2009/04/23 15:55:18.8     106   -242    193    265    327 156.4  39.8  34180  289.90 0854.31
2009/04/23 15:55:18.9     127   -232    200    265    332 151.3  40.7  34186  290.00 0854.31
2009/04/23 15:55:19.0     150   -241    186    285    340 148.1  36.0  34178  289.88 0854.31
2009/04/23 15:55:19.1     117   -229    178    258    313 152.8  38.0  34174  289.81 0854.31
2009/04/23 15:55:19.2     109   -249    150    273    311 156.3  31.3  34162  289.59 0854.31
2009/04/23 15:55:19.3     102   -167    172    196    260 148.6  45.8  34182  289.93 0854.25
2009/04/23 15:55:19.4      41   -104    152    113    189 158.2  60.0  34182  289.96 0854.25
2009/04/23 15:55:19.5      30   -143    156    147    214 168.0  51.6  34192  290.11 0854.25
2009/04/23 15:55:19.6      10    -31    102     33    107 161.3  80.7  34192  290.13 0854.25
2009/04/23 15:55:19.7      50    -41    127     65    142 129.5  70.8  34192  290.11 0854.25
2009/04/23 15:55:19.8      82    -42    123     93    154 117.5  59.0  34206  290.36 0854.25
2009/04/23 15:55:19.9      81     26    169     86    189  72.3  71.4  34210  290.43 0854.25
2009/04/23 15:55:20.0      12    -38    123     41    129 161.7  81.0  34206  290.36 0854.25
2009/04/23 15:55:20.1      62   -328    189    334    383 169.3  32.0  34154  289.47 0854.25
2009/04/23 15:55:20.2     -25   -201    197    203    282 187.1  49.4  34154  289.46 0854.25
2009/04/23 15:55:20.3      76    -53     88     93    128 125.1  48.5  34158  289.55 0854.25
2009/04/23 15:55:20.4     127   -105    105    165    195 129.6  35.5  34166  289.69 0854.25
2009/04/23 15:55:20.5      32    -97    105    103    147 161.7  50.2  34170  289.74 0854.25
2009/04/23 15:55:20.6       9    -25     99     27    102 160.0  84.8  34184  289.99 0854.25
2009/04/23 15:55:20.7      -5    -17    123     18    124 198.5  90.0  34196  290.18 0854.25
2009/04/23 15:55:20.8      -7    -38    198     39    201 191.6  89.4  34180  289.92 0854.25
2009/04/23 15:55:20.9     -16   -152    174    153    231 186.2  54.3  34146  289.33 0854.25
2009/04/23 15:55:21.0      61    -21    115     65    132 109.1  68.3  34174  289.82 0854.25
2009/04/23 15:55:21.1      32    -67    144     75    162 154.7  70.6  34166  289.69 0854.25
2009/04/23 15:55:21.2      81   -300    156    311    347 164.8  28.5  34164  289.64 0854.25
2009/04/23 15:55:21.3      64   -275    127    283    310 166.7  25.9  34156  289.49 0854.30
2009/04/23 15:55:21.4      99   -210     99    233    253 154.6  24.2  34144  289.29 0854.30
2009/04/23 15:55:21.5     132   -183    -19    226    227 144.2  -4.9  34142  289.28 0854.30
2009/04/23 15:55:21.6     121   -182     30    219    222 146.4   7.8  34140  289.23 0854.30
2009/04/23 15:55:21.7     112   -171     91    205    224 146.6  25.3  34144  289.30 0854.30
2009/04/23 15:55:21.8     117   -161     71    200    212 144.0  20.2  34142  289.28 0854.30
2009/04/23 15:55:21.9     111    -66     -7    130    131 120.7  -3.2  34142  289.26 0854.30
2009/04/23 15:55:22.0      62    -91     -4    111    112 145.7  -2.2  34142  289.26 0854.30
2009/04/23 15:55:22.1      94   -136    -17    166    167 145.5  -6.0  34140  289.23 0854.30
2009/04/23 15:55:22.2     166   -132     -8    213    214 128.6  -2.2  34138  289.21 0854.30
2009/04/23 15:55:22.3     219   -122    -51    251    257 119.1 -11.6  34140  289.22 0854.30
2009/04/23 15:55:22.4     215   -167     20    273    274 127.8   4.2  34138  289.19 0854.30
2009/04/23 15:55:22.5     213   -123     94    247    264 120.0  21.7  34134  289.12 0854.30
2009/04/23 15:55:22.6      99    -72     38    123    129 125.9  17.3  34144  289.31 0854.30
2009/04/23 15:55:22.7      86    -59    -22    105    108 124.2 -11.9  34142  289.28 0854.30
2009/04/23 15:55:22.8      42   -106    -36    115    121 158.2 -17.5  34140  289.23 0854.30
2009/04/23 15:55:22.9      64    -88    -38    109    116 144.0 -19.6  34140  289.24 0854.30
2009/04/23 15:55:23.0      49   -129    -16    139    140 159.1  -6.7  34146  289.35 0854.30
2009/04/23 15:55:23.1      20    -81    -75     84    112 166.2 -51.3  34148  289.36 0854.30
2009/04/23 15:55:23.2      23   -115   -140    118    183 168.5 -60.0  34148  289.36 0854.30
2009/04/23 15:55:23.3     140   -169   -127    220    254 140.4 -36.8  34140  289.22 0854.20
2009/04/23 15:55:23.4     191   -190   -111    270    291 134.9 -27.8  34142  289.25 0854.20
2009/04/23 15:55:23.5      99   -191   -111    216    242 152.6 -33.7  34142  289.27 0854.20
2009/04/23 15:55:23.6     133   -175    -98    220    240 142.8 -30.1  34138  289.19 0854.20
2009/04/23 15:55:23.7     156   -116    -79    195    210 126.6 -27.5  34140  289.24 0854.20
2009/04/23 15:55:23.8      84    -28     20     89     92 108.6  12.6  34138  289.21 0854.20
2009/04/23 15:55:23.9      70     24     49     75     89  70.9  36.0  34140  289.23 0854.20
2009/04/23 15:55:24.0      84     16     41     86     95  79.0  27.2  34142  289.28 0854.20
2009/04/23 15:55:24.1      84    -25     55     88    103 106.8  35.5  34150  289.40 0854.20
2009/04/23 15:55:24.2     209     18     -2    210    211  85.0  -0.7  34134  289.13 0854.20
2009/04/23 15:55:24.3     324    -51    107    329    347  99.0  18.0  34128  289.03 0854.20
2009/04/23 15:55:24.4     189    -33     17    193    194 100.1   5.2  34132  289.11 0854.20
2009/04/23 15:55:24.5     182     -9    -15    183    184  93.0  -4.9  34136  289.18 0854.20
2009/04/23 15:55:24.6     217   -108    -77    243    254 116.6 -22.8  34140  289.22 0854.20
2009/04/23 15:55:24.7     200    -54   -123    208    241 105.3 -37.9  34138  289.19 0854.20
2009/04/23 15:55:24.8     102    -76    -99    128    161 126.9 -46.1  34138  289.21 0854.20
2009/04/23 15:55:24.9      68   -143   -152    159    219 154.6 -53.1  34140  289.23 0854.20
2009/04/23 15:55:25.0      33   -140   -121    144    188 166.6 -48.5  34140  289.23 0854.20
2009/04/23 15:55:25.1       7    -91    -80     92    121 175.5 -50.2  34144  289.30 0854.20
2009/04/23 15:55:25.2      36   -111    -44    117    125 161.7 -25.4  34138  289.21 0854.20
2009/04/23 15:55:25.3      61   -120    -56    135    146 152.8 -27.5  34140  289.23 0854.20
2009/04/23 15:55:25.4      92     -6     13     93     94  94.3   8.0  34136  289.16 0854.20
2009/04/23 15:55:25.5      12    -38     -8     41     42 161.5 -11.3  34136  289.16 0854.20
2009/04/23 15:55:25.6      56    -70    -32     90     95 141.3 -23.8  34138  289.19 0854.20
2009/04/23 15:55:25.7     126   -122    -54    176    185 134.2 -17.0  34136  289.18 0854.20
2009/04/23 15:55:25.8     138   -138     89    196    215 135.0  26.2  34136  289.16 0854.20
2009/04/23 15:55:25.9      72   -207    115    220    248 160.8  29.8  34140  289.24 0854.20
2009/04/23 15:55:26.0     113   -254     65    279    287 155.9  13.2  34136  289.17 0854.20
2009/04/23 15:55:26.1     112   -231     40    257    261 154.1   9.0  34134  289.14 0854.20
2009/04/23 15:55:26.2     176   -205     42    271    275 139.5   8.8  34128  289.03 0854.20
2009/04/23 15:55:26.3     157   -205     41    259    263 142.6   9.0  34124  288.97 0854.20
2009/04/23 15:55:26.4     118   -261    -15    287    288 155.7  -3.2  34130  289.05 0854.20
2009/04/23 15:55:26.5     141   -307     14    338    339 155.3   2.5  34126  288.98 0854.20
2009/04/23 15:55:26.6     169   -318    -19    361    362 152.0  -3.0  34126  289.01 0854.20
2009/04/23 15:55:26.7     145   -304    -31    337    339 154.5  -5.3  34130  289.08 0854.20
2009/04/23 15:55:26.8     121   -272    -50    298    303 155.9  -9.6  34122  288.93 0854.20
2009/04/23 15:55:26.9     114   -251    -76    276    287 155.5 -15.4  34122  288.93 0854.20
2009/04/23 15:55:27.0     139   -219    -59    260    267 147.5 -12.9  34128  289.03 0854.20
2009/04/23 15:55:27.1     136   -238    -50    275    280 150.2 -10.4  34130  289.05 0854.20
2009/04/23 15:55:27.2     137   -290    -23    321    322 154.7  -4.1  34114  288.80 0854.20
2009/04/23 15:55:27.3     137   -287     -9    319    320 154.5  -1.7  34114  288.78 0854.17
2009/04/23 15:55:27.4     137   -290    -23    321    322 154.7  -4.1  34114  288.80 0854.17
2009/04/23 15:55:27.5     105   -297      2    316    317 160.4   0.4  34114  288.80 0854.17
2009/04/23 15:55:27.6      97   -279     36    296    299 160.8   7.1  34114  288.78 0854.17
2009/04/23 15:55:27.7     135   -264     -1    297    298 152.9  -0.3  34114  288.78 0854.17
2009/04/23 15:55:27.8     121   -256     33    284    286 154.7   6.7  34114  288.80 0854.17
2009/04/23 15:55:27.9     101   -255     13    275    276 158.4   2.8  34122  288.93 0854.17
2009/04/23 15:55:28.0     106   -245    -24    268    270 156.6  -5.2  34122  288.92 0854.17
2009/04/23 15:55:28.1     116   -212      9    242    243 151.3   2.3  34122  288.92 0854.17
2009/04/23 15:55:28.2     122   -192    -33    228    231 147.5  -8.3  34116  288.82 0854.17
2009/04/23 15:55:28.3     137   -153    -57    206    213 138.3 -20.2  34126  288.99 0854.17
2009/04/23 15:55:28.4     126   -104    -28    164    167 129.5  -9.8  34128  289.04 0854.17
2009/04/23 15:55:28.5     131    -72     12    150    151 118.9   4.9  34126  288.99 0854.17
2009/04/23 15:55:28.6      64    -26      9     70     71 111.8   8.0  34128  289.02 0854.17
2009/04/23 15:55:28.7      41    -65     28     78     82 147.5  20.4  34128  289.02 0854.17
2009/04/23 15:55:28.8      23    -81     29     85     90 164.0  18.9  34126  289.01 0854.17
2009/04/23 15:55:28.9       6    -84     30     85     91 175.6  19.4  34134  289.13 0854.17
2009/04/23 15:55:29.0     -17   -121      5    123    124 188.0   2.3  34152  289.43 0854.17
2009/04/23 15:55:29.1     -26   -129     11    132    133 191.5   4.9  34156  289.50 0854.17
2009/04/23 15:55:29.2       0   -126     -4    127    128 180.4  -2.2  34148  289.38 0854.17
2009/04/23 15:55:29.3     -22    -87      8     90     91 194.7   5.4  34154  289.48 0854.23
2009/04/23 15:55:29.4     -63    -75    -19     99    101 220.1 -11.3  34154  289.48 0854.23
2009/04/23 15:55:29.5     -51    -92    -52    106    118 209.0 -32.2  34150  289.40 0854.23
2009/04/23 15:55:29.6     -14    -45      5     48     49 197.8   6.9  34152  289.43 0854.23
2009/04/23 15:55:29.7      -6    -40     19     41     45 188.9  27.2  34154  289.46 0854.23
2009/04/23 15:55:29.8     -21    -85     46     88     99 194.3  30.3  34148  289.38 0854.23
2009/04/23 15:55:29.9       3   -212      6    213    214 179.1   1.8  34146  289.33 0854.23
2009/04/23 15:55:30.0     -45   -185    -46    191    197 193.8 -13.7  34142  289.28 0854.23
2009/04/23 15:55:30.1     -46   -193     53    199    207 193.6  15.0  34142  289.28 0854.23
2009/04/23 15:55:30.2     -46   -189     70    195    207 193.8  20.7  34142  289.28 0854.23
2009/04/23 15:55:30.3     -82   -138     68    161    174 210.7  24.3  34144  289.30 0854.23
2009/04/23 15:55:30.4     -89   -167     77    190    205 208.1  23.1  34142  289.28 0854.23
2009/04/23 15:55:30.5     -99   -137     55    170    179 215.8  18.1  34142  289.28 0854.23
2009/04/23 15:55:30.6     -59   -178     89    188    208 198.5  27.1  34148  289.36 0854.23
2009/04/23 15:55:30.7     -21   -176     90    178    199 186.9  29.1  34150  289.41 0854.23
2009/04/23 15:55:30.8     -28   -264     98    266    283 186.3  21.0  34142  289.27 0854.23
2009/04/23 15:55:30.9     -26   -257    122    259    286 186.0  27.1  34142  289.25 0854.23
2009/04/23 15:55:31.0       0   -190    115    191    222 180.2  34.0  34144  289.31 0854.23
2009/04/23 15:55:31.1      27   -174     95    177    200 171.1  30.6  34142  289.26 0854.23
2009/04/23 15:55:31.2      14   -178     69    179    191 175.3  22.3  34140  289.24 0854.22
2009/04/23 15:55:31.3      -8   -174     65    175    186 182.7  21.5  34140  289.24 0854.22
2009/04/23 15:55:31.4      14   -308    142    309    340 177.4  26.4  34134  289.13 0854.22
2009/04/23 15:55:31.5      91   -311     66    325    332 163.7  11.6  34130  289.06 0854.22
2009/04/23 15:55:31.6     110   -263    125    286    312 157.3  25.0  34124  288.97 0854.22
2009/04/23 15:55:31.7      84   -225    124    241    271 159.5  29.3  34138  289.19 0854.22
2009/04/23 15:55:31.8      84   -299    139    311    340 164.2  25.7  34136  289.18 0854.22
2009/04/23 15:55:31.9     105   -325    187    342    389 162.1  31.3  34136  289.16 0854.22
2009/04/23 15:55:32.0     156   -271    142    313    343 150.1  26.2  34130  289.08 0854.22
2009/04/23 15:55:32.1     254   -214    -77    333    342 130.2 -13.1  34132  289.10 0854.22
2009/04/23 15:55:32.2     158   -265    -69    309    317 149.2 -12.7  34134  289.14 0854.22
2009/04/23 15:55:32.3     167   -172    -48    240    245 135.9 -11.5  34128  289.03 0854.22
2009/04/23 15:55:32.4      30   -214    179    217    281 172.0  43.8  34138  289.19 0854.22
2009/04/23 15:55:32.5      82   -204    149    221    266 158.1  37.3  34134  289.14 0854.22
2009/04/23 15:55:32.6      77   -208    101    222    243 159.7  26.2  34140  289.22 0854.22
2009/04/23 15:55:32.7      55   -194     94    202    222 164.0  27.1  34134  289.14 0854.22
2009/04/23 15:55:32.8      17   -225    137    226    264 175.5  34.4  34138  289.20 0854.22
2009/04/23 15:55:32.9      79   -171    134    189    231 155.3  38.8  34140  289.24 0854.22
2009/04/23 15:55:33.0      58   -134    104    147    180 156.4  38.8  34136  289.16 0854.22
2009/04/23 15:55:33.1       4    -96     69     97    119 177.3  39.1  34138  289.21 0854.22
2009/04/23 15:55:33.2      16   -102     28    104    108 171.1  15.3  34138  289.19 0854.26
2009/04/23 15:55:33.3     -42    -88     49     98    109 205.4  28.2  34134  289.14 0854.26
2009/04/23 15:55:33.4     -74   -186     84    201    217 201.8  23.8  34128  289.04 0854.26
2009/04/23 15:55:33.5     -45   -201     63    207    217 192.7  17.1  34134  289.14 0854.26
2009/04/23 15:55:33.6       4   -141     -5    142    143 178.2  -2.2  34138  289.19 0854.26
2009/04/23 15:55:33.7      39   -110     52    117    128 160.4  25.2  34136  289.18 0854.26
2009/04/23 15:55:33.8      62   -227     77    236    249 164.6  18.1  34136  289.15 0854.26
2009/04/23 15:55:33.9      62   -227    101    236    256 164.6  24.3  34136  289.17 0854.26
2009/04/23 15:55:34.0       2   -166    132    167    212 179.3  42.2  34132  289.11 0854.26
2009/04/23 15:55:34.1      65   -233     16    242    243 164.4   3.9  34136  289.15 0854.26
2009/04/23 15:55:34.2      62   -247    -46    255    260 165.7 -10.3  34136  289.15 0854.26
2009/04/23 15:55:34.3      74   -221    -10    234    235 161.5  -2.6  34140  289.22 0854.26
2009/04/23 15:55:34.4      41   -197    -40    202    207 168.2 -11.3  34140  289.23 0854.26
2009/04/23 15:55:34.5      43   -265     78    269    281 170.7  16.3  34142  289.27 0854.26
2009/04/23 15:55:34.6      13   -282     72    283    293 177.3  14.3  34156  289.49 0854.26
2009/04/23 15:55:34.7    -134   -192    135    235    271 215.0  32.4  34166  289.68 0854.26
2009/04/23 15:55:34.8    -101   -247     33    267    270 202.3   7.1  34172  289.76 0854.26
2009/04/23 15:55:34.9     -38   -272    -19    275    276 188.0  -4.1  34170  289.73 0854.26
2009/04/23 15:55:35.0     -64   -194    -29    205    208 198.3  -8.2  34168  289.70 0854.26
2009/04/23 15:55:35.1     -84   -141     -1    165    166 210.7  -0.5  34174  289.80 0854.26
2009/04/23 15:55:35.2     -96    -79    -18    125    127 230.5  -8.2  34186  290.02 0854.31
2009/04/23 15:55:35.3     -44    -73     42     86     95 211.2  27.8  34184  289.99 0854.31
2009/04/23 15:55:35.4     -26    -97    -32    101    105 195.1 -23.3  34166  289.69 0854.31
2009/04/23 15:55:35.5      -9    -68     14     69     71 188.0  12.2  34156  289.50 0854.31
2009/04/23 15:55:35.6     -35    -94     46    101    110 200.5  26.6  34156  289.50 0854.31
2009/04/23 15:55:35.7     -61    -33     47     70     84 241.1  36.5  34162  289.62 0854.31
2009/04/23 15:55:35.8       2     35     51     36     62   4.5  60.6  34178  289.87 0854.31
2009/04/23 15:55:35.9      20     97     90    100    134  11.6  46.9  34164  289.65 0854.31
2009/04/23 15:55:36.0     -79     83    158    115    195 316.3  60.5  34160  289.58 0854.31
2009/04/23 15:55:36.1    -108     45     44    118    125 292.6  21.0  34172  289.77 0854.31
2009/04/23 15:55:36.2    -117     74     -3    139    140 302.4  -1.3  34176  289.84 0854.31
2009/04/23 15:55:36.3    -135     29     36    139    144 282.4  14.7  34172  289.77 0854.31
2009/04/23 15:55:36.4     -79    -45     62     92    110 240.2  37.0  34170  289.75 0854.31
2009/04/23 15:55:36.5      31     31     72     45     84  45.1  64.7  34174  289.82 0854.31
2009/04/23 15:55:36.6     -21     63     86     67    109 341.7  57.9  34176  289.84 0854.31
2009/04/23 15:55:36.7     -20     75     54     78     94 344.9  37.6  34172  289.77 0854.31
2009/04/23 15:55:36.8     -60     33     28     69     74 298.8  23.0  34174  289.80 0854.31
2009/04/23 15:55:36.9     -52     32     49     62     79 301.5  42.7  34172  289.77 0854.31
2009/04/23 15:55:37.0     -80     50     36     95    101 302.4  21.5  34160  289.57 0854.31
2009/04/23 15:55:37.1     -32     29     76     44     87 312.2  67.2  34168  289.72 0854.31
2009/04/23 15:55:37.2     -22      9     74     24     77 293.5  80.7  34174  289.80 0854.26
2009/04/23 15:55:37.3     -36   -118     73    124    143 197.0  33.5  34152  289.43 0854.26
2009/04/23 15:55:37.4     -52   -111     98    123    157 205.4  42.7  34150  289.41 0854.26
2009/04/23 15:55:37.5     -14   -154     65    155    168 185.3  24.1  34146  289.35 0854.26
2009/04/23 15:55:37.6     -19   -135     49    137    145 188.1  20.0  34146  289.35 0854.26
2009/04/23 15:55:37.7     -12   -123     56    124    136 185.8  26.2  34148  289.38 0854.26
2009/04/23 15:55:37.8      -7    -98     67     99    119 184.4  37.6  34152  289.45 0854.26
2009/04/23 15:55:37.9      21    -67     78     71    105 162.2  52.7  34156  289.52 0854.26
2009/04/23 15:55:38.0      81     15    104     83    133  79.0  56.9  34158  289.55 0854.26
2009/04/23 15:55:38.1      91     -4    102     92    137  93.0  52.7  34164  289.63 0854.26
2009/04/23 15:55:38.2     123    -28     91    127    156 103.2  39.1  34160  289.58 0854.26
2009/04/23 15:55:38.3      97    -43    108    107    152 114.0  50.1  34162  289.60 0854.26
2009/04/23 15:55:38.4     159      2    122    160    201  89.1  41.4  34172  289.79 0854.26
2009/04/23 15:55:38.5     137     69     83    154    174  63.0  30.6  34226  290.69 0854.26
2009/04/23 15:55:38.6     158     81     62    178    189  62.9  19.4  34266  291.37 0854.26
2009/04/23 15:55:38.7     139     46     26    147    150  71.4  10.1  34212  290.47 0854.26
2009/04/23 15:55:38.8     165     83     64    185    196  63.1  19.2  34248  291.06 0854.26
2009/04/23 15:55:39.0     238     91    117    255    280  69.1  26.2  34224  290.66 0854.26
2009/04/23 15:55:39.0     246     60     69    254    264  76.3  15.3  34170  289.73 0854.26
2009/04/23 15:55:39.2     190     77     95    206    226  67.8  26.6  34154  289.48 0854.26
2009/04/23 15:55:39.2     159     97    128    187    226  58.7  37.6  34152  289.43 0854.24
2009/04/23 15:55:39.3     196     85    118    214    244  66.5  31.3  34152  289.42 0854.24
2009/04/23 15:55:39.5     253    177     83    310    321  55.0  15.0  34142  289.25 0854.24
2009/04/23 15:55:39.6     300    140     80    332    342  65.0  13.6  34158  289.54 0854.24
2009/04/23 15:55:39.7     235    184    -87    299    311  52.0 -21.2  34172  289.78 0854.24
2009/04/23 15:55:39.8     312    126      5    337    338  67.9   0.9  34260  291.27 0854.24
2009/04/23 15:55:39.9     370     10     80    371    380  88.4  12.3  34244  291.01 0854.24
2009/04/23 15:55:40.0     319     40     25    322    324  82.8   4.6  34274  291.51 0854.24
2009/04/23 15:55:40.1     330    -12     60    331    337  92.1  10.3  34266  291.37 0854.24
2009/04/23 15:55:40.2     431    -76    198    438    480 100.1  26.0  34276  291.54 0854.24
2009/04/23 15:55:40.3     416    -95    214    427    477 102.9  28.7  34258  291.24 0854.13
2009/04/23 15:55:40.4     367    -56     89    372    383  98.8  13.5  34288  291.73 0854.13
2009/04/23 15:55:40.5     428    -80     52    436    440 100.6   6.9  34252  291.14 0854.13
2009/04/23 15:55:40.6     367   -113    -65    385    391 107.2  -9.6  34226  290.69 0854.13
2009/04/23 15:55:40.7     327    -73    112    336    355 102.6  18.5  34268  291.42 0854.13
2009/04/23 15:55:40.8     282   -246    -76    375    383 131.0 -11.5  34234  290.84 0854.13
2009/04/23 15:55:40.9     277   -261     -2    381    382 133.3  -0.4  34268  291.40 0854.13
2009/04/23 15:55:41.0     192   -300    -56    357    362 147.4  -9.0  34248  291.05 0854.13
2009/04/23 15:55:41.1     133   -326    -56    353    358 157.7  -9.1  34238  290.88 0854.13
2009/04/23 15:55:41.2     148   -343     16    374    375 156.6   2.5  34228  290.72 0854.13
2009/04/23 15:55:41.3      -8   -457    161    458    486 181.1  19.4  34262  291.32 0854.13
2009/04/23 15:55:41.4      35   -470     73    472    478 175.7   8.9  34228  290.71 0854.13
2009/04/23 15:55:41.5       0   -415     73    416    423 180.1  10.0  34220  290.58 0854.13
2009/04/23 15:55:41.6      33   -433    104    435    448 175.5  13.5  34184  289.99 0854.13
2009/04/23 15:55:41.7       1   -419    195    420    463 179.8  27.0  34164  289.63 0854.13
2009/04/23 15:55:41.8     128   -440    165    459    487 163.7  20.6  34130  289.05 0854.13
2009/04/23 15:55:41.9     138   -497    178    516    546 164.4  19.1  34132  289.09 0854.13
2009/04/23 15:55:42.0     225   -374     -8    437    438 149.0  -1.2  34152  289.43 0854.13
2009/04/23 15:55:42.1     162   -436     85    466    474 159.6  10.4  34130  289.08 0854.13
2009/04/23 15:55:42.2     114   -447    173    462    493 165.6  21.5  34138  289.20 0854.13
2009/04/23 15:55:42.3      70   -449    188    455    492 171.1  23.6  34140  289.22 0854.15
2009/04/23 15:55:42.4     -20   -461    149    462    486 182.6  17.9  34138  289.20 0854.15
2009/04/23 15:55:42.5       2   -465     35    466    468 179.7   4.4  34134  289.12 0854.15
2009/04/23 15:55:42.6      53   -482     19    486    487 173.7   2.3  34130  289.08 0854.15
2009/04/23 15:55:42.7      18   -424     12    425    426 177.5   1.7  34134  289.12 0854.15
2009/04/23 15:55:42.8     -11   -501    -93    502    511 181.3 -10.5  34136  289.18 0854.15
2009/04/23 15:55:42.9      27   -601   -125    602    616 177.4 -11.8  34140  289.24 0854.15
2009/04/23 15:55:43.0      41   -490      6    492    493 175.1   0.7  34142  289.27 0854.15
2009/04/23 15:55:43.1       6   -425    -31    426    428 179.2  -4.2  34142  289.27 0854.15
2009/04/23 15:55:43.2       7   -411    -52    412    416 179.0  -7.3  34154  289.46 0854.15
2009/04/23 15:55:43.3     -98   -414   -118    426    443 193.4 -15.5  34158  289.55 0854.15
2009/04/23 15:55:43.4     -20   -436     13    437    438 182.7   1.8  34148  289.38 0854.15
2009/04/23 15:55:43.5     -26   -573    -94    574    582 182.6  -9.4  34146  289.34 0854.15
2009/04/23 15:55:43.6    -146   -525   -115    546    559 195.6 -11.9  34148  289.36 0854.15
2009/04/23 15:55:43.7    -105   -496    -60    508    512 192.0  -6.8  34146  289.34 0854.15
2009/04/23 15:55:43.8    -130   -483   -124    501    517 195.1 -13.9  34114  288.78 0854.15
2009/04/23 15:55:43.9     -81   -461   -141    469    490 190.0 -16.8  34100  288.54 0854.15
2009/04/23 15:55:44.0     -48   -442   -103    445    457 186.2 -13.1  34110  288.73 0854.15
2009/04/23 15:55:44.1      72   -387   -124    394    414 169.4 -17.5  34116  288.83 0854.15
2009/04/23 15:55:44.2      51   -327     20    332    333 171.1   3.5  34116  288.81 0854.15
2009/04/23 15:55:44.3       1   -366     18    367    368 179.8   2.9  34116  288.82 0854.20
2009/04/23 15:55:44.4      25   -514     78    515    521 177.2   8.7  34126  288.99 0854.20
2009/04/23 15:55:44.5      69   -628     48    632    634 173.7   4.4  34122  288.93 0854.20
2009/04/23 15:55:44.6      59   -684    -91    687    694 175.0  -7.6  34118  288.85 0854.20
2009/04/23 15:55:44.7      54   -699   -100    702    710 175.5  -8.1  34104  288.62 0854.20
2009/04/23 15:55:44.8     168   -744    -56    763    765 167.2  -4.2  34118  288.87 0854.20
2009/04/23 15:55:44.9     125   -665   -137    677    691 169.3 -11.5  34112  288.75 0854.20
2009/04/23 15:55:45.0      56   -591   -196    594    626 174.6 -18.3  34108  288.69 0854.20
2009/04/23 15:55:45.1      24   -543   -153    544    565 177.4 -20.4  34106  288.67 0854.20
2009/04/23 15:55:45.2      41   -480   -150    482    505 175.0 -17.3  34106  288.66 0854.20
2009/04/23 15:55:45.3      77   -498   -176    504    535 171.2 -19.3  34110  288.74 0854.20
2009/04/23 15:55:45.4      56   -456   -143    460    481 172.9 -22.3  34110  288.71 0854.20
2009/04/23 15:55:45.5     137   -447   -165    468    496 163.0 -24.5  34110  288.74 0854.20
2009/04/23 15:55:45.6      74   -411   -190    418    459 169.8 -30.6  34120  288.89 0854.20
2009/04/23 15:55:45.7      48   -422   -165    425    455 173.4 -26.8  34126  288.99 0854.20
2009/04/23 15:55:45.8      79   -458   -126    465    482 170.1 -15.2  34116  288.84 0854.20
2009/04/23 15:55:45.9     104   -441   -144    454    477 166.7 -17.6  34120  288.88 0854.20
2009/04/23 15:55:46.0     104   -415   -115    428    444 165.9 -15.1  34110  288.72 0854.20
2009/04/23 15:55:46.1      81   -402   -115    411    427 168.5 -15.7  34110  288.73 0854.20
2009/04/23 15:55:46.2      28   -460   -114    461    475 176.5 -13.9  34116  288.83 0854.20
2009/04/23 15:55:46.3     -41   -544   -146    546    566 184.4 -15.0  34118  288.87 0854.26
2009/04/23 15:55:46.4      11   -593   -120    594    606 178.9 -11.5  34112  288.76 0854.26
2009/04/23 15:55:46.5      59   -566    -76    570    576 174.0  -7.6  34116  288.81 0854.26
2009/04/23 15:55:46.6     107   -614   -168    624    647 170.1 -15.1  34112  288.76 0854.26
2009/04/23 15:55:46.7      68   -606   -177    610    636 173.5 -16.2  34116  288.81 0854.26
2009/04/23 15:55:46.8    -110   -648   -205    658    689 189.7 -22.3  34114  288.78 0854.26
2009/04/23 15:55:46.9     -74   -576   -127    581    595 187.4 -12.4  34112  288.75 0854.26
2009/04/23 15:55:47.0      90   -578    -18    586    587 171.1  -1.8  34110  288.71 0854.26
2009/04/23 15:55:47.1     -23   -584    -32    585    586 182.3  -3.2  34114  288.78 0854.26
2009/04/23 15:55:47.2     -75   -556    -40    561    563 187.7  -4.1  34110  288.74 0854.26
2009/04/23 15:55:47.3      -8   -539    -19    540    541 180.9  -2.1  34104  288.63 0854.26
2009/04/23 15:55:47.4     -31   -535     27    536    537 183.4   2.9  34106  288.67 0854.26
2009/04/23 15:55:47.5     -44   -517     62    520    524 184.9   6.9  34108  288.70 0854.26
2009/04/23 15:55:47.6     -31   -491     67    492    497 183.6   7.8  34110  288.74 0854.26
2009/04/23 15:55:47.7     -15   -500     47    501    504 181.8   5.5  34120  288.88 0854.26
2009/04/23 15:55:47.8       6   -493     25    494    495 179.3   3.0  34120  288.91 0854.26
2009/04/23 15:55:47.9     -47   -486     20    489    490 185.6   2.4  34112  288.76 0854.26
2009/04/23 15:55:48.0    -107   -451     -5    464    465 193.4  -0.7  34116  288.83 0854.26
2009/04/23 15:55:48.1     -41   -407    -34    410    412 185.8  -4.8  34122  288.92 0854.26
2009/04/23 15:55:48.2     -69   -385    -28    392    393 190.2  -4.1  34120  288.91 0854.26
2009/04/23 15:55:48.3     -80   -326   -126    336    358 193.9 -25.9  34116  288.84 0854.32
2009/04/23 15:55:48.4      46   -361   -190    364    410 172.7 -34.2  34130  289.06 0854.32
2009/04/23 15:55:48.5      80   -431   -155    439    465 169.4 -24.5  34124  288.97 0854.32
2009/04/23 15:55:48.6      -3   -381    -34    382    384 180.5  -5.1  34130  289.08 0854.32
2009/04/23 15:55:48.7    -138   -338     12    366    367 202.2   1.9  34138  289.20 0854.32
2009/04/23 15:55:48.8    -175   -180     47    252    257 224.1  10.6  34138  289.20 0854.32
2009/04/23 15:55:48.9    -144    -48    108    152    186 251.6  39.3  34140  289.24 0854.32
2009/04/23 15:55:49.0    -178     12     48    179    186 274.1  15.0  34138  289.21 0854.32
2009/04/23 15:55:49.1     -68   -105    180    126    219 213.0  61.5  34154  289.46 0854.32
2009/04/23 15:55:49.2     -76   -375    197    383    430 191.5  29.3  34128  289.04 0854.32
2009/04/23 15:55:49.3     -25   -510    102    511    522 182.9  11.3  34130  289.08 0854.32
2009/04/23 15:55:49.4       2   -547    102    548    558 179.8  10.6  34126  288.99 0854.32
2009/04/23 15:55:49.5    -112   -554     79    566    572 191.5   8.0  34128  289.03 0854.32
2009/04/23 15:55:49.6     -25   -551     98    552    561 182.7  10.1  34124  288.97 0854.32
2009/04/23 15:55:49.7    -147   -502    136    524    542 196.3  14.6  34126  288.99 0854.32
2009/04/23 15:55:49.8      -7   -579    205    580    616 180.7  19.5  34134  289.14 0854.32
2009/04/23 15:55:49.9      65   -545    247    549    602 173.1  26.0  34126  289.00 0854.32
2009/04/23 15:55:50.0      69   -501     40    506    508 172.1   4.6  34130  289.06 0854.32
2009/04/23 15:55:50.1     201   -391     63    440    445 152.7   8.2  34130  289.05 0854.32
2009/04/23 15:55:50.2     227   -411    118    470    485 151.1  14.2  34118  288.86 0854.32
2009/04/23 15:55:50.3     115   -309    178    330    374 159.6  30.8  34126  289.01 0854.36
2009/04/23 15:55:50.4    -141   -149    347    206    403 223.4  66.7  34140  289.23 0854.36
2009/04/23 15:55:50.5    -212   -411    198    463    503 207.3  24.6  34126  289.00 0854.36
2009/04/23 15:55:50.6    -146   -376    139    404    428 201.3  19.1  34122  288.92 0854.36
2009/04/23 15:55:50.7     -92   -289     77    304    314 197.8  14.3  34124  288.97 0854.36
2009/04/23 15:55:50.8    -126   -251    -63    282    289 206.7 -12.6  34120  288.88 0854.36
2009/04/23 15:55:50.9     -96   -219     -1    240    241 203.8  -0.3  34124  288.95 0854.36
2009/04/23 15:55:51.0    -202   -183     28    273    275 227.8   6.0  34126  289.00 0854.36
2009/04/23 15:55:51.1    -240   -271    -72    363    371 221.5 -11.2  34126  288.99 0854.36
2009/04/23 15:55:51.2    -424   -276    -83    507    514 236.9  -9.3  34126  289.00 0854.36
2009/04/23 15:55:51.3    -378   -274    -85    468    476 234.0 -10.4  34126  289.01 0854.36
2009/04/23 15:55:51.4    -322   -236     29    400    402 233.8   4.2  34126  288.98 0854.36
2009/04/23 15:55:51.5    -407   -248     30    477    478 238.6   3.6  34136  289.15 0854.36
2009/04/23 15:55:51.6    -423   -250    -32    492    493 239.4  -3.7  34142  289.27 0854.36
2009/04/23 15:55:51.7    -239   -268   -123    360    381 221.7 -19.0  34128  289.04 0854.36
2009/04/23 15:55:51.8      38   -272   -215    275    349 172.0 -46.5  34112  288.76 0854.36
2009/04/23 15:55:51.9    -272   -154     62    313    320 240.5  11.3  34124  288.97 0854.36
2009/04/23 15:55:52.0    -469    -54     -4    473    474 263.4  -0.5  34154  289.47 0854.36
2009/04/23 15:55:52.1    -366   -224   -115    430    446 238.5 -15.0  34158  289.55 0854.36
2009/04/23 15:55:52.2    -239   -230   -117    332    353 226.1 -19.4  34168  289.71 0854.36
2009/04/23 15:55:52.3    -537   -176   -201    566    601 251.8 -19.6  34140  289.22 0854.39
2009/04/23 15:55:52.4    -267   -274   -147    383    410 224.3 -26.4  34146  289.33 0854.39
2009/04/23 15:55:52.5    -312   -148    -99    346    361 244.5 -16.0  34150  289.40 0854.39
2009/04/23 15:55:52.6     -77   -195   -159    210    263 201.6 -45.1  34132  289.09 0854.39
2009/04/23 15:55:52.7      -7    -26    111     27    114 195.1  85.9  34140  289.24 0854.39
2009/04/23 15:55:52.8     -10   -217     42    218    223 182.7  11.1  34162  289.60 0854.39
2009/04/23 15:55:52.9    -153   -348    -59    381    386 203.7  -8.9  34162  289.60 0854.39
2009/04/23 15:55:53.0    -373   -387   -197    538    572 223.9 -25.4  34140  289.23 0854.39
2009/04/23 15:55:53.1      21   -278   -203    279    345 175.6 -44.1  34142  289.27 0854.39
2009/04/23 15:55:53.2      41   -187   -166    192    253 167.5 -49.8  34142  289.27 0854.39
2009/04/23 15:55:53.3     -70   -192     41    205    210 200.1  11.4  34150  289.41 0854.39
2009/04/23 15:55:53.4      19   -166     30    168    171 173.3  10.3  34150  289.40 0854.39
2009/04/23 15:55:53.5     121   -211     25    244    246 150.1   5.9  34150  289.39 0854.39
2009/04/23 15:55:53.6     -53   -341     21    346    347 188.8   3.6  34148  289.38 0854.39
2009/04/23 15:55:53.7     -67   -355    -64    362    368 190.8 -10.1  34148  289.37 0854.39
2009/04/23 15:55:53.8    -183   -463    -56    498    502 201.6  -6.5  34142  289.25 0854.39
2009/04/23 15:55:53.9    -156   -469    -99    495    505 198.5 -11.3  34146  289.34 0854.39
2009/04/23 15:55:54.0       0   -436    -80    437    445 180.1 -10.4  34148  289.38 0854.39
2009/04/23 15:55:54.1      85   -407   -127    416    434 168.1 -21.8  34146  289.34 0854.39
2009/04/23 15:55:54.2      82   -435   -134    443    462 169.3 -21.7  34150  289.39 0854.39
2009/04/23 15:55:54.3     135   -408   -106    430    443 161.6 -13.9  34146  289.33 0854.42
2009/04/23 15:55:54.4     106   -338   -103    355    369 162.5 -21.2  34142  289.28 0854.42
2009/04/23 15:55:54.5      91   -404    -16    415    416 167.3  -2.3  34138  289.21 0854.42
2009/04/23 15:55:54.6      38   -305    -56    308    314 172.8 -10.4  34138  289.19 0854.42
2009/04/23 15:55:54.7     -30   -283     22    285    286 186.2   4.6  34134  289.12 0854.42
2009/04/23 15:55:54.8      22   -187     77    189    204 173.3  23.1  34138  289.19 0854.42
2009/04/23 15:55:54.9      47   -162    104    169    198 163.7  34.4  34142  289.26 0854.42
2009/04/23 15:55:55.0     133   -212     88    251    267 147.9  19.4  34140  289.22 0854.42
2009/04/23 15:55:55.1      60   -321     97    327    342 169.3  16.5  34140  289.23 0854.42
2009/04/23 15:55:55.2     -22   -293     79    294    305 184.4  15.2  34142  289.27 0854.42
2009/04/23 15:55:55.3    -113   -364     -7    382    383 197.3  -1.2  34140  289.23 0854.42
2009/04/23 15:55:55.4    -103   -364     74    379    387 195.9  11.1  34142  289.25 0854.42
2009/04/23 15:55:55.5     -67   -328    136    335    361 191.6  23.4  34142  289.26 0854.42
2009/04/23 15:55:55.6     -43   -293    217    297    367 188.5  39.8  34134  289.13 0854.42
2009/04/23 15:55:55.7     -15   -282    263    283    386 183.1  47.9  34146  289.32 0854.42
2009/04/23 15:55:55.8     -82   -268    334    281    436 197.0  55.8  34174  289.81 0854.42
2009/04/23 15:55:55.9    -110   -325    321    344    470 198.7  47.8  34190  290.07 0854.42
2009/04/23 15:55:56.0      13   -251    282    252    378 176.9  53.7  34172  289.79 0854.42
2009/04/23 15:55:56.1     -58   -287    401    294    497 191.6  60.5  34222  290.63 0854.42
2009/04/23 15:55:56.2      69   -265    254    274    373 165.3  47.9  34142  289.28 0854.42
2009/04/23 15:55:56.3      16   -274    162    275    319 176.6  33.1  34142  289.27 0854.42
2009/04/23 15:55:56.4      67   -216    217    227    314 162.6  48.7  34162  289.59 0854.42
2009/04/23 15:55:56.5      60    -64    198     89    217 136.8  74.5  34188  290.06 0854.42
2009/04/23 15:55:56.6     -70    -70    258    100    276 225.1  77.8  34196  290.17 0854.42
2009/04/23 15:55:56.7      29     -3    159     30    161  96.1  90.0  34244  290.99 0854.42
2009/04/23 15:55:56.8      47    -18    186     51    192 111.7  84.6  34234  290.84 0854.42
2009/04/23 15:55:56.9     -80     39    103     90    136 296.2  54.3  34236  290.86 0854.42
2009/04/23 15:55:57.0     -51     10    130     53    140 281.5  77.0  34222  290.62 0854.42
2009/04/23 15:55:57.1    -162     30    109    165    197 280.8  36.7  34206  290.36 0854.42
2009/04/23 15:55:57.2    -211   -245    115    324    343 220.8  20.3  34182  289.96 0854.42
2009/04/23 15:55:57.3    -282   -134      8    313    314 244.6   1.6  34182  289.95 0854.42
2009/04/23 15:55:57.4    -143   -225     13    267    268 212.5   2.9  34182  289.93 0854.42
2009/04/23 15:55:57.5     -52   -176    115    184    216 196.5  35.2  34184  289.99 0854.42
2009/04/23 15:55:57.6    -114   -133     41    176    181 220.8  13.2  34170  289.75 0854.42
2009/04/23 15:55:57.7    -128   -170    -16    214    215 217.0  -4.4  34160  289.58 0854.42
2009/04/23 15:55:57.8     -91   -113      7    146    147 218.7   2.8  34168  289.72 0854.42
2009/04/23 15:55:57.9     -77   -123     74    146    163 212.1  29.1  34170  289.75 0854.42
2009/04/23 15:55:58.0       3   -222    -61    223    232 179.0 -15.4  34166  289.67 0854.42
2009/04/23 15:55:58.1      76   -231      0    244    245 161.7   0.2  34166  289.66 0854.42
2009/04/23 15:55:58.2     203   -244     91    318    331 140.3  16.0  34158  289.54 0854.38
2009/04/23 15:55:58.3     126   -277    113    305    325 155.5  21.3  34158  289.54 0854.38
2009/04/23 15:55:58.4     271   -398    180    482    514 145.7  21.5  34134  289.12 0854.38
2009/04/23 15:55:58.5     330   -476     75    580    585 145.3   7.4  34138  289.20 0854.38
2009/04/23 15:55:58.6     260   -472    262    539    599 151.1  27.8  34116  288.83 0854.38
2009/04/23 15:55:58.7     168   -426    223    459    510 158.4  27.8  34122  288.93 0854.38
2009/04/23 15:55:58.8     -54   -386    370    390    537 188.1  48.4  34126  289.01 0854.38
2009/04/23 15:55:58.9    -115   -405    361    422    555 195.9  44.9  34132  289.10 0854.38
2009/04/23 15:55:59.0    -265   -316    132    413    434 220.0  17.8  34126  289.00 0854.38
2009/04/23 15:55:59.1    -264   -278    -17    384    385 223.5  -2.6  34126  289.01 0854.38
2009/04/23 15:55:59.2    -113   -307     -6    328    329 200.2  -1.2  34126  289.00 0854.38
2009/04/23 15:55:59.3    -157   -330    -11    366    367 205.5  -1.8  34122  288.93 0854.38
2009/04/23 15:55:59.4     -79   -462     26    469    470 189.7   3.3  34130  289.08 0854.38
2009/04/23 15:55:59.5      72   -292    192    301    357 166.0  35.6  34146  289.32 0854.38
2009/04/23 15:55:59.6      43   -367    202    370    421 173.2  31.0  34140  289.24 0854.38
2009/04/23 15:55:59.7     -14   -310    233    311    388 182.7  40.7  34142  289.25 0854.38
2009/04/23 15:55:59.8     -41   -263    148    267    305 188.9  31.4  34140  289.24 0854.38
2009/04/23 15:55:59.9      59   -391    137    396    420 171.3  19.1  34144  289.31 0854.38
2009/04/23 15:56:00.0      48   -500    180    503    534 174.4  20.4  34132  289.11 0854.38
2009/04/23 15:56:00.1      89   -566    215    574    612 171.0  21.5  34120  288.88 0854.38
2009/04/23 15:56:00.2     222   -703    182    738    761 162.5  13.9  34116  288.84 0854.36
2009/04/23 15:56:00.3     212   -542    114    583    595 158.6  11.1  34118  288.85 0854.36
2009/04/23 15:56:00.4     258   -434    107    505    517 149.3  12.0  34110  288.71 0854.36
2009/04/23 15:56:00.5     362   -390    214    533    574 137.1  23.0  34112  288.77 0854.36
2009/04/23 15:56:00.6     314   -467    211    563    601 146.1  21.5  34146  289.32 0854.36
2009/04/23 15:56:00.7     312   -488    154    580    601 147.4  14.9  34134  289.12 0854.36
2009/04/23 15:56:00.8     388   -499    211    633    668 142.1  18.4  34124  288.96 0854.36
2009/04/23 15:56:00.9     121   -480    182    495    527 165.8  21.0  34152  289.44 0854.36
2009/04/23 15:56:01.0     244   -528    225    582    623 155.2  22.2  34136  289.17 0854.36
2009/04/23 15:56:01.1     309   -290    130    424    444 133.2  17.0  34144  289.31 0854.36
2009/04/23 15:56:01.2     134   -251    144    285    319 151.9  28.9  34146  289.32 0854.38
2009/04/23 15:56:01.3      17   -445     39    446    448 177.8   5.1  34148  289.36 0854.38
2009/04/23 15:56:01.4    -126   -621    108    634    644 191.5   9.7  34142  289.26 0854.38
2009/04/23 15:56:01.5     -81   -697     27    702    703 186.7   2.2  34134  289.13 0854.38
2009/04/23 15:56:01.6    -186   -612     49    640    642 196.9   4.4  34132  289.11 0854.38
2009/04/23 15:56:01.7     -50   -542    -61    545    549 185.3  -6.5  34136  289.18 0854.38
2009/04/23 15:56:01.8      94   -567   -121    575    588 170.6 -11.9  34134  289.12 0854.38
2009/04/23 15:56:01.9     101   -592   -217    601    638 170.3 -25.2  34136  289.18 0854.38
2009/04/23 15:56:02.0     -32   -721   -228    722    758 182.6 -17.6  34136  289.18 0854.38
2009/04/23 15:56:02.1     -13   -611    -59    612    616 181.3  -5.6  34130  289.07 0854.38
2009/04/23 15:56:02.2      11   -737    -54    738    740 179.1  -4.2  34130  289.06 0854.38
2009/04/23 15:56:02.3    -205   -765    -48    793    795 195.1  -3.5  34144  289.30 0854.38
2009/04/23 15:56:02.4    -215   -568    -39    608    610 200.8  -3.7  34132  289.10 0854.38
2009/04/23 15:56:02.5      45   -437    156    440    466 174.1  20.2  34132  289.09 0854.38
2009/04/23 15:56:02.6      64   -162    231    175    289 158.4  59.0  34136  289.15 0854.38
2009/04/23 15:56:02.7     360   -224    192    425    466 121.9  26.0  34136  289.16 0854.38
2009/04/23 15:56:02.8     310   -240    148    393    419 127.8  21.6  34140  289.22 0854.38
2009/04/23 15:56:02.9      19   -162    278    164    322 173.1  66.8  34144  289.29 0854.38
2009/04/23 15:56:03.0      -3   -338    299    339    452 180.6  45.9  34138  289.19 0854.38
2009/04/23 15:56:03.1     -43   -311    252    315    403 188.0  42.8  34134  289.13 0854.38
2009/04/23 15:56:03.2    -103   -231    234    254    345 204.1  47.6  34126  289.00 0854.39
2009/04/23 15:56:03.3     -40   -235    197    239    309 189.8  43.7  34132  289.09 0854.39
2009/04/23 15:56:03.4    -153   -322    150    357    387 205.5  24.1  34126  289.01 0854.39
2009/04/23 15:56:03.5      13   -244    293    245    381 176.9  56.2  34124  288.96 0854.39
2009/04/23 15:56:03.6      19   -288    330    289    438 176.2  54.3  34122  288.93 0854.39
2009/04/23 15:56:03.7      45   -381    262    384    464 173.2  37.6  34130  289.07 0854.39
2009/04/23 15:56:03.8     102   -426    311    439    537 166.5  39.0  34126  289.00 0854.39
2009/04/23 15:56:03.9      47   -512    231    515    564 174.7  25.8  34130  289.07 0854.39
2009/04/23 15:56:04.0      70   -535    251    540    595 172.5  26.9  34118  288.86 0854.39
2009/04/23 15:56:04.1     173   -380    332    418    533 155.5  42.4  34120  288.90 0854.39
2009/04/23 15:56:04.2      68   -439    351    445    566 171.2  42.3  34120  288.91 0854.39
2009/04/23 15:56:04.3      63   -308    327    315    454 168.4  51.2  34128  289.04 0854.39
2009/04/23 15:56:04.4      63   -309    282    316    423 168.4  46.4  34128  289.04 0854.39
2009/04/23 15:56:04.5     118   -255    235    282    367 155.1  43.8  34136  289.16 0854.39
2009/04/23 15:56:04.6     102   -281    220    300    372 160.0  39.8  34126  289.01 0854.39
2009/04/23 15:56:04.7      45   -524    260    527    587 175.0  28.2  34120  288.89 0854.39
2009/04/23 15:56:04.8      43   -565    269    567    627 175.6  27.2  34136  289.17 0854.39
2009/04/23 15:56:04.9     114   -593    363    604    704 169.1  33.8  34122  288.92 0854.39
2009/04/23 15:56:05.0      -1   -581    562    582    809 180.1  49.0  34144  289.31 0854.39
2009/04/23 15:56:05.1     213   -313    344    379    511 145.7  46.9  34142  289.28 0854.39
2009/04/23 15:56:05.2     -77   -619    422    624    753 187.1  37.4  34118  288.86 0854.38
2009/04/23 15:56:05.3    -127   -623    569    637    854 191.6  46.3  34120  288.90 0854.38
2009/04/23 15:56:05.4    -103   -507    384    518    644 191.6  40.2  34122  288.92 0854.38
2009/04/23 15:56:05.5    -105   -514    393    525    655 191.6  40.6  34126  289.01 0854.38
2009/04/23 15:56:05.6      79   -399    324    407    520 168.7  42.6  34128  289.03 0854.38
2009/04/23 15:56:05.7     346   -449    240    567    615 142.4  24.3  34130  289.05 0854.38
2009/04/23 15:56:05.8     144   -432    188    456    493 161.6  23.6  34130  289.08 0854.38
2009/04/23 15:56:05.9      23   -424     77    425    432 176.9  10.4  34132  289.11 0854.38
2009/04/23 15:56:06.0     -55   -382    120    387    406 188.3  17.3  34130  289.08 0854.38
2009/04/23 15:56:06.1     -51   -465     90    468    477 186.3  11.0  34134  289.12 0854.38
2009/04/23 15:56:06.2     -58   -387     33    392    394 188.6   4.9  34134  289.13 0854.38
2009/04/23 15:56:06.3      -5   -257     47    258    263 181.1  10.3  34140  289.22 0854.38
2009/04/23 15:56:06.4      37   -214   -105    218    241 170.0 -31.8  34140  289.22 0854.38
2009/04/23 15:56:06.6    -153   -181   -164    238    289 220.3 -42.2  34134  289.12 0854.38
2009/04/23 15:56:06.7      46   -201     40    207    211 167.1  11.1  34134  289.14 0854.38
2009/04/23 15:56:06.8      -2   -269   -166    270    316 180.5 -38.8  34130  289.07 0854.38
2009/04/23 15:56:06.9    -199   -337   -212    392    445 210.5 -35.2  34130  289.05 0854.38
2009/04/23 15:56:07.0    -335   -647   -231    729    765 207.4 -17.6  34120  288.89 0854.38
2009/04/23 15:56:07.1    -279   -730    -57    782    785 201.0  -4.2  34114  288.80 0854.38
2009/04/23 15:56:07.2    -229   -481    184    533    564 205.5  19.1  34138  289.21 0854.38
2009/04/23 15:56:07.3     -26   -580      2    581    582 182.6   0.2  34134  289.14 0854.38
2009/04/23 15:56:07.4    -115   -426    -73    442    449 195.2  -9.4  34124  288.95 0854.38
2009/04/23 15:56:07.5    -212   -388   -161    443    471 208.7 -25.3  34130  289.07 0854.38
2009/04/23 15:56:07.6    -172   -861   -252    879    915 191.3 -16.0  34136  289.17 0854.38
2009/04/23 15:56:07.7    -127   -960   -160    969    983 187.6  -9.4  34120  288.89 0854.38
2009/04/23 15:56:07.8    -133   -881   -146    891    904 188.6  -9.3  34110  288.73 0854.38
2009/04/23 15:56:07.9     164   -868   -149    884    897 169.3  -9.6  34130  289.08 0854.38
2009/04/23 15:56:08.0     157   -794   -230    810    843 168.8 -15.9  34128  289.03 0854.38
2009/04/23 15:56:08.1     324   -756    -60    823    826 156.8  -4.2  34130  289.08 0854.38
2009/04/23 15:56:08.2     307   -448    -83    544    551 145.6  -8.7  34120  288.91 0854.38
2009/04/23 15:56:08.3     376   -538    -59    657    660 145.0  -5.2  34118  288.87 0854.38
2009/04/23 15:56:08.4     -85   -778    -60    783    786 186.3  -4.4  34120  288.91 0854.38
2009/04/23 15:56:08.5     271   -711    -58    762    764 159.1  -4.4  34104  288.62 0854.38
2009/04/23 15:56:08.6     315   -749    -25    813    814 157.2  -1.8  34126  288.99 0854.38
2009/04/23 15:56:08.7     312   -710    -25    776    777 156.3  -1.9  34126  289.00 0854.38
2009/04/23 15:56:08.8     240   -880    -59    913    915 164.7  -3.7  34126  288.99 0854.38
2009/04/23 15:56:08.9     253   -803   -121    843    852 162.5  -8.2  34130  289.05 0854.38
2009/04/23 15:56:09.0      23   -834    169    835    852 178.4  11.5  34126  288.99 0854.38
2009/04/23 15:56:09.1      33   -726    242    727    767 177.4  18.4  34128  289.04 0854.38
2009/04/23 15:56:09.2      38   -655    281    657    714 176.6  24.6  34134  289.12 0854.38
2009/04/23 15:56:09.3     -42   -556     78    558    564 184.4   8.0  34124  288.96 0854.37
2009/04/23 15:56:09.4    -274   -672     41    726    728 202.2   3.2  34132  289.11 0854.37
2009/04/23 15:56:09.5     -22   -756    143    757    771 181.7  10.7  34128  289.04 0854.37
2009/04/23 15:56:09.6       0   -767    226    768    801 180.0  16.4  34128  289.02 0854.37
2009/04/23 15:56:09.7      84   -760    271    765    812 173.7  19.5  34130  289.07 0854.37
2009/04/23 15:56:09.8     275   -953    220    992   1017 163.9  12.5  34138  289.20 0854.37
2009/04/23 15:56:09.9      78   -764    128    768    779 174.1   9.5  34120  288.88 0854.37
2009/04/23 15:56:10.0    -195   -761   -210    786    814 194.4 -15.0  34128  289.04 0854.37
2009/04/23 15:56:10.1    -253  -1106   -232   1135   1159 192.9 -11.6  34122  288.94 0854.37
2009/04/23 15:56:10.2    -223  -1161    -46   1183   1184 190.9  -2.2  34124  288.96 0854.37
2009/04/23 15:56:10.3    -455  -1115    276   1205   1237 202.2  12.9  34116  288.82 0854.37
2009/04/23 15:56:10.4    -199   -743    405    770    870 195.0  30.0  34126  289.00 0854.37
2009/04/23 15:56:10.5     107   -665    637    674    927 170.8  48.2  34136  289.15 0854.37
2009/04/23 15:56:10.6     414   -591    657    722    976 145.0  47.0  34134  289.14 0854.37
2009/04/23 15:56:10.7     221   -592    365    633    730 159.5  32.6  34130  289.05 0854.37
2009/04/23 15:56:10.8      82   -673    270    679    730 173.0  23.0  34132  289.10 0854.37
2009/04/23 15:56:10.9     407   -865    142    957    968 154.8   8.5  34118  288.86 0854.37
2009/04/23 15:56:11.0     639   -856    345   1069   1124 143.3  17.9  34122  288.92 0854.37
2009/04/23 15:56:11.1     560   -744    423    932   1023 143.0  26.2  34128  289.04 0854.37
2009/04/23 15:56:11.2     475   -771    338    906    966 148.4  21.5  34130  289.08 0854.37
2009/04/23 15:56:11.3     551   -699    252    891    927 141.8  15.8  34132  289.11 0854.38
2009/04/23 15:56:11.4     585   -643    448    870    978 137.7  29.4  34142  289.27 0854.38
2009/04/23 15:56:11.5     613   -470    315    773    834 127.5  23.5  34126  289.01 0854.38
2009/04/23 15:56:11.6     334   -256    437    421    606 127.5  51.2  34140  289.24 0854.38
2009/04/23 15:56:11.7      -8   -428    538    429    688 181.1  57.6  34144  289.30 0854.38
2009/04/23 15:56:11.8       0   -265    426    266    502 180.0  65.1  34134  289.12 0854.38
2009/04/23 15:56:11.9     -62   -586    414    590    720 186.1  38.5  34132  289.10 0854.38
2009/04/23 15:56:12.0     -13   -438    470    439    643 181.8  52.2  34144  289.29 0854.38
2009/04/23 15:56:12.1      60   -777    502    780    927 175.5  35.7  34156  289.49 0854.38
2009/04/23 15:56:12.2     -94   -697    350    704    786 187.7  28.5  34150  289.41 0854.38
2009/04/23 15:56:12.3    -154   -778    390    794    884 191.2  28.2  34142  289.27 0854.38
2009/04/23 15:56:12.4    -129   -678    434    691    815 190.8  35.1  34146  289.35 0854.38
2009/04/23 15:56:12.5    -297   -804    146    858    871 200.3   9.7  34144  289.31 0854.38
2009/04/23 15:56:12.6    -327   -867    177    927    944 200.7  10.8  34144  289.30 0854.38
2009/04/23 15:56:12.7    -306   -758     24    818    819 202.0   1.7  34146  289.33 0854.38
2009/04/23 15:56:12.8     -79   -595     89    601    608 187.6   8.5  34152  289.42 0854.38
2009/04/23 15:56:12.9      76   -496    114    502    515 171.3  12.9  34146  289.32 0854.38
2009/04/23 15:56:13.0      15   -389    232    390    453 177.8  33.5  34150  289.39 0854.38
2009/04/23 15:56:13.1       0   -785    244    786    824 180.0  17.3  34152  289.42 0854.38
2009/04/23 15:56:13.2     161   -649    399    669    778 166.0  33.6  34154  289.46 0854.38
2009/04/23 15:56:13.3      -3   -825    183    826    847 180.2  12.5  34140  289.24 0854.38
2009/04/23 15:56:13.4    -188   -597   -194    627    656 197.5 -22.2  34126  289.01 0854.38
2009/04/23 15:56:13.5     218   -956    -68    981    984 167.1  -4.0  34136  289.16 0854.38
2009/04/23 15:56:13.6     296   -549   -114    624    635 151.6 -10.4  34130  289.06 0854.38
2009/04/23 15:56:13.7     222   -208    -55    305    310 133.1 -10.3  34144  289.31 0854.38
2009/04/23 15:56:13.8     210   -231     84    313    325 137.7  15.0  34138  289.20 0854.38
2009/04/23 15:56:13.9     299      0    131    300    327  90.0  25.1  34144  289.29 0854.38
2009/04/23 15:56:14.0     231   -311    160    388    419 143.4  23.7  34142  289.27 0854.38
2009/04/23 15:56:14.1     269   -627    228    683    721 156.8  18.5  34136  289.15 0854.38
2009/04/23 15:56:14.2    -222   -890    235    918    948 194.1  14.4  34144  289.30 0854.38
2009/04/23 15:56:14.3    -250   -598   -180    649    674 202.7 -15.5  34134  289.12 0854.38
2009/04/23 15:56:14.4    -280   -380    -23    473    474 216.4  -2.8  34136  289.18 0854.38
2009/04/23 15:56:14.5     -91   -467     62    476    480 191.1   7.5  34146  289.35 0854.38
2009/04/23 15:56:14.6    -233   -472     50    527    530 206.3   5.4  34148  289.38 0854.38
2009/04/23 15:56:14.7     -63   -304    108    311    330 191.8  19.2  34150  289.39 0854.38
2009/04/23 15:56:14.8     170   -230   -102    287    304 143.5 -24.6  34148  289.37 0854.38
2009/04/23 15:56:14.9     354    -88   -166    365    400 104.1 -30.6  34148  289.37 0854.38
2009/04/23 15:56:15.0     319   -192    -33    373    375 121.0  -5.1  34146  289.33 0854.38
2009/04/23 15:56:15.1     294    -52    -78    299    310 100.1 -14.7  34142  289.25 0854.38
2009/04/23 15:56:15.2     441   -443   -222    626    665 135.1 -19.5  34142  289.25 0854.38
2009/04/23 15:56:15.3     504   -378   -190    631    660 126.9 -16.8  34144  289.31 0854.35
2009/04/23 15:56:15.4     307   -345   -105    462    474 138.3 -12.9  34136  289.17 0854.35
2009/04/23 15:56:15.5     393   -558     76    683    688 144.8   6.4  34126  289.00 0854.35
2009/04/23 15:56:15.6     443   -425     -2    615    616 133.8  -0.3  34124  288.96 0854.35
2009/04/23 15:56:15.7     341   -196   -310    394    501 119.9 -46.6  34146  289.35 0854.35
2009/04/23 15:56:15.8     435   -155    -25    463    464 109.7  -3.1  34106  288.65 0854.35
2009/04/23 15:56:15.9     276   -166     38    323    326 121.1   6.7  34138  289.20 0854.35
2009/04/23 15:56:16.0     270   -213    226    344    411 128.3  36.5  34132  289.11 0854.35
2009/04/23 15:56:16.1     526   -236     -2    577    578 114.2  -0.2  34138  289.19 0854.35
2009/04/23 15:56:16.2     581   -290    -14    650    651 116.5  -1.3  34132  289.09 0854.35
2009/04/23 15:56:16.3     255   -133     21    288    289 117.5   4.2  34134  289.14 0854.35
2009/04/23 15:56:16.4     112    -76     99    136    168 124.1  39.7  34144  289.31 0854.35
2009/04/23 15:56:16.5     157   -313    -60    351    357 153.4  -9.7  34140  289.23 0854.35
2009/04/23 15:56:16.6     370   -348     25    509    510 133.2   2.9  34140  289.22 0854.35
2009/04/23 15:56:16.7     -15   -506     -6    507    508 181.7  -0.7  34142  289.27 0854.35
2009/04/23 15:56:16.8     320   -448    -85    551    558 144.4  -8.8  34138  289.19 0854.35
2009/04/23 15:56:16.9     294   -468     15    553    554 147.9   1.6  34138  289.21 0854.35
2009/04/23 15:56:17.0     339   -496    -23    602    603 145.6  -2.2  34136  289.15 0854.35
2009/04/23 15:56:17.1     371   -475     10    603    604 142.0   1.0  34136  289.15 0854.35
2009/04/23 15:56:17.2     328   -449      7    557    558 143.9   0.8  34136  289.16 0854.35
2009/04/23 15:56:17.3     348   -420   -109    546    557 140.4 -11.3  34128  289.02 0854.34
2009/04/23 15:56:17.4     295   -352   -107    460    473 140.1 -13.1  34130  289.05 0854.34
2009/04/23 15:56:17.5     372   -396    106    544    555 136.8  11.1  34130  289.06 0854.34
2009/04/23 15:56:17.6     302   -445     89    538    546 145.8   9.4  34124  288.96 0854.34
2009/04/23 15:56:17.7     264   -362    -39    449    451 143.9  -5.1  34126  289.00 0854.34
2009/04/23 15:56:17.8     266   -379    158    464    491 144.9  18.8  34134  289.12 0854.34
2009/04/23 15:56:17.9     301   -320     62    440    445 136.7   8.1  34134  289.14 0854.34
2009/04/23 15:56:18.0     249   -281    173    376    413 138.5  26.4  34132  289.11 0854.34
2009/04/23 15:56:18.1     224   -341    159    409    438 146.7  22.3  34136  289.17 0854.34
2009/04/23 15:56:18.2      70   -370    149    377    405 169.2  22.8  34136  289.16 0854.34
2009/04/23 15:56:18.3      56   -278    158    284    324 168.5  31.6  34140  289.22 0854.34
2009/04/23 15:56:18.4     -24   -225     82    227    241 186.2  20.4  34142  289.25 0854.34
2009/04/23 15:56:18.5     -28   -212     35    214    217 187.6   9.5  34140  289.24 0854.34
2009/04/23 15:56:18.6     -48    -56     14     74     76 220.5  11.1  34140  289.24 0854.34
2009/04/23 15:56:18.7     -49    -83     40     97    104 210.7  23.0  34142  289.28 0854.34
2009/04/23 15:56:18.8     145   -227    185    270    327 147.5  37.7  34132  289.10 0854.34
2009/04/23 15:56:18.9     214   -235    228    319    392 137.7  39.1  34128  289.03 0854.34
2009/04/23 15:56:19.0       9   -294    365    295    469 178.2  57.0  34134  289.14 0854.34
2009/04/23 15:56:19.1     -79   -417    286    425    512 190.8  37.2  34134  289.12 0854.34
2009/04/23 15:56:19.2    -210   -381    277    435    515 208.9  35.6  34130  289.08 0854.34
2009/04/23 15:56:19.3    -347   -355    279    497    569 224.4  31.7  34136  289.16 0854.31
2009/04/23 15:56:19.4    -373   -374    257    529    588 224.9  27.9  34130  289.08 0854.31
2009/04/23 15:56:19.5    -457   -284     70    539    544 238.1   7.4  34144  289.29 0854.31
2009/04/23 15:56:19.6    -296   -436     41    528    530 214.2   4.5  34140  289.23 0854.31
2009/04/23 15:56:19.7    -356   -684     13    771    772 207.5   1.0  34136  289.15 0854.31
2009/04/23 15:56:19.8    -201   -661     33    692    693 197.0   2.8  34136  289.17 0854.31
2009/04/23 15:56:19.9    -186   -579    210    609    645 197.8  19.1  34134  289.13 0854.31
2009/04/23 15:56:20.0    -494   -380     48    624    627 232.4   4.5  34142  289.25 0854.31
2009/04/23 15:56:20.1    -646   -181   -194    671    699 254.3 -16.2  34164  289.65 0854.31
2009/04/23 15:56:20.2    -505   -405   -179    648    672 231.3 -20.1  34146  289.32 0854.31
2009/04/23 15:56:20.3    -302   -414   -218    513    557 216.1 -28.9  34146  289.33 0854.31
2009/04/23 15:56:20.4    -183   -647    -40    673    675 195.8  -3.4  34142  289.27 0854.31
2009/04/23 15:56:20.5     -91   -723    119    729    739 187.2   9.3  34130  289.06 0854.31
2009/04/23 15:56:20.6    -164   -621    141    643    659 194.8  12.4  34136  289.16 0854.31
2009/04/23 15:56:20.7      90   -606    230    613    654 171.5  21.6  34136  289.15 0854.31
2009/04/23 15:56:20.8     274   -575     48    637    639 154.5   4.3  34134  289.13 0854.31
2009/04/23 15:56:20.9     325   -598    -33    681    682 151.5  -2.8  34142  289.26 0854.31
2009/04/23 15:56:21.0     367   -543   -108    656    665 145.9  -9.4  34140  289.22 0854.31
2009/04/23 15:56:21.1     373   -400   -105    548    559 137.0 -10.9  34136  289.18 0854.31
2009/04/23 15:56:21.2     270   -441    -72    518    524 148.5  -8.0  34138  289.21 0854.31
2009/04/23 15:56:21.3     254   -361    -86    442    451 144.8 -11.0  34138  289.21 0854.32
2009/04/23 15:56:21.4     241   -322    -80    403    412 143.1 -11.3  34142  289.27 0854.32
2009/04/23 15:56:21.5     282   -257   -136    382    406 132.3 -19.6  34146  289.35 0854.32
2009/04/23 15:56:21.6     200   -262   -104    330    347 142.7 -17.5  34146  289.32 0854.32
2009/04/23 15:56:21.7     237   -442   -164    502    529 151.7 -18.1  34142  289.26 0854.32
2009/04/23 15:56:21.8     385   -391    -25    550    551 135.5  -2.7  34150  289.40 0854.32
2009/04/23 15:56:21.9     302   -335     12    452    453 138.0   1.6  34142  289.26 0854.32
2009/04/23 15:56:22.0     118   -324    -43    346    349 160.0  -7.2  34152  289.45 0854.32
2009/04/23 15:56:22.1     138   -399     44    423    426 160.8   6.0  34148  289.36 0854.32
2009/04/23 15:56:22.2     127   -383     82    404    413 161.5  11.5  34162  289.61 0854.32
2009/04/23 15:56:22.3     165   -378     31    413    415 156.4   4.3  34164  289.63 0854.34
2009/04/23 15:56:22.4      46   -479     13    482    483 174.4   1.6  34176  289.83 0854.34
2009/04/23 15:56:22.5      91   -492    -57    501    505 169.5  -6.6  34160  289.56 0854.34
2009/04/23 15:56:22.6       2   -586    -11    587    588 179.8  -1.1  34154  289.47 0854.34
2009/04/23 15:56:22.7      76   -477    -10    484    485 170.9  -1.3  34150  289.40 0854.34
2009/04/23 15:56:22.8    -173   -466    -27    498    499 200.4  -3.2  34150  289.39 0854.34
2009/04/23 15:56:22.9    -100   -355     77    369    378 195.8  11.8  34156  289.52 0854.34
2009/04/23 15:56:23.0     -66   -384    205    390    440 189.8  30.0  34164  289.63 0854.34
2009/04/23 15:56:23.1     -38   -248    208    252    326 188.9  43.7  34164  289.64 0854.34
2009/04/23 15:56:23.2      24   -315     52    317    322 175.5   9.4  34158  289.53 0854.34
2009/04/23 15:56:23.3    -114   -362    -29    380    382 197.5  -4.5  34156  289.52 0854.34
2009/04/23 15:56:23.4    -143   -357    -26    385    386 201.9  -3.9  34158  289.55 0854.34
2009/04/23 15:56:23.5    -139   -457     17    478    479 196.9   2.1  34158  289.54 0854.34
2009/04/23 15:56:23.6    -192   -561    -13    594    595 199.0  -1.3  34164  289.64 0854.34
2009/04/23 15:56:23.7    -284   -479    -91    557    565 210.7  -9.3  34158  289.55 0854.34
2009/04/23 15:56:23.8    -379   -642    -72    746    750 210.6  -5.6  34162  289.62 0854.34
2009/04/23 15:56:23.9    -437   -644   -130    779    790 214.2  -9.5  34158  289.54 0854.34
2009/04/23 15:56:24.0    -421   -649   -157    775    791 213.0 -11.5  34160  289.57 0854.34
2009/04/23 15:56:24.1    -301   -543   -126    622    635 209.0 -11.5  34162  289.62 0854.34
2009/04/23 15:56:24.2    -284   -614    -18    677    678 204.8  -1.6  34160  289.58 0854.35
2009/04/23 15:56:24.3    -199   -411   -131    457    475 205.9 -20.8  34154  289.47 0854.35
2009/04/23 15:56:24.4    -405   -421   -258    585    639 223.9 -29.7  34142  289.25 0854.35
2009/04/23 15:56:24.5    -286   -372   -424    470    632 217.6 -51.2  34156  289.49 0854.35
2009/04/23 15:56:24.6    -187   -412   -376    453    588 204.4 -48.2  34156  289.50 0854.35
2009/04/23 15:56:24.7    -309   -355   -285    471    550 221.0 -38.4  34154  289.48 0854.35
2009/04/23 15:56:24.8    -344   -355   -333    495    596 224.1 -41.6  34146  289.35 0854.35
2009/04/23 15:56:24.9    -270   -541   -204    605    639 206.5 -18.7  34158  289.55 0854.35
2009/04/23 15:56:25.0    -294   -736    -41    793    795 201.8  -3.0  34144  289.30 0854.35
2009/04/23 15:56:25.1    -282   -571   -159    637    657 206.3 -14.1  34154  289.47 0854.35
2009/04/23 15:56:25.2    -179   -432    -10    468    469 202.6  -1.3  34164  289.64 0854.35
2009/04/23 15:56:25.3     -72   -414    -50    421    424 189.9  -6.8  34162  289.61 0854.35
2009/04/23 15:56:25.4     -49   -403     19    407    408 187.0   2.8  34160  289.56 0854.35
2009/04/23 15:56:25.5     -52   -282     37    287    290 190.6   7.5  34162  289.59 0854.35
2009/04/23 15:56:25.6      47   -290    121    294    317 170.7  23.6  34160  289.58 0854.35
2009/04/23 15:56:25.7     135   -195     67    238    248 145.3  15.8  34166  289.66 0854.35
2009/04/23 15:56:25.8     170   -205    -19    267    268 140.4  -4.1  34164  289.64 0854.35
2009/04/23 15:56:25.9      -4   -290     -5    291    292 180.9  -1.2  34162  289.61 0854.35
2009/04/23 15:56:26.0     -30   -280     98    282    299 186.3  19.2  34162  289.61 0854.35
2009/04/23 15:56:26.1     120   -216    130    248    280 151.0  29.8  34162  289.59 0854.35
2009/04/23 15:56:26.2      79   -319    108    329    347 166.0  18.1  34168  289.72 0854.30
2009/04/23 15:56:26.3     112   -272    130    295    322 157.5  25.2  34160  289.56 0854.30
2009/04/23 15:56:26.4       8   -413    150    414    441 178.9  19.9  34166  289.66 0854.30
2009/04/23 15:56:26.5      -4   -224    -55    225    232 181.1 -13.9  34164  289.65 0854.30
2009/04/23 15:56:26.6     133   -217     -1    255    256 148.4  -0.3  34166  289.66 0854.30
2009/04/23 15:56:26.7     188    -63    -98    199    221 108.6 -32.4  34160  289.58 0854.30
2009/04/23 15:56:26.8    -190    -85   -152    209    258 245.8 -44.1  34168  289.70 0854.30
2009/04/23 15:56:26.9      -6   -124    -44    125    133 183.1 -19.7  34162  289.60 0854.30
2009/04/23 15:56:27.0     157    -70     27    173    176 114.2   9.0  34170  289.74 0854.30
2009/04/23 15:56:27.1     195   -132     12    236    237 124.2   2.9  34166  289.68 0854.30
2009/04/23 15:56:27.2     183   -122      3    220    221 123.7   0.8  34164  289.65 0854.30
2009/04/23 15:56:27.3     202   -177    100    269    286 131.3  21.0  34160  289.56 0854.30
2009/04/23 15:56:27.4     160   -182    194    243    310 138.6  42.8  34158  289.53 0854.30
2009/04/23 15:56:27.5     136   -176    148    223    267 142.1  36.5  34156  289.49 0854.30
2009/04/23 15:56:27.6      42   -259    132    263    294 170.7  28.5  34156  289.51 0854.30
2009/04/23 15:56:27.7      13   -224     21    225    227 176.6   5.4  34152  289.45 0854.30
2009/04/23 15:56:27.8      94   -187    141    210    252 153.3  36.7  34160  289.56 0854.30
2009/04/23 15:56:27.9      26   -152    127    155    200 170.2  43.7  34164  289.65 0854.30
2009/04/23 15:56:28.0     164   -106     92    196    216 122.9  27.1  34164  289.63 0854.30
2009/04/23 15:56:28.1     109    -43     45    118    126 111.8  21.5  34160  289.58 0854.30
2009/04/23 15:56:28.2      34    -64     77     73    106 151.9  51.6  34166  289.67 0854.26
2009/04/23 15:56:28.3      60    -47     73     77    106 127.8  48.5  34164  289.63 0854.26
2009/04/23 15:56:28.4       0    -16     46     17     49 182.7  81.2  34166  289.69 0854.26
2009/04/23 15:56:28.5      15    -19     22     25     33 140.4  45.8  34166  289.67 0854.26
2009/04/23 15:56:28.6      16    -50     62     53     81 162.2  54.8  34166  289.69 0854.26
2009/04/23 15:56:28.7     113   -220     -9    248    249 152.8  -2.2  34148  289.36 0854.26
2009/04/23 15:56:28.8      57   -308     -3    314    315 169.4  -0.7  34150  289.41 0854.26
2009/04/23 15:56:28.9     149   -244     -6    286    287 148.6  -1.3  34144  289.31 0854.26
2009/04/23 15:56:29.0     165   -233      4    286    287 144.6   0.8  34144  289.31 0854.26
2009/04/23 15:56:29.1     166   -229     -6    284    285 144.0  -1.3  34146  289.34 0854.26
2009/04/23 15:56:29.2     188   -201     -6    276    277 136.8  -1.3  34144  289.31 0854.26
2009/04/23 15:56:29.3     204   -248     30    322    324 140.6   5.3  34148  289.36 0854.26
2009/04/23 15:56:29.4      93   -248     13    266    267 159.3   2.9  34156  289.51 0854.26
2009/04/23 15:56:29.5     110   -208    -21    236    237 152.1  -5.2  34158  289.54 0854.26
2009/04/23 15:56:29.6     107   -190     34    219    222 150.6   9.0  34158  289.53 0854.26
2009/04/23 15:56:29.7      59   -177     47    187    193 161.5  14.3  34160  289.57 0854.26
2009/04/23 15:56:29.8     142   -181    109    231    255 141.9  27.1  34156  289.51 0854.26
2009/04/23 15:56:29.9     154   -160     94    223    242 136.1  24.1  34154  289.46 0854.26
2009/04/23 15:56:30.0     115   -128     93    173    196 138.1  30.6  34150  289.41 0854.26
2009/04/23 15:56:30.1      82   -145    146    167    221 150.6  45.8  34158  289.55 0854.26
2009/04/23 15:56:30.2     112   -142     76    181    196 141.7  24.1  34160  289.58 0854.21
2009/04/23 15:56:30.3     135   -213     12    253    254 147.5   2.9  34158  289.54 0854.21
2009/04/23 15:56:30.4      94   -148    137    176    223 147.7  41.7  34158  289.55 0854.21
2009/04/23 15:56:30.5     180    -74    111    195    224 112.4  32.1  34158  289.55 0854.21
2009/04/23 15:56:30.6     148    -49    168    157    229 108.4  52.1  34164  289.65 0854.21
2009/04/23 15:56:30.7     207    -94    153    228    274 114.6  37.3  34168  289.70 0854.21
2009/04/23 15:56:30.8     239    -40    169    243    295  99.7  38.4  34166  289.68 0854.21
2009/04/23 15:56:30.9     229    -61    125    238    268 105.1  30.1  34170  289.73 0854.21
2009/04/23 15:56:31.0     220    -35    148    223    267  99.2  36.5  34172  289.76 0854.21
2009/04/23 15:56:31.1     270    -40    140    274    307  98.6  29.2  34180  289.92 0854.21
2009/04/23 15:56:31.2     202    -14    160    203    258  94.1  42.2  34178  289.86 0854.21
2009/04/23 15:56:31.3     128      0    137    129    188  90.0  52.0  34182  289.96 0854.21
2009/04/23 15:56:31.4      90    -37    122     98    156 112.2  57.1  34198  290.21 0854.21
2009/04/23 15:56:31.5      57    -47    117     75    138 129.5  64.6  34210  290.41 0854.21
2009/04/23 15:56:31.6      87    -36    137     95    166 112.6  61.8  34210  290.43 0854.21
2009/04/23 15:56:31.7     104    -66    150    124    194 122.5  56.3  34202  290.28 0854.21
2009/04/23 15:56:31.8      50      3     87     51    100  86.5  67.2  34214  290.50 0854.21
2009/04/23 15:56:31.9      34   -215    200    218    295 170.9  47.7  34164  289.64 0854.21
2009/04/23 15:56:32.0      38   -115    137    122    183 161.7  53.5  34190  290.09 0854.21
2009/04/23 15:56:32.1      35    -11    123     37    128 108.2  82.8  34238  290.91 0854.21
2009/04/23 15:56:32.2     124     48    151    134    201  68.7  54.0  34252  291.13 0854.23
2009/04/23 15:56:32.3     140     62    116    154    192  66.0  40.7  34250  291.09 0854.23
2009/04/23 15:56:32.4     135     74     57    155    165  61.2  20.7  34254  291.16 0854.23
2009/04/23 15:56:32.5      87     72     75    114    136  50.5  35.6  34260  291.26 0854.23
2009/04/23 15:56:32.6      28     55     82     62    102  27.2  59.0  34272  291.49 0854.23
2009/04/23 15:56:32.7     119     76    117    142    183  57.6  43.7  34280  291.60 0854.23
2009/04/23 15:56:32.8     270    149    138    309    338  61.1  25.7  34304  292.02 0854.23
2009/04/23 15:56:32.9     279    212    114    351    370  52.8  18.0  34224  290.67 0854.23
2009/04/23 15:56:33.0     225    212     43    310    314  46.8   8.0  34210  290.42 0854.23
2009/04/23 15:56:33.1     354    172     49    394    398  64.0   7.1  34328  292.44 0854.23
2009/04/23 15:56:33.2     316    123    162    340    376  68.7  27.3  34348  292.78 0854.23
2009/04/23 15:56:33.3     354    140    201    381    430  68.3  30.1  34200  290.24 0854.23
2009/04/23 15:56:33.4     268    278    153    387    416  44.0  22.9  34188  290.04 0854.23
2009/04/23 15:56:33.5     432    177    119    468    483  67.7  14.3  34312  292.16 0854.23
2009/04/23 15:56:33.6     441    204     -2    486    487  65.2  -0.3  34312  292.14 0854.23
2009/04/23 15:56:33.7     455    190     96    494    504  67.3  11.0  34222  290.64 0854.23
2009/04/23 15:56:33.8     433     67    -39    439    441  81.1  -5.2  34234  290.82 0854.23
2009/04/23 15:56:33.9     591     49     39    594    596  85.2   3.8  34228  290.71 0854.23
2009/04/23 15:56:34.0     441     14     95    442    453  88.1  12.1  34206  290.36 0854.23
2009/04/23 15:56:34.1     353   -103    -16    368    369 106.4  -2.6  34184  289.99 0854.23
2009/04/23 15:56:34.2     424   -154    106    452    465 110.0  13.3  34174  289.82 0854.21
2009/04/23 15:56:34.4     497    -52    179    500    531  96.0  20.6  34178  289.89 0854.21
2009/04/23 15:56:34.5     455     70    155    461    487  81.2  18.6  34208  290.40 0854.21
2009/04/23 15:56:34.6     486     95    179    496    527  78.9  20.7  34212  290.47 0854.21
2009/04/23 15:56:34.7     407     59     93    412    423  81.6  12.8  34218  290.56 0854.21
2009/04/23 15:56:34.8     325    -52    158    330    365  99.1  27.3  34212  290.45 0854.21
2009/04/23 15:56:34.9     337   -124     76    360    369 110.2  12.0  34214  290.49 0854.21
2009/04/23 15:56:35.0     179   -263    -95    319    333 145.8 -16.6  34202  290.27 0854.21
2009/04/23 15:56:35.1      96   -163    195    190    272 149.5  50.7  34216  290.53 0854.21
2009/04/23 15:56:35.2     194   -197     59    277    284 135.5  12.0  34220  290.59 0854.21
2009/04/23 15:56:35.3     100   -177    -67    204    214 150.4 -23.8  34222  290.62 0854.21
2009/04/23 15:56:35.4      36   -176   -151    180    234 168.2 -48.7  34180  289.92 0854.21
2009/04/23 15:56:35.5     246    -38    -73    249    259  98.8 -21.2  34194  290.14 0854.21
2009/04/23 15:56:35.6     206     50   -141    212    254  76.3 -40.9  34196  290.17 0854.21
2009/04/23 15:56:35.7      50     65   -130     83    154  37.4 -69.1  34190  290.08 0854.21
2009/04/23 15:56:35.8      43     32    -64     54     83  53.1 -59.2  34182  289.94 0854.21
2009/04/23 15:56:35.9    -335    -24   -179    336    380 265.9 -34.7  34184  289.99 0854.21
2009/04/23 15:56:36.0    -156     16     28    157    160 276.1  10.3  34186  290.02 0854.21
2009/04/23 15:56:36.1      84    144    132    167    212  30.3  42.2  34196  290.19 0854.21
2009/04/23 15:56:36.2     -13    -63    184     65    195 191.6  80.2  34190  290.09 0854.21
2009/04/23 15:56:36.3     -42     26    169     50    176 302.4  83.3  34206  290.36 0854.19
2009/04/23 15:56:36.4    -132     47    164    141    216 289.9  55.0  34216  290.52 0854.19
2009/04/23 15:56:36.5    -184     55     41    193    198 286.8  12.0  34210  290.41 0854.19
2009/04/23 15:56:36.6    -205    -32    -67    208    218 261.0 -23.0  34206  290.36 0854.19
2009/04/23 15:56:36.7    -217   -268    103    346    362 219.0  16.7  34188  290.06 0854.19
2009/04/23 15:56:36.8    -353   -305     78    467    474 229.1   9.5  34196  290.18 0854.19
2009/04/23 15:56:36.9    -336   -277      0    436    437 230.5   0.0  34198  290.21 0854.19
2009/04/23 15:56:37.0    -370   -239    -70    441    447 237.1  -9.1  34206  290.34 0854.19
2009/04/23 15:56:37.1    -343   -174   -117    385    403 243.1 -16.9  34208  290.37 0854.19
2009/04/23 15:56:37.2    -259   -140    -84    295    306 241.6 -20.7  34216  290.53 0854.19
2009/04/23 15:56:37.3    -161   -262     -6    308    309 211.6  -1.3  34198  290.22 0854.19
2009/04/23 15:56:37.4     -91   -277   -102    292    310 198.3 -19.4  34196  290.19 0854.19
2009/04/23 15:56:37.5    -243   -134    -45    278    282 241.2  -9.4  34204  290.32 0854.19
2009/04/23 15:56:37.6    -249    -79   -199    262    329 252.3 -45.5  34164  289.63 0854.19
2009/04/23 15:56:37.7    -125   -153   -197    198    279 219.2 -54.4  34182  289.95 0854.19
2009/04/23 15:56:37.8      -1   -418    -15    419    420 180.3  -2.1  34198  290.22 0854.19
2009/04/23 15:56:37.9    -211   -295   -114    363    380 215.6 -22.5  34200  290.25 0854.19
2009/04/23 15:56:38.0    -111   -185    -84    216    231 211.0 -26.9  34200  290.26 0854.19
2009/04/23 15:56:38.1     -94   -123    -72    156    171 217.4 -31.0  34196  290.19 0854.19
2009/04/23 15:56:38.2      -7   -154   -257    155    300 182.7 -70.4  34184  289.97 0854.19
2009/04/23 15:56:38.3      98   -170   -121    197    231 150.1 -39.4  34170  289.75 0854.19
2009/04/23 15:56:38.4     138   -307   -120    337    359 155.8 -19.7  34170  289.74 0854.19
2009/04/23 15:56:38.5     -68   -288   -153    297    334 193.4 -33.8  34164  289.64 0854.19
2009/04/23 15:56:38.6    -169   -307     55    351    356 208.8   8.9  34188  290.06 0854.19
2009/04/23 15:56:38.7     -26   -283    171    285    332 185.3  33.8  34196  290.17 0854.19
2009/04/23 15:56:38.8    -191   -513    -92    548    556 200.4  -9.6  34188  290.06 0854.19
2009/04/23 15:56:38.9    -374   -445    -25    582    583 220.0  -2.5  34196  290.17 0854.19
2009/04/23 15:56:39.0    -329   -516    -34    613    614 212.5  -3.2  34188  290.05 0854.19
2009/04/23 15:56:39.1    -277   -487      8    561    562 209.6   0.9  34176  289.84 0854.19
2009/04/23 15:56:39.2    -165   -543    -82    568    574 196.9  -8.2  34184  289.97 0854.19
2009/04/23 15:56:39.3       0   -423    -73    424    431 180.0  -9.8  34170  289.75 0854.19
2009/04/23 15:56:39.4    -101   -294     19    312    313 199.1   3.6  34180  289.92 0854.19
2009/04/23 15:56:39.5    -182   -420     61    458    463 203.4   7.6  34180  289.92 0854.19
2009/04/23 15:56:39.6    -172   -495    -62    525    529 199.2  -6.8  34168  289.70 0854.19
2009/04/23 15:56:39.7    -182   -295    -82    347    357 211.7 -13.4  34154  289.48 0854.19
2009/04/23 15:56:39.8     -45   -296    -43    300    304 188.7  -8.2  34156  289.51 0854.19
2009/04/23 15:56:39.9      -3   -294    -59    295    301 180.7 -11.5  34154  289.47 0854.19
2009/04/23 15:56:40.0      40   -290    -70    293    302 172.0 -13.4  34156  289.51 0854.19
2009/04/23 15:56:40.1     143   -347    -75    376    384 157.6 -11.3  34152  289.42 0854.19
2009/04/23 15:56:40.2     193   -297   -114    355    372 146.9 -23.0  34154  289.48 0854.19
2009/04/23 15:56:40.3     227   -410   -161    470    497 151.0 -18.9  34152  289.44 0854.25
2009/04/23 15:56:40.4     315   -376   -145    491    513 140.1 -16.5  34146  289.34 0854.25
2009/04/23 15:56:40.5     224   -432   -109    487    500 152.5 -12.7  34152  289.44 0854.25
2009/04/23 15:56:40.6     305   -396    -73    501    507 142.4  -8.4  34156  289.49 0854.25
2009/04/23 15:56:40.7     358   -448     28    574    575 141.4   2.8  34156  289.49 0854.25
2009/04/23 15:56:40.8     389   -517    -13    648    649 143.0  -1.2  34150  289.40 0854.25
2009/04/23 15:56:40.9     272   -481     57    553    556 150.5   5.9  34146  289.33 0854.25
2009/04/23 15:56:41.0     135   -436    -51    457    460 162.8  -6.5  34158  289.53 0854.25
2009/04/23 15:56:41.1     174   -339      0    382    383 152.8   0.0  34154  289.48 0854.25
2009/04/23 15:56:41.2     164   -383     72    417    424 156.8   9.9  34156  289.51 0854.25
2009/04/23 15:56:41.3     164   -326    152    366    396 153.3  23.9  34152  289.42 0854.25
2009/04/23 15:56:41.4      96   -301    177    317    363 162.2  31.5  34154  289.48 0854.25
2009/04/23 15:56:41.5     294   -295    189    417    457 135.1  26.2  34148  289.38 0854.25
2009/04/23 15:56:41.6     270   -279    203    389    438 135.9  29.8  34152  289.44 0854.25
2009/04/23 15:56:41.7      98   -127    206    161    261 142.1  58.2  34162  289.59 0854.25
2009/04/23 15:56:41.8      62    -43    187     76    201 125.1  77.0  34172  289.77 0854.25
2009/04/23 15:56:41.9      11    -32    129     35    133 160.0  84.8  34172  289.77 0854.25
2009/04/23 15:56:42.0     -37   -230    214    234    317 189.3  47.3  34160  289.56 0854.25
2009/04/23 15:56:42.1     -17   -184    187    185    263 185.3  50.1  34168  289.70 0854.25
2009/04/23 15:56:42.2    -107     20    214    109    240 280.6  71.0  34180  289.92 0854.25
2009/04/23 15:56:42.3    -359    142    220    387    445 291.7  32.3  34176  289.85 0854.31
2009/04/23 15:56:42.4    -146     58    166    158    229 291.7  51.6  34178  289.89 0854.31
2009/04/23 15:56:42.5    -351    102    165    366    401 286.3  26.0  34178  289.86 0854.31
2009/04/23 15:56:42.6     -36    110    123    116    169 341.7  51.6  34186  290.02 0854.31
2009/04/23 15:56:42.7     112   -161    238    197    308 145.0  56.3  34168  289.70 0854.31
2009/04/23 15:56:42.8      -9   -301    268    302    403 181.8  46.2  34168  289.72 0854.31
2009/04/23 15:56:42.9     -10   -163    236    164    287 183.6  62.1  34170  289.73 0854.31
2009/04/23 15:56:43.0      17    -13    140     22    141 127.8  90.0  34182  289.96 0854.31
2009/04/23 15:56:43.1     -32    -67    150     75    167 205.3  71.9  34178  289.89 0854.31
2009/04/23 15:56:43.2     -11    -26    148     29    150 203.6  89.1  34182  289.94 0854.31
2009/04/23 15:56:43.3     -58     -4    162     59    172 265.6  79.7  34180  289.92 0854.35
2009/04/23 15:56:43.4     -16    -49    151     52    159 198.5  80.7  34192  290.11 0854.35
2009/04/23 15:56:43.5     -91    -86    228    126    260 226.8  68.8  34194  290.14 0854.35
2009/04/23 15:56:43.6    -117   -136    200    180    269 220.8  53.3  34188  290.03 0854.35
2009/04/23 15:56:43.7    -141    -91    261    169    310 237.1  64.6  34190  290.07 0854.35
2009/04/23 15:56:43.8     -83      8    154     84    175 275.7  68.9  34190  290.08 0854.35
2009/04/23 15:56:43.9      98      7    266     99    283  85.6  79.1  34184  289.98 0854.35
2009/04/23 15:56:44.0     183     65    323    195    377  70.5  66.2  34178  289.88 0854.35
2009/04/23 15:56:44.1     118     99    325    155    360  50.0  72.8  34192  290.10 0854.35
2009/04/23 15:56:44.2     258     85    283    272    392  71.6  51.3  34174  289.82 0854.35
2009/04/23 15:56:44.3     203    114    220    233    320  60.7  48.4  34170  289.75 0854.35
2009/04/23 15:56:44.4      87     48    145    100    176  60.7  62.1  34192  290.11 0854.35
2009/04/23 15:56:44.5      22     84    147     87    170  15.1  66.8  34202  290.28 0854.35
2009/04/23 15:56:44.6     -45    -62    215     77    228 216.1  79.7  34192  290.13 0854.35
2009/04/23 15:56:44.7     117     60    263    132    294  62.9  71.7  34202  290.27 0854.35
2009/04/23 15:56:44.8     262     53    135    268    300  78.5  28.7  34188  290.03 0854.35
2009/04/23 15:56:44.9     198     90    123    218    250  65.6  31.9  34196  290.17 0854.35
2009/04/23 15:56:45.0     176     58     97    186    209  71.6  29.5  34192  290.13 0854.35
2009/04/23 15:56:45.1     193     83     83    211    226  66.7  23.0  34190  290.08 0854.35
2009/04/23 15:56:45.2     159    132     80    207    221  50.4  22.3  34190  290.09 0854.35
2009/04/23 15:56:45.3     100    160    -48    189    196  32.1 -14.3  34192  290.11 0854.38
2009/04/23 15:56:45.4     176    209    -98    274    292  40.1 -19.7  34190  290.09 0854.38
2009/04/23 15:56:45.5     198    216    -93    294    309  42.5 -17.5  34186  290.00 0854.38
2009/04/23 15:56:45.6     335    176    -49    379    383  62.2  -7.4  34210  290.42 0854.38
2009/04/23 15:56:45.7     405    176     63    442    447  66.5   8.1  34214  290.48 0854.38
2009/04/23 15:56:45.8     270    171    223    320    390  57.6  38.4  34224  290.67 0854.38
2009/04/23 15:56:45.9     261    204    210    332    392  52.0  35.5  34218  290.57 0854.38
2009/04/23 15:56:46.0     205    211    176    295    343  44.1  33.6  34214  290.49 0854.38
2009/04/23 15:56:46.1     116    134    186    178    257  41.0  51.4  34232  290.78 0854.38
2009/04/23 15:56:46.2      44    229    189    234    300  10.9  43.3  34262  291.29 0854.38
2009/04/23 15:56:46.3       8    277    165    278    323   1.8  33.5  34282  291.63 0854.38
2009/04/23 15:56:46.4      92    280    159    295    335  18.3  30.8  34254  291.17 0854.38
2009/04/23 15:56:46.5      98    304    148    320    352  17.9  26.6  34248  291.08 0854.38
2009/04/23 15:56:46.6     272    119    272    298    403  66.4  47.1  34240  290.93 0854.38
2009/04/23 15:56:46.7     298    201    113    360    378  56.0  17.5  34252  291.13 0854.38
2009/04/23 15:56:46.8     377    146    156    405    434  68.8  22.1  34226  290.70 0854.38
2009/04/23 15:56:46.9     244    237    174    341    382  45.8  29.2  34268  291.42 0854.38
2009/04/23 15:56:47.0     372    252    219    450    500  55.9  27.8  34232  290.78 0854.38
2009/04/23 15:56:47.1     491     95     98    501    511  79.0  11.1  34206  290.34 0854.38
2009/04/23 15:56:47.2     395    114    171    412    446  73.8  23.9  34194  290.14 0854.38
2009/04/23 15:56:47.3     198    109    112    227    253  61.2  28.2  34184  289.98 0854.32
2009/04/23 15:56:47.4     168    195     90    258    274  40.8  19.2  34202  290.27 0854.32
2009/04/23 15:56:47.5     176    324    176    369    408  28.5  27.3  34218  290.57 0854.32
2009/04/23 15:56:47.6     331    433     83    546    553  37.4   8.7  34236  290.86 0854.32
2009/04/23 15:56:47.7     247    312     30    399    401  38.4   4.4  34238  290.88 0854.32
2009/04/23 15:56:47.8     249    291    130    384    406  40.5  18.8  34284  291.68 0854.32
2009/04/23 15:56:47.9     611    337     29    698    699  61.1   2.4  34152  289.45 0854.32
2009/04/23 15:56:48.0     576    310    143    655    671  61.7  12.4  34198  290.22 0854.32
2009/04/23 15:56:48.1      37    381    282    383    475   5.7  40.1  34250  291.09 0854.32
2009/04/23 15:56:48.2     260    334     51    424    428  37.9   6.9  34186  290.00 0854.32
2009/04/23 15:56:48.3    -126     91   -135    156    206 306.0 -49.8  34230  290.77 0854.32
2009/04/23 15:56:48.4     235      6    -75    236    247  88.5 -22.8  34212  290.44 0854.32
2009/04/23 15:56:48.5     324     94    144    338    367  73.8  24.6  34202  290.28 0854.32
2009/04/23 15:56:48.6     208     42    187    213    283  78.5  45.8  34182  289.93 0854.32
2009/04/23 15:56:48.7     270   -160     32    314    316 120.7   6.0  34178  289.86 0854.32
2009/04/23 15:56:48.8     385   -188    -82    429    437 116.1 -10.8  34214  290.48 0854.32
2009/04/23 15:56:48.9     467    -59    161    471    498  97.2  18.9  34218  290.56 0854.32
2009/04/23 15:56:49.0     454    -54    258    458    525  96.8  31.9  34220  290.59 0854.32
2009/04/23 15:56:49.1     499    -70    240    505    559  98.0  27.2  34230  290.75 0854.32
2009/04/23 15:56:49.2     472    -65    293    477    559  97.9  34.5  34240  290.94 0854.32
2009/04/23 15:56:49.3     408    -31    245    410    477  94.4  33.7  34234  290.82 0854.32
2009/04/23 15:56:49.4     394   -279    284    484    561 125.3  33.1  34236  290.86 0854.32
2009/04/23 15:56:49.5     323   -119    298    345    455 110.2  45.4  34224  290.67 0854.32
2009/04/23 15:56:49.6     335     97    322    349    474  73.9  47.5  34180  289.90 0854.32
2009/04/23 15:56:49.7     367     12    327    368    492  88.1  46.3  34206  290.36 0854.32
2009/04/23 15:56:49.8     423     73    326    430    539  80.2  41.1  34200  290.25 0854.32
2009/04/23 15:56:49.9     254     76    270    266    379  73.2  50.2  34204  290.33 0854.32
2009/04/23 15:56:50.0     172     76    269    189    328  66.0  61.5  34180  289.90 0854.32
2009/04/23 15:56:50.1      65    171    193    184    266  20.9  51.6  34186  290.02 0854.32
2009/04/23 15:56:50.2     225     89    175    243    299  68.3  39.5  34192  290.10 0854.32
2009/04/23 15:56:50.3     239    168    -25    293    295  54.9  -4.9  34210  290.42 0854.32
2009/04/23 15:56:50.4     185    143    104    235    256  52.3  25.2  34228  290.71 0854.32
2009/04/23 15:56:50.5     283    269     79    391    399  46.5  11.5  34288  291.74 0854.32
2009/04/23 15:56:50.6     244    383     91    455    465  32.5  11.3  34308  292.09 0854.32
2009/04/23 15:56:50.7     393    155    169    423    455  68.5  23.0  34258  291.23 0854.32
2009/04/23 15:56:50.8     393     72    104    400    414  79.6  14.6  34274  291.52 0854.32
2009/04/23 15:56:50.9     273     66     77    281    292  76.3  15.3  34300  291.96 0854.32
2009/04/23 15:56:51.0      72     94     31    119    124  37.4  14.7  34316  292.23 0854.32
2009/04/23 15:56:51.1      25    114     27    117    121  12.5  13.2  34298  291.93 0854.32
2009/04/23 15:56:51.2    -145    136     54    200    208 313.1  15.2  34256  291.20 0854.33
2009/04/23 15:56:51.3     -69      7     62     70     93 276.1  46.4  34270  291.45 0854.33
2009/04/23 15:56:51.4      30     34    -68     46     82  41.4 -67.0  34258  291.23 0854.33
2009/04/23 15:56:51.5     171    -64     12    183    184 110.6   3.8  34242  290.96 0854.33
2009/04/23 15:56:51.6     338    139     60    366    371  67.5   9.3  34248  291.06 0854.33
2009/04/23 15:56:51.7     377    110     -7    393    394  73.6  -1.1  34238  290.89 0854.33
2009/04/23 15:56:51.8     317    109    169    336    376  70.9  28.7  34242  290.98 0854.33
2009/04/23 15:56:51.9     304    102    219    321    388  71.4  37.6  34246  291.03 0854.33
2009/04/23 15:56:52.0     183    166    185    248    309  47.7  40.4  34254  291.17 0854.33
2009/04/23 15:56:52.1     198      8    259    199    326  87.6  58.7  34250  291.09 0854.33
2009/04/23 15:56:52.2     190    -38    104    194    220 101.5  30.8  34238  290.91 0854.33
2009/04/23 15:56:52.3      18     10    111     21    112  59.3  89.1  34252  291.13 0854.33
2009/04/23 15:56:52.4      17    -64    122     67    139 164.8  68.9  34254  291.16 0854.33
2009/04/23 15:56:52.5      27    -80    172     85    191 160.8  72.4  34248  291.06 0854.33
2009/04/23 15:56:52.6       6    -86    172     87    192 175.5  71.4  34248  291.06 0854.33
2009/04/23 15:56:52.7     129    -50    135    139    193 111.3  49.4  34234  290.84 0854.33
2009/04/23 15:56:52.8     117    -12    140    118    183  96.1  55.6  34238  290.89 0854.33
2009/04/23 15:56:52.9     151    147    163    212    267  45.8  41.6  34268  291.41 0854.33
2009/04/23 15:56:53.0      57     73    177     93    199  38.3  70.4  34260  291.28 0854.33
2009/04/23 15:56:53.1      80     16    144     82    165  78.1  67.7  34244  291.01 0854.33
2009/04/23 15:56:53.2     189    247    189    312    364  37.4  34.1  34282  291.64 0854.35
2009/04/23 15:56:53.3      90    124    154    154    217  36.0  50.1  34284  291.69 0854.35
2009/04/23 15:56:53.4      36    179    153    183    238  11.6  44.3  34286  291.71 0854.35
2009/04/23 15:56:53.5    -145    113     60    185    195 308.0  18.1  34272  291.47 0854.35
2009/04/23 15:56:53.6    -134    184      2    228    229 323.9   0.7  34268  291.40 0854.35
2009/04/23 15:56:53.7     -77    208     23    223    225 339.5   6.1  34270  291.45 0854.35
2009/04/23 15:56:53.8      52    246     16    252    253  12.0   3.8  34288  291.75 0854.35
2009/04/23 15:56:53.9      63    236     30    245    247  15.1   7.2  34288  291.73 0854.35
2009/04/23 15:56:54.0     102    102     28    145    148  45.0  11.0  34276  291.54 0854.35
2009/04/23 15:56:54.1     119    234   -115    263    287  27.0 -29.5  34204  290.32 0854.35
2009/04/23 15:56:54.2     240    254    105    350    366  43.4  16.7  34214  290.50 0854.35
2009/04/23 15:56:54.3     262    204     95    333    347  52.1  15.9  34202  290.28 0854.35
2009/04/23 15:56:54.4     286    330     94    437    448  40.9  12.2  34218  290.55 0854.35
2009/04/23 15:56:54.5     351    354     98    499    509  44.8  11.1  34254  291.17 0854.35
2009/04/23 15:56:54.6     254    277    166    377    411  42.5  25.2  34296  291.88 0854.35
2009/04/23 15:56:54.7     201    284    190    348    396  35.3  31.0  34288  291.76 0854.35
2009/04/23 15:56:54.8     154    359    242    391    459  23.2  34.9  34298  291.91 0854.35
2009/04/23 15:56:54.9     189    345    279    394    482  28.7  38.7  34284  291.69 0854.35
2009/04/23 15:56:55.0     133    375    206    399    449  19.6  29.3  34240  290.92 0854.35
2009/04/23 15:56:55.1     188    367    116    413    429  27.1  15.7  34236  290.85 0854.35
2009/04/23 15:56:55.2     132    318    184    345    391  22.6  30.3  34234  290.83 0854.36
2009/04/23 15:56:55.3     -97    355    145    369    396 344.7  22.7  34250  291.11 0854.36
2009/04/23 15:56:55.4     -17    281    148    282    318 356.4  30.0  34252  291.14 0854.36
2009/04/23 15:56:55.5      68    255    179    265    319  15.1  37.3  34222  290.63 0854.36
2009/04/23 15:56:55.6     190    230    186    299    352  39.7  34.9  34212  290.47 0854.36
2009/04/23 15:56:55.7     330    269    259    427    499  50.8  34.2  34248  291.08 0854.36
2009/04/23 15:56:55.8     241    287    263    375    458  40.0  38.5  34232  290.80 0854.36
2009/04/23 15:56:55.9     138    264    213    299    367  27.6  39.1  34226  290.69 0854.36
2009/04/23 15:56:56.0      96    238    223    257    340  22.1  45.5  34250  291.10 0854.36
2009/04/23 15:56:56.1     168    259    167    310    352  33.0  30.6  34274  291.52 0854.36
2009/04/23 15:56:56.2     175    274     97    326    341  32.5  16.6  34152  289.43 0854.36
2009/04/23 15:56:56.3     149    291     79    328    338  27.2  13.7  34148  289.38 0854.36
2009/04/23 15:56:56.4     183    259     39    318    321  35.2   7.1  34154  289.47 0854.36
2009/04/23 15:56:56.5     259    244     55    356    361  46.7   8.8  34230  290.76 0854.36
2009/04/23 15:56:56.6     250    257     -2    359    360  44.2  -0.4  34146  289.33 0854.36
2009/04/23 15:56:56.7     314    223      4    386    387  54.6   0.7  34162  289.62 0854.36
2009/04/23 15:56:56.8     382    241     12    452    453  57.7   1.6  34160  289.58 0854.36
2009/04/23 15:56:56.9     547    265     60    608    611  64.1   5.7  34210  290.41 0854.36
2009/04/23 15:56:57.0     530    239     72    582    587  65.7   7.1  34190  290.08 0854.36
2009/04/23 15:56:57.1     612    298     93    681    688  64.0   7.8  34198  290.21 0854.36
2009/04/23 15:56:57.2     464     94     40    474    476  78.5   4.9  34226  290.68 0854.35
2009/04/23 15:56:57.3     362    -44     34    365    367  97.0   5.4  34230  290.77 0854.35
2009/04/23 15:56:57.4     454   -144    -14    477    478 107.7  -1.8  34246  291.02 0854.35
2009/04/23 15:56:57.5     391    -76     96    399    411 101.1  13.5  34298  291.92 0854.35
2009/04/23 15:56:57.6     349     11     37    350    353  88.1   6.1  34264  291.35 0854.35
2009/04/23 15:56:57.7     396    -15   -101    397    410  92.3 -14.4  34260  291.28 0854.35
2009/04/23 15:56:57.8     377    -15    -16    378    379  92.3  -2.5  34264  291.34 0854.35
2009/04/23 15:56:57.9     357     31     64    359    365  84.9  10.2  34252  291.13 0854.35
2009/04/23 15:56:58.0     140    -61    201    153    252 113.6  59.0  34262  291.32 0854.35
2009/04/23 15:56:58.1     -48   -311     86    315    327 188.9  15.4  34250  291.10 0854.35
2009/04/23 15:56:58.2      81   -576    171    582    607 172.0  16.4  34204  290.31 0854.35
2009/04/23 15:56:58.3      88   -469    173    478    508 169.3  20.9  34212  290.47 0854.35
2009/04/23 15:56:58.4     111   -455    252    469    532 166.2  30.7  34212  290.44 0854.35
2009/04/23 15:56:58.5    -242   -579    263    628    680 202.7  24.1  34224  290.65 0854.35
2009/04/23 15:56:58.6    -657   -298   -205    722    750 245.6 -20.7  34166  289.68 0854.35
2009/04/23 15:56:58.7    -548   -423   -158    693    711 232.4 -12.9  34166  289.66 0854.35
2009/04/23 15:56:58.8    -386   -388     17    548    549 224.9   1.8  34184  289.99 0854.35
2009/04/23 15:56:58.9    -236   -228    -98    329    344 225.9 -16.7  34182  289.93 0854.35
2009/04/23 15:56:59.0    -282   -310    -16    420    421 222.3  -2.2  34200  290.26 0854.35
2009/04/23 15:56:59.1    -299   -230     13    378    379 232.4   2.1  34228  290.71 0854.35
2009/04/23 15:56:59.2    -262   -140   -109    298    317 241.8 -25.4  34228  290.71 0854.36
2009/04/23 15:56:59.3     -27   -215   -140    217    258 187.3 -40.1  34212  290.44 0854.36
2009/04/23 15:56:59.4    -176   -170   -211    246    324 226.0 -49.4  34198  290.20 0854.36
2009/04/23 15:56:59.5     -86   -309   -152    321    355 195.6 -31.5  34206  290.35 0854.36
2009/04/23 15:56:59.6    -140   -431    181    454    488 198.0  23.0  34212  290.47 0854.36
2009/04/23 15:56:59.7    -277   -434    110    516    528 212.6  12.1  34208  290.40 0854.36
2009/04/23 15:56:59.8    -269   -308    -73    410    417 221.2 -10.1  34226  290.68 0854.36
2009/04/23 15:56:59.9    -223   -210    -50    307    312 226.7  -9.3  34230  290.75 0854.36
2009/04/23 15:57:00.0    -212   -240    -10    321    322 221.4  -1.9  34256  291.21 0854.36
2009/04/23 15:57:00.1    -174   -329   -100    373    387 207.9 -15.0  34264  291.34 0854.36
2009/04/23 15:57:00.2    -181   -203      5    273    274 221.7   1.2  34228  290.71 0854.36
2009/04/23 15:57:00.3    -279    -96     57    296    302 250.9  11.0  34250  291.09 0854.36
2009/04/23 15:57:00.4    -150      0    -33    151    155 270.0 -12.4  34236  290.87 0854.36
2009/04/23 15:57:00.5    -149     70    -31    165    169 295.3 -10.9  34234  290.82 0854.36
2009/04/23 15:57:00.6    -136     50    -92    146    172 290.4 -39.9  34234  290.84 0854.36
2009/04/23 15:57:00.7    -423    -84   -130    432    451 258.8 -21.7  34238  290.89 0854.36
2009/04/23 15:57:00.8    -482    -93   -136    492    511 259.0 -15.5  34232  290.79 0854.36
2009/04/23 15:57:00.9    -331      0   -237    332    407 270.0 -43.4  34208  290.38 0854.36
2009/04/23 15:57:01.0    -426    -91   -189    436    475 257.8 -29.3  34210  290.43 0854.36
2009/04/23 15:57:01.1    -448    -87   -241    457    516 259.0 -34.5  34208  290.37 0854.36
2009/04/23 15:57:01.2    -589    -81   -227    595    636 262.1 -26.4  34238  290.88 0854.38
2009/04/23 15:57:01.3    -429     19   -211    430    478 272.6 -32.4  34234  290.84 0854.38
2009/04/23 15:57:01.4    -327    -50   -309    331    452 261.2 -52.3  34242  290.97 0854.38
2009/04/23 15:57:01.5    -144   -317   -110    349    366 204.4 -17.5  34220  290.60 0854.38
2009/04/23 15:57:01.6     -81   -292   -102    304    321 195.6 -18.6  34218  290.54 0854.38
2009/04/23 15:57:01.7     -96   -417   -140    428    450 193.0 -23.5  34220  290.58 0854.38
2009/04/23 15:57:01.8     -79   -530   -120    536    550 188.5 -12.7  34212  290.45 0854.38
2009/04/23 15:57:01.9     -85   -472    -35    480    482 190.2  -4.2  34212  290.44 0854.38
2009/04/23 15:57:02.0       3   -462   -128    463    481 179.5 -15.5  34208  290.40 0854.38
2009/04/23 15:57:02.2     -80   -359    -70    369    376 192.7 -10.8  34200  290.25 0854.38
2009/04/23 15:57:02.3      87   -414     82    424    432 168.1  11.0  34200  290.24 0854.38
2009/04/23 15:57:02.4     154   -367    -13    399    400 157.2  -1.9  34182  289.96 0854.38
2009/04/23 15:57:02.5     123   -455     27    472    473 164.9   3.3  34186  290.01 0854.38
2009/04/23 15:57:02.6     -38   -350     13    353    354 186.3   2.2  34188  290.06 0854.38
2009/04/23 15:57:02.7     -98   -297     45    313    317 198.3   8.2  34196  290.17 0854.38
2009/04/23 15:57:02.8     124   -170    153    211    260 143.9  39.5  34186  290.02 0854.38
2009/04/23 15:57:02.9     167   -127     39    210    214 127.3  10.6  34184  289.99 0854.38
2009/04/23 15:57:03.0      95   -140     51    170    178 145.7  16.8  34182  289.96 0854.38
2009/04/23 15:57:03.1     -17    -58    -62     61     86 196.9 -54.1  34186  290.01 0854.38
2009/04/23 15:57:03.2      75    -52      6     92     93 124.6   3.8  34190  290.08 0854.38
2009/04/23 15:57:03.3      89    -44    -30    100    105 116.2 -17.0  34186  290.01 0854.39
2009/04/23 15:57:03.4      78    -66      9    103    104 130.4   5.4  34188  290.04 0854.39
2009/04/23 15:57:03.5      23    -59    -30     64     70 158.1 -31.6  34190  290.08 0854.39
2009/04/23 15:57:03.6      12   -111    141    112    180 173.8  57.5  34172  289.79 0854.39
2009/04/23 15:57:03.7      27      7    103     29    107  74.9  83.9  34170  289.75 0854.39
2009/04/23 15:57:03.8     138    -32    171    142    222 103.2  56.3  34172  289.79 0854.39
2009/04/23 15:57:03.9      58    -38    129     70    146 123.3  69.3  34174  289.82 0854.39
2009/04/23 15:57:04.0      24      8    116     26    118  71.6  87.5  34196  290.19 0854.39
2009/04/23 15:57:04.1     214    -22    104    216    239  96.1  27.4  34178  289.87 0854.39
2009/04/23 15:57:04.2     139     54     75    150    167  68.7  28.2  34178  289.87 0854.39
2009/04/23 15:57:04.3     -11    -36    131     38    136 196.9  83.3  34190  290.09 0854.40
2009/04/23 15:57:04.4     -15     64     87     66    109 346.6  59.0  34198  290.21 0854.40
2009/04/23 15:57:04.5      57     47    132     74    151  50.5  68.8  34192  290.13 0854.40
2009/04/23 15:57:04.6     -29     42    131     52    140 324.8  77.1  34208  290.38 0854.40
2009/04/23 15:57:04.7     -70    -23     98     74    122 251.4  59.0  34198  290.23 0854.40
2009/04/23 15:57:04.8     -43    -41    100     60    116 226.0  65.7  34198  290.23 0854.40
2009/04/23 15:57:04.9    -155    -98    130    184    225 237.5  39.1  34194  290.16 0854.40
2009/04/23 15:57:05.0    -189    -56     66    198    209 253.4  18.4  34190  290.08 0854.40
2009/04/23 15:57:05.1    -210   -143    129    255    285 235.8  29.1  34194  290.14 0854.40
2009/04/23 15:57:05.2    -157   -192    169    249    300 219.2  37.4  34192  290.10 0854.40
2009/04/23 15:57:05.3    -329   -126     71    353    361 248.9  11.5  34198  290.20 0854.40
2009/04/23 15:57:05.4    -269    133      6    301    302 296.4   1.2  34208  290.39 0854.40
2009/04/23 15:57:05.5    -258    -58     96    265    281 257.2  20.7  34208  290.39 0854.40
2009/04/23 15:57:05.6    -180   -122    213    218    304 235.9  49.4  34180  289.92 0854.40
2009/04/23 15:57:05.7    -317     49    236    321    398 278.8  40.0  34214  290.49 0854.40
2009/04/23 15:57:05.8    -193    122    242    229    333 302.4  52.0  34214  290.49 0854.40
2009/04/23 15:57:05.9      34    184    146    188    238  10.7  41.7  34190  290.08 0854.40
2009/04/23 15:57:06.0     110    232    173    257    309  25.4  37.0  34176  289.85 0854.40
2009/04/23 15:57:06.1     124    194    205    231    308  32.6  45.9  34182  289.93 0854.40
2009/04/23 15:57:06.2     184    196    234    269    356  43.2  45.6  34192  290.10 0854.40
2009/04/23 15:57:06.3     170    130    295    215    365  52.5  60.5  34216  290.51 0854.42
2009/04/23 15:57:06.4     224    202    325    302    443  48.0  52.2  34224  290.65 0854.42
2009/04/23 15:57:06.5     256    361    424    443    613  35.4  48.6  34210  290.41 0854.42
2009/04/23 15:57:06.6     387    121    429    406    590  72.6  52.0  34196  290.18 0854.42
2009/04/23 15:57:06.7     289   -110    416    310    518 110.9  59.7  34240  290.94 0854.42
2009/04/23 15:57:06.8      68   -108    278    128    306 147.9  73.5  34222  290.63 0854.42
2009/04/23 15:57:06.9      32    -78    226     85    241 157.7  78.6  34214  290.48 0854.42
2009/04/23 15:57:07.0     270      0    218    271    347  90.0  43.1  34274  291.50 0854.42
2009/04/23 15:57:07.1      88     22    216     91    234  75.4  76.0  34262  291.32 0854.42
2009/04/23 15:57:07.2      22   -110    283    113    304 168.4  77.1  34208  290.37 0854.42
2009/04/23 15:57:07.3      95   -430    156    441    468 167.5  19.5  34194  290.16 0854.42
2009/04/23 15:57:07.4      20   -447    175    448    480 177.4  22.5  34178  289.88 0854.42
2009/04/23 15:57:07.5      28   -502    142    503    523 176.8  15.8  34162  289.61 0854.42
2009/04/23 15:57:07.6      60   -429     74    434    441 172.0   9.7  34162  289.61 0854.42
2009/04/23 15:57:07.7     -10   -266     31    267    269 182.2   6.7  34146  289.34 0854.42
2009/04/23 15:57:07.8      25   -185   -125    187    224 172.2 -41.4  34150  289.41 0854.42
2009/04/23 15:57:07.9     160   -253     -6    300    301 147.7  -1.2  34156  289.51 0854.42
2009/04/23 15:57:08.0      85   -210     85    227    242 157.9  21.5  34152  289.44 0854.42
2009/04/23 15:57:08.1      27   -248    181    250    308 173.8  39.5  34152  289.44 0854.42
2009/04/23 15:57:08.2     -17   -231    168    232    286 184.2  39.5  34162  289.59 0854.42
2009/04/23 15:57:08.3     -30   -219     74    222    235 188.0  18.6  34156  289.50 0854.43
2009/04/23 15:57:08.4     -95   -221      8    241    242 203.4   2.1  34156  289.49 0854.43
2009/04/23 15:57:08.5    -102   -185    -28    212    214 209.0  -7.7  34158  289.53 0854.43
2009/04/23 15:57:08.6     -41   -134    -42    141    148 197.0 -16.6  34160  289.58 0854.43
2009/04/23 15:57:08.7      23   -173    -18    175    176 172.4  -6.0  34158  289.55 0854.43
2009/04/23 15:57:08.8      28   -158    -11    161    162 169.8  -3.9  34158  289.55 0854.43
2009/04/23 15:57:08.9     121   -166      8    206    207 143.9   2.3  34158  289.53 0854.43
2009/04/23 15:57:09.0      31   -226    115    229    256 172.0  28.5  34166  289.68 0854.43
2009/04/23 15:57:09.1      93   -289     31    304    306 162.1   5.9  34162  289.61 0854.43
2009/04/23 15:57:09.2     163   -350     46    387    390 155.1   6.9  34162  289.60 0854.43
2009/04/23 15:57:09.3     185   -395    -66    437    442 155.0  -8.6  34162  289.61 0854.43
2009/04/23 15:57:09.4     254   -307    152    399    426 140.4  22.0  34160  289.56 0854.43
2009/04/23 15:57:09.5     165   -300    121    343    364 151.2  19.5  34168  289.71 0854.43
2009/04/23 15:57:09.6     167   -196     92    258    273 139.5  20.4  34168  289.70 0854.43
2009/04/23 15:57:09.7     -66   -243    124    252    280 195.2  28.2  34164  289.64 0854.43
2009/04/23 15:57:09.8      -9   -401    281    402    490 181.4  38.5  34156  289.49 0854.43
2009/04/23 15:57:09.9      60   -254    215    262    338 166.6  43.6  34160  289.56 0854.43
2009/04/23 15:57:10.0     125   -327    216    351    412 159.0  34.4  34166  289.69 0854.43
2009/04/23 15:57:10.1     159   -311    114    350    369 152.8  18.1  34170  289.74 0854.43
2009/04/23 15:57:10.2      49   -355    173    359    398 172.1  27.7  34172  289.76 0854.43
2009/04/23 15:57:10.3      65   -306    185    313    363 168.0  33.5  34172  289.76 0854.45
2009/04/23 15:57:10.4      16   -292    140    293    324 176.9  27.3  34178  289.86 0854.45
2009/04/23 15:57:10.5       0   -346     65    347    354 180.0  10.7  34178  289.87 0854.45
2009/04/23 15:57:10.6      88   -369    -76    380    388 166.5 -11.3  34176  289.84 0854.45
2009/04/23 15:57:10.7      90   -346    -42    358    361 165.4  -6.7  34168  289.72 0854.45
2009/04/23 15:57:10.8    -137   -386    -91    410    421 199.6 -12.6  34164  289.65 0854.45
2009/04/23 15:57:10.9    -182   -327    -47    375    378 209.1  -7.2  34172  289.76 0854.45
2009/04/23 15:57:11.0    -227   -323   -132    395    417 215.1 -18.6  34170  289.73 0854.45
2009/04/23 15:57:11.1    -173   -295     -7    342    343 210.4  -1.3  34166  289.67 0854.45
2009/04/23 15:57:11.2    -102   -230     94    252    268 204.1  21.3  34170  289.75 0854.45
2009/04/23 15:57:11.3     -74   -181     98    196    219 202.5  28.7  34180  289.91 0854.45
2009/04/23 15:57:11.4     -33   -123     72    128    146 195.1  31.4  34184  289.97 0854.45
2009/04/23 15:57:11.5     -52    -59     57     80     98 221.4  39.5  34190  290.09 0854.45
2009/04/23 15:57:11.6    -161     45    -49    168    175 285.7 -21.5  34180  289.92 0854.45
2009/04/23 15:57:11.7    -186     71    -18    200    201 290.8  -5.4  34178  289.87 0854.45
2009/04/23 15:57:11.8    -145    170     11    224    225 319.5   2.9  34184  289.99 0854.45
2009/04/23 15:57:11.9     -68     83    -38    108    114 320.8 -23.3  34194  290.14 0854.45
2009/04/23 15:57:12.0    -168    158    -46    231    236 313.3 -11.3  34182  289.93 0854.45
2009/04/23 15:57:12.1     -39    190    -48    195    201 348.2 -13.9  34178  289.87 0854.45
2009/04/23 15:57:12.2      20     98    -51    101    113  11.6 -32.6  34182  289.94 0854.45
2009/04/23 15:57:12.3     108    -52     46    120    128 115.8  22.0  34174  289.80 0854.46
2009/04/23 15:57:12.4     252   -140     78    289    300 119.1  15.2  34176  289.83 0854.46
2009/04/23 15:57:12.5     138   -100    111    171    203 126.0  35.7  34174  289.82 0854.46
2009/04/23 15:57:12.6     -40   -131     30    138    142 197.0  12.6  34188  290.04 0854.46
2009/04/23 15:57:12.7     -88    -73     29    115    119 230.4  14.3  34184  289.99 0854.46
2009/04/23 15:57:12.8     -56      6     46     57     73 276.1  43.7  34182  289.96 0854.46
2009/04/23 15:57:12.9      -2    -37     33     38     50 184.4  44.8  34188  290.06 0854.46
2009/04/23 15:57:13.0      -2    -53     13     54     56 182.7  14.3  34188  290.04 0854.46
2009/04/23 15:57:13.1     -27    -68    -20     74     77 201.8 -15.5  34182  289.96 0854.46
2009/04/23 15:57:13.2     -40    -65     22     77     81 211.6  15.8  34184  289.97 0854.46
2009/04/23 15:57:13.3    -150    -99     38    181    186 236.5  12.0  34168  289.72 0854.46
2009/04/23 15:57:13.4    -230    -49     55    236    243 257.8  13.2  34166  289.66 0854.46
2009/04/23 15:57:13.5    -238    -16    -34    239    242 266.1  -8.2  34178  289.86 0854.46
2009/04/23 15:57:13.6    -205    -74     49    219    225 250.1  12.6  34166  289.67 0854.46
2009/04/23 15:57:13.7    -314     37     85    317    329 276.8  15.0  34174  289.80 0854.46
2009/04/23 15:57:13.8    -255     69     50    265    270 285.3  10.8  34170  289.75 0854.46
2009/04/23 15:57:13.9    -181    117    131    216    252 302.9  34.4  34174  289.80 0854.46
2009/04/23 15:57:14.0    -249    266    212    365    422 317.0  32.7  34186  290.02 0854.46
2009/04/23 15:57:14.1    -332    149    142    365    391 294.2  22.4  34188  290.06 0854.46
2009/04/23 15:57:14.2    -284    181    104    337    353 302.5  17.2  34190  290.08 0854.46
2009/04/23 15:57:14.3    -371    131     35    394    396 289.6   5.2  34182  289.96 0854.46
2009/04/23 15:57:14.4    -384     58    -46    389    392 278.6  -6.9  34178  289.86 0854.46
2009/04/23 15:57:14.5    -432     15    -44    433    436 272.0  -5.9  34174  289.80 0854.46
2009/04/23 15:57:14.6    -392     57     70    397    404 278.4  10.0  34166  289.67 0854.46
2009/04/23 15:57:14.7    -354    -89    -27    365    366 255.9  -4.4  34162  289.60 0854.46
2009/04/23 15:57:14.8    -219   -208     35    303    306 226.4   6.7  34168  289.70 0854.46
2009/04/23 15:57:14.9    -186   -166    118    250    276 228.2  27.1  34164  289.63 0854.46
2009/04/23 15:57:15.0    -154   -154    102    219    241 225.0  26.6  34174  289.80 0854.46
2009/04/23 15:57:15.1    -159   -148     61    218    227 227.1  15.8  34172  289.77 0854.46
2009/04/23 15:57:15.2     -88    -99     16    133    134 221.4   6.9  34176  289.85 0854.46
2009/04/23 15:57:15.3    -127   -146     -2    194    195 221.0  -0.7  34178  289.87 0854.46
2009/04/23 15:57:15.4       3    -38     42     39     57 175.5  51.2  34186  290.02 0854.46
2009/04/23 15:57:15.5     -15     32     77     36     85 334.5  73.5  34198  290.23 0854.46
2009/04/23 15:57:15.6    -149    116     29    190    193 308.0   8.8  34192  290.13 0854.46
2009/04/23 15:57:15.7    -205     31    182    208    276 278.6  45.8  34194  290.15 0854.46
2009/04/23 15:57:15.8    -232      1    149    233    276 270.4  35.6  34192  290.10 0854.46
2009/04/23 15:57:15.9    -209    -29    148    212    258 262.0  38.5  34186  290.00 0854.46
2009/04/23 15:57:16.0    -234    -46    205    239    314 258.8  45.1  34184  289.97 0854.46
2009/04/23 15:57:16.1    -187     63    242    198    312 288.6  56.6  34194  290.15 0854.46
2009/04/23 15:57:16.2    -140    138    259    197    325 314.7  59.0  34194  290.15 0854.46
2009/04/23 15:57:16.3     -99     83    247    130    279 310.0  70.0  34194  290.15 0854.44
2009/04/23 15:57:16.4    -118    148    294    190    350 321.3  64.6  34190  290.07 0854.44
2009/04/23 15:57:16.5      17     81    283     83    294  12.0  83.3  34176  289.85 0854.44
2009/04/23 15:57:16.6     120     66    257    138    291  61.1  69.6  34182  289.93 0854.44
2009/04/23 15:57:16.7     112     36    220    118    249  71.8  69.8  34160  289.57 0854.44
2009/04/23 15:57:16.8     -50   -126    248    136    282 201.9  68.9  34176  289.83 0854.44
2009/04/23 15:57:16.9    -104     -7    200    105    225 265.7  70.6  34154  289.48 0854.44
2009/04/23 15:57:17.0     141     20    225    143    266  81.6  64.7  34166  289.68 0854.44
2009/04/23 15:57:17.1      12   -125    263    126    291 174.2  72.8  34168  289.71 0854.44
2009/04/23 15:57:17.2       6     34    221     35    223  11.5  90.0  34192  290.11 0854.44
2009/04/23 15:57:17.3      25     14    207     29    209  61.1  90.0  34202  290.28 0854.44
2009/04/23 15:57:17.4     197   -132    201    238    311 123.7  44.3  34174  289.80 0854.44
2009/04/23 15:57:17.5     226    -17    224    227    318  94.4  49.8  34172  289.78 0854.44
2009/04/23 15:57:17.6     351    -10    295    352    459  91.7  44.1  34160  289.58 0854.44
2009/04/23 15:57:17.7     338   -125    284    361    459 110.4  42.2  34166  289.66 0854.44
2009/04/23 15:57:17.8     308   -217    251    378    453 125.2  36.6  34168  289.70 0854.44
2009/04/23 15:57:17.9     197    -32    286    200    348  99.5  61.8  34178  289.88 0854.44
2009/04/23 15:57:18.0     211    -56    333    219    398 105.1  63.6  34182  289.96 0854.44
2009/04/23 15:57:18.1     232    -62    240    241    340 105.1  50.1  34182  289.93 0854.44
2009/04/23 15:57:18.2     -98    -41    234    107    257 247.4  74.0  34192  290.11 0854.44
2009/04/23 15:57:18.3      60    -48    126     77    147 128.6  65.1  34194  290.14 0854.44
2009/04/23 15:57:18.4     212    -80     44    227    232 110.8  11.0  34170  289.75 0854.44
2009/04/23 15:57:18.5      67    -77     79    103    129 139.0  41.7  34182  289.96 0854.44
2009/04/23 15:57:18.6      18   -124    189    126    227 171.5  63.4  34196  290.18 0854.44
2009/04/23 15:57:18.7     107    -68    207    128    243 122.5  65.4  34182  289.94 0854.44
2009/04/23 15:57:18.8     106   -227    170    251    303 154.8  37.4  34178  289.86 0854.44
2009/04/23 15:57:18.9     -21   -241    149    242    284 185.1  34.5  34184  289.98 0854.44
2009/04/23 15:57:19.0     -42   -171    187    177    257 194.0  52.0  34202  290.29 0854.44
2009/04/23 15:57:19.1      -3    -41    152     42    157 184.5  84.4  34190  290.08 0854.44
2009/04/23 15:57:19.2       8     12    100     15    101  32.5  90.0  34198  290.23 0854.44
2009/04/23 15:57:19.3      40   -160    178    166    243 165.7  52.1  34180  289.92 0854.44
2009/04/23 15:57:19.4       0   -196    196    197    277 179.8  50.0  34178  289.86 0854.44
2009/04/23 15:57:19.5     -81   -235    173    249    303 199.2  38.0  34194  290.15 0854.44
2009/04/23 15:57:19.6     -77   -229    201    242    314 198.7  44.1  34196  290.19 0854.44
2009/04/23 15:57:19.7     -55   -221    169    228    283 194.0  40.4  34194  290.15 0854.44
2009/04/23 15:57:19.8     -45   -196    173    202    265 192.9  44.8  34188  290.03 0854.44
2009/04/23 15:57:19.9     -54   -177    140    186    232 196.9  40.7  34206  290.35 0854.44
2009/04/23 15:57:20.0    -182   -194     46    267    272 223.2   9.9  34208  290.37 0854.44
2009/04/23 15:57:20.1    -104   -135     82    171    189 217.6  27.3  34214  290.50 0854.44
2009/04/23 15:57:20.2     -62   -230    188    239    304 195.1  42.2  34232  290.78 0854.45
2009/04/23 15:57:20.3    -102   -297    158    315    352 198.9  28.7  34178  289.86 0854.45
2009/04/23 15:57:20.4     -46   -290    104    294    311 189.1  20.2  34172  289.78 0854.45
2009/04/23 15:57:20.5     -39   -272     68    275    284 188.2  13.9  34162  289.61 0854.45
2009/04/23 15:57:20.6     -34   -275     12    278    279 187.1   2.5  34166  289.66 0854.45
2009/04/23 15:57:20.7     -35   -231     47    234    239 188.7  11.6  34172  289.76 0854.45
2009/04/23 15:57:20.8     -16   -188     78    189    204 184.9  23.4  34182  289.96 0854.45
2009/04/23 15:57:20.9     -32   -190     52    193    201 189.6  15.2  34168  289.72 0854.45
2009/04/23 15:57:21.0     -35   -185     38    189    194 190.9  11.6  34168  289.72 0854.45
2009/04/23 15:57:21.1     -26   -167     23    170    172 188.9   8.0  34170  289.75 0854.45
2009/04/23 15:57:21.2     -25   -147     14    150    151 189.7   5.4  34168  289.72 0854.45
2009/04/23 15:57:21.3      11   -148    -17    149    151 175.5  -6.7  34168  289.72 0854.45
2009/04/23 15:57:21.4     -25   -149    -53    152    162 189.8 -19.4  34176  289.84 0854.45
2009/04/23 15:57:21.5    -107   -183    -57    213    221 210.3 -15.2  34214  290.48 0854.45
2009/04/23 15:57:21.6     -12    -37     36     40     53 198.3  47.9  34202  290.30 0854.45
2009/04/23 15:57:21.7     -50   -129    153    139    206 201.4  53.0  34176  289.84 0854.45
2009/04/23 15:57:21.8     -92   -146    139    173    221 212.3  43.3  34178  289.89 0854.45
2009/04/23 15:57:21.9    -110   -151     86    188    206 216.1  26.4  34182  289.94 0854.45
2009/04/23 15:57:22.0    -125    -82     57    150    160 236.7  21.5  34182  289.96 0854.45
2009/04/23 15:57:22.1     -69     66      3     96     97 314.0   1.8  34192  290.11 0854.45
2009/04/23 15:57:22.2     -95     40     67    104    123 293.1  35.6  34198  290.21 0854.42
2009/04/23 15:57:22.3     -22    -35     49     42     64 212.5  54.3  34204  290.33 0854.42
2009/04/23 15:57:22.4     -41    -58     50     72     87 215.2  38.0  34194  290.14 0854.42
2009/04/23 15:57:22.5     -56    -86     11    103    104 213.0   6.5  34194  290.16 0854.42
2009/04/23 15:57:22.6     -75    -78      5    109    110 223.7   2.8  34188  290.04 0854.42
2009/04/23 15:57:22.7     -38    -59    -24     71     74 212.5 -23.6  34192  290.11 0854.42
2009/04/23 15:57:22.8     -55    -18    -13     59     61 251.4 -12.4  34198  290.21 0854.42
2009/04/23 15:57:22.9    -248     27     77    250    262 276.2  17.3  34214  290.49 0854.42
2009/04/23 15:57:23.0    -217      6   -191    218    289 271.7 -50.2  34202  290.29 0854.42
2009/04/23 15:57:23.1    -220    270   -196    349    400 320.8 -36.3  34174  289.81 0854.42
2009/04/23 15:57:23.2    -298    151     22    335    336 296.9   3.8  34192  290.11 0854.42
2009/04/23 15:57:23.3    -189     85     20    208    210 294.2   5.7  34188  290.04 0854.42
2009/04/23 15:57:23.4    -206     58     -6    215    216 285.9  -1.6  34198  290.21 0854.42
2009/04/23 15:57:23.5    -201     -3     -1    202    203 269.0  -0.5  34202  290.28 0854.42
2009/04/23 15:57:23.6    -218     17    -12    219    220 274.6  -3.3  34200  290.25 0854.42
2009/04/23 15:57:23.7    -153    -31     -6    157    158 258.5  -2.2  34196  290.19 0854.42
2009/04/23 15:57:23.8    -127    -80    -39    151    157 237.6 -14.7  34192  290.13 0854.42
2009/04/23 15:57:23.9    -116    -35    -16    122    124 253.1  -7.7  34188  290.04 0854.42
2009/04/23 15:57:24.0    -145      3     13    146    147 271.3   5.4  34192  290.11 0854.42
2009/04/23 15:57:24.1     -91    -54     10    107    108 239.3   5.4  34188  290.06 0854.42
2009/04/23 15:57:24.2     -39   -194     -4    198    199 191.5  -1.3  34184  289.99 0854.42
2009/04/23 15:57:24.3     -48   -248      7    253    254 191.1   1.6  34184  289.98 0854.42
2009/04/23 15:57:24.4     -31   -222    -54    225    232 188.1 -13.7  34182  289.94 0854.42
2009/04/23 15:57:24.5       4   -215     20    216    218 178.9   5.4  34178  289.89 0854.42
2009/04/23 15:57:24.7      16   -255     17    256    257 176.2   3.9  34168  289.71 0854.42
2009/04/23 15:57:24.7      -1   -219     42    220    225 180.5  11.0  34168  289.72 0854.42
2009/04/23 15:57:24.8       5   -209     46    210    216 178.4  12.4  34170  289.74 0854.42
2009/04/23 15:57:24.9       0   -211    -19    212    214 180.2  -5.4  34166  289.69 0854.42
2009/04/23 15:57:25.0      45   -252    -47    257    262 169.8 -10.4  34172  289.76 0854.42
2009/04/23 15:57:25.1      89   -183      4    204    205 153.9   1.2  34168  289.72 0854.42
2009/04/23 15:57:25.2      98   -111     39    149    155 138.6  14.7  34172  289.79 0854.42
2009/04/23 15:57:25.3      60    -80     51    101    113 143.0  28.2  34174  289.80 0854.42
2009/04/23 15:57:25.4      55    -18     79     59     98 108.6  60.0  34182  289.94 0854.42
2009/04/23 15:57:25.5      81     22     45     85     96  74.5  30.3  34182  289.96 0854.42
2009/04/23 15:57:25.6      76    -60      4     98     99 128.2   2.8  34168  289.70 0854.42
2009/04/23 15:57:25.7      75    -69     73    103    126 132.7  39.1  34168  289.72 0854.42
2009/04/23 15:57:25.9      36    -84     59     92    109 156.4  35.6  34176  289.84 0854.42
2009/04/23 15:57:25.9      76    -73     53    106    118 134.0  28.2  34168  289.70 0854.42
2009/04/23 15:57:26.0      32    -68     46     76     88 154.5  34.4  34166  289.69 0854.42
2009/04/23 15:57:26.1     -45    -69     54     83     99 213.0  36.0  34170  289.75 0854.42
2009/04/23 15:57:26.2     -37    -68     65     78    101 209.0  43.8  34168  289.70 0854.42
2009/04/23 15:57:26.3     -73    -57     47     93    104 232.2  29.3  34170  289.75 0854.42
2009/04/23 15:57:26.4      -7    -85     58     86    103 185.3  37.0  34172  289.79 0854.42
2009/04/23 15:57:26.5       0   -100     61    101    117 180.0  34.0  34174  289.82 0854.42
2009/04/23 15:57:26.6      15   -133     64    134    148 173.3  27.3  34174  289.82 0854.42
2009/04/23 15:57:26.7     -38   -113    147    120    189 198.7  56.4  34194  290.14 0854.42
2009/04/23 15:57:26.8     -68   -164    108    178    208 202.7  34.2  34194  290.14 0854.42
2009/04/23 15:57:26.9     -41   -232    102    236    257 190.2  24.9  34194  290.14 0854.42
2009/04/23 15:57:27.1     -75   -278     67    289    297 195.2  13.2  34192  290.12 0854.42
2009/04/23 15:57:27.1    -201   -212    -39    293    296 223.4  -7.7  34162  289.59 0854.42
2009/04/23 15:57:27.2    -173   -186     54    255    261 223.0  12.2  34160  289.58 0854.34
2009/04/23 15:57:27.3    -176   -213    -15    277    278 219.6  -3.1  34174  289.80 0854.34
2009/04/23 15:57:27.4    -170   -181     43    249    253 223.2  10.0  34176  289.85 0854.34
2009/04/23 15:57:27.5    -146   -139     45    202    208 226.4  12.6  34180  289.91 0854.34
2009/04/23 15:57:27.6     -77   -114    123    138    184 214.3  46.4  34184  289.97 0854.34
2009/04/23 15:57:27.7     -79   -204    202    219    297 201.2  47.9  34198  290.22 0854.34
2009/04/23 15:57:27.8    -100   -156    186    186    263 212.6  50.1  34204  290.32 0854.34
2009/04/23 15:57:27.9     -82   -341    198    351    402 193.5  31.9  34170  289.74 0854.34
2009/04/23 15:57:28.0     -41   -426    111    429    444 185.6  14.5  34160  289.58 0854.34
2009/04/23 15:57:28.1     -25   -431     67    432    438 183.4   8.9  34162  289.60 0854.34
2009/04/23 15:57:28.3     -49   -428    113    431    446 186.6  14.7  34158  289.55 0854.34
2009/04/23 15:57:28.3     -62   -427    240    432    494 188.3  31.4  34168  289.71 0854.34
2009/04/23 15:57:28.4    -101   -443    233    455    511 192.9  29.3  34160  289.57 0854.34
2009/04/23 15:57:28.5    -113   -446    247    461    523 194.3  30.6  34168  289.71 0854.34
2009/04/23 15:57:28.6      22   -335    319    336    463 176.2  48.4  34198  290.22 0854.34
2009/04/23 15:57:28.7    -185   -531    210    563    600 199.2  21.4  34184  289.97 0854.34
2009/04/23 15:57:28.8    -240   -484    162    541    565 206.4  16.7  34184  289.97 0854.34
2009/04/23 15:57:29.0    -257   -454    122    522    537 209.5  13.2  34188  290.06 0854.34
2009/04/23 15:57:29.1    -428   -369    -18    566    567 229.2  -1.9  34126  288.99 0854.34
2009/04/23 15:57:29.2    -327   -362     63    489    494 222.1   7.4  34142  289.28 0854.34
2009/04/23 15:57:29.3    -306   -253   -125    398    418 230.4 -17.5  34146  289.34 0854.29
2009/04/23 15:57:29.4    -120   -256    -56    284    290 205.2 -11.3  34156  289.51 0854.29
2009/04/23 15:57:29.5     -44   -479    -56    482    486 185.3  -6.7  34132  289.10 0854.29
2009/04/23 15:57:29.6     138   -397     81    421    429 160.8  11.0  34130  289.07 0854.29
2009/04/23 15:57:29.7     -25   -227    130    229    263 186.5  32.1  34134  289.12 0854.29
2009/04/23 15:57:29.8    -102   -292    179    310    357 199.4  32.7  34154  289.48 0854.29
2009/04/23 15:57:29.9    -223   -450    -33    503    505 206.4  -3.8  34156  289.50 0854.29
2009/04/23 15:57:30.0    -270   -419    -77    499    505 212.9  -8.8  34162  289.59 0854.29
2009/04/23 15:57:30.1    -111   -367   -121    384    403 196.9 -17.5  34148  289.37 0854.29
2009/04/23 15:57:30.2    -201   -208     36    290    293 224.1   7.1  34138  289.20 0854.29
2009/04/23 15:57:30.3      46   -335     76    339    348 172.2  12.8  34158  289.55 0854.29
2009/04/23 15:57:30.4     204   -401    103    450    462 153.0  12.9  34144  289.29 0854.29
2009/04/23 15:57:30.5     106   -445     48    458    461 166.6   6.1  34140  289.22 0854.29
2009/04/23 15:57:30.6    -186   -379    -32    423    425 206.1  -4.4  34144  289.29 0854.29
2009/04/23 15:57:30.7     -37   -485     -5    487    488 184.5  -0.6  34130  289.08 0854.29
2009/04/23 15:57:30.8     173   -603    217    628    665 164.0  19.1  34142  289.26 0854.29
2009/04/23 15:57:30.9      80   -710    195    715    742 173.5  15.3  34140  289.22 0854.29
2009/04/23 15:57:31.0      70   -704    262    708    754 174.3  21.3  34136  289.18 0854.29
2009/04/23 15:57:31.1     129   -712    315    724    789 169.7  25.0  34132  289.09 0854.29
2009/04/23 15:57:31.2      20   -731    228    732    767 178.4  17.3  34144  289.29 0854.29
2009/04/23 15:57:31.3       2   -589   -175    590    616 179.8 -16.5  34128  289.02 0854.31
2009/04/23 15:57:31.4     -90   -637   -114    644    655 188.1 -10.1  34138  289.21 0854.31
2009/04/23 15:57:31.5     -89   -529   -139    537    555 189.6 -14.5  34138  289.21 0854.31
2009/04/23 15:57:31.6    -128   -517     16    533    534 193.9   1.8  34140  289.23 0854.31
2009/04/23 15:57:31.7    -110   -669    -33    679    680 189.4  -2.8  34138  289.19 0854.31
2009/04/23 15:57:31.8    -293   -716   -171    774    793 202.3 -12.5  34150  289.39 0854.31
2009/04/23 15:57:31.9    -235   -716   -217    754    784 198.2 -20.8  34158  289.54 0854.31
2009/04/23 15:57:32.0    -118   -731   -182    741    764 189.2 -13.8  34158  289.53 0854.31
2009/04/23 15:57:32.1    -192   -649   -166    678    699 196.5 -13.8  34162  289.60 0854.31
2009/04/23 15:57:32.2     -13   -605   -218    606    645 181.3 -19.8  34152  289.42 0854.31
2009/04/23 15:57:32.3     -13   -716   -215    717    749 181.1 -16.7  34150  289.40 0854.31
2009/04/23 15:57:32.4     105   -741   -168    749    768 171.9 -12.7  34130  289.07 0854.31
2009/04/23 15:57:32.5     165   -668   -135    689    703 166.1 -11.1  34130  289.05 0854.31
2009/04/23 15:57:32.6      69   -544   -108    549    560 172.7 -11.2  34136  289.18 0854.31
2009/04/23 15:57:32.7     -19   -627    -80    628    634 181.8  -7.3  34144  289.30 0854.31
2009/04/23 15:57:32.8     -21   -534   -117    535    548 182.3 -12.4  34152  289.45 0854.31
2009/04/23 15:57:32.9       3   -417   -119    418    434 179.5 -20.7  34156  289.51 0854.31
2009/04/23 15:57:33.0      31   -480   -127    482    499 176.2 -14.8  34156  289.52 0854.31
2009/04/23 15:57:33.1       7   -476   -109    477    490 179.1 -12.9  34150  289.39 0854.31
2009/04/23 15:57:33.2      74   -348     28    356    358 168.0   4.6  34148  289.38 0854.31
2009/04/23 15:57:33.3     185   -290    122    345    367 147.5  19.6  34144  289.30 0854.29
2009/04/23 15:57:33.4     190   -298     63    354    360 147.4  10.1  34146  289.32 0854.29
2009/04/23 15:57:33.5     291   -397     64    493    498 143.7   7.5  34150  289.40 0854.29
2009/04/23 15:57:33.6     194   -401     58    446    450 154.1   7.5  34150  289.41 0854.29
2009/04/23 15:57:33.7     205   -355     42    410    413 150.0   6.0  34152  289.43 0854.29
2009/04/23 15:57:33.8     327   -408   -146    523    542 141.3 -20.2  34150  289.40 0854.29
2009/04/23 15:57:33.9     219   -396    -58    453    457 151.0  -7.3  34150  289.41 0854.29
2009/04/23 15:57:34.0     215   -316    -21    383    384 145.7  -3.1  34146  289.33 0854.29
2009/04/23 15:57:34.1     183   -287    -61    341    347 147.5 -10.2  34142  289.28 0854.29
2009/04/23 15:57:34.2     224    -60     38    232    236 105.0   9.5  34138  289.19 0854.29
2009/04/23 15:57:34.3     221   -236     46    324    328 137.0   8.2  34148  289.36 0854.29
2009/04/23 15:57:34.4     238   -385    162    453    481 148.3  20.4  34140  289.22 0854.29
2009/04/23 15:57:34.5      62   -305    152    312    347 168.4  27.8  34134  289.13 0854.29
2009/04/23 15:57:34.6      45   -296    176    300    347 171.3  33.1  34146  289.35 0854.29
2009/04/23 15:57:34.7      77   -425     43    433    436 169.7   5.7  34140  289.22 0854.29
2009/04/23 15:57:34.8      17   -325    -99    326    341 177.0 -17.0  34144  289.30 0854.29
2009/04/23 15:57:34.9      24   -386     -8    387    388 176.4  -1.3  34144  289.30 0854.29
2009/04/23 15:57:35.0      22   -376    103    377    391 176.6  15.3  34146  289.32 0854.29
2009/04/23 15:57:35.1      73   -483    170    489    518 171.4  19.2  34142  289.27 0854.29
2009/04/23 15:57:35.2     166   -435    237    466    522 159.1  29.1  34148  289.37 0854.29
2009/04/23 15:57:35.3     177   -374    231    414    474 154.7  31.6  34138  289.21 0854.28
2009/04/23 15:57:35.4     152   -459    320    484    580 161.7  36.5  34144  289.29 0854.28
2009/04/23 15:57:35.5      91   -533    219    541    583 170.3  23.1  34144  289.29 0854.28
2009/04/23 15:57:35.6     253   -471    253    535    591 151.8  27.1  34148  289.37 0854.28
2009/04/23 15:57:35.7     315   -485    194    579    611 147.0  18.6  34150  289.39 0854.28
2009/04/23 15:57:35.8     396   -451     82    601    607 138.7   7.8  34140  289.22 0854.28
2009/04/23 15:57:35.9     262   -357     39    443    445 143.7   5.1  34142  289.26 0854.28
2009/04/23 15:57:36.0     315   -393      6    504    505 141.3   0.7  34144  289.30 0854.28
2009/04/23 15:57:36.1     224   -367     52    431    435 148.6   6.9  34140  289.24 0854.28
2009/04/23 15:57:36.2      95   -471    142    481    502 168.5  16.5  34142  289.27 0854.28
2009/04/23 15:57:36.3     175   -543    125    571    585 162.1  12.4  34150  289.39 0854.28
2009/04/23 15:57:36.4     157   -624    205    644    676 165.8  17.7  34150  289.39 0854.28
2009/04/23 15:57:36.5     330   -673     14    750    751 153.9   1.1  34146  289.33 0854.28
2009/04/23 15:57:36.6     331   -719    192    792    816 155.3  13.7  34136  289.16 0854.28
2009/04/23 15:57:36.7     357   -513    300    626    694 145.2  27.3  34142  289.27 0854.28
2009/04/23 15:57:36.8     417   -613    267    742    788 145.8  20.7  34144  289.30 0854.28
2009/04/23 15:57:36.9     366   -734     85    821    826 153.5   6.0  34154  289.48 0854.28
2009/04/23 15:57:37.0     329   -667    -29    744    745 153.7  -2.2  34142  289.26 0854.28
2009/04/23 15:57:37.1     413   -632    182    756    778 146.8  13.6  34146  289.32 0854.28
2009/04/23 15:57:37.2     232   -648    229    689    727 160.3  18.4  34152  289.42 0854.28
2009/04/23 15:57:37.3     232   -736    146    772    786 162.5  10.7  34152  289.42 0854.30
2009/04/23 15:57:37.4     240   -548    133    599    614 156.3  12.6  34150  289.41 0854.30
2009/04/23 15:57:37.5      79   -631    -69    637    641 172.8  -6.3  34156  289.50 0854.30
2009/04/23 15:57:37.6    -115   -675    -21    685    686 189.7  -1.8  34154  289.48 0854.30
2009/04/23 15:57:37.7    -310   -619    -16    693    694 206.6  -1.4  34148  289.36 0854.30
2009/04/23 15:57:37.8    -251   -658   -162    705    724 200.9 -13.0  34156  289.50 0854.30
2009/04/23 15:57:37.9    -264   -625   -199    679    707 202.9 -21.1  34142  289.27 0854.30
2009/04/23 15:57:38.0    -240   -645   -189    689    715 200.5 -15.4  34142  289.25 0854.30
2009/04/23 15:57:38.1    -114   -572   -180    584    611 191.3 -22.1  34130  289.07 0854.30
2009/04/23 15:57:38.2    -155   -627   -229    646    686 193.9 -19.6  34132  289.09 0854.30
2009/04/23 15:57:38.3    -170   -496   -186    525    558 198.9 -19.6  34138  289.21 0854.30
2009/04/23 15:57:38.4    -254   -429   -134    499    517 210.7 -15.1  34142  289.27 0854.30
2009/04/23 15:57:38.5    -148   -361   -124    391    411 202.3 -17.6  34140  289.22 0854.30
2009/04/23 15:57:38.6    -154   -326   -101    361    374 205.4 -20.3  34146  289.32 0854.30
2009/04/23 15:57:38.7    -177   -442   -127    477    494 201.8 -15.0  34136  289.18 0854.30
2009/04/23 15:57:38.8     -69   -441   -133    447    467 188.9 -16.6  34134  289.14 0854.30
2009/04/23 15:57:38.9    -178   -363   -154    405    433 206.2 -26.2  34138  289.21 0854.30
2009/04/23 15:57:39.0     -18   -262   -110    263    285 184.0 -28.5  34140  289.24 0854.30
2009/04/23 15:57:39.1      24   -318   -112    319    338 175.6 -24.5  34146  289.32 0854.30
2009/04/23 15:57:39.2     110   -336    -79    354    363 161.9 -12.7  34138  289.21 0854.30
2009/04/23 15:57:39.3      87   -305   -100    318    334 164.0 -17.5  34138  289.19 0854.28
2009/04/23 15:57:39.4     161   -290   -159    332    368 150.9 -31.7  34138  289.21 0854.28
2009/04/23 15:57:39.5     130   -553    -75    569    575 166.7  -7.6  34136  289.15 0854.28
2009/04/23 15:57:39.6     197   -611   -150    643    661 162.1 -13.1  34128  289.04 0854.28
2009/04/23 15:57:39.7      66   -602    -64    606    610 173.7  -6.1  34130  289.05 0854.28
2009/04/23 15:57:39.8     191   -562    -23    594    595 161.2  -2.2  34108  288.68 0854.28
2009/04/23 15:57:39.9     361   -442     32    571    572 140.8   3.3  34126  288.98 0854.28
2009/04/23 15:57:40.0     432   -494   -167    657    679 138.9 -14.3  34122  288.94 0854.28
2009/04/23 15:57:40.1     238   -500     85    554    561 154.5   8.8  34120  288.89 0854.28
2009/04/23 15:57:40.2     193   -474    182    512    544 157.8  19.6  34120  288.91 0854.28
2009/04/23 15:57:40.3      65   -471    439    476    647 172.1  47.5  34132  289.10 0854.28
2009/04/23 15:57:40.4      67   -472    394    477    618 171.9  43.7  34126  288.98 0854.28
2009/04/23 15:57:40.5       8   -548    428    549    696 179.1  41.9  34136  289.18 0854.28
2009/04/23 15:57:40.6    -103   -484    410    495    642 192.1  43.8  34130  289.08 0854.28
2009/04/23 15:57:40.7     -20   -470    435    471    641 182.5  47.5  34142  289.25 0854.28
2009/04/23 15:57:40.8    -163   -518    395    544    672 197.5  39.5  34136  289.16 0854.28
2009/04/23 15:57:40.9    -123   -482    246    498    555 194.4  28.2  34140  289.23 0854.28
2009/04/23 15:57:41.0       9   -518     77    519    525 179.0   8.5  34142  289.26 0854.28
2009/04/23 15:57:41.1     -23   -547    -39    548    550 182.5  -4.1  34142  289.26 0854.28
2009/04/23 15:57:41.2      44   -709   -166    711    731 176.4 -13.2  34142  289.28 0854.28
2009/04/23 15:57:41.3      75   -603   -100    608    617 172.9  -9.4  34142  289.25 0854.29
2009/04/23 15:57:41.4     122   -535    -56    549    552 167.1  -5.9  34138  289.21 0854.29
2009/04/23 15:57:41.5     233   -512   -117    563    576 155.5 -11.8  34142  289.27 0854.29
2009/04/23 15:57:41.6     310   -450    -99    547    556 145.4 -10.3  34130  289.07 0854.29
2009/04/23 15:57:41.7     292   -518    -38    595    597 150.6  -3.7  34138  289.20 0854.29
2009/04/23 15:57:41.8     198   -439    -35    482    484 155.7  -4.2  34142  289.25 0854.29
2009/04/23 15:57:41.9     295   -409     -9    505    506 144.2  -1.1  34126  289.00 0854.29
2009/04/23 15:57:42.0     284   -408      7    498    499 145.2   0.8  34142  289.28 0854.29
2009/04/23 15:57:42.1     211   -373     53    429    433 150.5   7.1  34152  289.44 0854.29
2009/04/23 15:57:42.2     197   -375    142    424    448 152.3  18.6  34140  289.24 0854.29
2009/04/23 15:57:42.3     124   -371    148    392    419 161.5  21.7  34136  289.16 0854.29
2009/04/23 15:57:42.4     166   -341    134    380    404 154.0  19.5  34142  289.28 0854.29
2009/04/23 15:57:42.5     305   -393    141    498    518 142.1  15.9  34124  288.95 0854.29
2009/04/23 15:57:42.6     313   -323    159    450    477 135.9  20.2  34124  288.96 0854.29
2009/04/23 15:57:42.7     179   -393    229    432    488 155.5  30.2  34130  289.06 0854.29
2009/04/23 15:57:42.8     123   -344    194    366    414 160.2  30.3  34128  289.04 0854.29
2009/04/23 15:57:42.9      79   -315    218    325    391 165.8  37.0  34132  289.11 0854.29
2009/04/23 15:57:43.0      48   -333    227    337    406 171.7  37.3  34134  289.13 0854.29
2009/04/23 15:57:43.1      33   -442    182    444    479 175.6  23.6  34126  288.98 0854.29
2009/04/23 15:57:43.2      42   -404    202    407    454 174.0  28.2  34120  288.90 0854.29
2009/04/23 15:57:43.3     101   -346    192    361    408 163.7  30.2  34128  289.03 0854.26
2009/04/23 15:57:43.4     153   -295    220    333    399 152.6  36.5  34120  288.89 0854.26
2009/04/23 15:57:43.5     127   -309    132    335    360 157.6  22.5  34122  288.94 0854.26
2009/04/23 15:57:43.6     146   -298    153    332    365 153.9  26.5  34126  288.99 0854.26
2009/04/23 15:57:43.7     112   -214    114    242    267 152.4  27.1  34130  289.05 0854.26
2009/04/23 15:57:43.8     128   -155    148    202    250 140.4  39.9  34132  289.10 0854.26
2009/04/23 15:57:43.9     115   -175    175    210    273 146.6  43.8  34140  289.22 0854.26
2009/04/23 15:57:44.0     100   -268    184    287    340 159.5  35.6  34142  289.25 0854.26
2009/04/23 15:57:44.1      67   -159    160    173    235 157.1  47.7  34144  289.30 0854.26
2009/04/23 15:57:44.2      59   -231    196    239    309 165.5  43.7  34148  289.36 0854.26
2009/04/23 15:57:44.3       3   -215    279    216    352 179.1  58.5  34156  289.51 0854.26
2009/04/23 15:57:44.4      18    -73    154     76    171 165.7  72.1  34162  289.62 0854.26
2009/04/23 15:57:44.5      37    -23    195     44    199 121.5  87.7  34160  289.57 0854.26
2009/04/23 15:57:44.6     102     34    280    108    300  71.4  78.1  34154  289.47 0854.26
2009/04/23 15:57:44.7     233    180    271    295    400  52.3  47.3  34150  289.40 0854.26
2009/04/23 15:57:44.8     281    303     49    414    418  42.9   6.9  34160  289.58 0854.26
2009/04/23 15:57:44.9     146    195    -70    244    254  36.9 -16.0  34154  289.46 0854.26
2009/04/23 15:57:45.0     256    272    -65    374    380  43.3  -9.9  34156  289.50 0854.26
2009/04/23 15:57:45.1     370    223     49    433    436  58.9   6.5  34270  291.43 0854.26
2009/04/23 15:57:45.2     256    193    140    321    350  52.9  25.1  34270  291.45 0854.22
2009/04/23 15:57:45.3      83     80    145    116    185  46.0  56.9  34236  290.86 0854.22
2009/04/23 15:57:45.4      40     45    117     61    131  41.4  70.8  34230  290.75 0854.22
2009/04/23 15:57:45.5      92    -25    121     96    154 105.5  57.5  34186  290.02 0854.22
2009/04/23 15:57:45.6       9     -8     72     13     73 133.3  90.0  34192  290.11 0854.22
2009/04/23 15:57:45.7     -28      4     73     29     78 279.7  77.6  34192  290.11 0854.22
2009/04/23 15:57:45.8     -60    -94    168    112    201 212.6  63.4  34164  289.65 0854.22
2009/04/23 15:57:45.9      -9    -76    131     77    151 187.1  66.8  34170  289.74 0854.22
2009/04/23 15:57:46.0     -33   -118     98    123    157 195.6  42.7  34156  289.52 0854.22
2009/04/23 15:57:46.1     -96    -88     60    131    144 227.3  26.6  34148  289.38 0854.22
2009/04/23 15:57:46.2     -13    -47     88     49    100 196.0  68.8  34148  289.38 0854.18
2009/04/23 15:57:46.3      49    -60     61     78     99 140.4  42.2  34154  289.46 0854.18
2009/04/23 15:57:46.4      97   -105     78    144    163 137.2  31.0  34142  289.28 0854.18
2009/04/23 15:57:46.5     163   -196    153    256    298 140.3  33.5  34118  288.85 0854.18
2009/04/23 15:57:46.6     110   -203    178    231    291 151.5  41.6  34094  288.44 0854.18
2009/04/23 15:57:46.7      36   -212    205    216    297 170.2  48.2  34114  288.80 0854.18
2009/04/23 15:57:46.8     -23   -255     91    257    273 185.3  19.6  34112  288.76 0854.18
2009/04/23 15:57:46.9    -142   -221     95    263    280 212.7  19.9  34124  288.95 0854.18
2009/04/23 15:57:47.0    -191   -136     -1    235    236 234.5  -0.3  34126  289.00 0854.18
2009/04/23 15:57:47.1    -126    -91    -24    156    158 234.1  -8.8  34126  288.99 0854.18
2009/04/23 15:57:47.2     -55    -28    -57     62     84 242.9 -52.3  34124  288.96 0854.18
2009/04/23 15:57:47.3      -4    -12    -39     13     41 198.3 -85.4  34128  289.02 0854.18
2009/04/23 15:57:47.4      12     -8    -21     15     25 126.0 -64.9  34128  289.04 0854.18
2009/04/23 15:57:47.5       8     40     -6     41     42  12.5  -8.2  34126  289.01 0854.18
2009/04/23 15:57:47.6       2     36     -4     37     38   4.5  -7.3  34126  289.01 0854.18
2009/04/23 15:57:47.7      21     65    -39     69     79  18.5 -36.8  34128  289.04 0854.18
2009/04/23 15:57:47.8      45     77    -45     90    100  30.3 -32.6  34128  289.02 0854.18
2009/04/23 15:57:47.9     105    140     -1    176    177  37.0  -0.5  34126  289.01 0854.18
2009/04/23 15:57:48.0      56    185     30    194    197  16.9   9.0  34130  289.08 0854.18
2009/04/23 15:57:48.1      32    120     38    125    131  15.1  17.3  34130  289.08 0854.18
2009/04/23 15:57:48.2      41    104     18    113    115  21.8   9.5  34130  289.06 0854.14
2009/04/23 15:57:48.3      62     83     38    104    110  37.0  21.0  34130  289.06 0854.14
2009/04/23 15:57:48.4     122     46    115    131    174  69.2  45.8  34140  289.24 0854.14
2009/04/23 15:57:48.5     247    136    124    283    308  61.2  25.2  34348  292.76 0854.14
2009/04/23 15:57:48.6     129    167    160    212    265  37.8  40.9  34216  290.53 0854.14
2009/04/23 15:57:48.7      90    118    148    149    210  37.4  50.0  34192  290.11 0854.14
2009/04/23 15:57:48.8     -48    134    113    143    182 340.0  42.7  34220  290.60 0854.14
2009/04/23 15:57:48.9     -69    155      1    170    171 335.9   0.5  34220  290.58 0854.14
2009/04/23 15:57:49.0     -88     96    -39    131    136 317.7 -21.8  34232  290.81 0854.14
2009/04/23 15:57:49.1    -114    -82     -1    141    142 234.0  -0.7  34218  290.55 0854.14
2009/04/23 15:57:49.2    -210      0     44    211    216 270.0  12.0  34202  290.28 0854.14
2009/04/23 15:57:49.3    -179      8    -38    180    185 272.8 -12.2  34224  290.67 0854.14
2009/04/23 15:57:49.4    -128     38    -40    134    139 286.8 -21.7  34250  291.09 0854.14
2009/04/23 15:57:49.5     -49    104      1    116    117 334.5   0.8  34284  291.67 0854.14
2009/04/23 15:57:49.6     -55     77     47     95    105 324.4  28.2  34318  292.25 0854.14
2009/04/23 15:57:49.7     -35     77     -3     85     86 335.1  -2.6  34330  292.47 0854.14
2009/04/23 15:57:49.8      -1     57      7     58     59 358.2   6.9  34346  292.73 0854.14
2009/04/23 15:57:49.9     -16     30     12     35     38 331.0  19.4  34332  292.51 0854.14
2009/04/23 15:57:50.0     -35     36     -6     51     52 315.8  -7.3  34322  292.32 0854.14
2009/04/23 15:57:50.1     -41     34     34     54     63 309.6  35.5  34300  291.96 0854.14
2009/04/23 15:57:50.2     -59     49     37     77     85 309.6  27.8  34308  292.08 0854.15
2009/04/23 15:57:50.3     -85     26     60     90    108 287.3  36.5  34320  292.29 0854.15
2009/04/23 15:57:50.4     -62    -21     34     66     74 251.4  29.3  34324  292.37 0854.15
2009/04/23 15:57:50.5     -58      0     35     59     68 270.0  34.4  34324  292.35 0854.15
2009/04/23 15:57:50.6    -161    -12     27    162    165 265.7   9.5  34344  292.71 0854.15
2009/04/23 15:57:50.7    -167     53     88    176    196 287.7  28.5  34352  292.85 0854.15
2009/04/23 15:57:50.8    -240    -50    -49    246    251 258.1 -11.3  34204  290.31 0854.15
2009/04/23 15:57:50.9    -150   -116    -65    190    202 232.2 -19.1  34202  290.28 0854.15
2009/04/23 15:57:51.0    -218     37     27    222    224 279.7   7.1  34242  290.96 0854.15
2009/04/23 15:57:51.1    -238    101     55    259    265 293.1  12.0  34306  292.06 0854.15
2009/04/23 15:57:51.2    -287    -43    -16    291    292 261.4  -3.2  34234  290.82 0854.15
2009/04/23 15:57:51.3    -277    -26    -16    279    280 264.5  -3.3  34136  289.17 0854.15
2009/04/23 15:57:51.4    -256   -130     -6    288    289 243.0  -1.3  34234  290.83 0854.15
2009/04/23 15:57:51.5    -303    -61     37    310    313 258.5   6.9  34266  291.36 0854.15
2009/04/23 15:57:51.6    -190    -62     37    200    204 251.8  10.6  34282  291.66 0854.15
2009/04/23 15:57:51.7    -222     42     55    227    234 280.8  13.7  34316  292.23 0854.15
2009/04/23 15:57:51.8    -263     62    127    271    299 283.3  27.1  34270  291.43 0854.15
2009/04/23 15:57:51.9    -311    -23     89    312    325 265.6  16.0  34284  291.68 0854.15
2009/04/23 15:57:52.0    -255     -3     94    256    272 269.2  21.0  34270  291.44 0854.15
2009/04/23 15:57:52.1    -321    -42     30    324    326 262.5   5.4  34266  291.38 0854.15
2009/04/23 15:57:52.2    -255    -81    -44    268    272 252.3  -9.3  34228  290.73 0854.21
2009/04/23 15:57:52.3    -238    -21    -21    239    240 264.8  -5.2  34264  291.33 0854.21
2009/04/23 15:57:52.4    -298    -25     36    300    303 265.2   6.9  34278  291.56 0854.21
2009/04/23 15:57:52.5    -272    -59     84    279    292 257.6  16.8  34248  291.05 0854.21
2009/04/23 15:57:52.6    -243    -99     68    263    272 247.8  14.7  34236  290.85 0854.21
2009/04/23 15:57:52.7    -218    -63     76    228    241 253.8  18.4  34232  290.80 0854.21
2009/04/23 15:57:52.8    -301      0     36    302    305 270.0   6.9  34256  291.21 0854.21
2009/04/23 15:57:52.9    -270      8      8    271    272 271.7   1.8  34248  291.05 0854.21
2009/04/23 15:57:53.0    -257     17     46    258    263 273.9  10.1  34240  290.93 0854.21
2009/04/23 15:57:53.1    -285     35    -11    288    289 277.1  -2.2  34252  291.12 0854.21
2009/04/23 15:57:53.2    -274     29    -30    276    278 276.1  -6.2  34248  291.05 0854.21
2009/04/23 15:57:53.3    -259    -36     41    262    266 262.1   9.0  34244  291.00 0854.21
2009/04/23 15:57:53.4    -225    -55     42    232    236 256.1  10.3  34246  291.02 0854.21
2009/04/23 15:57:53.5    -259     -7    -33    260    263 268.3  -7.3  34228  290.73 0854.21
2009/04/23 15:57:53.6    -346    -39    -75    349    358 263.5 -12.2  34192  290.10 0854.21
2009/04/23 15:57:53.7    -231    -67    -63    241    250 253.8 -14.7  34178  289.88 0854.21
2009/04/23 15:57:53.8    -247    -60    -29    255    257 256.3  -6.7  34206  290.36 0854.21
2009/04/23 15:57:53.9    -276    -42    -48    280    285 261.2  -9.8  34224  290.66 0854.21
2009/04/23 15:57:54.0    -270     -8    -28    271    273 268.3  -6.1  34208  290.37 0854.21
2009/04/23 15:57:54.1    -205    -16    -53    206    213 265.4 -14.7  34194  290.14 0854.21
2009/04/23 15:57:54.2    -209      3    -43    210    215 270.9 -11.6  34182  289.94 0854.19
2009/04/23 15:57:54.3    -234     77     84    247    262 288.2  18.9  34228  290.71 0854.19
2009/04/23 15:57:54.4    -216     68     44    227    232 287.5  11.1  34222  290.64 0854.19
2009/04/23 15:57:54.5    -168     34     43    172    178 281.5  14.3  34216  290.52 0854.19
2009/04/23 15:57:54.6    -129    -43     51    137    146 251.4  21.0  34212  290.45 0854.19
2009/04/23 15:57:54.7    -118    -48     49    128    137 247.8  21.5  34218  290.55 0854.19
2009/04/23 15:57:54.8    -127     34     48    132    140 285.0  20.9  34218  290.55 0854.19
2009/04/23 15:57:54.9    -152     59     52    164    173 291.3  17.7  34224  290.65 0854.19
2009/04/23 15:57:55.1    -118     47     30    128    132 291.8  13.2  34216  290.52 0854.19
2009/04/23 15:57:55.1    -154     44     52    161    170 285.9  18.1  34214  290.48 0854.19
2009/04/23 15:57:55.3    -146     66    -32    161    165 294.2 -11.3  34202  290.28 0854.19
2009/04/23 15:57:55.4    -226     94     10    245    246 292.6   2.3  34212  290.46 0854.19
2009/04/23 15:57:55.5    -242     14     30    243    245 273.5   7.1  34208  290.37 0854.19
2009/04/23 15:57:55.6    -179     23     57    181    190 277.5  17.7  34216  290.53 0854.19
2009/04/23 15:57:55.7    -206     69     48    218    224 288.6  12.4  34204  290.33 0854.19
2009/04/23 15:57:55.8    -196    -15     84    197    214 265.4  24.3  34210  290.43 0854.19
2009/04/23 15:57:55.9    -197   -114     94    228    246 240.0  23.8  34230  290.76 0854.19
2009/04/23 15:57:56.0    -203   -101     49    227    233 243.4  12.4  34222  290.64 0854.19
2009/04/23 15:57:56.1    -189   -122     88    226    242 237.1  22.3  34222  290.63 0854.19
2009/04/23 15:57:56.2    -164   -132     72    211    224 231.1  18.9  34226  290.69 0854.19
2009/04/23 15:57:56.3    -114    -82      3    141    142 234.1   1.2  34226  290.70 0854.21
2009/04/23 15:57:56.4     -40   -121     27    128    131 198.5  12.2  34230  290.77 0854.21
2009/04/23 15:57:56.5      12   -129     35    130    135 174.7  15.3  34224  290.67 0854.21
2009/04/23 15:57:56.6      43   -138     -5    145    146 162.6  -2.2  34214  290.48 0854.21
2009/04/23 15:57:56.7      92   -122    -12    153    154 143.0  -4.6  34190  290.08 0854.21
2009/04/23 15:57:56.8     114   -114    105    162    193 134.9  35.6  34202  290.28 0854.21
2009/04/23 15:57:56.9     103   -103    146    146    206 134.9  50.1  34186  290.01 0854.21
2009/04/23 15:57:57.0     152    -28    161    155    223 100.6  50.9  34186  290.01 0854.21
2009/04/23 15:57:57.1     109    -12    154    110    189  96.6  60.8  34192  290.13 0854.21
2009/04/23 15:57:57.2     190     45    111    196    225  76.5  31.6  34168  289.72 0854.21
2009/04/23 15:57:57.3     168    107     71    200    212  57.5  20.2  34160  289.57 0854.21
2009/04/23 15:57:57.4     181     90     24    203    205  63.4   6.9  34140  289.23 0854.21
2009/04/23 15:57:57.5     180     92     15    203    204  62.9   4.2  34142  289.26 0854.21
2009/04/23 15:57:57.6     176    100    -70    203    215  60.2 -19.1  34144  289.30 0854.21
2009/04/23 15:57:57.7     194     89    -38    214    218  65.2 -10.1  34130  289.08 0854.21
2009/04/23 15:57:57.8     141    180     -5    229    230  38.1  -1.3  34132  289.09 0854.21
2009/04/23 15:57:57.9      80    239    -13    253    254  18.5  -3.1  34130  289.07 0854.21
2009/04/23 15:57:58.0     146    229     -8    272    273  32.6  -1.8  34142  289.25 0854.21
2009/04/23 15:57:58.1     255    242    185    352    397  46.5  30.0  34144  289.30 0854.21
2009/04/23 15:57:58.2     139     72    140    157    210  62.5  46.2  34150  289.40 0854.21
2009/04/23 15:57:58.3     129     45     91    137    164  70.5  36.7  34152  289.43 0854.24
2009/04/23 15:57:58.4     180   -111    109    212    238 121.8  29.3  34160  289.57 0854.24
2009/04/23 15:57:58.5     114    -98    113    151    188 130.9  40.7  34180  289.91 0854.24
2009/04/23 15:57:58.6     200    -14    206    201    287  94.3  50.7  34176  289.83 0854.24
2009/04/23 15:57:58.7     231      1    112    232    257  89.6  27.4  34166  289.66 0854.24
2009/04/23 15:57:58.8     226     74    -36    238    241  71.8  -8.8  34162  289.59 0854.24
2009/04/23 15:57:58.9     242     18    -53    243    249  85.6 -12.4  34158  289.54 0854.24
2009/04/23 15:57:59.0     178   -315     22    362    363 150.5   3.5  34164  289.65 0854.24
2009/04/23 15:57:59.1     211   -374     84    430    439 150.6  11.1  34166  289.66 0854.24
2009/04/23 15:57:59.2     218   -396    164    453    482 151.1  19.9  34172  289.79 0854.24
2009/04/23 15:57:59.3     233   -455     53    512    515 152.9   6.0  34160  289.56 0854.24
2009/04/23 15:57:59.4     179   -447     79    482    489 158.1   9.3  34164  289.64 0854.24
2009/04/23 15:57:59.5     155   -420     54    448    452 159.7   6.9  34164  289.65 0854.24
2009/04/23 15:57:59.6     115   -414    138    430    452 164.4  17.8  34180  289.92 0854.24
2009/04/23 15:57:59.7      47   -429    172    432    464 173.7  23.0  34168  289.72 0854.24
2009/04/23 15:57:59.8      57   -458    138    462    483 172.9  16.6  34170  289.74 0854.24
2009/04/23 15:57:59.9      65   -519    143    524    544 172.8  15.3  34162  289.60 0854.24
2009/04/23 15:58:00.0     -25   -293    220    295    368 184.9  40.4  34178  289.86 0854.24
2009/04/23 15:58:00.1     -49   -288    277    293    403 189.8  48.4  34174  289.81 0854.24
2009/04/23 15:58:00.2     -98   -212    200    234    307 204.9  44.8  34178  289.88 0854.24
2009/04/23 15:58:00.3     111   -251    181    275    329 156.2  36.4  34174  289.80 0854.25
2009/04/23 15:58:00.4     170   -212    180    272    326 141.3  36.6  34164  289.63 0854.25
2009/04/23 15:58:00.5     118   -373    157    392    422 162.5  23.0  34190  290.07 0854.25
2009/04/23 15:58:00.6     167   -344    160    383    415 154.1  24.1  34180  289.90 0854.25
2009/04/23 15:58:00.7     161   -424     54    454    458 159.2   6.9  34158  289.55 0854.25
2009/04/23 15:58:00.8     231   -389    118    453    469 149.3  14.6  34166  289.68 0854.25
2009/04/23 15:58:00.9     185   -279    159    336    371 146.4  27.2  34168  289.72 0854.25
2009/04/23 15:58:01.0     147   -308    194    342    393 154.5  32.3  34172  289.79 0854.25
2009/04/23 15:58:01.1     139   -272    119    306    328 152.8  22.3  34164  289.64 0854.25
2009/04/23 15:58:01.2     107   -362     16    378    379 163.5   2.5  34168  289.72 0854.25
2009/04/23 15:58:01.3     161   -308    135    348    373 152.3  22.4  34166  289.69 0854.25
2009/04/23 15:58:01.4     222   -349    132    415    436 147.5  17.7  34172  289.78 0854.25
2009/04/23 15:58:01.5      88   -397    142    407    432 167.4  19.3  34194  290.16 0854.25
2009/04/23 15:58:01.6      48   -383    -69    387    394 172.8 -10.2  34186  290.01 0854.25
2009/04/23 15:58:01.7      67   -384     53    391    395 170.0   7.8  34190  290.08 0854.25
2009/04/23 15:58:01.8     150   -442     94    467    477 161.2  11.5  34186  290.01 0854.25
2009/04/23 15:58:01.9     168   -367     97    404    416 155.4  13.6  34188  290.05 0854.25
2009/04/23 15:58:02.0     167   -373    153    409    436 155.9  21.5  34196  290.17 0854.25
2009/04/23 15:58:02.1      87   -392    183    402    441 167.4  26.2  34198  290.22 0854.25
2009/04/23 15:58:02.2       8   -437    132    438    458 178.9  16.8  34198  290.21 0854.25
2009/04/23 15:58:02.3      22   -436    150    437    463 177.1  18.9  34212  290.44 0854.29
2009/04/23 15:58:02.4       8   -474     93    475    485 179.0  11.1  34210  290.42 0854.29
2009/04/23 15:58:02.5      36   -438    112    440    455 175.2  14.3  34190  290.09 0854.29
2009/04/23 15:58:02.6     -13   -291    139    292    323 182.7  27.3  34198  290.22 0854.29
2009/04/23 15:58:02.7     -75   -373    200    381    430 191.4  30.0  34186  290.00 0854.29
2009/04/23 15:58:02.8     -10   -340    242    341    418 181.7  38.7  34186  290.01 0854.29
2009/04/23 15:58:02.9     -70   -395    238    402    467 190.1  33.5  34216  290.53 0854.29
2009/04/23 15:58:03.0     -17   -464    235    465    521 182.1  28.9  34182  289.95 0854.29
2009/04/23 15:58:03.1     -36   -368    315    370    485 185.7  44.8  34210  290.41 0854.29
2009/04/23 15:58:03.2      67   -492    175    497    526 172.2  20.2  34178  289.86 0854.29
2009/04/23 15:58:03.3      60   -487    276    491    563 172.9  31.9  34176  289.85 0854.29
2009/04/23 15:58:03.4     193   -507    191    543    576 159.1  19.4  34168  289.70 0854.29
2009/04/23 15:58:03.5     161   -494    228    520    567 161.9  25.2  34192  290.13 0854.29
2009/04/23 15:58:03.6      65   -510    148    515    536 172.7  16.0  34184  289.99 0854.29
2009/04/23 15:58:03.7     -83   -588     83    595    602 188.1   8.0  34170  289.75 0854.29
2009/04/23 15:58:03.8    -169   -599    106    623    632 195.8   9.7  34164  289.65 0854.29
2009/04/23 15:58:03.9    -192   -516    372    551    664 200.5  37.3  34178  289.86 0854.29
2009/04/23 15:58:04.0    -268   -457    300    530    609 210.4  32.0  34172  289.76 0854.29
2009/04/23 15:58:04.1    -397   -567    250    693    736 215.0  20.7  34178  289.89 0854.29
2009/04/23 15:58:04.2    -441   -426    199    614    646 226.0  18.0  34204  290.33 0854.29
2009/04/23 15:58:04.3    -385   -256     60    463    467 236.3   7.5  34208  290.37 0854.31
2009/04/23 15:58:04.4    -293   -348    205    456    499 220.1  25.9  34182  289.93 0854.31
2009/04/23 15:58:04.5    -166   -268    251    316    403 211.7  42.7  34186  290.01 0854.31
2009/04/23 15:58:04.6    -217   -424    171    477    506 207.2  20.6  34194  290.15 0854.31
2009/04/23 15:58:04.7    -366   -442     89    574    582 219.6   8.9  34182  289.95 0854.31
2009/04/23 15:58:04.8    -323   -395    153    511    534 219.3  16.7  34180  289.90 0854.31
2009/04/23 15:58:04.9    -303   -365    190    475    511 219.7  23.0  34186  290.00 0854.31
2009/04/23 15:58:05.0    -428   -257    135    500    519 239.0  15.2  34186  290.00 0854.31
2009/04/23 15:58:05.1    -493   -158     29    518    519 252.2   3.3  34208  290.40 0854.31
2009/04/23 15:58:05.2    -421   -223     62    477    481 242.0   7.5  34212  290.45 0854.31
2009/04/23 15:58:05.3    -380    -44      4    383    384 263.3   0.7  34262  291.32 0854.31
2009/04/23 15:58:05.4    -339    -73    -11    347    348 257.8  -1.9  34258  291.25 0854.31
2009/04/23 15:58:05.5    -341      0    -18    342    343 270.0  -3.1  34264  291.34 0854.31
2009/04/23 15:58:05.6    -366     35   -161    368    401 275.5 -29.5  34198  290.21 0854.31
2009/04/23 15:58:05.7    -404    102    -79    417    425 284.2 -10.8  34202  290.29 0854.31
2009/04/23 15:58:05.8    -369    101     32    383    385 285.4   4.9  34224  290.67 0854.31
2009/04/23 15:58:05.9    -301    187     -7    355    356 301.8  -1.2  34164  289.65 0854.31
2009/04/23 15:58:06.0    -251    185    -87    312    325 306.4 -15.7  34162  289.59 0854.31
2009/04/23 15:58:06.1    -241     80   -142    254    290 288.4 -36.0  34172  289.78 0854.31
2009/04/23 15:58:06.2    -230    109    -96    255    272 295.5 -25.9  34162  289.59 0854.31
2009/04/23 15:58:06.3    -292    137   -101    323    338 295.1 -22.4  34128  289.04 0854.33
2009/04/23 15:58:06.4    -307    133    -36    335    338 293.5  -6.3  34144  289.30 0854.33
2009/04/23 15:58:06.5    -268      0    -64    269    277 270.0 -13.4  34192  290.12 0854.33
2009/04/23 15:58:06.6    -190     74    -91    204    223 291.3 -29.7  34192  290.11 0854.33
2009/04/23 15:58:06.7    -180     80    -54    197    205 294.0 -15.5  34180  289.91 0854.33
2009/04/23 15:58:06.8    -258    189     64    320    327 306.2  11.3  34160  289.56 0854.33
2009/04/23 15:58:06.9    -236    111     76    261    272 295.2  16.3  34164  289.64 0854.33
2009/04/23 15:58:07.0    -284     64    136    292    322 282.8  27.0  34188  290.05 0854.33
2009/04/23 15:58:07.1    -213    160      3    267    268 306.9   0.8  34168  289.71 0854.33
2009/04/23 15:58:07.2    -118     65   -107    135    172 298.9 -47.1  34166  289.67 0854.33
2009/04/23 15:58:07.3    -184     57    -58    193    201 287.3 -21.7  34146  289.33 0854.34
2009/04/23 15:58:07.4     -98    -76   -137    125    185 232.2 -57.1  34150  289.41 0854.34
2009/04/23 15:58:07.5      35      7   -152     36    156  78.5 -90.0  34176  289.84 0854.34
2009/04/23 15:58:07.6     100    110    -67    150    164  42.3 -30.1  34168  289.70 0854.34
2009/04/23 15:58:07.7      22     97    -12    100    101  12.9  -7.3  34170  289.75 0854.34
2009/04/23 15:58:07.8      -2     35     26     36     44 355.5  39.7  34160  289.57 0854.34
2009/04/23 15:58:07.9      -4     44     89     45     99 353.8  71.4  34156  289.52 0854.34
2009/04/23 15:58:08.0    -125     43     27    133    136 289.1  11.6  34158  289.53 0854.34
2009/04/23 15:58:08.1    -122     13    148    123    192 276.1  56.3  34158  289.55 0854.34
2009/04/23 15:58:08.2    -214    218    118    306    327 315.5  22.2  34160  289.58 0854.34
2009/04/23 15:58:08.3    -211    232     94    314    328 317.7  16.8  34164  289.63 0854.34
2009/04/23 15:58:08.4    -108    160     97    194    216 325.9  28.5  34172  289.77 0854.34
2009/04/23 15:58:08.5    -148    141     26    205    207 313.6   7.5  34160  289.58 0854.34
2009/04/23 15:58:08.6    -213    181    104    280    298 310.4  21.0  34186  290.02 0854.34
2009/04/23 15:58:08.7    -180    114    -43    214    219 302.5 -11.5  34176  289.84 0854.34
2009/04/23 15:58:08.8    -128    209    -54    246    252 328.6 -12.4  34174  289.81 0854.34
2009/04/23 15:58:08.9    -128    137     66    188    200 316.8  19.4  34176  289.84 0854.34
2009/04/23 15:58:09.0     -76    119    -42    142    149 327.4 -16.6  34168  289.70 0854.34
2009/04/23 15:58:09.1     -13    122    -15    123    125 353.8  -7.3  34160  289.57 0854.34
2009/04/23 15:58:09.2      53     64     88     84    121  39.6  51.2  34180  289.91 0854.34
2009/04/23 15:58:09.3     107      8     79    108    133  85.7  39.7  34174  289.80 0854.35
2009/04/23 15:58:09.4     102     20     59    105    120  78.5  31.9  34168  289.72 0854.35
2009/04/23 15:58:09.5      74    133    -33    153    157  29.0 -12.4  34166  289.69 0854.35
2009/04/23 15:58:09.6      93    245    -74    263    274  20.9 -15.8  34168  289.70 0854.35
2009/04/23 15:58:09.7     129    104    -25    166    168  51.1  -8.8  34158  289.53 0854.35
2009/04/23 15:58:09.8     130    144     16    195    196  42.1   5.0  34158  289.55 0854.35
2009/04/23 15:58:09.9     110    110     83    156    176  45.1  30.3  34148  289.36 0854.35
2009/04/23 15:58:10.0      97     23     53    100    113  76.3  29.8  34160  289.57 0854.35
2009/04/23 15:58:10.1     105     41     -6    113    114  68.7  -3.2  34154  289.46 0854.35
2009/04/23 15:58:10.2     108     30     32    113    118  74.1  15.8  34148  289.38 0854.35
2009/04/23 15:58:10.3     107    107     56    152    161  45.1  21.0  34154  289.48 0854.35
2009/04/23 15:58:10.4      44      7    -55     45     71  80.3 -60.8  34154  289.48 0854.35
2009/04/23 15:58:10.5      63      3     20     64     68  86.5  17.3  34160  289.57 0854.35
2009/04/23 15:58:10.6      80     39     27     90     94  63.8  16.8  34160  289.57 0854.35
2009/04/23 15:58:10.7      74     20      3     77     78  74.9   2.8  34160  289.57 0854.35
2009/04/23 15:58:10.8     102    -41     41    111    118 112.2  21.0  34162  289.62 0854.35
2009/04/23 15:58:10.9      89     16     48     91    102  79.4  29.8  34162  289.60 0854.35
2009/04/23 15:58:11.0      89     58      3    107    108  57.1   1.8  34162  289.62 0854.35
2009/04/23 15:58:11.1      28    171    -22    174    176   9.3  -7.2  34158  289.55 0854.35
2009/04/23 15:58:11.2      84    192     76    210    223  23.6  20.7  34158  289.55 0854.35
2009/04/23 15:58:11.3     105    181     45    210    215  30.1  12.2  34160  289.57 0854.35
2009/04/23 15:58:11.4      58    169      3    179    180  18.9   1.2  34168  289.70 0854.35
2009/04/23 15:58:11.5      21    169    -28    171    174   7.1  -9.3  34168  289.70 0854.35
2009/04/23 15:58:11.6      29    158    -20    161    163  10.7  -7.2  34172  289.79 0854.35
2009/04/23 15:58:11.7      16    167    -48    168    175   5.6 -16.0  34174  289.82 0854.35
2009/04/23 15:58:11.8     -32    156    -40    160    166 348.4 -14.3  34168  289.72 0854.35
2009/04/23 15:58:11.9     -87    136    -52    162    170 327.5 -23.3  34160  289.57 0854.35
2009/04/23 15:58:12.0     -27    133    -47    136    143 348.5 -23.3  34160  289.57 0854.35
2009/04/23 15:58:12.1       6    163    -22    164    166   2.2  -7.7  34162  289.60 0854.35
2009/04/23 15:58:12.2      -5    107     21    108    111 357.3  11.1  34172  289.77 0854.35
2009/04/23 15:58:12.3     -12     74     41     76     86 350.2  30.8  34172  289.77 0854.35
2009/04/23 15:58:12.4      16     85     36     87     94  10.7  23.0  34168  289.72 0854.35
2009/04/23 15:58:12.5     -28     91      0     96     97 342.6  -0.3  34166  289.69 0854.35
2009/04/23 15:58:12.6     -27     82     11     87     88 341.5   7.5  34166  289.67 0854.35
2009/04/23 15:58:12.7      -9     58     48     59     76 351.1  43.7  34170  289.75 0854.35
2009/04/23 15:58:12.8     -22     39     45     46     64 330.1  51.1  34174  289.82 0854.35
2009/04/23 15:58:12.9     -16     26     57     31     64 327.5  68.8  34184  289.97 0854.35
2009/04/23 15:58:13.0     -35     25     53     44     68 306.0  56.3  34196  290.18 0854.35
2009/04/23 15:58:13.1     -23      0     65     24     69 270.0  80.2  34208  290.40 0854.35
2009/04/23 15:58:13.2      -8     -3     75      9     75 244.7  90.0  34204  290.33 0854.33
2009/04/23 15:58:13.3     -25     -1     70     26     74 265.6  80.2  34206  290.35 0854.33
2009/04/23 15:58:13.4     -16    -23     62     29     68 214.3  73.1  34192  290.11 0854.33
2009/04/23 15:58:13.5       3    -29     59     30     66 173.8  70.8  34200  290.25 0854.33
2009/04/23 15:58:13.6       0    -54     67     55     86 180.9  56.4  34194  290.16 0854.33
2009/04/23 15:58:13.7      10    -52     71     54     89 168.5  59.0  34188  290.04 0854.33
2009/04/23 15:58:13.8     -27    -56     85     63    105 205.4  60.0  34186  290.02 0854.33
2009/04/23 15:58:13.9     -12    -20     74     24     77 210.7  80.7  34194  290.14 0854.33
2009/04/23 15:58:14.0     -22    -22     52     32     61 225.0  64.7  34186  290.01 0854.33
2009/04/23 15:58:14.1       0    -13     33     14     35 182.7  77.1  34180  289.91 0854.33
2009/04/23 15:58:14.2      17      2     52     18     55  82.1  81.2  34174  289.82 0854.33
2009/04/23 15:58:14.3      90     34     81     97    126  69.2  44.3  34164  289.65 0854.33
2009/04/23 15:58:14.4     118     59     65    132    147  63.4  27.3  34178  289.89 0854.33
2009/04/23 15:58:14.5     127    130     65    183    195  44.3  19.6  34180  289.91 0854.33
2009/04/23 15:58:14.6     113    130     16    173    174  41.0   5.4  34182  289.94 0854.33
2009/04/23 15:58:14.7     119      2    107    120    160  88.7  46.4  34176  289.84 0854.33
2009/04/23 15:58:14.8      80     19     85     83    118  76.7  50.2  34174  289.82 0854.33
2009/04/23 15:58:14.9      76    -11     54     77     94  98.8  38.0  34178  289.89 0854.33
2009/04/23 15:58:15.0     102    -30     49    107    117 106.4  26.2  34170  289.75 0854.33
2009/04/23 15:58:15.1     104    -27     41    108    115 105.0  21.0  34166  289.67 0854.33
2009/04/23 15:58:15.2      93    -41     54    102    115 114.0  30.3  34166  289.67 0854.30
2009/04/23 15:58:15.3      98      6     78     99    126  86.5  42.2  34210  290.41 0854.30
2009/04/23 15:58:15.4      98     -3     37     99    105  92.1  21.5  34230  290.75 0854.30
2009/04/23 15:58:15.5      92     14     69     94    116  81.2  39.7  34244  291.01 0854.30
2009/04/23 15:58:15.6     120     63    138    136    193  62.0  49.9  34246  291.04 0854.30
2009/04/23 15:58:15.7     139     78    144    160    215  60.7  46.6  34248  291.06 0854.30
2009/04/23 15:58:15.8      98     23    133    101    167  76.3  58.7  34214  290.48 0854.30
2009/04/23 15:58:15.9     101     45    143    111    181  66.0  58.2  34216  290.52 0854.30
2009/04/23 15:58:16.0      80     35    125     88    152  66.5  61.5  34224  290.65 0854.30
2009/04/23 15:58:16.1      80     27    119     85    146  71.4  60.6  34228  290.74 0854.30
2009/04/23 15:58:16.2      91     23    103     95    140  75.4  52.2  34226  290.69 0854.30
2009/04/23 15:58:16.3      79     13    101     81    129  80.3  56.9  34266  291.38 0854.30
2009/04/23 15:58:16.4      51      0     65     52     83  90.0  56.9  34276  291.55 0854.30
2009/04/23 15:58:16.5     -22      3     52     23     56 279.7  75.0  34278  291.59 0854.30
2009/04/23 15:58:16.6     -85     27     -3     90     91 287.7  -2.2  34264  291.33 0854.30
2009/04/23 15:58:16.7     -83     48    -29     97    102 300.2 -17.0  34256  291.20 0854.30
2009/04/23 15:58:16.8     -91     50    -59    104    119 298.9 -36.3  34220  290.60 0854.30
2009/04/23 15:58:16.9    -103     43    -66    112    130 292.6 -37.9  34200  290.26 0854.30
2009/04/23 15:58:17.0    -105     43   -102    114    152 292.2 -51.3  34186  290.01 0854.30
2009/04/23 15:58:17.1     -81     15    -34     83     89 280.6 -27.4  34172  289.79 0854.30
2009/04/23 15:58:17.2     -38     16    -64     42     76 292.6 -69.0  34170  289.75 0854.30
2009/04/23 15:58:17.3      -2     37    -41     38     55 355.5 -56.6  34168  289.70 0854.30
2009/04/23 15:58:17.4      24     40    -38     47     60  31.6 -48.1  34182  289.96 0854.30
2009/04/23 15:58:17.5      28     48    -27     56     62  30.7 -31.6  34182  289.96 0854.30
2009/04/23 15:58:17.6      15     47    -95     50    107  18.3 -74.2  34176  289.85 0854.30
2009/04/23 15:58:17.7      10     32    -57     34     66  18.7 -70.1  34180  289.91 0854.30
2009/04/23 15:58:17.8      10     53    -60     55     81  11.5 -57.1  34160  289.58 0854.30
2009/04/23 15:58:17.9       5     51    -61     52     80   6.2 -59.8  34150  289.41 0854.30
2009/04/23 15:58:18.0      -1     80    -56     81     98 359.1 -42.0  34180  289.91 0854.30
2009/04/23 15:58:18.1       5     72    -33     73     80   4.5 -30.6  34182  289.96 0854.30
2009/04/23 15:58:18.2      -5     53    -40     54     67 353.8 -44.1  34178  289.89 0854.30
2009/04/23 15:58:18.3       6     25    -54     26     59  13.4 -77.2  34172  289.77 0854.30
2009/04/23 15:58:18.4      -5     -4    -67      7     67 230.5 -90.0  34178  289.89 0854.30
2009/04/23 15:58:18.5     -34    -77    -27     85     89 204.1 -23.3  34200  290.26 0854.30
2009/04/23 15:58:18.6     -29   -109    -35    113    118 195.1 -21.8  34206  290.35 0854.30
2009/04/23 15:58:18.7     -17   -109    -23    111    114 188.9 -11.9  34204  290.31 0854.30
2009/04/23 15:58:18.8     -27    -89     -5     94     95 196.9  -3.1  34202  290.28 0854.30
2009/04/23 15:58:18.9      32   -101    -13    107    108 162.2  -7.3  34194  290.16 0854.30
2009/04/23 15:58:19.0      33   -102    -24    108    111 161.7 -12.9  34194  290.14 0854.30
2009/04/23 15:58:19.1      15   -132      0    133    134 173.3  -0.3  34194  290.16 0854.30
2009/04/23 15:58:19.2      -2   -132     11    133    134 181.0   5.0  34198  290.23 0854.31
2009/04/23 15:58:19.3       4   -135      6    136    137 178.2   2.9  34192  290.13 0854.31
2009/04/23 15:58:19.4      24   -118     10    121    122 168.4   4.9  34192  290.11 0854.31
2009/04/23 15:58:19.5      21   -100     28    103    107 168.0  15.2  34196  290.19 0854.31
2009/04/23 15:58:19.6      10    -75     45     76     88 172.0  33.5  34200  290.26 0854.31
2009/04/23 15:58:19.7      15    -47     46     50     67 161.7  48.0  34210  290.41 0854.31
2009/04/23 15:58:19.8      16    -41     63     45     77 158.2  60.6  34220  290.60 0854.31
2009/04/23 15:58:19.9      24    -60     38     65     75 158.1  33.5  34218  290.57 0854.31
2009/04/23 15:58:20.0     -66    -83     75    107    130 218.7  38.6  34202  290.28 0854.31
2009/04/23 15:58:20.1     -60   -152     73    164    179 201.8  25.7  34208  290.40 0854.31
2009/04/23 15:58:20.2    -101    -79     44    129    137 232.2  18.9  34222  290.64 0854.31
2009/04/23 15:58:20.3    -114    -54    102    127    162 244.7  43.0  34202  290.28 0854.31
2009/04/23 15:58:20.4     -77   -130    130    152    200 210.7  45.1  34200  290.26 0854.31
2009/04/23 15:58:20.5     -88   -203    223    222    314 203.4  50.1  34240  290.92 0854.31
2009/04/23 15:58:20.6     -93   -208    149    228    272 204.1  35.7  34234  290.83 0854.31
2009/04/23 15:58:20.7    -121   -218    110    250    273 209.0  25.2  34236  290.85 0854.31
2009/04/23 15:58:20.8     -97   -193     75    217    230 206.7  19.2  34224  290.67 0854.31
2009/04/23 15:58:20.9    -128   -207     76    244    256 211.6  17.3  34224  290.66 0854.31
2009/04/23 15:58:21.0    -147   -181     78    234    247 219.0  18.4  34218  290.56 0854.31
2009/04/23 15:58:21.1    -136   -186    120    231    260 216.1  29.5  34238  290.88 0854.31
2009/04/23 15:58:21.3    -100   -201    156    225    273 206.5  38.0  34212  290.46 0854.33
2009/04/23 15:58:21.3      52   -120    102    132    166 156.4  42.0  34230  290.77 0854.33
2009/04/23 15:58:21.4     -21   -113     92    116    148 190.7  42.7  34228  290.74 0854.33
2009/04/23 15:58:21.5      68    -58    144     90    169 130.9  64.9  34236  290.86 0854.33
2009/04/23 15:58:21.7      -7    -46    117     47    126 189.8  77.1  34244  291.01 0854.33
2009/04/23 15:58:21.7       0    -60     99     61    116 180.0  64.7  34222  290.62 0854.33
2009/04/23 15:58:21.8      58    -49    138     77    158 130.4  68.5  34220  290.58 0854.33
2009/04/23 15:58:22.0       1    -73    103     74    126 179.1  60.6  34214  290.48 0854.33
2009/04/23 15:58:22.1       7    -42    117     43    124 169.3  79.2  34216  290.52 0854.33
2009/04/23 15:58:22.2      48    -76    121     91    151 147.5  59.0  34206  290.36 0854.33
2009/04/23 15:58:22.3      10    -75    119     76    141 172.0  64.7  34218  290.57 0854.33
2009/04/23 15:58:22.4       0   -102     87    103    134 180.4  44.3  34206  290.35 0854.33
2009/04/23 15:58:22.5     -24    -92     69     96    118 195.1  39.7  34208  290.38 0854.33
2009/04/23 15:58:22.6     -31   -121     66    126    142 194.7  29.8  34202  290.30 0854.33
2009/04/23 15:58:22.7     -11   -117     55    118    130 185.8  27.1  34206  290.36 0854.33
2009/04/23 15:58:22.8      49   -123     92    133    161 158.2  38.0  34200  290.25 0854.33
2009/04/23 15:58:22.9      58   -119    104    133    168 153.7  42.2  34200  290.26 0854.33
2009/04/23 15:58:23.0     139    -98    102    171    199 125.3  33.5  34202  290.28 0854.33
2009/04/23 15:58:23.1     162    -43     99    168    195 105.1  33.5  34206  290.35 0854.33
2009/04/23 15:58:23.2     194    -16    112    195    224  94.8  32.4  34186  290.01 0854.33
2009/04/23 15:58:23.3     217     27    121    219    250  82.8  31.4  34200  290.24 0854.32
2009/04/23 15:58:23.4     180     -3    131    181    223  91.3  39.5  34192  290.13 0854.32
2009/04/23 15:58:23.5     119    -39    105    126    164 108.2  44.1  34200  290.25 0854.32
2009/04/23 15:58:23.6      11   -107    125    108    165 173.8  54.8  34210  290.43 0854.32
2009/04/23 15:58:23.7      -6   -146    135    147    199 182.7  47.5  34236  290.86 0854.32
2009/04/23 15:58:23.8     -22   -155    189    157    245 188.1  56.3  34214  290.50 0854.32
2009/04/23 15:58:23.9     -22   -180    183    182    258 187.1  50.1  34198  290.22 0854.32
2009/04/23 15:58:24.0     -93   -253    174    270    321 200.3  35.7  34190  290.07 0854.32
2009/04/23 15:58:24.1     -59   -216    105    225    248 195.4  27.1  34180  289.92 0854.32
2009/04/23 15:58:24.2     -47   -202    110    208    235 193.3  30.2  34180  289.92 0854.32
2009/04/23 15:58:24.3     -80   -211     79    226    239 200.9  20.0  34190  290.09 0854.32
2009/04/23 15:58:24.4     -94   -250    114    268    291 200.7  24.6  34196  290.19 0854.32
2009/04/23 15:58:24.5     -88   -183     75    204    217 205.6  21.0  34202  290.28 0854.32
2009/04/23 15:58:24.6     -96   -211     54    232    239 204.5  13.2  34206  290.34 0854.32
2009/04/23 15:58:24.7    -101   -182     57    209    217 209.2  15.3  34208  290.38 0854.32
2009/04/23 15:58:24.8    -113   -185     82    217    231 211.4  21.5  34204  290.33 0854.32
2009/04/23 15:58:24.9    -141   -201     49    246    251 215.2  11.4  34212  290.46 0854.32
2009/04/23 15:58:25.0     -87   -290     39    303    306 196.7   7.5  34188  290.05 0854.32
2009/04/23 15:58:25.1     -67   -255     77    264    276 194.9  16.3  34196  290.17 0854.32
2009/04/23 15:58:25.2     -80   -212     77    227    240 200.7  18.9  34206  290.34 0854.32
2009/04/23 15:58:25.3     -82   -174    104    193    219 205.4  30.8  34210  290.43 0854.30
2009/04/23 15:58:25.4     -72   -184     69    198    210 201.6  19.4  34212  290.45 0854.30
2009/04/23 15:58:25.5     -35   -196     88    200    218 190.2  25.2  34220  290.60 0854.30
2009/04/23 15:58:25.6       2   -174     99    175    201 179.1  31.9  34212  290.47 0854.30
2009/04/23 15:58:25.7     -68   -170    102    184    210 201.9  31.4  34206  290.36 0854.30
2009/04/23 15:58:25.8     -28   -198     90    201    220 188.1  25.7  34206  290.36 0854.30
2009/04/23 15:58:25.9     -39   -159    122    164    204 194.0  40.4  34206  290.36 0854.30
2009/04/23 15:58:26.0    -104   -199     50    225    231 207.6  12.6  34198  290.21 0854.30
2009/04/23 15:58:26.1     -73   -154     20    171    173 205.6   6.9  34194  290.16 0854.30
2009/04/23 15:58:26.2     -22   -146     71    148    164 188.9  27.4  34202  290.28 0854.30
2009/04/23 15:58:26.3     -28   -120     74    124    144 193.3  34.0  34200  290.25 0854.30
2009/04/23 15:58:26.4     -29   -104     80    108    134 195.6  40.1  34208  290.38 0854.30
2009/04/23 15:58:26.5     -63    -80     90    102    136 218.3  45.9  34208  290.38 0854.30
2009/04/23 15:58:26.6     -74    -98    135    123    182 217.0  52.7  34246  291.03 0854.30
2009/04/23 15:58:26.7     -89   -108    133    141    193 219.6  48.5  34280  291.60 0854.30
2009/04/23 15:58:26.8     -92   -135    153    164    224 214.5  48.0  34250  291.09 0854.30
2009/04/23 15:58:26.9    -113   -121     66    166    178 223.0  23.0  34204  290.31 0854.30
2009/04/23 15:58:27.0    -113    -94    128    148    195 230.4  45.6  34262  291.32 0854.30
2009/04/23 15:58:27.1    -112    -45    128    121    176 247.8  52.0  34268  291.42 0854.30
2009/04/23 15:58:27.2    -108    -50    131    120    177 245.2  52.7  34280  291.62 0854.30
2009/04/23 15:58:27.3     -98    -53    129    112    170 241.6  54.8  34266  291.37 0854.34
2009/04/23 15:58:27.4     -43      0     82     44     93 270.0  69.8  34284  291.69 0854.34
2009/04/23 15:58:27.5     -14   -137    114    138    178 186.2  43.7  34234  290.82 0854.34
2009/04/23 15:58:27.6     -30   -251    117    253    278 186.9  26.6  34200  290.26 0854.34
2009/04/23 15:58:27.7     -66   -243    185    252    312 195.2  39.9  34202  290.27 0854.34
2009/04/23 15:58:27.8     -49   -223    186    229    295 192.5  43.5  34204  290.32 0854.34
2009/04/23 15:58:27.9      38   -202    149    206    254 169.3  39.7  34204  290.31 0854.34
2009/04/23 15:58:28.0     -12   -195    225    196    298 183.8  54.3  34222  290.61 0854.34
2009/04/23 15:58:28.1     -59   -198    174    207    270 196.7  44.1  34222  290.61 0854.34
2009/04/23 15:58:28.2     -69   -101    152    123    195 214.2  56.9  34214  290.50 0854.34
2009/04/23 15:58:28.3     -13    -66     97     68    118 191.6  61.5  34202  290.28 0854.37
2009/04/23 15:58:28.4     -33     36     56     50     75 317.7  53.3  34218  290.55 0854.37
2009/04/23 15:58:28.5     -22     65     58     69     90 340.8  43.8  34226  290.70 0854.37
2009/04/23 15:58:28.6     -28     43     63     52     81 326.6  56.4  34222  290.62 0854.37
2009/04/23 15:58:28.7     -23    -57     72     62     95 202.7  54.8  34218  290.55 0854.37
2009/04/23 15:58:28.8     -89    -56     65    106    124 237.6  35.0  34202  290.28 0854.37
2009/04/23 15:58:28.9    -153     24    145    156    212 279.2  47.9  34238  290.91 0854.37
2009/04/23 15:58:29.0    -202     59     92    211    230 286.4  25.1  34204  290.31 0854.37
2009/04/23 15:58:29.1    -199     38     35    203    207 280.8   9.9  34204  290.31 0854.37
2009/04/23 15:58:29.2    -209     12     29    210    213 273.3   8.0  34224  290.67 0854.37
2009/04/23 15:58:29.3    -190    251     93    315    329 322.9  16.5  34238  290.90 0854.37
2009/04/23 15:58:29.4    -101    254    168    274    321 338.2  34.6  34200  290.24 0854.37
2009/04/23 15:58:29.5     -82    242    160    256    301 341.3  35.5  34222  290.61 0854.37
2009/04/23 15:58:29.6    -102    245    160    266    310 337.3  34.2  34264  291.34 0854.37
2009/04/23 15:58:29.7     -70    176     72    190    203 338.1  21.5  34258  291.23 0854.37
2009/04/23 15:58:29.8     -60    151     81    163    182 338.2  28.2  34260  291.28 0854.37
2009/04/23 15:58:29.9      42     55    130     70    147  37.8  68.9  34218  290.57 0854.37
2009/04/23 15:58:30.0      23     81     97     85    128  16.0  54.3  34208  290.38 0854.37
2009/04/23 15:58:30.1    -105    187    162    215    269 330.6  40.7  34246  291.04 0854.37
2009/04/23 15:58:30.2    -177    228    100    289    307 322.2  19.2  34252  291.14 0854.37
2009/04/23 15:58:30.3    -154    233     79    280    292 326.6  15.8  34256  291.21 0854.36
2009/04/23 15:58:30.4    -114    316     25    337    338 340.1   4.4  34270  291.44 0854.36
2009/04/23 15:58:30.5     -88    242    152    258    299 339.9  33.4  34240  290.92 0854.36
2009/04/23 15:58:30.6     -27    273    155    275    315 354.2  32.0  34254  291.17 0854.36
2009/04/23 15:58:30.7      29    256    102    258    277   6.5  23.0  34270  291.44 0854.36
2009/04/23 15:58:30.8       8    282     81    283    295   1.8  16.0  34274  291.51 0854.36
2009/04/23 15:58:30.9     -79    209    141    224    264 339.3  35.5  34236  290.85 0854.36
2009/04/23 15:58:31.0     -46    119    118    128    174 338.6  47.9  34248  291.08 0854.36
2009/04/23 15:58:31.1       8    113    120    114    165   4.4  51.4  34272  291.47 0854.36
2009/04/23 15:58:31.2     -20    212    144    214    257 354.4  37.3  34276  291.55 0854.36
2009/04/23 15:58:31.3     -51    190     91    197    217 344.9  26.6  34308  292.08 0854.36
2009/04/23 15:58:31.4     -10    232    111    233    258 357.3  27.3  34318  292.24 0854.36
2009/04/23 15:58:31.5      23    213    104    215    238   6.2  27.8  34314  292.20 0854.36
2009/04/23 15:58:31.6     -61    220     53    229    236 344.4  13.2  34296  291.89 0854.36
2009/04/23 15:58:31.7      -3    212     -8    213    214 359.1  -2.2  34288  291.74 0854.36
2009/04/23 15:58:31.8      28    285      8    287    288   5.8   1.6  34246  291.02 0854.36
2009/04/23 15:58:31.9      41    286    -47    290    294   8.2  -9.4  34156  289.49 0854.36
2009/04/23 15:58:32.0      21    208    -62    210    218   6.0 -21.5  34150  289.41 0854.36
2009/04/23 15:58:32.1     -74    215    -52    228    234 340.8 -12.9  34214  290.50 0854.36
2009/04/23 15:58:32.2     -61    178     76    189    203 341.1  23.0  34210  290.41 0854.36
2009/04/23 15:58:32.3    -164    242    102    293    311 325.9  19.2  34204  290.32 0854.38
2009/04/23 15:58:32.4    -195    284    125    345    366 325.5  20.7  34286  291.71 0854.38
2009/04/23 15:58:32.5    -168    208    161    268    312 321.2  33.8  34318  292.26 0854.38
2009/04/23 15:58:32.6    -101    171    154    199    251 329.3  41.7  34318  292.26 0854.38
2009/04/23 15:58:32.7     -45    222    175    227    286 348.5  41.6  34240  290.93 0854.38
2009/04/23 15:58:32.8      18    275    134    276    306   3.8  27.4  34230  290.76 0854.38
2009/04/23 15:58:32.9     -40    199     20    203    205 348.5   5.7  34244  291.01 0854.38
2009/04/23 15:58:33.0     -47    160      8    167    168 343.5   2.8  34256  291.21 0854.38
2009/04/23 15:58:33.1     -45    123      2    132    133 340.0   1.2  34272  291.47 0854.38
2009/04/23 15:58:33.2    -101     89    -17    135    137 311.3  -7.3  34290  291.77 0854.38
2009/04/23 15:58:33.3     -48     30     15     57     60 302.4  15.3  34278  291.57 0854.38
2009/04/23 15:58:33.4     -27    -83     57     88    104 198.3  35.6  34278  291.59 0854.38
2009/04/23 15:58:33.5      17   -234     20    235    236 175.6   4.9  34262  291.29 0854.38
2009/04/23 15:58:33.6     -72   -265    -71    275    285 195.2 -14.5  34272  291.46 0854.38
2009/04/23 15:58:33.7    -102   -262     60    282    289 201.4  12.0  34264  291.34 0854.38
2009/04/23 15:58:33.8     -83   -445    -47    453    456 190.6  -6.0  34294  291.86 0854.38
2009/04/23 15:58:33.9     -78   -661    118    666    677 186.8  10.1  34286  291.72 0854.38
2009/04/23 15:58:34.0     -84   -656     85    662    668 187.3   7.3  34274  291.50 0854.38
2009/04/23 15:58:34.1     -59   -596    131    599    614 185.7  12.4  34272  291.49 0854.38
2009/04/23 15:58:34.2    -340   -589     22    681    682 210.0   1.9  34248  291.06 0854.38
2009/04/23 15:58:34.3    -485   -454     -5    665    666 226.9  -0.5  34222  290.63 0854.38
2009/04/23 15:58:34.4    -338   -383   -191    512    546 221.4 -25.9  34174  289.82 0854.38
2009/04/23 15:58:34.5    -447   -593   -196    743    769 217.0 -14.8  34210  290.43 0854.38
2009/04/23 15:58:34.6    -570   -347   -238    668    709 238.7 -24.8  34164  289.65 0854.38
2009/04/23 15:58:34.7    -518   -396   -280    653    710 232.6 -29.0  34164  289.65 0854.38
2009/04/23 15:58:34.8    -935   -443   -408   1035   1112 244.6 -27.1  34180  289.90 0854.38
2009/04/23 15:58:34.9    -813   -409   -328    911    969 243.3 -19.8  34202  290.29 0854.38
2009/04/23 15:58:35.0    -797   -239   -285    833    880 253.3 -24.0  34156  289.51 0854.38
2009/04/23 15:58:35.1    -794   -268   -318    839    897 251.3 -26.2  34150  289.40 0854.38
2009/04/23 15:58:35.2    -708   -212   -314    740    803 253.3 -28.9  34166  289.66 0854.38
2009/04/23 15:58:35.3    -691   -176   -319    714    782 255.7 -30.1  34144  289.31 0854.38
2009/04/23 15:58:35.4    -721   -150   -324    737    805 258.2 -29.7  34138  289.20 0854.38
2009/04/23 15:58:35.5    -623   -227   -319    664    736 250.0 -31.8  34162  289.62 0854.38
2009/04/23 15:58:35.6    -491   -220   -373    539    655 245.8 -42.5  34146  289.33 0854.38
2009/04/23 15:58:35.7    -499   -166   -387    526    653 251.6 -44.4  34162  289.59 0854.38
2009/04/23 15:58:35.8    -568   -171   -357    594    693 253.2 -38.2  34154  289.48 0854.38
2009/04/23 15:58:35.9    -545   -161   -388    569    688 253.5 -42.0  34156  289.52 0854.38
2009/04/23 15:58:36.0    -481    -34   -457    483    664 265.9 -52.6  34156  289.51 0854.38
2009/04/23 15:58:36.1    -395   -201   -270    444    519 243.0 -38.5  34162  289.62 0854.38
2009/04/23 15:58:36.2    -509   -369   -262    629    681 234.1 -28.3  34174  289.80 0854.38
2009/04/23 15:58:36.3      -6     -2   -212      7    212 251.8 -90.0  34188  290.06 0854.35
2009/04/23 15:58:36.4     -95   -168    -66    194    206 209.4 -18.9  34186  290.01 0854.35
2009/04/23 15:58:36.5    -303   -354   -159    467    494 220.6 -18.8  34232  290.79 0854.35
2009/04/23 15:58:36.6    -526    -98   -143    536    555 259.4 -15.0  34228  290.72 0854.35
2009/04/23 15:58:36.7    -286   -277   -220    399    455 226.0 -35.7  34218  290.55 0854.35
2009/04/23 15:58:36.8    -383   -201   -274    433    512 242.2 -39.9  34186  290.00 0854.35
2009/04/23 15:58:36.9    -395   -396     32    560    561 224.9   3.3  34212  290.45 0854.35
2009/04/23 15:58:37.0    -412   -387   -119    566    579 226.8 -11.9  34192  290.12 0854.35
2009/04/23 15:58:37.1    -521   -303   -187    603    632 239.8 -17.3  34192  290.13 0854.35
2009/04/23 15:58:37.2    -527   -224   -230    573    617 247.0 -27.5  34186  290.02 0854.35
2009/04/23 15:58:37.3    -333    -34   -119    335    356 264.1 -19.6  34184  289.98 0854.35
2009/04/23 15:58:37.4    -319   -361    -95    483    493 221.5 -11.2  34182  289.95 0854.35
2009/04/23 15:58:37.5    -447   -319   -179    550    579 234.5 -18.1  34176  289.83 0854.35
2009/04/23 15:58:37.6    -475   -108    146    488    510 257.1  16.7  34186  290.00 0854.35
2009/04/23 15:58:37.7    -432   -188    -43    472    475 246.5  -5.3  34170  289.74 0854.35
2009/04/23 15:58:37.8    -329   -187    -14    379    380 240.3  -2.2  34176  289.84 0854.35
2009/04/23 15:58:37.9    -367   -154   -134    399    420 247.3 -23.3  34174  289.82 0854.35
2009/04/23 15:58:38.0    -336   -268   -167    431    462 231.4 -26.8  34156  289.51 0854.35
2009/04/23 15:58:38.1    -515   -146   -250    536    591 254.1 -31.3  34186  290.00 0854.35
2009/04/23 15:58:38.2    -616   -203   -210    649    683 251.7 -17.9  34174  289.80 0854.35
2009/04/23 15:58:38.3    -638   -174    -92    662    669 254.7  -7.9  34186  290.00 0854.37
2009/04/23 15:58:38.4    -612     39   -170    614    637 273.7 -20.1  34172  289.77 0854.37
2009/04/23 15:58:38.5    -614   -124   -212    627    661 258.6 -23.7  34180  289.92 0854.37
2009/04/23 15:58:38.6    -456   -342    -94    570    578 233.1  -9.4  34196  290.17 0854.37
2009/04/23 15:58:38.7    -440   -122     -9    457    458 254.4  -1.2  34200  290.26 0854.37
2009/04/23 15:58:38.8    -451   -164    -26    481    482 250.0  -3.1  34202  290.30 0854.37
2009/04/23 15:58:38.9    -494   -132    -66    512    517 255.0  -7.4  34194  290.15 0854.37
2009/04/23 15:58:39.0    -432     67   -156    438    464 278.9 -24.8  34192  290.12 0854.37
2009/04/23 15:58:39.1    -348    -64   -110    354    371 259.5 -17.3  34188  290.03 0854.37
2009/04/23 15:58:39.2    -551   -155    -59    573    577 254.2  -5.9  34206  290.36 0854.37
2009/04/23 15:58:39.3    -622   -272    -57    679    682 246.4  -4.8  34214  290.48 0854.37
2009/04/23 15:58:39.4    -763   -217    -57    794    796 254.1  -4.1  34212  290.47 0854.37
2009/04/23 15:58:39.5    -632   -374   -120    735    745 239.4  -9.3  34192  290.11 0854.37
2009/04/23 15:58:39.6    -508   -169    -17    536    537 251.6  -1.9  34208  290.40 0854.37
2009/04/23 15:58:39.7    -628   -256    -87    679    685 247.8  -7.3  34208  290.39 0854.37
2009/04/23 15:58:39.8    -611   -297    -63    680    684 244.0  -5.3  34218  290.55 0854.37
2009/04/23 15:58:39.9    -495   -314    -96    587    595 237.6  -9.3  34208  290.37 0854.37
2009/04/23 15:58:40.0    -576   -265     -4    635    636 245.3  -0.4  34192  290.11 0854.37
2009/04/23 15:58:40.1    -633   -237     -3    677    678 249.4  -0.3  34194  290.16 0854.37
2009/04/23 15:58:40.2    -518   -259     33    580    581 243.4   3.3  34200  290.25 0854.40
2009/04/23 15:58:40.3    -273   -254    -42    374    377 227.1  -6.5  34198  290.21 0854.40
2009/04/23 15:58:40.4    -486    -71    -19    492    493 261.7  -2.2  34186  290.00 0854.40
2009/04/23 15:58:40.5    -338   -222   -123    405    423 236.7 -21.8  34180  289.92 0854.40
2009/04/23 15:58:40.6    -122   -185   -169    222    279 213.4 -45.6  34180  289.92 0854.40
2009/04/23 15:58:40.7      46   -261     -2    266    267 170.0  -0.5  34180  289.92 0854.40
2009/04/23 15:58:40.8      27   -233    -61    235    243 173.3 -14.7  34184  289.97 0854.40
2009/04/23 15:58:40.9    -329   -281    -39    433    435 229.5  -5.2  34184  289.97 0854.40
2009/04/23 15:58:41.0    -459   -258      7    527    528 240.6   0.8  34192  290.11 0854.40
2009/04/23 15:58:41.1    -432   -386      8    580    581 228.2   0.8  34202  290.27 0854.40
2009/04/23 15:58:41.2    -303   -395    -27    499    500 217.5  -3.2  34198  290.23 0854.40
2009/04/23 15:58:41.3    -276   -301     48    409    412 222.6   6.7  34194  290.14 0854.40
2009/04/23 15:58:41.4    -290   -366     48    468    471 218.4   6.0  34212  290.45 0854.40
2009/04/23 15:58:41.5    -449   -212     47    497    500 244.7   5.4  34202  290.30 0854.40
2009/04/23 15:58:41.6    -443   -128    -41    462    464 253.8  -5.2  34208  290.38 0854.40
2009/04/23 15:58:41.7    -396    -88    -11    406    407 257.4  -1.6  34208  290.39 0854.40
2009/04/23 15:58:41.8    -471     -8   -126    472    489 269.0 -15.1  34196  290.18 0854.40
2009/04/23 15:58:41.9    -253    -61     41    261    265 256.3   9.0  34204  290.32 0854.40
2009/04/23 15:58:42.0    -160   -206     27    262    264 217.9   6.0  34188  290.03 0854.40
2009/04/23 15:58:42.1    -188   -123     43    225    230 236.7  11.0  34192  290.13 0854.40
2009/04/23 15:58:42.2    -343    -28     14    345    346 265.3   2.4  34208  290.37 0854.42
2009/04/23 15:58:42.3     -85   -323     -9    334    335 194.8  -1.6  34184  289.98 0854.42
2009/04/23 15:58:42.4    -149   -338     79    370    379 203.8  12.1  34178  289.86 0854.42
2009/04/23 15:58:42.5    -110   -276     37    298    301 201.8   7.1  34172  289.78 0854.42
2009/04/23 15:58:42.6     -84   -232     99    247    266 200.0  23.0  34174  289.81 0854.42
2009/04/23 15:58:42.7    -128   -325      0    350    351 201.6   0.0  34170  289.74 0854.42
2009/04/23 15:58:42.8    -315   -316      0    447    448 224.9   0.1  34180  289.92 0854.42
2009/04/23 15:58:42.9    -223   -311    -16    383    384 215.6  -2.5  34178  289.87 0854.42
2009/04/23 15:58:43.0     -61   -301      1    308    309 191.6   0.2  34174  289.81 0854.42
2009/04/23 15:58:43.1     -37   -342     70    345    352 186.3  11.5  34178  289.86 0854.42
2009/04/23 15:58:43.2     -66   -383     74    389    397 189.8  10.8  34178  289.89 0854.42
2009/04/23 15:58:43.3    -124   -361     23    382    383 199.0   3.5  34172  289.76 0854.42
2009/04/23 15:58:43.4     -33   -453     53    455    459 184.2   6.7  34178  289.87 0854.42
2009/04/23 15:58:43.5    -138   -433     27    455    456 197.7   3.5  34176  289.85 0854.42
2009/04/23 15:58:43.6     -48   -590    -31    593    594 184.7  -3.0  34210  290.42 0854.42
2009/04/23 15:58:43.7     -12   -625    -10    626    627 181.1  -1.0  34192  290.11 0854.42
2009/04/23 15:58:43.8       3   -590     61    591    595 179.6   6.0  34182  289.95 0854.42
2009/04/23 15:58:43.9     -26   -555     36    556    558 182.7   3.7  34188  290.06 0854.42
2009/04/23 15:58:44.0     -73   -532     50    537    540 187.9   5.4  34198  290.23 0854.42
2009/04/23 15:58:44.1     -56   -548    -70    551    556 185.9  -7.3  34192  290.11 0854.42
2009/04/23 15:58:44.2    -245   -521   -156    576    597 205.2 -15.2  34186  290.02 0854.42
2009/04/23 15:58:44.3     -84   -553     57    560    563 188.7   5.9  34188  290.06 0854.42
2009/04/23 15:58:44.4     -73   -444     70    451    457 189.4   8.9  34190  290.07 0854.42
2009/04/23 15:58:44.5    -409   -440     52    602    605 222.9   5.0  34188  290.03 0854.42
2009/04/23 15:58:44.6    -363   -438    -71    569    574 219.6  -7.2  34190  290.07 0854.42
2009/04/23 15:58:44.7    -289   -387    104    484    496 216.8  12.2  34172  289.76 0854.42
2009/04/23 15:58:44.8    -204   -358    105    413    427 209.7  14.3  34194  290.14 0854.42
2009/04/23 15:58:44.9    -319   -385    -33    500    502 219.6  -3.8  34172  289.78 0854.42
2009/04/23 15:58:45.0    -206   -431   -167    478    506 205.6 -24.3  34152  289.45 0854.42
2009/04/23 15:58:45.1    -286   -558    -44    628    630 207.2  -4.0  34178  289.87 0854.42
2009/04/23 15:58:45.2    -399   -641     -6    755    756 211.9  -0.5  34196  290.19 0854.42
2009/04/23 15:58:45.3    -417   -640    -71    764    768 213.1  -5.3  34202  290.29 0854.42
2009/04/23 15:58:45.4    -438   -544   -118    699    709 218.9  -9.6  34192  290.13 0854.42
2009/04/23 15:58:45.5    -357   -585   -110    686    695 211.4  -9.1  34194  290.14 0854.42
2009/04/23 15:58:45.6    -384   -554    -87    675    681 214.7  -7.4  34212  290.46 0854.42
2009/04/23 15:58:45.7    -434   -581    -82    726    731 216.7  -6.5  34202  290.27 0854.42
2009/04/23 15:58:45.8    -523   -525     -3    742    743 224.9  -0.3  34162  289.60 0854.42
2009/04/23 15:58:45.9    -448   -358    146    574    593 231.4  14.3  34154  289.47 0854.42
2009/04/23 15:58:46.0    -506   -243    196    562    596 244.3  19.3  34164  289.63 0854.42
2009/04/23 15:58:46.1    -402   -121    199    420    464 253.2  27.1  34160  289.56 0854.42
2009/04/23 15:58:46.2    -551   -171    -22    578    579 252.7  -2.2  34176  289.85 0854.42
2009/04/23 15:58:46.3    -526   -268     -3    591    592 243.0  -0.4  34172  289.78 0854.42
2009/04/23 15:58:46.4    -630   -300    -49    699    701 244.5  -4.0  34192  290.11 0854.42
2009/04/23 15:58:46.5    -792   -184    -63    814    817 256.9  -4.5  34154  289.47 0854.42
2009/04/23 15:58:46.6    -600   -262   -193    655    682 246.4 -21.2  34156  289.51 0854.42
2009/04/23 15:58:46.7    -475   -388   -168    614    636 230.8 -20.0  34172  289.77 0854.42
2009/04/23 15:58:46.8    -583   -293    -82    653    659 243.3  -7.2  34174  289.80 0854.42
2009/04/23 15:58:46.9    -498     35    -11    500    501 274.0  -1.3  34130  289.05 0854.42
2009/04/23 15:58:47.0    -565     -8   -170    566    590 269.1 -21.7  34140  289.22 0854.42
2009/04/23 15:58:47.1    -325    -88     10    337    338 254.8   1.8  34192  290.13 0854.42
2009/04/23 15:58:47.2    -447   -298    -55    538    541 236.3  -5.9  34156  289.51 0854.42
2009/04/23 15:58:47.4    -544   -390   -113    670    680 234.4  -9.6  34146  289.32 0854.42
2009/04/23 15:58:47.4    -821   -318   -135    881    892 248.8  -8.7  34128  289.03 0854.42
2009/04/23 15:58:47.6    -733   -505   -223    891    919 235.4 -14.1  34140  289.24 0854.42
2009/04/23 15:58:47.7    -834   -355   -300    907    956 246.9 -18.3  34120  288.88 0854.42
2009/04/23 15:58:47.7    -827   -297   -353    880    948 250.2 -27.5  34120  288.89 0854.42
2009/04/23 15:58:47.9   -1062   -155   -395   1074   1144 261.7 -25.4  34130  289.05 0854.42
2009/04/23 15:58:48.0    -886   -483   -212   1009   1032 241.4 -11.9  34134  289.13 0854.42
2009/04/23 15:58:48.1    -627   -311   -239    700    739 243.6 -23.9  34114  288.79 0854.42
2009/04/23 15:58:48.2    -570   -473   -291    741    796 230.3 -26.9  34124  288.95 0854.42
2009/04/23 15:58:48.3    -679   -213   -172    712    733 252.6 -13.6  34130  289.06 0854.42
2009/04/23 15:58:48.4    -584   -384   -255    700    745 236.7 -25.4  34130  289.06 0854.42
2009/04/23 15:58:48.5    -584   -502    -79    771    776 229.3  -5.9  34130  289.05 0854.42
2009/04/23 15:58:48.6    -482   -435     16    650    651 227.9   1.5  34110  288.71 0854.42
2009/04/23 15:58:48.7    -487   -212     72    532    537 246.5   7.8  34118  288.85 0854.42
2009/04/23 15:58:48.8    -715    -29   -206    716    745 267.7 -20.8  34128  289.02 0854.42
2009/04/23 15:58:48.9    -368   -177   -200    409    455 244.3 -32.4  34114  288.80 0854.42
2009/04/23 15:58:49.0    -304   -179    -78    353    362 239.5 -12.5  34144  289.30 0854.42
2009/04/23 15:58:49.1    -559   -103   -159    569    590 259.5 -20.2  34116  288.81 0854.42
2009/04/23 15:58:49.2    -652     48   -181    654    678 274.3 -20.1  34128  289.04 0854.42
2009/04/23 15:58:49.3    -396      6   -136    397    419 270.9 -23.9  34128  289.04 0854.38
2009/04/23 15:58:49.4    -241    -80    -77    255    266 251.6 -21.7  34146  289.34 0854.38
2009/04/23 15:58:49.5    -136   -255    169    290    335 208.1  32.9  34146  289.32 0854.38
2009/04/23 15:58:49.6     -88   -325    105    337    354 195.2  17.4  34146  289.32 0854.38
2009/04/23 15:58:49.7    -184   -196    -28    270    272 223.2  -6.1  34146  289.32 0854.38
2009/04/23 15:58:49.8    -264    -91    -33    280    283 251.0  -6.9  34142  289.25 0854.38
2009/04/23 15:58:49.9    -414   -150   -157    441    469 250.1 -19.7  34138  289.21 0854.38
2009/04/23 15:58:50.0    -384   -154   -168    414    446 248.1 -27.6  34114  288.78 0854.38
2009/04/23 15:58:50.1    -332   -183   -225    380    441 241.1 -37.8  34136  289.17 0854.38
2009/04/23 15:58:50.2    -310   -455   -228    551    596 214.3 -28.2  34134  289.12 0854.38
2009/04/23 15:58:50.3    -181   -574   -132    602    617 197.5 -12.4  34136  289.15 0854.38
2009/04/23 15:58:50.4    -142   -393    -92    418    429 199.9 -12.5  34116  288.83 0854.38
2009/04/23 15:58:50.5     -88   -246   -127    262    291 199.8 -31.7  34112  288.76 0854.38
2009/04/23 15:58:50.6    -112   -156   -190    193    270 215.6 -54.3  34114  288.78 0854.38
2009/04/23 15:58:50.7     -51   -151   -245    160    292 198.7 -68.5  34128  289.02 0854.38
2009/04/23 15:58:50.8    -210   -143   -122    255    282 235.8 -31.7  34142  289.25 0854.38
2009/04/23 15:58:50.9    -101   -388   -264    401    480 194.6 -40.9  34110  288.73 0854.38
2009/04/23 15:58:51.0    -113   -275   -292    298    417 202.3 -53.8  34136  289.18 0854.38
2009/04/23 15:58:51.1      -2   -222   -230    223    320 180.7 -55.3  34148  289.37 0854.38
2009/04/23 15:58:51.2      76   -237   -173    250    304 162.1 -42.4  34146  289.34 0854.38
2009/04/23 15:58:51.3     123   -236   -188    267    326 152.4 -43.0  34144  289.29 0854.37
2009/04/23 15:58:51.4      61   -159   -193    171    257 159.1 -58.1  34144  289.29 0854.37
2009/04/23 15:58:51.5       9   -121   -185    122    221 175.5 -68.3  34140  289.24 0854.37
2009/04/23 15:58:51.6    -176   -136   -157    223    272 232.2 -43.0  34146  289.34 0854.37
2009/04/23 15:58:51.7    -342   -114   -124    361    381 251.5 -23.8  34116  288.82 0854.37
2009/04/23 15:58:51.8    -553     38   -186    555    586 274.0 -18.6  34128  289.03 0854.37
2009/04/23 15:58:51.9    -621    -22   -173    622    645 267.9 -20.1  34144  289.31 0854.37
2009/04/23 15:58:52.0    -526   -306   -216    609    647 239.8 -19.5  34158  289.53 0854.37
2009/04/23 15:58:52.1    -741    -34   -257    742    785 267.3 -24.3  34126  289.00 0854.37
2009/04/23 15:58:52.2    -617    -84   -348    623    713 262.2 -36.0  34118  288.87 0854.37
2009/04/23 15:58:52.3    -534   -125   -336    549    643 256.8 -38.8  34128  289.03 0854.37
2009/04/23 15:58:52.4    -285   -181   -384    338    511 237.5 -58.6  34126  288.99 0854.37
2009/04/23 15:58:52.5     -98   -204   -305    227    380 205.6 -64.3  34132  289.11 0854.37
2009/04/23 15:58:52.6    -233   -266   -255    354    436 221.2 -43.9  34136  289.17 0854.37
2009/04/23 15:58:52.7    -178   -189    -77    260    272 223.3 -16.5  34134  289.12 0854.37
2009/04/23 15:58:52.8    -228    -75     12    241    242 251.8   2.9  34140  289.22 0854.37
2009/04/23 15:58:52.9    -316    -94     24    330    331 253.3   4.2  34142  289.25 0854.37
2009/04/23 15:58:53.0    -422    132     16    443    444 287.4   2.1  34134  289.14 0854.37
2009/04/23 15:58:53.1     -84    312    166    324    364 344.8  29.2  34140  289.23 0854.37
2009/04/23 15:58:53.2    -168     71    149    183    235 293.1  43.5  34150  289.40 0854.37
2009/04/23 15:58:53.3    -450    172     45    482    485 291.0   5.4  34152  289.42 0854.36
2009/04/23 15:58:53.4    -310    154     10    347    348 296.4   1.8  34154  289.48 0854.36
2009/04/23 15:58:53.5    -119     55    108    132    170 294.8  43.7  34156  289.52 0854.36
2009/04/23 15:58:53.6    -137    185    185    231    295 323.5  43.0  34154  289.47 0854.36
2009/04/23 15:58:53.7     -28    108    130    112    171 345.3  54.8  34158  289.53 0854.36
2009/04/23 15:58:53.8      -3     57     94     58    110 356.4  64.7  34158  289.55 0854.36
2009/04/23 15:58:53.9     -71     -5    101     72    124 265.6  61.1  34172  289.79 0854.36
2009/04/23 15:58:54.0     -97    -71     45    121    129 234.0  21.0  34160  289.58 0854.36
2009/04/23 15:58:54.1    -163    -68     66    177    188 247.2  21.3  34154  289.48 0854.36
2009/04/23 15:58:54.2    -178   -182    128    255    285 224.3  28.5  34144  289.31 0854.36
2009/04/23 15:58:54.3    -207   -106     81    233    247 242.9  19.2  34146  289.34 0854.36
2009/04/23 15:58:54.4     -62   -122     92    138    165 207.1  36.7  34142  289.28 0854.36
2009/04/23 15:58:54.5     -58   -142    119    154    194 202.3  41.7  34144  289.31 0854.36
2009/04/23 15:58:54.6     -89   -117     69    148    163 217.4  26.4  34148  289.36 0854.36
2009/04/23 15:58:54.7    -157    -69     75    172    187 246.3  25.1  34156  289.52 0854.36
2009/04/23 15:58:54.8    -168    -56     61    178    189 251.4  18.9  34158  289.55 0854.36
2009/04/23 15:58:54.9    -224    -93     -9    243    244 247.4  -2.2  34158  289.53 0854.36
2009/04/23 15:58:55.0    -334   -103    -13    350    351 252.8  -2.2  34150  289.40 0854.36
2009/04/23 15:58:55.1    -407   -204    -77    456    463 243.4  -9.6  34150  289.41 0854.36
2009/04/23 15:58:55.2    -390   -211    -63    444    449 241.5  -8.1  34148  289.38 0854.36
2009/04/23 15:58:55.3    -258   -306    -50    401    405 220.1  -7.2  34142  289.27 0854.39
2009/04/23 15:58:55.4    -315   -333     55    459    463 223.4   6.9  34152  289.44 0854.39
2009/04/23 15:58:55.5    -195   -366     99    415    427 208.1  13.5  34146  289.34 0854.39
2009/04/23 15:58:55.6    -131   -103    215    168    272 231.8  58.2  34152  289.42 0854.39
2009/04/23 15:58:55.7    -163   -113    205    199    285 235.1  50.9  34152  289.44 0854.39
2009/04/23 15:58:55.8    -104     -1    201    105    226 269.1  70.4  34160  289.58 0854.39
2009/04/23 15:58:55.9    -219    302     18    374    375 324.0   2.8  34160  289.57 0854.39
2009/04/23 15:58:56.0    -193    390     35    436    438 333.7   4.7  34166  289.66 0854.39
2009/04/23 15:58:56.1    -118    354    102    374    388 341.5  15.3  34162  289.60 0854.39
2009/04/23 15:58:56.2     -58    460     30    464    466 352.8   3.8  34166  289.66 0854.39
2009/04/23 15:58:56.3      74    476      5    482    483   8.9   0.7  34162  289.61 0854.39
2009/04/23 15:58:56.4    -160    464    -53    491    494 340.9  -6.3  34134  289.12 0854.39
2009/04/23 15:58:56.5    -390    547   -162    672    692 324.5 -13.6  34124  288.95 0854.39
2009/04/23 15:58:56.6    -521    468   -221    701    736 311.9 -17.5  34136  289.17 0854.39
2009/04/23 15:58:56.7    -520    348   -127    626    639 303.8 -11.5  34166  289.67 0854.39
2009/04/23 15:58:56.8    -357    291     77    461    468 309.2   9.5  34166  289.69 0854.39
2009/04/23 15:58:56.9    -287    440    255    526    584 326.9  27.7  34152  289.43 0854.39
2009/04/23 15:58:57.0    -215    374    259    432    503 330.1  33.8  34178  289.88 0854.39
2009/04/23 15:58:57.1    -156    329    132    365    388 334.6  20.7  34182  289.94 0854.39
2009/04/23 15:58:57.2     -63    322    243    329    409 348.9  40.0  34234  290.84 0854.39
2009/04/23 15:58:57.3    -165    287    124    332    354 330.1  21.4  34220  290.60 0854.38
2009/04/23 15:58:57.4    -147    268     50    306    311 331.3   9.3  34218  290.54 0854.38
2009/04/23 15:58:57.5    -210    209     25    297    299 314.8   4.9  34168  289.71 0854.38
2009/04/23 15:58:57.6    -206    220    -12    302    303 316.8  -2.3  34136  289.17 0854.38
2009/04/23 15:58:57.7    -174    222      6    283    284 321.9   1.2  34210  290.42 0854.38
2009/04/23 15:58:57.8    -181    198     17    269    270 317.7   3.8  34222  290.63 0854.38
2009/04/23 15:58:57.9    -254    184     72    314    323 306.0  12.9  34230  290.76 0854.38
2009/04/23 15:58:58.0    -220    181     51    286    291 309.5  10.1  34256  291.19 0854.38
2009/04/23 15:58:58.1    -189    104     72    216    228 298.9  18.4  34244  290.99 0854.38
2009/04/23 15:58:58.2    -226     74    118    238    265 288.2  28.2  34238  290.88 0854.38
2009/04/23 15:58:58.3    -189    104     98    216    237 298.8  26.2  34270  291.43 0854.38
2009/04/23 15:58:58.4    -144    151    124    209    243 316.3  33.5  34272  291.46 0854.38
2009/04/23 15:58:58.5     -28    170    126    173    214 350.7  39.7  34196  290.18 0854.38
2009/04/23 15:58:58.6    -112    203     91    232    249 331.1  22.3  34186  290.02 0854.38
2009/04/23 15:58:58.7     -85    104    128    135    186 320.8  48.2  34174  289.82 0854.38
2009/04/23 15:58:58.8     -64    -17    135     67    150 254.9  72.4  34182  289.96 0854.38
2009/04/23 15:58:58.9     -46    152    148    159    217 343.1  47.9  34236  290.86 0854.38
2009/04/23 15:58:59.0     -76     96    148    123    192 321.7  56.3  34246  291.03 0854.38
2009/04/23 15:58:59.1     -75   -118    145    141    202 212.5  50.7  34238  290.91 0854.38
2009/04/23 15:58:59.2     -45    -84    238     96    256 208.5  77.0  34226  290.70 0854.38
2009/04/23 15:58:59.3    -209   -153    234    260    349 233.8  46.8  34218  290.56 0854.35
2009/04/23 15:58:59.4    -149   -124    248    194    314 230.2  58.0  34190  290.09 0854.35
2009/04/23 15:58:59.5      -5     71    237     72    247 355.5  82.8  34222  290.62 0854.35
2009/04/23 15:58:59.6      19     40    220     45    224  26.3  89.0  34254  291.16 0854.35
2009/04/23 15:58:59.7      94    -27    198     98    220 106.4  71.9  34240  290.94 0854.35
2009/04/23 15:58:59.8     157     53    152    166    225  71.2  47.5  34206  290.36 0854.35
2009/04/23 15:58:59.9     201     -8    149    202    251  92.4  40.1  34202  290.29 0854.35
2009/04/23 15:59:00.0     202    -68    148    214    260 108.8  38.4  34198  290.20 0854.35
2009/04/23 15:59:00.1     110     73     82    133    156  56.3  35.5  34192  290.13 0854.35
2009/04/23 15:59:00.2      20    121     51    123    133   9.8  23.6  34198  290.21 0854.35
2009/04/23 15:59:00.3     -30    179      3    182    183 350.2   1.2  34206  290.35 0854.35
2009/04/23 15:59:00.4     -17    187     90    188    208 354.7  27.3  34210  290.43 0854.35
2009/04/23 15:59:00.5     -12    153     86    154    176 355.5  31.4  34206  290.36 0854.35
2009/04/23 15:59:00.6     -58    142     79    154    173 337.7  29.3  34200  290.25 0854.35
2009/04/23 15:59:00.7     -68     15    100     70    122 282.4  61.5  34208  290.40 0854.35
2009/04/23 15:59:00.8     -69     43    122     82    146 302.4  63.2  34214  290.48 0854.35
2009/04/23 15:59:00.9     -62     49    160     80    178 308.2  71.7  34218  290.55 0854.35
2009/04/23 15:59:01.0      30     23    153     38    157  52.2  86.2  34224  290.65 0854.35
2009/04/23 15:59:01.1     212    146    282    258    382  55.4  52.9  34180  289.91 0854.35
2009/04/23 15:59:01.2     455    121     61    471    475  75.0   7.4  34160  289.56 0854.35
2009/04/23 15:59:01.3     363    310    155    478    503  49.5  18.0  34206  290.35 0854.36
2009/04/23 15:59:01.4     443    253    257    511    571  60.3  28.7  34242  290.97 0854.36
2009/04/23 15:59:01.5     398    233    311    462    556  59.6  37.1  34242  290.97 0854.36
2009/04/23 15:59:01.6     558    186    285    589    654  71.6  27.7  34210  290.42 0854.36
2009/04/23 15:59:01.7     568    256    213    624    660  65.7  18.9  34166  289.67 0854.36
2009/04/23 15:59:01.8     465    281     67    544    549  58.9   7.1  34136  289.16 0854.36
2009/04/23 15:59:01.9     442    276    102    522    533  58.0  11.1  34152  289.45 0854.36
2009/04/23 15:59:02.0     429    285    120    516    530  56.4  13.1  34176  289.85 0854.36
2009/04/23 15:59:02.1     445    234    176    503    533  62.3  19.3  34178  289.87 0854.36
2009/04/23 15:59:02.2     524    198    137    561    578  69.3  13.8  34180  289.90 0854.36
2009/04/23 15:59:02.3     394    123     72    414    421  72.6   9.9  34154  289.48 0854.36
2009/04/23 15:59:02.4     415    210    -54    466    470  63.2  -6.7  34156  289.49 0854.36
2009/04/23 15:59:02.5     347    287     88    451    460  50.4  11.1  34156  289.49 0854.36
2009/04/23 15:59:02.6     325    282    151    431    456  49.1  20.0  34216  290.51 0854.36
2009/04/23 15:59:02.7     341    203     70    397    404  59.3  10.0  34192  290.10 0854.36
2009/04/23 15:59:02.8     224    186    133    292    320  50.4  26.0  34252  291.12 0854.36
2009/04/23 15:59:02.9     266    203    142    335    363  52.7  24.5  34234  290.83 0854.36
2009/04/23 15:59:03.0     179    185     20    258    259  44.1   4.6  34230  290.76 0854.36
2009/04/23 15:59:03.1     123    227     31    259    261  28.5   6.9  34212  290.46 0854.36
2009/04/23 15:59:03.2      94    197    214    219    306  25.5  49.8  34190  290.07 0854.36
2009/04/23 15:59:03.3      85    187    234    206    311  24.5  54.0  34184  289.97 0854.38
2009/04/23 15:59:03.4     -54    315    186    320    370 350.2  32.9  34204  290.33 0854.38
2009/04/23 15:59:03.5       9    273    110    274    295   2.0  23.1  34216  290.51 0854.38
2009/04/23 15:59:03.6     -13    266     99    267    284 357.1  21.0  34238  290.88 0854.38
2009/04/23 15:59:03.7      19    194     79    196    211   5.8  23.0  34238  290.89 0854.38
2009/04/23 15:59:03.8     -71    112     88    133    159 327.5  36.7  34238  290.89 0854.38
2009/04/23 15:59:03.9     -52     96     66    110    128 331.5  34.0  34234  290.82 0854.38
2009/04/23 15:59:04.0     -40    121     64    128    143 341.7  28.7  34232  290.79 0854.38
2009/04/23 15:59:04.1      48     74     24     89     93  33.0  15.3  34234  290.82 0854.38
2009/04/23 15:59:04.2      51     64     77     83    113  38.7  48.0  34242  290.98 0854.38
2009/04/23 15:59:04.3     -60    101     98    118    153 329.3  43.8  34244  291.01 0854.38
2009/04/23 15:59:04.4     105     81    116    133    176  52.3  45.6  34236  290.87 0854.38
2009/04/23 15:59:04.5     153    110    177    189    258  54.1  48.0  34248  291.05 0854.38
2009/04/23 15:59:04.6     159    113    165    196    256  54.7  44.3  34246  291.02 0854.38
2009/04/23 15:59:04.7     133     84    146    158    215  57.5  47.9  34248  291.06 0854.38
2009/04/23 15:59:04.8     195    115    184    227    292  59.4  43.3  34240  290.92 0854.38
2009/04/23 15:59:04.9     153     82    171    174    243  61.6  49.9  34226  290.69 0854.38
2009/04/23 15:59:05.0     157     92    222    183    287  59.6  56.4  34152  289.42 0854.38
2009/04/23 15:59:05.1     145     95    162    174    237  56.7  47.9  34172  289.79 0854.38
2009/04/23 15:59:05.2      94     64    142    114    182  55.8  56.9  34182  289.96 0854.38
2009/04/23 15:59:05.3      45     66    136     80    157  34.3  67.0  34192  290.13 0854.35
2009/04/23 15:59:05.4      23     15    123     28    126  57.6  87.5  34206  290.36 0854.35
2009/04/23 15:59:05.5     -17    -11     99     21    101 237.5  89.0  34216  290.53 0854.35
2009/04/23 15:59:05.6      -3      0    118      4    118 274.4  90.0  34212  290.45 0854.35
2009/04/23 15:59:05.7     -67    105    146    125    192 327.5  55.4  34174  289.82 0854.35
2009/04/23 15:59:05.8    -148     49    143    156    211 288.4  47.5  34174  289.80 0854.35
2009/04/23 15:59:05.9    -235     41    105    239    261 279.9  25.2  34146  289.34 0854.35
2009/04/23 15:59:06.0    -186     31    108    189    217 279.5  32.1  34166  289.67 0854.35
2009/04/23 15:59:06.1    -155     31     88    159    181 281.5  31.4  34182  289.96 0854.35
2009/04/23 15:59:06.2     -99     11     91    100    135 276.6  47.5  34188  290.04 0854.35
2009/04/23 15:59:06.3    -121     17     44    123    130 278.4  20.0  34186  290.02 0854.35
2009/04/23 15:59:06.4     -10    -40     74     42     85 194.3  67.7  34190  290.08 0854.35
2009/04/23 15:59:06.5      64     -2     65     65     91  92.6  50.1  34222  290.64 0854.35
2009/04/23 15:59:06.6      -1     -4     86      5     86 198.5  90.0  34228  290.72 0854.35
2009/04/23 15:59:06.7     -25    -34     77     43     88 217.0  68.8  34220  290.58 0854.35
2009/04/23 15:59:06.8      19    -31     57     37     67 147.5  64.6  34228  290.72 0854.35
2009/04/23 15:59:06.9      58    -19     35     62     71 108.2  31.4  34230  290.75 0854.35
2009/04/23 15:59:07.0      62    -76     34     99    105 140.8  19.4  34220  290.58 0854.35
2009/04/23 15:59:07.1      97    -58     55    114    126 121.1  27.3  34218  290.55 0854.35
2009/04/23 15:59:07.2      72    -19     42     75     85 105.1  31.9  34222  290.62 0854.33
2009/04/23 15:59:07.3     -34    -21     11     41     43 237.6  15.3  34216  290.52 0854.33
2009/04/23 15:59:07.4      25    -74    -14     79     81 161.3 -10.3  34212  290.45 0854.33
2009/04/23 15:59:07.5     131    -45     12    139    140 109.1   5.0  34224  290.67 0854.33
2009/04/23 15:59:07.6      98    -57     17    114    116 120.2   8.5  34236  290.87 0854.33
2009/04/23 15:59:07.7      94    -30     59     99    115 108.2  34.4  34244  290.99 0854.33
2009/04/23 15:59:07.8      60    -38     55     72     90 122.5  41.7  34184  289.99 0854.33
2009/04/23 15:59:07.9     112     32    134    117    177  74.1  54.3  34214  290.50 0854.33
2009/04/23 15:59:08.0      35    -28    133     46    140 128.6  81.2  34242  290.98 0854.33
2009/04/23 15:59:08.1     -11     23    107     26    110 334.6  86.9  34266  291.37 0854.33
2009/04/23 15:59:08.2      81     40    132     91    160  63.4  62.1  34254  291.18 0854.33
2009/04/23 15:59:08.3      67    -22     77     71    104 108.2  52.2  34260  291.28 0854.33
2009/04/23 15:59:08.4      28     85     83     90    122  18.7  47.9  34288  291.76 0854.33
2009/04/23 15:59:08.5       9    154     31    155    159   3.6  11.4  34302  291.98 0854.33
2009/04/23 15:59:08.6     -11    169    -30    170    173 356.0 -10.3  34322  292.34 0854.33
2009/04/23 15:59:08.7      23    158    -38    160    165   8.5 -13.4  34322  292.32 0854.33
2009/04/23 15:59:08.8      16    114    -66    116    133   8.0 -37.3  34244  290.99 0854.33
2009/04/23 15:59:08.9     -10     50   -168     52    175 348.4 -86.2  34182  289.96 0854.33
2009/04/23 15:59:09.0      46    251    -36    256    259  10.5  -8.0  34198  290.22 0854.33
2009/04/23 15:59:09.1      68    126   -105    144    178  28.5 -44.1  34178  289.87 0854.33
2009/04/23 15:59:09.2      24    180   -122    182    219   7.8 -41.7  34130  289.08 0854.31
2009/04/23 15:59:09.3      41    201   -194    206    282  11.6 -52.6  34144  289.31 0854.31
2009/04/23 15:59:09.4     117    272   -284    297    410  23.2 -53.0  34182  289.94 0854.31
2009/04/23 15:59:09.5      85    -28   -258     90    273 108.6 -84.6  34194  290.14 0854.31
2009/04/23 15:59:09.6      82    128   -148    153    212  32.6 -53.8  34188  290.06 0854.31
2009/04/23 15:59:09.7     162    311   -178    351    393  27.5 -33.5  34240  290.94 0854.31
2009/04/23 15:59:09.8     176    290    -37    340    343  31.3  -6.3  34224  290.67 0854.31
2009/04/23 15:59:09.9     480    209    -10    524    525  66.4  -1.2  34260  291.26 0854.31
2009/04/23 15:59:10.0     182    213    115    281    303  40.5  23.4  34234  290.82 0854.31
2009/04/23 15:59:10.1      19    107    219    109    244  10.2  71.9  34226  290.70 0854.31
2009/04/23 15:59:10.2     126    -62    140    141    198 116.2  50.0  34258  291.23 0854.31
2009/04/23 15:59:10.3     224    -23     24    226    228  96.1   6.1  34336  292.58 0854.31
2009/04/23 15:59:10.4     175     51    125    183    221  73.6  37.6  34354  292.86 0854.31
2009/04/23 15:59:10.5     254    107    130    276    305  67.2  27.1  34408  293.80 0854.31
2009/04/23 15:59:10.6     155     11    115    156    193  85.7  39.9  34382  293.36 0854.31
2009/04/23 15:59:10.7      78     32    171     85    190  67.4  71.9  34384  293.38 0854.31
2009/04/23 15:59:10.8     305     61    209    312    375  78.6  37.0  34322  292.31 0854.31
2009/04/23 15:59:10.9     269    200    219    336    401  53.4  36.2  34302  291.98 0854.31
2009/04/23 15:59:11.0     353    224    110    419    434  57.6  14.7  34276  291.55 0854.31
2009/04/23 15:59:11.1     440    144    150    464    488  71.8  17.9  34270  291.44 0854.31
2009/04/23 15:59:11.2     271    246    118    367    386  47.8  17.8  34198  290.20 0854.31
2009/04/23 15:59:11.3     244    287    108    377    393  40.4  16.0  34184  289.99 0854.31
2009/04/23 15:59:11.4     198    303     92    363    375  33.2  14.3  34174  289.81 0854.31
2009/04/23 15:59:11.5      94    293     72    308    317  17.8  13.2  34200  290.24 0854.31
2009/04/23 15:59:11.6     113    243     13    268    269  24.9   2.9  34254  291.16 0854.31
2009/04/23 15:59:11.7     175    140    -53    225    232  51.4 -13.4  34198  290.21 0854.31
2009/04/23 15:59:11.8      99     94    -34    137    142  46.4 -13.9  34188  290.04 0854.31
2009/04/23 15:59:11.9      52      4    -53     53     74  85.7 -54.5  34198  290.23 0854.31
2009/04/23 15:59:12.0     -85    -53   -106    101    146 238.0 -56.0  34172  289.77 0854.31
2009/04/23 15:59:12.1      34    -62   -118     71    137 151.0 -71.1  34146  289.33 0854.31
2009/04/23 15:59:12.2     145     30    -53    149    158  78.1 -24.8  34146  289.35 0854.31
2009/04/23 15:59:12.3     158     36     99    163    190  77.2  34.4  34164  289.63 0854.31
2009/04/23 15:59:12.4     223     49    193    229    299  77.4  44.3  34180  289.90 0854.31
2009/04/23 15:59:12.5     291    -24     63    293    300  94.8  12.2  34154  289.47 0854.31
2009/04/23 15:59:12.6     255     27     32    257    260  83.9   7.2  34160  289.56 0854.31
2009/04/23 15:59:12.7     246    174    148    302    336  54.7  28.1  34170  289.73 0854.31
2009/04/23 15:59:12.8     353    201     63    407    412  60.3   8.8  34194  290.14 0854.31
2009/04/23 15:59:12.9     147    374     -1    402    403  21.5  -0.3  34284  291.69 0854.31
2009/04/23 15:59:13.0      38    281      2    284    285   7.8   0.5  34260  291.27 0854.31
2009/04/23 15:59:13.1     127    304    221    330    397  22.7  37.0  34268  291.39 0854.31
2009/04/23 15:59:13.2     105    447    160    460    488  13.3  19.2  34238  290.90 0854.31
2009/04/23 15:59:13.3    -206    414     38    463    465 333.5   4.7  34202  290.29 0854.31
2009/04/23 15:59:13.4    -280    462     26    541    542 328.8   2.8  34220  290.60 0854.31
2009/04/23 15:59:13.5    -134    465    285    485    562 343.9  33.3  34222  290.63 0854.31
2009/04/23 15:59:13.6      48    497    215    500    544   5.6  24.8  34192  290.13 0854.31
2009/04/23 15:59:13.7      75    348    254    357    438  12.3  38.8  34318  292.26 0854.31
2009/04/23 15:59:13.8     316    143    166    348    385  65.6  27.3  34258  291.23 0854.31
2009/04/23 15:59:13.9     348    227    265    416    493  56.8  35.5  34302  291.99 0854.31
2009/04/23 15:59:14.0     424    192    102    466    478  65.6  12.4  34286  291.70 0854.31
2009/04/23 15:59:14.1     485    487    147    688    704  44.9  12.1  34248  291.08 0854.31
2009/04/23 15:59:14.3     414    535    119    677    688  37.8  10.0  34226  290.70 0854.30
2009/04/23 15:59:14.4     258    461    197    529    564  29.3  21.5  34224  290.65 0854.30
2009/04/23 15:59:14.5     421    247    102    489    500  59.6  11.8  34232  290.81 0854.30
2009/04/23 15:59:14.6     370    394    123    541    555  43.2  12.9  34238  290.91 0854.30
2009/04/23 15:59:14.7     454    540    181    706    729  40.1  14.4  34158  289.55 0854.30
2009/04/23 15:59:14.8     243    468    268    528    592  27.5  29.2  34180  289.91 0854.30
2009/04/23 15:59:14.9     131    525    257    542    599  14.0  27.2  34126  288.98 0854.30
2009/04/23 15:59:15.0      97    566    309    575    652   9.8  30.7  34136  289.15 0854.30
2009/04/23 15:59:15.1     -92    308     77    322    332 343.4  13.6  34138  289.20 0854.30
2009/04/23 15:59:15.2    -204    272    156    341    374 323.2  26.3  34148  289.38 0854.30
2009/04/23 15:59:15.3    -507    527    -34    732    733 316.1  -2.7  34152  289.45 0854.30
2009/04/23 15:59:15.4    -831    582     37   1015   1016 305.0   2.1  34158  289.54 0854.30
2009/04/23 15:59:15.5    -755    381    -14    846    847 296.8  -1.0  34154  289.46 0854.30
2009/04/23 15:59:15.6    -756    219    193    788    812 286.2  13.8  34166  289.66 0854.30
2009/04/23 15:59:15.7    -706    189    364    731    816 285.1  28.5  34208  290.37 0854.30
2009/04/23 15:59:15.8    -426    157    463    455    649 290.3  50.6  34208  290.39 0854.30
2009/04/23 15:59:15.9    -645    110    230    655    695 279.7  19.4  34196  290.17 0854.30
2009/04/23 15:59:16.0    -586    -42    298    588    659 265.9  28.9  34206  290.35 0854.30
2009/04/23 15:59:16.1    -391    -37    329    393    512 264.5  44.3  34232  290.78 0854.30
2009/04/23 15:59:16.2    -172   -132    263    218    341 232.5  56.2  34238  290.88 0854.30
2009/04/23 15:59:16.3    -267   -139    119    302    324 242.5  22.5  34162  289.59 0854.28
2009/04/23 15:59:16.4    -264   -155    132    307    334 239.6  24.8  34220  290.59 0854.28
2009/04/23 15:59:16.5       6   -145    237    146    278 177.3  65.7  34242  290.95 0854.28
2009/04/23 15:59:16.6     -12   -110    248    111    271 186.2  74.2  34302  292.00 0854.28
2009/04/23 15:59:16.7      59     84    229    104    251  35.2  74.0  34286  291.72 0854.28
2009/04/23 15:59:16.8     -29     60    180     67    192 333.7  78.9  34284  291.67 0854.28
2009/04/23 15:59:16.9     -42    207    199    212    290 348.4  48.0  34232  290.80 0854.28
2009/04/23 15:59:17.0     115    216    184    246    307  28.1  40.6  34228  290.73 0854.28
2009/04/23 15:59:17.1      25    334    173    335    377   4.4  29.4  34230  290.77 0854.28
2009/04/23 15:59:17.2     100    180    167    207    265  29.2  43.5  34224  290.66 0854.28
2009/04/23 15:59:17.3     250     93    348    267    438  69.6  58.6  34204  290.33 0854.28
2009/04/23 15:59:17.4     -73     35    229     82    243 295.8  79.9  34224  290.67 0854.28
2009/04/23 15:59:17.5      99    106    184    146    234  43.2  57.5  34208  290.38 0854.28
2009/04/23 15:59:17.6     130    236    206    270    339  29.0  41.2  34196  290.17 0854.28
2009/04/23 15:59:17.7     150    141    164    207    264  46.8  42.7  34196  290.17 0854.28
2009/04/23 15:59:17.8     116    152    192    192    271  37.2  50.1  34204  290.31 0854.28
2009/04/23 15:59:17.9     138    174    216    223    310  38.5  49.2  34202  290.27 0854.28
2009/04/23 15:59:18.0     -51     93    147    107    181 331.0  60.5  34208  290.38 0854.28
2009/04/23 15:59:18.1     -26     26    175     37    178 315.0  88.8  34180  289.92 0854.28
2009/04/23 15:59:18.2     -62     24    184     67    195 291.7  79.5  34174  289.82 0854.28
2009/04/23 15:59:18.3     -10    -72    198     73    211 188.0  79.2  34170  289.74 0854.29
2009/04/23 15:59:18.4     -88   -114    225    145    267 217.8  64.6  34172  289.78 0854.29
2009/04/23 15:59:18.5     -57     30    157     65    169 298.0  76.3  34178  289.87 0854.29
2009/04/23 15:59:18.6      -8    -12    123     15    123 212.5  90.0  34170  289.74 0854.29
2009/04/23 15:59:18.7     109     44     96    118    152  67.8  43.7  34176  289.84 0854.29
2009/04/23 15:59:18.8     113     26     44    117    125  76.7  21.0  34172  289.79 0854.29
2009/04/23 15:59:18.9      67    -18     -2     70     71 105.1  -2.2  34182  289.94 0854.29
2009/04/23 15:59:19.0     -23    -18    -13     30     32 232.2 -29.5  34186  290.02 0854.29
2009/04/23 15:59:19.1       6     48     11     49     51   8.0  13.2  34192  290.11 0854.29
2009/04/23 15:59:19.2      15     32    -69     36     77  25.4 -75.2  34192  290.11 0854.29
2009/04/23 15:59:19.3     -30    -10    -41     32     52 250.0 -61.9  34196  290.19 0854.29
2009/04/23 15:59:19.4     -67   -106     57    126    138 212.5  25.7  34192  290.13 0854.29
2009/04/23 15:59:19.5     -38   -100    140    108    176 200.9  58.5  34192  290.11 0854.29
2009/04/23 15:59:19.6     -73     -1     44     74     86 269.2  34.0  34188  290.04 0854.29
2009/04/23 15:59:19.7     -40    -61      3     74     75 213.4   2.9  34182  289.96 0854.29
2009/04/23 15:59:19.8     -33    -53    -25     63     67 211.6 -27.4  34190  290.09 0854.29
2009/04/23 15:59:19.9       7    -67    -30     68     74 173.8 -29.5  34200  290.26 0854.29
2009/04/23 15:59:20.0      62    -34      7     71     72 118.9   5.9  34202  290.28 0854.29
2009/04/23 15:59:20.1      38    -25     95     46    105 124.2  72.8  34208  290.38 0854.29
2009/04/23 15:59:20.2       5   -152     50    153    161 177.8  18.1  34192  290.13 0854.29
2009/04/23 15:59:20.3     -50   -166    173    174    245 196.9  50.0  34196  290.19 0854.29
2009/04/23 15:59:20.4     -66    -75    150    101    180 221.4  62.8  34200  290.26 0854.29
2009/04/23 15:59:20.5     129    -30    161    133    208 103.3  56.4  34216  290.53 0854.29
2009/04/23 15:59:20.6     -94   -113    142    148    205 219.7  49.2  34202  290.30 0854.29
2009/04/23 15:59:20.7     -44   -132    131    140    191 198.7  48.0  34200  290.25 0854.29
2009/04/23 15:59:20.8     -99    -98    117    140    182 225.2  44.1  34194  290.14 0854.29
2009/04/23 15:59:20.9    -299   -209    -46    365    368 235.0  -7.2  34146  289.32 0854.29
2009/04/23 15:59:21.0    -315   -146   -143    348    376 245.2 -27.9  34150  289.40 0854.29
2009/04/23 15:59:21.1    -119   -283    -38    308    311 202.8  -7.2  34188  290.05 0854.29
2009/04/23 15:59:21.2    -175   -278    -12    329    330 212.2  -2.2  34182  289.93 0854.29
2009/04/23 15:59:21.3     -58   -353     53    358    362 189.3   8.5  34188  290.04 0854.29
2009/04/23 15:59:21.4     -91   -281    216    296    366 198.0  39.7  34182  289.94 0854.29
2009/04/23 15:59:21.5     -94   -315    155    329    363 196.7  27.1  34180  289.91 0854.29
2009/04/23 15:59:21.6    -118   -191    104    225    247 211.6  26.4  34182  289.93 0854.29
2009/04/23 15:59:21.7    -192   -165    126    254    283 229.3  28.2  34194  290.15 0854.29
2009/04/23 15:59:21.8    -246    -45     59    251    258 259.5  13.2  34214  290.49 0854.29
2009/04/23 15:59:21.9    -288    -13    131    289    317 267.4  26.2  34222  290.63 0854.29
2009/04/23 15:59:22.0    -230    -25     87    232    247 263.6  21.5  34230  290.75 0854.29
2009/04/23 15:59:22.1    -268     85     76    282    293 287.7  15.2  34230  290.75 0854.29
2009/04/23 15:59:22.2    -209     30    117    212    242 278.4  31.4  34198  290.21 0854.29
2009/04/23 15:59:22.3    -173     68    107    186    214 291.5  32.7  34224  290.67 0854.31
2009/04/23 15:59:22.4     -88      0     26     89     93 269.6  16.8  34230  290.77 0854.31
2009/04/23 15:59:22.5     -15   -138     95    139    168 186.2  37.6  34204  290.31 0854.31
2009/04/23 15:59:22.6     -87   -197     29    216    218 203.8   7.8  34190  290.08 0854.31
2009/04/23 15:59:22.7    -390   -260    -77    470    477 236.3  -9.3  34162  289.59 0854.31
2009/04/23 15:59:22.8    -573   -266   -103    632    641 245.1  -9.3  34160  289.57 0854.31
2009/04/23 15:59:22.9    -456   -324    -37    560    562 234.6  -3.8  34178  289.87 0854.31
2009/04/23 15:59:23.0    -321   -257    -22    412    413 231.4  -3.1  34172  289.77 0854.31
2009/04/23 15:59:23.1    -246   -130     78    279    290 242.0  15.8  34172  289.78 0854.31
2009/04/23 15:59:23.2     -93   -166    135    191    233 209.4  38.8  34178  289.87 0854.31
2009/04/23 15:59:23.3      32    -97    105    103    147 161.7  50.2  34194  290.16 0854.31
2009/04/23 15:59:23.4     144    -91    119    171    208 122.4  38.0  34182  289.94 0854.31
2009/04/23 15:59:23.5      72   -132    171    151    228 151.1  54.2  34184  289.99 0854.31
2009/04/23 15:59:23.6      47    -56     90     74    116 140.4  56.4  34188  290.06 0854.31
2009/04/23 15:59:23.7      21   -175    -63    177    187 172.9 -24.6  34180  289.92 0854.31
2009/04/23 15:59:23.8      88   -202    -61    221    229 156.3 -20.0  34180  289.92 0854.31
2009/04/23 15:59:23.9      80   -185    -56    202    210 156.4 -15.5  34182  289.94 0854.31
2009/04/23 15:59:24.0     131   -168    -69    214    224 142.2 -23.3  34182  289.94 0854.31
2009/04/23 15:59:24.1     103   -165    -72    195    207 147.9 -25.4  34182  289.94 0854.31
2009/04/23 15:59:24.2     104   -136    -90    172    194 142.8 -34.5  34180  289.91 0854.31
2009/04/23 15:59:24.3     182   -111    -99    214    235 121.3 -30.8  34180  289.91 0854.32
2009/04/23 15:59:24.4     225   -102    -88    248    264 114.4 -19.7  34172  289.76 0854.32
2009/04/23 15:59:24.5     242    -35     46    245    250  98.4  10.8  34164  289.63 0854.32
2009/04/23 15:59:24.6     280     61     29    287    289  77.6   5.9  34162  289.59 0854.32
2009/04/23 15:59:24.7     194    134     55    236    243  55.4  13.1  34184  289.97 0854.32
2009/04/23 15:59:24.8     115     22     27    118    122  79.0  13.2  34184  289.99 0854.32
2009/04/23 15:59:24.9      70     44     79     83    114  57.6  49.0  34192  290.11 0854.32
2009/04/23 15:59:25.0     -28      0     87     29     91 270.0  81.0  34218  290.55 0854.32
2009/04/23 15:59:25.1     -58     48     70     76    103 309.6  47.9  34208  290.38 0854.32
2009/04/23 15:59:25.2     -26    102    125    106    163 345.3  55.6  34198  290.23 0854.32
2009/04/23 15:59:25.3     -14     69     75     71    103 348.4  51.6  34194  290.16 0854.32
2009/04/23 15:59:25.4       9    -10    117     14    117 136.6  90.0  34198  290.23 0854.32
2009/04/23 15:59:25.5     117     73     49    138    146  58.0  20.0  34188  290.06 0854.32
2009/04/23 15:59:25.6      86     39     67     95    116  65.2  38.6  34178  289.89 0854.32
2009/04/23 15:59:25.7      66      0    102     67    122  90.0  63.6  34188  290.04 0854.32
2009/04/23 15:59:25.8      67     67     99     95    137  45.0  51.6  34178  289.87 0854.32
2009/04/23 15:59:25.9     -13    141      3    142    143 354.7   1.2  34180  289.91 0854.32
2009/04/23 15:59:26.0     -32     66     -1     74     75 333.7  -1.2  34180  289.92 0854.32
2009/04/23 15:59:26.1      15     44    -30     47     55  18.7 -39.9  34178  289.87 0854.32
2009/04/23 15:59:26.2      30     66    -70     73    101  24.5 -52.9  34184  289.97 0854.32
2009/04/23 15:59:26.3      52     97    -99    111    148  28.5 -50.8  34182  289.94 0854.34
2009/04/23 15:59:26.4      26    122   -128    125    178  12.0 -55.1  34180  289.91 0854.34
2009/04/23 15:59:26.5     109    118   -118    161    199  42.8 -44.1  34186  290.01 0854.34
2009/04/23 15:59:26.6     197    201   -123    282    307  44.3 -29.5  34192  290.12 0854.34
2009/04/23 15:59:26.7     271    227   -116    354    372  50.0 -23.6  34192  290.10 0854.34
2009/04/23 15:59:26.8     157    265   -112    308    327  30.7 -25.2  34186  290.00 0854.34
2009/04/23 15:59:26.9     247    247    -91    350    362  45.1 -14.7  34194  290.15 0854.34
2009/04/23 15:59:27.0     188    338   -125    387    406  29.1 -23.0  34194  290.16 0854.34
2009/04/23 15:59:27.1     290    291      8    411    412  44.9   1.2  34190  290.09 0854.34
2009/04/23 15:59:27.2     117    335    123    355    376  19.3  19.2  34188  290.06 0854.34
2009/04/23 15:59:27.3      53    336     87    341    353   9.0  14.4  34192  290.10 0854.34
2009/04/23 15:59:27.4     155    155     80    220    234  45.1  20.9  34192  290.11 0854.34
2009/04/23 15:59:27.5     237    120    169    266    315  63.0  35.5  34186  290.02 0854.34
2009/04/23 15:59:27.6     180    144    211    231    312  51.4  47.1  34192  290.10 0854.34
2009/04/23 15:59:27.7     162     84    139    183    229  62.5  41.2  34196  290.19 0854.34
2009/04/23 15:59:27.8      54    149    124    159    201  20.0  41.7  34202  290.30 0854.34
2009/04/23 15:59:27.9     -40    -19     85     45     96 244.7  69.8  34206  290.35 0854.34
2009/04/23 15:59:28.0     -13     -8    138     16    138 237.6  90.0  34206  290.35 0854.34
2009/04/23 15:59:28.1       3     40    111     41    118   4.4  79.1  34216  290.53 0854.34
2009/04/23 15:59:28.2     -23     13    122     27    124 298.9  88.0  34216  290.52 0854.34
2009/04/23 15:59:28.3      16     57    139     60    151  16.0  75.0  34222  290.62 0854.34
2009/04/23 15:59:28.4     -35     -2    114     36    119 265.7  81.8  34216  290.53 0854.34
2009/04/23 15:59:28.5     -77   -121    130    144    194 212.5  47.1  34192  290.13 0854.34
2009/04/23 15:59:28.6    -124   -195    196    232    303 212.6  44.3  34200  290.24 0854.34
2009/04/23 15:59:28.7    -224   -119     44    254    258 242.0  10.0  34190  290.09 0854.34
2009/04/23 15:59:28.8    -223    -66     -9    233    234 253.4  -2.2  34192  290.10 0854.34
2009/04/23 15:59:28.9      21   -127     76    129    149 170.3  33.5  34196  290.19 0854.34
2009/04/23 15:59:29.0     100    -42    124    109    165 113.1  54.3  34214  290.48 0854.34
2009/04/23 15:59:29.1      45      0    174     46    179  90.0  84.9  34218  290.57 0854.34
2009/04/23 15:59:29.2      60      3    197     61    206  86.5  82.3  34218  290.55 0854.34
2009/04/23 15:59:29.3      24    -14    212     29    213 120.7  90.0  34228  290.74 0854.34
2009/04/23 15:59:29.4     -66     48    183     82    200 306.0  74.5  34238  290.89 0854.34
2009/04/23 15:59:29.5      27    -67    248     73    258 158.2  83.3  34228  290.72 0854.34
2009/04/23 15:59:29.6    -168   -191    102    255    274 221.5  23.0  34228  290.71 0854.34
2009/04/23 15:59:29.7    -165   -226    108    281    301 216.1  22.1  34208  290.37 0854.34
2009/04/23 15:59:29.8     -93   -223     99    242    261 202.7  23.1  34204  290.31 0854.34
2009/04/23 15:59:29.9     -22   -247    141    249    286 185.1  32.1  34210  290.42 0854.34
2009/04/23 15:59:30.0      -4   -260    193    261    324 180.9  40.2  34202  290.27 0854.34
2009/04/23 15:59:30.1     -72   -322    193    331    383 192.6  33.0  34192  290.11 0854.34
2009/04/23 15:59:30.2     -88   -262    172    277    326 198.7  34.9  34194  290.14 0854.34
2009/04/23 15:59:30.3     -66   -311    209    318    380 192.0  36.3  34208  290.38 0854.36
2009/04/23 15:59:30.4     -40   -327    180    330    375 187.1  31.3  34186  290.01 0854.36
2009/04/23 15:59:30.5     -95   -250    132    268    298 200.9  28.2  34178  289.88 0854.36
2009/04/23 15:59:30.6    -199   -135    -16    241    242 235.8  -3.9  34178  289.86 0854.36
2009/04/23 15:59:30.7     -26   -190    -69    192    205 188.0 -19.7  34174  289.80 0854.36
2009/04/23 15:59:30.8     -29   -381     53    382    386 184.4   8.0  34172  289.76 0854.36
2009/04/23 15:59:30.9    -154   -316    244    352    428 206.0  38.0  34194  290.14 0854.36
2009/04/23 15:59:31.0    -174   -277    221    328    395 212.1  37.3  34194  290.15 0854.36
2009/04/23 15:59:31.1    -227   -309    174    384    421 216.3  26.2  34194  290.14 0854.36
2009/04/23 15:59:31.2    -263   -392    129    473    491 213.8  15.3  34188  290.05 0854.36
2009/04/23 15:59:31.3    -177   -391     84    430    439 204.4  11.1  34190  290.07 0854.36
2009/04/23 15:59:31.4    -266   -378     47    463    466 215.1   5.9  34176  289.83 0854.36
2009/04/23 15:59:31.5    -294   -519    132    597    612 209.5  12.5  34184  289.98 0854.36
2009/04/23 15:59:31.6    -320   -462    193    563    596 214.7  18.9  34198  290.22 0854.36
2009/04/23 15:59:31.7    -331   -518    -13    615    616 212.6  -1.3  34198  290.21 0854.36
2009/04/23 15:59:31.8    -227   -404    -38    464    466 209.3  -4.8  34188  290.06 0854.36
2009/04/23 15:59:31.9     -56   -298      4    304    305 190.7   0.8  34198  290.22 0854.36
2009/04/23 15:59:32.0    -178   -186      3    258    259 223.7   0.7  34204  290.32 0854.36
2009/04/23 15:59:32.1    -214   -299    -33    368    370 215.6  -5.2  34194  290.16 0854.36
2009/04/23 15:59:32.2    -201   -393   -143    442    465 207.1 -18.0  34196  290.17 0854.36
2009/04/23 15:59:32.3    -241   -175    -83    298    309 234.0 -20.2  34202  290.29 0854.36
2009/04/23 15:59:32.4    -258   -233     53    349    354 227.9   8.7  34228  290.74 0854.36
2009/04/23 15:59:32.5    -311   -287     -4    424    425 227.3  -0.6  34234  290.84 0854.36
2009/04/23 15:59:32.6    -188   -282    -62    339    345 213.7 -10.4  34234  290.84 0854.36
2009/04/23 15:59:32.7    -176   -330    -78    375    384 208.1 -11.8  34212  290.45 0854.36
2009/04/23 15:59:32.8    -123   -271    -43    298    302 204.5  -8.3  34206  290.34 0854.36
2009/04/23 15:59:32.9    -202   -151    -71    253    263 233.2 -15.8  34216  290.53 0854.36
2009/04/23 15:59:33.0      -3   -217      3    218    219 181.0   1.0  34218  290.57 0854.36
2009/04/23 15:59:33.1       5   -305    -58    306    312 179.0 -10.8  34220  290.58 0854.36
2009/04/23 15:59:33.2    -113   -365    -43    383    386 197.2  -6.5  34188  290.04 0854.33
2009/04/23 15:59:33.3    -143   -387   -131    413    433 200.3 -22.8  34198  290.22 0854.33
2009/04/23 15:59:33.4     -16   -480    -96    481    491 182.0 -11.3  34216  290.51 0854.33
2009/04/23 15:59:33.5      99   -397    127    410    430 165.9  17.3  34194  290.14 0854.33
2009/04/23 15:59:33.6      67   -261    194    270    332 165.5  39.5  34214  290.49 0854.33
2009/04/23 15:59:33.7      39   -211    210    215    300 169.3  49.8  34216  290.53 0854.33
2009/04/23 15:59:33.8       1   -373    125    374    395 179.8  18.5  34204  290.33 0854.33
2009/04/23 15:59:33.9      50   -385    242    389    458 172.6  35.0  34198  290.22 0854.33
2009/04/23 15:59:34.0     -56   -393    169    398    432 188.2  24.3  34208  290.38 0854.33
2009/04/23 15:59:34.1    -141   -407    151    431    457 199.2  19.4  34222  290.63 0854.33
2009/04/23 15:59:34.2    -134   -266    113    298    318 206.7  21.7  34212  290.46 0854.33
2009/04/23 15:59:34.3     295    -22    317    296    433  94.3  52.2  34238  290.89 0854.33
2009/04/23 15:59:34.4     263    -22    366    265    451  95.0  60.6  34218  290.57 0854.33
2009/04/23 15:59:34.5      46   -324    137    328    355 171.9  23.9  34174  289.82 0854.33
2009/04/23 15:59:34.6      83   -255    103    269    288 162.0  22.0  34190  290.07 0854.33
2009/04/23 15:59:34.7     171   -208     95    270    286 140.6  20.0  34186  290.02 0854.33
2009/04/23 15:59:34.8     235   -127    130    268    297 118.4  27.8  34184  289.97 0854.33
2009/04/23 15:59:34.9     287    -86     58    300    306 106.8  11.1  34178  289.88 0854.33
2009/04/23 15:59:35.0     303   -127    109    329    347 112.8  18.4  34184  289.98 0854.33
2009/04/23 15:59:35.1     290   -341    274    448    525 139.6  34.4  34160  289.56 0854.33
2009/04/23 15:59:35.2     352   -191    361    401    539 118.5  46.6  34168  289.71 0854.32
2009/04/23 15:59:35.3     333   -133    233    359    427 111.9  35.9  34168  289.70 0854.32
2009/04/23 15:59:35.4     170   -169    164    240    290 134.8  37.6  34176  289.83 0854.32
2009/04/23 15:59:35.5     165   -139    107    216    241 130.2  28.2  34170  289.75 0854.32
2009/04/23 15:59:35.6     144   -242    263    282    385 149.2  47.9  34168  289.72 0854.32
2009/04/23 15:59:35.7     275    -32    217    277    351  96.8  42.0  34174  289.81 0854.32
2009/04/23 15:59:35.8     168    -50    124    176    215 106.8  39.1  34174  289.82 0854.32
2009/04/23 15:59:35.9      15   -153     87    154    176 174.2  31.6  34174  289.80 0854.32
2009/04/23 15:59:36.0     -90   -261    136    277    308 199.1  28.0  34176  289.85 0854.32
2009/04/23 15:59:36.1     -32   -255    152    258    299 187.2  33.4  34178  289.86 0854.32
2009/04/23 15:59:36.2     -26   -373    249    374    449 184.1  36.7  34178  289.88 0854.32
2009/04/23 15:59:36.3    -165   -397    173    430    463 202.6  23.1  34170  289.75 0854.32
2009/04/23 15:59:36.4      44   -259    227    263    347 170.2  45.1  34174  289.81 0854.32
2009/04/23 15:59:36.5    -120   -530    244    544    596 192.8  25.9  34182  289.95 0854.32
2009/04/23 15:59:36.6    -101   -592    232    601    644 189.7  22.2  34190  290.09 0854.32
2009/04/23 15:59:36.7    -179   -624    243    650    693 196.0  21.4  34186  290.02 0854.32
2009/04/23 15:59:36.8    -262   -433    176    507    537 211.2  19.2  34198  290.21 0854.32
2009/04/23 15:59:36.9    -208   -384    145    437    461 208.5  18.4  34220  290.60 0854.32
2009/04/23 15:59:37.0     -59   -209    245    218    327 195.8  53.9  34208  290.37 0854.32
2009/04/23 15:59:37.1     -65   -380    248    386    458 189.7  35.6  34188  290.05 0854.32
2009/04/23 15:59:37.2     -43   -303    262    307    403 188.1  44.8  34188  290.04 0854.32
2009/04/23 15:59:37.3      39   -124    194    131    234 162.6  63.2  34200  290.26 0854.32
2009/04/23 15:59:37.4      93    -31    242     99    261 108.6  77.0  34212  290.47 0854.32
2009/04/23 15:59:37.5     -32     -3    233     33    235 263.9  90.0  34218  290.55 0854.32
2009/04/23 15:59:37.6     -14   -243    293    244    381 183.4  56.3  34234  290.84 0854.32
2009/04/23 15:59:37.7      27   -271    225    273    353 174.2  43.7  34220  290.60 0854.32
2009/04/23 15:59:37.8     -12   -227    106    228    251 183.1  27.0  34200  290.24 0854.32
2009/04/23 15:59:37.9     -90   -227     21    245    246 201.6   5.0  34188  290.03 0854.32
2009/04/23 15:59:38.0     -69   -240    104    250    270 196.1  24.1  34190  290.07 0854.32
2009/04/23 15:59:38.1     -73   -353    140    361    387 191.8  22.4  34214  290.50 0854.32
2009/04/23 15:59:38.2    -127   -334    309    358    472 200.9  45.2  34236  290.87 0854.32
2009/04/23 15:59:38.4       3   -208    249    209    325 179.1  55.8  34236  290.87 0854.32
2009/04/23 15:59:38.4     -18   -125    285    127    312 188.5  74.5  34254  291.17 0854.32
2009/04/23 15:59:38.5     -23   -123    262    126    290 190.7  72.8  34252  291.12 0854.32
2009/04/23 15:59:38.6      35   -203    113    207    235 170.0  31.0  34204  290.31 0854.32
2009/04/23 15:59:38.7     -35   -159    121    164    203 192.7  39.9  34198  290.23 0854.32
2009/04/23 15:59:38.8     -21   -164    145    166    220 187.3  45.8  34232  290.81 0854.32
2009/04/23 15:59:38.9     -62     -1    106     63    123 268.3  66.7  34242  290.98 0854.32
2009/04/23 15:59:39.0     -47     97    117    108    159 334.1  52.5  34236  290.87 0854.32
2009/04/23 15:59:39.1    -109     32    150    114    188 286.8  59.0  34246  291.03 0854.32
2009/04/23 15:59:39.2     -11   -198    153    199    251 183.4  41.7  34206  290.34 0854.31
2009/04/23 15:59:39.3       2   -186     68    187    198 179.1  20.9  34188  290.04 0854.31
2009/04/23 15:59:39.4      77   -328    -85    337    348 166.8 -14.3  34182  289.96 0854.31
2009/04/23 15:59:39.6      75   -302     65    312    319 166.0  11.8  34190  290.07 0854.31
2009/04/23 15:59:39.6     -30   -204     32    207    210 188.5   8.8  34194  290.14 0854.31
2009/04/23 15:59:39.7     -43   -128    124    136    184 198.7  47.7  34206  290.35 0854.31
2009/04/23 15:59:39.8      88      3     61     89    107  87.9  37.6  34214  290.48 0854.31
2009/04/23 15:59:39.9      68    -69     46     98    108 135.3  27.1  34198  290.23 0854.31
2009/04/23 15:59:40.0     -77     53     53     94    107 304.6  31.4  34208  290.40 0854.31
2009/04/23 15:59:40.1     -82     75     57    112    125 312.7  29.2  34204  290.33 0854.31
2009/04/23 15:59:40.2    -161     18     67    163    176 276.6  23.6  34204  290.31 0854.31
2009/04/23 15:59:40.3    -186     -3    170    187    252 269.0  47.0  34220  290.59 0854.31
2009/04/23 15:59:40.4    -224     45     69    229    240 281.4  16.8  34220  290.59 0854.31
2009/04/23 15:59:40.5    -360    -24    -14    361    362 266.1  -2.2  34220  290.60 0854.31
2009/04/23 15:59:40.7    -251     31    -64    253    262 277.1 -14.3  34220  290.59 0854.31
2009/04/23 15:59:40.7    -238    -36    -22    241    243 261.2  -5.4  34208  290.39 0854.31
2009/04/23 15:59:40.8    -394      4   -153    395    423 270.7 -26.7  34206  290.34 0854.31
2009/04/23 15:59:40.9    -285    -31   -153    287    325 263.6 -34.9  34198  290.20 0854.31
2009/04/23 15:59:41.0    -370    -69    194    377    423 259.4  29.3  34250  291.09 0854.31
2009/04/23 15:59:41.1    -284     56    176    290    339 281.2  34.3  34252  291.14 0854.31
2009/04/23 15:59:41.2    -180     12     44    181    187 273.9  13.9  34240  290.94 0854.32
2009/04/23 15:59:41.3    -163    164     98    232    251 315.2  24.2  34270  291.44 0854.32
2009/04/23 15:59:41.4    -165     80    -27    184    187 296.0  -8.6  34218  290.55 0854.32
2009/04/23 15:59:41.5    -142    154      7    210    211 317.2   2.1  34234  290.82 0854.32
2009/04/23 15:59:41.6    -114    232     47    259    264 333.7  10.3  34250  291.09 0854.32
2009/04/23 15:59:41.7    -190    241     15    308    309 321.7   2.9  34238  290.90 0854.32
2009/04/23 15:59:41.9    -174    256     -1    310    311 325.7  -0.3  34264  291.34 0854.32
2009/04/23 15:59:41.9    -282    302   -114    414    430 317.0 -15.5  34220  290.58 0854.32
2009/04/23 15:59:42.0    -102    310     37    327    330 341.7   6.6  34274  291.51 0854.32
2009/04/23 15:59:42.2     -96    329     54    343    348 343.6   9.0  34288  291.73 0854.32
2009/04/23 15:59:42.3     -87    268    116    282    304 342.0  23.6  34316  292.23 0854.32
2009/04/23 15:59:42.4    -112    256    151    280    318 336.4  30.7  34302  291.99 0854.32
2009/04/23 15:59:42.5    -167    266    199    315    372 327.9  35.5  34300  291.95 0854.32
2009/04/23 15:59:42.6    -129    264    151    294    330 333.9  29.2  34304  292.01 0854.32
2009/04/23 15:59:42.7    -144    311    143    343    371 335.1  23.9  34290  291.78 0854.32
2009/04/23 15:59:42.8    -249    259     87    360    371 316.2  13.6  34312  292.14 0854.32
2009/04/23 15:59:42.9    -222    255     63    339    345 318.9  10.6  34302  291.97 0854.32
2009/04/23 15:59:43.0    -118    223    113    253    277 332.0  25.3  34294  291.84 0854.32
2009/04/23 15:59:43.1     -65    293    121    301    324 347.5  23.0  34302  291.99 0854.32
2009/04/23 15:59:43.2    -104    261     65    282    290 338.2  13.1  34314  292.19 0854.32
2009/04/23 15:59:43.3    -142    277     21    312    313 332.9   4.0  34302  291.97 0854.31
2009/04/23 15:59:43.4    -182    302    105    353    369 328.9  16.6  34288  291.73 0854.31
2009/04/23 15:59:43.5    -255    248     42    356    359 314.2   6.9  34262  291.32 0854.31
2009/04/23 15:59:43.6    -128    128      6    182    183 315.0   2.1  34256  291.20 0854.31
2009/04/23 15:59:43.7     -55    144      8    155    156 339.1   3.3  34252  291.15 0854.31
2009/04/23 15:59:43.8     -50    183     46    190    196 344.6  13.7  34256  291.20 0854.31
2009/04/23 15:59:43.9     -35    162     95    166    191 347.5  32.1  34302  291.98 0854.31
2009/04/23 15:59:44.0     -11    180     95    181    204 356.4  30.1  34332  292.49 0854.31
2009/04/23 15:59:44.1     -29    232     59    234    242 352.7  14.3  34326  292.38 0854.31
2009/04/23 15:59:44.2     -34    242     34    245    248 351.9   8.0  34314  292.19 0854.31
2009/04/23 15:59:44.3      28    239    101    241    261   6.7  24.1  34310  292.11 0854.31
2009/04/23 15:59:44.4      -4    246     83    247    261 359.0  18.6  34302  291.97 0854.31
2009/04/23 15:59:44.5      12    107     80    108    134   6.7  40.1  34282  291.64 0854.31
2009/04/23 15:59:44.6     119     48     82    129    152  67.8  35.5  34262  291.32 0854.31
2009/04/23 15:59:44.7     126     26     71    129    147  78.1  31.3  34262  291.30 0854.31
2009/04/23 15:59:44.8     117    -19    108    119    160  99.2  46.9  34262  291.30 0854.31
2009/04/23 15:59:44.9     164    -25     49    166    174  98.8  16.6  34252  291.13 0854.31
2009/04/23 15:59:45.0     206     -8    172    207    269  92.4  43.8  34252  291.12 0854.31
2009/04/23 15:59:45.1     299     -4     -1    300    301  90.8  -0.3  34260  291.26 0854.31
2009/04/23 15:59:45.2     320    -89    -56    333    338 105.5  -9.6  34262  291.32 0854.31
2009/04/23 15:59:45.3     367   -159    -41    400    403 113.4  -5.9  34248  291.06 0854.32
2009/04/23 15:59:45.4     292   -161   -127    334    357 118.9 -26.1  34260  291.27 0854.32
2009/04/23 15:59:45.5     251   -212    -55    329    334 130.2  -9.6  34250  291.10 0854.32
2009/04/23 15:59:45.6     332   -264    134    425    446 128.5  17.5  34232  290.80 0854.32
2009/04/23 15:59:45.7     193   -285     78    345    354 145.8  12.8  34238  290.91 0854.32
2009/04/23 15:59:45.8     278   -185    142    335    363 123.7  24.5  34222  290.64 0854.32
2009/04/23 15:59:45.9     229   -177    231    290    370 127.7  42.6  34234  290.83 0854.32
2009/04/23 15:59:46.0     247   -247    110    350    367 135.0  17.5  34226  290.69 0854.32
2009/04/23 15:59:46.1     269   -338    195    433    474 141.5  25.9  34228  290.72 0854.32
2009/04/23 15:59:46.2     166   -379    220    414    468 156.3  30.3  34240  290.92 0854.32
2009/04/23 15:59:46.3     229   -247    232    338    409 137.2  37.8  34234  290.83 0854.32
2009/04/23 15:59:46.4     172   -278    186    328    377 148.3  32.0  34238  290.91 0854.32
2009/04/23 15:59:46.5     183   -284    231    338    409 147.2  37.6  34236  290.86 0854.32
2009/04/23 15:59:46.6     107   -321    197    339    392 161.5  32.8  34234  290.83 0854.32
2009/04/23 15:59:46.7     175   -190    263    259    369 137.5  50.2  34224  290.67 0854.32
2009/04/23 15:59:46.8     117      0    321    118    342  89.6  79.2  34234  290.83 0854.32
2009/04/23 15:59:46.9      77    -38    206     87    223 116.6  76.3  34232  290.81 0854.32
2009/04/23 15:59:47.0      67   -189    235    201    309 160.4  55.4  34238  290.90 0854.32
2009/04/23 15:59:47.1     151   -254    260    296    393 149.3  45.8  34248  291.06 0854.32
2009/04/23 15:59:47.2      69   -128    203    146    250 151.5  60.8  34238  290.89 0854.32
2009/04/23 15:59:47.3      11   -209    215    210    300 176.9  50.4  34242  290.97 0854.33
2009/04/23 15:59:47.4      41   -290    233    293    374 171.9  42.6  34240  290.93 0854.33
2009/04/23 15:59:47.5     142    -61    259    155    301 113.5  66.4  34262  291.29 0854.33
2009/04/23 15:59:47.6      -5     36    206     37    209 352.0  90.0  34262  291.32 0854.33
2009/04/23 15:59:47.7      79     13    186     81    202  80.3  75.0  34256  291.21 0854.33
2009/04/23 15:59:47.8      -7     35    220     36    222 348.4  90.0  34276  291.54 0854.33
2009/04/23 15:59:47.9     -33     61    182     70    195 331.0  78.4  34286  291.71 0854.33
2009/04/23 15:59:48.0      58     88    164    106    195  33.4  64.1  34256  291.20 0854.33
2009/04/23 15:59:48.1     -27    152    158    155    221 349.8  50.4  34250  291.09 0854.33
2009/04/23 15:59:48.2      54    -46    214     72    225 130.4  81.2  34242  290.96 0854.33
2009/04/23 15:59:48.3       0   -167    247    168    298 180.0  62.6  34234  290.83 0854.33
2009/04/23 15:59:48.4       7   -239    331    240    408 178.2  60.7  34232  290.81 0854.33
2009/04/23 15:59:48.5     -62   -306    321    313    448 191.6  50.8  34226  290.68 0854.33
2009/04/23 15:59:48.6     -99   -306    347    322    473 198.0  52.5  34242  290.95 0854.33
2009/04/23 15:59:48.7      11   -259    261    260    368 177.5  50.1  34240  290.93 0854.33
2009/04/23 15:59:48.8     -23   -275    232    277    361 184.9  44.2  34236  290.86 0854.33
2009/04/23 15:59:48.9     -25   -269    233    271    357 185.4  45.2  34232  290.81 0854.33
2009/04/23 15:59:49.0     -82   -248    223    262    344 198.3  44.5  34230  290.75 0854.33
2009/04/23 15:59:49.1     -94   -217    225    237    326 203.6  48.5  34236  290.85 0854.33
2009/04/23 15:59:49.2     -70   -177    228    191    297 201.8  56.3  34250  291.10 0854.33
2009/04/23 15:59:49.3     -56    -46    165     73    180 230.4  74.8  34274  291.50 0854.33
2009/04/23 15:59:49.4     -11     80    101     81    129 352.0  56.9  34260  291.28 0854.33
2009/04/23 15:59:49.5     125    129    174    181    251  44.1  49.0  34276  291.55 0854.33
2009/04/23 15:59:49.6      68    143    115    159    196  25.5  39.7  34276  291.55 0854.33
2009/04/23 15:59:49.7      23    136     32    139    143   9.8  13.2  34306  292.05 0854.33
2009/04/23 15:59:49.8    -106     68   -101    127    162 302.9 -47.1  34280  291.60 0854.33
2009/04/23 15:59:49.9    -120      0    -47    121    129 270.4 -26.4  34270  291.45 0854.33
2009/04/23 15:59:50.0    -203    146    -33    251    254 305.7  -7.5  34260  291.27 0854.33
2009/04/23 15:59:50.1     -92     37    -12    100    101 292.2  -7.2  34256  291.21 0854.33
2009/04/23 15:59:50.2     -47    -32    137     58    148 235.8  76.1  34262  291.32 0854.33
2009/04/23 15:59:50.3     -77   -115    187    139    233 213.8  60.0  34230  290.75 0854.33
2009/04/23 15:59:50.4       1     51    120     52    130   1.8  75.0  34240  290.94 0854.33
2009/04/23 15:59:50.5      30    -64    227     72    238 154.5  81.8  34240  290.92 0854.33
2009/04/23 15:59:50.6     -23     73    160     77    177 342.2  72.8  34248  291.06 0854.33
2009/04/23 15:59:50.7       2     46    130     47    138   3.6  79.2  34240  290.92 0854.33
2009/04/23 15:59:50.8      18     31    133     37    138  30.7  84.8  34256  291.21 0854.33
2009/04/23 15:59:50.9     -78   -100     61    127    140 217.9  27.3  34252  291.13 0854.33
2009/04/23 15:59:51.0    -127   -178    257    219    337 215.6  55.4  34242  290.97 0854.33
2009/04/23 15:59:51.1     -14   -132    286    133    315 186.3  73.5  34240  290.93 0854.33
2009/04/23 15:59:51.2      20   -165    269    167    316 172.9  65.3  34240  290.93 0854.33
2009/04/23 15:59:51.3      25     28    184     38    187  41.4  89.0  34240  290.94 0854.33
2009/04/23 15:59:51.4     -11    -52    219     54    225 192.5  86.7  34242  290.96 0854.33
2009/04/23 15:59:51.5     241    -87    255    257    362 109.9  50.0  34252  291.15 0854.33
2009/04/23 15:59:51.6     303    -65     63    311    318 102.2  11.5  34278  291.58 0854.33
2009/04/23 15:59:51.7     194    -33     46    197    203  99.7  13.2  34278  291.57 0854.33
2009/04/23 15:59:51.8     231     39     24    235    237  80.3   6.0  34294  291.84 0854.33
2009/04/23 15:59:51.9     150     50    113    159    195  71.4  39.1  34292  291.81 0854.33
2009/04/23 15:59:52.0     167     17    148    168    223  84.1  45.9  34320  292.29 0854.33
2009/04/23 15:59:52.1     204     45    252    210    328  77.4  56.1  34348  292.76 0854.33
2009/04/23 15:59:52.2     220      1    170    221    278  89.6  41.6  34324  292.35 0854.33
2009/04/23 15:59:52.3     211     55    122    219    250  75.2  31.4  34346  292.72 0854.31
2009/04/23 15:59:52.4     203     89    142    222    263  66.3  35.6  34338  292.59 0854.31
2009/04/23 15:59:52.5     178     28     14    181    182  80.8   4.6  34328  292.44 0854.31
2009/04/23 15:59:52.6     211     81    -67    227    237  68.9 -16.5  34340  292.62 0854.31
2009/04/23 15:59:52.7     140     10     17    141    143  85.7   6.9  34346  292.75 0854.31
2009/04/23 15:59:52.8     173    128    -56    216    224  53.6 -14.7  34354  292.86 0854.31
2009/04/23 15:59:52.9     211    136    129    252    283  57.1  29.3  34334  292.52 0854.31
2009/04/23 15:59:53.0     100     47    109    111    155  64.6  50.0  34320  292.29 0854.31
2009/04/23 15:59:53.1      93     10    111     94    145  83.4  55.8  34304  292.01 0854.31
2009/04/23 15:59:53.2     219     99    120    241    269  65.6  28.2  34326  292.38 0854.31
2009/04/23 15:59:53.3     119    143    130    187    227  39.7  38.0  34300  291.95 0854.31
2009/04/23 15:59:53.4     256    232      4    346    347  47.8   0.8  34256  291.20 0854.31
2009/04/23 15:59:53.5     370    218      0    430    431  59.4   0.0  34242  290.97 0854.31
2009/04/23 15:59:53.6     447    225    -27    501    502  63.3  -3.1  34222  290.62 0854.31
2009/04/23 15:59:53.7     402    224     28    461    462  60.8   3.5  34216  290.51 0854.31
2009/04/23 15:59:53.8     381    196     96    429    440  62.8  12.6  34254  291.18 0854.31
2009/04/23 15:59:53.9     421    289    134    511    529  55.5  14.7  34248  291.08 0854.31
2009/04/23 15:59:54.0     414    355    112    546    558  49.3  11.7  34228  290.72 0854.31
2009/04/23 15:59:54.1     447    284    -85    530    537  57.6  -9.1  34230  290.75 0854.31
2009/04/23 15:59:54.2     424    184    -38    463    465  66.5  -4.8  34224  290.67 0854.31
2009/04/23 15:59:54.3     384    189   -100    429    441  63.8 -13.2  34212  290.46 0854.30
2009/04/23 15:59:54.4     198    211    -99    290    307  43.2 -19.0  34224  290.65 0854.30
2009/04/23 15:59:54.5     186    127    -69    226    236  55.6 -21.8  34242  290.95 0854.30
2009/04/23 15:59:54.6     272     82    -54    285    291  73.2 -10.9  34236  290.85 0854.30
2009/04/23 15:59:54.7     301     96    -31    317    319  72.2  -5.6  34268  291.41 0854.30
2009/04/23 15:59:54.8     429    148    -43    454    457  70.9  -5.5  34266  291.38 0854.30
2009/04/23 15:59:54.9     409    134    -16    431    432  71.8  -2.2  34246  291.02 0854.30
2009/04/23 15:59:55.0     322    -42     18    325    326  97.5   3.2  34232  290.78 0854.30
2009/04/23 15:59:55.1     324     76    174    333    375  76.7  29.8  34222  290.64 0854.30
2009/04/23 15:59:55.2     295    124    111    321    340  67.2  19.1  34228  290.72 0854.30
2009/04/23 15:59:55.3     365     96    121    378    398  75.2  17.8  34232  290.79 0854.30
2009/04/23 15:59:55.4     384    161    148    417    443  67.3  19.6  34262  291.29 0854.30
2009/04/23 15:59:55.5     476    108    138    489    509  77.2  15.8  34268  291.39 0854.30
2009/04/23 15:59:55.6     464    147    252    487    548  72.4  29.4  34264  291.35 0854.30
2009/04/23 15:59:55.7     340     15    313    341    462  87.4  47.5  34250  291.11 0854.30
2009/04/23 15:59:55.8     362    119    226    382    443  71.7  33.5  34280  291.60 0854.30
2009/04/23 15:59:55.9     303    -18    168    304    347  93.5  31.4  34330  292.46 0854.30
2009/04/23 15:59:56.0     206    -71    142    219    261 109.1  35.7  34306  292.04 0854.30
2009/04/23 15:59:56.1     276     55    198    282    344  78.6  38.6  34338  292.59 0854.30
2009/04/23 15:59:56.2     320     63    200    327    383  78.8  34.4  34298  291.90 0854.30
2009/04/23 15:59:56.3     295    118    196    318    373  68.2  34.8  34232  290.79 0854.30
2009/04/23 15:59:56.4     327     91    187    340    388  74.3  31.3  34230  290.76 0854.30
2009/04/23 15:59:56.5     263     60    177    270    322  77.0  36.3  34236  290.87 0854.30
2009/04/23 15:59:56.6     214    150     87    262    277  54.9  18.4  34292  291.80 0854.30
2009/04/23 15:59:56.7     154     57    142    165    217  69.4  45.4  34282  291.64 0854.30
2009/04/23 15:59:56.8     189     38    141    193    239  78.6  39.7  34300  291.96 0854.30
2009/04/23 15:59:56.9     158     90    152    183    237  60.2  43.8  34328  292.44 0854.30
2009/04/23 15:59:57.0      72    268    142    278    312  15.2  29.2  34258  291.22 0854.30
2009/04/23 15:59:57.1      27    339    153    341    373   4.7  25.8  34242  290.96 0854.30
2009/04/23 15:59:57.2      16    225    189    226    294   4.2  43.8  34252  291.14 0854.30
2009/04/23 15:59:57.3      14    224    149    225    269   3.6  36.5  34242  290.97 0854.30
2009/04/23 15:59:57.4     -12    210    122    211    243 356.6  32.7  34246  291.04 0854.30
2009/04/23 15:59:57.5      44    218     90    223    240  11.5  23.1  34246  291.02 0854.30
2009/04/23 15:59:57.6      11    166     65    167    179   4.0  22.5  34250  291.09 0854.30
2009/04/23 15:59:57.7     -11    159     12    160    161 356.0   4.6  34254  291.16 0854.30
2009/04/23 15:59:57.8     121    156     77    198    212  37.8  22.3  34252  291.13 0854.30
2009/04/23 15:59:57.9       0    112     98    113    149 359.6  45.4  34258  291.23 0854.30
2009/04/23 15:59:58.0      51     92     79    106    132  29.0  40.7  34262  291.32 0854.30
2009/04/23 15:59:58.1     151    183     56    238    245  39.6  13.2  34248  291.05 0854.30
2009/04/23 15:59:58.2     227    125     41    260    264  61.2   9.0  34260  291.27 0854.30
2009/04/23 15:59:58.3     207    136      6    248    249  56.7   1.6  34248  291.05 0854.31
2009/04/23 15:59:58.4     209     91     45    229    234  66.4  11.1  34256  291.20 0854.31
2009/04/23 15:59:58.5     203    162     32    260    263  51.4   7.2  34284  291.68 0854.31
2009/04/23 15:59:58.6     151     93    -46    178    185  58.2 -14.7  34268  291.42 0854.31
2009/04/23 15:59:58.7     122     88    -32    151    155  54.0 -12.2  34264  291.35 0854.31
2009/04/23 15:59:58.8     171    115    -18    207    208  56.0  -5.2  34274  291.50 0854.31
2009/04/23 15:59:58.9     325    166    -82    366    376  62.9 -12.6  34292  291.81 0854.31
2009/04/23 15:59:59.0     331    144     96    361    374  66.5  14.9  34324  292.36 0854.31
2009/04/23 15:59:59.1     419    156    199    448    490  69.6  25.6  34318  292.24 0854.31
2009/04/23 15:59:59.2     247    136    325    282    430  61.1  54.7  34248  291.08 0854.31
2009/04/23 15:59:59.3     426    -30    179    428    463  94.1  24.1  34244  291.01 0854.31
2009/04/23 15:59:59.4     310    -83    195    321    375 105.1  34.2  34244  291.00 0854.31
2009/04/23 15:59:59.5     433   -220    125    486    502 117.0  14.5  34238  290.88 0854.31
2009/04/23 15:59:59.6     360   -266     58    448    452 126.5   7.4  34244  290.99 0854.31
2009/04/23 15:59:59.7     218   -467    -60    516    520 155.0  -6.7  34286  291.71 0854.31
2009/04/23 15:59:59.8     318   -386   -158    501    526 140.5 -17.6  34292  291.83 0854.31
